<?xml version='1.0' encoding='UTF-8'?><gpx version="1.1" creator="JPX - https://github.com/jenetics/jpx" xmlns="http://www.topografix.com/GPX/1/1"><trk><trkseg><trkpt lat="33.5456883" lon="9.9705653"><ele>393.00000000000006</ele><time>2026-04-26T07:47:18.693Z</time></trkpt><trkpt lat="33.5457584" lon="9.9705586"><ele>393.0</ele><time>2026-04-26T07:47:21.697Z</time></trkpt><trkpt lat="33.545815" lon="9.9705246"><ele>393.0</ele><time>2026-04-26T07:47:23.696Z</time></trkpt><trkpt lat="33.5458911" lon="9.9704726"><ele>393.0</ele><time>2026-04-26T07:47:26.708Z</time></trkpt><trkpt lat="33.5459551" lon="9.9704433"><ele>393.0</ele><time>2026-04-26T07:47:28.705Z</time></trkpt><trkpt lat="33.5460172" lon="9.9704104"><ele>393.00000000000006</ele><time>2026-04-26T07:47:30.698Z</time></trkpt><trkpt lat="33.5460558" lon="9.9703367"><ele>393.0</ele><time>2026-04-26T07:47:32.698Z</time></trkpt><trkpt lat="33.5460446" lon="9.9702234"><ele>393.0</ele><time>2026-04-26T07:47:34.707Z</time></trkpt><trkpt lat="33.5460119" lon="9.9701137"><ele>393.0</ele><time>2026-04-26T07:47:36.718Z</time></trkpt><trkpt lat="33.5460053" lon="9.9699763"><ele>393.0</ele><time>2026-04-26T07:47:38.707Z</time></trkpt><trkpt lat="33.5460171" lon="9.9698372"><ele>393.0</ele><time>2026-04-26T07:47:40.714Z</time></trkpt><trkpt lat="33.5460345" lon="9.9696907"><ele>391.59999999999997</ele><time>2026-04-26T07:47:42.68Z</time></trkpt><trkpt lat="33.5460397" lon="9.9695448"><ele>390.2</ele><time>2026-04-26T07:47:44.734Z</time></trkpt><trkpt lat="33.5460544" lon="9.9694029"><ele>388.8</ele><time>2026-04-26T07:47:46.732Z</time></trkpt><trkpt lat="33.5460725" lon="9.969285"><ele>387.4</ele><time>2026-04-26T07:47:48.738Z</time></trkpt><trkpt lat="33.5461297" lon="9.9691972"><ele>386.0</ele><time>2026-04-26T07:47:50.713Z</time></trkpt><trkpt lat="33.5461564" lon="9.9691213"><ele>385.4</ele><time>2026-04-26T07:47:52.737Z</time></trkpt><trkpt lat="33.5460777" lon="9.969076"><ele>384.8</ele><time>2026-04-26T07:47:56.71Z</time></trkpt><trkpt lat="33.5459805" lon="9.9690823"><ele>384.2</ele><time>2026-04-26T07:47:58.735Z</time></trkpt><trkpt lat="33.5458556" lon="9.9690456"><ele>383.59999999999997</ele><time>2026-04-26T07:48:00.774Z</time></trkpt><trkpt lat="33.5457903" lon="9.9690393"><ele>383.0</ele><time>2026-04-26T07:48:01.738Z</time></trkpt><trkpt lat="33.5457171" lon="9.9690488"><ele>383.0</ele><time>2026-04-26T07:48:02.711Z</time></trkpt><trkpt lat="33.5456365" lon="9.9690706"><ele>383.0</ele><time>2026-04-26T07:48:03.74Z</time></trkpt><trkpt lat="33.5455512" lon="9.9690779"><ele>383.0</ele><time>2026-04-26T07:48:04.739Z</time></trkpt><trkpt lat="33.545468" lon="9.9690768"><ele>383.0</ele><time>2026-04-26T07:48:05.751Z</time></trkpt><trkpt lat="33.5453826" lon="9.969048"><ele>383.0</ele><time>2026-04-26T07:48:06.741Z</time></trkpt><trkpt lat="33.5452953" lon="9.9690082"><ele>383.0</ele><time>2026-04-26T07:48:07.721Z</time></trkpt><trkpt lat="33.5452097" lon="9.9689723"><ele>382.33333333333337</ele><time>2026-04-26T07:48:08.729Z</time></trkpt><trkpt lat="33.5451378" lon="9.9689387"><ele>381.6666666666667</ele><time>2026-04-26T07:48:09.723Z</time></trkpt><trkpt lat="33.5450519" lon="9.9689084"><ele>381.0</ele><time>2026-04-26T07:48:10.741Z</time></trkpt><trkpt lat="33.5449672" lon="9.9688673"><ele>380.3333333333333</ele><time>2026-04-26T07:48:11.741Z</time></trkpt><trkpt lat="33.5448891" lon="9.9688311"><ele>379.66666666666663</ele><time>2026-04-26T07:48:12.745Z</time></trkpt><trkpt lat="33.5448266" lon="9.9687926"><ele>379.0</ele><time>2026-04-26T07:48:13.749Z</time></trkpt><trkpt lat="33.5447718" lon="9.9687412"><ele>379.0</ele><time>2026-04-26T07:48:14.725Z</time></trkpt><trkpt lat="33.5446777" lon="9.9686425"><ele>379.0</ele><time>2026-04-26T07:48:16.713Z</time></trkpt><trkpt lat="33.5445973" lon="9.9685504"><ele>379.0</ele><time>2026-04-26T07:48:18.724Z</time></trkpt><trkpt lat="33.5445487" lon="9.968468"><ele>379.0</ele><time>2026-04-26T07:48:20.723Z</time></trkpt><trkpt lat="33.544531" lon="9.9683802"><ele>379.0</ele><time>2026-04-26T07:48:22.82Z</time></trkpt><trkpt lat="33.5445725" lon="9.9682913"><ele>378.2</ele><time>2026-04-26T07:48:24.738Z</time></trkpt><trkpt lat="33.5446364" lon="9.9681969"><ele>377.4</ele><time>2026-04-26T07:48:26.734Z</time></trkpt><trkpt lat="33.5447204" lon="9.9681113"><ele>376.6</ele><time>2026-04-26T07:48:28.728Z</time></trkpt><trkpt lat="33.5448014" lon="9.9680234"><ele>375.8</ele><time>2026-04-26T07:48:30.723Z</time></trkpt><trkpt lat="33.5448947" lon="9.9679297"><ele>375.0</ele><time>2026-04-26T07:48:32.753Z</time></trkpt><trkpt lat="33.5449491" lon="9.9678753"><ele>375.0</ele><time>2026-04-26T07:48:33.744Z</time></trkpt><trkpt lat="33.5450067" lon="9.9678154"><ele>375.0</ele><time>2026-04-26T07:48:34.712Z</time></trkpt><trkpt lat="33.5450623" lon="9.9677624"><ele>375.0</ele><time>2026-04-26T07:48:35.745Z</time></trkpt><trkpt lat="33.5451217" lon="9.9677137"><ele>375.0</ele><time>2026-04-26T07:48:36.736Z</time></trkpt><trkpt lat="33.5451841" lon="9.9676619"><ele>375.0</ele><time>2026-04-26T07:48:37.72Z</time></trkpt><trkpt lat="33.5452462" lon="9.96762"><ele>375.0</ele><time>2026-04-26T07:48:38.749Z</time></trkpt><trkpt lat="33.5453094" lon="9.9675762"><ele>375.0</ele><time>2026-04-26T07:48:39.729Z</time></trkpt><trkpt lat="33.5453801" lon="9.9675441"><ele>375.7142857142857</ele><time>2026-04-26T07:48:40.744Z</time></trkpt><trkpt lat="33.5454534" lon="9.9675396"><ele>376.4285714285714</ele><time>2026-04-26T07:48:41.733Z</time></trkpt><trkpt lat="33.5455259" lon="9.9675372"><ele>377.1428571428571</ele><time>2026-04-26T07:48:42.716Z</time></trkpt><trkpt lat="33.5456028" lon="9.9675515"><ele>377.8571428571429</ele><time>2026-04-26T07:48:43.72Z</time></trkpt><trkpt lat="33.5456798" lon="9.9675695"><ele>378.57142857142856</ele><time>2026-04-26T07:48:44.69Z</time></trkpt><trkpt lat="33.5457503" lon="9.9675925"><ele>379.2857142857143</ele><time>2026-04-26T07:48:45.734Z</time></trkpt><trkpt lat="33.5458124" lon="9.9676201"><ele>380.0</ele><time>2026-04-26T07:48:46.733Z</time></trkpt><trkpt lat="33.5459162" lon="9.9676189"><ele>380.0</ele><time>2026-04-26T07:48:48.732Z</time></trkpt><trkpt lat="33.5459404" lon="9.9675459"><ele>380.0</ele><time>2026-04-26T07:48:50.723Z</time></trkpt><trkpt lat="33.5459168" lon="9.9674683"><ele>380.0</ele><time>2026-04-26T07:48:51.74Z</time></trkpt><trkpt lat="33.5459004" lon="9.9673925"><ele>380.0</ele><time>2026-04-26T07:48:52.773Z</time></trkpt><trkpt lat="33.5458816" lon="9.9673105"><ele>380.0</ele><time>2026-04-26T07:48:53.703Z</time></trkpt><trkpt lat="33.5458637" lon="9.9672272"><ele>380.0</ele><time>2026-04-26T07:48:54.738Z</time></trkpt><trkpt lat="33.545852" lon="9.9671375"><ele>380.0</ele><time>2026-04-26T07:48:55.73Z</time></trkpt><trkpt lat="33.5458452" lon="9.9670475"><ele>379.83333333333337</ele><time>2026-04-26T07:48:56.74Z</time></trkpt><trkpt lat="33.5458406" lon="9.9669525"><ele>379.6666666666667</ele><time>2026-04-26T07:48:57.723Z</time></trkpt><trkpt lat="33.5458403" lon="9.9668522"><ele>379.5</ele><time>2026-04-26T07:48:58.757Z</time></trkpt><trkpt lat="33.5458342" lon="9.9667458"><ele>379.3333333333333</ele><time>2026-04-26T07:48:59.732Z</time></trkpt><trkpt lat="33.5458278" lon="9.9666362"><ele>379.16666666666663</ele><time>2026-04-26T07:49:00.753Z</time></trkpt><trkpt lat="33.5458207" lon="9.9665266"><ele>379.0</ele><time>2026-04-26T07:49:01.738Z</time></trkpt><trkpt lat="33.5458168" lon="9.9664099"><ele>377.0</ele><time>2026-04-26T07:49:02.73Z</time></trkpt><trkpt lat="33.5458132" lon="9.9662914"><ele>375.0</ele><time>2026-04-26T07:49:03.755Z</time></trkpt><trkpt lat="33.5458166" lon="9.9661744"><ele>373.0</ele><time>2026-04-26T07:49:04.739Z</time></trkpt><trkpt lat="33.5458246" lon="9.9660524"><ele>371.0</ele><time>2026-04-26T07:49:05.73Z</time></trkpt><trkpt lat="33.5458323" lon="9.965928"><ele>369.0</ele><time>2026-04-26T07:49:06.73Z</time></trkpt><trkpt lat="33.5458399" lon="9.965798"><ele>368.79999999999995</ele><time>2026-04-26T07:49:07.712Z</time></trkpt><trkpt lat="33.5458522" lon="9.9656712"><ele>368.59999999999997</ele><time>2026-04-26T07:49:08.733Z</time></trkpt><trkpt lat="33.5458631" lon="9.9655429"><ele>368.4</ele><time>2026-04-26T07:49:09.733Z</time></trkpt><trkpt lat="33.5458698" lon="9.9654231"><ele>368.2</ele><time>2026-04-26T07:49:10.731Z</time></trkpt><trkpt lat="33.5458775" lon="9.9653065"><ele>368.0</ele><time>2026-04-26T07:49:11.722Z</time></trkpt><trkpt lat="33.5458774" lon="9.9651939"><ele>368.0</ele><time>2026-04-26T07:49:12.738Z</time></trkpt><trkpt lat="33.5458658" lon="9.9650765"><ele>368.0</ele><time>2026-04-26T07:49:13.734Z</time></trkpt><trkpt lat="33.5458303" lon="9.9649759"><ele>368.0</ele><time>2026-04-26T07:49:14.724Z</time></trkpt><trkpt lat="33.5457744" lon="9.9648889"><ele>368.0</ele><time>2026-04-26T07:49:15.731Z</time></trkpt><trkpt lat="33.5457098" lon="9.9648281"><ele>368.0</ele><time>2026-04-26T07:49:16.736Z</time></trkpt><trkpt lat="33.5456339" lon="9.9647812"><ele>368.0</ele><time>2026-04-26T07:49:17.73Z</time></trkpt><trkpt lat="33.5455618" lon="9.9647279"><ele>368.5</ele><time>2026-04-26T07:49:18.73Z</time></trkpt><trkpt lat="33.5454928" lon="9.9646669"><ele>369.0</ele><time>2026-04-26T07:49:19.737Z</time></trkpt><trkpt lat="33.5454448" lon="9.9645916"><ele>369.5</ele><time>2026-04-26T07:49:20.713Z</time></trkpt><trkpt lat="33.545407" lon="9.9645143"><ele>370.0</ele><time>2026-04-26T07:49:21.748Z</time></trkpt><trkpt lat="33.5453684" lon="9.9644292"><ele>370.5</ele><time>2026-04-26T07:49:22.778Z</time></trkpt><trkpt lat="33.5453258" lon="9.9643418"><ele>371.0</ele><time>2026-04-26T07:49:23.709Z</time></trkpt><trkpt lat="33.5452868" lon="9.9642497"><ele>370.4</ele><time>2026-04-26T07:49:24.743Z</time></trkpt><trkpt lat="33.5452448" lon="9.9641558"><ele>369.8</ele><time>2026-04-26T07:49:25.733Z</time></trkpt><trkpt lat="33.5452109" lon="9.9640471"><ele>369.2</ele><time>2026-04-26T07:49:26.703Z</time></trkpt><trkpt lat="33.5451771" lon="9.9639397"><ele>368.59999999999997</ele><time>2026-04-26T07:49:27.738Z</time></trkpt><trkpt lat="33.5451446" lon="9.963836"><ele>368.0</ele><time>2026-04-26T07:49:28.736Z</time></trkpt><trkpt lat="33.5451199" lon="9.9637329"><ele>368.0</ele><time>2026-04-26T07:49:29.704Z</time></trkpt><trkpt lat="33.5451144" lon="9.9636432"><ele>368.0</ele><time>2026-04-26T07:49:30.748Z</time></trkpt><trkpt lat="33.545131" lon="9.9635531"><ele>368.0</ele><time>2026-04-26T07:49:31.708Z</time></trkpt><trkpt lat="33.5451586" lon="9.9634673"><ele>368.0</ele><time>2026-04-26T07:49:32.731Z</time></trkpt><trkpt lat="33.5451981" lon="9.9633753"><ele>368.0</ele><time>2026-04-26T07:49:33.729Z</time></trkpt><trkpt lat="33.5452595" lon="9.9632805"><ele>368.0</ele><time>2026-04-26T07:49:34.732Z</time></trkpt><trkpt lat="33.5453351" lon="9.9631707"><ele>370.0</ele><time>2026-04-26T07:49:35.735Z</time></trkpt><trkpt lat="33.5454156" lon="9.9630521"><ele>372.0</ele><time>2026-04-26T07:49:36.721Z</time></trkpt><trkpt lat="33.5454917" lon="9.962935"><ele>374.0</ele><time>2026-04-26T07:49:37.726Z</time></trkpt><trkpt lat="33.5455613" lon="9.9628154"><ele>376.0</ele><time>2026-04-26T07:49:38.723Z</time></trkpt><trkpt lat="33.5456122" lon="9.9626838"><ele>376.0</ele><time>2026-04-26T07:49:39.732Z</time></trkpt><trkpt lat="33.5456533" lon="9.9625387"><ele>376.0</ele><time>2026-04-26T07:49:40.725Z</time></trkpt><trkpt lat="33.54569" lon="9.9623884"><ele>376.0</ele><time>2026-04-26T07:49:41.731Z</time></trkpt><trkpt lat="33.5457261" lon="9.9622278"><ele>376.0</ele><time>2026-04-26T07:49:42.712Z</time></trkpt><trkpt lat="33.5457584" lon="9.9620582"><ele>375.25</ele><time>2026-04-26T07:49:43.768Z</time></trkpt><trkpt lat="33.5457895" lon="9.9618812"><ele>374.5</ele><time>2026-04-26T07:49:44.723Z</time></trkpt><trkpt lat="33.5458328" lon="9.9617168"><ele>373.75</ele><time>2026-04-26T07:49:45.704Z</time></trkpt><trkpt lat="33.545874" lon="9.961567"><ele>373.0</ele><time>2026-04-26T07:49:46.708Z</time></trkpt><trkpt lat="33.5459234" lon="9.9614202"><ele>372.75</ele><time>2026-04-26T07:49:47.711Z</time></trkpt><trkpt lat="33.54597" lon="9.9612841"><ele>372.5</ele><time>2026-04-26T07:49:48.721Z</time></trkpt><trkpt lat="33.5460145" lon="9.9611484"><ele>372.25</ele><time>2026-04-26T07:49:49.736Z</time></trkpt><trkpt lat="33.5460563" lon="9.9610153"><ele>372.0</ele><time>2026-04-26T07:49:50.717Z</time></trkpt><trkpt lat="33.5460996" lon="9.9608806"><ele>371.75</ele><time>2026-04-26T07:49:51.738Z</time></trkpt><trkpt lat="33.5461407" lon="9.9607466"><ele>371.5</ele><time>2026-04-26T07:49:52.737Z</time></trkpt><trkpt lat="33.5461907" lon="9.9606138"><ele>371.25</ele><time>2026-04-26T07:49:53.683Z</time></trkpt><trkpt lat="33.5462447" lon="9.9604763"><ele>371.0</ele><time>2026-04-26T07:49:54.741Z</time></trkpt><trkpt lat="33.5463111" lon="9.9603363"><ele>370.0</ele><time>2026-04-26T07:49:55.72Z</time></trkpt><trkpt lat="33.5463853" lon="9.9601974"><ele>369.0</ele><time>2026-04-26T07:49:56.747Z</time></trkpt><trkpt lat="33.5464606" lon="9.9600585"><ele>368.0</ele><time>2026-04-26T07:49:57.734Z</time></trkpt><trkpt lat="33.5465352" lon="9.9599186"><ele>367.0</ele><time>2026-04-26T07:49:58.724Z</time></trkpt><trkpt lat="33.546608" lon="9.9597817"><ele>366.75</ele><time>2026-04-26T07:49:59.735Z</time></trkpt><trkpt lat="33.5466806" lon="9.9596477"><ele>366.5</ele><time>2026-04-26T07:50:00.695Z</time></trkpt><trkpt lat="33.5467526" lon="9.9595179"><ele>366.25</ele><time>2026-04-26T07:50:01.742Z</time></trkpt><trkpt lat="33.5468175" lon="9.9593865"><ele>366.0</ele><time>2026-04-26T07:50:02.73Z</time></trkpt><trkpt lat="33.5468734" lon="9.959269"><ele>366.0</ele><time>2026-04-26T07:50:03.735Z</time></trkpt><trkpt lat="33.5469243" lon="9.959149"><ele>366.0</ele><time>2026-04-26T07:50:04.711Z</time></trkpt><trkpt lat="33.546966" lon="9.9590325"><ele>366.0</ele><time>2026-04-26T07:50:05.743Z</time></trkpt><trkpt lat="33.5469935" lon="9.9589113"><ele>366.0</ele><time>2026-04-26T07:50:06.706Z</time></trkpt><trkpt lat="33.5470047" lon="9.9587885"><ele>366.0</ele><time>2026-04-26T07:50:07.737Z</time></trkpt><trkpt lat="33.5469973" lon="9.9586619"><ele>366.0</ele><time>2026-04-26T07:50:08.728Z</time></trkpt><trkpt lat="33.5469807" lon="9.9585368"><ele>366.0</ele><time>2026-04-26T07:50:09.701Z</time></trkpt><trkpt lat="33.5469539" lon="9.9584159"><ele>366.0</ele><time>2026-04-26T07:50:10.744Z</time></trkpt><trkpt lat="33.5469258" lon="9.9583039"><ele>366.0</ele><time>2026-04-26T07:50:11.742Z</time></trkpt><trkpt lat="33.5468929" lon="9.9581926"><ele>366.0</ele><time>2026-04-26T07:50:12.724Z</time></trkpt><trkpt lat="33.5468604" lon="9.9580763"><ele>366.20000000000005</ele><time>2026-04-26T07:50:13.716Z</time></trkpt><trkpt lat="33.5468288" lon="9.9579621"><ele>366.40000000000003</ele><time>2026-04-26T07:50:14.715Z</time></trkpt><trkpt lat="33.5467948" lon="9.9578483"><ele>366.6</ele><time>2026-04-26T07:50:15.727Z</time></trkpt><trkpt lat="33.5467656" lon="9.9577376"><ele>366.8</ele><time>2026-04-26T07:50:16.723Z</time></trkpt><trkpt lat="33.5467365" lon="9.9576223"><ele>367.0</ele><time>2026-04-26T07:50:17.738Z</time></trkpt><trkpt lat="33.5467065" lon="9.9575014"><ele>366.6</ele><time>2026-04-26T07:50:18.715Z</time></trkpt><trkpt lat="33.5466778" lon="9.957381"><ele>366.20000000000005</ele><time>2026-04-26T07:50:19.735Z</time></trkpt><trkpt lat="33.5466523" lon="9.9572631"><ele>365.8</ele><time>2026-04-26T07:50:20.744Z</time></trkpt><trkpt lat="33.5466337" lon="9.9571389"><ele>365.4</ele><time>2026-04-26T07:50:21.773Z</time></trkpt><trkpt lat="33.5466216" lon="9.9570116"><ele>365.0</ele><time>2026-04-26T07:50:22.731Z</time></trkpt><trkpt lat="33.5466222" lon="9.9568866"><ele>365.0</ele><time>2026-04-26T07:50:23.739Z</time></trkpt><trkpt lat="33.5466265" lon="9.9567609"><ele>365.0</ele><time>2026-04-26T07:50:24.738Z</time></trkpt><trkpt lat="33.5466396" lon="9.956635"><ele>365.0</ele><time>2026-04-26T07:50:25.727Z</time></trkpt><trkpt lat="33.5466634" lon="9.9565067"><ele>365.0</ele><time>2026-04-26T07:50:26.736Z</time></trkpt><trkpt lat="33.5466891" lon="9.9563781"><ele>365.0</ele><time>2026-04-26T07:50:27.705Z</time></trkpt><trkpt lat="33.5467102" lon="9.956252"><ele>364.8</ele><time>2026-04-26T07:50:28.69Z</time></trkpt><trkpt lat="33.5467321" lon="9.9561254"><ele>364.6</ele><time>2026-04-26T07:50:29.705Z</time></trkpt><trkpt lat="33.5467566" lon="9.9559956"><ele>364.4</ele><time>2026-04-26T07:50:30.728Z</time></trkpt><trkpt lat="33.5467852" lon="9.9558699"><ele>364.2</ele><time>2026-04-26T07:50:31.741Z</time></trkpt><trkpt lat="33.5468154" lon="9.9557476"><ele>364.0</ele><time>2026-04-26T07:50:32.722Z</time></trkpt><trkpt lat="33.5468457" lon="9.9556254"><ele>363.25</ele><time>2026-04-26T07:50:33.705Z</time></trkpt><trkpt lat="33.5468898" lon="9.9554979"><ele>362.5</ele><time>2026-04-26T07:50:34.733Z</time></trkpt><trkpt lat="33.5469352" lon="9.95536"><ele>361.75</ele><time>2026-04-26T07:50:35.715Z</time></trkpt><trkpt lat="33.5469699" lon="9.9552155"><ele>361.0</ele><time>2026-04-26T07:50:36.73Z</time></trkpt><trkpt lat="33.547" lon="9.9550641"><ele>360.5</ele><time>2026-04-26T07:50:37.747Z</time></trkpt><trkpt lat="33.5470209" lon="9.954908"><ele>360.0</ele><time>2026-04-26T07:50:38.715Z</time></trkpt><trkpt lat="33.5470339" lon="9.9547549"><ele>359.5</ele><time>2026-04-26T07:50:39.745Z</time></trkpt><trkpt lat="33.5470476" lon="9.9546045"><ele>359.0</ele><time>2026-04-26T07:50:40.734Z</time></trkpt><trkpt lat="33.5470612" lon="9.9544588"><ele>359.5</ele><time>2026-04-26T07:50:41.731Z</time></trkpt><trkpt lat="33.5470861" lon="9.9543137"><ele>360.0</ele><time>2026-04-26T07:50:42.731Z</time></trkpt><trkpt lat="33.547131" lon="9.9541744"><ele>360.5</ele><time>2026-04-26T07:50:43.722Z</time></trkpt><trkpt lat="33.5471815" lon="9.9540412"><ele>361.0</ele><time>2026-04-26T07:50:44.727Z</time></trkpt><trkpt lat="33.5472195" lon="9.9539056"><ele>361.0</ele><time>2026-04-26T07:50:45.706Z</time></trkpt><trkpt lat="33.5472522" lon="9.9537559"><ele>361.0</ele><time>2026-04-26T07:50:46.72Z</time></trkpt><trkpt lat="33.5472778" lon="9.9536121"><ele>361.0</ele><time>2026-04-26T07:50:47.806Z</time></trkpt><trkpt lat="33.5472992" lon="9.9534561"><ele>361.0</ele><time>2026-04-26T07:50:48.734Z</time></trkpt><trkpt lat="33.5473224" lon="9.9532962"><ele>359.75</ele><time>2026-04-26T07:50:49.723Z</time></trkpt><trkpt lat="33.5473442" lon="9.9531428"><ele>358.5</ele><time>2026-04-26T07:50:50.741Z</time></trkpt><trkpt lat="33.5473624" lon="9.9529881"><ele>357.25</ele><time>2026-04-26T07:50:51.734Z</time></trkpt><trkpt lat="33.5473824" lon="9.9528432"><ele>356.0</ele><time>2026-04-26T07:50:52.735Z</time></trkpt><trkpt lat="33.5474076" lon="9.9526981"><ele>356.0</ele><time>2026-04-26T07:50:53.737Z</time></trkpt><trkpt lat="33.5474358" lon="9.9525508"><ele>356.0</ele><time>2026-04-26T07:50:54.738Z</time></trkpt><trkpt lat="33.5474656" lon="9.9524108"><ele>356.0</ele><time>2026-04-26T07:50:55.719Z</time></trkpt><trkpt lat="33.5475032" lon="9.9522739"><ele>356.0</ele><time>2026-04-26T07:50:56.732Z</time></trkpt><trkpt lat="33.5475456" lon="9.9521398"><ele>356.20000000000005</ele><time>2026-04-26T07:50:57.741Z</time></trkpt><trkpt lat="33.5475899" lon="9.9520086"><ele>356.40000000000003</ele><time>2026-04-26T07:50:58.721Z</time></trkpt><trkpt lat="33.5476331" lon="9.9518881"><ele>356.6</ele><time>2026-04-26T07:50:59.742Z</time></trkpt><trkpt lat="33.5476731" lon="9.9517647"><ele>356.8</ele><time>2026-04-26T07:51:00.745Z</time></trkpt><trkpt lat="33.547713" lon="9.9516423"><ele>357.0</ele><time>2026-04-26T07:51:01.741Z</time></trkpt><trkpt lat="33.5477501" lon="9.9515251"><ele>357.40000000000003</ele><time>2026-04-26T07:51:02.71Z</time></trkpt><trkpt lat="33.547779" lon="9.9514074"><ele>357.8</ele><time>2026-04-26T07:51:03.707Z</time></trkpt><trkpt lat="33.5477997" lon="9.9512873"><ele>358.2</ele><time>2026-04-26T07:51:04.687Z</time></trkpt><trkpt lat="33.5478135" lon="9.9511616"><ele>358.6</ele><time>2026-04-26T07:51:05.701Z</time></trkpt><trkpt lat="33.5478108" lon="9.9510352"><ele>359.0</ele><time>2026-04-26T07:51:06.716Z</time></trkpt><trkpt lat="33.5477991" lon="9.9509141"><ele>358.79999999999995</ele><time>2026-04-26T07:51:07.734Z</time></trkpt><trkpt lat="33.5477733" lon="9.9507907"><ele>358.59999999999997</ele><time>2026-04-26T07:51:08.689Z</time></trkpt><trkpt lat="33.5477366" lon="9.9506679"><ele>358.4</ele><time>2026-04-26T07:51:09.707Z</time></trkpt><trkpt lat="33.5476946" lon="9.9505473"><ele>358.2</ele><time>2026-04-26T07:51:10.725Z</time></trkpt><trkpt lat="33.5476464" lon="9.9504292"><ele>358.0</ele><time>2026-04-26T07:51:11.708Z</time></trkpt><trkpt lat="33.5475856" lon="9.950314"><ele>358.0</ele><time>2026-04-26T07:51:12.735Z</time></trkpt><trkpt lat="33.5475314" lon="9.9501909"><ele>358.0</ele><time>2026-04-26T07:51:13.734Z</time></trkpt><trkpt lat="33.547478" lon="9.950075"><ele>358.0</ele><time>2026-04-26T07:51:14.723Z</time></trkpt><trkpt lat="33.5474239" lon="9.9499562"><ele>358.0</ele><time>2026-04-26T07:51:15.741Z</time></trkpt><trkpt lat="33.547375" lon="9.9498335"><ele>358.2</ele><time>2026-04-26T07:51:16.685Z</time></trkpt><trkpt lat="33.5473321" lon="9.949711"><ele>358.4</ele><time>2026-04-26T07:51:17.674Z</time></trkpt><trkpt lat="33.5473025" lon="9.9495926"><ele>358.59999999999997</ele><time>2026-04-26T07:51:18.668Z</time></trkpt><trkpt lat="33.5472856" lon="9.9494605"><ele>358.79999999999995</ele><time>2026-04-26T07:51:19.769Z</time></trkpt><trkpt lat="33.5472734" lon="9.9493146"><ele>359.0</ele><time>2026-04-26T07:51:20.743Z</time></trkpt><trkpt lat="33.5472642" lon="9.9491661"><ele>359.25</ele><time>2026-04-26T07:51:21.729Z</time></trkpt><trkpt lat="33.5472662" lon="9.9489985"><ele>359.5</ele><time>2026-04-26T07:51:22.729Z</time></trkpt><trkpt lat="33.5472813" lon="9.9488312"><ele>359.75</ele><time>2026-04-26T07:51:23.773Z</time></trkpt><trkpt lat="33.5473033" lon="9.9486568"><ele>360.0</ele><time>2026-04-26T07:51:24.763Z</time></trkpt><trkpt lat="33.5473298" lon="9.9484735"><ele>358.6666666666667</ele><time>2026-04-26T07:51:25.772Z</time></trkpt><trkpt lat="33.5473572" lon="9.948286"><ele>357.33333333333337</ele><time>2026-04-26T07:51:26.762Z</time></trkpt><trkpt lat="33.5473833" lon="9.9480997"><ele>356.0</ele><time>2026-04-26T07:51:27.815Z</time></trkpt><trkpt lat="33.547412" lon="9.9479149"><ele>356.0</ele><time>2026-04-26T07:51:28.799Z</time></trkpt><trkpt lat="33.5474358" lon="9.9477337"><ele>356.0</ele><time>2026-04-26T07:51:29.8Z</time></trkpt><trkpt lat="33.5474646" lon="9.9475531"><ele>356.0</ele><time>2026-04-26T07:51:30.77Z</time></trkpt><trkpt lat="33.5475056" lon="9.9473744"><ele>354.33333333333337</ele><time>2026-04-26T07:51:31.771Z</time></trkpt><trkpt lat="33.5475586" lon="9.9472005"><ele>352.6666666666667</ele><time>2026-04-26T07:51:32.807Z</time></trkpt><trkpt lat="33.5476171" lon="9.9470334"><ele>351.0</ele><time>2026-04-26T07:51:33.805Z</time></trkpt><trkpt lat="33.5476969" lon="9.9468709"><ele>349.3333333333333</ele><time>2026-04-26T07:51:34.816Z</time></trkpt><trkpt lat="33.5477763" lon="9.9467055"><ele>347.66666666666663</ele><time>2026-04-26T07:51:35.756Z</time></trkpt><trkpt lat="33.5478633" lon="9.9465436"><ele>346.0</ele><time>2026-04-26T07:51:36.79Z</time></trkpt><trkpt lat="33.5479514" lon="9.9463831"><ele>343.66666666666663</ele><time>2026-04-26T07:51:37.803Z</time></trkpt><trkpt lat="33.5480368" lon="9.9462354"><ele>341.3333333333333</ele><time>2026-04-26T07:51:38.768Z</time></trkpt><trkpt lat="33.5481195" lon="9.9460814"><ele>339.0</ele><time>2026-04-26T07:51:39.79Z</time></trkpt><trkpt lat="33.5482016" lon="9.9459274"><ele>338.25</ele><time>2026-04-26T07:51:40.803Z</time></trkpt><trkpt lat="33.5482779" lon="9.9457776"><ele>337.5</ele><time>2026-04-26T07:51:41.751Z</time></trkpt><trkpt lat="33.5483604" lon="9.9456267"><ele>336.75</ele><time>2026-04-26T07:51:42.815Z</time></trkpt><trkpt lat="33.548444" lon="9.945475"><ele>336.0</ele><time>2026-04-26T07:51:43.79Z</time></trkpt><trkpt lat="33.548522" lon="9.9453228"><ele>336.0</ele><time>2026-04-26T07:51:44.801Z</time></trkpt><trkpt lat="33.5486037" lon="9.9451683"><ele>336.0</ele><time>2026-04-26T07:51:45.782Z</time></trkpt><trkpt lat="33.5486829" lon="9.9450228"><ele>336.0</ele><time>2026-04-26T07:51:46.816Z</time></trkpt><trkpt lat="33.5487562" lon="9.9448812"><ele>336.0</ele><time>2026-04-26T07:51:47.79Z</time></trkpt><trkpt lat="33.5488282" lon="9.9447489"><ele>334.25</ele><time>2026-04-26T07:51:48.795Z</time></trkpt><trkpt lat="33.5488946" lon="9.9446143"><ele>332.5</ele><time>2026-04-26T07:51:49.791Z</time></trkpt><trkpt lat="33.5489641" lon="9.9444735"><ele>330.75</ele><time>2026-04-26T07:51:50.813Z</time></trkpt><trkpt lat="33.5490338" lon="9.9443397"><ele>329.0</ele><time>2026-04-26T07:51:51.799Z</time></trkpt><trkpt lat="33.5490999" lon="9.9442019"><ele>327.75</ele><time>2026-04-26T07:51:52.797Z</time></trkpt><trkpt lat="33.5491646" lon="9.9440667"><ele>326.5</ele><time>2026-04-26T07:51:53.789Z</time></trkpt><trkpt lat="33.5492185" lon="9.9439318"><ele>325.25</ele><time>2026-04-26T07:51:54.805Z</time></trkpt><trkpt lat="33.5492678" lon="9.9437956"><ele>324.0</ele><time>2026-04-26T07:51:55.798Z</time></trkpt><trkpt lat="33.5493074" lon="9.9436692"><ele>324.0</ele><time>2026-04-26T07:51:56.794Z</time></trkpt><trkpt lat="33.5493425" lon="9.9435414"><ele>324.0</ele><time>2026-04-26T07:51:57.797Z</time></trkpt><trkpt lat="33.5493658" lon="9.9434251"><ele>324.0</ele><time>2026-04-26T07:51:58.791Z</time></trkpt><trkpt lat="33.5493868" lon="9.9433114"><ele>324.0</ele><time>2026-04-26T07:51:59.814Z</time></trkpt><trkpt lat="33.5493988" lon="9.9432127"><ele>324.0</ele><time>2026-04-26T07:52:00.801Z</time></trkpt><trkpt lat="33.5494351" lon="9.9431033"><ele>323.8571428571429</ele><time>2026-04-26T07:52:02.755Z</time></trkpt><trkpt lat="33.5494744" lon="9.9430352"><ele>323.7142857142857</ele><time>2026-04-26T07:52:04.796Z</time></trkpt><trkpt lat="33.5495294" lon="9.9429877"><ele>323.57142857142856</ele><time>2026-04-26T07:52:07.798Z</time></trkpt><trkpt lat="33.5496086" lon="9.9429679"><ele>323.42857142857144</ele><time>2026-04-26T07:52:11.806Z</time></trkpt><trkpt lat="33.5496798" lon="9.9429778"><ele>323.2857142857143</ele><time>2026-04-26T07:52:16.75Z</time></trkpt><trkpt lat="33.5497024" lon="9.9430555"><ele>323.14285714285717</ele><time>2026-04-26T07:55:54.681Z</time></trkpt><trkpt lat="33.5496399" lon="9.9430704"><ele>323.0</ele><time>2026-04-26T07:55:58.704Z</time></trkpt><trkpt lat="33.5495729" lon="9.9430455"><ele>323.0</ele><time>2026-04-26T07:56:02.679Z</time></trkpt><trkpt lat="33.5495119" lon="9.9430261"><ele>323.0</ele><time>2026-04-26T07:56:06.685Z</time></trkpt><trkpt lat="33.5494426" lon="9.9430261"><ele>323.0</ele><time>2026-04-26T07:56:10.675Z</time></trkpt><trkpt lat="33.5494103" lon="9.9430917"><ele>323.0</ele><time>2026-04-26T07:56:12.683Z</time></trkpt><trkpt lat="33.54938" lon="9.9431799"><ele>323.0</ele><time>2026-04-26T07:56:14.678Z</time></trkpt><trkpt lat="33.5493557" lon="9.9432914"><ele>323.0</ele><time>2026-04-26T07:56:16.676Z</time></trkpt><trkpt lat="33.5493367" lon="9.9434383"><ele>323.1666666666667</ele><time>2026-04-26T07:56:18.681Z</time></trkpt><trkpt lat="33.5493159" lon="9.9435279"><ele>323.33333333333337</ele><time>2026-04-26T07:56:19.678Z</time></trkpt><trkpt lat="33.5492926" lon="9.9436181"><ele>323.5</ele><time>2026-04-26T07:56:20.687Z</time></trkpt><trkpt lat="33.5492735" lon="9.943703"><ele>323.6666666666667</ele><time>2026-04-26T07:56:21.675Z</time></trkpt><trkpt lat="33.5492408" lon="9.9437903"><ele>323.8333333333333</ele><time>2026-04-26T07:56:22.685Z</time></trkpt><trkpt lat="33.5492148" lon="9.9438771"><ele>324.0</ele><time>2026-04-26T07:56:23.693Z</time></trkpt><trkpt lat="33.5491875" lon="9.9439588"><ele>324.0</ele><time>2026-04-26T07:56:24.682Z</time></trkpt><trkpt lat="33.5491513" lon="9.9440305"><ele>324.0</ele><time>2026-04-26T07:56:25.689Z</time></trkpt><trkpt lat="33.5491119" lon="9.94411"><ele>324.0</ele><time>2026-04-26T07:56:26.691Z</time></trkpt><trkpt lat="33.5490725" lon="9.9441934"><ele>324.0</ele><time>2026-04-26T07:56:27.686Z</time></trkpt><trkpt lat="33.5490315" lon="9.9442778"><ele>324.0</ele><time>2026-04-26T07:56:28.693Z</time></trkpt><trkpt lat="33.5489911" lon="9.9443583"><ele>324.0</ele><time>2026-04-26T07:56:29.692Z</time></trkpt><trkpt lat="33.5489505" lon="9.9444436"><ele>325.0</ele><time>2026-04-26T07:56:30.692Z</time></trkpt><trkpt lat="33.5489041" lon="9.9445312"><ele>326.0</ele><time>2026-04-26T07:56:31.682Z</time></trkpt><trkpt lat="33.5488612" lon="9.9446186"><ele>327.0</ele><time>2026-04-26T07:56:32.684Z</time></trkpt><trkpt lat="33.5488121" lon="9.9447161"><ele>328.0</ele><time>2026-04-26T07:56:33.678Z</time></trkpt><trkpt lat="33.5487541" lon="9.9448188"><ele>329.0</ele><time>2026-04-26T07:56:34.694Z</time></trkpt><trkpt lat="33.5486921" lon="9.9449359"><ele>331.33333333333337</ele><time>2026-04-26T07:56:35.688Z</time></trkpt><trkpt lat="33.5486214" lon="9.9450694"><ele>333.6666666666667</ele><time>2026-04-26T07:56:36.679Z</time></trkpt><trkpt lat="33.5485476" lon="9.9452302"><ele>336.0</ele><time>2026-04-26T07:56:37.674Z</time></trkpt><trkpt lat="33.5484537" lon="9.9454131"><ele>336.0</ele><time>2026-04-26T07:56:38.681Z</time></trkpt><trkpt lat="33.5483488" lon="9.9456221"><ele>336.0</ele><time>2026-04-26T07:56:39.679Z</time></trkpt><trkpt lat="33.5482279" lon="9.9458275"><ele>336.0</ele><time>2026-04-26T07:56:40.671Z</time></trkpt><trkpt lat="33.5481208" lon="9.9460146"><ele>336.75</ele><time>2026-04-26T07:56:41.69Z</time></trkpt><trkpt lat="33.548034" lon="9.9461611"><ele>337.5</ele><time>2026-04-26T07:56:42.677Z</time></trkpt><trkpt lat="33.5479716" lon="9.9462975"><ele>338.25</ele><time>2026-04-26T07:56:43.698Z</time></trkpt><trkpt lat="33.5479133" lon="9.9464138"><ele>339.0</ele><time>2026-04-26T07:56:44.671Z</time></trkpt><trkpt lat="33.5478601" lon="9.9465219"><ele>340.4</ele><time>2026-04-26T07:56:45.689Z</time></trkpt><trkpt lat="33.5478075" lon="9.9466211"><ele>341.79999999999995</ele><time>2026-04-26T07:56:46.738Z</time></trkpt><trkpt lat="33.5477512" lon="9.946721"><ele>343.20000000000005</ele><time>2026-04-26T07:56:47.697Z</time></trkpt><trkpt lat="33.547693" lon="9.9468221"><ele>344.6</ele><time>2026-04-26T07:56:48.686Z</time></trkpt><trkpt lat="33.547643" lon="9.946916"><ele>346.0</ele><time>2026-04-26T07:56:49.687Z</time></trkpt><trkpt lat="33.5475923" lon="9.9470195"><ele>347.0</ele><time>2026-04-26T07:56:50.689Z</time></trkpt><trkpt lat="33.5475472" lon="9.9471171"><ele>348.0</ele><time>2026-04-26T07:56:51.687Z</time></trkpt><trkpt lat="33.5475083" lon="9.9472268"><ele>349.0</ele><time>2026-04-26T07:56:52.685Z</time></trkpt><trkpt lat="33.5474782" lon="9.9473374"><ele>350.0</ele><time>2026-04-26T07:56:53.699Z</time></trkpt><trkpt lat="33.5474513" lon="9.9474569"><ele>351.0</ele><time>2026-04-26T07:56:54.685Z</time></trkpt><trkpt lat="33.5474256" lon="9.9475809"><ele>352.0</ele><time>2026-04-26T07:56:55.685Z</time></trkpt><trkpt lat="33.5474069" lon="9.9477068"><ele>353.0</ele><time>2026-04-26T07:56:56.683Z</time></trkpt><trkpt lat="33.5473897" lon="9.9478299"><ele>354.0</ele><time>2026-04-26T07:56:57.683Z</time></trkpt><trkpt lat="33.5473748" lon="9.947956"><ele>355.0</ele><time>2026-04-26T07:56:58.676Z</time></trkpt><trkpt lat="33.5473567" lon="9.9480779"><ele>356.0</ele><time>2026-04-26T07:56:59.687Z</time></trkpt><trkpt lat="33.5473388" lon="9.948202"><ele>356.0</ele><time>2026-04-26T07:57:00.675Z</time></trkpt><trkpt lat="33.54732" lon="9.9483214"><ele>356.0</ele><time>2026-04-26T07:57:01.68Z</time></trkpt><trkpt lat="33.5473002" lon="9.9484394"><ele>356.0</ele><time>2026-04-26T07:57:02.685Z</time></trkpt><trkpt lat="33.5472828" lon="9.948567"><ele>356.0</ele><time>2026-04-26T07:57:03.673Z</time></trkpt><trkpt lat="33.5472662" lon="9.9486931"><ele>356.0</ele><time>2026-04-26T07:57:04.668Z</time></trkpt><trkpt lat="33.5472522" lon="9.948818"><ele>356.6</ele><time>2026-04-26T07:57:05.692Z</time></trkpt><trkpt lat="33.5472412" lon="9.948942"><ele>357.20000000000005</ele><time>2026-04-26T07:57:06.676Z</time></trkpt><trkpt lat="33.5472332" lon="9.9490654"><ele>357.79999999999995</ele><time>2026-04-26T07:57:07.668Z</time></trkpt><trkpt lat="33.5472331" lon="9.9491897"><ele>358.4</ele><time>2026-04-26T07:57:08.67Z</time></trkpt><trkpt lat="33.5472401" lon="9.9493079"><ele>359.0</ele><time>2026-04-26T07:57:09.681Z</time></trkpt><trkpt lat="33.5472483" lon="9.9494298"><ele>359.0</ele><time>2026-04-26T07:57:10.707Z</time></trkpt><trkpt lat="33.5472707" lon="9.9495492"><ele>359.0</ele><time>2026-04-26T07:57:11.686Z</time></trkpt><trkpt lat="33.5472996" lon="9.9496667"><ele>359.0</ele><time>2026-04-26T07:57:12.673Z</time></trkpt><trkpt lat="33.5473308" lon="9.9497851"><ele>359.0</ele><time>2026-04-26T07:57:13.675Z</time></trkpt><trkpt lat="33.5473692" lon="9.9499053"><ele>359.0</ele><time>2026-04-26T07:57:14.691Z</time></trkpt><trkpt lat="33.5474158" lon="9.9500154"><ele>358.79999999999995</ele><time>2026-04-26T07:57:15.691Z</time></trkpt><trkpt lat="33.5474698" lon="9.9501223"><ele>358.59999999999997</ele><time>2026-04-26T07:57:16.701Z</time></trkpt><trkpt lat="33.5475233" lon="9.9502365"><ele>358.4</ele><time>2026-04-26T07:57:17.69Z</time></trkpt><trkpt lat="33.5475744" lon="9.9503474"><ele>358.2</ele><time>2026-04-26T07:57:18.681Z</time></trkpt><trkpt lat="33.5476206" lon="9.9504571"><ele>358.0</ele><time>2026-04-26T07:57:19.673Z</time></trkpt><trkpt lat="33.5476728" lon="9.9505655"><ele>358.0</ele><time>2026-04-26T07:57:20.672Z</time></trkpt><trkpt lat="33.5477212" lon="9.9506764"><ele>358.0</ele><time>2026-04-26T07:57:21.671Z</time></trkpt><trkpt lat="33.5477549" lon="9.9507986"><ele>358.0</ele><time>2026-04-26T07:57:22.672Z</time></trkpt><trkpt lat="33.5477788" lon="9.9509319"><ele>358.0</ele><time>2026-04-26T07:57:23.67Z</time></trkpt><trkpt lat="33.5477883" lon="9.9510511"><ele>358.0</ele><time>2026-04-26T07:57:24.677Z</time></trkpt><trkpt lat="33.5477904" lon="9.9511685"><ele>358.2</ele><time>2026-04-26T07:57:25.684Z</time></trkpt><trkpt lat="33.5477829" lon="9.9512963"><ele>358.4</ele><time>2026-04-26T07:57:26.694Z</time></trkpt><trkpt lat="33.5477596" lon="9.9514169"><ele>358.59999999999997</ele><time>2026-04-26T07:57:27.698Z</time></trkpt><trkpt lat="33.5477234" lon="9.9515382"><ele>358.79999999999995</ele><time>2026-04-26T07:57:28.688Z</time></trkpt><trkpt lat="33.5476839" lon="9.9516557"><ele>359.0</ele><time>2026-04-26T07:57:29.681Z</time></trkpt><trkpt lat="33.5476486" lon="9.9517709"><ele>358.6</ele><time>2026-04-26T07:57:30.686Z</time></trkpt><trkpt lat="33.547609" lon="9.951887"><ele>358.2</ele><time>2026-04-26T07:57:31.676Z</time></trkpt><trkpt lat="33.5475708" lon="9.9520065"><ele>357.8</ele><time>2026-04-26T07:57:32.681Z</time></trkpt><trkpt lat="33.5475303" lon="9.9521231"><ele>357.40000000000003</ele><time>2026-04-26T07:57:33.687Z</time></trkpt><trkpt lat="33.5474925" lon="9.9522371"><ele>357.0</ele><time>2026-04-26T07:57:34.677Z</time></trkpt><trkpt lat="33.5474582" lon="9.9523483"><ele>357.0</ele><time>2026-04-26T07:57:35.686Z</time></trkpt><trkpt lat="33.5474257" lon="9.9524617"><ele>357.0</ele><time>2026-04-26T07:57:36.691Z</time></trkpt><trkpt lat="33.5473963" lon="9.9525731"><ele>357.0</ele><time>2026-04-26T07:57:37.681Z</time></trkpt><trkpt lat="33.5473738" lon="9.952692"><ele>357.0</ele><time>2026-04-26T07:57:38.681Z</time></trkpt><trkpt lat="33.547352" lon="9.9528119"><ele>357.0</ele><time>2026-04-26T07:57:39.704Z</time></trkpt><trkpt lat="33.5473315" lon="9.9529259"><ele>356.8</ele><time>2026-04-26T07:57:40.678Z</time></trkpt><trkpt lat="33.5473135" lon="9.9530451"><ele>356.6</ele><time>2026-04-26T07:57:41.683Z</time></trkpt><trkpt lat="33.5472988" lon="9.9531633"><ele>356.40000000000003</ele><time>2026-04-26T07:57:42.676Z</time></trkpt><trkpt lat="33.5472798" lon="9.9532721"><ele>356.20000000000005</ele><time>2026-04-26T07:57:43.682Z</time></trkpt><trkpt lat="33.547263" lon="9.953388"><ele>356.0</ele><time>2026-04-26T07:57:44.68Z</time></trkpt><trkpt lat="33.5472463" lon="9.9534994"><ele>357.0</ele><time>2026-04-26T07:57:45.686Z</time></trkpt><trkpt lat="33.5472327" lon="9.9536145"><ele>358.0</ele><time>2026-04-26T07:57:46.683Z</time></trkpt><trkpt lat="33.5472136" lon="9.9537346"><ele>359.0</ele><time>2026-04-26T07:57:47.691Z</time></trkpt><trkpt lat="33.5471926" lon="9.9538438"><ele>360.0</ele><time>2026-04-26T07:57:48.67Z</time></trkpt><trkpt lat="33.5471661" lon="9.953958"><ele>361.0</ele><time>2026-04-26T07:57:49.673Z</time></trkpt><trkpt lat="33.54713" lon="9.9540753"><ele>361.0</ele><time>2026-04-26T07:57:50.681Z</time></trkpt><trkpt lat="33.5470887" lon="9.9541948"><ele>361.0</ele><time>2026-04-26T07:57:51.678Z</time></trkpt><trkpt lat="33.547048" lon="9.9543226"><ele>361.0</ele><time>2026-04-26T07:57:52.683Z</time></trkpt><trkpt lat="33.5470201" lon="9.9544603"><ele>361.0</ele><time>2026-04-26T07:57:53.673Z</time></trkpt><trkpt lat="33.5470054" lon="9.9545997"><ele>361.0</ele><time>2026-04-26T07:57:54.67Z</time></trkpt><trkpt lat="33.5469947" lon="9.9547341"><ele>361.0</ele><time>2026-04-26T07:57:55.686Z</time></trkpt><trkpt lat="33.5469833" lon="9.9548624"><ele>361.0</ele><time>2026-04-26T07:57:56.687Z</time></trkpt><trkpt lat="33.546968" lon="9.9549914"><ele>361.0</ele><time>2026-04-26T07:57:57.689Z</time></trkpt><trkpt lat="33.5469525" lon="9.9551219"><ele>361.0</ele><time>2026-04-26T07:57:58.688Z</time></trkpt><trkpt lat="33.5469248" lon="9.9552535"><ele>361.0</ele><time>2026-04-26T07:57:59.693Z</time></trkpt><trkpt lat="33.5468872" lon="9.9553837"><ele>361.0</ele><time>2026-04-26T07:58:00.684Z</time></trkpt><trkpt lat="33.5468408" lon="9.9555055"><ele>361.0</ele><time>2026-04-26T07:58:01.676Z</time></trkpt><trkpt lat="33.5467923" lon="9.9556387"><ele>361.0</ele><time>2026-04-26T07:58:02.684Z</time></trkpt><trkpt lat="33.5467637" lon="9.9557752"><ele>361.6</ele><time>2026-04-26T07:58:03.692Z</time></trkpt><trkpt lat="33.5467367" lon="9.9559091"><ele>362.20000000000005</ele><time>2026-04-26T07:58:04.697Z</time></trkpt><trkpt lat="33.5467127" lon="9.956045"><ele>362.79999999999995</ele><time>2026-04-26T07:58:05.671Z</time></trkpt><trkpt lat="33.5466911" lon="9.9561657"><ele>363.4</ele><time>2026-04-26T07:58:06.682Z</time></trkpt><trkpt lat="33.5466729" lon="9.9562796"><ele>364.0</ele><time>2026-04-26T07:58:07.683Z</time></trkpt><trkpt lat="33.5466554" lon="9.9563972"><ele>364.0</ele><time>2026-04-26T07:58:08.686Z</time></trkpt><trkpt lat="33.5466425" lon="9.9565127"><ele>364.0</ele><time>2026-04-26T07:58:09.687Z</time></trkpt><trkpt lat="33.5466189" lon="9.9566285"><ele>364.0</ele><time>2026-04-26T07:58:10.677Z</time></trkpt><trkpt lat="33.546601" lon="9.9567499"><ele>364.0</ele><time>2026-04-26T07:58:11.686Z</time></trkpt><trkpt lat="33.5465919" lon="9.9568659"><ele>364.0</ele><time>2026-04-26T07:58:12.676Z</time></trkpt><trkpt lat="33.5465897" lon="9.9569831"><ele>364.2</ele><time>2026-04-26T07:58:13.675Z</time></trkpt><trkpt lat="33.5466016" lon="9.9571031"><ele>364.4</ele><time>2026-04-26T07:58:14.674Z</time></trkpt><trkpt lat="33.5466128" lon="9.9572298"><ele>364.6</ele><time>2026-04-26T07:58:15.689Z</time></trkpt><trkpt lat="33.5466408" lon="9.9573545"><ele>364.8</ele><time>2026-04-26T07:58:16.69Z</time></trkpt><trkpt lat="33.5466789" lon="9.9574837"><ele>365.0</ele><time>2026-04-26T07:58:17.676Z</time></trkpt><trkpt lat="33.5467131" lon="9.9576173"><ele>365.5</ele><time>2026-04-26T07:58:18.703Z</time></trkpt><trkpt lat="33.5467412" lon="9.9577565"><ele>366.0</ele><time>2026-04-26T07:58:19.671Z</time></trkpt><trkpt lat="33.5467775" lon="9.9578888"><ele>366.5</ele><time>2026-04-26T07:58:20.674Z</time></trkpt><trkpt lat="33.5468151" lon="9.9580152"><ele>367.0</ele><time>2026-04-26T07:58:21.679Z</time></trkpt><trkpt lat="33.5468459" lon="9.958146"><ele>367.0</ele><time>2026-04-26T07:58:22.672Z</time></trkpt><trkpt lat="33.5468797" lon="9.9582752"><ele>367.0</ele><time>2026-04-26T07:58:23.688Z</time></trkpt><trkpt lat="33.5469106" lon="9.9584018"><ele>367.0</ele><time>2026-04-26T07:58:24.687Z</time></trkpt><trkpt lat="33.5469409" lon="9.9585246"><ele>367.0</ele><time>2026-04-26T07:58:25.674Z</time></trkpt><trkpt lat="33.5469631" lon="9.958643"><ele>367.0</ele><time>2026-04-26T07:58:26.677Z</time></trkpt><trkpt lat="33.5469714" lon="9.9587603"><ele>366.8</ele><time>2026-04-26T07:58:27.679Z</time></trkpt><trkpt lat="33.546968" lon="9.9588684"><ele>366.6</ele><time>2026-04-26T07:58:28.683Z</time></trkpt><trkpt lat="33.5469513" lon="9.9589816"><ele>366.40000000000003</ele><time>2026-04-26T07:58:29.681Z</time></trkpt><trkpt lat="33.5469207" lon="9.9590945"><ele>366.20000000000005</ele><time>2026-04-26T07:58:30.694Z</time></trkpt><trkpt lat="33.5468732" lon="9.9591959"><ele>366.0</ele><time>2026-04-26T07:58:31.675Z</time></trkpt><trkpt lat="33.546824" lon="9.9592963"><ele>366.0</ele><time>2026-04-26T07:58:32.683Z</time></trkpt><trkpt lat="33.546773" lon="9.9594003"><ele>366.0</ele><time>2026-04-26T07:58:33.674Z</time></trkpt><trkpt lat="33.5467243" lon="9.9594986"><ele>366.0</ele><time>2026-04-26T07:58:34.678Z</time></trkpt><trkpt lat="33.5466725" lon="9.959599"><ele>366.0</ele><time>2026-04-26T07:58:35.669Z</time></trkpt><trkpt lat="33.5466203" lon="9.9597011"><ele>366.0</ele><time>2026-04-26T07:58:36.688Z</time></trkpt><trkpt lat="33.5465672" lon="9.9598059"><ele>366.0</ele><time>2026-04-26T07:58:37.716Z</time></trkpt><trkpt lat="33.5465101" lon="9.9599047"><ele>366.0</ele><time>2026-04-26T07:58:38.666Z</time></trkpt><trkpt lat="33.5464595" lon="9.9600037"><ele>366.0</ele><time>2026-04-26T07:58:39.678Z</time></trkpt><trkpt lat="33.546411" lon="9.9601073"><ele>366.0</ele><time>2026-04-26T07:58:40.687Z</time></trkpt><trkpt lat="33.5463665" lon="9.9602025"><ele>366.0</ele><time>2026-04-26T07:58:41.68Z</time></trkpt><trkpt lat="33.5463198" lon="9.9602973"><ele>366.20000000000005</ele><time>2026-04-26T07:58:42.681Z</time></trkpt><trkpt lat="33.5462773" lon="9.9603963"><ele>366.40000000000003</ele><time>2026-04-26T07:58:43.68Z</time></trkpt><trkpt lat="33.5462303" lon="9.9604942"><ele>366.6</ele><time>2026-04-26T07:58:44.686Z</time></trkpt><trkpt lat="33.546187" lon="9.9605973"><ele>366.8</ele><time>2026-04-26T07:58:45.681Z</time></trkpt><trkpt lat="33.5461413" lon="9.9607037"><ele>367.0</ele><time>2026-04-26T07:58:46.679Z</time></trkpt><trkpt lat="33.5461044" lon="9.9608156"><ele>368.0</ele><time>2026-04-26T07:58:47.681Z</time></trkpt><trkpt lat="33.5460668" lon="9.9609246"><ele>369.0</ele><time>2026-04-26T07:58:48.675Z</time></trkpt><trkpt lat="33.5460297" lon="9.9610389"><ele>370.0</ele><time>2026-04-26T07:58:49.67Z</time></trkpt><trkpt lat="33.5459919" lon="9.9611503"><ele>371.0</ele><time>2026-04-26T07:58:50.684Z</time></trkpt><trkpt lat="33.5459545" lon="9.9612589"><ele>372.0</ele><time>2026-04-26T07:58:51.68Z</time></trkpt><trkpt lat="33.5459174" lon="9.9613712"><ele>372.0</ele><time>2026-04-26T07:58:52.672Z</time></trkpt><trkpt lat="33.545884" lon="9.9614818"><ele>372.0</ele><time>2026-04-26T07:58:53.684Z</time></trkpt><trkpt lat="33.5458458" lon="9.9615993"><ele>372.0</ele><time>2026-04-26T07:58:54.675Z</time></trkpt><trkpt lat="33.5458105" lon="9.961712"><ele>372.0</ele><time>2026-04-26T07:58:55.682Z</time></trkpt><trkpt lat="33.5457758" lon="9.9618285"><ele>372.0</ele><time>2026-04-26T07:58:56.691Z</time></trkpt><trkpt lat="33.545749" lon="9.9619458"><ele>372.20000000000005</ele><time>2026-04-26T07:58:57.669Z</time></trkpt><trkpt lat="33.5457266" lon="9.9620592"><ele>372.4</ele><time>2026-04-26T07:58:58.684Z</time></trkpt><trkpt lat="33.5457064" lon="9.9621684"><ele>372.6</ele><time>2026-04-26T07:58:59.685Z</time></trkpt><trkpt lat="33.5456883" lon="9.9622729"><ele>372.79999999999995</ele><time>2026-04-26T07:59:00.681Z</time></trkpt><trkpt lat="33.5456712" lon="9.9623787"><ele>373.0</ele><time>2026-04-26T07:59:01.68Z</time></trkpt><trkpt lat="33.5456501" lon="9.9624884"><ele>373.59999999999997</ele><time>2026-04-26T07:59:02.671Z</time></trkpt><trkpt lat="33.5456205" lon="9.9625976"><ele>374.2</ele><time>2026-04-26T07:59:03.685Z</time></trkpt><trkpt lat="33.5455861" lon="9.9627013"><ele>374.8</ele><time>2026-04-26T07:59:04.682Z</time></trkpt><trkpt lat="33.54554" lon="9.9627942"><ele>375.4</ele><time>2026-04-26T07:59:05.685Z</time></trkpt><trkpt lat="33.5454882" lon="9.9628801"><ele>376.0</ele><time>2026-04-26T07:59:06.691Z</time></trkpt><trkpt lat="33.5454362" lon="9.9629601"><ele>376.0</ele><time>2026-04-26T07:59:07.676Z</time></trkpt><trkpt lat="33.5453871" lon="9.9630364"><ele>376.0</ele><time>2026-04-26T07:59:08.676Z</time></trkpt><trkpt lat="33.5453383" lon="9.9631117"><ele>376.0</ele><time>2026-04-26T07:59:09.694Z</time></trkpt><trkpt lat="33.5452908" lon="9.9631924"><ele>376.0</ele><time>2026-04-26T07:59:10.681Z</time></trkpt><trkpt lat="33.5452436" lon="9.9632691"><ele>376.0</ele><time>2026-04-26T07:59:11.678Z</time></trkpt><trkpt lat="33.5451939" lon="9.9633442"><ele>376.0</ele><time>2026-04-26T07:59:12.676Z</time></trkpt><trkpt lat="33.5451552" lon="9.9634235"><ele>374.66666666666663</ele><time>2026-04-26T07:59:13.683Z</time></trkpt><trkpt lat="33.5451264" lon="9.9635109"><ele>373.3333333333333</ele><time>2026-04-26T07:59:14.674Z</time></trkpt><trkpt lat="33.5451063" lon="9.9635981"><ele>372.0</ele><time>2026-04-26T07:59:15.682Z</time></trkpt><trkpt lat="33.5451003" lon="9.9636871"><ele>370.6666666666667</ele><time>2026-04-26T07:59:16.681Z</time></trkpt><trkpt lat="33.5451178" lon="9.9637764"><ele>369.33333333333337</ele><time>2026-04-26T07:59:17.719Z</time></trkpt><trkpt lat="33.5451394" lon="9.963867"><ele>368.0</ele><time>2026-04-26T07:59:18.688Z</time></trkpt><trkpt lat="33.5451661" lon="9.9639581"><ele>368.0</ele><time>2026-04-26T07:59:19.685Z</time></trkpt><trkpt lat="33.5451937" lon="9.9640456"><ele>368.0</ele><time>2026-04-26T07:59:20.674Z</time></trkpt><trkpt lat="33.5452262" lon="9.9641361"><ele>368.0</ele><time>2026-04-26T07:59:21.679Z</time></trkpt><trkpt lat="33.545257" lon="9.9642264"><ele>368.0</ele><time>2026-04-26T07:59:22.703Z</time></trkpt><trkpt lat="33.5452846" lon="9.9643175"><ele>368.0</ele><time>2026-04-26T07:59:23.683Z</time></trkpt><trkpt lat="33.5453193" lon="9.9644153"><ele>368.0</ele><time>2026-04-26T07:59:24.686Z</time></trkpt><trkpt lat="33.5453616" lon="9.9645107"><ele>368.5</ele><time>2026-04-26T07:59:25.683Z</time></trkpt><trkpt lat="33.5454077" lon="9.9646013"><ele>369.0</ele><time>2026-04-26T07:59:26.68Z</time></trkpt><trkpt lat="33.5454542" lon="9.9646891"><ele>369.5</ele><time>2026-04-26T07:59:27.675Z</time></trkpt><trkpt lat="33.5455124" lon="9.9647578"><ele>370.0</ele><time>2026-04-26T07:59:28.682Z</time></trkpt><trkpt lat="33.5455907" lon="9.9648152"><ele>370.5</ele><time>2026-04-26T07:59:29.69Z</time></trkpt><trkpt lat="33.5456654" lon="9.9648682"><ele>371.0</ele><time>2026-04-26T07:59:30.688Z</time></trkpt><trkpt lat="33.5457361" lon="9.9649193"><ele>371.0</ele><time>2026-04-26T07:59:31.682Z</time></trkpt><trkpt lat="33.5457964" lon="9.9649793"><ele>371.0</ele><time>2026-04-26T07:59:32.672Z</time></trkpt><trkpt lat="33.5458356" lon="9.9650731"><ele>371.0</ele><time>2026-04-26T07:59:33.672Z</time></trkpt><trkpt lat="33.5458554" lon="9.9651767"><ele>371.0</ele><time>2026-04-26T07:59:34.678Z</time></trkpt><trkpt lat="33.5458686" lon="9.9652896"><ele>371.0</ele><time>2026-04-26T07:59:35.68Z</time></trkpt><trkpt lat="33.5458664" lon="9.9654052"><ele>371.0</ele><time>2026-04-26T07:59:36.669Z</time></trkpt><trkpt lat="33.5458543" lon="9.9655147"><ele>370.6666666666667</ele><time>2026-04-26T07:59:37.688Z</time></trkpt><trkpt lat="33.5458469" lon="9.9656157"><ele>370.33333333333337</ele><time>2026-04-26T07:59:38.67Z</time></trkpt><trkpt lat="33.545839" lon="9.9657112"><ele>370.0</ele><time>2026-04-26T07:59:39.687Z</time></trkpt><trkpt lat="33.5458302" lon="9.9658003"><ele>369.6666666666667</ele><time>2026-04-26T07:59:40.686Z</time></trkpt><trkpt lat="33.5458259" lon="9.9658955"><ele>369.3333333333333</ele><time>2026-04-26T07:59:41.703Z</time></trkpt><trkpt lat="33.5458201" lon="9.965989"><ele>369.0</ele><time>2026-04-26T07:59:42.679Z</time></trkpt><trkpt lat="33.5458183" lon="9.9660821"><ele>369.0</ele><time>2026-04-26T07:59:43.676Z</time></trkpt><trkpt lat="33.5458081" lon="9.9661754"><ele>369.0</ele><time>2026-04-26T07:59:44.672Z</time></trkpt><trkpt lat="33.5458017" lon="9.9662775"><ele>369.0</ele><time>2026-04-26T07:59:45.685Z</time></trkpt><trkpt lat="33.5457973" lon="9.9663778"><ele>369.0</ele><time>2026-04-26T07:59:46.682Z</time></trkpt><trkpt lat="33.5457829" lon="9.9664821"><ele>369.0</ele><time>2026-04-26T07:59:47.672Z</time></trkpt><trkpt lat="33.5457615" lon="9.9665842"><ele>369.0</ele><time>2026-04-26T07:59:48.692Z</time></trkpt><trkpt lat="33.5457395" lon="9.9666911"><ele>370.6666666666667</ele><time>2026-04-26T07:59:49.665Z</time></trkpt><trkpt lat="33.5457069" lon="9.966788"><ele>372.3333333333333</ele><time>2026-04-26T07:59:50.686Z</time></trkpt><trkpt lat="33.5456791" lon="9.9668859"><ele>374.0</ele><time>2026-04-26T07:59:51.685Z</time></trkpt><trkpt lat="33.5456518" lon="9.9669807"><ele>375.66666666666663</ele><time>2026-04-26T07:59:52.706Z</time></trkpt><trkpt lat="33.5456268" lon="9.9670662"><ele>377.3333333333333</ele><time>2026-04-26T07:59:53.686Z</time></trkpt><trkpt lat="33.5455996" lon="9.9671563"><ele>379.0</ele><time>2026-04-26T07:59:54.679Z</time></trkpt><trkpt lat="33.5455673" lon="9.9672386"><ele>379.0</ele><time>2026-04-26T07:59:55.681Z</time></trkpt><trkpt lat="33.5455141" lon="9.9673569"><ele>379.0</ele><time>2026-04-26T07:59:57.685Z</time></trkpt><trkpt lat="33.5454739" lon="9.967433"><ele>379.0</ele><time>2026-04-26T07:59:59.68Z</time></trkpt><trkpt lat="33.5454283" lon="9.9674988"><ele>379.0</ele><time>2026-04-26T08:00:01.678Z</time></trkpt><trkpt lat="33.5453345" lon="9.9675315"><ele>379.0</ele><time>2026-04-26T08:00:03.685Z</time></trkpt><trkpt lat="33.5452338" lon="9.9675955"><ele>378.3333333333333</ele><time>2026-04-26T08:00:05.679Z</time></trkpt><trkpt lat="33.5451294" lon="9.9676815"><ele>377.66666666666663</ele><time>2026-04-26T08:00:07.673Z</time></trkpt><trkpt lat="33.5450769" lon="9.9677346"><ele>377.0</ele><time>2026-04-26T08:00:08.669Z</time></trkpt><trkpt lat="33.5450209" lon="9.9677934"><ele>376.3333333333333</ele><time>2026-04-26T08:00:09.68Z</time></trkpt><trkpt lat="33.5449687" lon="9.9678504"><ele>375.6666666666667</ele><time>2026-04-26T08:00:10.669Z</time></trkpt><trkpt lat="33.5449146" lon="9.9679033"><ele>375.0</ele><time>2026-04-26T08:00:11.689Z</time></trkpt><trkpt lat="33.5448603" lon="9.9679579"><ele>375.0</ele><time>2026-04-26T08:00:12.685Z</time></trkpt><trkpt lat="33.5448056" lon="9.9680115"><ele>375.0</ele><time>2026-04-26T08:00:13.684Z</time></trkpt><trkpt lat="33.5447153" lon="9.9681006"><ele>375.0</ele><time>2026-04-26T08:00:15.68Z</time></trkpt><trkpt lat="33.5446428" lon="9.9681711"><ele>375.0</ele><time>2026-04-26T08:00:17.678Z</time></trkpt><trkpt lat="33.5445739" lon="9.9682352"><ele>375.0</ele><time>2026-04-26T08:00:19.681Z</time></trkpt><trkpt lat="33.5444904" lon="9.9683126"><ele>375.0</ele><time>2026-04-26T08:00:21.678Z</time></trkpt><trkpt lat="33.5444012" lon="9.9683982"><ele>375.0</ele><time>2026-04-26T08:00:23.674Z</time></trkpt><trkpt lat="33.544323" lon="9.9684691"><ele>375.0</ele><time>2026-04-26T08:00:25.672Z</time></trkpt><trkpt lat="33.5442696" lon="9.968539"><ele>375.0</ele><time>2026-04-26T08:00:27.679Z</time></trkpt><trkpt lat="33.5442129" lon="9.9686148"><ele>375.0</ele><time>2026-04-26T08:00:30.688Z</time></trkpt><trkpt lat="33.5441712" lon="9.968678"><ele>375.0</ele><time>2026-04-26T08:00:32.683Z</time></trkpt><trkpt lat="33.5441416" lon="9.968745"><ele>375.0</ele><time>2026-04-26T08:00:34.684Z</time></trkpt><trkpt lat="33.5440983" lon="9.968841"><ele>375.0</ele><time>2026-04-26T08:00:37.698Z</time></trkpt><trkpt lat="33.5440732" lon="9.9689137"><ele>375.0</ele><time>2026-04-26T08:00:39.682Z</time></trkpt><trkpt lat="33.5440405" lon="9.9690026"><ele>375.0</ele><time>2026-04-26T08:00:41.675Z</time></trkpt><trkpt lat="33.5440003" lon="9.9691052"><ele>375.0</ele><time>2026-04-26T08:00:43.674Z</time></trkpt><trkpt lat="33.54396" lon="9.9692076"><ele>375.0</ele><time>2026-04-26T08:00:45.684Z</time></trkpt><trkpt lat="33.5439128" lon="9.9692874"><ele>375.5</ele><time>2026-04-26T08:00:47.684Z</time></trkpt><trkpt lat="33.5438685" lon="9.9693463"><ele>376.0</ele><time>2026-04-26T08:00:49.693Z</time></trkpt><trkpt lat="33.5438212" lon="9.9694002"><ele>376.5</ele><time>2026-04-26T08:00:51.673Z</time></trkpt><trkpt lat="33.5437571" lon="9.9694663"><ele>377.0</ele><time>2026-04-26T08:00:53.686Z</time></trkpt><trkpt lat="33.5437091" lon="9.9695191"><ele>377.5</ele><time>2026-04-26T08:00:54.685Z</time></trkpt><trkpt lat="33.5436526" lon="9.9695858"><ele>378.0</ele><time>2026-04-26T08:00:55.684Z</time></trkpt><trkpt lat="33.5435829" lon="9.969659"><ele>377.0</ele><time>2026-04-26T08:00:56.679Z</time></trkpt><trkpt lat="33.5435051" lon="9.9697368"><ele>376.0</ele><time>2026-04-26T08:00:57.687Z</time></trkpt><trkpt lat="33.5434181" lon="9.9698227"><ele>375.0</ele><time>2026-04-26T08:00:58.684Z</time></trkpt><trkpt lat="33.5433373" lon="9.9699173"><ele>374.0</ele><time>2026-04-26T08:00:59.679Z</time></trkpt><trkpt lat="33.5432619" lon="9.9700084"><ele>373.0</ele><time>2026-04-26T08:01:00.686Z</time></trkpt><trkpt lat="33.5431866" lon="9.9700942"><ele>373.0</ele><time>2026-04-26T08:01:01.685Z</time></trkpt><trkpt lat="33.5431071" lon="9.9701833"><ele>373.0</ele><time>2026-04-26T08:01:02.672Z</time></trkpt><trkpt lat="33.543031" lon="9.9702719"><ele>373.0</ele><time>2026-04-26T08:01:03.675Z</time></trkpt><trkpt lat="33.5429534" lon="9.9703628"><ele>373.0</ele><time>2026-04-26T08:01:04.678Z</time></trkpt><trkpt lat="33.5428742" lon="9.9704506"><ele>373.0</ele><time>2026-04-26T08:01:05.682Z</time></trkpt><trkpt lat="33.5427981" lon="9.9705384"><ele>373.0</ele><time>2026-04-26T08:01:06.674Z</time></trkpt><trkpt lat="33.5427195" lon="9.9706353"><ele>373.0</ele><time>2026-04-26T08:01:07.733Z</time></trkpt><trkpt lat="33.5426494" lon="9.9707294"><ele>373.0</ele><time>2026-04-26T08:01:08.685Z</time></trkpt><trkpt lat="33.5425834" lon="9.9708285"><ele>373.0</ele><time>2026-04-26T08:01:09.689Z</time></trkpt><trkpt lat="33.5425223" lon="9.9709277"><ele>373.0</ele><time>2026-04-26T08:01:10.683Z</time></trkpt><trkpt lat="33.5424637" lon="9.9710324"><ele>373.0</ele><time>2026-04-26T08:01:11.686Z</time></trkpt><trkpt lat="33.5424023" lon="9.9711386"><ele>373.0</ele><time>2026-04-26T08:01:12.678Z</time></trkpt><trkpt lat="33.5423446" lon="9.971247"><ele>373.0</ele><time>2026-04-26T08:01:13.683Z</time></trkpt><trkpt lat="33.542287" lon="9.971352"><ele>373.0</ele><time>2026-04-26T08:01:14.685Z</time></trkpt><trkpt lat="33.5422376" lon="9.9714546"><ele>373.0</ele><time>2026-04-26T08:01:15.688Z</time></trkpt><trkpt lat="33.5422007" lon="9.9715619"><ele>373.0</ele><time>2026-04-26T08:01:16.676Z</time></trkpt><trkpt lat="33.5421844" lon="9.9716811"><ele>373.0</ele><time>2026-04-26T08:01:17.685Z</time></trkpt><trkpt lat="33.5421766" lon="9.9718035"><ele>373.0</ele><time>2026-04-26T08:01:18.673Z</time></trkpt><trkpt lat="33.5421727" lon="9.9719252"><ele>373.0</ele><time>2026-04-26T08:01:19.676Z</time></trkpt><trkpt lat="33.5421689" lon="9.9720493"><ele>373.0</ele><time>2026-04-26T08:01:20.682Z</time></trkpt><trkpt lat="33.5421636" lon="9.9721704"><ele>373.59999999999997</ele><time>2026-04-26T08:01:21.672Z</time></trkpt><trkpt lat="33.542152" lon="9.9722935"><ele>374.2</ele><time>2026-04-26T08:01:22.682Z</time></trkpt><trkpt lat="33.5421433" lon="9.972417"><ele>374.8</ele><time>2026-04-26T08:01:23.677Z</time></trkpt><trkpt lat="33.5421333" lon="9.9725324"><ele>375.4</ele><time>2026-04-26T08:01:24.691Z</time></trkpt><trkpt lat="33.5421238" lon="9.972653"><ele>376.0</ele><time>2026-04-26T08:01:25.68Z</time></trkpt><trkpt lat="33.5421205" lon="9.9727759"><ele>376.6</ele><time>2026-04-26T08:01:26.683Z</time></trkpt><trkpt lat="33.5421161" lon="9.9728964"><ele>377.20000000000005</ele><time>2026-04-26T08:01:27.685Z</time></trkpt><trkpt lat="33.5421154" lon="9.9730191"><ele>377.79999999999995</ele><time>2026-04-26T08:01:28.69Z</time></trkpt><trkpt lat="33.5421125" lon="9.9731351"><ele>378.4</ele><time>2026-04-26T08:01:29.724Z</time></trkpt><trkpt lat="33.5421139" lon="9.9732533"><ele>379.0</ele><time>2026-04-26T08:01:30.682Z</time></trkpt><trkpt lat="33.5421236" lon="9.9733709"><ele>379.0</ele><time>2026-04-26T08:01:31.677Z</time></trkpt><trkpt lat="33.5421338" lon="9.9734873"><ele>379.0</ele><time>2026-04-26T08:01:32.683Z</time></trkpt><trkpt lat="33.5421467" lon="9.9736001"><ele>379.0</ele><time>2026-04-26T08:01:33.689Z</time></trkpt><trkpt lat="33.542164" lon="9.9737042"><ele>379.0</ele><time>2026-04-26T08:01:34.681Z</time></trkpt><trkpt lat="33.5421729" lon="9.9738029"><ele>379.0</ele><time>2026-04-26T08:01:35.676Z</time></trkpt><trkpt lat="33.5421794" lon="9.9738992"><ele>379.0</ele><time>2026-04-26T08:01:36.688Z</time></trkpt><trkpt lat="33.5421848" lon="9.9739915"><ele>379.0</ele><time>2026-04-26T08:01:37.682Z</time></trkpt><trkpt lat="33.5421889" lon="9.9740874"><ele>379.0</ele><time>2026-04-26T08:01:38.688Z</time></trkpt><trkpt lat="33.5421862" lon="9.9741904"><ele>379.0</ele><time>2026-04-26T08:01:39.689Z</time></trkpt><trkpt lat="33.542193" lon="9.9743013"><ele>379.0</ele><time>2026-04-26T08:01:40.673Z</time></trkpt><trkpt lat="33.5422015" lon="9.9744196"><ele>379.0</ele><time>2026-04-26T08:01:41.671Z</time></trkpt><trkpt lat="33.5421965" lon="9.9745522"><ele>379.4</ele><time>2026-04-26T08:01:42.689Z</time></trkpt><trkpt lat="33.5421806" lon="9.9746851"><ele>379.79999999999995</ele><time>2026-04-26T08:01:43.681Z</time></trkpt><trkpt lat="33.5421594" lon="9.9748223"><ele>380.20000000000005</ele><time>2026-04-26T08:01:44.675Z</time></trkpt><trkpt lat="33.5421331" lon="9.9749504"><ele>380.6</ele><time>2026-04-26T08:01:45.676Z</time></trkpt><trkpt lat="33.5420985" lon="9.9750767"><ele>381.0</ele><time>2026-04-26T08:01:46.685Z</time></trkpt><trkpt lat="33.5420614" lon="9.975209"><ele>382.20000000000005</ele><time>2026-04-26T08:01:47.674Z</time></trkpt><trkpt lat="33.5420422" lon="9.9753413"><ele>383.40000000000003</ele><time>2026-04-26T08:01:48.67Z</time></trkpt><trkpt lat="33.5420281" lon="9.9754745"><ele>384.6</ele><time>2026-04-26T08:01:49.67Z</time></trkpt><trkpt lat="33.5420145" lon="9.9756071"><ele>385.8</ele><time>2026-04-26T08:01:50.676Z</time></trkpt><trkpt lat="33.542018" lon="9.9757397"><ele>387.0</ele><time>2026-04-26T08:01:51.678Z</time></trkpt><trkpt lat="33.5420297" lon="9.9758643"><ele>387.40000000000003</ele><time>2026-04-26T08:01:52.668Z</time></trkpt><trkpt lat="33.5420446" lon="9.9759864"><ele>387.8</ele><time>2026-04-26T08:01:53.669Z</time></trkpt><trkpt lat="33.5420662" lon="9.976103"><ele>388.2</ele><time>2026-04-26T08:01:54.671Z</time></trkpt><trkpt lat="33.5420834" lon="9.9762153"><ele>388.6</ele><time>2026-04-26T08:01:55.681Z</time></trkpt><trkpt lat="33.5420946" lon="9.9763283"><ele>389.0</ele><time>2026-04-26T08:01:56.679Z</time></trkpt><trkpt lat="33.5421132" lon="9.9764399"><ele>390.79999999999995</ele><time>2026-04-26T08:01:57.686Z</time></trkpt><trkpt lat="33.5421297" lon="9.9765494"><ele>392.59999999999997</ele><time>2026-04-26T08:01:58.681Z</time></trkpt><trkpt lat="33.5421415" lon="9.9766577"><ele>394.4</ele><time>2026-04-26T08:01:59.688Z</time></trkpt><trkpt lat="33.5421621" lon="9.9767627"><ele>396.2</ele><time>2026-04-26T08:02:00.683Z</time></trkpt><trkpt lat="33.5421834" lon="9.976876"><ele>398.0</ele><time>2026-04-26T08:02:01.682Z</time></trkpt><trkpt lat="33.5422018" lon="9.9769941"><ele>398.59999999999997</ele><time>2026-04-26T08:02:02.686Z</time></trkpt><trkpt lat="33.5422198" lon="9.9771156"><ele>399.2</ele><time>2026-04-26T08:02:03.677Z</time></trkpt><trkpt lat="33.5422363" lon="9.977242"><ele>399.8</ele><time>2026-04-26T08:02:04.684Z</time></trkpt><trkpt lat="33.542255" lon="9.9773676"><ele>400.4</ele><time>2026-04-26T08:02:05.676Z</time></trkpt><trkpt lat="33.5422701" lon="9.9774905"><ele>401.0</ele><time>2026-04-26T08:02:06.681Z</time></trkpt><trkpt lat="33.5422626" lon="9.9776248"><ele>400.0</ele><time>2026-04-26T08:02:07.666Z</time></trkpt><trkpt lat="33.5422402" lon="9.9777499"><ele>399.0</ele><time>2026-04-26T08:02:08.678Z</time></trkpt><trkpt lat="33.5422041" lon="9.9778793"><ele>398.0</ele><time>2026-04-26T08:02:09.664Z</time></trkpt><trkpt lat="33.5421446" lon="9.9779979"><ele>397.0</ele><time>2026-04-26T08:02:10.675Z</time></trkpt><trkpt lat="33.5420788" lon="9.9781083"><ele>396.0</ele><time>2026-04-26T08:02:11.679Z</time></trkpt><trkpt lat="33.5420261" lon="9.9782298"><ele>396.75</ele><time>2026-04-26T08:02:12.67Z</time></trkpt><trkpt lat="33.54198" lon="9.9783546"><ele>397.5</ele><time>2026-04-26T08:02:13.682Z</time></trkpt><trkpt lat="33.5419412" lon="9.9784869"><ele>398.25</ele><time>2026-04-26T08:02:14.68Z</time></trkpt><trkpt lat="33.5419076" lon="9.97862"><ele>399.0</ele><time>2026-04-26T08:02:15.676Z</time></trkpt><trkpt lat="33.5418898" lon="9.978744"><ele>399.0</ele><time>2026-04-26T08:02:16.675Z</time></trkpt><trkpt lat="33.5418908" lon="9.9788752"><ele>399.0</ele><time>2026-04-26T08:02:17.68Z</time></trkpt><trkpt lat="33.5419082" lon="9.9790058"><ele>399.0</ele><time>2026-04-26T08:02:18.687Z</time></trkpt><trkpt lat="33.5419322" lon="9.9791405"><ele>399.0</ele><time>2026-04-26T08:02:19.676Z</time></trkpt><trkpt lat="33.5419602" lon="9.9792748"><ele>400.0</ele><time>2026-04-26T08:02:20.681Z</time></trkpt><trkpt lat="33.5419904" lon="9.9794065"><ele>401.0</ele><time>2026-04-26T08:02:21.672Z</time></trkpt><trkpt lat="33.5420089" lon="9.9795393"><ele>402.0</ele><time>2026-04-26T08:02:22.679Z</time></trkpt><trkpt lat="33.5420175" lon="9.9796716"><ele>403.0</ele><time>2026-04-26T08:02:23.681Z</time></trkpt><trkpt lat="33.5420157" lon="9.9798087"><ele>403.0</ele><time>2026-04-26T08:02:24.679Z</time></trkpt><trkpt lat="33.5420097" lon="9.9799434"><ele>403.0</ele><time>2026-04-26T08:02:25.678Z</time></trkpt><trkpt lat="33.5419998" lon="9.9800783"><ele>403.0</ele><time>2026-04-26T08:02:26.675Z</time></trkpt><trkpt lat="33.5419833" lon="9.9802086"><ele>403.0</ele><time>2026-04-26T08:02:27.67Z</time></trkpt><trkpt lat="33.5419725" lon="9.9803404"><ele>403.0</ele><time>2026-04-26T08:02:28.683Z</time></trkpt><trkpt lat="33.5419632" lon="9.9804736"><ele>404.0</ele><time>2026-04-26T08:02:29.683Z</time></trkpt><trkpt lat="33.5419524" lon="9.9806101"><ele>405.0</ele><time>2026-04-26T08:02:30.678Z</time></trkpt><trkpt lat="33.5419395" lon="9.9807421"><ele>406.0</ele><time>2026-04-26T08:02:31.679Z</time></trkpt><trkpt lat="33.5419334" lon="9.980882"><ele>407.0</ele><time>2026-04-26T08:02:32.678Z</time></trkpt><trkpt lat="33.5419118" lon="9.9810197"><ele>407.75</ele><time>2026-04-26T08:02:33.685Z</time></trkpt><trkpt lat="33.5418855" lon="9.9811506"><ele>408.5</ele><time>2026-04-26T08:02:34.683Z</time></trkpt><trkpt lat="33.5418499" lon="9.9812807"><ele>409.25</ele><time>2026-04-26T08:02:35.673Z</time></trkpt><trkpt lat="33.5418094" lon="9.9814171"><ele>410.0</ele><time>2026-04-26T08:02:36.687Z</time></trkpt><trkpt lat="33.5417723" lon="9.9815604"><ele>411.0</ele><time>2026-04-26T08:02:37.675Z</time></trkpt><trkpt lat="33.5417379" lon="9.9817019"><ele>412.0</ele><time>2026-04-26T08:02:38.678Z</time></trkpt><trkpt lat="33.5417156" lon="9.9818521"><ele>413.0</ele><time>2026-04-26T08:02:39.686Z</time></trkpt><trkpt lat="33.541697" lon="9.9819984"><ele>414.0</ele><time>2026-04-26T08:02:40.672Z</time></trkpt><trkpt lat="33.5416858" lon="9.9821428"><ele>414.0</ele><time>2026-04-26T08:02:41.686Z</time></trkpt><trkpt lat="33.5416775" lon="9.9822911"><ele>414.0</ele><time>2026-04-26T08:02:42.672Z</time></trkpt><trkpt lat="33.5416638" lon="9.9824397"><ele>414.0</ele><time>2026-04-26T08:02:43.687Z</time></trkpt><trkpt lat="33.5416456" lon="9.9825743"><ele>414.0</ele><time>2026-04-26T08:02:44.68Z</time></trkpt><trkpt lat="33.5416083" lon="9.9827004"><ele>412.79999999999995</ele><time>2026-04-26T08:02:45.675Z</time></trkpt><trkpt lat="33.5415684" lon="9.9828211"><ele>411.59999999999997</ele><time>2026-04-26T08:02:46.677Z</time></trkpt><trkpt lat="33.5415198" lon="9.9829401"><ele>410.4</ele><time>2026-04-26T08:02:47.672Z</time></trkpt><trkpt lat="33.541469" lon="9.9830515"><ele>409.2</ele><time>2026-04-26T08:02:48.701Z</time></trkpt><trkpt lat="33.5414146" lon="9.9831674"><ele>408.0</ele><time>2026-04-26T08:02:49.683Z</time></trkpt><trkpt lat="33.5413555" lon="9.9832787"><ele>407.59999999999997</ele><time>2026-04-26T08:02:50.668Z</time></trkpt><trkpt lat="33.5412964" lon="9.9833919"><ele>407.2</ele><time>2026-04-26T08:02:51.671Z</time></trkpt><trkpt lat="33.5412393" lon="9.9835076"><ele>406.8</ele><time>2026-04-26T08:02:52.685Z</time></trkpt><trkpt lat="33.5411835" lon="9.9836223"><ele>406.4</ele><time>2026-04-26T08:02:53.684Z</time></trkpt><trkpt lat="33.5411275" lon="9.9837358"><ele>406.0</ele><time>2026-04-26T08:02:54.679Z</time></trkpt><trkpt lat="33.5410695" lon="9.983851"><ele>406.0</ele><time>2026-04-26T08:02:55.684Z</time></trkpt><trkpt lat="33.5410156" lon="9.9839595"><ele>406.0</ele><time>2026-04-26T08:02:56.689Z</time></trkpt><trkpt lat="33.5409551" lon="9.9840736"><ele>406.0</ele><time>2026-04-26T08:02:57.684Z</time></trkpt><trkpt lat="33.5408905" lon="9.9841893"><ele>406.0</ele><time>2026-04-26T08:02:58.678Z</time></trkpt><trkpt lat="33.5408246" lon="9.9843082"><ele>400.5</ele><time>2026-04-26T08:02:59.683Z</time></trkpt><trkpt lat="33.5407461" lon="9.9844249"><ele>395.0</ele><time>2026-04-26T08:03:00.668Z</time></trkpt><trkpt lat="33.540661" lon="9.984535"><ele>389.5</ele><time>2026-04-26T08:03:01.678Z</time></trkpt><trkpt lat="33.5405658" lon="9.9846452"><ele>384.0</ele><time>2026-04-26T08:03:02.675Z</time></trkpt><trkpt lat="33.5404706" lon="9.9847537"><ele>387.25</ele><time>2026-04-26T08:03:03.675Z</time></trkpt><trkpt lat="33.5403774" lon="9.9848703"><ele>390.5</ele><time>2026-04-26T08:03:04.664Z</time></trkpt><trkpt lat="33.5402836" lon="9.9849804"><ele>393.75</ele><time>2026-04-26T08:03:05.673Z</time></trkpt><trkpt lat="33.5401931" lon="9.9850864"><ele>397.0</ele><time>2026-04-26T08:03:06.667Z</time></trkpt><trkpt lat="33.5400992" lon="9.9851938"><ele>397.0</ele><time>2026-04-26T08:03:07.674Z</time></trkpt><trkpt lat="33.540016" lon="9.9853015"><ele>397.0</ele><time>2026-04-26T08:03:08.676Z</time></trkpt><trkpt lat="33.5399434" lon="9.9854043"><ele>397.0</ele><time>2026-04-26T08:03:09.668Z</time></trkpt><trkpt lat="33.5398926" lon="9.985512"><ele>397.0</ele><time>2026-04-26T08:03:10.682Z</time></trkpt><trkpt lat="33.5398603" lon="9.9856208"><ele>397.0</ele><time>2026-04-26T08:03:11.669Z</time></trkpt><trkpt lat="33.539856" lon="9.9857449"><ele>398.40000000000003</ele><time>2026-04-26T08:03:12.681Z</time></trkpt><trkpt lat="33.539887" lon="9.9858685"><ele>399.8</ele><time>2026-04-26T08:03:13.67Z</time></trkpt><trkpt lat="33.5399409" lon="9.9859878"><ele>401.2</ele><time>2026-04-26T08:03:14.686Z</time></trkpt><trkpt lat="33.5400093" lon="9.9860929"><ele>402.6</ele><time>2026-04-26T08:03:15.672Z</time></trkpt><trkpt lat="33.5400886" lon="9.9861924"><ele>404.0</ele><time>2026-04-26T08:03:16.678Z</time></trkpt><trkpt lat="33.5401418" lon="9.986302"><ele>404.0</ele><time>2026-04-26T08:03:17.674Z</time></trkpt><trkpt lat="33.5401571" lon="9.9864247"><ele>404.0</ele><time>2026-04-26T08:03:18.681Z</time></trkpt><trkpt lat="33.5401344" lon="9.9865516"><ele>404.0</ele><time>2026-04-26T08:03:19.678Z</time></trkpt><trkpt lat="33.5400787" lon="9.9866734"><ele>404.0</ele><time>2026-04-26T08:03:20.676Z</time></trkpt><trkpt lat="33.5399982" lon="9.986824"><ele>401.66666666666663</ele><time>2026-04-26T08:03:21.68Z</time></trkpt><trkpt lat="33.5399049" lon="9.9869748"><ele>399.33333333333337</ele><time>2026-04-26T08:03:22.679Z</time></trkpt><trkpt lat="33.539806" lon="9.9871304"><ele>397.0</ele><time>2026-04-26T08:03:23.665Z</time></trkpt><trkpt lat="33.5397172" lon="9.9872836"><ele>397.0</ele><time>2026-04-26T08:03:24.683Z</time></trkpt><trkpt lat="33.5396415" lon="9.9874297"><ele>397.0</ele><time>2026-04-26T08:03:25.678Z</time></trkpt><trkpt lat="33.5395646" lon="9.9875767"><ele>397.0</ele><time>2026-04-26T08:03:26.68Z</time></trkpt><trkpt lat="33.5395016" lon="9.9877067"><ele>397.0</ele><time>2026-04-26T08:03:27.681Z</time></trkpt><trkpt lat="33.5394431" lon="9.9878366"><ele>400.8</ele><time>2026-04-26T08:03:28.68Z</time></trkpt><trkpt lat="33.539401" lon="9.9879658"><ele>404.6</ele><time>2026-04-26T08:03:29.682Z</time></trkpt><trkpt lat="33.5393797" lon="9.9880908"><ele>408.40000000000003</ele><time>2026-04-26T08:03:30.672Z</time></trkpt><trkpt lat="33.5393601" lon="9.9882212"><ele>412.20000000000005</ele><time>2026-04-26T08:03:31.668Z</time></trkpt><trkpt lat="33.5393314" lon="9.9883458"><ele>416.0</ele><time>2026-04-26T08:03:32.683Z</time></trkpt><trkpt lat="33.5392808" lon="9.9884534"><ele>416.0</ele><time>2026-04-26T08:03:33.668Z</time></trkpt><trkpt lat="33.5392184" lon="9.9885396"><ele>416.0</ele><time>2026-04-26T08:03:34.679Z</time></trkpt><trkpt lat="33.5391345" lon="9.9886067"><ele>416.0</ele><time>2026-04-26T08:03:35.681Z</time></trkpt><trkpt lat="33.5390277" lon="9.9886609"><ele>416.0</ele><time>2026-04-26T08:03:36.679Z</time></trkpt><trkpt lat="33.5389215" lon="9.9886645"><ele>416.0</ele><time>2026-04-26T08:03:37.713Z</time></trkpt><trkpt lat="33.5388169" lon="9.9886314"><ele>412.8</ele><time>2026-04-26T08:03:38.689Z</time></trkpt><trkpt lat="33.5387051" lon="9.988578"><ele>409.6</ele><time>2026-04-26T08:03:39.675Z</time></trkpt><trkpt lat="33.5386056" lon="9.9885544"><ele>406.4</ele><time>2026-04-26T08:03:40.673Z</time></trkpt><trkpt lat="33.5385034" lon="9.9885508"><ele>403.2</ele><time>2026-04-26T08:03:41.678Z</time></trkpt><trkpt lat="33.5383943" lon="9.9885645"><ele>400.0</ele><time>2026-04-26T08:03:42.672Z</time></trkpt><trkpt lat="33.5382773" lon="9.9885603"><ele>400.0</ele><time>2026-04-26T08:03:43.682Z</time></trkpt><trkpt lat="33.5381627" lon="9.9885346"><ele>400.0</ele><time>2026-04-26T08:03:44.665Z</time></trkpt><trkpt lat="33.5380551" lon="9.9884905"><ele>400.0</ele><time>2026-04-26T08:03:45.666Z</time></trkpt><trkpt lat="33.5379411" lon="9.9884646"><ele>400.0</ele><time>2026-04-26T08:03:46.66Z</time></trkpt><trkpt lat="33.5378118" lon="9.9884703"><ele>402.5</ele><time>2026-04-26T08:03:47.682Z</time></trkpt><trkpt lat="33.5376803" lon="9.9885035"><ele>405.0</ele><time>2026-04-26T08:03:48.667Z</time></trkpt><trkpt lat="33.537575" lon="9.9885647"><ele>407.5</ele><time>2026-04-26T08:03:49.679Z</time></trkpt><trkpt lat="33.5374591" lon="9.9886679"><ele>410.0</ele><time>2026-04-26T08:03:50.669Z</time></trkpt><trkpt lat="33.5373738" lon="9.988793"><ele>410.0</ele><time>2026-04-26T08:03:51.669Z</time></trkpt><trkpt lat="33.5373054" lon="9.9889462"><ele>410.0</ele><time>2026-04-26T08:03:52.674Z</time></trkpt><trkpt lat="33.5372469" lon="9.9890935"><ele>410.0</ele><time>2026-04-26T08:03:53.668Z</time></trkpt><trkpt lat="33.5371956" lon="9.9892313"><ele>410.0</ele><time>2026-04-26T08:03:54.675Z</time></trkpt><trkpt lat="33.5371562" lon="9.989367"><ele>409.4</ele><time>2026-04-26T08:03:55.676Z</time></trkpt><trkpt lat="33.5371282" lon="9.9895086"><ele>408.8</ele><time>2026-04-26T08:03:56.686Z</time></trkpt><trkpt lat="33.5371034" lon="9.98964"><ele>408.20000000000005</ele><time>2026-04-26T08:03:57.676Z</time></trkpt><trkpt lat="33.5370599" lon="9.9897503"><ele>407.6</ele><time>2026-04-26T08:03:58.679Z</time></trkpt><trkpt lat="33.5369978" lon="9.9898394"><ele>407.0</ele><time>2026-04-26T08:03:59.679Z</time></trkpt><trkpt lat="33.5369186" lon="9.9899"><ele>407.0</ele><time>2026-04-26T08:04:00.669Z</time></trkpt><trkpt lat="33.5368244" lon="9.9899168"><ele>407.0</ele><time>2026-04-26T08:04:01.675Z</time></trkpt><trkpt lat="33.5367144" lon="9.9899093"><ele>407.0</ele><time>2026-04-26T08:04:02.699Z</time></trkpt><trkpt lat="33.5366122" lon="9.9898578"><ele>407.0</ele><time>2026-04-26T08:04:03.667Z</time></trkpt><trkpt lat="33.5364845" lon="9.9897643"><ele>407.0</ele><time>2026-04-26T08:04:04.676Z</time></trkpt><trkpt lat="33.5363516" lon="9.9896679"><ele>407.0</ele><time>2026-04-26T08:04:05.675Z</time></trkpt><trkpt lat="33.5362224" lon="9.9895646"><ele>407.0</ele><time>2026-04-26T08:04:06.676Z</time></trkpt><trkpt lat="33.5360909" lon="9.9894923"><ele>405.0</ele><time>2026-04-26T08:04:07.665Z</time></trkpt><trkpt lat="33.5359593" lon="9.9894522"><ele>403.0</ele><time>2026-04-26T08:04:08.678Z</time></trkpt><trkpt lat="33.5358345" lon="9.9894407"><ele>401.0</ele><time>2026-04-26T08:04:09.684Z</time></trkpt><trkpt lat="33.5357039" lon="9.9894627"><ele>399.0</ele><time>2026-04-26T08:04:10.684Z</time></trkpt><trkpt lat="33.5355744" lon="9.9895031"><ele>399.0</ele><time>2026-04-26T08:04:11.68Z</time></trkpt><trkpt lat="33.5354545" lon="9.9895747"><ele>399.0</ele><time>2026-04-26T08:04:12.671Z</time></trkpt><trkpt lat="33.5353389" lon="9.9896635"><ele>399.0</ele><time>2026-04-26T08:04:13.671Z</time></trkpt><trkpt lat="33.5352312" lon="9.9897579"><ele>399.0</ele><time>2026-04-26T08:04:14.674Z</time></trkpt><trkpt lat="33.5351287" lon="9.9898445"><ele>401.0</ele><time>2026-04-26T08:04:15.673Z</time></trkpt><trkpt lat="33.5350228" lon="9.9899277"><ele>403.0</ele><time>2026-04-26T08:04:16.671Z</time></trkpt><trkpt lat="33.5349287" lon="9.990026"><ele>405.0</ele><time>2026-04-26T08:04:17.67Z</time></trkpt><trkpt lat="33.534848" lon="9.9901359"><ele>407.0</ele><time>2026-04-26T08:04:18.677Z</time></trkpt><trkpt lat="33.5347814" lon="9.9902603"><ele>407.0</ele><time>2026-04-26T08:04:19.672Z</time></trkpt><trkpt lat="33.5347268" lon="9.9903927"><ele>407.0</ele><time>2026-04-26T08:04:20.666Z</time></trkpt><trkpt lat="33.5346732" lon="9.9905359"><ele>407.0</ele><time>2026-04-26T08:04:21.678Z</time></trkpt><trkpt lat="33.5346284" lon="9.9906703"><ele>407.0</ele><time>2026-04-26T08:04:22.683Z</time></trkpt><trkpt lat="33.5345722" lon="9.9907937"><ele>409.0</ele><time>2026-04-26T08:04:23.681Z</time></trkpt><trkpt lat="33.5344931" lon="9.9909117"><ele>411.0</ele><time>2026-04-26T08:04:24.666Z</time></trkpt><trkpt lat="33.5343988" lon="9.9910293"><ele>413.0</ele><time>2026-04-26T08:04:25.661Z</time></trkpt><trkpt lat="33.5342996" lon="9.9911339"><ele>415.0</ele><time>2026-04-26T08:04:26.672Z</time></trkpt><trkpt lat="33.5342128" lon="9.9912414"><ele>415.0</ele><time>2026-04-26T08:04:27.662Z</time></trkpt><trkpt lat="33.5341282" lon="9.9913467"><ele>415.0</ele><time>2026-04-26T08:04:28.679Z</time></trkpt><trkpt lat="33.5340499" lon="9.9914401"><ele>415.0</ele><time>2026-04-26T08:04:29.676Z</time></trkpt><trkpt lat="33.5339607" lon="9.9915071"><ele>415.0</ele><time>2026-04-26T08:04:30.698Z</time></trkpt><trkpt lat="33.5338472" lon="9.9915183"><ele>416.0</ele><time>2026-04-26T08:04:31.685Z</time></trkpt><trkpt lat="33.5337127" lon="9.991501"><ele>417.0</ele><time>2026-04-26T08:04:32.678Z</time></trkpt><trkpt lat="33.5335727" lon="9.9914627"><ele>418.0</ele><time>2026-04-26T08:04:33.675Z</time></trkpt><trkpt lat="33.5334341" lon="9.991432"><ele>419.0</ele><time>2026-04-26T08:04:34.672Z</time></trkpt><trkpt lat="33.5332967" lon="9.9914108"><ele>419.0</ele><time>2026-04-26T08:04:35.675Z</time></trkpt><trkpt lat="33.5331678" lon="9.9913862"><ele>419.0</ele><time>2026-04-26T08:04:36.682Z</time></trkpt><trkpt lat="33.5330571" lon="9.9913349"><ele>419.0</ele><time>2026-04-26T08:04:37.668Z</time></trkpt><trkpt lat="33.5329424" lon="9.9912458"><ele>419.0</ele><time>2026-04-26T08:04:38.673Z</time></trkpt><trkpt lat="33.5328218" lon="9.9911019"><ele>419.66666666666663</ele><time>2026-04-26T08:04:39.685Z</time></trkpt><trkpt lat="33.5327007" lon="9.9909156"><ele>420.33333333333337</ele><time>2026-04-26T08:04:40.677Z</time></trkpt><trkpt lat="33.5325948" lon="9.99072"><ele>421.0</ele><time>2026-04-26T08:04:41.686Z</time></trkpt><trkpt lat="33.532513" lon="9.9905488"><ele>421.33333333333337</ele><time>2026-04-26T08:04:42.678Z</time></trkpt><trkpt lat="33.5324457" lon="9.9903826"><ele>421.66666666666663</ele><time>2026-04-26T08:04:43.678Z</time></trkpt><trkpt lat="33.5323879" lon="9.9902108"><ele>422.0</ele><time>2026-04-26T08:04:44.696Z</time></trkpt><trkpt lat="33.5323194" lon="9.9900508"><ele>422.0</ele><time>2026-04-26T08:04:45.69Z</time></trkpt><trkpt lat="33.5322309" lon="9.989905"><ele>422.0</ele><time>2026-04-26T08:04:46.673Z</time></trkpt><trkpt lat="33.5321057" lon="9.9897712"><ele>422.0</ele><time>2026-04-26T08:04:47.673Z</time></trkpt><trkpt lat="33.531948" lon="9.9896525"><ele>424.3333333333333</ele><time>2026-04-26T08:04:48.694Z</time></trkpt><trkpt lat="33.5317838" lon="9.9895437"><ele>426.66666666666663</ele><time>2026-04-26T08:04:49.672Z</time></trkpt><trkpt lat="33.5316342" lon="9.9894366"><ele>429.0</ele><time>2026-04-26T08:04:50.679Z</time></trkpt><trkpt lat="33.5314956" lon="9.9893317"><ele>429.0</ele><time>2026-04-26T08:04:51.683Z</time></trkpt><trkpt lat="33.5313682" lon="9.9892421"><ele>429.0</ele><time>2026-04-26T08:04:52.679Z</time></trkpt><trkpt lat="33.5312465" lon="9.9891572"><ele>429.0</ele><time>2026-04-26T08:04:53.677Z</time></trkpt><trkpt lat="33.5311346" lon="9.9890637"><ele>429.0</ele><time>2026-04-26T08:04:54.673Z</time></trkpt><trkpt lat="33.5310323" lon="9.9889684"><ele>431.75</ele><time>2026-04-26T08:04:55.675Z</time></trkpt><trkpt lat="33.5309463" lon="9.9888491"><ele>434.5</ele><time>2026-04-26T08:04:56.67Z</time></trkpt><trkpt lat="33.5308884" lon="9.9887204"><ele>437.25</ele><time>2026-04-26T08:04:57.676Z</time></trkpt><trkpt lat="33.5308382" lon="9.988592"><ele>440.0</ele><time>2026-04-26T08:04:58.664Z</time></trkpt><trkpt lat="33.530772" lon="9.9884734"><ele>440.0</ele><time>2026-04-26T08:04:59.674Z</time></trkpt><trkpt lat="33.5306699" lon="9.9883908"><ele>440.0</ele><time>2026-04-26T08:05:00.678Z</time></trkpt><trkpt lat="33.5305326" lon="9.9883341"><ele>440.0</ele><time>2026-04-26T08:05:01.677Z</time></trkpt><trkpt lat="33.5303728" lon="9.9882801"><ele>440.0</ele><time>2026-04-26T08:05:02.675Z</time></trkpt><trkpt lat="33.5302112" lon="9.9882298"><ele>439.5</ele><time>2026-04-26T08:05:03.672Z</time></trkpt><trkpt lat="33.5300645" lon="9.9881702"><ele>439.0</ele><time>2026-04-26T08:05:04.678Z</time></trkpt><trkpt lat="33.5299243" lon="9.9881025"><ele>438.5</ele><time>2026-04-26T08:05:05.676Z</time></trkpt><trkpt lat="33.5298016" lon="9.9880169"><ele>438.0</ele><time>2026-04-26T08:05:06.672Z</time></trkpt><trkpt lat="33.5296817" lon="9.9879216"><ele>437.5</ele><time>2026-04-26T08:05:07.673Z</time></trkpt><trkpt lat="33.529558" lon="9.987832"><ele>437.0</ele><time>2026-04-26T08:05:08.673Z</time></trkpt><trkpt lat="33.5294335" lon="9.9877498"><ele>436.5</ele><time>2026-04-26T08:05:09.681Z</time></trkpt><trkpt lat="33.5293" lon="9.9876625"><ele>436.0</ele><time>2026-04-26T08:05:10.685Z</time></trkpt><trkpt lat="33.5291554" lon="9.9875866"><ele>436.0</ele><time>2026-04-26T08:05:11.679Z</time></trkpt><trkpt lat="33.5290049" lon="9.9875421"><ele>436.0</ele><time>2026-04-26T08:05:12.685Z</time></trkpt><trkpt lat="33.5288534" lon="9.9875379"><ele>436.0</ele><time>2026-04-26T08:05:13.678Z</time></trkpt><trkpt lat="33.5287119" lon="9.9875603"><ele>436.0</ele><time>2026-04-26T08:05:14.676Z</time></trkpt><trkpt lat="33.528572" lon="9.9876211"><ele>438.0</ele><time>2026-04-26T08:05:15.668Z</time></trkpt><trkpt lat="33.5284365" lon="9.9876898"><ele>440.0</ele><time>2026-04-26T08:05:16.672Z</time></trkpt><trkpt lat="33.5283054" lon="9.987747"><ele>442.0</ele><time>2026-04-26T08:05:17.677Z</time></trkpt><trkpt lat="33.5281796" lon="9.9877962"><ele>444.0</ele><time>2026-04-26T08:05:18.673Z</time></trkpt><trkpt lat="33.5280494" lon="9.987843"><ele>444.0</ele><time>2026-04-26T08:05:19.668Z</time></trkpt><trkpt lat="33.5279182" lon="9.9878981"><ele>444.0</ele><time>2026-04-26T08:05:20.683Z</time></trkpt><trkpt lat="33.5277878" lon="9.9879377"><ele>444.0</ele><time>2026-04-26T08:05:21.684Z</time></trkpt><trkpt lat="33.527652" lon="9.9879387"><ele>444.0</ele><time>2026-04-26T08:05:22.669Z</time></trkpt><trkpt lat="33.5275047" lon="9.9879118"><ele>445.75</ele><time>2026-04-26T08:05:23.678Z</time></trkpt><trkpt lat="33.527372" lon="9.9878399"><ele>447.5</ele><time>2026-04-26T08:05:24.682Z</time></trkpt><trkpt lat="33.5272647" lon="9.9877446"><ele>449.25</ele><time>2026-04-26T08:05:25.677Z</time></trkpt><trkpt lat="33.5271589" lon="9.987637"><ele>451.0</ele><time>2026-04-26T08:05:26.67Z</time></trkpt><trkpt lat="33.5270476" lon="9.9875554"><ele>450.25</ele><time>2026-04-26T08:05:27.676Z</time></trkpt><trkpt lat="33.5269244" lon="9.9875032"><ele>449.5</ele><time>2026-04-26T08:05:28.677Z</time></trkpt><trkpt lat="33.5267894" lon="9.9874697"><ele>448.75</ele><time>2026-04-26T08:05:29.665Z</time></trkpt><trkpt lat="33.5266546" lon="9.9874642"><ele>448.0</ele><time>2026-04-26T08:05:30.677Z</time></trkpt><trkpt lat="33.5265143" lon="9.9874752"><ele>448.0</ele><time>2026-04-26T08:05:31.68Z</time></trkpt><trkpt lat="33.5263818" lon="9.9874992"><ele>448.0</ele><time>2026-04-26T08:05:32.676Z</time></trkpt><trkpt lat="33.526244" lon="9.9875177"><ele>448.0</ele><time>2026-04-26T08:05:33.659Z</time></trkpt><trkpt lat="33.526104" lon="9.9875395"><ele>448.0</ele><time>2026-04-26T08:05:34.659Z</time></trkpt><trkpt lat="33.5259562" lon="9.9875612"><ele>457.0</ele><time>2026-04-26T08:05:35.666Z</time></trkpt><trkpt lat="33.5258149" lon="9.9875847"><ele>466.0</ele><time>2026-04-26T08:05:36.674Z</time></trkpt><trkpt lat="33.5256677" lon="9.9875855"><ele>475.0</ele><time>2026-04-26T08:05:37.675Z</time></trkpt><trkpt lat="33.5255202" lon="9.9875792"><ele>484.0</ele><time>2026-04-26T08:05:38.667Z</time></trkpt><trkpt lat="33.5253768" lon="9.9875785"><ele>484.0</ele><time>2026-04-26T08:05:39.678Z</time></trkpt><trkpt lat="33.5252372" lon="9.9875892"><ele>484.0</ele><time>2026-04-26T08:05:40.669Z</time></trkpt><trkpt lat="33.5251014" lon="9.9876145"><ele>484.0</ele><time>2026-04-26T08:05:41.678Z</time></trkpt><trkpt lat="33.5249659" lon="9.9876622"><ele>484.0</ele><time>2026-04-26T08:05:42.679Z</time></trkpt><trkpt lat="33.5248506" lon="9.9877226"><ele>484.0</ele><time>2026-04-26T08:05:43.674Z</time></trkpt><trkpt lat="33.5247409" lon="9.9878266"><ele>484.0</ele><time>2026-04-26T08:05:44.675Z</time></trkpt><trkpt lat="33.5246413" lon="9.9879492"><ele>484.0</ele><time>2026-04-26T08:05:45.668Z</time></trkpt><trkpt lat="33.5245445" lon="9.9880828"><ele>484.0</ele><time>2026-04-26T08:05:46.669Z</time></trkpt><trkpt lat="33.5244539" lon="9.9882092"><ele>481.33333333333337</ele><time>2026-04-26T08:05:47.668Z</time></trkpt><trkpt lat="33.5243547" lon="9.9883503"><ele>478.66666666666663</ele><time>2026-04-26T08:05:48.678Z</time></trkpt><trkpt lat="33.5242474" lon="9.9884902"><ele>476.0</ele><time>2026-04-26T08:05:49.667Z</time></trkpt><trkpt lat="33.5241544" lon="9.9886335"><ele>476.0</ele><time>2026-04-26T08:05:50.677Z</time></trkpt><trkpt lat="33.5240627" lon="9.9887745"><ele>476.0</ele><time>2026-04-26T08:05:51.665Z</time></trkpt><trkpt lat="33.5239659" lon="9.9889101"><ele>476.0</ele><time>2026-04-26T08:05:52.668Z</time></trkpt><trkpt lat="33.5238711" lon="9.9890544"><ele>475.0</ele><time>2026-04-26T08:05:53.68Z</time></trkpt><trkpt lat="33.5237766" lon="9.9891989"><ele>474.0</ele><time>2026-04-26T08:05:54.693Z</time></trkpt><trkpt lat="33.5236908" lon="9.9893559"><ele>473.0</ele><time>2026-04-26T08:05:55.671Z</time></trkpt><trkpt lat="33.5236136" lon="9.9895276"><ele>473.0</ele><time>2026-04-26T08:05:56.677Z</time></trkpt><trkpt lat="33.5235473" lon="9.9897065"><ele>473.0</ele><time>2026-04-26T08:05:57.668Z</time></trkpt><trkpt lat="33.5234877" lon="9.9898869"><ele>473.0</ele><time>2026-04-26T08:05:58.676Z</time></trkpt><trkpt lat="33.5234269" lon="9.9900627"><ele>474.0</ele><time>2026-04-26T08:05:59.681Z</time></trkpt><trkpt lat="33.5233646" lon="9.99023"><ele>475.0</ele><time>2026-04-26T08:06:00.69Z</time></trkpt><trkpt lat="33.5232952" lon="9.9903967"><ele>476.0</ele><time>2026-04-26T08:06:01.675Z</time></trkpt><trkpt lat="33.5232165" lon="9.9905621"><ele>476.0</ele><time>2026-04-26T08:06:02.679Z</time></trkpt><trkpt lat="33.5231269" lon="9.9907127"><ele>476.0</ele><time>2026-04-26T08:06:03.683Z</time></trkpt><trkpt lat="33.5230087" lon="9.9908371"><ele>476.0</ele><time>2026-04-26T08:06:04.688Z</time></trkpt><trkpt lat="33.5228822" lon="9.9909475"><ele>480.5</ele><time>2026-04-26T08:06:05.68Z</time></trkpt><trkpt lat="33.5227373" lon="9.9910222"><ele>485.0</ele><time>2026-04-26T08:06:06.685Z</time></trkpt><trkpt lat="33.5226037" lon="9.9910875"><ele>489.5</ele><time>2026-04-26T08:06:07.695Z</time></trkpt><trkpt lat="33.522481" lon="9.9911564"><ele>494.0</ele><time>2026-04-26T08:06:08.69Z</time></trkpt><trkpt lat="33.5223916" lon="9.9912489"><ele>494.0</ele><time>2026-04-26T08:06:09.687Z</time></trkpt><trkpt lat="33.5223281" lon="9.9913942"><ele>494.0</ele><time>2026-04-26T08:06:10.688Z</time></trkpt><trkpt lat="33.5222854" lon="9.9915691"><ele>494.0</ele><time>2026-04-26T08:06:11.671Z</time></trkpt><trkpt lat="33.5222272" lon="9.9917505"><ele>495.66666666666663</ele><time>2026-04-26T08:06:12.673Z</time></trkpt><trkpt lat="33.5221717" lon="9.991941"><ele>497.33333333333337</ele><time>2026-04-26T08:06:13.673Z</time></trkpt><trkpt lat="33.5221175" lon="9.9921166"><ele>499.0</ele><time>2026-04-26T08:06:14.676Z</time></trkpt><trkpt lat="33.5220609" lon="9.9922772"><ele>499.0</ele><time>2026-04-26T08:06:15.676Z</time></trkpt><trkpt lat="33.522007" lon="9.9924347"><ele>499.0</ele><time>2026-04-26T08:06:16.672Z</time></trkpt><trkpt lat="33.5219572" lon="9.9925966"><ele>499.0</ele><time>2026-04-26T08:06:17.674Z</time></trkpt><trkpt lat="33.5219073" lon="9.9927634"><ele>499.0</ele><time>2026-04-26T08:06:18.674Z</time></trkpt><trkpt lat="33.5218625" lon="9.9929113"><ele>501.6</ele><time>2026-04-26T08:06:19.68Z</time></trkpt><trkpt lat="33.5218153" lon="9.9930418"><ele>504.2</ele><time>2026-04-26T08:06:20.681Z</time></trkpt><trkpt lat="33.5217754" lon="9.9931602"><ele>506.80000000000007</ele><time>2026-04-26T08:06:21.683Z</time></trkpt><trkpt lat="33.5217308" lon="9.9932778"><ele>509.40000000000003</ele><time>2026-04-26T08:06:22.693Z</time></trkpt><trkpt lat="33.5216686" lon="9.9933786"><ele>512.0</ele><time>2026-04-26T08:06:23.674Z</time></trkpt><trkpt lat="33.5215765" lon="9.9934536"><ele>511.75</ele><time>2026-04-26T08:06:24.681Z</time></trkpt><trkpt lat="33.5214631" lon="9.9934943"><ele>511.5</ele><time>2026-04-26T08:06:25.682Z</time></trkpt><trkpt lat="33.5213493" lon="9.9935261"><ele>511.25</ele><time>2026-04-26T08:06:26.674Z</time></trkpt><trkpt lat="33.5212369" lon="9.9935442"><ele>511.0</ele><time>2026-04-26T08:06:27.679Z</time></trkpt><trkpt lat="33.5211342" lon="9.9935818"><ele>511.00000000000006</ele><time>2026-04-26T08:06:28.678Z</time></trkpt><trkpt lat="33.521066" lon="9.9936544"><ele>511.0</ele><time>2026-04-26T08:06:29.686Z</time></trkpt><trkpt lat="33.5210194" lon="9.9937374"><ele>511.0</ele><time>2026-04-26T08:06:30.683Z</time></trkpt><trkpt lat="33.520997" lon="9.9938209"><ele>511.0</ele><time>2026-04-26T08:06:31.669Z</time></trkpt><trkpt lat="33.5210214" lon="9.9939082"><ele>511.00000000000006</ele><time>2026-04-26T08:06:32.672Z</time></trkpt><trkpt lat="33.5210594" lon="9.993987"><ele>511.0</ele><time>2026-04-26T08:06:33.695Z</time></trkpt><trkpt lat="33.5211171" lon="9.994067"><ele>511.0</ele><time>2026-04-26T08:06:34.669Z</time></trkpt><trkpt lat="33.5211818" lon="9.9941421"><ele>511.0</ele><time>2026-04-26T08:06:35.677Z</time></trkpt><trkpt lat="33.5212682" lon="9.9942135"><ele>511.0</ele><time>2026-04-26T08:06:36.678Z</time></trkpt><trkpt lat="33.5213822" lon="9.9943003"><ele>511.0</ele><time>2026-04-26T08:06:37.67Z</time></trkpt><trkpt lat="33.5215064" lon="9.9944011"><ele>512.5</ele><time>2026-04-26T08:06:38.68Z</time></trkpt><trkpt lat="33.5216187" lon="9.9944955"><ele>514.0</ele><time>2026-04-26T08:06:39.694Z</time></trkpt><trkpt lat="33.5217203" lon="9.9945855"><ele>515.5</ele><time>2026-04-26T08:06:40.678Z</time></trkpt><trkpt lat="33.5218042" lon="9.9946883"><ele>517.0</ele><time>2026-04-26T08:06:41.672Z</time></trkpt><trkpt lat="33.521851" lon="9.9947937"><ele>517.0</ele><time>2026-04-26T08:06:42.677Z</time></trkpt><trkpt lat="33.521869" lon="9.994903"><ele>517.0</ele><time>2026-04-26T08:06:43.678Z</time></trkpt><trkpt lat="33.5218738" lon="9.9950165"><ele>517.0</ele><time>2026-04-26T08:06:44.672Z</time></trkpt><trkpt lat="33.521866" lon="9.9951422"><ele>517.0</ele><time>2026-04-26T08:06:45.685Z</time></trkpt><trkpt lat="33.521857" lon="9.9952625"><ele>517.0</ele><time>2026-04-26T08:06:46.676Z</time></trkpt><trkpt lat="33.5218488" lon="9.9953829"><ele>517.4</ele><time>2026-04-26T08:06:47.688Z</time></trkpt><trkpt lat="33.5218375" lon="9.9955076"><ele>517.8000000000001</ele><time>2026-04-26T08:06:48.685Z</time></trkpt><trkpt lat="33.5218297" lon="9.9956354"><ele>518.2</ele><time>2026-04-26T08:06:49.691Z</time></trkpt><trkpt lat="33.5218259" lon="9.9957655"><ele>518.6</ele><time>2026-04-26T08:06:50.689Z</time></trkpt><trkpt lat="33.5218179" lon="9.9958832"><ele>519.0</ele><time>2026-04-26T08:06:51.686Z</time></trkpt><trkpt lat="33.5218053" lon="9.9959975"><ele>521.0</ele><time>2026-04-26T08:06:52.678Z</time></trkpt><trkpt lat="33.5217836" lon="9.996108"><ele>523.0</ele><time>2026-04-26T08:06:53.68Z</time></trkpt><trkpt lat="33.5217355" lon="9.9962032"><ele>525.0</ele><time>2026-04-26T08:06:54.679Z</time></trkpt><trkpt lat="33.5216596" lon="9.996284"><ele>527.0</ele><time>2026-04-26T08:06:55.674Z</time></trkpt><trkpt lat="33.5215652" lon="9.9963462"><ele>529.0</ele><time>2026-04-26T08:06:56.674Z</time></trkpt><trkpt lat="33.5214508" lon="9.9963973"><ele>529.0</ele><time>2026-04-26T08:06:57.664Z</time></trkpt><trkpt lat="33.5213306" lon="9.9964457"><ele>529.0</ele><time>2026-04-26T08:06:58.663Z</time></trkpt><trkpt lat="33.5212186" lon="9.9964876"><ele>529.0</ele><time>2026-04-26T08:06:59.688Z</time></trkpt><trkpt lat="33.5211128" lon="9.9965346"><ele>529.0</ele><time>2026-04-26T08:07:00.676Z</time></trkpt><trkpt lat="33.5210326" lon="9.9965979"><ele>524.75</ele><time>2026-04-26T08:07:01.686Z</time></trkpt><trkpt lat="33.5209754" lon="9.9966905"><ele>520.5</ele><time>2026-04-26T08:07:02.692Z</time></trkpt><trkpt lat="33.5209356" lon="9.9968178"><ele>516.25</ele><time>2026-04-26T08:07:03.669Z</time></trkpt><trkpt lat="33.5209319" lon="9.9969739"><ele>512.0</ele><time>2026-04-26T08:07:04.674Z</time></trkpt><trkpt lat="33.5209408" lon="9.9971318"><ele>512.0</ele><time>2026-04-26T08:07:05.676Z</time></trkpt><trkpt lat="33.5209444" lon="9.997287"><ele>512.0</ele><time>2026-04-26T08:07:06.683Z</time></trkpt><trkpt lat="33.5209188" lon="9.997451"><ele>512.0</ele><time>2026-04-26T08:07:07.674Z</time></trkpt><trkpt lat="33.5208492" lon="9.9976042"><ele>512.0</ele><time>2026-04-26T08:07:08.681Z</time></trkpt><trkpt lat="33.5207719" lon="9.9977535"><ele>512.25</ele><time>2026-04-26T08:07:09.678Z</time></trkpt><trkpt lat="33.5206956" lon="9.9979012"><ele>512.5</ele><time>2026-04-26T08:07:10.689Z</time></trkpt><trkpt lat="33.520614" lon="9.9980526"><ele>512.75</ele><time>2026-04-26T08:07:11.674Z</time></trkpt><trkpt lat="33.5205311" lon="9.9981914"><ele>513.0</ele><time>2026-04-26T08:07:12.686Z</time></trkpt><trkpt lat="33.5204319" lon="9.9983033"><ele>510.25</ele><time>2026-04-26T08:07:13.68Z</time></trkpt><trkpt lat="33.5203219" lon="9.9984005"><ele>507.5</ele><time>2026-04-26T08:07:14.686Z</time></trkpt><trkpt lat="33.5202042" lon="9.9984752"><ele>504.75</ele><time>2026-04-26T08:07:15.682Z</time></trkpt><trkpt lat="33.5200834" lon="9.9985437"><ele>502.0</ele><time>2026-04-26T08:07:16.674Z</time></trkpt><trkpt lat="33.5199707" lon="9.9986227"><ele>502.0</ele><time>2026-04-26T08:07:17.678Z</time></trkpt><trkpt lat="33.519856" lon="9.998707"><ele>502.0</ele><time>2026-04-26T08:07:18.684Z</time></trkpt><trkpt lat="33.5197543" lon="9.998785"><ele>502.0</ele><time>2026-04-26T08:07:19.675Z</time></trkpt><trkpt lat="33.5196606" lon="9.9988603"><ele>502.0</ele><time>2026-04-26T08:07:20.688Z</time></trkpt><trkpt lat="33.5195902" lon="9.9989455"><ele>499.25</ele><time>2026-04-26T08:07:21.678Z</time></trkpt><trkpt lat="33.5195418" lon="9.9990472"><ele>496.5</ele><time>2026-04-26T08:07:22.677Z</time></trkpt><trkpt lat="33.5195238" lon="9.9991647"><ele>493.75</ele><time>2026-04-26T08:07:23.678Z</time></trkpt><trkpt lat="33.5195419" lon="9.9993139"><ele>491.0</ele><time>2026-04-26T08:07:24.675Z</time></trkpt><trkpt lat="33.5195865" lon="9.999461"><ele>491.0</ele><time>2026-04-26T08:07:25.671Z</time></trkpt><trkpt lat="33.5196296" lon="9.9996021"><ele>491.0</ele><time>2026-04-26T08:07:26.68Z</time></trkpt><trkpt lat="33.5196656" lon="9.9997305"><ele>491.0</ele><time>2026-04-26T08:07:27.677Z</time></trkpt><trkpt lat="33.5196907" lon="9.9998646"><ele>491.0</ele><time>2026-04-26T08:07:28.676Z</time></trkpt><trkpt lat="33.5196988" lon="9.9999978"><ele>491.0</ele><time>2026-04-26T08:07:29.685Z</time></trkpt><trkpt lat="33.5196865" lon="10.0001284"><ele>491.0</ele><time>2026-04-26T08:07:30.687Z</time></trkpt><trkpt lat="33.5196384" lon="10.0002652"><ele>491.0</ele><time>2026-04-26T08:07:31.682Z</time></trkpt><trkpt lat="33.519563" lon="10.000411"><ele>491.0</ele><time>2026-04-26T08:07:32.698Z</time></trkpt><trkpt lat="33.5194348" lon="10.0005517"><ele>489.66666666666663</ele><time>2026-04-26T08:07:33.682Z</time></trkpt><trkpt lat="33.519329" lon="10.0006858"><ele>488.33333333333337</ele><time>2026-04-26T08:07:34.669Z</time></trkpt><trkpt lat="33.5192315" lon="10.0008304"><ele>487.0</ele><time>2026-04-26T08:07:35.685Z</time></trkpt><trkpt lat="33.5191447" lon="10.0009744"><ele>485.75</ele><time>2026-04-26T08:07:36.674Z</time></trkpt><trkpt lat="33.5190714" lon="10.0011139"><ele>484.5</ele><time>2026-04-26T08:07:37.692Z</time></trkpt><trkpt lat="33.5190066" lon="10.0012571"><ele>483.25</ele><time>2026-04-26T08:07:38.681Z</time></trkpt><trkpt lat="33.5189359" lon="10.0013997"><ele>482.0</ele><time>2026-04-26T08:07:39.676Z</time></trkpt><trkpt lat="33.5188621" lon="10.0015508"><ele>481.25</ele><time>2026-04-26T08:07:40.691Z</time></trkpt><trkpt lat="33.5187868" lon="10.0017031"><ele>480.5</ele><time>2026-04-26T08:07:41.689Z</time></trkpt><trkpt lat="33.5187145" lon="10.0018552"><ele>479.75</ele><time>2026-04-26T08:07:42.689Z</time></trkpt><trkpt lat="33.5186455" lon="10.0020177"><ele>479.0</ele><time>2026-04-26T08:07:43.672Z</time></trkpt><trkpt lat="33.5185739" lon="10.0021774"><ele>478.5</ele><time>2026-04-26T08:07:44.682Z</time></trkpt><trkpt lat="33.5184989" lon="10.002329"><ele>478.0</ele><time>2026-04-26T08:07:45.678Z</time></trkpt><trkpt lat="33.5184223" lon="10.0024805"><ele>477.5</ele><time>2026-04-26T08:07:46.67Z</time></trkpt><trkpt lat="33.5183402" lon="10.0026286"><ele>477.0</ele><time>2026-04-26T08:07:47.681Z</time></trkpt><trkpt lat="33.5182498" lon="10.0027762"><ele>477.0</ele><time>2026-04-26T08:07:48.671Z</time></trkpt><trkpt lat="33.5181422" lon="10.0029213"><ele>477.0</ele><time>2026-04-26T08:07:49.688Z</time></trkpt><trkpt lat="33.5180194" lon="10.0030559"><ele>477.0</ele><time>2026-04-26T08:07:50.675Z</time></trkpt><trkpt lat="33.5178795" lon="10.0031733"><ele>476.33333333333337</ele><time>2026-04-26T08:07:51.684Z</time></trkpt><trkpt lat="33.5177381" lon="10.0032848"><ele>475.6666666666667</ele><time>2026-04-26T08:07:52.678Z</time></trkpt><trkpt lat="33.517598" lon="10.0033942"><ele>475.0</ele><time>2026-04-26T08:07:53.673Z</time></trkpt><trkpt lat="33.5174561" lon="10.0034983"><ele>475.0</ele><time>2026-04-26T08:07:54.679Z</time></trkpt><trkpt lat="33.5173187" lon="10.003598"><ele>475.0</ele><time>2026-04-26T08:07:55.673Z</time></trkpt><trkpt lat="33.5171789" lon="10.0036969"><ele>475.0</ele><time>2026-04-26T08:07:56.684Z</time></trkpt><trkpt lat="33.51704" lon="10.0037951"><ele>474.33333333333337</ele><time>2026-04-26T08:07:57.686Z</time></trkpt><trkpt lat="33.5169063" lon="10.0038972"><ele>473.66666666666663</ele><time>2026-04-26T08:07:58.682Z</time></trkpt><trkpt lat="33.5167798" lon="10.0039946"><ele>473.0</ele><time>2026-04-26T08:07:59.674Z</time></trkpt><trkpt lat="33.516666" lon="10.0041003"><ele>473.75</ele><time>2026-04-26T08:08:00.673Z</time></trkpt><trkpt lat="33.5165624" lon="10.0042229"><ele>474.5</ele><time>2026-04-26T08:08:01.682Z</time></trkpt><trkpt lat="33.5164744" lon="10.0043556"><ele>475.25</ele><time>2026-04-26T08:08:02.668Z</time></trkpt><trkpt lat="33.516386" lon="10.004501"><ele>476.0</ele><time>2026-04-26T08:08:03.675Z</time></trkpt><trkpt lat="33.5163045" lon="10.0046576"><ele>476.0</ele><time>2026-04-26T08:08:04.673Z</time></trkpt><trkpt lat="33.5162428" lon="10.004811"><ele>476.0</ele><time>2026-04-26T08:08:05.675Z</time></trkpt><trkpt lat="33.5161889" lon="10.0049612"><ele>476.0</ele><time>2026-04-26T08:08:06.668Z</time></trkpt><trkpt lat="33.5161465" lon="10.0051027"><ele>476.0</ele><time>2026-04-26T08:08:07.675Z</time></trkpt><trkpt lat="33.5161186" lon="10.0052571"><ele>477.25</ele><time>2026-04-26T08:08:08.679Z</time></trkpt><trkpt lat="33.5161199" lon="10.0054107"><ele>478.5</ele><time>2026-04-26T08:08:09.681Z</time></trkpt><trkpt lat="33.5161438" lon="10.0055618"><ele>479.75</ele><time>2026-04-26T08:08:10.687Z</time></trkpt><trkpt lat="33.5161895" lon="10.0057158"><ele>481.0</ele><time>2026-04-26T08:08:11.683Z</time></trkpt><trkpt lat="33.5162366" lon="10.0058705"><ele>481.0</ele><time>2026-04-26T08:08:12.673Z</time></trkpt><trkpt lat="33.5162864" lon="10.0060216"><ele>481.0</ele><time>2026-04-26T08:08:13.678Z</time></trkpt><trkpt lat="33.5163338" lon="10.0061755"><ele>481.0</ele><time>2026-04-26T08:08:14.676Z</time></trkpt><trkpt lat="33.5163772" lon="10.0063458"><ele>481.0</ele><time>2026-04-26T08:08:15.673Z</time></trkpt><trkpt lat="33.5164168" lon="10.006515"><ele>482.0</ele><time>2026-04-26T08:08:16.692Z</time></trkpt><trkpt lat="33.5164522" lon="10.0066886"><ele>483.0</ele><time>2026-04-26T08:08:17.688Z</time></trkpt><trkpt lat="33.5164793" lon="10.0068629"><ele>484.0</ele><time>2026-04-26T08:08:18.683Z</time></trkpt><trkpt lat="33.5164935" lon="10.0070462"><ele>484.0</ele><time>2026-04-26T08:08:19.684Z</time></trkpt><trkpt lat="33.5164927" lon="10.0072316"><ele>484.0</ele><time>2026-04-26T08:08:20.683Z</time></trkpt><trkpt lat="33.516483" lon="10.0074168"><ele>484.0</ele><time>2026-04-26T08:08:21.682Z</time></trkpt><trkpt lat="33.5164646" lon="10.0075934"><ele>485.0</ele><time>2026-04-26T08:08:22.675Z</time></trkpt><trkpt lat="33.5164388" lon="10.0077657"><ele>486.0</ele><time>2026-04-26T08:08:23.683Z</time></trkpt><trkpt lat="33.5164162" lon="10.0079419"><ele>487.0</ele><time>2026-04-26T08:08:24.699Z</time></trkpt><trkpt lat="33.5164132" lon="10.0081129"><ele>488.0</ele><time>2026-04-26T08:08:25.69Z</time></trkpt><trkpt lat="33.5164211" lon="10.0082884"><ele>488.5</ele><time>2026-04-26T08:08:26.681Z</time></trkpt><trkpt lat="33.516442" lon="10.0084618"><ele>489.0</ele><time>2026-04-26T08:08:27.673Z</time></trkpt><trkpt lat="33.5164751" lon="10.0086294"><ele>489.5</ele><time>2026-04-26T08:08:28.685Z</time></trkpt><trkpt lat="33.5165125" lon="10.0087902"><ele>490.0</ele><time>2026-04-26T08:08:29.678Z</time></trkpt><trkpt lat="33.516544" lon="10.0089525"><ele>490.0</ele><time>2026-04-26T08:08:30.672Z</time></trkpt><trkpt lat="33.5165807" lon="10.0091095"><ele>490.0</ele><time>2026-04-26T08:08:31.679Z</time></trkpt><trkpt lat="33.5166062" lon="10.0092638"><ele>490.0</ele><time>2026-04-26T08:08:32.677Z</time></trkpt><trkpt lat="33.5166243" lon="10.0094215"><ele>490.0</ele><time>2026-04-26T08:08:33.686Z</time></trkpt><trkpt lat="33.5166115" lon="10.0095839"><ele>489.25</ele><time>2026-04-26T08:08:34.665Z</time></trkpt><trkpt lat="33.5165748" lon="10.0097457"><ele>488.5</ele><time>2026-04-26T08:08:35.668Z</time></trkpt><trkpt lat="33.5165272" lon="10.0099116"><ele>487.75</ele><time>2026-04-26T08:08:36.68Z</time></trkpt><trkpt lat="33.5164513" lon="10.0100654"><ele>487.0</ele><time>2026-04-26T08:08:37.665Z</time></trkpt><trkpt lat="33.5163701" lon="10.0102164"><ele>485.6666666666667</ele><time>2026-04-26T08:08:38.673Z</time></trkpt><trkpt lat="33.5162778" lon="10.0103709"><ele>484.33333333333337</ele><time>2026-04-26T08:08:39.677Z</time></trkpt><trkpt lat="33.5161816" lon="10.0105383"><ele>483.0</ele><time>2026-04-26T08:08:40.671Z</time></trkpt><trkpt lat="33.5160716" lon="10.0107379"><ele>480.33333333333337</ele><time>2026-04-26T08:08:41.675Z</time></trkpt><trkpt lat="33.5159467" lon="10.0109569"><ele>477.6666666666667</ele><time>2026-04-26T08:08:42.685Z</time></trkpt><trkpt lat="33.5158069" lon="10.0111697"><ele>475.0</ele><time>2026-04-26T08:08:43.684Z</time></trkpt><trkpt lat="33.5156855" lon="10.0113653"><ele>475.0</ele><time>2026-04-26T08:08:44.689Z</time></trkpt><trkpt lat="33.5155859" lon="10.0115335"><ele>475.0</ele><time>2026-04-26T08:08:45.695Z</time></trkpt><trkpt lat="33.515483" lon="10.011689"><ele>475.0</ele><time>2026-04-26T08:08:46.688Z</time></trkpt><trkpt lat="33.5153982" lon="10.0118242"><ele>476.75</ele><time>2026-04-26T08:08:47.673Z</time></trkpt><trkpt lat="33.5153072" lon="10.0119528"><ele>478.5</ele><time>2026-04-26T08:08:48.677Z</time></trkpt><trkpt lat="33.5151903" lon="10.0120512"><ele>480.25</ele><time>2026-04-26T08:08:49.681Z</time></trkpt><trkpt lat="33.5150479" lon="10.0121193"><ele>482.0</ele><time>2026-04-26T08:08:50.679Z</time></trkpt><trkpt lat="33.514892" lon="10.012154"><ele>482.0</ele><time>2026-04-26T08:08:51.679Z</time></trkpt><trkpt lat="33.5147445" lon="10.0121641"><ele>482.0</ele><time>2026-04-26T08:08:52.687Z</time></trkpt><trkpt lat="33.5146103" lon="10.0121708"><ele>482.0</ele><time>2026-04-26T08:08:53.679Z</time></trkpt><trkpt lat="33.5144871" lon="10.0121721"><ele>482.0</ele><time>2026-04-26T08:08:54.679Z</time></trkpt><trkpt lat="33.5143739" lon="10.0121814"><ele>482.0</ele><time>2026-04-26T08:08:55.668Z</time></trkpt><trkpt lat="33.5142752" lon="10.0122097"><ele>482.00000000000006</ele><time>2026-04-26T08:08:56.679Z</time></trkpt><trkpt lat="33.5141866" lon="10.012265"><ele>482.00000000000006</ele><time>2026-04-26T08:08:57.686Z</time></trkpt><trkpt lat="33.5141148" lon="10.012337"><ele>482.0</ele><time>2026-04-26T08:08:58.676Z</time></trkpt><trkpt lat="33.5140557" lon="10.0124231"><ele>482.0</ele><time>2026-04-26T08:08:59.683Z</time></trkpt><trkpt lat="33.5140189" lon="10.012519"><ele>484.40000000000003</ele><time>2026-04-26T08:09:00.686Z</time></trkpt><trkpt lat="33.5140024" lon="10.0126306"><ele>486.80000000000007</ele><time>2026-04-26T08:09:01.685Z</time></trkpt><trkpt lat="33.5140266" lon="10.0127526"><ele>489.2</ele><time>2026-04-26T08:09:02.685Z</time></trkpt><trkpt lat="33.514061" lon="10.012877"><ele>491.6</ele><time>2026-04-26T08:09:03.688Z</time></trkpt><trkpt lat="33.5141127" lon="10.0130007"><ele>494.0</ele><time>2026-04-26T08:09:04.672Z</time></trkpt><trkpt lat="33.5141956" lon="10.0131364"><ele>494.0</ele><time>2026-04-26T08:09:05.687Z</time></trkpt><trkpt lat="33.5142808" lon="10.0132826"><ele>494.0</ele><time>2026-04-26T08:09:06.693Z</time></trkpt><trkpt lat="33.5143785" lon="10.0134279"><ele>494.0</ele><time>2026-04-26T08:09:07.686Z</time></trkpt><trkpt lat="33.5144743" lon="10.0135699"><ele>494.5</ele><time>2026-04-26T08:09:08.687Z</time></trkpt><trkpt lat="33.5145532" lon="10.0137159"><ele>495.0</ele><time>2026-04-26T08:09:09.682Z</time></trkpt><trkpt lat="33.5146115" lon="10.0138492"><ele>495.5</ele><time>2026-04-26T08:09:10.688Z</time></trkpt><trkpt lat="33.5146366" lon="10.0139797"><ele>496.0</ele><time>2026-04-26T08:09:11.686Z</time></trkpt><trkpt lat="33.5146392" lon="10.0141206"><ele>496.25</ele><time>2026-04-26T08:09:12.682Z</time></trkpt><trkpt lat="33.5145982" lon="10.014239"><ele>496.5</ele><time>2026-04-26T08:09:13.681Z</time></trkpt><trkpt lat="33.5145321" lon="10.014355"><ele>496.75</ele><time>2026-04-26T08:09:14.684Z</time></trkpt><trkpt lat="33.5144594" lon="10.0144697"><ele>497.0</ele><time>2026-04-26T08:09:15.682Z</time></trkpt><trkpt lat="33.5143783" lon="10.0145859"><ele>496.0</ele><time>2026-04-26T08:09:16.671Z</time></trkpt><trkpt lat="33.5142925" lon="10.0147031"><ele>495.0</ele><time>2026-04-26T08:09:17.68Z</time></trkpt><trkpt lat="33.5142076" lon="10.0148161"><ele>494.0</ele><time>2026-04-26T08:09:18.671Z</time></trkpt><trkpt lat="33.5141288" lon="10.0149332"><ele>493.0</ele><time>2026-04-26T08:09:19.675Z</time></trkpt><trkpt lat="33.5140507" lon="10.0150477"><ele>493.0</ele><time>2026-04-26T08:09:20.67Z</time></trkpt><trkpt lat="33.5139732" lon="10.0151593"><ele>493.0</ele><time>2026-04-26T08:09:21.669Z</time></trkpt><trkpt lat="33.5138993" lon="10.0152647"><ele>493.0</ele><time>2026-04-26T08:09:22.695Z</time></trkpt><trkpt lat="33.5138167" lon="10.015358"><ele>493.0</ele><time>2026-04-26T08:09:23.683Z</time></trkpt><trkpt lat="33.5137262" lon="10.0154277"><ele>490.75</ele><time>2026-04-26T08:09:24.669Z</time></trkpt><trkpt lat="33.5136322" lon="10.0154532"><ele>488.5</ele><time>2026-04-26T08:09:25.69Z</time></trkpt><trkpt lat="33.5135168" lon="10.0154452"><ele>486.25</ele><time>2026-04-26T08:09:26.687Z</time></trkpt><trkpt lat="33.5134142" lon="10.0153965"><ele>484.0</ele><time>2026-04-26T08:09:27.674Z</time></trkpt><trkpt lat="33.5132971" lon="10.015317"><ele>484.0</ele><time>2026-04-26T08:09:28.678Z</time></trkpt><trkpt lat="33.5131866" lon="10.0152111"><ele>484.0</ele><time>2026-04-26T08:09:29.676Z</time></trkpt><trkpt lat="33.5131021" lon="10.0150869"><ele>484.0</ele><time>2026-04-26T08:09:30.693Z</time></trkpt><trkpt lat="33.5130234" lon="10.0149655"><ele>484.0</ele><time>2026-04-26T08:09:31.676Z</time></trkpt><trkpt lat="33.5129303" lon="10.0148735"><ele>481.75</ele><time>2026-04-26T08:09:32.679Z</time></trkpt><trkpt lat="33.5128171" lon="10.0148168"><ele>479.5</ele><time>2026-04-26T08:09:33.681Z</time></trkpt><trkpt lat="33.5127036" lon="10.0148144"><ele>477.25</ele><time>2026-04-26T08:09:34.671Z</time></trkpt><trkpt lat="33.5125759" lon="10.0148505"><ele>475.0</ele><time>2026-04-26T08:09:35.677Z</time></trkpt><trkpt lat="33.5124523" lon="10.0149249"><ele>476.5</ele><time>2026-04-26T08:09:36.681Z</time></trkpt><trkpt lat="33.5123192" lon="10.0150035"><ele>478.0</ele><time>2026-04-26T08:09:37.684Z</time></trkpt><trkpt lat="33.5121967" lon="10.0150946"><ele>479.5</ele><time>2026-04-26T08:09:38.676Z</time></trkpt><trkpt lat="33.5120752" lon="10.0151864"><ele>481.0</ele><time>2026-04-26T08:09:39.682Z</time></trkpt><trkpt lat="33.5119729" lon="10.0152939"><ele>481.0</ele><time>2026-04-26T08:09:40.677Z</time></trkpt><trkpt lat="33.5119002" lon="10.0154324"><ele>481.0</ele><time>2026-04-26T08:09:41.682Z</time></trkpt><trkpt lat="33.5118345" lon="10.0155814"><ele>481.0</ele><time>2026-04-26T08:09:42.679Z</time></trkpt><trkpt lat="33.5117904" lon="10.0157186"><ele>481.0</ele><time>2026-04-26T08:09:43.668Z</time></trkpt><trkpt lat="33.5117122" lon="10.0158475"><ele>481.5</ele><time>2026-04-26T08:09:44.683Z</time></trkpt><trkpt lat="33.5116021" lon="10.0159305"><ele>482.0</ele><time>2026-04-26T08:09:45.682Z</time></trkpt><trkpt lat="33.5114629" lon="10.0159789"><ele>482.5</ele><time>2026-04-26T08:09:46.681Z</time></trkpt><trkpt lat="33.5113081" lon="10.0159871"><ele>483.0</ele><time>2026-04-26T08:09:47.669Z</time></trkpt><trkpt lat="33.5111685" lon="10.0159816"><ele>483.0</ele><time>2026-04-26T08:09:48.676Z</time></trkpt><trkpt lat="33.5110201" lon="10.0159702"><ele>483.0</ele><time>2026-04-26T08:09:49.684Z</time></trkpt><trkpt lat="33.5108717" lon="10.0159587"><ele>483.0</ele><time>2026-04-26T08:09:50.666Z</time></trkpt><trkpt lat="33.5107215" lon="10.0159495"><ele>483.0</ele><time>2026-04-26T08:09:51.68Z</time></trkpt><trkpt lat="33.5105834" lon="10.0159233"><ele>483.0</ele><time>2026-04-26T08:09:52.682Z</time></trkpt><trkpt lat="33.5104616" lon="10.0158682"><ele>483.0</ele><time>2026-04-26T08:09:53.673Z</time></trkpt><trkpt lat="33.5103285" lon="10.0157772"><ele>483.0</ele><time>2026-04-26T08:09:54.672Z</time></trkpt><trkpt lat="33.5101992" lon="10.01568"><ele>483.0</ele><time>2026-04-26T08:09:55.674Z</time></trkpt><trkpt lat="33.5100632" lon="10.0155923"><ele>483.66666666666663</ele><time>2026-04-26T08:09:56.674Z</time></trkpt><trkpt lat="33.5099102" lon="10.0155251"><ele>484.3333333333333</ele><time>2026-04-26T08:09:57.676Z</time></trkpt><trkpt lat="33.5097529" lon="10.0154706"><ele>485.0</ele><time>2026-04-26T08:09:58.673Z</time></trkpt><trkpt lat="33.5096046" lon="10.015413"><ele>482.3333333333333</ele><time>2026-04-26T08:09:59.671Z</time></trkpt><trkpt lat="33.5094569" lon="10.0153365"><ele>479.66666666666663</ele><time>2026-04-26T08:10:00.683Z</time></trkpt><trkpt lat="33.5093227" lon="10.0152463"><ele>477.0</ele><time>2026-04-26T08:10:01.684Z</time></trkpt><trkpt lat="33.5091906" lon="10.0151501"><ele>477.0</ele><time>2026-04-26T08:10:02.681Z</time></trkpt><trkpt lat="33.5090541" lon="10.0150686"><ele>477.0</ele><time>2026-04-26T08:10:03.679Z</time></trkpt><trkpt lat="33.5089183" lon="10.014979"><ele>477.0</ele><time>2026-04-26T08:10:04.68Z</time></trkpt><trkpt lat="33.508811" lon="10.0148601"><ele>477.0</ele><time>2026-04-26T08:10:05.684Z</time></trkpt><trkpt lat="33.5086962" lon="10.0147058"><ele>477.0</ele><time>2026-04-26T08:10:06.68Z</time></trkpt><trkpt lat="33.5085983" lon="10.0145273"><ele>477.0</ele><time>2026-04-26T08:10:07.683Z</time></trkpt><trkpt lat="33.5085281" lon="10.0143472"><ele>477.0</ele><time>2026-04-26T08:10:08.671Z</time></trkpt><trkpt lat="33.5084606" lon="10.0141704"><ele>477.0</ele><time>2026-04-26T08:10:09.683Z</time></trkpt><trkpt lat="33.5083841" lon="10.0139964"><ele>477.0</ele><time>2026-04-26T08:10:10.678Z</time></trkpt><trkpt lat="33.5083211" lon="10.0138186"><ele>477.66666666666663</ele><time>2026-04-26T08:10:11.685Z</time></trkpt><trkpt lat="33.5082883" lon="10.013628"><ele>478.3333333333333</ele><time>2026-04-26T08:10:12.686Z</time></trkpt><trkpt lat="33.5082634" lon="10.0134369"><ele>479.0</ele><time>2026-04-26T08:10:13.684Z</time></trkpt><trkpt lat="33.5082458" lon="10.0132605"><ele>479.0</ele><time>2026-04-26T08:10:14.68Z</time></trkpt><trkpt lat="33.5082061" lon="10.0131001"><ele>479.0</ele><time>2026-04-26T08:10:15.689Z</time></trkpt><trkpt lat="33.508129" lon="10.0129582"><ele>479.0</ele><time>2026-04-26T08:10:16.687Z</time></trkpt><trkpt lat="33.5080334" lon="10.0128572"><ele>479.0</ele><time>2026-04-26T08:10:17.692Z</time></trkpt><trkpt lat="33.5079234" lon="10.01278"><ele>477.25</ele><time>2026-04-26T08:10:18.675Z</time></trkpt><trkpt lat="33.5077976" lon="10.0127214"><ele>475.5</ele><time>2026-04-26T08:10:19.686Z</time></trkpt><trkpt lat="33.5076824" lon="10.0126412"><ele>473.75</ele><time>2026-04-26T08:10:20.67Z</time></trkpt><trkpt lat="33.5075825" lon="10.0125271"><ele>472.0</ele><time>2026-04-26T08:10:21.676Z</time></trkpt><trkpt lat="33.5075145" lon="10.0123676"><ele>471.5</ele><time>2026-04-26T08:10:22.676Z</time></trkpt><trkpt lat="33.5074581" lon="10.0122134"><ele>471.0</ele><time>2026-04-26T08:10:23.686Z</time></trkpt><trkpt lat="33.5074108" lon="10.0120541"><ele>470.5</ele><time>2026-04-26T08:10:24.682Z</time></trkpt><trkpt lat="33.5073623" lon="10.0118918"><ele>470.0</ele><time>2026-04-26T08:10:25.673Z</time></trkpt><trkpt lat="33.5073163" lon="10.0117264"><ele>467.66666666666663</ele><time>2026-04-26T08:10:26.687Z</time></trkpt><trkpt lat="33.5072587" lon="10.0115562"><ele>465.33333333333337</ele><time>2026-04-26T08:10:27.675Z</time></trkpt><trkpt lat="33.5072027" lon="10.0113817"><ele>463.0</ele><time>2026-04-26T08:10:28.682Z</time></trkpt><trkpt lat="33.5071359" lon="10.0112062"><ele>463.33333333333337</ele><time>2026-04-26T08:10:29.682Z</time></trkpt><trkpt lat="33.5070686" lon="10.0110382"><ele>463.66666666666663</ele><time>2026-04-26T08:10:30.683Z</time></trkpt><trkpt lat="33.5069984" lon="10.010876"><ele>464.0</ele><time>2026-04-26T08:10:31.685Z</time></trkpt><trkpt lat="33.5069213" lon="10.0107172"><ele>462.75</ele><time>2026-04-26T08:10:32.684Z</time></trkpt><trkpt lat="33.5068437" lon="10.0105612"><ele>461.5</ele><time>2026-04-26T08:10:33.676Z</time></trkpt><trkpt lat="33.5067759" lon="10.0104044"><ele>460.25</ele><time>2026-04-26T08:10:34.67Z</time></trkpt><trkpt lat="33.5066973" lon="10.0102553"><ele>459.0</ele><time>2026-04-26T08:10:35.683Z</time></trkpt><trkpt lat="33.5066048" lon="10.0101055"><ele>457.0</ele><time>2026-04-26T08:10:36.681Z</time></trkpt><trkpt lat="33.5064961" lon="10.0099746"><ele>455.0</ele><time>2026-04-26T08:10:37.672Z</time></trkpt><trkpt lat="33.5063676" lon="10.0098586"><ele>453.0</ele><time>2026-04-26T08:10:38.674Z</time></trkpt><trkpt lat="33.506226" lon="10.009756"><ele>453.0</ele><time>2026-04-26T08:10:39.682Z</time></trkpt><trkpt lat="33.5060831" lon="10.0096586"><ele>453.0</ele><time>2026-04-26T08:10:40.68Z</time></trkpt><trkpt lat="33.505948" lon="10.0095715"><ele>453.0</ele><time>2026-04-26T08:10:41.673Z</time></trkpt><trkpt lat="33.5058153" lon="10.0094803"><ele>453.0</ele><time>2026-04-26T08:10:42.68Z</time></trkpt><trkpt lat="33.5056827" lon="10.0093869"><ele>453.0</ele><time>2026-04-26T08:10:43.679Z</time></trkpt><trkpt lat="33.5055623" lon="10.0093039"><ele>453.0</ele><time>2026-04-26T08:10:44.678Z</time></trkpt><trkpt lat="33.5054443" lon="10.0092276"><ele>453.0</ele><time>2026-04-26T08:10:45.672Z</time></trkpt><trkpt lat="33.5053322" lon="10.0091477"><ele>452.4</ele><time>2026-04-26T08:10:46.682Z</time></trkpt><trkpt lat="33.5052222" lon="10.0090807"><ele>451.79999999999995</ele><time>2026-04-26T08:10:47.678Z</time></trkpt><trkpt lat="33.5051176" lon="10.0090222"><ele>451.2</ele><time>2026-04-26T08:10:48.678Z</time></trkpt><trkpt lat="33.5050187" lon="10.0089586"><ele>450.6</ele><time>2026-04-26T08:10:49.671Z</time></trkpt><trkpt lat="33.5049344" lon="10.0088979"><ele>450.0</ele><time>2026-04-26T08:10:50.684Z</time></trkpt><trkpt lat="33.5048466" lon="10.0088616"><ele>450.0</ele><time>2026-04-26T08:10:51.676Z</time></trkpt><trkpt lat="33.504767" lon="10.0088607"><ele>450.0</ele><time>2026-04-26T08:10:52.687Z</time></trkpt><trkpt lat="33.5046988" lon="10.0088926"><ele>450.0</ele><time>2026-04-26T08:10:53.685Z</time></trkpt><trkpt lat="33.5046366" lon="10.0089618"><ele>450.0</ele><time>2026-04-26T08:10:54.677Z</time></trkpt><trkpt lat="33.5045942" lon="10.0090573"><ele>450.0</ele><time>2026-04-26T08:10:55.671Z</time></trkpt><trkpt lat="33.5045439" lon="10.0091711"><ele>450.0</ele><time>2026-04-26T08:10:56.675Z</time></trkpt><trkpt lat="33.5044784" lon="10.0092928"><ele>451.25</ele><time>2026-04-26T08:10:57.673Z</time></trkpt><trkpt lat="33.5044098" lon="10.0094146"><ele>452.5</ele><time>2026-04-26T08:10:58.693Z</time></trkpt><trkpt lat="33.5043287" lon="10.0095259"><ele>453.75</ele><time>2026-04-26T08:10:59.672Z</time></trkpt><trkpt lat="33.5042471" lon="10.0096367"><ele>455.0</ele><time>2026-04-26T08:11:00.71Z</time></trkpt><trkpt lat="33.5041614" lon="10.0097502"><ele>455.0</ele><time>2026-04-26T08:11:01.69Z</time></trkpt><trkpt lat="33.5040758" lon="10.0098669"><ele>455.0</ele><time>2026-04-26T08:11:02.67Z</time></trkpt><trkpt lat="33.5039899" lon="10.009982"><ele>455.0</ele><time>2026-04-26T08:11:03.674Z</time></trkpt><trkpt lat="33.503898" lon="10.0100927"><ele>455.0</ele><time>2026-04-26T08:11:04.673Z</time></trkpt><trkpt lat="33.5037984" lon="10.0101996"><ele>454.0</ele><time>2026-04-26T08:11:05.674Z</time></trkpt><trkpt lat="33.5036995" lon="10.0103017"><ele>453.0</ele><time>2026-04-26T08:11:06.67Z</time></trkpt><trkpt lat="33.5035944" lon="10.0104018"><ele>452.0</ele><time>2026-04-26T08:11:07.665Z</time></trkpt><trkpt lat="33.503484" lon="10.0104961"><ele>451.0</ele><time>2026-04-26T08:11:08.675Z</time></trkpt><trkpt lat="33.5033685" lon="10.0105807"><ele>451.0</ele><time>2026-04-26T08:11:09.677Z</time></trkpt><trkpt lat="33.5032458" lon="10.0106567"><ele>451.0</ele><time>2026-04-26T08:11:10.679Z</time></trkpt><trkpt lat="33.5031239" lon="10.0107185"><ele>451.0</ele><time>2026-04-26T08:11:11.67Z</time></trkpt><trkpt lat="33.5029902" lon="10.0107852"><ele>451.0</ele><time>2026-04-26T08:11:12.67Z</time></trkpt><trkpt lat="33.5028603" lon="10.0108557"><ele>448.6666666666667</ele><time>2026-04-26T08:11:13.673Z</time></trkpt><trkpt lat="33.5027307" lon="10.0109341"><ele>446.33333333333337</ele><time>2026-04-26T08:11:14.676Z</time></trkpt><trkpt lat="33.5025989" lon="10.0110168"><ele>444.0</ele><time>2026-04-26T08:11:15.68Z</time></trkpt><trkpt lat="33.5024644" lon="10.0111114"><ele>444.0</ele><time>2026-04-26T08:11:16.681Z</time></trkpt><trkpt lat="33.5023318" lon="10.0112052"><ele>444.0</ele><time>2026-04-26T08:11:17.693Z</time></trkpt><trkpt lat="33.5022011" lon="10.0113076"><ele>444.0</ele><time>2026-04-26T08:11:18.672Z</time></trkpt><trkpt lat="33.5020642" lon="10.0114091"><ele>441.0</ele><time>2026-04-26T08:11:19.671Z</time></trkpt><trkpt lat="33.5019314" lon="10.011513"><ele>438.0</ele><time>2026-04-26T08:11:20.688Z</time></trkpt><trkpt lat="33.5017942" lon="10.0116178"><ele>435.0</ele><time>2026-04-26T08:11:21.684Z</time></trkpt><trkpt lat="33.501668" lon="10.0117113"><ele>434.5</ele><time>2026-04-26T08:11:22.686Z</time></trkpt><trkpt lat="33.5015294" lon="10.0118005"><ele>434.0</ele><time>2026-04-26T08:11:23.69Z</time></trkpt><trkpt lat="33.5013987" lon="10.011866"><ele>433.5</ele><time>2026-04-26T08:11:24.676Z</time></trkpt><trkpt lat="33.5012652" lon="10.0119243"><ele>433.0</ele><time>2026-04-26T08:11:25.669Z</time></trkpt><trkpt lat="33.5011342" lon="10.0119856"><ele>433.0</ele><time>2026-04-26T08:11:26.679Z</time></trkpt><trkpt lat="33.5010222" lon="10.0120562"><ele>433.0</ele><time>2026-04-26T08:11:27.67Z</time></trkpt><trkpt lat="33.5009369" lon="10.0121573"><ele>433.0</ele><time>2026-04-26T08:11:28.674Z</time></trkpt><trkpt lat="33.5008667" lon="10.0123164"><ele>433.0</ele><time>2026-04-26T08:11:29.68Z</time></trkpt><trkpt lat="33.5007931" lon="10.0125131"><ele>432.33333333333337</ele><time>2026-04-26T08:11:30.676Z</time></trkpt><trkpt lat="33.5007257" lon="10.0127271"><ele>431.66666666666663</ele><time>2026-04-26T08:11:31.676Z</time></trkpt><trkpt lat="33.5006636" lon="10.0129251"><ele>431.0</ele><time>2026-04-26T08:11:32.666Z</time></trkpt><trkpt lat="33.500621" lon="10.013094"><ele>431.0</ele><time>2026-04-26T08:11:33.676Z</time></trkpt><trkpt lat="33.5005656" lon="10.0132607"><ele>431.0</ele><time>2026-04-26T08:11:34.678Z</time></trkpt><trkpt lat="33.5005176" lon="10.0134227"><ele>431.0</ele><time>2026-04-26T08:11:35.69Z</time></trkpt><trkpt lat="33.50047" lon="10.0135923"><ele>431.0</ele><time>2026-04-26T08:11:36.683Z</time></trkpt><trkpt lat="33.5004243" lon="10.0137679"><ele>432.3333333333333</ele><time>2026-04-26T08:11:37.681Z</time></trkpt><trkpt lat="33.5003798" lon="10.0139477"><ele>433.66666666666663</ele><time>2026-04-26T08:11:38.682Z</time></trkpt><trkpt lat="33.5003373" lon="10.0141241"><ele>435.0</ele><time>2026-04-26T08:11:39.685Z</time></trkpt><trkpt lat="33.5002905" lon="10.0143048"><ele>435.0</ele><time>2026-04-26T08:11:40.678Z</time></trkpt><trkpt lat="33.5002404" lon="10.0144776"><ele>435.0</ele><time>2026-04-26T08:11:41.678Z</time></trkpt><trkpt lat="33.5001906" lon="10.0146449"><ele>435.0</ele><time>2026-04-26T08:11:42.706Z</time></trkpt><trkpt lat="33.5001438" lon="10.0148206"><ele>432.66666666666663</ele><time>2026-04-26T08:11:43.679Z</time></trkpt><trkpt lat="33.500098" lon="10.0150008"><ele>430.3333333333333</ele><time>2026-04-26T08:11:44.684Z</time></trkpt><trkpt lat="33.5000488" lon="10.015179"><ele>428.0</ele><time>2026-04-26T08:11:45.678Z</time></trkpt><trkpt lat="33.499997" lon="10.015357"><ele>428.0</ele><time>2026-04-26T08:11:46.677Z</time></trkpt><trkpt lat="33.4999419" lon="10.0155426"><ele>428.0</ele><time>2026-04-26T08:11:47.664Z</time></trkpt><trkpt lat="33.4998866" lon="10.0157335"><ele>428.0</ele><time>2026-04-26T08:11:48.666Z</time></trkpt><trkpt lat="33.4998352" lon="10.0159292"><ele>426.0</ele><time>2026-04-26T08:11:49.674Z</time></trkpt><trkpt lat="33.4997836" lon="10.0161226"><ele>424.0</ele><time>2026-04-26T08:11:50.67Z</time></trkpt><trkpt lat="33.4997276" lon="10.0163147"><ele>422.0</ele><time>2026-04-26T08:11:51.683Z</time></trkpt><trkpt lat="33.4996683" lon="10.0165045"><ele>421.0</ele><time>2026-04-26T08:11:52.676Z</time></trkpt><trkpt lat="33.4996098" lon="10.0166952"><ele>420.0</ele><time>2026-04-26T08:11:53.679Z</time></trkpt><trkpt lat="33.4995516" lon="10.016892"><ele>419.0</ele><time>2026-04-26T08:11:54.681Z</time></trkpt><trkpt lat="33.4995008" lon="10.0170865"><ele>418.66666666666663</ele><time>2026-04-26T08:11:55.678Z</time></trkpt><trkpt lat="33.4994569" lon="10.0172849"><ele>418.33333333333337</ele><time>2026-04-26T08:11:56.676Z</time></trkpt><trkpt lat="33.4994284" lon="10.0174882"><ele>418.0</ele><time>2026-04-26T08:11:57.672Z</time></trkpt><trkpt lat="33.4994103" lon="10.0176945"><ele>418.0</ele><time>2026-04-26T08:11:58.684Z</time></trkpt><trkpt lat="33.4994088" lon="10.0179045"><ele>418.0</ele><time>2026-04-26T08:11:59.679Z</time></trkpt><trkpt lat="33.4994256" lon="10.018115"><ele>418.0</ele><time>2026-04-26T08:12:00.686Z</time></trkpt><trkpt lat="33.499443" lon="10.0183335"><ele>418.0</ele><time>2026-04-26T08:12:01.686Z</time></trkpt><trkpt lat="33.4994588" lon="10.0185388"><ele>418.0</ele><time>2026-04-26T08:12:02.683Z</time></trkpt><trkpt lat="33.4994665" lon="10.0187395"><ele>418.0</ele><time>2026-04-26T08:12:03.669Z</time></trkpt><trkpt lat="33.4994665" lon="10.018939"><ele>418.0</ele><time>2026-04-26T08:12:04.685Z</time></trkpt><trkpt lat="33.4994579" lon="10.0191358"><ele>418.0</ele><time>2026-04-26T08:12:05.666Z</time></trkpt><trkpt lat="33.4994445" lon="10.0193285"><ele>418.0</ele><time>2026-04-26T08:12:06.67Z</time></trkpt><trkpt lat="33.499432" lon="10.0195106"><ele>417.5</ele><time>2026-04-26T08:12:07.666Z</time></trkpt><trkpt lat="33.4994087" lon="10.0196907"><ele>417.0</ele><time>2026-04-26T08:12:08.671Z</time></trkpt><trkpt lat="33.4993909" lon="10.0198685"><ele>416.5</ele><time>2026-04-26T08:12:09.671Z</time></trkpt><trkpt lat="33.4993706" lon="10.0200426"><ele>416.0</ele><time>2026-04-26T08:12:10.691Z</time></trkpt><trkpt lat="33.4993533" lon="10.0202144"><ele>415.75</ele><time>2026-04-26T08:12:11.687Z</time></trkpt><trkpt lat="33.4993329" lon="10.0203793"><ele>415.5</ele><time>2026-04-26T08:12:12.684Z</time></trkpt><trkpt lat="33.4993143" lon="10.0205424"><ele>415.25</ele><time>2026-04-26T08:12:13.674Z</time></trkpt><trkpt lat="33.4992915" lon="10.0207013"><ele>415.0</ele><time>2026-04-26T08:12:14.681Z</time></trkpt><trkpt lat="33.4992586" lon="10.0208547"><ele>414.75</ele><time>2026-04-26T08:12:15.68Z</time></trkpt><trkpt lat="33.4992236" lon="10.0210115"><ele>414.5</ele><time>2026-04-26T08:12:16.684Z</time></trkpt><trkpt lat="33.4991853" lon="10.0211775"><ele>414.25</ele><time>2026-04-26T08:12:17.679Z</time></trkpt><trkpt lat="33.4991522" lon="10.0213451"><ele>414.0</ele><time>2026-04-26T08:12:18.67Z</time></trkpt><trkpt lat="33.4991206" lon="10.0215154"><ele>414.0</ele><time>2026-04-26T08:12:19.674Z</time></trkpt><trkpt lat="33.499111" lon="10.021697"><ele>414.0</ele><time>2026-04-26T08:12:20.684Z</time></trkpt><trkpt lat="33.4991209" lon="10.0218799"><ele>414.0</ele><time>2026-04-26T08:12:21.665Z</time></trkpt><trkpt lat="33.4991435" lon="10.0220564"><ele>414.0</ele><time>2026-04-26T08:12:22.661Z</time></trkpt><trkpt lat="33.4991781" lon="10.0222433"><ele>414.0</ele><time>2026-04-26T08:12:23.748Z</time></trkpt><trkpt lat="33.4992116" lon="10.0224233"><ele>414.0</ele><time>2026-04-26T08:12:24.696Z</time></trkpt><trkpt lat="33.4992345" lon="10.0226004"><ele>413.0</ele><time>2026-04-26T08:12:25.735Z</time></trkpt><trkpt lat="33.4992218" lon="10.0227843"><ele>412.0</ele><time>2026-04-26T08:12:26.694Z</time></trkpt><trkpt lat="33.4991819" lon="10.0229673"><ele>411.0</ele><time>2026-04-26T08:12:27.724Z</time></trkpt><trkpt lat="33.4991182" lon="10.0231476"><ele>409.66666666666663</ele><time>2026-04-26T08:12:28.696Z</time></trkpt><trkpt lat="33.4990485" lon="10.0233225"><ele>408.3333333333333</ele><time>2026-04-26T08:12:29.662Z</time></trkpt><trkpt lat="33.4989776" lon="10.023496"><ele>407.0</ele><time>2026-04-26T08:12:30.668Z</time></trkpt><trkpt lat="33.4989098" lon="10.0236681"><ele>407.0</ele><time>2026-04-26T08:12:31.662Z</time></trkpt><trkpt lat="33.4988421" lon="10.0238461"><ele>407.0</ele><time>2026-04-26T08:12:32.667Z</time></trkpt><trkpt lat="33.4987785" lon="10.024024"><ele>407.0</ele><time>2026-04-26T08:12:33.72Z</time></trkpt><trkpt lat="33.4987262" lon="10.0242002"><ele>408.0</ele><time>2026-04-26T08:12:34.704Z</time></trkpt><trkpt lat="33.4986876" lon="10.0243942"><ele>409.0</ele><time>2026-04-26T08:12:35.683Z</time></trkpt><trkpt lat="33.4986677" lon="10.0245835"><ele>410.0</ele><time>2026-04-26T08:12:36.679Z</time></trkpt><trkpt lat="33.4986581" lon="10.0247647"><ele>410.0</ele><time>2026-04-26T08:12:37.679Z</time></trkpt><trkpt lat="33.4986411" lon="10.0249372"><ele>410.0</ele><time>2026-04-26T08:12:38.679Z</time></trkpt><trkpt lat="33.498607" lon="10.0250947"><ele>410.0</ele><time>2026-04-26T08:12:39.67Z</time></trkpt><trkpt lat="33.4985564" lon="10.0252435"><ele>410.0</ele><time>2026-04-26T08:12:40.667Z</time></trkpt><trkpt lat="33.4984883" lon="10.0253951"><ele>410.0</ele><time>2026-04-26T08:12:41.673Z</time></trkpt><trkpt lat="33.498418" lon="10.025537"><ele>410.0</ele><time>2026-04-26T08:12:42.683Z</time></trkpt><trkpt lat="33.4983464" lon="10.0256747"><ele>410.0</ele><time>2026-04-26T08:12:43.668Z</time></trkpt><trkpt lat="33.4982791" lon="10.0258126"><ele>410.0</ele><time>2026-04-26T08:12:44.684Z</time></trkpt><trkpt lat="33.4982218" lon="10.0259586"><ele>411.25</ele><time>2026-04-26T08:12:45.674Z</time></trkpt><trkpt lat="33.4981674" lon="10.0261119"><ele>412.5</ele><time>2026-04-26T08:12:46.669Z</time></trkpt><trkpt lat="33.4981181" lon="10.0262597"><ele>413.75</ele><time>2026-04-26T08:12:47.691Z</time></trkpt><trkpt lat="33.4980733" lon="10.026407"><ele>415.0</ele><time>2026-04-26T08:12:48.675Z</time></trkpt><trkpt lat="33.4980323" lon="10.0265533"><ele>416.2</ele><time>2026-04-26T08:12:49.66Z</time></trkpt><trkpt lat="33.4979911" lon="10.0266924"><ele>417.4</ele><time>2026-04-26T08:12:50.676Z</time></trkpt><trkpt lat="33.4979506" lon="10.0268263"><ele>418.6</ele><time>2026-04-26T08:12:51.694Z</time></trkpt><trkpt lat="33.4979108" lon="10.0269385"><ele>419.8</ele><time>2026-04-26T08:12:52.674Z</time></trkpt><trkpt lat="33.4978756" lon="10.0270398"><ele>421.0</ele><time>2026-04-26T08:12:53.691Z</time></trkpt><trkpt lat="33.4978393" lon="10.0271279"><ele>424.0</ele><time>2026-04-26T08:12:54.678Z</time></trkpt><trkpt lat="33.497803" lon="10.0272123"><ele>427.0</ele><time>2026-04-26T08:12:55.665Z</time></trkpt><trkpt lat="33.4977533" lon="10.0273178"><ele>430.0</ele><time>2026-04-26T08:12:56.681Z</time></trkpt><trkpt lat="33.497686" lon="10.0274442"><ele>433.0</ele><time>2026-04-26T08:12:57.672Z</time></trkpt><trkpt lat="33.4976036" lon="10.0275832"><ele>436.0</ele><time>2026-04-26T08:12:58.677Z</time></trkpt><trkpt lat="33.4975139" lon="10.0277312"><ele>436.0</ele><time>2026-04-26T08:12:59.675Z</time></trkpt><trkpt lat="33.4974297" lon="10.0279026"><ele>436.0</ele><time>2026-04-26T08:13:00.669Z</time></trkpt><trkpt lat="33.4973687" lon="10.0280793"><ele>436.0</ele><time>2026-04-26T08:13:01.681Z</time></trkpt><trkpt lat="33.4973258" lon="10.0282525"><ele>432.0</ele><time>2026-04-26T08:13:02.678Z</time></trkpt><trkpt lat="33.4972948" lon="10.0284357"><ele>428.0</ele><time>2026-04-26T08:13:03.682Z</time></trkpt><trkpt lat="33.4972602" lon="10.028616"><ele>424.0</ele><time>2026-04-26T08:13:04.674Z</time></trkpt><trkpt lat="33.4972354" lon="10.0288004"><ele>424.0</ele><time>2026-04-26T08:13:05.697Z</time></trkpt><trkpt lat="33.497214" lon="10.0289846"><ele>424.0</ele><time>2026-04-26T08:13:06.675Z</time></trkpt><trkpt lat="33.4972006" lon="10.0291752"><ele>424.0</ele><time>2026-04-26T08:13:07.676Z</time></trkpt><trkpt lat="33.4972006" lon="10.0293604"><ele>424.0</ele><time>2026-04-26T08:13:08.674Z</time></trkpt><trkpt lat="33.4972116" lon="10.0295382"><ele>424.0</ele><time>2026-04-26T08:13:09.683Z</time></trkpt><trkpt lat="33.4972226" lon="10.0297183"><ele>424.0</ele><time>2026-04-26T08:13:10.676Z</time></trkpt><trkpt lat="33.4972289" lon="10.0298975"><ele>424.0</ele><time>2026-04-26T08:13:11.682Z</time></trkpt><trkpt lat="33.4972322" lon="10.0300784"><ele>424.75</ele><time>2026-04-26T08:13:12.672Z</time></trkpt><trkpt lat="33.4972337" lon="10.0302538"><ele>425.5</ele><time>2026-04-26T08:13:13.679Z</time></trkpt><trkpt lat="33.4972212" lon="10.0304118"><ele>426.25</ele><time>2026-04-26T08:13:14.677Z</time></trkpt><trkpt lat="33.4971727" lon="10.0305672"><ele>427.0</ele><time>2026-04-26T08:13:15.673Z</time></trkpt><trkpt lat="33.4970847" lon="10.0307114"><ele>424.33333333333337</ele><time>2026-04-26T08:13:16.674Z</time></trkpt><trkpt lat="33.4969788" lon="10.0308505"><ele>421.66666666666663</ele><time>2026-04-26T08:13:17.68Z</time></trkpt><trkpt lat="33.4968607" lon="10.0309834"><ele>419.0</ele><time>2026-04-26T08:13:18.695Z</time></trkpt><trkpt lat="33.4967456" lon="10.0311157"><ele>419.0</ele><time>2026-04-26T08:13:19.664Z</time></trkpt><trkpt lat="33.496628" lon="10.0312523"><ele>419.0</ele><time>2026-04-26T08:13:20.674Z</time></trkpt><trkpt lat="33.496515" lon="10.0313722"><ele>419.0</ele><time>2026-04-26T08:13:21.679Z</time></trkpt><trkpt lat="33.4964106" lon="10.0314853"><ele>419.0</ele><time>2026-04-26T08:13:22.674Z</time></trkpt><trkpt lat="33.496297" lon="10.0315818"><ele>419.0</ele><time>2026-04-26T08:13:23.675Z</time></trkpt><trkpt lat="33.4961926" lon="10.0316554"><ele>419.0</ele><time>2026-04-26T08:13:24.675Z</time></trkpt><trkpt lat="33.4960798" lon="10.0317349"><ele>419.0</ele><time>2026-04-26T08:13:25.669Z</time></trkpt><trkpt lat="33.4960038" lon="10.031828"><ele>415.75</ele><time>2026-04-26T08:13:26.687Z</time></trkpt><trkpt lat="33.4959436" lon="10.0319563"><ele>412.5</ele><time>2026-04-26T08:13:27.666Z</time></trkpt><trkpt lat="33.4959094" lon="10.0321116"><ele>409.25</ele><time>2026-04-26T08:13:28.681Z</time></trkpt><trkpt lat="33.4958844" lon="10.0322774"><ele>406.0</ele><time>2026-04-26T08:13:29.679Z</time></trkpt><trkpt lat="33.4958479" lon="10.0324192"><ele>407.25</ele><time>2026-04-26T08:13:30.675Z</time></trkpt><trkpt lat="33.4958031" lon="10.0325615"><ele>408.5</ele><time>2026-04-26T08:13:31.672Z</time></trkpt><trkpt lat="33.495769" lon="10.0327061"><ele>409.75</ele><time>2026-04-26T08:13:32.689Z</time></trkpt><trkpt lat="33.4957433" lon="10.0328431"><ele>411.0</ele><time>2026-04-26T08:13:33.671Z</time></trkpt><trkpt lat="33.4957309" lon="10.032976"><ele>411.0</ele><time>2026-04-26T08:13:34.675Z</time></trkpt><trkpt lat="33.4956986" lon="10.0331025"><ele>411.0</ele><time>2026-04-26T08:13:35.673Z</time></trkpt><trkpt lat="33.4956349" lon="10.0332077"><ele>411.0</ele><time>2026-04-26T08:13:36.673Z</time></trkpt><trkpt lat="33.4955518" lon="10.0332896"><ele>411.0</ele><time>2026-04-26T08:13:37.677Z</time></trkpt><trkpt lat="33.4954556" lon="10.0333608"><ele>411.0</ele><time>2026-04-26T08:13:38.673Z</time></trkpt><trkpt lat="33.4953627" lon="10.0334469"><ele>406.5</ele><time>2026-04-26T08:13:39.662Z</time></trkpt><trkpt lat="33.4952848" lon="10.0335495"><ele>402.0</ele><time>2026-04-26T08:13:40.663Z</time></trkpt><trkpt lat="33.4952305" lon="10.0336805"><ele>397.5</ele><time>2026-04-26T08:13:41.664Z</time></trkpt><trkpt lat="33.49518" lon="10.0338125"><ele>393.0</ele><time>2026-04-26T08:13:42.68Z</time></trkpt><trkpt lat="33.4951532" lon="10.0339454"><ele>393.0</ele><time>2026-04-26T08:13:43.706Z</time></trkpt><trkpt lat="33.4951347" lon="10.0340813"><ele>393.0</ele><time>2026-04-26T08:13:44.672Z</time></trkpt><trkpt lat="33.4951318" lon="10.0342082"><ele>393.0</ele><time>2026-04-26T08:13:45.678Z</time></trkpt><trkpt lat="33.4951594" lon="10.0343169"><ele>393.0</ele><time>2026-04-26T08:13:46.673Z</time></trkpt><trkpt lat="33.49522" lon="10.0344098"><ele>393.0</ele><time>2026-04-26T08:13:47.683Z</time></trkpt><trkpt lat="33.4952992" lon="10.0344723"><ele>393.0</ele><time>2026-04-26T08:13:48.676Z</time></trkpt><trkpt lat="33.4954041" lon="10.034521"><ele>393.0</ele><time>2026-04-26T08:13:49.688Z</time></trkpt><trkpt lat="33.4955349" lon="10.0345425"><ele>393.0</ele><time>2026-04-26T08:13:50.671Z</time></trkpt><trkpt lat="33.495676" lon="10.0345727"><ele>393.0</ele><time>2026-04-26T08:13:51.668Z</time></trkpt><trkpt lat="33.4958205" lon="10.034606"><ele>397.33333333333337</ele><time>2026-04-26T08:13:52.683Z</time></trkpt><trkpt lat="33.4959619" lon="10.0346498"><ele>401.6666666666667</ele><time>2026-04-26T08:13:53.679Z</time></trkpt><trkpt lat="33.4961031" lon="10.0346938"><ele>406.0</ele><time>2026-04-26T08:13:54.678Z</time></trkpt><trkpt lat="33.4961926" lon="10.0316554"><ele>406.0</ele><time>2026-04-26T08:13:24.675Z</time></trkpt><trkpt lat="33.4960798" lon="10.0317349"><ele>406.0</ele><time>2026-04-26T08:13:25.669Z</time></trkpt><trkpt lat="33.4960038" lon="10.031828"><ele>406.0</ele><time>2026-04-26T08:13:26.687Z</time></trkpt><trkpt lat="33.4959436" lon="10.0319563"><ele>406.0</ele><time>2026-04-26T08:13:27.666Z</time></trkpt><trkpt lat="33.4959094" lon="10.0321116"><ele>406.0</ele><time>2026-04-26T08:13:28.681Z</time></trkpt><trkpt lat="33.4958844" lon="10.0322774"><ele>406.0</ele><time>2026-04-26T08:13:29.679Z</time></trkpt><trkpt lat="33.4958479" lon="10.0324192"><ele>406.0</ele><time>2026-04-26T08:13:30.675Z</time></trkpt><trkpt lat="33.4958031" lon="10.0325615"><ele>406.0</ele><time>2026-04-26T08:13:31.672Z</time></trkpt><trkpt lat="33.495769" lon="10.0327061"><ele>407.0</ele><time>2026-04-26T08:13:32.689Z</time></trkpt><trkpt lat="33.4957433" lon="10.0328431"><ele>408.0</ele><time>2026-04-26T08:13:33.671Z</time></trkpt><trkpt lat="33.4957309" lon="10.032976"><ele>409.0</ele><time>2026-04-26T08:13:34.675Z</time></trkpt><trkpt lat="33.4956986" lon="10.0331025"><ele>410.0</ele><time>2026-04-26T08:13:35.673Z</time></trkpt><trkpt lat="33.4956349" lon="10.0332077"><ele>411.0</ele><time>2026-04-26T08:13:36.673Z</time></trkpt><trkpt lat="33.4955518" lon="10.0332896"><ele>412.75</ele><time>2026-04-26T08:13:37.677Z</time></trkpt><trkpt lat="33.4954556" lon="10.0333608"><ele>414.5</ele><time>2026-04-26T08:13:38.673Z</time></trkpt><trkpt lat="33.4953627" lon="10.0334469"><ele>416.25</ele><time>2026-04-26T08:13:39.662Z</time></trkpt><trkpt lat="33.4952848" lon="10.0335495"><ele>418.0</ele><time>2026-04-26T08:13:40.663Z</time></trkpt><trkpt lat="33.4952305" lon="10.0336805"><ele>411.75</ele><time>2026-04-26T08:13:41.664Z</time></trkpt><trkpt lat="33.49518" lon="10.0338125"><ele>405.5</ele><time>2026-04-26T08:13:42.68Z</time></trkpt><trkpt lat="33.4951532" lon="10.0339454"><ele>399.25</ele><time>2026-04-26T08:13:43.706Z</time></trkpt><trkpt lat="33.4951347" lon="10.0340813"><ele>393.0</ele><time>2026-04-26T08:13:44.672Z</time></trkpt><trkpt lat="33.4951318" lon="10.0342082"><ele>393.0</ele><time>2026-04-26T08:13:45.678Z</time></trkpt><trkpt lat="33.4951594" lon="10.0343169"><ele>393.0</ele><time>2026-04-26T08:13:46.673Z</time></trkpt><trkpt lat="33.49522" lon="10.0344098"><ele>393.0</ele><time>2026-04-26T08:13:47.683Z</time></trkpt><trkpt lat="33.4952992" lon="10.0344723"><ele>393.0</ele><time>2026-04-26T08:13:48.676Z</time></trkpt><trkpt lat="33.4954041" lon="10.034521"><ele>393.0</ele><time>2026-04-26T08:13:49.688Z</time></trkpt><trkpt lat="33.4955349" lon="10.0345425"><ele>397.25</ele><time>2026-04-26T08:13:50.671Z</time></trkpt><trkpt lat="33.495676" lon="10.0345727"><ele>401.5</ele><time>2026-04-26T08:13:51.668Z</time></trkpt><trkpt lat="33.4958205" lon="10.034606"><ele>405.75</ele><time>2026-04-26T08:13:52.683Z</time></trkpt><trkpt lat="33.4959619" lon="10.0346498"><ele>410.0</ele><time>2026-04-26T08:13:53.679Z</time></trkpt><trkpt lat="33.4961031" lon="10.0346938"><ele>410.0</ele><time>2026-04-26T08:13:54.678Z</time></trkpt><trkpt lat="33.4962409" lon="10.0347355"><ele>410.0</ele><time>2026-04-26T08:13:55.661Z</time></trkpt><trkpt lat="33.4963732" lon="10.0347871"><ele>410.0</ele><time>2026-04-26T08:13:56.668Z</time></trkpt><trkpt lat="33.4965121" lon="10.0348512"><ele>410.0</ele><time>2026-04-26T08:13:57.668Z</time></trkpt><trkpt lat="33.4966426" lon="10.0349134"><ele>406.75</ele><time>2026-04-26T08:13:58.663Z</time></trkpt><trkpt lat="33.4967685" lon="10.0349824"><ele>403.5</ele><time>2026-04-26T08:13:59.664Z</time></trkpt><trkpt lat="33.4968826" lon="10.0350507"><ele>400.25</ele><time>2026-04-26T08:14:00.662Z</time></trkpt><trkpt lat="33.4969947" lon="10.0351135"><ele>397.0</ele><time>2026-04-26T08:14:01.681Z</time></trkpt><trkpt lat="33.4970935" lon="10.0351799"><ele>397.0</ele><time>2026-04-26T08:14:02.673Z</time></trkpt><trkpt lat="33.4971766" lon="10.0352473"><ele>397.0</ele><time>2026-04-26T08:14:03.665Z</time></trkpt><trkpt lat="33.4972301" lon="10.0353259"><ele>397.0</ele><time>2026-04-26T08:14:04.668Z</time></trkpt><trkpt lat="33.497239" lon="10.0354268"><ele>397.0</ele><time>2026-04-26T08:14:05.665Z</time></trkpt><trkpt lat="33.4972386" lon="10.0355481"><ele>397.0</ele><time>2026-04-26T08:14:06.675Z</time></trkpt><trkpt lat="33.4972132" lon="10.035663"><ele>397.0</ele><time>2026-04-26T08:14:07.678Z</time></trkpt><trkpt lat="33.4971871" lon="10.0357805"><ele>397.0</ele><time>2026-04-26T08:14:08.661Z</time></trkpt><trkpt lat="33.4971552" lon="10.035912"><ele>397.0</ele><time>2026-04-26T08:14:09.681Z</time></trkpt><trkpt lat="33.4971315" lon="10.0360433"><ele>397.0</ele><time>2026-04-26T08:14:10.674Z</time></trkpt><trkpt lat="33.4971088" lon="10.0361775"><ele>397.0</ele><time>2026-04-26T08:14:11.676Z</time></trkpt><trkpt lat="33.4970768" lon="10.0363126"><ele>395.8</ele><time>2026-04-26T08:14:12.666Z</time></trkpt><trkpt lat="33.4970551" lon="10.0364499"><ele>394.6</ele><time>2026-04-26T08:14:13.671Z</time></trkpt><trkpt lat="33.4970377" lon="10.0365865"><ele>393.40000000000003</ele><time>2026-04-26T08:14:14.671Z</time></trkpt><trkpt lat="33.4970457" lon="10.0367069"><ele>392.20000000000005</ele><time>2026-04-26T08:14:15.668Z</time></trkpt><trkpt lat="33.4970894" lon="10.0368203"><ele>391.0</ele><time>2026-04-26T08:14:16.675Z</time></trkpt><trkpt lat="33.4971639" lon="10.0369214"><ele>388.6</ele><time>2026-04-26T08:14:17.669Z</time></trkpt><trkpt lat="33.4972493" lon="10.0370083"><ele>386.20000000000005</ele><time>2026-04-26T08:14:18.668Z</time></trkpt><trkpt lat="33.49734" lon="10.0370856"><ele>383.79999999999995</ele><time>2026-04-26T08:14:19.661Z</time></trkpt><trkpt lat="33.497429" lon="10.0371581"><ele>381.4</ele><time>2026-04-26T08:14:20.666Z</time></trkpt><trkpt lat="33.4975045" lon="10.0372426"><ele>379.0</ele><time>2026-04-26T08:14:21.671Z</time></trkpt><trkpt lat="33.497538" lon="10.0373469"><ele>379.0</ele><time>2026-04-26T08:14:22.672Z</time></trkpt><trkpt lat="33.4975318" lon="10.037452"><ele>379.0</ele><time>2026-04-26T08:14:23.674Z</time></trkpt><trkpt lat="33.4975006" lon="10.0375464"><ele>379.0</ele><time>2026-04-26T08:14:24.674Z</time></trkpt><trkpt lat="33.4974315" lon="10.037607"><ele>379.0</ele><time>2026-04-26T08:14:25.662Z</time></trkpt><trkpt lat="33.4973523" lon="10.0376185"><ele>379.0</ele><time>2026-04-26T08:14:26.673Z</time></trkpt><trkpt lat="33.4972389" lon="10.0375977"><ele>380.75</ele><time>2026-04-26T08:14:27.669Z</time></trkpt><trkpt lat="33.4971431" lon="10.0375512"><ele>382.5</ele><time>2026-04-26T08:14:28.672Z</time></trkpt><trkpt lat="33.4970479" lon="10.0374725"><ele>384.25</ele><time>2026-04-26T08:14:29.673Z</time></trkpt><trkpt lat="33.4969464" lon="10.0373791"><ele>386.0</ele><time>2026-04-26T08:14:30.673Z</time></trkpt><trkpt lat="33.4968595" lon="10.0372803"><ele>387.0</ele><time>2026-04-26T08:14:31.671Z</time></trkpt><trkpt lat="33.4967708" lon="10.0371779"><ele>388.0</ele><time>2026-04-26T08:14:32.664Z</time></trkpt><trkpt lat="33.4966785" lon="10.0370831"><ele>389.0</ele><time>2026-04-26T08:14:33.667Z</time></trkpt><trkpt lat="33.4965914" lon="10.0370204"><ele>390.0</ele><time>2026-04-26T08:14:34.663Z</time></trkpt><trkpt lat="33.4965091" lon="10.0369944"><ele>391.0</ele><time>2026-04-26T08:14:35.671Z</time></trkpt><trkpt lat="33.4964253" lon="10.0370039"><ele>391.00000000000006</ele><time>2026-04-26T08:14:36.679Z</time></trkpt><trkpt lat="33.4963608" lon="10.0370675"><ele>391.0</ele><time>2026-04-26T08:14:37.665Z</time></trkpt><trkpt lat="33.4963449" lon="10.0371445"><ele>391.0</ele><time>2026-04-26T08:14:38.676Z</time></trkpt><trkpt lat="33.4963634" lon="10.0372371"><ele>391.0</ele><time>2026-04-26T08:14:39.67Z</time></trkpt><trkpt lat="33.4964095" lon="10.0373376"><ele>391.00000000000006</ele><time>2026-04-26T08:14:40.674Z</time></trkpt><trkpt lat="33.4964903" lon="10.0374272"><ele>391.0</ele><time>2026-04-26T08:14:41.674Z</time></trkpt><trkpt lat="33.4965716" lon="10.0375056"><ele>393.75</ele><time>2026-04-26T08:14:42.681Z</time></trkpt><trkpt lat="33.496675" lon="10.0375762"><ele>396.5</ele><time>2026-04-26T08:14:43.667Z</time></trkpt><trkpt lat="33.4967769" lon="10.037653"><ele>399.25</ele><time>2026-04-26T08:14:44.666Z</time></trkpt><trkpt lat="33.4968622" lon="10.0377483"><ele>402.0</ele><time>2026-04-26T08:14:45.675Z</time></trkpt><trkpt lat="33.496928" lon="10.037885"><ele>402.0</ele><time>2026-04-26T08:14:46.673Z</time></trkpt><trkpt lat="33.4969702" lon="10.0380403"><ele>402.0</ele><time>2026-04-26T08:14:47.663Z</time></trkpt><trkpt lat="33.4969871" lon="10.0382023"><ele>402.0</ele><time>2026-04-26T08:14:48.662Z</time></trkpt><trkpt lat="33.4969919" lon="10.0383489"><ele>402.0</ele><time>2026-04-26T08:14:49.663Z</time></trkpt><trkpt lat="33.4969915" lon="10.0384832"><ele>400.5</ele><time>2026-04-26T08:14:50.666Z</time></trkpt><trkpt lat="33.4970233" lon="10.0386101"><ele>399.0</ele><time>2026-04-26T08:14:51.668Z</time></trkpt><trkpt lat="33.4971004" lon="10.0387208"><ele>397.5</ele><time>2026-04-26T08:14:52.671Z</time></trkpt><trkpt lat="33.4971984" lon="10.0388033"><ele>396.0</ele><time>2026-04-26T08:14:53.672Z</time></trkpt><trkpt lat="33.4973142" lon="10.038867"><ele>396.0</ele><time>2026-04-26T08:14:54.67Z</time></trkpt><trkpt lat="33.4974327" lon="10.03892"><ele>396.0</ele><time>2026-04-26T08:14:55.672Z</time></trkpt><trkpt lat="33.4975277" lon="10.0389785"><ele>396.0</ele><time>2026-04-26T08:14:56.676Z</time></trkpt><trkpt lat="33.4976048" lon="10.0390462"><ele>396.0</ele><time>2026-04-26T08:14:57.673Z</time></trkpt><trkpt lat="33.4976665" lon="10.0391243"><ele>396.0</ele><time>2026-04-26T08:14:58.671Z</time></trkpt><trkpt lat="33.4976721" lon="10.0392288"><ele>399.4</ele><time>2026-04-26T08:14:59.676Z</time></trkpt><trkpt lat="33.4976484" lon="10.039333"><ele>402.8</ele><time>2026-04-26T08:15:00.664Z</time></trkpt><trkpt lat="33.4975962" lon="10.0394277"><ele>406.2</ele><time>2026-04-26T08:15:01.675Z</time></trkpt><trkpt lat="33.4975242" lon="10.0395222"><ele>409.59999999999997</ele><time>2026-04-26T08:15:02.676Z</time></trkpt><trkpt lat="33.4974429" lon="10.039624"><ele>413.0</ele><time>2026-04-26T08:15:03.674Z</time></trkpt><trkpt lat="33.4973596" lon="10.0397217"><ele>413.0</ele><time>2026-04-26T08:15:04.68Z</time></trkpt><trkpt lat="33.4972675" lon="10.0398153"><ele>413.0</ele><time>2026-04-26T08:15:05.665Z</time></trkpt><trkpt lat="33.4971775" lon="10.0399038"><ele>413.0</ele><time>2026-04-26T08:15:06.676Z</time></trkpt><trkpt lat="33.4970744" lon="10.0399724"><ele>413.0</ele><time>2026-04-26T08:15:07.665Z</time></trkpt><trkpt lat="33.4969754" lon="10.0399957"><ele>416.5</ele><time>2026-04-26T08:15:08.678Z</time></trkpt><trkpt lat="33.4968635" lon="10.0399937"><ele>420.0</ele><time>2026-04-26T08:15:09.673Z</time></trkpt><trkpt lat="33.4967483" lon="10.0399653"><ele>423.5</ele><time>2026-04-26T08:15:10.676Z</time></trkpt><trkpt lat="33.4966398" lon="10.0399099"><ele>427.0</ele><time>2026-04-26T08:15:11.673Z</time></trkpt><trkpt lat="33.4965242" lon="10.0398346"><ele>428.0</ele><time>2026-04-26T08:15:12.676Z</time></trkpt><trkpt lat="33.4964087" lon="10.0397475"><ele>429.0</ele><time>2026-04-26T08:15:13.673Z</time></trkpt><trkpt lat="33.4962926" lon="10.0396598"><ele>430.0</ele><time>2026-04-26T08:15:14.674Z</time></trkpt><trkpt lat="33.4961678" lon="10.0395879"><ele>431.0</ele><time>2026-04-26T08:15:15.668Z</time></trkpt><trkpt lat="33.4960438" lon="10.0395121"><ele>431.25</ele><time>2026-04-26T08:15:16.67Z</time></trkpt><trkpt lat="33.4959262" lon="10.0394599"><ele>431.5</ele><time>2026-04-26T08:15:17.676Z</time></trkpt><trkpt lat="33.4958137" lon="10.039428"><ele>431.75</ele><time>2026-04-26T08:15:18.67Z</time></trkpt><trkpt lat="33.495702" lon="10.0394196"><ele>432.0</ele><time>2026-04-26T08:15:19.68Z</time></trkpt><trkpt lat="33.4955977" lon="10.039442"><ele>432.0</ele><time>2026-04-26T08:15:20.661Z</time></trkpt><trkpt lat="33.4955039" lon="10.0394984"><ele>432.0</ele><time>2026-04-26T08:15:21.671Z</time></trkpt><trkpt lat="33.4954272" lon="10.039587"><ele>432.0</ele><time>2026-04-26T08:15:22.67Z</time></trkpt><trkpt lat="33.4953774" lon="10.0397133"><ele>432.0</ele><time>2026-04-26T08:15:23.671Z</time></trkpt><trkpt lat="33.495337" lon="10.0398621"><ele>432.75</ele><time>2026-04-26T08:15:24.678Z</time></trkpt><trkpt lat="33.4953251" lon="10.0400284"><ele>433.5</ele><time>2026-04-26T08:15:25.676Z</time></trkpt><trkpt lat="33.495332" lon="10.040206"><ele>434.25</ele><time>2026-04-26T08:15:26.676Z</time></trkpt><trkpt lat="33.4953354" lon="10.0403892"><ele>435.0</ele><time>2026-04-26T08:15:27.667Z</time></trkpt><trkpt lat="33.4953376" lon="10.040572"><ele>435.0</ele><time>2026-04-26T08:15:28.673Z</time></trkpt><trkpt lat="33.4953342" lon="10.0407653"><ele>435.0</ele><time>2026-04-26T08:15:29.676Z</time></trkpt><trkpt lat="33.4953137" lon="10.0409583"><ele>435.0</ele><time>2026-04-26T08:15:30.665Z</time></trkpt><trkpt lat="33.4952798" lon="10.0411487"><ele>438.0</ele><time>2026-04-26T08:15:31.681Z</time></trkpt><trkpt lat="33.4952516" lon="10.0413395"><ele>441.0</ele><time>2026-04-26T08:15:32.671Z</time></trkpt><trkpt lat="33.4952282" lon="10.0415294"><ele>444.0</ele><time>2026-04-26T08:15:33.663Z</time></trkpt><trkpt lat="33.4952113" lon="10.0417113"><ele>445.5</ele><time>2026-04-26T08:15:34.682Z</time></trkpt><trkpt lat="33.4951932" lon="10.0418819"><ele>447.0</ele><time>2026-04-26T08:15:35.675Z</time></trkpt><trkpt lat="33.4951788" lon="10.042044"><ele>448.5</ele><time>2026-04-26T08:15:36.683Z</time></trkpt><trkpt lat="33.4951637" lon="10.0422122"><ele>450.0</ele><time>2026-04-26T08:15:37.683Z</time></trkpt><trkpt lat="33.4951533" lon="10.0423779"><ele>450.5</ele><time>2026-04-26T08:15:38.673Z</time></trkpt><trkpt lat="33.495142" lon="10.042546"><ele>451.0</ele><time>2026-04-26T08:15:39.688Z</time></trkpt><trkpt lat="33.495148" lon="10.0427101"><ele>451.5</ele><time>2026-04-26T08:15:40.678Z</time></trkpt><trkpt lat="33.4951867" lon="10.0428621"><ele>452.0</ele><time>2026-04-26T08:15:41.678Z</time></trkpt><trkpt lat="33.4952314" lon="10.0430076"><ele>452.0</ele><time>2026-04-26T08:15:42.679Z</time></trkpt><trkpt lat="33.4952724" lon="10.0431415"><ele>452.0</ele><time>2026-04-26T08:15:43.679Z</time></trkpt><trkpt lat="33.4952911" lon="10.043263"><ele>452.0</ele><time>2026-04-26T08:15:44.68Z</time></trkpt><trkpt lat="33.4952639" lon="10.0433877"><ele>452.0</ele><time>2026-04-26T08:15:45.673Z</time></trkpt><trkpt lat="33.495209" lon="10.0435278"><ele>451.75</ele><time>2026-04-26T08:15:46.677Z</time></trkpt><trkpt lat="33.4951259" lon="10.0436604"><ele>451.5</ele><time>2026-04-26T08:15:47.674Z</time></trkpt><trkpt lat="33.4950367" lon="10.0437973"><ele>451.25</ele><time>2026-04-26T08:15:48.685Z</time></trkpt><trkpt lat="33.4949544" lon="10.0439335"><ele>451.0</ele><time>2026-04-26T08:15:49.672Z</time></trkpt><trkpt lat="33.4948652" lon="10.0440715"><ele>451.25</ele><time>2026-04-26T08:15:50.667Z</time></trkpt><trkpt lat="33.4947824" lon="10.0441981"><ele>451.5</ele><time>2026-04-26T08:15:51.677Z</time></trkpt><trkpt lat="33.4946826" lon="10.0443166"><ele>451.75</ele><time>2026-04-26T08:15:52.673Z</time></trkpt><trkpt lat="33.4945616" lon="10.0444088"><ele>452.0</ele><time>2026-04-26T08:15:53.686Z</time></trkpt><trkpt lat="33.4944188" lon="10.044482"><ele>452.0</ele><time>2026-04-26T08:15:54.677Z</time></trkpt><trkpt lat="33.4942791" lon="10.0445465"><ele>452.0</ele><time>2026-04-26T08:15:55.675Z</time></trkpt><trkpt lat="33.4941306" lon="10.0446121"><ele>452.0</ele><time>2026-04-26T08:15:56.67Z</time></trkpt><trkpt lat="33.4939924" lon="10.0446965"><ele>452.0</ele><time>2026-04-26T08:15:57.68Z</time></trkpt><trkpt lat="33.4938559" lon="10.0447938"><ele>452.0</ele><time>2026-04-26T08:15:58.675Z</time></trkpt><trkpt lat="33.493733" lon="10.0449113"><ele>452.0</ele><time>2026-04-26T08:15:59.697Z</time></trkpt><trkpt lat="33.4936236" lon="10.0450532"><ele>453.3333333333333</ele><time>2026-04-26T08:16:00.679Z</time></trkpt><trkpt lat="33.4935169" lon="10.0451988"><ele>454.66666666666663</ele><time>2026-04-26T08:16:01.673Z</time></trkpt><trkpt lat="33.4934082" lon="10.0453394"><ele>456.0</ele><time>2026-04-26T08:16:02.67Z</time></trkpt><trkpt lat="33.4932991" lon="10.0454782"><ele>456.0</ele><time>2026-04-26T08:16:03.677Z</time></trkpt><trkpt lat="33.4931852" lon="10.0456082"><ele>456.0</ele><time>2026-04-26T08:16:04.677Z</time></trkpt><trkpt lat="33.4930608" lon="10.0457259"><ele>456.0</ele><time>2026-04-26T08:16:05.683Z</time></trkpt><trkpt lat="33.492925" lon="10.0458196"><ele>457.66666666666663</ele><time>2026-04-26T08:16:06.673Z</time></trkpt><trkpt lat="33.4927816" lon="10.0458857"><ele>459.3333333333333</ele><time>2026-04-26T08:16:07.675Z</time></trkpt><trkpt lat="33.4926278" lon="10.0459425"><ele>461.0</ele><time>2026-04-26T08:16:08.674Z</time></trkpt><trkpt lat="33.492476" lon="10.0459846"><ele>461.0</ele><time>2026-04-26T08:16:09.666Z</time></trkpt><trkpt lat="33.4923236" lon="10.0460266"><ele>461.0</ele><time>2026-04-26T08:16:10.662Z</time></trkpt><trkpt lat="33.4921715" lon="10.0460765"><ele>461.0</ele><time>2026-04-26T08:16:11.671Z</time></trkpt><trkpt lat="33.4920221" lon="10.0461342"><ele>461.0</ele><time>2026-04-26T08:16:12.672Z</time></trkpt><trkpt lat="33.4918837" lon="10.0462134"><ele>461.0</ele><time>2026-04-26T08:16:13.669Z</time></trkpt><trkpt lat="33.4917488" lon="10.0463056"><ele>461.0</ele><time>2026-04-26T08:16:14.682Z</time></trkpt><trkpt lat="33.4916235" lon="10.0464096"><ele>461.0</ele><time>2026-04-26T08:16:15.669Z</time></trkpt><trkpt lat="33.4915131" lon="10.0465261"><ele>461.0</ele><time>2026-04-26T08:16:16.676Z</time></trkpt><trkpt lat="33.4914089" lon="10.0466537"><ele>461.0</ele><time>2026-04-26T08:16:17.67Z</time></trkpt><trkpt lat="33.491317" lon="10.0468056"><ele>460.25</ele><time>2026-04-26T08:16:18.675Z</time></trkpt><trkpt lat="33.4912461" lon="10.0469582"><ele>459.5</ele><time>2026-04-26T08:16:19.679Z</time></trkpt><trkpt lat="33.491184" lon="10.0471199"><ele>458.75</ele><time>2026-04-26T08:16:20.675Z</time></trkpt><trkpt lat="33.4911281" lon="10.047285"><ele>458.0</ele><time>2026-04-26T08:16:21.67Z</time></trkpt><trkpt lat="33.4910778" lon="10.0474453"><ele>458.0</ele><time>2026-04-26T08:16:22.672Z</time></trkpt><trkpt lat="33.491028" lon="10.0476011"><ele>458.0</ele><time>2026-04-26T08:16:23.669Z</time></trkpt><trkpt lat="33.490978" lon="10.0477612"><ele>458.0</ele><time>2026-04-26T08:16:24.68Z</time></trkpt><trkpt lat="33.4909069" lon="10.0479033"><ele>458.0</ele><time>2026-04-26T08:16:25.686Z</time></trkpt><trkpt lat="33.4908259" lon="10.0480335"><ele>458.0</ele><time>2026-04-26T08:16:26.672Z</time></trkpt><trkpt lat="33.4907352" lon="10.0481514"><ele>458.0</ele><time>2026-04-26T08:16:27.681Z</time></trkpt><trkpt lat="33.490631" lon="10.0482581"><ele>458.0</ele><time>2026-04-26T08:16:28.685Z</time></trkpt><trkpt lat="33.490526" lon="10.0483505"><ele>458.0</ele><time>2026-04-26T08:16:29.676Z</time></trkpt><trkpt lat="33.4904135" lon="10.0484238"><ele>459.75</ele><time>2026-04-26T08:16:30.678Z</time></trkpt><trkpt lat="33.4902937" lon="10.0485"><ele>461.5</ele><time>2026-04-26T08:16:31.676Z</time></trkpt><trkpt lat="33.4901777" lon="10.0485739"><ele>463.25</ele><time>2026-04-26T08:16:32.681Z</time></trkpt><trkpt lat="33.4900577" lon="10.048651"><ele>465.0</ele><time>2026-04-26T08:16:33.685Z</time></trkpt><trkpt lat="33.4899487" lon="10.0487459"><ele>465.0</ele><time>2026-04-26T08:16:34.68Z</time></trkpt><trkpt lat="33.489843" lon="10.0488552"><ele>465.0</ele><time>2026-04-26T08:16:35.679Z</time></trkpt><trkpt lat="33.4897407" lon="10.0489723"><ele>465.0</ele><time>2026-04-26T08:16:36.68Z</time></trkpt><trkpt lat="33.4896446" lon="10.0491039"><ele>465.0</ele><time>2026-04-26T08:16:37.668Z</time></trkpt><trkpt lat="33.4895655" lon="10.0492529"><ele>464.33333333333337</ele><time>2026-04-26T08:16:38.681Z</time></trkpt><trkpt lat="33.4894922" lon="10.049416"><ele>463.6666666666667</ele><time>2026-04-26T08:16:39.688Z</time></trkpt><trkpt lat="33.4894297" lon="10.0495886"><ele>463.0</ele><time>2026-04-26T08:16:40.676Z</time></trkpt><trkpt lat="33.4893632" lon="10.0497672"><ele>463.0</ele><time>2026-04-26T08:16:41.68Z</time></trkpt><trkpt lat="33.4892957" lon="10.0499421"><ele>463.0</ele><time>2026-04-26T08:16:42.677Z</time></trkpt><trkpt lat="33.4892276" lon="10.0501185"><ele>463.0</ele><time>2026-04-26T08:16:43.675Z</time></trkpt><trkpt lat="33.4891509" lon="10.0503076"><ele>461.33333333333337</ele><time>2026-04-26T08:16:44.673Z</time></trkpt><trkpt lat="33.4890615" lon="10.0504948"><ele>459.66666666666663</ele><time>2026-04-26T08:16:45.67Z</time></trkpt><trkpt lat="33.488962" lon="10.0506836"><ele>458.0</ele><time>2026-04-26T08:16:46.678Z</time></trkpt><trkpt lat="33.4888685" lon="10.0508614"><ele>457.0</ele><time>2026-04-26T08:16:47.675Z</time></trkpt><trkpt lat="33.4887788" lon="10.0510345"><ele>456.0</ele><time>2026-04-26T08:16:48.673Z</time></trkpt><trkpt lat="33.4886971" lon="10.0511976"><ele>455.0</ele><time>2026-04-26T08:16:49.677Z</time></trkpt><trkpt lat="33.488606" lon="10.0513536"><ele>455.0</ele><time>2026-04-26T08:16:50.674Z</time></trkpt><trkpt lat="33.4885104" lon="10.0514999"><ele>455.0</ele><time>2026-04-26T08:16:51.664Z</time></trkpt><trkpt lat="33.4884103" lon="10.0516391"><ele>455.0</ele><time>2026-04-26T08:16:52.674Z</time></trkpt><trkpt lat="33.4883043" lon="10.0517693"><ele>455.0</ele><time>2026-04-26T08:16:53.667Z</time></trkpt><trkpt lat="33.4881816" lon="10.0518897"><ele>455.0</ele><time>2026-04-26T08:16:54.685Z</time></trkpt><trkpt lat="33.4880494" lon="10.0519825"><ele>455.0</ele><time>2026-04-26T08:16:55.668Z</time></trkpt><trkpt lat="33.487897" lon="10.0520501"><ele>456.0</ele><time>2026-04-26T08:16:56.675Z</time></trkpt><trkpt lat="33.4877363" lon="10.0520767"><ele>457.0</ele><time>2026-04-26T08:16:57.678Z</time></trkpt><trkpt lat="33.4875778" lon="10.0520886"><ele>458.0</ele><time>2026-04-26T08:16:58.672Z</time></trkpt><trkpt lat="33.4874232" lon="10.0521117"><ele>458.0</ele><time>2026-04-26T08:16:59.672Z</time></trkpt><trkpt lat="33.487269" lon="10.0521406"><ele>458.0</ele><time>2026-04-26T08:17:00.668Z</time></trkpt><trkpt lat="33.4871149" lon="10.0521874"><ele>458.0</ele><time>2026-04-26T08:17:01.672Z</time></trkpt><trkpt lat="33.4869731" lon="10.0522569"><ele>457.0</ele><time>2026-04-26T08:17:02.672Z</time></trkpt><trkpt lat="33.4868644" lon="10.0523356"><ele>456.0</ele><time>2026-04-26T08:17:03.68Z</time></trkpt><trkpt lat="33.4867478" lon="10.0524364"><ele>455.0</ele><time>2026-04-26T08:17:04.676Z</time></trkpt><trkpt lat="33.486653" lon="10.0525459"><ele>454.0</ele><time>2026-04-26T08:17:05.675Z</time></trkpt><trkpt lat="33.4865732" lon="10.0526627"><ele>456.5</ele><time>2026-04-26T08:17:06.674Z</time></trkpt><trkpt lat="33.48649" lon="10.0528012"><ele>459.0</ele><time>2026-04-26T08:17:07.663Z</time></trkpt><trkpt lat="33.4864232" lon="10.0529595"><ele>461.5</ele><time>2026-04-26T08:17:08.676Z</time></trkpt><trkpt lat="33.4863707" lon="10.0531178"><ele>464.0</ele><time>2026-04-26T08:17:09.667Z</time></trkpt><trkpt lat="33.4863314" lon="10.0532829"><ele>465.66666666666663</ele><time>2026-04-26T08:17:10.672Z</time></trkpt><trkpt lat="33.4863207" lon="10.0534742"><ele>467.33333333333337</ele><time>2026-04-26T08:17:11.665Z</time></trkpt><trkpt lat="33.486329" lon="10.053665"><ele>469.0</ele><time>2026-04-26T08:17:12.678Z</time></trkpt><trkpt lat="33.4863411" lon="10.0538502"><ele>469.0</ele><time>2026-04-26T08:17:13.684Z</time></trkpt><trkpt lat="33.4863614" lon="10.0540338"><ele>469.0</ele><time>2026-04-26T08:17:14.672Z</time></trkpt><trkpt lat="33.486373" lon="10.054213"><ele>469.0</ele><time>2026-04-26T08:17:15.686Z</time></trkpt><trkpt lat="33.4863846" lon="10.0543896"><ele>469.75</ele><time>2026-04-26T08:17:16.687Z</time></trkpt><trkpt lat="33.486377" lon="10.0545615"><ele>470.5</ele><time>2026-04-26T08:17:17.696Z</time></trkpt><trkpt lat="33.4863482" lon="10.0547306"><ele>471.25</ele><time>2026-04-26T08:17:18.68Z</time></trkpt><trkpt lat="33.4863066" lon="10.0548942"><ele>472.0</ele><time>2026-04-26T08:17:19.677Z</time></trkpt><trkpt lat="33.4862539" lon="10.0550532"><ele>473.0</ele><time>2026-04-26T08:17:20.668Z</time></trkpt><trkpt lat="33.4861835" lon="10.0552066"><ele>474.0</ele><time>2026-04-26T08:17:21.671Z</time></trkpt><trkpt lat="33.4861063" lon="10.0553631"><ele>475.0</ele><time>2026-04-26T08:17:22.684Z</time></trkpt><trkpt lat="33.4860244" lon="10.055519"><ele>475.0</ele><time>2026-04-26T08:17:23.681Z</time></trkpt><trkpt lat="33.4859535" lon="10.0556718"><ele>475.0</ele><time>2026-04-26T08:17:24.677Z</time></trkpt><trkpt lat="33.4858939" lon="10.0558238"><ele>475.0</ele><time>2026-04-26T08:17:25.669Z</time></trkpt><trkpt lat="33.485846" lon="10.0559924"><ele>475.0</ele><time>2026-04-26T08:17:26.67Z</time></trkpt><trkpt lat="33.4858047" lon="10.0561623"><ele>475.0</ele><time>2026-04-26T08:17:27.666Z</time></trkpt><trkpt lat="33.4857756" lon="10.0563379"><ele>475.0</ele><time>2026-04-26T08:17:28.679Z</time></trkpt><trkpt lat="33.4857553" lon="10.0565249"><ele>475.0</ele><time>2026-04-26T08:17:29.672Z</time></trkpt><trkpt lat="33.4857391" lon="10.0567051"><ele>474.6666666666667</ele><time>2026-04-26T08:17:30.668Z</time></trkpt><trkpt lat="33.4857212" lon="10.0568846"><ele>474.33333333333337</ele><time>2026-04-26T08:17:31.665Z</time></trkpt><trkpt lat="33.4857035" lon="10.0570662"><ele>474.0</ele><time>2026-04-26T08:17:32.675Z</time></trkpt><trkpt lat="33.485694" lon="10.0572527"><ele>474.0</ele><time>2026-04-26T08:17:33.677Z</time></trkpt><trkpt lat="33.4856979" lon="10.0574432"><ele>474.0</ele><time>2026-04-26T08:17:34.688Z</time></trkpt><trkpt lat="33.4857149" lon="10.0576296"><ele>474.0</ele><time>2026-04-26T08:17:35.688Z</time></trkpt><trkpt lat="33.4857455" lon="10.0578184"><ele>475.33333333333337</ele><time>2026-04-26T08:17:36.692Z</time></trkpt><trkpt lat="33.4857897" lon="10.0580042"><ele>476.6666666666667</ele><time>2026-04-26T08:17:37.693Z</time></trkpt><trkpt lat="33.4858512" lon="10.0581667"><ele>478.0</ele><time>2026-04-26T08:17:38.673Z</time></trkpt><trkpt lat="33.4859151" lon="10.0583272"><ele>478.0</ele><time>2026-04-26T08:17:39.678Z</time></trkpt><trkpt lat="33.4859668" lon="10.0584884"><ele>478.0</ele><time>2026-04-26T08:17:40.688Z</time></trkpt><trkpt lat="33.4860023" lon="10.0586513"><ele>478.0</ele><time>2026-04-26T08:17:41.702Z</time></trkpt><trkpt lat="33.4860201" lon="10.058829"><ele>478.0</ele><time>2026-04-26T08:17:42.696Z</time></trkpt><trkpt lat="33.4860155" lon="10.0590077"><ele>477.25</ele><time>2026-04-26T08:17:43.684Z</time></trkpt><trkpt lat="33.4859928" lon="10.0591857"><ele>476.5</ele><time>2026-04-26T08:17:44.666Z</time></trkpt><trkpt lat="33.4859457" lon="10.0593506"><ele>475.75</ele><time>2026-04-26T08:17:45.673Z</time></trkpt><trkpt lat="33.4858925" lon="10.0595204"><ele>475.0</ele><time>2026-04-26T08:17:46.678Z</time></trkpt><trkpt lat="33.4858186" lon="10.0596812"><ele>475.0</ele><time>2026-04-26T08:17:47.679Z</time></trkpt><trkpt lat="33.4857434" lon="10.0598423"><ele>475.0</ele><time>2026-04-26T08:17:48.67Z</time></trkpt><trkpt lat="33.4856704" lon="10.0599999"><ele>475.0</ele><time>2026-04-26T08:17:49.666Z</time></trkpt><trkpt lat="33.485586" lon="10.0601523"><ele>473.6666666666667</ele><time>2026-04-26T08:17:50.667Z</time></trkpt><trkpt lat="33.4855043" lon="10.0603029"><ele>472.33333333333337</ele><time>2026-04-26T08:17:51.679Z</time></trkpt><trkpt lat="33.4854109" lon="10.0604525"><ele>471.0</ele><time>2026-04-26T08:17:52.684Z</time></trkpt><trkpt lat="33.4853063" lon="10.0605893"><ele>471.66666666666663</ele><time>2026-04-26T08:17:53.672Z</time></trkpt><trkpt lat="33.4851874" lon="10.0607063"><ele>472.3333333333333</ele><time>2026-04-26T08:17:54.686Z</time></trkpt><trkpt lat="33.4850706" lon="10.0608331"><ele>473.0</ele><time>2026-04-26T08:17:55.686Z</time></trkpt><trkpt lat="33.4849561" lon="10.0609617"><ele>473.0</ele><time>2026-04-26T08:17:56.682Z</time></trkpt><trkpt lat="33.4848451" lon="10.0610922"><ele>473.0</ele><time>2026-04-26T08:17:57.688Z</time></trkpt><trkpt lat="33.4847367" lon="10.0612238"><ele>473.0</ele><time>2026-04-26T08:17:58.667Z</time></trkpt><trkpt lat="33.4846215" lon="10.0613497"><ele>473.0</ele><time>2026-04-26T08:17:59.676Z</time></trkpt><trkpt lat="33.4845043" lon="10.0614804"><ele>473.0</ele><time>2026-04-26T08:18:00.678Z</time></trkpt><trkpt lat="33.4843928" lon="10.0616076"><ele>473.0</ele><time>2026-04-26T08:18:01.685Z</time></trkpt><trkpt lat="33.4842782" lon="10.0617379"><ele>473.75</ele><time>2026-04-26T08:18:02.681Z</time></trkpt><trkpt lat="33.4841648" lon="10.0618657"><ele>474.5</ele><time>2026-04-26T08:18:03.672Z</time></trkpt><trkpt lat="33.4840616" lon="10.0619948"><ele>475.25</ele><time>2026-04-26T08:18:04.683Z</time></trkpt><trkpt lat="33.4839763" lon="10.0621319"><ele>476.0</ele><time>2026-04-26T08:18:05.671Z</time></trkpt><trkpt lat="33.4839052" lon="10.0622769"><ele>476.0</ele><time>2026-04-26T08:18:06.674Z</time></trkpt><trkpt lat="33.4838479" lon="10.0624308"><ele>476.0</ele><time>2026-04-26T08:18:07.674Z</time></trkpt><trkpt lat="33.4838058" lon="10.0626033"><ele>476.0</ele><time>2026-04-26T08:18:08.666Z</time></trkpt><trkpt lat="33.4837828" lon="10.0627682"><ele>476.0</ele><time>2026-04-26T08:18:09.679Z</time></trkpt><trkpt lat="33.4837859" lon="10.062941"><ele>477.0</ele><time>2026-04-26T08:18:10.68Z</time></trkpt><trkpt lat="33.483809" lon="10.0631218"><ele>478.0</ele><time>2026-04-26T08:18:11.678Z</time></trkpt><trkpt lat="33.4838483" lon="10.0632907"><ele>479.0</ele><time>2026-04-26T08:18:12.671Z</time></trkpt><trkpt lat="33.483902" lon="10.0634601"><ele>481.3333333333333</ele><time>2026-04-26T08:18:13.67Z</time></trkpt><trkpt lat="33.4839693" lon="10.0636245"><ele>483.66666666666663</ele><time>2026-04-26T08:18:14.668Z</time></trkpt><trkpt lat="33.4840427" lon="10.0637829"><ele>486.0</ele><time>2026-04-26T08:18:15.688Z</time></trkpt><trkpt lat="33.4841131" lon="10.063946"><ele>486.0</ele><time>2026-04-26T08:18:16.672Z</time></trkpt><trkpt lat="33.484184" lon="10.0641112"><ele>486.0</ele><time>2026-04-26T08:18:17.684Z</time></trkpt><trkpt lat="33.484261" lon="10.064278"><ele>486.0</ele><time>2026-04-26T08:18:18.675Z</time></trkpt><trkpt lat="33.4843337" lon="10.0644386"><ele>487.0</ele><time>2026-04-26T08:18:19.677Z</time></trkpt><trkpt lat="33.4844109" lon="10.0645955"><ele>488.0</ele><time>2026-04-26T08:18:20.679Z</time></trkpt><trkpt lat="33.484488" lon="10.0647457"><ele>489.0</ele><time>2026-04-26T08:18:21.675Z</time></trkpt><trkpt lat="33.4845595" lon="10.0649078"><ele>488.33333333333337</ele><time>2026-04-26T08:18:22.678Z</time></trkpt><trkpt lat="33.4846242" lon="10.0650813"><ele>487.6666666666667</ele><time>2026-04-26T08:18:23.673Z</time></trkpt><trkpt lat="33.4846657" lon="10.0652558"><ele>487.0</ele><time>2026-04-26T08:18:24.678Z</time></trkpt><trkpt lat="33.4846942" lon="10.0654438"><ele>487.0</ele><time>2026-04-26T08:18:25.681Z</time></trkpt><trkpt lat="33.4847053" lon="10.0656349"><ele>487.0</ele><time>2026-04-26T08:18:26.676Z</time></trkpt><trkpt lat="33.4847047" lon="10.0658242"><ele>487.0</ele><time>2026-04-26T08:18:27.679Z</time></trkpt><trkpt lat="33.4846904" lon="10.0660191"><ele>487.0</ele><time>2026-04-26T08:18:28.672Z</time></trkpt><trkpt lat="33.4846636" lon="10.0662187"><ele>487.0</ele><time>2026-04-26T08:18:29.675Z</time></trkpt><trkpt lat="33.4846459" lon="10.0664163"><ele>487.0</ele><time>2026-04-26T08:18:30.676Z</time></trkpt><trkpt lat="33.4846345" lon="10.0666118"><ele>487.0</ele><time>2026-04-26T08:18:31.67Z</time></trkpt><trkpt lat="33.4846351" lon="10.0668071"><ele>487.0</ele><time>2026-04-26T08:18:32.679Z</time></trkpt><trkpt lat="33.4846393" lon="10.0670021"><ele>487.0</ele><time>2026-04-26T08:18:33.685Z</time></trkpt><trkpt lat="33.4846511" lon="10.0671978"><ele>487.0</ele><time>2026-04-26T08:18:34.68Z</time></trkpt><trkpt lat="33.4846634" lon="10.0673933"><ele>487.0</ele><time>2026-04-26T08:18:35.667Z</time></trkpt><trkpt lat="33.4846807" lon="10.0675754"><ele>487.0</ele><time>2026-04-26T08:18:36.684Z</time></trkpt><trkpt lat="33.4846959" lon="10.0677622"><ele>489.33333333333337</ele><time>2026-04-26T08:18:37.68Z</time></trkpt><trkpt lat="33.4847114" lon="10.0679437"><ele>491.66666666666663</ele><time>2026-04-26T08:18:38.683Z</time></trkpt><trkpt lat="33.4847233" lon="10.0681247"><ele>494.0</ele><time>2026-04-26T08:18:39.691Z</time></trkpt><trkpt lat="33.4847421" lon="10.0683036"><ele>494.0</ele><time>2026-04-26T08:18:40.679Z</time></trkpt><trkpt lat="33.4847697" lon="10.0684821"><ele>494.0</ele><time>2026-04-26T08:18:41.683Z</time></trkpt><trkpt lat="33.4848058" lon="10.0686529"><ele>494.0</ele><time>2026-04-26T08:18:42.68Z</time></trkpt><trkpt lat="33.484846" lon="10.0688153"><ele>494.0</ele><time>2026-04-26T08:18:43.673Z</time></trkpt><trkpt lat="33.4849017" lon="10.0689702"><ele>493.3333333333333</ele><time>2026-04-26T08:18:44.686Z</time></trkpt><trkpt lat="33.4849745" lon="10.0691191"><ele>492.66666666666663</ele><time>2026-04-26T08:18:45.68Z</time></trkpt><trkpt lat="33.4850678" lon="10.0692629"><ele>492.0</ele><time>2026-04-26T08:18:46.682Z</time></trkpt><trkpt lat="33.4851676" lon="10.0694091"><ele>492.0</ele><time>2026-04-26T08:18:47.681Z</time></trkpt><trkpt lat="33.4852666" lon="10.0695592"><ele>492.0</ele><time>2026-04-26T08:18:48.673Z</time></trkpt><trkpt lat="33.4853743" lon="10.0697109"><ele>492.0</ele><time>2026-04-26T08:18:49.686Z</time></trkpt><trkpt lat="33.4854831" lon="10.0698646"><ele>489.0</ele><time>2026-04-26T08:18:50.673Z</time></trkpt><trkpt lat="33.4855892" lon="10.0700176"><ele>486.0</ele><time>2026-04-26T08:18:51.676Z</time></trkpt><trkpt lat="33.4856925" lon="10.0701644"><ele>483.0</ele><time>2026-04-26T08:18:52.679Z</time></trkpt><trkpt lat="33.4857953" lon="10.0703222"><ele>483.0</ele><time>2026-04-26T08:18:53.671Z</time></trkpt><trkpt lat="33.4858973" lon="10.0704919"><ele>483.0</ele><time>2026-04-26T08:18:54.68Z</time></trkpt><trkpt lat="33.4859954" lon="10.0706649"><ele>483.0</ele><time>2026-04-26T08:18:55.691Z</time></trkpt><trkpt lat="33.4860774" lon="10.0708405"><ele>482.66666666666663</ele><time>2026-04-26T08:18:56.684Z</time></trkpt><trkpt lat="33.486134" lon="10.0710253"><ele>482.3333333333333</ele><time>2026-04-26T08:18:57.678Z</time></trkpt><trkpt lat="33.4861861" lon="10.0712"><ele>482.0</ele><time>2026-04-26T08:18:58.686Z</time></trkpt><trkpt lat="33.4862394" lon="10.0713751"><ele>481.0</ele><time>2026-04-26T08:18:59.681Z</time></trkpt><trkpt lat="33.4862933" lon="10.0715463"><ele>480.0</ele><time>2026-04-26T08:19:00.67Z</time></trkpt><trkpt lat="33.4863489" lon="10.0717161"><ele>479.0</ele><time>2026-04-26T08:19:01.677Z</time></trkpt><trkpt lat="33.4863984" lon="10.0718794"><ele>479.0</ele><time>2026-04-26T08:19:02.682Z</time></trkpt><trkpt lat="33.4864478" lon="10.0720413"><ele>479.0</ele><time>2026-04-26T08:19:03.683Z</time></trkpt><trkpt lat="33.4864963" lon="10.0722059"><ele>479.0</ele><time>2026-04-26T08:19:04.67Z</time></trkpt><trkpt lat="33.4865368" lon="10.0723679"><ele>479.0</ele><time>2026-04-26T08:19:05.694Z</time></trkpt><trkpt lat="33.4865789" lon="10.0725303"><ele>479.25</ele><time>2026-04-26T08:19:06.685Z</time></trkpt><trkpt lat="33.4866224" lon="10.0726877"><ele>479.5</ele><time>2026-04-26T08:19:07.685Z</time></trkpt><trkpt lat="33.4866694" lon="10.0728468"><ele>479.75</ele><time>2026-04-26T08:19:08.687Z</time></trkpt><trkpt lat="33.4867193" lon="10.0730012"><ele>480.0</ele><time>2026-04-26T08:19:09.685Z</time></trkpt><trkpt lat="33.4867731" lon="10.0731453"><ele>481.0</ele><time>2026-04-26T08:19:10.682Z</time></trkpt><trkpt lat="33.4868277" lon="10.0732759"><ele>482.0</ele><time>2026-04-26T08:19:11.686Z</time></trkpt><trkpt lat="33.4868937" lon="10.0734063"><ele>483.0</ele><time>2026-04-26T08:19:12.681Z</time></trkpt><trkpt lat="33.4869746" lon="10.0735312"><ele>484.0</ele><time>2026-04-26T08:19:13.679Z</time></trkpt><trkpt lat="33.4870642" lon="10.073643"><ele>483.75</ele><time>2026-04-26T08:19:14.682Z</time></trkpt><trkpt lat="33.4871587" lon="10.0737391"><ele>483.5</ele><time>2026-04-26T08:19:15.691Z</time></trkpt><trkpt lat="33.4872573" lon="10.0738218"><ele>483.25</ele><time>2026-04-26T08:19:16.683Z</time></trkpt><trkpt lat="33.4873622" lon="10.0738964"><ele>483.0</ele><time>2026-04-26T08:19:17.672Z</time></trkpt><trkpt lat="33.4874651" lon="10.0739715"><ele>483.0</ele><time>2026-04-26T08:19:18.672Z</time></trkpt><trkpt lat="33.4875587" lon="10.0740504"><ele>483.0</ele><time>2026-04-26T08:19:19.678Z</time></trkpt><trkpt lat="33.4876516" lon="10.0741401"><ele>483.0</ele><time>2026-04-26T08:19:20.68Z</time></trkpt><trkpt lat="33.4877416" lon="10.0742356"><ele>483.0</ele><time>2026-04-26T08:19:21.669Z</time></trkpt><trkpt lat="33.4878174" lon="10.0743468"><ele>484.25</ele><time>2026-04-26T08:19:22.681Z</time></trkpt><trkpt lat="33.4878676" lon="10.0744602"><ele>485.5</ele><time>2026-04-26T08:19:23.684Z</time></trkpt><trkpt lat="33.4878913" lon="10.0746121"><ele>486.75</ele><time>2026-04-26T08:19:24.688Z</time></trkpt><trkpt lat="33.4878796" lon="10.0747677"><ele>488.0</ele><time>2026-04-26T08:19:25.674Z</time></trkpt><trkpt lat="33.4878427" lon="10.0749148"><ele>488.25</ele><time>2026-04-26T08:19:26.685Z</time></trkpt><trkpt lat="33.4877704" lon="10.0750548"><ele>488.5</ele><time>2026-04-26T08:19:27.679Z</time></trkpt><trkpt lat="33.4876797" lon="10.0751923"><ele>488.75</ele><time>2026-04-26T08:19:28.677Z</time></trkpt><trkpt lat="33.4875782" lon="10.0753286"><ele>489.0</ele><time>2026-04-26T08:19:29.683Z</time></trkpt><trkpt lat="33.487474" lon="10.0754709"><ele>489.0</ele><time>2026-04-26T08:19:30.676Z</time></trkpt><trkpt lat="33.4873674" lon="10.075622"><ele>489.0</ele><time>2026-04-26T08:19:31.683Z</time></trkpt><trkpt lat="33.4872697" lon="10.0757617"><ele>489.0</ele><time>2026-04-26T08:19:32.674Z</time></trkpt><trkpt lat="33.4871681" lon="10.0759"><ele>488.25</ele><time>2026-04-26T08:19:33.685Z</time></trkpt><trkpt lat="33.4870667" lon="10.0760373"><ele>487.5</ele><time>2026-04-26T08:19:34.687Z</time></trkpt><trkpt lat="33.4869625" lon="10.0761571"><ele>486.75</ele><time>2026-04-26T08:19:35.707Z</time></trkpt><trkpt lat="33.4868564" lon="10.0762598"><ele>486.0</ele><time>2026-04-26T08:19:36.675Z</time></trkpt><trkpt lat="33.4867493" lon="10.076343"><ele>486.0</ele><time>2026-04-26T08:19:37.676Z</time></trkpt><trkpt lat="33.4866304" lon="10.0763977"><ele>486.0</ele><time>2026-04-26T08:19:38.677Z</time></trkpt><trkpt lat="33.4865078" lon="10.0764523"><ele>486.0</ele><time>2026-04-26T08:19:39.666Z</time></trkpt><trkpt lat="33.4863837" lon="10.0765124"><ele>486.0</ele><time>2026-04-26T08:19:40.679Z</time></trkpt><trkpt lat="33.4862756" lon="10.07658"><ele>485.5</ele><time>2026-04-26T08:19:41.667Z</time></trkpt><trkpt lat="33.4861888" lon="10.0766721"><ele>485.0</ele><time>2026-04-26T08:19:42.679Z</time></trkpt><trkpt lat="33.4861273" lon="10.0767951"><ele>484.5</ele><time>2026-04-26T08:19:43.68Z</time></trkpt><trkpt lat="33.4860814" lon="10.0769422"><ele>484.0</ele><time>2026-04-26T08:19:44.682Z</time></trkpt><trkpt lat="33.4860563" lon="10.0770991"><ele>484.0</ele><time>2026-04-26T08:19:45.676Z</time></trkpt><trkpt lat="33.4860332" lon="10.0772639"><ele>484.0</ele><time>2026-04-26T08:19:46.67Z</time></trkpt><trkpt lat="33.4860153" lon="10.0774334"><ele>484.0</ele><time>2026-04-26T08:19:47.684Z</time></trkpt><trkpt lat="33.4860034" lon="10.0776078"><ele>484.0</ele><time>2026-04-26T08:19:48.687Z</time></trkpt><trkpt lat="33.4860057" lon="10.0777807"><ele>483.75</ele><time>2026-04-26T08:19:49.684Z</time></trkpt><trkpt lat="33.4860089" lon="10.0779519"><ele>483.5</ele><time>2026-04-26T08:19:50.682Z</time></trkpt><trkpt lat="33.4860239" lon="10.0781055"><ele>483.25</ele><time>2026-04-26T08:19:51.675Z</time></trkpt><trkpt lat="33.4860369" lon="10.0782569"><ele>483.0</ele><time>2026-04-26T08:19:52.684Z</time></trkpt><trkpt lat="33.4860569" lon="10.0784014"><ele>481.0</ele><time>2026-04-26T08:19:53.674Z</time></trkpt><trkpt lat="33.4860758" lon="10.0785459"><ele>479.0</ele><time>2026-04-26T08:19:54.68Z</time></trkpt><trkpt lat="33.4860957" lon="10.0786814"><ele>477.0</ele><time>2026-04-26T08:19:55.689Z</time></trkpt><trkpt lat="33.4861115" lon="10.078811"><ele>475.0</ele><time>2026-04-26T08:19:56.678Z</time></trkpt><trkpt lat="33.4861306" lon="10.0789392"><ele>475.0</ele><time>2026-04-26T08:19:57.673Z</time></trkpt><trkpt lat="33.4861585" lon="10.0790708"><ele>475.0</ele><time>2026-04-26T08:19:58.665Z</time></trkpt><trkpt lat="33.4862065" lon="10.0792"><ele>475.0</ele><time>2026-04-26T08:19:59.672Z</time></trkpt><trkpt lat="33.4862627" lon="10.0793164"><ele>475.0</ele><time>2026-04-26T08:20:00.676Z</time></trkpt><trkpt lat="33.4863264" lon="10.0794285"><ele>473.0</ele><time>2026-04-26T08:20:01.678Z</time></trkpt><trkpt lat="33.4864002" lon="10.0795405"><ele>471.0</ele><time>2026-04-26T08:20:02.677Z</time></trkpt><trkpt lat="33.4864912" lon="10.0796403"><ele>469.0</ele><time>2026-04-26T08:20:03.675Z</time></trkpt><trkpt lat="33.4865803" lon="10.0797364"><ele>467.0</ele><time>2026-04-26T08:20:04.685Z</time></trkpt><trkpt lat="33.4866683" lon="10.0798248"><ele>467.0</ele><time>2026-04-26T08:20:05.678Z</time></trkpt><trkpt lat="33.4867528" lon="10.0799162"><ele>467.00000000000006</ele><time>2026-04-26T08:20:06.676Z</time></trkpt><trkpt lat="33.4868096" lon="10.080023"><ele>467.00000000000006</ele><time>2026-04-26T08:20:07.678Z</time></trkpt><trkpt lat="33.4868483" lon="10.0801412"><ele>467.0</ele><time>2026-04-26T08:20:08.669Z</time></trkpt><trkpt lat="33.4868728" lon="10.080268"><ele>467.0</ele><time>2026-04-26T08:20:09.67Z</time></trkpt><trkpt lat="33.4868893" lon="10.0803975"><ele>468.75</ele><time>2026-04-26T08:20:10.67Z</time></trkpt><trkpt lat="33.4868956" lon="10.0805285"><ele>470.5</ele><time>2026-04-26T08:20:11.675Z</time></trkpt><trkpt lat="33.4868976" lon="10.0806637"><ele>472.25</ele><time>2026-04-26T08:20:12.669Z</time></trkpt><trkpt lat="33.4868942" lon="10.0807978"><ele>474.0</ele><time>2026-04-26T08:20:13.67Z</time></trkpt><trkpt lat="33.4868757" lon="10.0809387"><ele>475.6</ele><time>2026-04-26T08:20:14.678Z</time></trkpt><trkpt lat="33.486858" lon="10.0810801"><ele>477.2</ele><time>2026-04-26T08:20:15.685Z</time></trkpt><trkpt lat="33.4868414" lon="10.0812091"><ele>478.80000000000007</ele><time>2026-04-26T08:20:16.681Z</time></trkpt><trkpt lat="33.4868276" lon="10.0813331"><ele>480.40000000000003</ele><time>2026-04-26T08:20:17.678Z</time></trkpt><trkpt lat="33.4868248" lon="10.0814552"><ele>482.0</ele><time>2026-04-26T08:20:18.681Z</time></trkpt><trkpt lat="33.4868255" lon="10.0815814"><ele>482.25</ele><time>2026-04-26T08:20:19.666Z</time></trkpt><trkpt lat="33.4868403" lon="10.0817124"><ele>482.5</ele><time>2026-04-26T08:20:20.669Z</time></trkpt><trkpt lat="33.4868747" lon="10.0818472"><ele>482.75</ele><time>2026-04-26T08:20:21.667Z</time></trkpt><trkpt lat="33.4869297" lon="10.0819751"><ele>483.0</ele><time>2026-04-26T08:20:22.673Z</time></trkpt><trkpt lat="33.4870024" lon="10.0820898"><ele>483.0</ele><time>2026-04-26T08:20:23.684Z</time></trkpt><trkpt lat="33.4870822" lon="10.0822056"><ele>483.0</ele><time>2026-04-26T08:20:24.68Z</time></trkpt><trkpt lat="33.4871594" lon="10.0823196"><ele>483.0</ele><time>2026-04-26T08:20:25.674Z</time></trkpt><trkpt lat="33.4871973" lon="10.0824504"><ele>483.0</ele><time>2026-04-26T08:20:26.672Z</time></trkpt><trkpt lat="33.4871973" lon="10.0825931"><ele>483.0</ele><time>2026-04-26T08:20:27.679Z</time></trkpt><trkpt lat="33.4871633" lon="10.082758"><ele>483.0</ele><time>2026-04-26T08:20:28.68Z</time></trkpt><trkpt lat="33.487131" lon="10.082922"><ele>483.0</ele><time>2026-04-26T08:20:29.671Z</time></trkpt><trkpt lat="33.4870998" lon="10.0830877"><ele>483.0</ele><time>2026-04-26T08:20:30.68Z</time></trkpt><trkpt lat="33.4870549" lon="10.0832487"><ele>483.0</ele><time>2026-04-26T08:20:31.672Z</time></trkpt><trkpt lat="33.4870113" lon="10.0834159"><ele>483.0</ele><time>2026-04-26T08:20:32.683Z</time></trkpt><trkpt lat="33.4869752" lon="10.0835775"><ele>483.0</ele><time>2026-04-26T08:20:33.684Z</time></trkpt><trkpt lat="33.4869394" lon="10.0837416"><ele>483.0</ele><time>2026-04-26T08:20:34.684Z</time></trkpt><trkpt lat="33.4869082" lon="10.0839107"><ele>483.0</ele><time>2026-04-26T08:20:35.676Z</time></trkpt><trkpt lat="33.4868775" lon="10.0840786"><ele>483.0</ele><time>2026-04-26T08:20:36.673Z</time></trkpt><trkpt lat="33.4868402" lon="10.084249"><ele>483.0</ele><time>2026-04-26T08:20:37.675Z</time></trkpt><trkpt lat="33.4868117" lon="10.084413"><ele>483.0</ele><time>2026-04-26T08:20:38.674Z</time></trkpt><trkpt lat="33.4867967" lon="10.0845797"><ele>484.5</ele><time>2026-04-26T08:20:39.674Z</time></trkpt><trkpt lat="33.4867805" lon="10.0847518"><ele>486.0</ele><time>2026-04-26T08:20:40.661Z</time></trkpt><trkpt lat="33.4867653" lon="10.0849217"><ele>487.5</ele><time>2026-04-26T08:20:41.679Z</time></trkpt><trkpt lat="33.4867558" lon="10.0850904"><ele>489.0</ele><time>2026-04-26T08:20:42.662Z</time></trkpt><trkpt lat="33.4867432" lon="10.0852588"><ele>489.25</ele><time>2026-04-26T08:20:43.683Z</time></trkpt><trkpt lat="33.4867283" lon="10.0854224"><ele>489.5</ele><time>2026-04-26T08:20:44.683Z</time></trkpt><trkpt lat="33.4867145" lon="10.085591"><ele>489.75</ele><time>2026-04-26T08:20:45.684Z</time></trkpt><trkpt lat="33.4867012" lon="10.0857633"><ele>490.0</ele><time>2026-04-26T08:20:46.683Z</time></trkpt><trkpt lat="33.4866906" lon="10.0859318"><ele>490.75</ele><time>2026-04-26T08:20:47.692Z</time></trkpt><trkpt lat="33.4866781" lon="10.0861009"><ele>491.5</ele><time>2026-04-26T08:20:48.676Z</time></trkpt><trkpt lat="33.4866619" lon="10.0862691"><ele>492.25</ele><time>2026-04-26T08:20:49.679Z</time></trkpt><trkpt lat="33.4866473" lon="10.0864395"><ele>493.0</ele><time>2026-04-26T08:20:50.681Z</time></trkpt><trkpt lat="33.4866328" lon="10.086608"><ele>494.75</ele><time>2026-04-26T08:20:51.678Z</time></trkpt><trkpt lat="33.4866176" lon="10.0867713"><ele>496.5</ele><time>2026-04-26T08:20:52.68Z</time></trkpt><trkpt lat="33.4866041" lon="10.086929"><ele>498.25</ele><time>2026-04-26T08:20:53.68Z</time></trkpt><trkpt lat="33.4865901" lon="10.087088"><ele>500.0</ele><time>2026-04-26T08:20:54.678Z</time></trkpt><trkpt lat="33.4865785" lon="10.0872425"><ele>500.0</ele><time>2026-04-26T08:20:55.679Z</time></trkpt><trkpt lat="33.4865621" lon="10.0873905"><ele>500.0</ele><time>2026-04-26T08:20:56.684Z</time></trkpt><trkpt lat="33.4865329" lon="10.0875316"><ele>500.0</ele><time>2026-04-26T08:20:57.688Z</time></trkpt><trkpt lat="33.4864951" lon="10.0876659"><ele>500.0</ele><time>2026-04-26T08:20:58.666Z</time></trkpt><trkpt lat="33.4864537" lon="10.0877916"><ele>500.25</ele><time>2026-04-26T08:20:59.665Z</time></trkpt><trkpt lat="33.4864037" lon="10.0879151"><ele>500.5</ele><time>2026-04-26T08:21:00.669Z</time></trkpt><trkpt lat="33.4863532" lon="10.0880282"><ele>500.75</ele><time>2026-04-26T08:21:01.68Z</time></trkpt><trkpt lat="33.4862916" lon="10.0881376"><ele>501.0</ele><time>2026-04-26T08:21:02.677Z</time></trkpt><trkpt lat="33.4862217" lon="10.088253"><ele>502.0</ele><time>2026-04-26T08:21:03.683Z</time></trkpt><trkpt lat="33.4861565" lon="10.0883698"><ele>503.0</ele><time>2026-04-26T08:21:04.688Z</time></trkpt><trkpt lat="33.4861078" lon="10.088488"><ele>504.0</ele><time>2026-04-26T08:21:05.681Z</time></trkpt><trkpt lat="33.4860793" lon="10.0886082"><ele>505.0</ele><time>2026-04-26T08:21:06.675Z</time></trkpt><trkpt lat="33.486075" lon="10.0887339"><ele>506.0</ele><time>2026-04-26T08:21:07.675Z</time></trkpt><trkpt lat="33.4861068" lon="10.0888766"><ele>506.0</ele><time>2026-04-26T08:21:08.675Z</time></trkpt><trkpt lat="33.4861495" lon="10.0890108"><ele>506.0</ele><time>2026-04-26T08:21:09.678Z</time></trkpt><trkpt lat="33.4862149" lon="10.089144"><ele>506.0</ele><time>2026-04-26T08:21:10.679Z</time></trkpt><trkpt lat="33.4862855" lon="10.0892761"><ele>506.0</ele><time>2026-04-26T08:21:11.673Z</time></trkpt><trkpt lat="33.4863392" lon="10.0894118"><ele>507.75</ele><time>2026-04-26T08:21:12.68Z</time></trkpt><trkpt lat="33.4863797" lon="10.0895609"><ele>509.5</ele><time>2026-04-26T08:21:13.666Z</time></trkpt><trkpt lat="33.4863866" lon="10.08972"><ele>511.25</ele><time>2026-04-26T08:21:14.68Z</time></trkpt><trkpt lat="33.4863785" lon="10.089871"><ele>513.0</ele><time>2026-04-26T08:21:15.683Z</time></trkpt><trkpt lat="33.4863524" lon="10.090019"><ele>514.0</ele><time>2026-04-26T08:21:16.669Z</time></trkpt><trkpt lat="33.4863186" lon="10.0901793"><ele>515.0</ele><time>2026-04-26T08:21:17.674Z</time></trkpt><trkpt lat="33.4862789" lon="10.0903414"><ele>516.0</ele><time>2026-04-26T08:21:18.669Z</time></trkpt><trkpt lat="33.4862293" lon="10.0905046"><ele>517.0</ele><time>2026-04-26T08:21:19.676Z</time></trkpt><trkpt lat="33.4861753" lon="10.0906679"><ele>516.25</ele><time>2026-04-26T08:21:20.671Z</time></trkpt><trkpt lat="33.4861331" lon="10.0908357"><ele>515.5</ele><time>2026-04-26T08:21:21.676Z</time></trkpt><trkpt lat="33.4861173" lon="10.0909939"><ele>514.75</ele><time>2026-04-26T08:21:22.675Z</time></trkpt><trkpt lat="33.4861229" lon="10.091156"><ele>514.0</ele><time>2026-04-26T08:21:23.679Z</time></trkpt><trkpt lat="33.4861534" lon="10.0913137"><ele>514.0</ele><time>2026-04-26T08:21:24.679Z</time></trkpt><trkpt lat="33.4861957" lon="10.091468"><ele>514.0</ele><time>2026-04-26T08:21:25.683Z</time></trkpt><trkpt lat="33.4862496" lon="10.0916186"><ele>514.0</ele><time>2026-04-26T08:21:26.681Z</time></trkpt><trkpt lat="33.4862964" lon="10.0917775"><ele>514.0</ele><time>2026-04-26T08:21:27.676Z</time></trkpt><trkpt lat="33.4863451" lon="10.091937"><ele>514.0</ele><time>2026-04-26T08:21:28.678Z</time></trkpt><trkpt lat="33.4863898" lon="10.0920988"><ele>514.0</ele><time>2026-04-26T08:21:29.669Z</time></trkpt><trkpt lat="33.4864339" lon="10.0922761"><ele>514.0</ele><time>2026-04-26T08:21:30.677Z</time></trkpt><trkpt lat="33.4864873" lon="10.0924546"><ele>514.0</ele><time>2026-04-26T08:21:31.685Z</time></trkpt><trkpt lat="33.4865405" lon="10.0926301"><ele>514.0</ele><time>2026-04-26T08:21:32.682Z</time></trkpt><trkpt lat="33.4865885" lon="10.0928141"><ele>514.0</ele><time>2026-04-26T08:21:33.682Z</time></trkpt><trkpt lat="33.4866397" lon="10.0929898"><ele>514.0</ele><time>2026-04-26T08:21:34.68Z</time></trkpt><trkpt lat="33.4866958" lon="10.0931697"><ele>514.0</ele><time>2026-04-26T08:21:35.674Z</time></trkpt><trkpt lat="33.4867543" lon="10.0933413"><ele>514.0</ele><time>2026-04-26T08:21:36.681Z</time></trkpt><trkpt lat="33.486817" lon="10.0935"><ele>514.0</ele><time>2026-04-26T08:21:37.673Z</time></trkpt><trkpt lat="33.4868991" lon="10.0936428"><ele>514.0</ele><time>2026-04-26T08:21:38.676Z</time></trkpt><trkpt lat="33.4869905" lon="10.0937731"><ele>514.0</ele><time>2026-04-26T08:21:39.671Z</time></trkpt><trkpt lat="33.4870959" lon="10.0938962"><ele>514.0</ele><time>2026-04-26T08:21:40.678Z</time></trkpt><trkpt lat="33.4872143" lon="10.0940067"><ele>516.0</ele><time>2026-04-26T08:21:41.671Z</time></trkpt><trkpt lat="33.4873424" lon="10.0941157"><ele>518.0</ele><time>2026-04-26T08:21:42.677Z</time></trkpt><trkpt lat="33.4874792" lon="10.0942156"><ele>520.0</ele><time>2026-04-26T08:21:43.679Z</time></trkpt><trkpt lat="33.4876224" lon="10.0943084"><ele>520.0</ele><time>2026-04-26T08:21:44.665Z</time></trkpt><trkpt lat="33.4877667" lon="10.094401"><ele>520.0</ele><time>2026-04-26T08:21:45.685Z</time></trkpt><trkpt lat="33.4879187" lon="10.0944922"><ele>520.0</ele><time>2026-04-26T08:21:46.673Z</time></trkpt><trkpt lat="33.4880738" lon="10.0945796"><ele>518.3333333333334</ele><time>2026-04-26T08:21:47.684Z</time></trkpt><trkpt lat="33.488223" lon="10.094667"><ele>516.6666666666666</ele><time>2026-04-26T08:21:48.684Z</time></trkpt><trkpt lat="33.4883651" lon="10.0947554"><ele>515.0</ele><time>2026-04-26T08:21:49.685Z</time></trkpt><trkpt lat="33.488508" lon="10.0948515"><ele>516.0</ele><time>2026-04-26T08:21:50.682Z</time></trkpt><trkpt lat="33.4886424" lon="10.0949583"><ele>517.0</ele><time>2026-04-26T08:21:51.688Z</time></trkpt><trkpt lat="33.4887732" lon="10.0950737"><ele>518.0</ele><time>2026-04-26T08:21:52.683Z</time></trkpt><trkpt lat="33.4889017" lon="10.0951963"><ele>518.0</ele><time>2026-04-26T08:21:53.668Z</time></trkpt><trkpt lat="33.4890288" lon="10.0953277"><ele>518.0</ele><time>2026-04-26T08:21:54.666Z</time></trkpt><trkpt lat="33.489158" lon="10.0954484"><ele>518.0</ele><time>2026-04-26T08:21:55.679Z</time></trkpt><trkpt lat="33.4892871" lon="10.0955627"><ele>518.0</ele><time>2026-04-26T08:21:56.685Z</time></trkpt><trkpt lat="33.4894231" lon="10.0956636"><ele>518.0</ele><time>2026-04-26T08:21:57.679Z</time></trkpt><trkpt lat="33.4895745" lon="10.0957471"><ele>518.0</ele><time>2026-04-26T08:21:58.67Z</time></trkpt><trkpt lat="33.4897238" lon="10.0958122"><ele>520.6666666666666</ele><time>2026-04-26T08:21:59.667Z</time></trkpt><trkpt lat="33.489878" lon="10.0958583"><ele>523.3333333333334</ele><time>2026-04-26T08:22:00.673Z</time></trkpt><trkpt lat="33.4900368" lon="10.095896"><ele>526.0</ele><time>2026-04-26T08:22:01.667Z</time></trkpt><trkpt lat="33.4901962" lon="10.0959252"><ele>526.0</ele><time>2026-04-26T08:22:02.671Z</time></trkpt><trkpt lat="33.4903583" lon="10.0959509"><ele>526.0</ele><time>2026-04-26T08:22:03.687Z</time></trkpt><trkpt lat="33.4905164" lon="10.0959717"><ele>526.0</ele><time>2026-04-26T08:22:04.67Z</time></trkpt><trkpt lat="33.490676" lon="10.0959956"><ele>527.3333333333334</ele><time>2026-04-26T08:22:05.675Z</time></trkpt><trkpt lat="33.4908293" lon="10.0960224"><ele>528.6666666666666</ele><time>2026-04-26T08:22:06.679Z</time></trkpt><trkpt lat="33.4909801" lon="10.0960494"><ele>530.0</ele><time>2026-04-26T08:22:07.676Z</time></trkpt><trkpt lat="33.491129" lon="10.0960779"><ele>531.0</ele><time>2026-04-26T08:22:08.677Z</time></trkpt><trkpt lat="33.4912646" lon="10.0961141"><ele>532.0</ele><time>2026-04-26T08:22:09.676Z</time></trkpt><trkpt lat="33.4913933" lon="10.0961556"><ele>533.0</ele><time>2026-04-26T08:22:10.677Z</time></trkpt><trkpt lat="33.4915181" lon="10.0962078"><ele>534.0</ele><time>2026-04-26T08:22:11.665Z</time></trkpt><trkpt lat="33.4916478" lon="10.0962614"><ele>534.0</ele><time>2026-04-26T08:22:12.667Z</time></trkpt><trkpt lat="33.4917717" lon="10.0963301"><ele>534.0</ele><time>2026-04-26T08:22:13.673Z</time></trkpt><trkpt lat="33.4919003" lon="10.096414"><ele>534.0</ele><time>2026-04-26T08:22:14.676Z</time></trkpt><trkpt lat="33.4920269" lon="10.0965076"><ele>534.0</ele><time>2026-04-26T08:22:15.673Z</time></trkpt><trkpt lat="33.4921465" lon="10.0966172"><ele>532.6666666666666</ele><time>2026-04-26T08:22:16.67Z</time></trkpt><trkpt lat="33.4922654" lon="10.0967414"><ele>531.3333333333333</ele><time>2026-04-26T08:22:17.677Z</time></trkpt><trkpt lat="33.4923838" lon="10.0968784"><ele>530.0</ele><time>2026-04-26T08:22:18.674Z</time></trkpt><trkpt lat="33.4924977" lon="10.0970237"><ele>530.0</ele><time>2026-04-26T08:22:19.665Z</time></trkpt><trkpt lat="33.4926173" lon="10.0971745"><ele>530.0</ele><time>2026-04-26T08:22:20.673Z</time></trkpt><trkpt lat="33.4927341" lon="10.0973215"><ele>530.0</ele><time>2026-04-26T08:22:21.671Z</time></trkpt><trkpt lat="33.4928513" lon="10.0974685"><ele>527.6666666666666</ele><time>2026-04-26T08:22:22.676Z</time></trkpt><trkpt lat="33.492966" lon="10.0976113"><ele>525.3333333333334</ele><time>2026-04-26T08:22:23.667Z</time></trkpt><trkpt lat="33.4930609" lon="10.0977488"><ele>523.0</ele><time>2026-04-26T08:22:24.677Z</time></trkpt><trkpt lat="33.4931455" lon="10.0978936"><ele>523.0</ele><time>2026-04-26T08:22:25.677Z</time></trkpt><trkpt lat="33.4931963" lon="10.0980487"><ele>523.0</ele><time>2026-04-26T08:22:26.672Z</time></trkpt><trkpt lat="33.4932105" lon="10.0982169"><ele>523.0</ele><time>2026-04-26T08:22:27.686Z</time></trkpt><trkpt lat="33.493173" lon="10.0983937"><ele>523.0</ele><time>2026-04-26T08:22:28.677Z</time></trkpt><trkpt lat="33.4931209" lon="10.0985552"><ele>524.75</ele><time>2026-04-26T08:22:29.681Z</time></trkpt><trkpt lat="33.4930707" lon="10.0987092"><ele>526.5</ele><time>2026-04-26T08:22:30.684Z</time></trkpt><trkpt lat="33.4930347" lon="10.0988444"><ele>528.25</ele><time>2026-04-26T08:22:31.704Z</time></trkpt><trkpt lat="33.4930212" lon="10.0989717"><ele>530.0</ele><time>2026-04-26T08:22:32.683Z</time></trkpt><trkpt lat="33.493012" lon="10.099098"><ele>531.75</ele><time>2026-04-26T08:22:33.676Z</time></trkpt><trkpt lat="33.4930152" lon="10.0992163"><ele>533.5</ele><time>2026-04-26T08:22:34.68Z</time></trkpt><trkpt lat="33.4930494" lon="10.0993394"><ele>535.25</ele><time>2026-04-26T08:22:35.683Z</time></trkpt><trkpt lat="33.4930969" lon="10.0994749"><ele>537.0</ele><time>2026-04-26T08:22:36.682Z</time></trkpt><trkpt lat="33.4931446" lon="10.0996139"><ele>537.0</ele><time>2026-04-26T08:22:37.664Z</time></trkpt><trkpt lat="33.4931986" lon="10.0997458"><ele>537.0</ele><time>2026-04-26T08:22:38.674Z</time></trkpt><trkpt lat="33.4932587" lon="10.0998834"><ele>537.0</ele><time>2026-04-26T08:22:39.666Z</time></trkpt><trkpt lat="33.4933284" lon="10.100019"><ele>537.0</ele><time>2026-04-26T08:22:40.675Z</time></trkpt><trkpt lat="33.4934004" lon="10.1001574"><ele>538.0</ele><time>2026-04-26T08:22:41.675Z</time></trkpt><trkpt lat="33.4934759" lon="10.1002948"><ele>539.0</ele><time>2026-04-26T08:22:42.675Z</time></trkpt><trkpt lat="33.4935611" lon="10.1004274"><ele>540.0</ele><time>2026-04-26T08:22:43.678Z</time></trkpt><trkpt lat="33.4936456" lon="10.1005667"><ele>541.0</ele><time>2026-04-26T08:22:44.677Z</time></trkpt><trkpt lat="33.4937291" lon="10.1007002"><ele>541.0</ele><time>2026-04-26T08:22:45.673Z</time></trkpt><trkpt lat="33.4938073" lon="10.1008227"><ele>541.0</ele><time>2026-04-26T08:22:46.678Z</time></trkpt><trkpt lat="33.4938801" lon="10.1009327"><ele>541.0</ele><time>2026-04-26T08:22:47.681Z</time></trkpt><trkpt lat="33.4939435" lon="10.1010267"><ele>541.0</ele><time>2026-04-26T08:22:48.67Z</time></trkpt><trkpt lat="33.4939937" lon="10.1011008"><ele>541.0</ele><time>2026-04-26T08:22:49.684Z</time></trkpt><trkpt lat="33.4940601" lon="10.1011942"><ele>541.0</ele><time>2026-04-26T08:22:51.681Z</time></trkpt><trkpt lat="33.4941145" lon="10.1012491"><ele>541.0</ele><time>2026-04-26T08:22:53.684Z</time></trkpt><trkpt lat="33.4941503" lon="10.1013691"><ele>541.0</ele><time>2026-04-26T08:22:55.676Z</time></trkpt><trkpt lat="33.4941802" lon="10.1015091"><ele>541.0</ele><time>2026-04-26T08:22:57.669Z</time></trkpt><trkpt lat="33.4942187" lon="10.1016214"><ele>541.0</ele><time>2026-04-26T08:22:59.67Z</time></trkpt><trkpt lat="33.4942673" lon="10.1016863"><ele>540.3333333333334</ele><time>2026-04-26T08:23:01.668Z</time></trkpt><trkpt lat="33.4943126" lon="10.1017474"><ele>539.6666666666667</ele><time>2026-04-26T08:23:03.675Z</time></trkpt><trkpt lat="33.4943321" lon="10.1018493"><ele>539.0</ele><time>2026-04-26T08:23:05.671Z</time></trkpt><trkpt lat="33.4943388" lon="10.1019497"><ele>538.3333333333334</ele><time>2026-04-26T08:23:07.675Z</time></trkpt><trkpt lat="33.4943248" lon="10.1020406"><ele>537.6666666666666</ele><time>2026-04-26T08:23:09.67Z</time></trkpt><trkpt lat="33.4942932" lon="10.102137"><ele>537.0</ele><time>2026-04-26T08:23:12.675Z</time></trkpt><trkpt lat="33.4943112" lon="10.102214"><ele>536.9999999999999</ele><time>2026-04-26T08:23:29.668Z</time></trkpt><trkpt lat="33.4943737" lon="10.102203"><ele>537.0</ele><time>2026-04-26T08:33:34.68Z</time></trkpt><trkpt lat="33.4943552" lon="10.1021207"><ele>537.0</ele><time>2026-04-26T08:33:39.7Z</time></trkpt><trkpt lat="33.4943192" lon="10.1020445"><ele>537.0</ele><time>2026-04-26T08:33:42.705Z</time></trkpt><trkpt lat="33.4943188" lon="10.1019607"><ele>537.0</ele><time>2026-04-26T08:33:45.701Z</time></trkpt><trkpt lat="33.4943275" lon="10.1018746"><ele>536.9999999999999</ele><time>2026-04-26T08:33:48.673Z</time></trkpt><trkpt lat="33.4943261" lon="10.1017857"><ele>537.0</ele><time>2026-04-26T08:33:51.661Z</time></trkpt><trkpt lat="33.4942975" lon="10.101716"><ele>537.0</ele><time>2026-04-26T08:33:53.723Z</time></trkpt><trkpt lat="33.4942388" lon="10.1016827"><ele>537.0</ele><time>2026-04-26T08:33:56.679Z</time></trkpt><trkpt lat="33.494162" lon="10.1017286"><ele>537.0</ele><time>2026-04-26T08:33:59.676Z</time></trkpt><trkpt lat="33.494063" lon="10.1018206"><ele>537.0</ele><time>2026-04-26T08:34:01.681Z</time></trkpt><trkpt lat="33.4940106" lon="10.1018763"><ele>537.0</ele><time>2026-04-26T08:34:02.693Z</time></trkpt><trkpt lat="33.4939428" lon="10.1019311"><ele>537.0</ele><time>2026-04-26T08:34:03.684Z</time></trkpt><trkpt lat="33.4938654" lon="10.1019923"><ele>537.0</ele><time>2026-04-26T08:34:04.686Z</time></trkpt><trkpt lat="33.4937804" lon="10.1020544"><ele>537.0</ele><time>2026-04-26T08:34:05.689Z</time></trkpt><trkpt lat="33.4936952" lon="10.102111"><ele>537.0</ele><time>2026-04-26T08:34:06.68Z</time></trkpt><trkpt lat="33.4936011" lon="10.102167"><ele>537.0</ele><time>2026-04-26T08:34:07.714Z</time></trkpt><trkpt lat="33.493502" lon="10.1022247"><ele>537.0</ele><time>2026-04-26T08:34:08.684Z</time></trkpt><trkpt lat="33.493401" lon="10.1022723"><ele>536.25</ele><time>2026-04-26T08:34:09.687Z</time></trkpt><trkpt lat="33.493289" lon="10.1023029"><ele>535.5</ele><time>2026-04-26T08:34:10.698Z</time></trkpt><trkpt lat="33.4931727" lon="10.1023205"><ele>534.75</ele><time>2026-04-26T08:34:11.682Z</time></trkpt><trkpt lat="33.4930566" lon="10.1023251"><ele>534.0</ele><time>2026-04-26T08:34:12.718Z</time></trkpt><trkpt lat="33.4929383" lon="10.1023338"><ele>532.75</ele><time>2026-04-26T08:34:13.684Z</time></trkpt><trkpt lat="33.4928169" lon="10.1023461"><ele>531.5</ele><time>2026-04-26T08:34:14.695Z</time></trkpt><trkpt lat="33.4926966" lon="10.1023491"><ele>530.25</ele><time>2026-04-26T08:34:15.686Z</time></trkpt><trkpt lat="33.492587" lon="10.1023507"><ele>529.0</ele><time>2026-04-26T08:34:16.676Z</time></trkpt><trkpt lat="33.4924706" lon="10.1023631"><ele>529.0</ele><time>2026-04-26T08:34:17.682Z</time></trkpt><trkpt lat="33.4923583" lon="10.1023849"><ele>529.0</ele><time>2026-04-26T08:34:18.683Z</time></trkpt><trkpt lat="33.4922502" lon="10.1024237"><ele>529.0</ele><time>2026-04-26T08:34:19.699Z</time></trkpt><trkpt lat="33.4921455" lon="10.1024777"><ele>529.0</ele><time>2026-04-26T08:34:20.689Z</time></trkpt><trkpt lat="33.4920542" lon="10.1025543"><ele>530.0</ele><time>2026-04-26T08:34:21.684Z</time></trkpt><trkpt lat="33.4919766" lon="10.1026476"><ele>531.0</ele><time>2026-04-26T08:34:22.704Z</time></trkpt><trkpt lat="33.4919057" lon="10.1027461"><ele>532.0</ele><time>2026-04-26T08:34:23.692Z</time></trkpt><trkpt lat="33.4918416" lon="10.1028493"><ele>533.0</ele><time>2026-04-26T08:34:24.684Z</time></trkpt><trkpt lat="33.4917803" lon="10.1029574"><ele>534.0</ele><time>2026-04-26T08:34:25.683Z</time></trkpt><trkpt lat="33.4917189" lon="10.1030629"><ele>534.0</ele><time>2026-04-26T08:34:26.699Z</time></trkpt><trkpt lat="33.4916538" lon="10.103176"><ele>534.0</ele><time>2026-04-26T08:34:27.673Z</time></trkpt><trkpt lat="33.4915848" lon="10.1032969"><ele>534.0</ele><time>2026-04-26T08:34:28.682Z</time></trkpt><trkpt lat="33.4915324" lon="10.1034142"><ele>534.0</ele><time>2026-04-26T08:34:29.695Z</time></trkpt><trkpt lat="33.4914774" lon="10.1035466"><ele>534.75</ele><time>2026-04-26T08:34:30.69Z</time></trkpt><trkpt lat="33.4914263" lon="10.103684"><ele>535.5</ele><time>2026-04-26T08:34:31.676Z</time></trkpt><trkpt lat="33.4913794" lon="10.1038262"><ele>536.25</ele><time>2026-04-26T08:34:32.677Z</time></trkpt><trkpt lat="33.4913483" lon="10.1039629"><ele>537.0</ele><time>2026-04-26T08:34:33.694Z</time></trkpt><trkpt lat="33.4913167" lon="10.1041093"><ele>537.0</ele><time>2026-04-26T08:34:34.708Z</time></trkpt><trkpt lat="33.4912865" lon="10.1042623"><ele>537.0</ele><time>2026-04-26T08:34:35.698Z</time></trkpt><trkpt lat="33.4912625" lon="10.1044077"><ele>537.0</ele><time>2026-04-26T08:34:36.695Z</time></trkpt><trkpt lat="33.4912331" lon="10.1045609"><ele>537.0</ele><time>2026-04-26T08:34:37.698Z</time></trkpt><trkpt lat="33.491205" lon="10.104715"><ele>538.25</ele><time>2026-04-26T08:34:38.676Z</time></trkpt><trkpt lat="33.4911805" lon="10.1048718"><ele>539.5</ele><time>2026-04-26T08:34:39.682Z</time></trkpt><trkpt lat="33.4911691" lon="10.1050264"><ele>540.75</ele><time>2026-04-26T08:34:40.691Z</time></trkpt><trkpt lat="33.4911583" lon="10.1051823"><ele>542.0</ele><time>2026-04-26T08:34:41.691Z</time></trkpt><trkpt lat="33.4911432" lon="10.1053455"><ele>542.25</ele><time>2026-04-26T08:34:42.69Z</time></trkpt><trkpt lat="33.4911328" lon="10.1055149"><ele>542.5</ele><time>2026-04-26T08:34:43.712Z</time></trkpt><trkpt lat="33.4911305" lon="10.1056865"><ele>542.75</ele><time>2026-04-26T08:34:44.686Z</time></trkpt><trkpt lat="33.4911209" lon="10.1058595"><ele>543.0</ele><time>2026-04-26T08:34:45.69Z</time></trkpt><trkpt lat="33.4911095" lon="10.1060339"><ele>542.5</ele><time>2026-04-26T08:34:46.685Z</time></trkpt><trkpt lat="33.4910945" lon="10.1061997"><ele>542.0</ele><time>2026-04-26T08:34:47.678Z</time></trkpt><trkpt lat="33.4910651" lon="10.1063595"><ele>541.5</ele><time>2026-04-26T08:34:48.694Z</time></trkpt><trkpt lat="33.4910326" lon="10.1065126"><ele>541.0</ele><time>2026-04-26T08:34:49.7Z</time></trkpt><trkpt lat="33.4909841" lon="10.1066656"><ele>539.75</ele><time>2026-04-26T08:34:50.679Z</time></trkpt><trkpt lat="33.4909286" lon="10.1068098"><ele>538.5</ele><time>2026-04-26T08:34:51.695Z</time></trkpt><trkpt lat="33.4908432" lon="10.1069458"><ele>537.25</ele><time>2026-04-26T08:34:52.696Z</time></trkpt><trkpt lat="33.4907347" lon="10.1070641"><ele>536.0</ele><time>2026-04-26T08:34:53.679Z</time></trkpt><trkpt lat="33.4906293" lon="10.1071661"><ele>536.0</ele><time>2026-04-26T08:34:54.672Z</time></trkpt><trkpt lat="33.490512" lon="10.1072631"><ele>536.0</ele><time>2026-04-26T08:34:55.684Z</time></trkpt><trkpt lat="33.490391" lon="10.1073482"><ele>536.0</ele><time>2026-04-26T08:34:56.694Z</time></trkpt><trkpt lat="33.4902674" lon="10.1074445"><ele>536.0</ele><time>2026-04-26T08:34:57.677Z</time></trkpt><trkpt lat="33.4901459" lon="10.1075437"><ele>537.25</ele><time>2026-04-26T08:34:58.686Z</time></trkpt><trkpt lat="33.4900311" lon="10.107658"><ele>538.5</ele><time>2026-04-26T08:34:59.692Z</time></trkpt><trkpt lat="33.4899257" lon="10.1077782"><ele>539.75</ele><time>2026-04-26T08:35:00.687Z</time></trkpt><trkpt lat="33.4898271" lon="10.1079084"><ele>541.0</ele><time>2026-04-26T08:35:01.689Z</time></trkpt><trkpt lat="33.489745" lon="10.1080549"><ele>541.0</ele><time>2026-04-26T08:35:02.69Z</time></trkpt><trkpt lat="33.4896749" lon="10.1082089"><ele>541.0</ele><time>2026-04-26T08:35:03.675Z</time></trkpt><trkpt lat="33.4896146" lon="10.1083766"><ele>541.0</ele><time>2026-04-26T08:35:04.69Z</time></trkpt><trkpt lat="33.4895508" lon="10.1085475"><ele>541.6666666666667</ele><time>2026-04-26T08:35:05.704Z</time></trkpt><trkpt lat="33.4894815" lon="10.1087063"><ele>542.3333333333334</ele><time>2026-04-26T08:35:06.684Z</time></trkpt><trkpt lat="33.4893966" lon="10.108858"><ele>543.0</ele><time>2026-04-26T08:35:07.671Z</time></trkpt><trkpt lat="33.4893015" lon="10.1089946"><ele>540.6666666666666</ele><time>2026-04-26T08:35:08.69Z</time></trkpt><trkpt lat="33.4892012" lon="10.1091226"><ele>538.3333333333333</ele><time>2026-04-26T08:35:09.693Z</time></trkpt><trkpt lat="33.4890854" lon="10.1092438"><ele>536.0</ele><time>2026-04-26T08:35:10.7Z</time></trkpt><trkpt lat="33.4889618" lon="10.1093487"><ele>536.0</ele><time>2026-04-26T08:35:11.685Z</time></trkpt><trkpt lat="33.4888365" lon="10.1094536"><ele>536.0</ele><time>2026-04-26T08:35:12.689Z</time></trkpt><trkpt lat="33.4887079" lon="10.109561"><ele>536.0</ele><time>2026-04-26T08:35:13.678Z</time></trkpt><trkpt lat="33.4885869" lon="10.1096717"><ele>538.6666666666666</ele><time>2026-04-26T08:35:14.69Z</time></trkpt><trkpt lat="33.4884702" lon="10.1097957"><ele>541.3333333333334</ele><time>2026-04-26T08:35:15.691Z</time></trkpt><trkpt lat="33.4883627" lon="10.1099259"><ele>544.0</ele><time>2026-04-26T08:35:16.677Z</time></trkpt><trkpt lat="33.4882752" lon="10.11006"><ele>545.75</ele><time>2026-04-26T08:35:17.702Z</time></trkpt><trkpt lat="33.4882039" lon="10.1102161"><ele>547.5</ele><time>2026-04-26T08:35:18.697Z</time></trkpt><trkpt lat="33.4881382" lon="10.1103812"><ele>549.25</ele><time>2026-04-26T08:35:19.676Z</time></trkpt><trkpt lat="33.4880854" lon="10.1105452"><ele>551.0</ele><time>2026-04-26T08:35:20.674Z</time></trkpt><trkpt lat="33.4880335" lon="10.1107167"><ele>548.0</ele><time>2026-04-26T08:35:21.716Z</time></trkpt><trkpt lat="33.487989" lon="10.1108932"><ele>545.0</ele><time>2026-04-26T08:35:22.682Z</time></trkpt><trkpt lat="33.4879481" lon="10.1110637"><ele>542.0</ele><time>2026-04-26T08:35:23.694Z</time></trkpt><trkpt lat="33.487909" lon="10.1112369"><ele>546.5</ele><time>2026-04-26T08:35:24.686Z</time></trkpt><trkpt lat="33.4878665" lon="10.1114086"><ele>551.0</ele><time>2026-04-26T08:35:25.702Z</time></trkpt><trkpt lat="33.487817" lon="10.1115757"><ele>555.5</ele><time>2026-04-26T08:35:26.696Z</time></trkpt><trkpt lat="33.4877634" lon="10.1117425"><ele>560.0</ele><time>2026-04-26T08:35:27.695Z</time></trkpt><trkpt lat="33.4877097" lon="10.1119065"><ele>560.0</ele><time>2026-04-26T08:35:28.691Z</time></trkpt><trkpt lat="33.4876508" lon="10.1120732"><ele>560.0</ele><time>2026-04-26T08:35:29.685Z</time></trkpt><trkpt lat="33.4875974" lon="10.112239"><ele>560.0</ele><time>2026-04-26T08:35:30.677Z</time></trkpt><trkpt lat="33.4875456" lon="10.1124093"><ele>559.0</ele><time>2026-04-26T08:35:31.695Z</time></trkpt><trkpt lat="33.4874966" lon="10.1125755"><ele>558.0</ele><time>2026-04-26T08:35:32.683Z</time></trkpt><trkpt lat="33.4874425" lon="10.1127427"><ele>557.0</ele><time>2026-04-26T08:35:33.696Z</time></trkpt><trkpt lat="33.4873864" lon="10.1129069"><ele>556.0</ele><time>2026-04-26T08:35:34.715Z</time></trkpt><trkpt lat="33.487335" lon="10.1130702"><ele>556.0</ele><time>2026-04-26T08:35:35.697Z</time></trkpt><trkpt lat="33.4872864" lon="10.1132253"><ele>556.0</ele><time>2026-04-26T08:35:36.679Z</time></trkpt><trkpt lat="33.4872545" lon="10.1133657"><ele>556.0</ele><time>2026-04-26T08:35:37.696Z</time></trkpt><trkpt lat="33.4872401" lon="10.1135051"><ele>556.0</ele><time>2026-04-26T08:35:38.695Z</time></trkpt><trkpt lat="33.4872573" lon="10.113647"><ele>555.75</ele><time>2026-04-26T08:35:39.692Z</time></trkpt><trkpt lat="33.4873067" lon="10.113763"><ele>555.5</ele><time>2026-04-26T08:35:40.673Z</time></trkpt><trkpt lat="33.4873815" lon="10.1138778"><ele>555.25</ele><time>2026-04-26T08:35:41.673Z</time></trkpt><trkpt lat="33.487474" lon="10.1139862"><ele>555.0</ele><time>2026-04-26T08:35:42.677Z</time></trkpt><trkpt lat="33.4875653" lon="10.1140857"><ele>554.0</ele><time>2026-04-26T08:35:43.704Z</time></trkpt><trkpt lat="33.4876583" lon="10.1141805"><ele>553.0</ele><time>2026-04-26T08:35:44.698Z</time></trkpt><trkpt lat="33.4877489" lon="10.1142722"><ele>552.0</ele><time>2026-04-26T08:35:45.688Z</time></trkpt><trkpt lat="33.4878375" lon="10.1143611"><ele>551.0</ele><time>2026-04-26T08:35:46.689Z</time></trkpt><trkpt lat="33.4879108" lon="10.1144518"><ele>550.2</ele><time>2026-04-26T08:35:47.685Z</time></trkpt><trkpt lat="33.4879663" lon="10.1145457"><ele>549.4000000000001</ele><time>2026-04-26T08:35:48.681Z</time></trkpt><trkpt lat="33.4879945" lon="10.1146569"><ele>548.6</ele><time>2026-04-26T08:35:49.696Z</time></trkpt><trkpt lat="33.4879968" lon="10.1147634"><ele>547.8000000000001</ele><time>2026-04-26T08:35:50.696Z</time></trkpt><trkpt lat="33.4879657" lon="10.1148774"><ele>547.0</ele><time>2026-04-26T08:35:51.689Z</time></trkpt><trkpt lat="33.4879124" lon="10.1149781"><ele>547.0</ele><time>2026-04-26T08:35:52.685Z</time></trkpt><trkpt lat="33.4878349" lon="10.1150454"><ele>547.0</ele><time>2026-04-26T08:35:53.691Z</time></trkpt><trkpt lat="33.4877315" lon="10.1151034"><ele>547.0</ele><time>2026-04-26T08:35:54.675Z</time></trkpt><trkpt lat="33.487614" lon="10.1151357"><ele>547.0</ele><time>2026-04-26T08:35:55.693Z</time></trkpt><trkpt lat="33.4874872" lon="10.1151644"><ele>547.0</ele><time>2026-04-26T08:35:56.694Z</time></trkpt><trkpt lat="33.487358" lon="10.1151958"><ele>547.0</ele><time>2026-04-26T08:35:57.687Z</time></trkpt><trkpt lat="33.4872388" lon="10.1152281"><ele>547.0</ele><time>2026-04-26T08:35:58.7Z</time></trkpt><trkpt lat="33.4871242" lon="10.1152702"><ele>547.0</ele><time>2026-04-26T08:35:59.683Z</time></trkpt><trkpt lat="33.487029" lon="10.115325"><ele>545.2</ele><time>2026-04-26T08:36:00.697Z</time></trkpt><trkpt lat="33.4869394" lon="10.1154035"><ele>543.4000000000001</ele><time>2026-04-26T08:36:01.705Z</time></trkpt><trkpt lat="33.4868698" lon="10.1154951"><ele>541.5999999999999</ele><time>2026-04-26T08:36:02.692Z</time></trkpt><trkpt lat="33.4868292" lon="10.1156012"><ele>539.8</ele><time>2026-04-26T08:36:03.706Z</time></trkpt><trkpt lat="33.4868235" lon="10.1157234"><ele>538.0</ele><time>2026-04-26T08:36:04.689Z</time></trkpt><trkpt lat="33.4868412" lon="10.1158475"><ele>538.0</ele><time>2026-04-26T08:36:05.677Z</time></trkpt><trkpt lat="33.4868913" lon="10.1159686"><ele>538.0</ele><time>2026-04-26T08:36:06.681Z</time></trkpt><trkpt lat="33.4869547" lon="10.116095"><ele>538.0</ele><time>2026-04-26T08:36:07.684Z</time></trkpt><trkpt lat="33.4870215" lon="10.1162298"><ele>538.0</ele><time>2026-04-26T08:36:08.676Z</time></trkpt><trkpt lat="33.4870952" lon="10.1163605"><ele>539.0</ele><time>2026-04-26T08:36:09.711Z</time></trkpt><trkpt lat="33.4871537" lon="10.1164922"><ele>540.0</ele><time>2026-04-26T08:36:10.691Z</time></trkpt><trkpt lat="33.4871923" lon="10.116616"><ele>541.0</ele><time>2026-04-26T08:36:11.67Z</time></trkpt><trkpt lat="33.4871974" lon="10.1167395"><ele>542.0</ele><time>2026-04-26T08:36:12.693Z</time></trkpt><trkpt lat="33.487186" lon="10.1168582"><ele>543.0</ele><time>2026-04-26T08:36:13.68Z</time></trkpt><trkpt lat="33.4871377" lon="10.1169371"><ele>542.0</ele><time>2026-04-26T08:36:14.684Z</time></trkpt><trkpt lat="33.4870594" lon="10.1169833"><ele>541.0</ele><time>2026-04-26T08:36:15.698Z</time></trkpt><trkpt lat="33.4869851" lon="10.1169966"><ele>540.0</ele><time>2026-04-26T08:36:16.703Z</time></trkpt><trkpt lat="33.4869023" lon="10.1169566"><ele>539.0</ele><time>2026-04-26T08:36:17.69Z</time></trkpt><trkpt lat="33.4868089" lon="10.1168864"><ele>538.0</ele><time>2026-04-26T08:36:18.696Z</time></trkpt><trkpt lat="33.4867229" lon="10.1167941"><ele>538.0</ele><time>2026-04-26T08:36:19.694Z</time></trkpt><trkpt lat="33.4866285" lon="10.1166961"><ele>538.0</ele><time>2026-04-26T08:36:20.691Z</time></trkpt><trkpt lat="33.4865289" lon="10.1165974"><ele>538.0</ele><time>2026-04-26T08:36:21.678Z</time></trkpt><trkpt lat="33.4864291" lon="10.1164964"><ele>538.0</ele><time>2026-04-26T08:36:22.698Z</time></trkpt><trkpt lat="33.4863196" lon="10.1164221"><ele>536.0</ele><time>2026-04-26T08:36:23.69Z</time></trkpt><trkpt lat="33.4862057" lon="10.1163882"><ele>534.0</ele><time>2026-04-26T08:36:24.692Z</time></trkpt><trkpt lat="33.4860887" lon="10.1163854"><ele>532.0</ele><time>2026-04-26T08:36:25.678Z</time></trkpt><trkpt lat="33.4859771" lon="10.1164312"><ele>530.0</ele><time>2026-04-26T08:36:26.697Z</time></trkpt><trkpt lat="33.4858891" lon="10.1165055"><ele>531.75</ele><time>2026-04-26T08:36:27.688Z</time></trkpt><trkpt lat="33.4858206" lon="10.1166159"><ele>533.5</ele><time>2026-04-26T08:36:28.683Z</time></trkpt><trkpt lat="33.485761" lon="10.1167639"><ele>535.25</ele><time>2026-04-26T08:36:29.684Z</time></trkpt><trkpt lat="33.4857165" lon="10.1169422"><ele>537.0</ele><time>2026-04-26T08:36:30.678Z</time></trkpt><trkpt lat="33.485685" lon="10.1171243"><ele>537.0</ele><time>2026-04-26T08:36:31.69Z</time></trkpt><trkpt lat="33.485654" lon="10.1173139"><ele>537.0</ele><time>2026-04-26T08:36:32.694Z</time></trkpt><trkpt lat="33.485624" lon="10.1175019"><ele>537.0</ele><time>2026-04-26T08:36:33.695Z</time></trkpt><trkpt lat="33.4855878" lon="10.1176863"><ele>536.0</ele><time>2026-04-26T08:36:34.692Z</time></trkpt><trkpt lat="33.4855449" lon="10.1178656"><ele>535.0</ele><time>2026-04-26T08:36:35.682Z</time></trkpt><trkpt lat="33.4854764" lon="10.1180346"><ele>534.0</ele><time>2026-04-26T08:36:36.695Z</time></trkpt><trkpt lat="33.4853913" lon="10.1181975"><ele>534.6666666666666</ele><time>2026-04-26T08:36:37.69Z</time></trkpt><trkpt lat="33.4852895" lon="10.1183252"><ele>535.3333333333333</ele><time>2026-04-26T08:36:38.675Z</time></trkpt><trkpt lat="33.4851722" lon="10.118455"><ele>536.0</ele><time>2026-04-26T08:36:39.675Z</time></trkpt><trkpt lat="33.485048" lon="10.1185686"><ele>536.0</ele><time>2026-04-26T08:36:40.71Z</time></trkpt><trkpt lat="33.4849169" lon="10.1186796"><ele>536.0</ele><time>2026-04-26T08:36:41.694Z</time></trkpt><trkpt lat="33.4847862" lon="10.1187829"><ele>536.0</ele><time>2026-04-26T08:36:42.692Z</time></trkpt><trkpt lat="33.4846595" lon="10.1188878"><ele>535.6666666666666</ele><time>2026-04-26T08:36:43.697Z</time></trkpt><trkpt lat="33.4845333" lon="10.118995"><ele>535.3333333333334</ele><time>2026-04-26T08:36:44.684Z</time></trkpt><trkpt lat="33.4844038" lon="10.1191025"><ele>535.0</ele><time>2026-04-26T08:36:45.677Z</time></trkpt><trkpt lat="33.48428" lon="10.1192045"><ele>535.0</ele><time>2026-04-26T08:36:46.689Z</time></trkpt><trkpt lat="33.4841557" lon="10.1193009"><ele>535.0</ele><time>2026-04-26T08:36:47.688Z</time></trkpt><trkpt lat="33.4840245" lon="10.1193773"><ele>535.0</ele><time>2026-04-26T08:36:48.681Z</time></trkpt><trkpt lat="33.4838871" lon="10.1194388"><ele>535.0</ele><time>2026-04-26T08:36:49.695Z</time></trkpt><trkpt lat="33.4837368" lon="10.119488"><ele>536.6666666666667</ele><time>2026-04-26T08:36:50.693Z</time></trkpt><trkpt lat="33.4835838" lon="10.1195251"><ele>538.3333333333334</ele><time>2026-04-26T08:36:51.697Z</time></trkpt><trkpt lat="33.4834295" lon="10.1195464"><ele>540.0</ele><time>2026-04-26T08:36:52.684Z</time></trkpt><trkpt lat="33.4832696" lon="10.1195543"><ele>540.0</ele><time>2026-04-26T08:36:53.681Z</time></trkpt><trkpt lat="33.4831161" lon="10.1195481"><ele>540.0</ele><time>2026-04-26T08:36:54.703Z</time></trkpt><trkpt lat="33.4829589" lon="10.1195273"><ele>540.0</ele><time>2026-04-26T08:36:55.684Z</time></trkpt><trkpt lat="33.4828018" lon="10.1195077"><ele>542.3333333333334</ele><time>2026-04-26T08:36:56.692Z</time></trkpt><trkpt lat="33.4826491" lon="10.119507"><ele>544.6666666666667</ele><time>2026-04-26T08:36:57.683Z</time></trkpt><trkpt lat="33.4825004" lon="10.1195129"><ele>547.0</ele><time>2026-04-26T08:36:58.68Z</time></trkpt><trkpt lat="33.482351" lon="10.1195282"><ele>547.0</ele><time>2026-04-26T08:36:59.703Z</time></trkpt><trkpt lat="33.4822059" lon="10.1195512"><ele>547.0</ele><time>2026-04-26T08:37:00.702Z</time></trkpt><trkpt lat="33.4820656" lon="10.1195803"><ele>547.0</ele><time>2026-04-26T08:37:01.692Z</time></trkpt><trkpt lat="33.4819241" lon="10.1196242"><ele>547.0</ele><time>2026-04-26T08:37:02.692Z</time></trkpt><trkpt lat="33.481785" lon="10.1196662"><ele>547.75</ele><time>2026-04-26T08:37:03.703Z</time></trkpt><trkpt lat="33.4816497" lon="10.1197111"><ele>548.5</ele><time>2026-04-26T08:37:04.701Z</time></trkpt><trkpt lat="33.4815133" lon="10.1197541"><ele>549.25</ele><time>2026-04-26T08:37:05.702Z</time></trkpt><trkpt lat="33.481381" lon="10.1197969"><ele>550.0</ele><time>2026-04-26T08:37:06.704Z</time></trkpt><trkpt lat="33.4812455" lon="10.1198434"><ele>549.75</ele><time>2026-04-26T08:37:07.692Z</time></trkpt><trkpt lat="33.4811168" lon="10.1198894"><ele>549.5</ele><time>2026-04-26T08:37:08.7Z</time></trkpt><trkpt lat="33.4809893" lon="10.1199312"><ele>549.25</ele><time>2026-04-26T08:37:09.693Z</time></trkpt><trkpt lat="33.4808634" lon="10.1199717"><ele>549.0</ele><time>2026-04-26T08:37:10.686Z</time></trkpt><trkpt lat="33.4807349" lon="10.1200108"><ele>549.0</ele><time>2026-04-26T08:37:11.683Z</time></trkpt><trkpt lat="33.4806072" lon="10.120056"><ele>549.0</ele><time>2026-04-26T08:37:12.699Z</time></trkpt><trkpt lat="33.480474" lon="10.1200985"><ele>549.0</ele><time>2026-04-26T08:37:13.686Z</time></trkpt><trkpt lat="33.4803402" lon="10.1201423"><ele>549.0</ele><time>2026-04-26T08:37:14.697Z</time></trkpt><trkpt lat="33.4802035" lon="10.1201889"><ele>551.5</ele><time>2026-04-26T08:37:15.687Z</time></trkpt><trkpt lat="33.480057" lon="10.1202292"><ele>554.0</ele><time>2026-04-26T08:37:16.695Z</time></trkpt><trkpt lat="33.4799163" lon="10.1202697"><ele>556.5</ele><time>2026-04-26T08:37:17.697Z</time></trkpt><trkpt lat="33.4797776" lon="10.1203046"><ele>559.0</ele><time>2026-04-26T08:37:18.704Z</time></trkpt><trkpt lat="33.4796444" lon="10.1203344"><ele>561.0</ele><time>2026-04-26T08:37:19.684Z</time></trkpt><trkpt lat="33.4795102" lon="10.1203712"><ele>563.0</ele><time>2026-04-26T08:37:20.69Z</time></trkpt><trkpt lat="33.4793768" lon="10.1204072"><ele>565.0</ele><time>2026-04-26T08:37:21.695Z</time></trkpt><trkpt lat="33.4792441" lon="10.1204472"><ele>567.0</ele><time>2026-04-26T08:37:22.672Z</time></trkpt><trkpt lat="33.4791132" lon="10.120497"><ele>567.0</ele><time>2026-04-26T08:37:23.681Z</time></trkpt><trkpt lat="33.4789795" lon="10.12056"><ele>567.0</ele><time>2026-04-26T08:37:24.68Z</time></trkpt><trkpt lat="33.478855" lon="10.1206401"><ele>567.0</ele><time>2026-04-26T08:37:25.685Z</time></trkpt><trkpt lat="33.4787295" lon="10.1207323"><ele>567.0</ele><time>2026-04-26T08:37:26.688Z</time></trkpt><trkpt lat="33.478619" lon="10.1208399"><ele>567.75</ele><time>2026-04-26T08:37:27.675Z</time></trkpt><trkpt lat="33.4785221" lon="10.1209617"><ele>568.5</ele><time>2026-04-26T08:37:28.692Z</time></trkpt><trkpt lat="33.4784514" lon="10.121095"><ele>569.25</ele><time>2026-04-26T08:37:29.693Z</time></trkpt><trkpt lat="33.4783719" lon="10.1212228"><ele>570.0</ele><time>2026-04-26T08:37:30.685Z</time></trkpt><trkpt lat="33.4782897" lon="10.1213363"><ele>570.0</ele><time>2026-04-26T08:37:31.693Z</time></trkpt><trkpt lat="33.4781961" lon="10.1214416"><ele>570.0</ele><time>2026-04-26T08:37:32.703Z</time></trkpt><trkpt lat="33.4780989" lon="10.1215366"><ele>570.0</ele><time>2026-04-26T08:37:33.679Z</time></trkpt><trkpt lat="33.4779911" lon="10.1216242"><ele>570.0</ele><time>2026-04-26T08:37:34.707Z</time></trkpt><trkpt lat="33.4778813" lon="10.1217105"><ele>570.5</ele><time>2026-04-26T08:37:35.688Z</time></trkpt><trkpt lat="33.4777635" lon="10.1217874"><ele>571.0</ele><time>2026-04-26T08:37:36.693Z</time></trkpt><trkpt lat="33.4776488" lon="10.1218671"><ele>571.5</ele><time>2026-04-26T08:37:37.695Z</time></trkpt><trkpt lat="33.477535" lon="10.121947"><ele>572.0</ele><time>2026-04-26T08:37:38.703Z</time></trkpt><trkpt lat="33.4774192" lon="10.1220265"><ele>572.0</ele><time>2026-04-26T08:37:39.687Z</time></trkpt><trkpt lat="33.4772972" lon="10.1221066"><ele>572.0</ele><time>2026-04-26T08:37:40.699Z</time></trkpt><trkpt lat="33.4771644" lon="10.1221878"><ele>572.0</ele><time>2026-04-26T08:37:41.692Z</time></trkpt><trkpt lat="33.4770224" lon="10.1222438"><ele>572.0</ele><time>2026-04-26T08:37:42.689Z</time></trkpt><trkpt lat="33.4768658" lon="10.1222913"><ele>571.0</ele><time>2026-04-26T08:37:43.69Z</time></trkpt><trkpt lat="33.4767002" lon="10.1223268"><ele>570.0</ele><time>2026-04-26T08:37:44.696Z</time></trkpt><trkpt lat="33.4765316" lon="10.1223452"><ele>569.0</ele><time>2026-04-26T08:37:45.68Z</time></trkpt><trkpt lat="33.4763554" lon="10.1223564"><ele>566.6666666666666</ele><time>2026-04-26T08:37:46.69Z</time></trkpt><trkpt lat="33.4761731" lon="10.1223611"><ele>564.3333333333334</ele><time>2026-04-26T08:37:47.689Z</time></trkpt><trkpt lat="33.4759904" lon="10.1223583"><ele>562.0</ele><time>2026-04-26T08:37:48.692Z</time></trkpt><trkpt lat="33.4758127" lon="10.1223575"><ele>562.0</ele><time>2026-04-26T08:37:49.685Z</time></trkpt><trkpt lat="33.4756412" lon="10.1223778"><ele>562.0</ele><time>2026-04-26T08:37:50.693Z</time></trkpt><trkpt lat="33.4754721" lon="10.1224182"><ele>562.0</ele><time>2026-04-26T08:37:51.69Z</time></trkpt><trkpt lat="33.4753009" lon="10.1224743"><ele>560.0</ele><time>2026-04-26T08:37:52.697Z</time></trkpt><trkpt lat="33.4751396" lon="10.1225562"><ele>558.0</ele><time>2026-04-26T08:37:53.692Z</time></trkpt><trkpt lat="33.4749959" lon="10.1226543"><ele>556.0</ele><time>2026-04-26T08:37:54.692Z</time></trkpt><trkpt lat="33.4748459" lon="10.1227514"><ele>556.0</ele><time>2026-04-26T08:37:55.691Z</time></trkpt><trkpt lat="33.4746948" lon="10.122851"><ele>556.0</ele><time>2026-04-26T08:37:56.689Z</time></trkpt><trkpt lat="33.4745578" lon="10.1229613"><ele>556.0</ele><time>2026-04-26T08:37:57.691Z</time></trkpt><trkpt lat="33.4744165" lon="10.123072"><ele>557.6666666666667</ele><time>2026-04-26T08:37:58.687Z</time></trkpt><trkpt lat="33.4742895" lon="10.1231838"><ele>559.3333333333334</ele><time>2026-04-26T08:37:59.687Z</time></trkpt><trkpt lat="33.4741644" lon="10.1232923"><ele>561.0</ele><time>2026-04-26T08:38:00.685Z</time></trkpt><trkpt lat="33.4740467" lon="10.1233875"><ele>562.5</ele><time>2026-04-26T08:38:01.686Z</time></trkpt><trkpt lat="33.4739377" lon="10.1234806"><ele>564.0</ele><time>2026-04-26T08:38:02.68Z</time></trkpt><trkpt lat="33.4738573" lon="10.1235786"><ele>565.5</ele><time>2026-04-26T08:38:03.696Z</time></trkpt><trkpt lat="33.4737906" lon="10.1236834"><ele>567.0</ele><time>2026-04-26T08:38:04.703Z</time></trkpt><trkpt lat="33.4737357" lon="10.1237906"><ele>567.5</ele><time>2026-04-26T08:38:05.71Z</time></trkpt><trkpt lat="33.4737045" lon="10.1239139"><ele>568.0</ele><time>2026-04-26T08:38:06.692Z</time></trkpt><trkpt lat="33.4736945" lon="10.1240514"><ele>568.5</ele><time>2026-04-26T08:38:07.687Z</time></trkpt><trkpt lat="33.4737146" lon="10.1241817"><ele>569.0</ele><time>2026-04-26T08:38:08.695Z</time></trkpt><trkpt lat="33.4737566" lon="10.1243157"><ele>569.5</ele><time>2026-04-26T08:38:09.696Z</time></trkpt><trkpt lat="33.473808" lon="10.1244542"><ele>570.0</ele><time>2026-04-26T08:38:10.687Z</time></trkpt><trkpt lat="33.4738631" lon="10.124602"><ele>570.5</ele><time>2026-04-26T08:38:11.69Z</time></trkpt><trkpt lat="33.4739167" lon="10.1247607"><ele>571.0</ele><time>2026-04-26T08:38:12.703Z</time></trkpt><trkpt lat="33.4739728" lon="10.1249287"><ele>571.25</ele><time>2026-04-26T08:38:13.698Z</time></trkpt><trkpt lat="33.4740163" lon="10.1251"><ele>571.5</ele><time>2026-04-26T08:38:14.697Z</time></trkpt><trkpt lat="33.4740488" lon="10.125273"><ele>571.75</ele><time>2026-04-26T08:38:15.684Z</time></trkpt><trkpt lat="33.4740547" lon="10.1254412"><ele>572.0</ele><time>2026-04-26T08:38:16.7Z</time></trkpt><trkpt lat="33.4740418" lon="10.1256207"><ele>571.5</ele><time>2026-04-26T08:38:17.699Z</time></trkpt><trkpt lat="33.4740073" lon="10.1257893"><ele>571.0</ele><time>2026-04-26T08:38:18.685Z</time></trkpt><trkpt lat="33.4739621" lon="10.1259516"><ele>570.5</ele><time>2026-04-26T08:38:19.685Z</time></trkpt><trkpt lat="33.4739231" lon="10.1261148"><ele>570.0</ele><time>2026-04-26T08:38:20.689Z</time></trkpt><trkpt lat="33.4738878" lon="10.1262844"><ele>570.0</ele><time>2026-04-26T08:38:21.691Z</time></trkpt><trkpt lat="33.4738605" lon="10.1264568"><ele>570.0</ele><time>2026-04-26T08:38:22.694Z</time></trkpt><trkpt lat="33.4738333" lon="10.1266267"><ele>570.0</ele><time>2026-04-26T08:38:23.705Z</time></trkpt><trkpt lat="33.47381" lon="10.1268024"><ele>570.0</ele><time>2026-04-26T08:38:24.682Z</time></trkpt><trkpt lat="33.4737874" lon="10.126989"><ele>571.0</ele><time>2026-04-26T08:38:25.696Z</time></trkpt><trkpt lat="33.473765" lon="10.1271811"><ele>572.0</ele><time>2026-04-26T08:38:26.684Z</time></trkpt><trkpt lat="33.4737439" lon="10.1273783"><ele>573.0</ele><time>2026-04-26T08:38:27.679Z</time></trkpt><trkpt lat="33.4737133" lon="10.1275845"><ele>570.0</ele><time>2026-04-26T08:38:28.682Z</time></trkpt><trkpt lat="33.4736753" lon="10.1277978"><ele>567.0</ele><time>2026-04-26T08:38:29.692Z</time></trkpt><trkpt lat="33.4736427" lon="10.12801"><ele>564.0</ele><time>2026-04-26T08:38:30.697Z</time></trkpt><trkpt lat="33.4736139" lon="10.1282187"><ele>565.0</ele><time>2026-04-26T08:38:31.687Z</time></trkpt><trkpt lat="33.4735883" lon="10.1284283"><ele>566.0</ele><time>2026-04-26T08:38:32.694Z</time></trkpt><trkpt lat="33.4735763" lon="10.1286252"><ele>567.0</ele><time>2026-04-26T08:38:33.695Z</time></trkpt><trkpt lat="33.4735813" lon="10.1288224"><ele>567.0</ele><time>2026-04-26T08:38:34.698Z</time></trkpt><trkpt lat="33.4735958" lon="10.1290115"><ele>567.0</ele><time>2026-04-26T08:38:35.704Z</time></trkpt><trkpt lat="33.4736186" lon="10.1291913"><ele>567.0</ele><time>2026-04-26T08:38:36.688Z</time></trkpt><trkpt lat="33.4736414" lon="10.1293578"><ele>565.75</ele><time>2026-04-26T08:38:37.703Z</time></trkpt><trkpt lat="33.473671" lon="10.1295212"><ele>564.5</ele><time>2026-04-26T08:38:38.698Z</time></trkpt><trkpt lat="33.4736977" lon="10.1296628"><ele>563.25</ele><time>2026-04-26T08:38:39.687Z</time></trkpt><trkpt lat="33.4737272" lon="10.1297964"><ele>562.0</ele><time>2026-04-26T08:38:40.683Z</time></trkpt><trkpt lat="33.4737415" lon="10.1299191"><ele>561.2</ele><time>2026-04-26T08:38:41.687Z</time></trkpt><trkpt lat="33.4737439" lon="10.1300335"><ele>560.4000000000001</ele><time>2026-04-26T08:38:42.707Z</time></trkpt><trkpt lat="33.4737248" lon="10.1301394"><ele>559.5999999999999</ele><time>2026-04-26T08:38:43.699Z</time></trkpt><trkpt lat="33.4736893" lon="10.1302343"><ele>558.8</ele><time>2026-04-26T08:38:44.688Z</time></trkpt><trkpt lat="33.4736348" lon="10.1303125"><ele>558.0</ele><time>2026-04-26T08:38:45.681Z</time></trkpt><trkpt lat="33.473559" lon="10.1303755"><ele>558.0</ele><time>2026-04-26T08:38:46.681Z</time></trkpt><trkpt lat="33.47348" lon="10.1304009"><ele>558.0</ele><time>2026-04-26T08:38:47.689Z</time></trkpt><trkpt lat="33.4733995" lon="10.1303823"><ele>558.0</ele><time>2026-04-26T08:38:48.687Z</time></trkpt><trkpt lat="33.4733125" lon="10.1303335"><ele>558.0</ele><time>2026-04-26T08:38:49.681Z</time></trkpt><trkpt lat="33.4732249" lon="10.1302581"><ele>558.0</ele><time>2026-04-26T08:38:50.683Z</time></trkpt><trkpt lat="33.4731496" lon="10.130161"><ele>558.0</ele><time>2026-04-26T08:38:51.687Z</time></trkpt><trkpt lat="33.4730808" lon="10.1300297"><ele>558.0</ele><time>2026-04-26T08:38:52.69Z</time></trkpt><trkpt lat="33.473025" lon="10.1298868"><ele>558.0</ele><time>2026-04-26T08:38:53.699Z</time></trkpt><trkpt lat="33.4729577" lon="10.1297271"><ele>558.0</ele><time>2026-04-26T08:38:54.684Z</time></trkpt><trkpt lat="33.4728771" lon="10.1295455"><ele>555.6666666666666</ele><time>2026-04-26T08:38:55.685Z</time></trkpt><trkpt lat="33.4727912" lon="10.1293721"><ele>553.3333333333333</ele><time>2026-04-26T08:38:56.694Z</time></trkpt><trkpt lat="33.472687" lon="10.1292064"><ele>551.0</ele><time>2026-04-26T08:38:57.674Z</time></trkpt><trkpt lat="33.4725792" lon="10.1290659"><ele>551.6666666666666</ele><time>2026-04-26T08:38:58.679Z</time></trkpt><trkpt lat="33.4724702" lon="10.1289254"><ele>552.3333333333334</ele><time>2026-04-26T08:38:59.691Z</time></trkpt><trkpt lat="33.4723783" lon="10.1287881"><ele>553.0</ele><time>2026-04-26T08:39:00.684Z</time></trkpt><trkpt lat="33.4723024" lon="10.1286397"><ele>553.0</ele><time>2026-04-26T08:39:01.681Z</time></trkpt><trkpt lat="33.4722316" lon="10.1284956"><ele>553.0</ele><time>2026-04-26T08:39:02.689Z</time></trkpt><trkpt lat="33.4721652" lon="10.1283578"><ele>553.0</ele><time>2026-04-26T08:39:03.685Z</time></trkpt><trkpt lat="33.4720791" lon="10.1282406"><ele>553.0</ele><time>2026-04-26T08:39:04.692Z</time></trkpt><trkpt lat="33.471977" lon="10.1281471"><ele>552.25</ele><time>2026-04-26T08:39:05.702Z</time></trkpt><trkpt lat="33.4718507" lon="10.1280662"><ele>551.5</ele><time>2026-04-26T08:39:06.692Z</time></trkpt><trkpt lat="33.471722" lon="10.1280137"><ele>550.75</ele><time>2026-04-26T08:39:07.695Z</time></trkpt><trkpt lat="33.4715806" lon="10.1279565"><ele>550.0</ele><time>2026-04-26T08:39:08.692Z</time></trkpt><trkpt lat="33.4714537" lon="10.1278865"><ele>550.0</ele><time>2026-04-26T08:39:09.69Z</time></trkpt><trkpt lat="33.4713375" lon="10.1278021"><ele>550.0</ele><time>2026-04-26T08:39:10.697Z</time></trkpt><trkpt lat="33.4712272" lon="10.1277182"><ele>550.0</ele><time>2026-04-26T08:39:11.69Z</time></trkpt><trkpt lat="33.471126" lon="10.1276451"><ele>550.0</ele><time>2026-04-26T08:39:12.693Z</time></trkpt><trkpt lat="33.471024" lon="10.1275837"><ele>547.0</ele><time>2026-04-26T08:39:13.685Z</time></trkpt><trkpt lat="33.4709301" lon="10.127542"><ele>544.0</ele><time>2026-04-26T08:39:14.688Z</time></trkpt><trkpt lat="33.4708398" lon="10.1275074"><ele>541.0</ele><time>2026-04-26T08:39:15.679Z</time></trkpt><trkpt lat="33.4707483" lon="10.1274831"><ele>538.0</ele><time>2026-04-26T08:39:16.679Z</time></trkpt><trkpt lat="33.4706665" lon="10.1274576"><ele>535.0</ele><time>2026-04-26T08:39:17.698Z</time></trkpt><trkpt lat="33.4705879" lon="10.1274276"><ele>534.3333333333334</ele><time>2026-04-26T08:39:18.683Z</time></trkpt><trkpt lat="33.4705111" lon="10.1273907"><ele>533.6666666666667</ele><time>2026-04-26T08:39:19.701Z</time></trkpt><trkpt lat="33.4704366" lon="10.1273431"><ele>533.0</ele><time>2026-04-26T08:39:20.7Z</time></trkpt><trkpt lat="33.4703649" lon="10.1272785"><ele>532.3333333333334</ele><time>2026-04-26T08:39:21.692Z</time></trkpt><trkpt lat="33.4703078" lon="10.1272057"><ele>531.6666666666666</ele><time>2026-04-26T08:39:22.686Z</time></trkpt><trkpt lat="33.4702417" lon="10.127117"><ele>531.0</ele><time>2026-04-26T08:39:23.689Z</time></trkpt><trkpt lat="33.4701725" lon="10.1270385"><ele>531.0</ele><time>2026-04-26T08:39:24.684Z</time></trkpt><trkpt lat="33.4701047" lon="10.1269599"><ele>531.0</ele><time>2026-04-26T08:39:25.693Z</time></trkpt><trkpt lat="33.4700387" lon="10.1268804"><ele>531.0</ele><time>2026-04-26T08:39:26.68Z</time></trkpt><trkpt lat="33.4699714" lon="10.1268028"><ele>531.0</ele><time>2026-04-26T08:39:27.687Z</time></trkpt><trkpt lat="33.4698982" lon="10.1267312"><ele>531.0</ele><time>2026-04-26T08:39:28.675Z</time></trkpt><trkpt lat="33.4698299" lon="10.1266663"><ele>531.0</ele><time>2026-04-26T08:39:29.677Z</time></trkpt><trkpt lat="33.4697537" lon="10.1266091"><ele>531.0</ele><time>2026-04-26T08:39:30.693Z</time></trkpt><trkpt lat="33.4696773" lon="10.1265627"><ele>531.0</ele><time>2026-04-26T08:39:31.69Z</time></trkpt><trkpt lat="33.4695996" lon="10.1265272"><ele>531.0</ele><time>2026-04-26T08:39:32.669Z</time></trkpt><trkpt lat="33.4695327" lon="10.1264969"><ele>531.0</ele><time>2026-04-26T08:39:33.679Z</time></trkpt><trkpt lat="33.4694398" lon="10.1264597"><ele>531.0</ele><time>2026-04-26T08:39:35.689Z</time></trkpt><trkpt lat="33.4693562" lon="10.1264744"><ele>533.25</ele><time>2026-04-26T08:39:38.674Z</time></trkpt><trkpt lat="33.4692692" lon="10.1264721"><ele>535.5</ele><time>2026-04-26T08:40:33.705Z</time></trkpt><trkpt lat="33.4691624" lon="10.1263959"><ele>537.75</ele><time>2026-04-26T08:40:35.688Z</time></trkpt><trkpt lat="33.4690611" lon="10.1263634"><ele>540.0</ele><time>2026-04-26T08:40:36.675Z</time></trkpt><trkpt lat="33.4689211" lon="10.1263473"><ele>536.25</ele><time>2026-04-26T08:40:37.681Z</time></trkpt><trkpt lat="33.4687682" lon="10.1263345"><ele>532.5</ele><time>2026-04-26T08:40:38.685Z</time></trkpt><trkpt lat="33.4686188" lon="10.1263198"><ele>528.75</ele><time>2026-04-26T08:40:39.701Z</time></trkpt><trkpt lat="33.4684794" lon="10.126316"><ele>525.0</ele><time>2026-04-26T08:40:40.681Z</time></trkpt><trkpt lat="33.4683484" lon="10.126316"><ele>525.0</ele><time>2026-04-26T08:40:41.681Z</time></trkpt><trkpt lat="33.4682268" lon="10.1263195"><ele>525.0</ele><time>2026-04-26T08:40:42.684Z</time></trkpt><trkpt lat="33.4681068" lon="10.1263118"><ele>525.0</ele><time>2026-04-26T08:40:43.697Z</time></trkpt><trkpt lat="33.4679933" lon="10.1262957"><ele>525.0</ele><time>2026-04-26T08:40:44.68Z</time></trkpt><trkpt lat="33.467877" lon="10.126262"><ele>517.25</ele><time>2026-04-26T08:40:45.685Z</time></trkpt><trkpt lat="33.467764" lon="10.1262149"><ele>509.5</ele><time>2026-04-26T08:40:46.682Z</time></trkpt><trkpt lat="33.4676532" lon="10.1261476"><ele>501.75</ele><time>2026-04-26T08:40:47.706Z</time></trkpt><trkpt lat="33.46755" lon="10.1260682"><ele>494.0</ele><time>2026-04-26T08:40:48.693Z</time></trkpt><trkpt lat="33.467459" lon="10.1259749"><ele>494.0</ele><time>2026-04-26T08:40:49.708Z</time></trkpt><trkpt lat="33.4673743" lon="10.1258664"><ele>494.0</ele><time>2026-04-26T08:40:50.681Z</time></trkpt><trkpt lat="33.467294" lon="10.1257456"><ele>494.0</ele><time>2026-04-26T08:40:51.683Z</time></trkpt><trkpt lat="33.4672243" lon="10.1256014"><ele>494.0</ele><time>2026-04-26T08:40:52.695Z</time></trkpt><trkpt lat="33.4671549" lon="10.1254655"><ele>489.25</ele><time>2026-04-26T08:40:53.694Z</time></trkpt><trkpt lat="33.4670863" lon="10.1253301"><ele>484.5</ele><time>2026-04-26T08:40:54.684Z</time></trkpt><trkpt lat="33.4670125" lon="10.1251966"><ele>479.75</ele><time>2026-04-26T08:40:55.685Z</time></trkpt><trkpt lat="33.4669407" lon="10.1250654"><ele>475.0</ele><time>2026-04-26T08:40:56.67Z</time></trkpt><trkpt lat="33.4668792" lon="10.1249342"><ele>477.8</ele><time>2026-04-26T08:40:57.69Z</time></trkpt><trkpt lat="33.4668203" lon="10.124804"><ele>480.6</ele><time>2026-04-26T08:40:58.702Z</time></trkpt><trkpt lat="33.4667783" lon="10.1246743"><ele>483.4</ele><time>2026-04-26T08:40:59.703Z</time></trkpt><trkpt lat="33.4667384" lon="10.1245555"><ele>486.2</ele><time>2026-04-26T08:41:00.693Z</time></trkpt><trkpt lat="33.466698" lon="10.1244537"><ele>489.0</ele><time>2026-04-26T08:41:01.687Z</time></trkpt><trkpt lat="33.4666552" lon="10.1243615"><ele>489.0</ele><time>2026-04-26T08:41:02.683Z</time></trkpt><trkpt lat="33.4666095" lon="10.1242961"><ele>489.0</ele><time>2026-04-26T08:41:03.693Z</time></trkpt><trkpt lat="33.4665458" lon="10.1242628"><ele>489.0</ele><time>2026-04-26T08:41:04.692Z</time></trkpt><trkpt lat="33.4664707" lon="10.1242523"><ele>489.0</ele><time>2026-04-26T08:41:05.711Z</time></trkpt><trkpt lat="33.466406" lon="10.1242653"><ele>489.0</ele><time>2026-04-26T08:41:06.685Z</time></trkpt><trkpt lat="33.4663124" lon="10.1243433"><ele>489.0</ele><time>2026-04-26T08:41:08.726Z</time></trkpt><trkpt lat="33.4662659" lon="10.124466"><ele>490.5</ele><time>2026-04-26T08:41:10.681Z</time></trkpt><trkpt lat="33.4662603" lon="10.1245882"><ele>492.0</ele><time>2026-04-26T08:41:12.695Z</time></trkpt><trkpt lat="33.4662532" lon="10.1246681"><ele>493.5</ele><time>2026-04-26T08:41:15.695Z</time></trkpt><trkpt lat="33.4662523" lon="10.1247526"><ele>495.0</ele><time>2026-04-26T08:41:18.681Z</time></trkpt><trkpt lat="33.4662538" lon="10.1248731"><ele>496.5</ele><time>2026-04-26T08:41:20.674Z</time></trkpt><trkpt lat="33.4662528" lon="10.1249566"><ele>498.0</ele><time>2026-04-26T08:41:21.677Z</time></trkpt><trkpt lat="33.4662556" lon="10.1250527"><ele>498.0</ele><time>2026-04-26T08:41:22.679Z</time></trkpt><trkpt lat="33.4662587" lon="10.1251555"><ele>497.99999999999994</ele><time>2026-04-26T08:41:23.689Z</time></trkpt><trkpt lat="33.4662638" lon="10.1252689"><ele>497.99999999999994</ele><time>2026-04-26T08:41:24.68Z</time></trkpt><trkpt lat="33.4662584" lon="10.1253843"><ele>498.0</ele><time>2026-04-26T08:41:25.668Z</time></trkpt><trkpt lat="33.4662432" lon="10.1255048"><ele>498.0</ele><time>2026-04-26T08:41:26.71Z</time></trkpt><trkpt lat="33.4662224" lon="10.1256253"><ele>492.79999999999995</ele><time>2026-04-26T08:41:27.692Z</time></trkpt><trkpt lat="33.4661893" lon="10.125738"><ele>487.59999999999997</ele><time>2026-04-26T08:41:28.693Z</time></trkpt><trkpt lat="33.4661395" lon="10.125844"><ele>482.40000000000003</ele><time>2026-04-26T08:41:29.692Z</time></trkpt><trkpt lat="33.4660732" lon="10.1259299"><ele>477.20000000000005</ele><time>2026-04-26T08:41:30.687Z</time></trkpt><trkpt lat="33.4660057" lon="10.1260101"><ele>472.0</ele><time>2026-04-26T08:41:31.696Z</time></trkpt><trkpt lat="33.4659205" lon="10.1260948"><ele>472.0</ele><time>2026-04-26T08:41:32.691Z</time></trkpt><trkpt lat="33.4658386" lon="10.1261655"><ele>472.00000000000006</ele><time>2026-04-26T08:41:33.682Z</time></trkpt><trkpt lat="33.4657631" lon="10.1262356"><ele>472.00000000000006</ele><time>2026-04-26T08:41:34.696Z</time></trkpt><trkpt lat="33.4656954" lon="10.1262973"><ele>472.0</ele><time>2026-04-26T08:41:35.688Z</time></trkpt><trkpt lat="33.4656344" lon="10.1263539"><ele>472.0</ele><time>2026-04-26T08:41:36.683Z</time></trkpt><trkpt lat="33.4655569" lon="10.1264722"><ele>469.40000000000003</ele><time>2026-04-26T08:41:38.693Z</time></trkpt><trkpt lat="33.4655626" lon="10.1266078"><ele>466.80000000000007</ele><time>2026-04-26T08:41:40.695Z</time></trkpt><trkpt lat="33.4656468" lon="10.1266953"><ele>464.2</ele><time>2026-04-26T08:41:42.686Z</time></trkpt><trkpt lat="33.4657617" lon="10.126719"><ele>461.6</ele><time>2026-04-26T08:41:44.678Z</time></trkpt><trkpt lat="33.4658293" lon="10.126725"><ele>459.0</ele><time>2026-04-26T08:41:45.688Z</time></trkpt><trkpt lat="33.4659068" lon="10.1267381"><ele>459.0</ele><time>2026-04-26T08:41:46.704Z</time></trkpt><trkpt lat="33.4659965" lon="10.1267646"><ele>459.0</ele><time>2026-04-26T08:41:47.679Z</time></trkpt><trkpt lat="33.4660859" lon="10.1268108"><ele>459.0</ele><time>2026-04-26T08:41:48.694Z</time></trkpt><trkpt lat="33.4661693" lon="10.1268673"><ele>459.0</ele><time>2026-04-26T08:41:49.679Z</time></trkpt><trkpt lat="33.4662417" lon="10.1269396"><ele>459.0</ele><time>2026-04-26T08:41:50.666Z</time></trkpt><trkpt lat="33.4663088" lon="10.1270222"><ele>459.2</ele><time>2026-04-26T08:41:51.689Z</time></trkpt><trkpt lat="33.466374" lon="10.1271053"><ele>459.4</ele><time>2026-04-26T08:41:52.708Z</time></trkpt><trkpt lat="33.4664393" lon="10.1271891"><ele>459.6</ele><time>2026-04-26T08:41:53.699Z</time></trkpt><trkpt lat="33.466514" lon="10.127263"><ele>459.8</ele><time>2026-04-26T08:41:54.688Z</time></trkpt><trkpt lat="33.4665834" lon="10.1273327"><ele>460.0</ele><time>2026-04-26T08:41:55.686Z</time></trkpt><trkpt lat="33.4666535" lon="10.1273974"><ele>460.00000000000006</ele><time>2026-04-26T08:41:56.694Z</time></trkpt><trkpt lat="33.4667273" lon="10.127463"><ele>460.0</ele><time>2026-04-26T08:41:57.686Z</time></trkpt><trkpt lat="33.4667922" lon="10.127523"><ele>460.0</ele><time>2026-04-26T08:41:58.688Z</time></trkpt><trkpt lat="33.4668534" lon="10.1275888"><ele>460.0</ele><time>2026-04-26T08:41:59.7Z</time></trkpt><trkpt lat="33.4669056" lon="10.12766"><ele>460.00000000000006</ele><time>2026-04-26T08:42:00.688Z</time></trkpt><trkpt lat="33.4669501" lon="10.1277407"><ele>460.0</ele><time>2026-04-26T08:42:01.681Z</time></trkpt><trkpt lat="33.4669888" lon="10.1278253"><ele>460.00000000000006</ele><time>2026-04-26T08:42:02.694Z</time></trkpt><trkpt lat="33.4670211" lon="10.1279181"><ele>460.0</ele><time>2026-04-26T08:42:03.682Z</time></trkpt><trkpt lat="33.4670535" lon="10.1280103"><ele>460.0</ele><time>2026-04-26T08:42:04.689Z</time></trkpt><trkpt lat="33.46707" lon="10.1281082"><ele>460.0</ele><time>2026-04-26T08:42:05.695Z</time></trkpt><trkpt lat="33.4670762" lon="10.1282014"><ele>460.00000000000006</ele><time>2026-04-26T08:42:06.696Z</time></trkpt><trkpt lat="33.4670716" lon="10.1282961"><ele>460.0</ele><time>2026-04-26T08:42:07.678Z</time></trkpt><trkpt lat="33.4670732" lon="10.1283952"><ele>463.6666666666667</ele><time>2026-04-26T08:42:08.692Z</time></trkpt><trkpt lat="33.4670732" lon="10.1284884"><ele>467.33333333333337</ele><time>2026-04-26T08:42:09.698Z</time></trkpt><trkpt lat="33.4670733" lon="10.1285842"><ele>471.0</ele><time>2026-04-26T08:42:10.698Z</time></trkpt><trkpt lat="33.4670714" lon="10.1286751"><ele>474.66666666666663</ele><time>2026-04-26T08:42:11.692Z</time></trkpt><trkpt lat="33.4670716" lon="10.1287697"><ele>478.3333333333333</ele><time>2026-04-26T08:42:12.695Z</time></trkpt><trkpt lat="33.4670733" lon="10.1288569"><ele>482.0</ele><time>2026-04-26T08:42:13.684Z</time></trkpt><trkpt lat="33.4670697" lon="10.1289547"><ele>481.99999999999994</ele><time>2026-04-26T08:42:14.687Z</time></trkpt><trkpt lat="33.4670742" lon="10.129052"><ele>482.0</ele><time>2026-04-26T08:42:15.742Z</time></trkpt><trkpt lat="33.4670858" lon="10.129144"><ele>482.0</ele><time>2026-04-26T08:42:16.701Z</time></trkpt><trkpt lat="33.4670942" lon="10.1292385"><ele>482.0</ele><time>2026-04-26T08:42:17.687Z</time></trkpt><trkpt lat="33.4670895" lon="10.1293271"><ele>481.99999999999994</ele><time>2026-04-26T08:42:18.704Z</time></trkpt><trkpt lat="33.4670806" lon="10.1294209"><ele>482.0</ele><time>2026-04-26T08:42:19.686Z</time></trkpt><trkpt lat="33.4670526" lon="10.1295095"><ele>481.8333333333333</ele><time>2026-04-26T08:42:20.676Z</time></trkpt><trkpt lat="33.4670157" lon="10.1295864"><ele>481.66666666666663</ele><time>2026-04-26T08:42:21.679Z</time></trkpt><trkpt lat="33.4669655" lon="10.129652"><ele>481.5</ele><time>2026-04-26T08:42:22.692Z</time></trkpt><trkpt lat="33.4669126" lon="10.1297138"><ele>481.33333333333337</ele><time>2026-04-26T08:42:23.686Z</time></trkpt><trkpt lat="33.4668599" lon="10.1297865"><ele>481.1666666666667</ele><time>2026-04-26T08:42:24.699Z</time></trkpt><trkpt lat="33.4668129" lon="10.1298605"><ele>481.0</ele><time>2026-04-26T08:42:25.687Z</time></trkpt><trkpt lat="33.4667661" lon="10.1299264"><ele>477.5</ele><time>2026-04-26T08:42:26.691Z</time></trkpt><trkpt lat="33.4666896" lon="10.1300395"><ele>474.0</ele><time>2026-04-26T08:42:28.699Z</time></trkpt><trkpt lat="33.4666211" lon="10.130162"><ele>470.5</ele><time>2026-04-26T08:42:30.678Z</time></trkpt><trkpt lat="33.4665331" lon="10.1302584"><ele>467.0</ele><time>2026-04-26T08:42:32.689Z</time></trkpt><trkpt lat="33.4664333" lon="10.1303129"><ele>466.99999999999994</ele><time>2026-04-26T08:42:34.688Z</time></trkpt><trkpt lat="33.4663485" lon="10.1303561"><ele>467.0</ele><time>2026-04-26T08:42:36.698Z</time></trkpt><trkpt lat="33.4662805" lon="10.1303943"><ele>467.0</ele><time>2026-04-26T08:42:39.694Z</time></trkpt><trkpt lat="33.4662183" lon="10.1304325"><ele>467.0</ele><time>2026-04-26T08:42:41.68Z</time></trkpt><trkpt lat="33.4661401" lon="10.1304949"><ele>466.99999999999994</ele><time>2026-04-26T08:42:43.676Z</time></trkpt><trkpt lat="33.4660645" lon="10.1305755"><ele>467.0</ele><time>2026-04-26T08:42:45.684Z</time></trkpt><trkpt lat="33.4659887" lon="10.1306439"><ele>467.20000000000005</ele><time>2026-04-26T08:42:47.682Z</time></trkpt><trkpt lat="33.4659188" lon="10.1307195"><ele>467.40000000000003</ele><time>2026-04-26T08:42:49.681Z</time></trkpt><trkpt lat="33.4658515" lon="10.1308032"><ele>467.59999999999997</ele><time>2026-04-26T08:42:51.687Z</time></trkpt><trkpt lat="33.4657737" lon="10.130884"><ele>467.79999999999995</ele><time>2026-04-26T08:42:53.687Z</time></trkpt><trkpt lat="33.4656915" lon="10.1309685"><ele>468.0</ele><time>2026-04-26T08:42:55.698Z</time></trkpt><trkpt lat="33.4656091" lon="10.131056"><ele>468.0</ele><time>2026-04-26T08:42:57.673Z</time></trkpt><trkpt lat="33.4655337" lon="10.1311525"><ele>468.0</ele><time>2026-04-26T08:42:59.691Z</time></trkpt><trkpt lat="33.4654615" lon="10.1312557"><ele>468.0</ele><time>2026-04-26T08:43:01.681Z</time></trkpt><trkpt lat="33.4653772" lon="10.1313843"><ele>468.0</ele><time>2026-04-26T08:43:03.678Z</time></trkpt><trkpt lat="33.4653401" lon="10.1314889"><ele>472.5</ele><time>2026-04-26T08:43:04.691Z</time></trkpt><trkpt lat="33.4653105" lon="10.131622"><ele>477.0</ele><time>2026-04-26T08:43:05.689Z</time></trkpt><trkpt lat="33.4652662" lon="10.1317847"><ele>481.5</ele><time>2026-04-26T08:43:06.685Z</time></trkpt><trkpt lat="33.4652188" lon="10.131926"><ele>486.0</ele><time>2026-04-26T08:43:07.698Z</time></trkpt><trkpt lat="33.4651807" lon="10.1320439"><ele>486.0</ele><time>2026-04-26T08:43:08.68Z</time></trkpt><trkpt lat="33.4651368" lon="10.132153"><ele>486.0</ele><time>2026-04-26T08:43:09.688Z</time></trkpt><trkpt lat="33.4650916" lon="10.1322668"><ele>486.0</ele><time>2026-04-26T08:43:10.705Z</time></trkpt><trkpt lat="33.4650507" lon="10.1323768"><ele>486.0</ele><time>2026-04-26T08:43:11.7Z</time></trkpt><trkpt lat="33.4650035" lon="10.1324813"><ele>486.0</ele><time>2026-04-26T08:43:12.686Z</time></trkpt><trkpt lat="33.4649582" lon="10.1325859"><ele>483.0</ele><time>2026-04-26T08:43:13.694Z</time></trkpt><trkpt lat="33.4649155" lon="10.1326868"><ele>480.0</ele><time>2026-04-26T08:43:14.676Z</time></trkpt><trkpt lat="33.4648783" lon="10.1327883"><ele>477.0</ele><time>2026-04-26T08:43:15.686Z</time></trkpt><trkpt lat="33.4648402" lon="10.1328917"><ele>474.0</ele><time>2026-04-26T08:43:16.684Z</time></trkpt><trkpt lat="33.4648034" lon="10.1329884"><ele>471.0</ele><time>2026-04-26T08:43:17.688Z</time></trkpt><trkpt lat="33.4647612" lon="10.1330811"><ele>471.0</ele><time>2026-04-26T08:43:18.689Z</time></trkpt><trkpt lat="33.4647135" lon="10.1331641"><ele>471.0</ele><time>2026-04-26T08:43:19.689Z</time></trkpt><trkpt lat="33.4646671" lon="10.1332388"><ele>471.0</ele><time>2026-04-26T08:43:20.695Z</time></trkpt><trkpt lat="33.464627" lon="10.1333153"><ele>471.0</ele><time>2026-04-26T08:43:21.678Z</time></trkpt><trkpt lat="33.4645822" lon="10.1334007"><ele>471.0</ele><time>2026-04-26T08:43:22.682Z</time></trkpt><trkpt lat="33.4645374" lon="10.1334864"><ele>471.0</ele><time>2026-04-26T08:43:23.679Z</time></trkpt><trkpt lat="33.4644889" lon="10.1335708"><ele>477.0</ele><time>2026-04-26T08:43:24.687Z</time></trkpt><trkpt lat="33.4644389" lon="10.13365"><ele>483.0</ele><time>2026-04-26T08:43:25.733Z</time></trkpt><trkpt lat="33.4643839" lon="10.1337251"><ele>489.0</ele><time>2026-04-26T08:43:26.698Z</time></trkpt><trkpt lat="33.464325" lon="10.1338063"><ele>495.0</ele><time>2026-04-26T08:43:27.706Z</time></trkpt><trkpt lat="33.4642683" lon="10.133883"><ele>501.0</ele><time>2026-04-26T08:43:28.686Z</time></trkpt><trkpt lat="33.4642161" lon="10.1339594"><ele>507.0</ele><time>2026-04-26T08:43:29.688Z</time></trkpt><trkpt lat="33.4641641" lon="10.1340434"><ele>503.5</ele><time>2026-04-26T08:43:30.693Z</time></trkpt><trkpt lat="33.4641206" lon="10.1341301"><ele>500.0</ele><time>2026-04-26T08:43:31.686Z</time></trkpt><trkpt lat="33.4640712" lon="10.1342203"><ele>496.5</ele><time>2026-04-26T08:43:32.685Z</time></trkpt><trkpt lat="33.4640264" lon="10.1343077"><ele>493.0</ele><time>2026-04-26T08:43:33.689Z</time></trkpt><trkpt lat="33.4639883" lon="10.1343955"><ele>489.5</ele><time>2026-04-26T08:43:34.686Z</time></trkpt><trkpt lat="33.4639517" lon="10.1344778"><ele>486.0</ele><time>2026-04-26T08:43:35.701Z</time></trkpt><trkpt lat="33.4639121" lon="10.1345549"><ele>486.0</ele><time>2026-04-26T08:43:36.688Z</time></trkpt><trkpt lat="33.4638669" lon="10.1346337"><ele>486.0</ele><time>2026-04-26T08:43:37.685Z</time></trkpt><trkpt lat="33.463813" lon="10.1347087"><ele>486.0</ele><time>2026-04-26T08:43:38.674Z</time></trkpt><trkpt lat="33.463751" lon="10.1347904"><ele>486.0</ele><time>2026-04-26T08:43:39.671Z</time></trkpt><trkpt lat="33.463687" lon="10.1348667"><ele>486.0</ele><time>2026-04-26T08:43:40.702Z</time></trkpt><trkpt lat="33.4636277" lon="10.1349458"><ele>486.0</ele><time>2026-04-26T08:43:41.736Z</time></trkpt><trkpt lat="33.4635703" lon="10.1350272"><ele>489.0</ele><time>2026-04-26T08:43:42.725Z</time></trkpt><trkpt lat="33.4635173" lon="10.1351146"><ele>492.0</ele><time>2026-04-26T08:43:43.673Z</time></trkpt><trkpt lat="33.463471" lon="10.1352069"><ele>495.0</ele><time>2026-04-26T08:43:44.72Z</time></trkpt><trkpt lat="33.4634333" lon="10.1353126"><ele>498.0</ele><time>2026-04-26T08:43:45.705Z</time></trkpt><trkpt lat="33.4634048" lon="10.1354206"><ele>501.0</ele><time>2026-04-26T08:43:46.695Z</time></trkpt><trkpt lat="33.4633768" lon="10.1355215"><ele>501.0</ele><time>2026-04-26T08:43:47.693Z</time></trkpt><trkpt lat="33.4633395" lon="10.1356097"><ele>501.0</ele><time>2026-04-26T08:43:48.673Z</time></trkpt><trkpt lat="33.4633082" lon="10.1357042"><ele>501.0</ele><time>2026-04-26T08:43:49.688Z</time></trkpt><trkpt lat="33.4632854" lon="10.1358028"><ele>501.0</ele><time>2026-04-26T08:43:50.68Z</time></trkpt><trkpt lat="33.4632721" lon="10.1359033"><ele>501.0</ele><time>2026-04-26T08:43:51.681Z</time></trkpt><trkpt lat="33.4632658" lon="10.1359983"><ele>501.0</ele><time>2026-04-26T08:43:52.673Z</time></trkpt><trkpt lat="33.4632603" lon="10.1360922"><ele>500.3333333333333</ele><time>2026-04-26T08:43:53.672Z</time></trkpt><trkpt lat="33.4632529" lon="10.1361862"><ele>499.66666666666663</ele><time>2026-04-26T08:43:54.69Z</time></trkpt><trkpt lat="33.4632316" lon="10.1362676"><ele>499.0</ele><time>2026-04-26T08:43:55.681Z</time></trkpt><trkpt lat="33.4631881" lon="10.1363446"><ele>498.3333333333333</ele><time>2026-04-26T08:43:56.678Z</time></trkpt><trkpt lat="33.4631258" lon="10.1364207"><ele>497.66666666666663</ele><time>2026-04-26T08:43:57.706Z</time></trkpt><trkpt lat="33.4630528" lon="10.1365112"><ele>497.0</ele><time>2026-04-26T08:43:58.673Z</time></trkpt><trkpt lat="33.4629679" lon="10.1365926"><ele>500.20000000000005</ele><time>2026-04-26T08:43:59.702Z</time></trkpt><trkpt lat="33.4628744" lon="10.1366645"><ele>503.40000000000003</ele><time>2026-04-26T08:44:00.685Z</time></trkpt><trkpt lat="33.4627831" lon="10.1367342"><ele>506.59999999999997</ele><time>2026-04-26T08:44:01.699Z</time></trkpt><trkpt lat="33.4626886" lon="10.1367951"><ele>509.79999999999995</ele><time>2026-04-26T08:44:02.682Z</time></trkpt><trkpt lat="33.4625966" lon="10.1368553"><ele>513.0</ele><time>2026-04-26T08:44:03.683Z</time></trkpt><trkpt lat="33.4625021" lon="10.1369238"><ele>513.0</ele><time>2026-04-26T08:44:04.7Z</time></trkpt><trkpt lat="33.4624153" lon="10.1369931"><ele>513.0</ele><time>2026-04-26T08:44:05.705Z</time></trkpt><trkpt lat="33.4623426" lon="10.1370662"><ele>513.0</ele><time>2026-04-26T08:44:06.675Z</time></trkpt><trkpt lat="33.4622812" lon="10.1371517"><ele>513.0</ele><time>2026-04-26T08:44:07.691Z</time></trkpt><trkpt lat="33.4622285" lon="10.1372423"><ele>513.0</ele><time>2026-04-26T08:44:08.675Z</time></trkpt><trkpt lat="33.4621804" lon="10.1373363"><ele>514.6</ele><time>2026-04-26T08:44:09.701Z</time></trkpt><trkpt lat="33.4621401" lon="10.1374254"><ele>516.1999999999999</ele><time>2026-04-26T08:44:10.687Z</time></trkpt><trkpt lat="33.4621137" lon="10.1375202"><ele>517.8</ele><time>2026-04-26T08:44:11.686Z</time></trkpt><trkpt lat="33.4620984" lon="10.1376082"><ele>519.4</ele><time>2026-04-26T08:44:12.7Z</time></trkpt><trkpt lat="33.462068" lon="10.1377297"><ele>521.0</ele><time>2026-04-26T08:44:14.69Z</time></trkpt><trkpt lat="33.4620077" lon="10.1378275"><ele>521.0</ele><time>2026-04-26T08:44:49.69Z</time></trkpt><trkpt lat="33.4619499" lon="10.1378792"><ele>521.0</ele><time>2026-04-26T08:44:50.682Z</time></trkpt><trkpt lat="33.461891" lon="10.1379431"><ele>521.0</ele><time>2026-04-26T08:44:51.687Z</time></trkpt><trkpt lat="33.4618321" lon="10.1380322"><ele>521.0</ele><time>2026-04-26T08:44:52.675Z</time></trkpt><trkpt lat="33.4617705" lon="10.1381368"><ele>521.0</ele><time>2026-04-26T08:44:53.68Z</time></trkpt><trkpt lat="33.4617058" lon="10.1382518"><ele>519.0</ele><time>2026-04-26T08:44:54.684Z</time></trkpt><trkpt lat="33.4616364" lon="10.1383736"><ele>517.0</ele><time>2026-04-26T08:44:55.685Z</time></trkpt><trkpt lat="33.4615656" lon="10.1384964"><ele>515.0</ele><time>2026-04-26T08:44:56.677Z</time></trkpt><trkpt lat="33.4614919" lon="10.1386246"><ele>513.0</ele><time>2026-04-26T08:44:57.674Z</time></trkpt><trkpt lat="33.4614125" lon="10.1387533"><ele>513.0</ele><time>2026-04-26T08:44:58.676Z</time></trkpt><trkpt lat="33.4613401" lon="10.1388854"><ele>513.0</ele><time>2026-04-26T08:44:59.691Z</time></trkpt><trkpt lat="33.4612705" lon="10.1390144"><ele>513.0</ele><time>2026-04-26T08:45:00.686Z</time></trkpt><trkpt lat="33.4612128" lon="10.1391439"><ele>513.0</ele><time>2026-04-26T08:45:01.675Z</time></trkpt><trkpt lat="33.4611574" lon="10.1392845"><ele>512.0</ele><time>2026-04-26T08:45:02.692Z</time></trkpt><trkpt lat="33.4611039" lon="10.1394339"><ele>511.0</ele><time>2026-04-26T08:45:03.685Z</time></trkpt><trkpt lat="33.4610538" lon="10.1395828"><ele>510.0</ele><time>2026-04-26T08:45:04.678Z</time></trkpt><trkpt lat="33.4610025" lon="10.1397369"><ele>509.0</ele><time>2026-04-26T08:45:05.697Z</time></trkpt><trkpt lat="33.4609439" lon="10.1399002"><ele>509.0</ele><time>2026-04-26T08:45:06.693Z</time></trkpt><trkpt lat="33.4608858" lon="10.1400597"><ele>509.0</ele><time>2026-04-26T08:45:07.701Z</time></trkpt><trkpt lat="33.4608261" lon="10.140221"><ele>509.0</ele><time>2026-04-26T08:45:08.687Z</time></trkpt><trkpt lat="33.4607732" lon="10.1403786"><ele>509.0</ele><time>2026-04-26T08:45:09.678Z</time></trkpt><trkpt lat="33.4607241" lon="10.1405351"><ele>509.0</ele><time>2026-04-26T08:45:10.69Z</time></trkpt><trkpt lat="33.4606754" lon="10.1406902"><ele>509.0</ele><time>2026-04-26T08:45:11.681Z</time></trkpt><trkpt lat="33.4606226" lon="10.1408443"><ele>509.0</ele><time>2026-04-26T08:45:12.686Z</time></trkpt><trkpt lat="33.4605688" lon="10.1409941"><ele>509.0</ele><time>2026-04-26T08:45:13.687Z</time></trkpt><trkpt lat="33.4605155" lon="10.1411424"><ele>513.0</ele><time>2026-04-26T08:45:14.697Z</time></trkpt><trkpt lat="33.4604658" lon="10.1412926"><ele>517.0</ele><time>2026-04-26T08:45:15.685Z</time></trkpt><trkpt lat="33.4604189" lon="10.141443"><ele>521.0</ele><time>2026-04-26T08:45:16.684Z</time></trkpt><trkpt lat="33.4603774" lon="10.1415939"><ele>525.0</ele><time>2026-04-26T08:45:17.671Z</time></trkpt><trkpt lat="33.4603321" lon="10.1417448"><ele>525.0</ele><time>2026-04-26T08:45:18.675Z</time></trkpt><trkpt lat="33.4603016" lon="10.1418978"><ele>525.0</ele><time>2026-04-26T08:45:19.681Z</time></trkpt><trkpt lat="33.4602813" lon="10.1420619"><ele>525.0</ele><time>2026-04-26T08:45:20.699Z</time></trkpt><trkpt lat="33.4602844" lon="10.1422365"><ele>525.0</ele><time>2026-04-26T08:45:21.683Z</time></trkpt><trkpt lat="33.4603071" lon="10.1424072"><ele>519.6666666666666</ele><time>2026-04-26T08:45:22.729Z</time></trkpt><trkpt lat="33.4603637" lon="10.1425891"><ele>514.3333333333333</ele><time>2026-04-26T08:45:23.683Z</time></trkpt><trkpt lat="33.4604283" lon="10.1427632"><ele>509.0</ele><time>2026-04-26T08:45:24.681Z</time></trkpt><trkpt lat="33.4605064" lon="10.1429332"><ele>502.3333333333333</ele><time>2026-04-26T08:45:25.678Z</time></trkpt><trkpt lat="33.4605953" lon="10.1430944"><ele>495.66666666666663</ele><time>2026-04-26T08:45:26.682Z</time></trkpt><trkpt lat="33.4606823" lon="10.143244"><ele>489.0</ele><time>2026-04-26T08:45:27.673Z</time></trkpt><trkpt lat="33.4607682" lon="10.1433971"><ele>489.0</ele><time>2026-04-26T08:45:28.688Z</time></trkpt><trkpt lat="33.4608592" lon="10.143544"><ele>489.0</ele><time>2026-04-26T08:45:29.687Z</time></trkpt><trkpt lat="33.4609618" lon="10.1436789"><ele>489.0</ele><time>2026-04-26T08:45:30.694Z</time></trkpt><trkpt lat="33.4610728" lon="10.1437948"><ele>489.0</ele><time>2026-04-26T08:45:31.69Z</time></trkpt><trkpt lat="33.4611897" lon="10.1439044"><ele>489.0</ele><time>2026-04-26T08:45:32.696Z</time></trkpt><trkpt lat="33.4613046" lon="10.1440111"><ele>489.0</ele><time>2026-04-26T08:45:33.685Z</time></trkpt><trkpt lat="33.4614187" lon="10.144114"><ele>489.0</ele><time>2026-04-26T08:45:34.693Z</time></trkpt><trkpt lat="33.4615319" lon="10.1442202"><ele>487.0</ele><time>2026-04-26T08:45:35.676Z</time></trkpt><trkpt lat="33.4616424" lon="10.1443296"><ele>485.0</ele><time>2026-04-26T08:45:36.676Z</time></trkpt><trkpt lat="33.4617396" lon="10.1444448"><ele>483.0</ele><time>2026-04-26T08:45:37.687Z</time></trkpt><trkpt lat="33.4618164" lon="10.1445758"><ele>481.0</ele><time>2026-04-26T08:45:38.692Z</time></trkpt><trkpt lat="33.4618675" lon="10.1447126"><ele>481.0</ele><time>2026-04-26T08:45:39.697Z</time></trkpt><trkpt lat="33.46186" lon="10.1448281"><ele>481.0</ele><time>2026-04-26T08:45:40.679Z</time></trkpt><trkpt lat="33.4618354" lon="10.1449306"><ele>481.0</ele><time>2026-04-26T08:45:41.689Z</time></trkpt><trkpt lat="33.4617771" lon="10.145028"><ele>481.0</ele><time>2026-04-26T08:45:42.693Z</time></trkpt><trkpt lat="33.4617165" lon="10.1451056"><ele>481.0</ele><time>2026-04-26T08:45:43.676Z</time></trkpt><trkpt lat="33.4616506" lon="10.1451936"><ele>482.6</ele><time>2026-04-26T08:45:44.712Z</time></trkpt><trkpt lat="33.4615868" lon="10.1452802"><ele>484.20000000000005</ele><time>2026-04-26T08:45:45.694Z</time></trkpt><trkpt lat="33.4615192" lon="10.1453719"><ele>485.79999999999995</ele><time>2026-04-26T08:45:46.697Z</time></trkpt><trkpt lat="33.4614442" lon="10.145444"><ele>487.4</ele><time>2026-04-26T08:45:47.684Z</time></trkpt><trkpt lat="33.4613661" lon="10.1455087"><ele>489.0</ele><time>2026-04-26T08:45:48.687Z</time></trkpt><trkpt lat="33.4612858" lon="10.1455643"><ele>491.4</ele><time>2026-04-26T08:45:49.684Z</time></trkpt><trkpt lat="33.461196" lon="10.1456154"><ele>493.79999999999995</ele><time>2026-04-26T08:45:50.692Z</time></trkpt><trkpt lat="33.4611015" lon="10.1456531"><ele>496.20000000000005</ele><time>2026-04-26T08:45:51.691Z</time></trkpt><trkpt lat="33.4610016" lon="10.1456902"><ele>498.6</ele><time>2026-04-26T08:45:52.674Z</time></trkpt><trkpt lat="33.4608977" lon="10.1457322"><ele>501.0</ele><time>2026-04-26T08:45:53.685Z</time></trkpt><trkpt lat="33.4607934" lon="10.1457791"><ele>501.0</ele><time>2026-04-26T08:45:54.676Z</time></trkpt><trkpt lat="33.4606812" lon="10.1458407"><ele>501.0</ele><time>2026-04-26T08:45:55.68Z</time></trkpt><trkpt lat="33.4605731" lon="10.1459096"><ele>501.0</ele><time>2026-04-26T08:45:56.675Z</time></trkpt><trkpt lat="33.4604652" lon="10.1459877"><ele>501.0</ele><time>2026-04-26T08:45:57.684Z</time></trkpt><trkpt lat="33.4603544" lon="10.1460676"><ele>506.0</ele><time>2026-04-26T08:45:58.694Z</time></trkpt><trkpt lat="33.4602402" lon="10.14615"><ele>511.0</ele><time>2026-04-26T08:45:59.681Z</time></trkpt><trkpt lat="33.4601306" lon="10.1462374"><ele>516.0</ele><time>2026-04-26T08:46:00.686Z</time></trkpt><trkpt lat="33.4600194" lon="10.1463291"><ele>521.0</ele><time>2026-04-26T08:46:01.682Z</time></trkpt><trkpt lat="33.4599085" lon="10.1464268"><ele>521.0</ele><time>2026-04-26T08:46:02.694Z</time></trkpt><trkpt lat="33.4598006" lon="10.1465281"><ele>521.0</ele><time>2026-04-26T08:46:03.699Z</time></trkpt><trkpt lat="33.4596994" lon="10.146626"><ele>521.0</ele><time>2026-04-26T08:46:04.696Z</time></trkpt><trkpt lat="33.4596032" lon="10.1467307"><ele>521.0</ele><time>2026-04-26T08:46:05.688Z</time></trkpt><trkpt lat="33.4595088" lon="10.1468374"><ele>523.5</ele><time>2026-04-26T08:46:06.685Z</time></trkpt><trkpt lat="33.4594228" lon="10.146943"><ele>526.0</ele><time>2026-04-26T08:46:07.68Z</time></trkpt><trkpt lat="33.4593358" lon="10.1470551"><ele>528.5</ele><time>2026-04-26T08:46:08.699Z</time></trkpt><trkpt lat="33.4592558" lon="10.1471649"><ele>531.0</ele><time>2026-04-26T08:46:09.679Z</time></trkpt><trkpt lat="33.4591689" lon="10.1472836"><ele>525.5</ele><time>2026-04-26T08:46:10.682Z</time></trkpt><trkpt lat="33.4590789" lon="10.1474028"><ele>520.0</ele><time>2026-04-26T08:46:11.679Z</time></trkpt><trkpt lat="33.4589867" lon="10.1475212"><ele>514.5</ele><time>2026-04-26T08:46:12.689Z</time></trkpt><trkpt lat="33.4588906" lon="10.1476484"><ele>509.0</ele><time>2026-04-26T08:46:13.682Z</time></trkpt><trkpt lat="33.458794" lon="10.1477723"><ele>511.75</ele><time>2026-04-26T08:46:14.693Z</time></trkpt><trkpt lat="33.4586926" lon="10.147902"><ele>514.5</ele><time>2026-04-26T08:46:15.67Z</time></trkpt><trkpt lat="33.4585953" lon="10.1480327"><ele>517.25</ele><time>2026-04-26T08:46:16.686Z</time></trkpt><trkpt lat="33.4584904" lon="10.1481695"><ele>520.0</ele><time>2026-04-26T08:46:17.69Z</time></trkpt><trkpt lat="33.4583889" lon="10.1483075"><ele>520.0</ele><time>2026-04-26T08:46:18.687Z</time></trkpt><trkpt lat="33.45829" lon="10.1484364"><ele>520.0</ele><time>2026-04-26T08:46:19.693Z</time></trkpt><trkpt lat="33.4581879" lon="10.1485687"><ele>520.0</ele><time>2026-04-26T08:46:20.681Z</time></trkpt><trkpt lat="33.4580889" lon="10.1487012"><ele>520.0</ele><time>2026-04-26T08:46:21.679Z</time></trkpt><trkpt lat="33.4579904" lon="10.1488351"><ele>522.0</ele><time>2026-04-26T08:46:22.685Z</time></trkpt><trkpt lat="33.4578899" lon="10.1489665"><ele>524.0</ele><time>2026-04-26T08:46:23.675Z</time></trkpt><trkpt lat="33.4577859" lon="10.1491016"><ele>526.0</ele><time>2026-04-26T08:46:24.689Z</time></trkpt><trkpt lat="33.4576883" lon="10.1492192"><ele>528.0</ele><time>2026-04-26T08:46:25.683Z</time></trkpt><trkpt lat="33.4575936" lon="10.1493269"><ele>528.0</ele><time>2026-04-26T08:46:26.707Z</time></trkpt><trkpt lat="33.4575039" lon="10.1494381"><ele>528.0</ele><time>2026-04-26T08:46:27.68Z</time></trkpt><trkpt lat="33.4574291" lon="10.1495547"><ele>528.0</ele><time>2026-04-26T08:46:28.676Z</time></trkpt><trkpt lat="33.4573677" lon="10.149686"><ele>528.0</ele><time>2026-04-26T08:46:29.688Z</time></trkpt><trkpt lat="33.457338" lon="10.1498322"><ele>528.1999999999999</ele><time>2026-04-26T08:46:30.687Z</time></trkpt><trkpt lat="33.4573234" lon="10.1499662"><ele>528.4</ele><time>2026-04-26T08:46:31.679Z</time></trkpt><trkpt lat="33.4572991" lon="10.1500781"><ele>528.5999999999999</ele><time>2026-04-26T08:46:32.68Z</time></trkpt><trkpt lat="33.4572486" lon="10.1501666"><ele>528.8</ele><time>2026-04-26T08:46:33.675Z</time></trkpt><trkpt lat="33.4571638" lon="10.150239"><ele>529.0</ele><time>2026-04-26T08:46:34.669Z</time></trkpt><trkpt lat="33.4570602" lon="10.150282"><ele>529.0</ele><time>2026-04-26T08:46:35.685Z</time></trkpt><trkpt lat="33.4569368" lon="10.1503226"><ele>529.0</ele><time>2026-04-26T08:46:36.687Z</time></trkpt><trkpt lat="33.4567929" lon="10.1503687"><ele>529.0</ele><time>2026-04-26T08:46:37.703Z</time></trkpt><trkpt lat="33.4566502" lon="10.1504116"><ele>529.0</ele><time>2026-04-26T08:46:38.673Z</time></trkpt><trkpt lat="33.456506" lon="10.1504583"><ele>529.0</ele><time>2026-04-26T08:46:39.692Z</time></trkpt><trkpt lat="33.4563603" lon="10.1505132"><ele>529.0</ele><time>2026-04-26T08:46:40.692Z</time></trkpt><trkpt lat="33.4562163" lon="10.1505676"><ele>529.0</ele><time>2026-04-26T08:46:41.683Z</time></trkpt><trkpt lat="33.4560814" lon="10.1506105"><ele>529.0</ele><time>2026-04-26T08:46:42.684Z</time></trkpt><trkpt lat="33.4559499" lon="10.1506457"><ele>533.5</ele><time>2026-04-26T08:46:43.699Z</time></trkpt><trkpt lat="33.4558219" lon="10.1506639"><ele>538.0</ele><time>2026-04-26T08:46:44.692Z</time></trkpt><trkpt lat="33.455704" lon="10.1506722"><ele>542.5</ele><time>2026-04-26T08:46:45.688Z</time></trkpt><trkpt lat="33.4555973" lon="10.1506889"><ele>547.0</ele><time>2026-04-26T08:46:46.69Z</time></trkpt><trkpt lat="33.4554935" lon="10.1507245"><ele>542.0</ele><time>2026-04-26T08:46:47.681Z</time></trkpt><trkpt lat="33.4554026" lon="10.1507908"><ele>537.0</ele><time>2026-04-26T08:46:48.678Z</time></trkpt><trkpt lat="33.4553238" lon="10.1508964"><ele>532.0</ele><time>2026-04-26T08:46:49.674Z</time></trkpt><trkpt lat="33.4552641" lon="10.1510193"><ele>527.0</ele><time>2026-04-26T08:46:50.684Z</time></trkpt><trkpt lat="33.4552114" lon="10.1511503"><ele>527.0</ele><time>2026-04-26T08:46:51.686Z</time></trkpt><trkpt lat="33.4551358" lon="10.1512757"><ele>527.0</ele><time>2026-04-26T08:46:52.686Z</time></trkpt><trkpt lat="33.4550436" lon="10.1513778"><ele>527.0</ele><time>2026-04-26T08:46:53.69Z</time></trkpt><trkpt lat="33.4549264" lon="10.1514622"><ele>527.0</ele><time>2026-04-26T08:46:54.694Z</time></trkpt><trkpt lat="33.4548239" lon="10.1515346"><ele>526.6</ele><time>2026-04-26T08:46:55.691Z</time></trkpt><trkpt lat="33.454731" lon="10.151607"><ele>526.2</ele><time>2026-04-26T08:46:56.697Z</time></trkpt><trkpt lat="33.4546564" lon="10.1516881"><ele>525.8</ele><time>2026-04-26T08:46:57.678Z</time></trkpt><trkpt lat="33.4545986" lon="10.1517851"><ele>525.4</ele><time>2026-04-26T08:46:58.679Z</time></trkpt><trkpt lat="33.4545808" lon="10.1518951"><ele>525.0</ele><time>2026-04-26T08:46:59.717Z</time></trkpt><trkpt lat="33.4545995" lon="10.1519957"><ele>521.0</ele><time>2026-04-26T08:47:00.685Z</time></trkpt><trkpt lat="33.4546444" lon="10.1520853"><ele>517.0</ele><time>2026-04-26T08:47:01.68Z</time></trkpt><trkpt lat="33.4547177" lon="10.1521525"><ele>513.0</ele><time>2026-04-26T08:47:02.676Z</time></trkpt><trkpt lat="33.4548041" lon="10.152212"><ele>509.0</ele><time>2026-04-26T08:47:03.679Z</time></trkpt><trkpt lat="33.4548877" lon="10.1522868"><ele>505.0</ele><time>2026-04-26T08:47:04.667Z</time></trkpt><trkpt lat="33.4549615" lon="10.1523881"><ele>503.0</ele><time>2026-04-26T08:47:05.664Z</time></trkpt><trkpt lat="33.4550215" lon="10.1525072"><ele>501.0</ele><time>2026-04-26T08:47:06.697Z</time></trkpt><trkpt lat="33.4550733" lon="10.1526311"><ele>499.0</ele><time>2026-04-26T08:47:07.675Z</time></trkpt><trkpt lat="33.4551137" lon="10.1527608"><ele>497.0</ele><time>2026-04-26T08:47:08.69Z</time></trkpt><trkpt lat="33.4551424" lon="10.1528994"><ele>497.0</ele><time>2026-04-26T08:47:09.686Z</time></trkpt><trkpt lat="33.4551684" lon="10.1530399"><ele>497.0</ele><time>2026-04-26T08:47:10.681Z</time></trkpt><trkpt lat="33.4551754" lon="10.1531825"><ele>497.0</ele><time>2026-04-26T08:47:11.686Z</time></trkpt><trkpt lat="33.4551787" lon="10.1533158"><ele>497.0</ele><time>2026-04-26T08:47:12.695Z</time></trkpt><trkpt lat="33.4551663" lon="10.1534565"><ele>496.75</ele><time>2026-04-26T08:47:13.682Z</time></trkpt><trkpt lat="33.4551422" lon="10.1535956"><ele>496.5</ele><time>2026-04-26T08:47:14.7Z</time></trkpt><trkpt lat="33.4551145" lon="10.1537374"><ele>496.25</ele><time>2026-04-26T08:47:15.743Z</time></trkpt><trkpt lat="33.4551045" lon="10.1538882"><ele>496.0</ele><time>2026-04-26T08:47:16.682Z</time></trkpt><trkpt lat="33.4551098" lon="10.154043"><ele>494.0</ele><time>2026-04-26T08:47:17.699Z</time></trkpt><trkpt lat="33.4551239" lon="10.1541986"><ele>492.0</ele><time>2026-04-26T08:47:18.7Z</time></trkpt><trkpt lat="33.4551459" lon="10.1543478"><ele>490.0</ele><time>2026-04-26T08:47:19.694Z</time></trkpt><trkpt lat="33.4551664" lon="10.1544927"><ele>488.0</ele><time>2026-04-26T08:47:20.688Z</time></trkpt><trkpt lat="33.4551934" lon="10.1546355"><ele>488.0</ele><time>2026-04-26T08:47:21.683Z</time></trkpt><trkpt lat="33.4552107" lon="10.1547809"><ele>488.0</ele><time>2026-04-26T08:47:22.676Z</time></trkpt><trkpt lat="33.4552163" lon="10.1549173"><ele>488.0</ele><time>2026-04-26T08:47:23.697Z</time></trkpt><trkpt lat="33.4551992" lon="10.1550494"><ele>488.0</ele><time>2026-04-26T08:47:24.683Z</time></trkpt><trkpt lat="33.4551606" lon="10.1551726"><ele>486.79999999999995</ele><time>2026-04-26T08:47:25.702Z</time></trkpt><trkpt lat="33.4551008" lon="10.1552929"><ele>485.59999999999997</ele><time>2026-04-26T08:47:26.684Z</time></trkpt><trkpt lat="33.4550291" lon="10.1553875"><ele>484.40000000000003</ele><time>2026-04-26T08:47:27.675Z</time></trkpt><trkpt lat="33.4549446" lon="10.1554602"><ele>483.20000000000005</ele><time>2026-04-26T08:47:28.699Z</time></trkpt><trkpt lat="33.454843" lon="10.1555162"><ele>482.0</ele><time>2026-04-26T08:47:29.699Z</time></trkpt><trkpt lat="33.4547312" lon="10.1555285"><ele>478.25</ele><time>2026-04-26T08:47:30.68Z</time></trkpt><trkpt lat="33.4546088" lon="10.1555172"><ele>474.5</ele><time>2026-04-26T08:47:31.696Z</time></trkpt><trkpt lat="33.4544996" lon="10.1554769"><ele>470.75</ele><time>2026-04-26T08:47:32.684Z</time></trkpt><trkpt lat="33.4544084" lon="10.1554133"><ele>467.0</ele><time>2026-04-26T08:47:33.682Z</time></trkpt><trkpt lat="33.4543144" lon="10.1553058"><ele>467.0</ele><time>2026-04-26T08:47:34.731Z</time></trkpt><trkpt lat="33.4542269" lon="10.1551639"><ele>467.0</ele><time>2026-04-26T08:47:35.686Z</time></trkpt><trkpt lat="33.454143" lon="10.155012"><ele>467.0</ele><time>2026-04-26T08:47:36.685Z</time></trkpt><trkpt lat="33.4540599" lon="10.154877"><ele>467.0</ele><time>2026-04-26T08:47:37.686Z</time></trkpt><trkpt lat="33.4539793" lon="10.1547393"><ele>468.5</ele><time>2026-04-26T08:47:38.701Z</time></trkpt><trkpt lat="33.4539032" lon="10.1546122"><ele>470.0</ele><time>2026-04-26T08:47:39.683Z</time></trkpt><trkpt lat="33.4538279" lon="10.1544982"><ele>471.5</ele><time>2026-04-26T08:47:40.684Z</time></trkpt><trkpt lat="33.4537416" lon="10.1543979"><ele>473.0</ele><time>2026-04-26T08:47:41.691Z</time></trkpt><trkpt lat="33.4536563" lon="10.1543303"><ele>473.0</ele><time>2026-04-26T08:47:42.696Z</time></trkpt><trkpt lat="33.4535463" lon="10.1542913"><ele>473.0</ele><time>2026-04-26T08:47:43.679Z</time></trkpt><trkpt lat="33.4534373" lon="10.1542948"><ele>473.0</ele><time>2026-04-26T08:47:44.698Z</time></trkpt><trkpt lat="33.4533243" lon="10.1543255"><ele>473.0</ele><time>2026-04-26T08:47:45.682Z</time></trkpt><trkpt lat="33.453207" lon="10.1543809"><ele>473.0</ele><time>2026-04-26T08:47:46.682Z</time></trkpt><trkpt lat="33.4530855" lon="10.1544498"><ele>473.0</ele><time>2026-04-26T08:47:47.693Z</time></trkpt><trkpt lat="33.4529588" lon="10.1545155"><ele>473.0</ele><time>2026-04-26T08:47:48.683Z</time></trkpt><trkpt lat="33.4528376" lon="10.1545773"><ele>473.0</ele><time>2026-04-26T08:47:49.68Z</time></trkpt><trkpt lat="33.4527157" lon="10.1546466"><ele>471.75</ele><time>2026-04-26T08:47:50.684Z</time></trkpt><trkpt lat="33.4525952" lon="10.154729"><ele>470.5</ele><time>2026-04-26T08:47:51.68Z</time></trkpt><trkpt lat="33.4524799" lon="10.1548286"><ele>469.25</ele><time>2026-04-26T08:47:52.784Z</time></trkpt><trkpt lat="33.4523678" lon="10.1549459"><ele>468.0</ele><time>2026-04-26T08:47:53.719Z</time></trkpt><trkpt lat="33.4522569" lon="10.1550529"><ele>462.0</ele><time>2026-04-26T08:47:54.722Z</time></trkpt><trkpt lat="33.452143" lon="10.1551416"><ele>456.0</ele><time>2026-04-26T08:47:55.722Z</time></trkpt><trkpt lat="33.4520175" lon="10.1552154"><ele>450.0</ele><time>2026-04-26T08:47:56.731Z</time></trkpt><trkpt lat="33.4518937" lon="10.1552779"><ele>444.0</ele><time>2026-04-26T08:47:57.683Z</time></trkpt><trkpt lat="33.4517696" lon="10.1553388"><ele>442.25</ele><time>2026-04-26T08:47:58.685Z</time></trkpt><trkpt lat="33.4516431" lon="10.1553901"><ele>440.5</ele><time>2026-04-26T08:47:59.683Z</time></trkpt><trkpt lat="33.4515289" lon="10.1554675"><ele>438.75</ele><time>2026-04-26T08:48:00.694Z</time></trkpt><trkpt lat="33.4514298" lon="10.1555623"><ele>437.0</ele><time>2026-04-26T08:48:01.754Z</time></trkpt><trkpt lat="33.4513421" lon="10.1556707"><ele>435.75</ele><time>2026-04-26T08:48:02.747Z</time></trkpt><trkpt lat="33.451268" lon="10.1557799"><ele>434.5</ele><time>2026-04-26T08:48:03.735Z</time></trkpt><trkpt lat="33.4511969" lon="10.1558882"><ele>433.25</ele><time>2026-04-26T08:48:04.757Z</time></trkpt><trkpt lat="33.4511267" lon="10.1560059"><ele>432.0</ele><time>2026-04-26T08:48:05.724Z</time></trkpt><trkpt lat="33.4510557" lon="10.1561218"><ele>432.0</ele><time>2026-04-26T08:48:06.745Z</time></trkpt><trkpt lat="33.4509909" lon="10.1562433"><ele>432.0</ele><time>2026-04-26T08:48:07.739Z</time></trkpt><trkpt lat="33.4509316" lon="10.1563788"><ele>432.0</ele><time>2026-04-26T08:48:08.724Z</time></trkpt><trkpt lat="33.4508877" lon="10.1565308"><ele>432.0</ele><time>2026-04-26T08:48:09.759Z</time></trkpt><trkpt lat="33.4508523" lon="10.156689"><ele>434.25</ele><time>2026-04-26T08:48:10.725Z</time></trkpt><trkpt lat="33.4508093" lon="10.1568477"><ele>436.5</ele><time>2026-04-26T08:48:11.726Z</time></trkpt><trkpt lat="33.4507588" lon="10.1569826"><ele>438.75</ele><time>2026-04-26T08:48:12.725Z</time></trkpt><trkpt lat="33.450673" lon="10.1570846"><ele>441.0</ele><time>2026-04-26T08:48:13.723Z</time></trkpt><trkpt lat="33.4505633" lon="10.1571731"><ele>441.0</ele><time>2026-04-26T08:48:14.737Z</time></trkpt><trkpt lat="33.4504652" lon="10.1572234"><ele>441.0</ele><time>2026-04-26T08:48:15.72Z</time></trkpt><trkpt lat="33.4503602" lon="10.1572589"><ele>441.0</ele><time>2026-04-26T08:48:16.72Z</time></trkpt><trkpt lat="33.4502667" lon="10.1573074"><ele>441.0</ele><time>2026-04-26T08:48:17.733Z</time></trkpt><trkpt lat="33.4501947" lon="10.1573882"><ele>441.0</ele><time>2026-04-26T08:48:18.737Z</time></trkpt><trkpt lat="33.450132" lon="10.1574915"><ele>440.75</ele><time>2026-04-26T08:48:19.741Z</time></trkpt><trkpt lat="33.4500909" lon="10.157627"><ele>440.5</ele><time>2026-04-26T08:48:20.691Z</time></trkpt><trkpt lat="33.4500415" lon="10.1577524"><ele>440.25</ele><time>2026-04-26T08:48:21.701Z</time></trkpt><trkpt lat="33.4499655" lon="10.1578682"><ele>440.0</ele><time>2026-04-26T08:48:22.698Z</time></trkpt><trkpt lat="33.449857" lon="10.1579866"><ele>440.0</ele><time>2026-04-26T08:48:23.686Z</time></trkpt><trkpt lat="33.4497495" lon="10.1580844"><ele>440.0</ele><time>2026-04-26T08:48:24.688Z</time></trkpt><trkpt lat="33.4496381" lon="10.158178"><ele>440.0</ele><time>2026-04-26T08:48:25.697Z</time></trkpt><trkpt lat="33.4495279" lon="10.1582638"><ele>440.0</ele><time>2026-04-26T08:48:26.694Z</time></trkpt><trkpt lat="33.4494219" lon="10.158353"><ele>438.75</ele><time>2026-04-26T08:48:27.704Z</time></trkpt><trkpt lat="33.4493157" lon="10.1584356"><ele>437.5</ele><time>2026-04-26T08:48:28.703Z</time></trkpt><trkpt lat="33.449215" lon="10.1585132"><ele>436.25</ele><time>2026-04-26T08:48:29.675Z</time></trkpt><trkpt lat="33.4491108" lon="10.1585749"><ele>435.0</ele><time>2026-04-26T08:48:30.704Z</time></trkpt><trkpt lat="33.4489936" lon="10.1586142"><ele>435.0</ele><time>2026-04-26T08:48:31.733Z</time></trkpt><trkpt lat="33.4488748" lon="10.1586296"><ele>435.0</ele><time>2026-04-26T08:48:32.804Z</time></trkpt><trkpt lat="33.4487572" lon="10.15862"><ele>435.0</ele><time>2026-04-26T08:48:33.727Z</time></trkpt><trkpt lat="33.448641" lon="10.1585864"><ele>435.0</ele><time>2026-04-26T08:48:34.733Z</time></trkpt><trkpt lat="33.4485264" lon="10.1585331"><ele>432.75</ele><time>2026-04-26T08:48:35.736Z</time></trkpt><trkpt lat="33.4484063" lon="10.1584615"><ele>430.5</ele><time>2026-04-26T08:48:36.722Z</time></trkpt><trkpt lat="33.4482868" lon="10.1583939"><ele>428.25</ele><time>2026-04-26T08:48:37.739Z</time></trkpt><trkpt lat="33.4481665" lon="10.1583417"><ele>426.0</ele><time>2026-04-26T08:48:38.745Z</time></trkpt><trkpt lat="33.4480431" lon="10.1583101"><ele>424.5</ele><time>2026-04-26T08:48:39.755Z</time></trkpt><trkpt lat="33.4479278" lon="10.1583078"><ele>423.0</ele><time>2026-04-26T08:48:40.737Z</time></trkpt><trkpt lat="33.4478106" lon="10.1583421"><ele>421.5</ele><time>2026-04-26T08:48:41.747Z</time></trkpt><trkpt lat="33.4477007" lon="10.1584111"><ele>420.0</ele><time>2026-04-26T08:48:42.741Z</time></trkpt><trkpt lat="33.4475827" lon="10.1585128"><ele>420.0</ele><time>2026-04-26T08:48:43.744Z</time></trkpt><trkpt lat="33.4474578" lon="10.1586284"><ele>420.0</ele><time>2026-04-26T08:48:44.732Z</time></trkpt><trkpt lat="33.4473252" lon="10.1587702"><ele>420.0</ele><time>2026-04-26T08:48:45.724Z</time></trkpt><trkpt lat="33.4471775" lon="10.1588982"><ele>416.66666666666663</ele><time>2026-04-26T08:48:46.745Z</time></trkpt><trkpt lat="33.4470369" lon="10.159012"><ele>413.3333333333333</ele><time>2026-04-26T08:48:47.713Z</time></trkpt><trkpt lat="33.4469047" lon="10.1591168"><ele>410.0</ele><time>2026-04-26T08:48:48.729Z</time></trkpt><trkpt lat="33.4467843" lon="10.1592281"><ele>410.0</ele><time>2026-04-26T08:48:49.718Z</time></trkpt><trkpt lat="33.4466689" lon="10.1593407"><ele>410.0</ele><time>2026-04-26T08:48:50.71Z</time></trkpt><trkpt lat="33.4465589" lon="10.1594666"><ele>410.0</ele><time>2026-04-26T08:48:51.721Z</time></trkpt><trkpt lat="33.4464627" lon="10.1596053"><ele>410.0</ele><time>2026-04-26T08:48:52.735Z</time></trkpt><trkpt lat="33.4463851" lon="10.1597566"><ele>410.0</ele><time>2026-04-26T08:48:53.737Z</time></trkpt><trkpt lat="33.4463209" lon="10.1599298"><ele>410.0</ele><time>2026-04-26T08:48:54.72Z</time></trkpt><trkpt lat="33.4462749" lon="10.1601063"><ele>407.3333333333333</ele><time>2026-04-26T08:48:55.744Z</time></trkpt><trkpt lat="33.4462227" lon="10.1602925"><ele>404.66666666666663</ele><time>2026-04-26T08:48:56.73Z</time></trkpt><trkpt lat="33.4461769" lon="10.1604699"><ele>402.0</ele><time>2026-04-26T08:48:57.673Z</time></trkpt><trkpt lat="33.4461329" lon="10.160649"><ele>401.75</ele><time>2026-04-26T08:48:58.689Z</time></trkpt><trkpt lat="33.4460918" lon="10.1608287"><ele>401.5</ele><time>2026-04-26T08:48:59.697Z</time></trkpt><trkpt lat="33.4460602" lon="10.1610013"><ele>401.25</ele><time>2026-04-26T08:49:00.679Z</time></trkpt><trkpt lat="33.4460437" lon="10.1611619"><ele>401.0</ele><time>2026-04-26T08:49:01.724Z</time></trkpt><trkpt lat="33.4460268" lon="10.1613293"><ele>401.0</ele><time>2026-04-26T08:49:02.742Z</time></trkpt><trkpt lat="33.4460095" lon="10.1614919"><ele>401.0</ele><time>2026-04-26T08:49:03.733Z</time></trkpt><trkpt lat="33.4459759" lon="10.1616466"><ele>401.0</ele><time>2026-04-26T08:49:04.742Z</time></trkpt><trkpt lat="33.4459232" lon="10.1617894"><ele>401.0</ele><time>2026-04-26T08:49:05.742Z</time></trkpt><trkpt lat="33.4458485" lon="10.16191"><ele>400.5</ele><time>2026-04-26T08:49:06.731Z</time></trkpt><trkpt lat="33.4457486" lon="10.1620174"><ele>400.0</ele><time>2026-04-26T08:49:07.729Z</time></trkpt><trkpt lat="33.4456206" lon="10.1621205"><ele>399.5</ele><time>2026-04-26T08:49:08.739Z</time></trkpt><trkpt lat="33.4454907" lon="10.1622068"><ele>399.0</ele><time>2026-04-26T08:49:09.732Z</time></trkpt><trkpt lat="33.4453503" lon="10.1622872"><ele>396.33333333333337</ele><time>2026-04-26T08:49:10.72Z</time></trkpt><trkpt lat="33.4452022" lon="10.1623749"><ele>393.6666666666667</ele><time>2026-04-26T08:49:11.73Z</time></trkpt><trkpt lat="33.4450536" lon="10.1624604"><ele>391.0</ele><time>2026-04-26T08:49:12.731Z</time></trkpt><trkpt lat="33.4449128" lon="10.1625379"><ele>391.0</ele><time>2026-04-26T08:49:13.722Z</time></trkpt><trkpt lat="33.4447727" lon="10.1626078"><ele>391.0</ele><time>2026-04-26T08:49:14.738Z</time></trkpt><trkpt lat="33.4446404" lon="10.1626745"><ele>391.0</ele><time>2026-04-26T08:49:15.723Z</time></trkpt><trkpt lat="33.444509" lon="10.1627473"><ele>391.0</ele><time>2026-04-26T08:49:16.729Z</time></trkpt><trkpt lat="33.444378" lon="10.1628329"><ele>389.75</ele><time>2026-04-26T08:49:17.73Z</time></trkpt><trkpt lat="33.4442558" lon="10.1629252"><ele>388.5</ele><time>2026-04-26T08:49:18.746Z</time></trkpt><trkpt lat="33.4441374" lon="10.1630348"><ele>387.25</ele><time>2026-04-26T08:49:19.727Z</time></trkpt><trkpt lat="33.444031" lon="10.1631558"><ele>386.0</ele><time>2026-04-26T08:49:20.721Z</time></trkpt><trkpt lat="33.4439369" lon="10.1632921"><ele>385.66666666666663</ele><time>2026-04-26T08:49:21.745Z</time></trkpt><trkpt lat="33.4438538" lon="10.1634412"><ele>385.33333333333337</ele><time>2026-04-26T08:49:22.72Z</time></trkpt><trkpt lat="33.4437774" lon="10.1635948"><ele>385.0</ele><time>2026-04-26T08:49:23.722Z</time></trkpt><trkpt lat="33.4436981" lon="10.1637498"><ele>384.75</ele><time>2026-04-26T08:49:24.728Z</time></trkpt><trkpt lat="33.4436241" lon="10.1639005"><ele>384.5</ele><time>2026-04-26T08:49:25.738Z</time></trkpt><trkpt lat="33.443553" lon="10.1640467"><ele>384.25</ele><time>2026-04-26T08:49:26.739Z</time></trkpt><trkpt lat="33.4434867" lon="10.1642023"><ele>384.0</ele><time>2026-04-26T08:49:27.717Z</time></trkpt><trkpt lat="33.4434218" lon="10.1643538"><ele>384.0</ele><time>2026-04-26T08:49:28.709Z</time></trkpt><trkpt lat="33.443351" lon="10.1644986"><ele>384.0</ele><time>2026-04-26T08:49:29.697Z</time></trkpt><trkpt lat="33.4432711" lon="10.1646328"><ele>384.0</ele><time>2026-04-26T08:49:30.729Z</time></trkpt><trkpt lat="33.4431764" lon="10.1647517"><ele>384.0</ele><time>2026-04-26T08:49:31.713Z</time></trkpt><trkpt lat="33.4430752" lon="10.1648623"><ele>379.5</ele><time>2026-04-26T08:49:32.718Z</time></trkpt><trkpt lat="33.4429724" lon="10.164964"><ele>375.0</ele><time>2026-04-26T08:49:33.71Z</time></trkpt><trkpt lat="33.4428701" lon="10.1650444"><ele>370.5</ele><time>2026-04-26T08:49:34.717Z</time></trkpt><trkpt lat="33.4427693" lon="10.1651072"><ele>366.0</ele><time>2026-04-26T08:49:35.725Z</time></trkpt><trkpt lat="33.4426696" lon="10.1651536"><ele>366.0</ele><time>2026-04-26T08:49:36.729Z</time></trkpt><trkpt lat="33.4425796" lon="10.165182"><ele>366.0</ele><time>2026-04-26T08:49:37.725Z</time></trkpt><trkpt lat="33.4424965" lon="10.1651946"><ele>366.0</ele><time>2026-04-26T08:49:38.731Z</time></trkpt><trkpt lat="33.4424185" lon="10.1651771"><ele>366.0</ele><time>2026-04-26T08:49:39.687Z</time></trkpt><trkpt lat="33.44234" lon="10.165154"><ele>366.0</ele><time>2026-04-26T08:49:40.688Z</time></trkpt><trkpt lat="33.4422649" lon="10.165115"><ele>366.0</ele><time>2026-04-26T08:49:41.691Z</time></trkpt><trkpt lat="33.4421983" lon="10.1650687"><ele>366.0</ele><time>2026-04-26T08:49:42.682Z</time></trkpt><trkpt lat="33.4421407" lon="10.165019"><ele>366.0</ele><time>2026-04-26T08:49:43.717Z</time></trkpt><trkpt lat="33.4420672" lon="10.1649351"><ele>366.0</ele><time>2026-04-26T08:49:45.727Z</time></trkpt><trkpt lat="33.4420235" lon="10.1648728"><ele>366.0</ele><time>2026-04-26T08:49:48.713Z</time></trkpt><trkpt lat="33.4419614" lon="10.1648029"><ele>366.0</ele><time>2026-04-26T08:51:17.668Z</time></trkpt><trkpt lat="33.4419029" lon="10.1647497"><ele>366.0</ele><time>2026-04-26T08:55:36.67Z</time></trkpt><trkpt lat="33.4418553" lon="10.1646922"><ele>366.4</ele><time>2026-04-26T08:55:38.708Z</time></trkpt><trkpt lat="33.4417998" lon="10.1646205"><ele>366.8</ele><time>2026-04-26T08:55:40.711Z</time></trkpt><trkpt lat="33.4417325" lon="10.1645414"><ele>367.2</ele><time>2026-04-26T08:55:42.678Z</time></trkpt><trkpt lat="33.4416604" lon="10.1644438"><ele>367.59999999999997</ele><time>2026-04-26T08:55:44.681Z</time></trkpt><trkpt lat="33.4415655" lon="10.1643602"><ele>368.0</ele><time>2026-04-26T08:55:46.727Z</time></trkpt><trkpt lat="33.4414398" lon="10.1643241"><ele>368.0</ele><time>2026-04-26T08:55:48.649Z</time></trkpt><trkpt lat="33.4413764" lon="10.1643306"><ele>368.0</ele><time>2026-04-26T08:55:49.677Z</time></trkpt><trkpt lat="33.4413145" lon="10.1643551"><ele>368.0</ele><time>2026-04-26T08:55:50.659Z</time></trkpt><trkpt lat="33.4412442" lon="10.1643999"><ele>368.0</ele><time>2026-04-26T08:55:51.679Z</time></trkpt><trkpt lat="33.4411798" lon="10.1644532"><ele>368.0</ele><time>2026-04-26T08:55:52.662Z</time></trkpt><trkpt lat="33.4411128" lon="10.1645098"><ele>368.0</ele><time>2026-04-26T08:55:53.663Z</time></trkpt><trkpt lat="33.4410312" lon="10.1645793"><ele>368.83333333333337</ele><time>2026-04-26T08:55:54.676Z</time></trkpt><trkpt lat="33.4409455" lon="10.1646515"><ele>369.6666666666667</ele><time>2026-04-26T08:55:55.666Z</time></trkpt><trkpt lat="33.4408687" lon="10.164705"><ele>370.5</ele><time>2026-04-26T08:55:56.665Z</time></trkpt><trkpt lat="33.4407884" lon="10.1647461"><ele>371.3333333333333</ele><time>2026-04-26T08:55:57.665Z</time></trkpt><trkpt lat="33.440718" lon="10.1647887"><ele>372.16666666666663</ele><time>2026-04-26T08:55:58.674Z</time></trkpt><trkpt lat="33.4406384" lon="10.1648254"><ele>373.0</ele><time>2026-04-26T08:55:59.678Z</time></trkpt><trkpt lat="33.4405527" lon="10.1648721"><ele>372.8333333333333</ele><time>2026-04-26T08:56:00.676Z</time></trkpt><trkpt lat="33.4404661" lon="10.1649008"><ele>372.66666666666663</ele><time>2026-04-26T08:56:01.661Z</time></trkpt><trkpt lat="33.4403795" lon="10.1649055"><ele>372.5</ele><time>2026-04-26T08:56:02.67Z</time></trkpt><trkpt lat="33.4402965" lon="10.1648931"><ele>372.3333333333333</ele><time>2026-04-26T08:56:03.655Z</time></trkpt><trkpt lat="33.4402143" lon="10.1648677"><ele>372.1666666666667</ele><time>2026-04-26T08:56:04.721Z</time></trkpt><trkpt lat="33.4401316" lon="10.1648289"><ele>372.0</ele><time>2026-04-26T08:56:05.745Z</time></trkpt><trkpt lat="33.4400472" lon="10.1647782"><ele>372.0</ele><time>2026-04-26T08:56:06.728Z</time></trkpt><trkpt lat="33.4399667" lon="10.1647338"><ele>372.0</ele><time>2026-04-26T08:56:07.662Z</time></trkpt><trkpt lat="33.4398736" lon="10.1647266"><ele>372.0</ele><time>2026-04-26T08:56:08.658Z</time></trkpt><trkpt lat="33.4397807" lon="10.1647385"><ele>372.0</ele><time>2026-04-26T08:56:09.649Z</time></trkpt><trkpt lat="33.4396895" lon="10.1647636"><ele>372.0</ele><time>2026-04-26T08:56:10.652Z</time></trkpt><trkpt lat="33.4396009" lon="10.1647973"><ele>369.20000000000005</ele><time>2026-04-26T08:56:11.668Z</time></trkpt><trkpt lat="33.4395128" lon="10.1648265"><ele>366.4</ele><time>2026-04-26T08:56:12.657Z</time></trkpt><trkpt lat="33.4394213" lon="10.1648396"><ele>363.6</ele><time>2026-04-26T08:56:13.671Z</time></trkpt><trkpt lat="33.4393327" lon="10.1648518"><ele>360.79999999999995</ele><time>2026-04-26T08:56:14.668Z</time></trkpt><trkpt lat="33.4392423" lon="10.164858"><ele>358.0</ele><time>2026-04-26T08:56:15.661Z</time></trkpt><trkpt lat="33.4391492" lon="10.1648499"><ele>358.0</ele><time>2026-04-26T08:56:16.679Z</time></trkpt><trkpt lat="33.4390655" lon="10.1648349"><ele>358.0</ele><time>2026-04-26T08:56:17.664Z</time></trkpt><trkpt lat="33.4389823" lon="10.1648115"><ele>358.0</ele><time>2026-04-26T08:56:18.684Z</time></trkpt><trkpt lat="33.4389046" lon="10.164792"><ele>358.0</ele><time>2026-04-26T08:56:19.681Z</time></trkpt><trkpt lat="33.4388317" lon="10.1647725"><ele>358.0</ele><time>2026-04-26T08:56:20.671Z</time></trkpt><trkpt lat="33.4387559" lon="10.1647694"><ele>358.0</ele><time>2026-04-26T08:56:21.668Z</time></trkpt><trkpt lat="33.4386829" lon="10.1647897"><ele>357.59999999999997</ele><time>2026-04-26T08:56:22.687Z</time></trkpt><trkpt lat="33.4386187" lon="10.1648438"><ele>357.2</ele><time>2026-04-26T08:56:23.685Z</time></trkpt><trkpt lat="33.4385774" lon="10.1649118"><ele>356.8</ele><time>2026-04-26T08:56:24.685Z</time></trkpt><trkpt lat="33.4385541" lon="10.165012"><ele>356.4</ele><time>2026-04-26T08:56:25.756Z</time></trkpt><trkpt lat="33.4385618" lon="10.1651346"><ele>356.0</ele><time>2026-04-26T08:56:26.72Z</time></trkpt><trkpt lat="33.4385926" lon="10.1652665"><ele>351.75</ele><time>2026-04-26T08:56:27.717Z</time></trkpt><trkpt lat="33.4386327" lon="10.1653962"><ele>347.5</ele><time>2026-04-26T08:56:28.717Z</time></trkpt><trkpt lat="33.4386715" lon="10.1655178"><ele>343.25</ele><time>2026-04-26T08:56:29.687Z</time></trkpt><trkpt lat="33.4387055" lon="10.1656555"><ele>339.0</ele><time>2026-04-26T08:56:30.693Z</time></trkpt><trkpt lat="33.4387353" lon="10.1657845"><ele>336.25</ele><time>2026-04-26T08:56:31.676Z</time></trkpt><trkpt lat="33.4387512" lon="10.1659233"><ele>333.5</ele><time>2026-04-26T08:56:32.69Z</time></trkpt><trkpt lat="33.4387456" lon="10.1660701"><ele>330.75</ele><time>2026-04-26T08:56:33.729Z</time></trkpt><trkpt lat="33.4387207" lon="10.166211"><ele>328.0</ele><time>2026-04-26T08:56:34.73Z</time></trkpt><trkpt lat="33.4386937" lon="10.1663499"><ele>328.0</ele><time>2026-04-26T08:56:35.723Z</time></trkpt><trkpt lat="33.438681" lon="10.1664985"><ele>328.0</ele><time>2026-04-26T08:56:36.723Z</time></trkpt><trkpt lat="33.4386679" lon="10.1666492"><ele>328.0</ele><time>2026-04-26T08:56:37.724Z</time></trkpt><trkpt lat="33.4386717" lon="10.1667976"><ele>328.0</ele><time>2026-04-26T08:56:38.749Z</time></trkpt><trkpt lat="33.4386791" lon="10.1669492"><ele>325.5</ele><time>2026-04-26T08:56:39.744Z</time></trkpt><trkpt lat="33.4386791" lon="10.1671006"><ele>323.0</ele><time>2026-04-26T08:56:40.741Z</time></trkpt><trkpt lat="33.4386728" lon="10.1672527"><ele>320.5</ele><time>2026-04-26T08:56:41.729Z</time></trkpt><trkpt lat="33.4386489" lon="10.1674031"><ele>318.0</ele><time>2026-04-26T08:56:42.725Z</time></trkpt><trkpt lat="33.438625" lon="10.1675547"><ele>315.0</ele><time>2026-04-26T08:56:43.725Z</time></trkpt><trkpt lat="33.4386026" lon="10.1677057"><ele>312.0</ele><time>2026-04-26T08:56:44.72Z</time></trkpt><trkpt lat="33.4385829" lon="10.1678591"><ele>309.0</ele><time>2026-04-26T08:56:45.734Z</time></trkpt><trkpt lat="33.4385609" lon="10.1680092"><ele>306.0</ele><time>2026-04-26T08:56:46.73Z</time></trkpt><trkpt lat="33.4385381" lon="10.168161"><ele>303.75</ele><time>2026-04-26T08:56:47.734Z</time></trkpt><trkpt lat="33.4385133" lon="10.168311"><ele>301.5</ele><time>2026-04-26T08:56:48.722Z</time></trkpt><trkpt lat="33.4384937" lon="10.1684621"><ele>299.25</ele><time>2026-04-26T08:56:49.734Z</time></trkpt><trkpt lat="33.4384719" lon="10.1686065"><ele>297.0</ele><time>2026-04-26T08:56:50.715Z</time></trkpt><trkpt lat="33.4384363" lon="10.1687601"><ele>297.0</ele><time>2026-04-26T08:56:51.705Z</time></trkpt><trkpt lat="33.438391" lon="10.1689083"><ele>297.0</ele><time>2026-04-26T08:56:52.724Z</time></trkpt><trkpt lat="33.4383293" lon="10.1690463"><ele>297.0</ele><time>2026-04-26T08:56:53.728Z</time></trkpt><trkpt lat="33.4382545" lon="10.1691735"><ele>297.0</ele><time>2026-04-26T08:56:54.711Z</time></trkpt><trkpt lat="33.4381732" lon="10.169298"><ele>296.25</ele><time>2026-04-26T08:56:55.726Z</time></trkpt><trkpt lat="33.4380927" lon="10.1694165"><ele>295.5</ele><time>2026-04-26T08:56:56.726Z</time></trkpt><trkpt lat="33.4380072" lon="10.1695339"><ele>294.75</ele><time>2026-04-26T08:56:57.717Z</time></trkpt><trkpt lat="33.4379231" lon="10.1696531"><ele>294.0</ele><time>2026-04-26T08:56:58.721Z</time></trkpt><trkpt lat="33.4378406" lon="10.1697694"><ele>292.25</ele><time>2026-04-26T08:56:59.725Z</time></trkpt><trkpt lat="33.4377599" lon="10.1698896"><ele>290.5</ele><time>2026-04-26T08:57:00.737Z</time></trkpt><trkpt lat="33.4376823" lon="10.1700038"><ele>288.75</ele><time>2026-04-26T08:57:01.684Z</time></trkpt><trkpt lat="33.4376039" lon="10.1701209"><ele>287.0</ele><time>2026-04-26T08:57:02.693Z</time></trkpt><trkpt lat="33.4375296" lon="10.1702286"><ele>287.0</ele><time>2026-04-26T08:57:03.684Z</time></trkpt><trkpt lat="33.4374636" lon="10.1703446"><ele>287.0</ele><time>2026-04-26T08:57:04.675Z</time></trkpt><trkpt lat="33.4374027" lon="10.1704635"><ele>287.0</ele><time>2026-04-26T08:57:05.731Z</time></trkpt><trkpt lat="33.4373485" lon="10.1705947"><ele>287.0</ele><time>2026-04-26T08:57:06.725Z</time></trkpt><trkpt lat="33.4373023" lon="10.1707321"><ele>286.5</ele><time>2026-04-26T08:57:07.727Z</time></trkpt><trkpt lat="33.4372549" lon="10.1708633"><ele>286.0</ele><time>2026-04-26T08:57:08.742Z</time></trkpt><trkpt lat="33.4372076" lon="10.1710026"><ele>285.5</ele><time>2026-04-26T08:57:09.731Z</time></trkpt><trkpt lat="33.4371549" lon="10.1711382"><ele>285.0</ele><time>2026-04-26T08:57:10.719Z</time></trkpt><trkpt lat="33.437104" lon="10.1712734"><ele>285.0</ele><time>2026-04-26T08:57:11.747Z</time></trkpt><trkpt lat="33.4370557" lon="10.1714015"><ele>285.0</ele><time>2026-04-26T08:57:12.721Z</time></trkpt><trkpt lat="33.4370124" lon="10.1715323"><ele>285.0</ele><time>2026-04-26T08:57:13.741Z</time></trkpt><trkpt lat="33.4369636" lon="10.17167"><ele>285.0</ele><time>2026-04-26T08:57:14.742Z</time></trkpt><trkpt lat="33.4369122" lon="10.171798"><ele>285.0</ele><time>2026-04-26T08:57:15.722Z</time></trkpt><trkpt lat="33.4368636" lon="10.1719237"><ele>285.0</ele><time>2026-04-26T08:57:16.731Z</time></trkpt><trkpt lat="33.4368166" lon="10.1720475"><ele>285.0</ele><time>2026-04-26T08:57:17.737Z</time></trkpt><trkpt lat="33.4367659" lon="10.1721688"><ele>285.0</ele><time>2026-04-26T08:57:18.731Z</time></trkpt><trkpt lat="33.4367187" lon="10.1722884"><ele>284.6</ele><time>2026-04-26T08:57:19.738Z</time></trkpt><trkpt lat="33.4366658" lon="10.1724074"><ele>284.2</ele><time>2026-04-26T08:57:20.727Z</time></trkpt><trkpt lat="33.4366161" lon="10.1725247"><ele>283.8</ele><time>2026-04-26T08:57:21.733Z</time></trkpt><trkpt lat="33.4365636" lon="10.1726472"><ele>283.4</ele><time>2026-04-26T08:57:22.731Z</time></trkpt><trkpt lat="33.4365123" lon="10.1727652"><ele>283.0</ele><time>2026-04-26T08:57:23.746Z</time></trkpt><trkpt lat="33.4364601" lon="10.1728899"><ele>283.0</ele><time>2026-04-26T08:57:24.737Z</time></trkpt><trkpt lat="33.4364055" lon="10.1730228"><ele>283.0</ele><time>2026-04-26T08:57:25.738Z</time></trkpt><trkpt lat="33.4363506" lon="10.1731521"><ele>283.0</ele><time>2026-04-26T08:57:26.736Z</time></trkpt><trkpt lat="33.4363002" lon="10.1732823"><ele>283.0</ele><time>2026-04-26T08:57:27.724Z</time></trkpt><trkpt lat="33.436253" lon="10.1734163"><ele>282.75</ele><time>2026-04-26T08:57:28.743Z</time></trkpt><trkpt lat="33.4362025" lon="10.17355"><ele>282.5</ele><time>2026-04-26T08:57:29.744Z</time></trkpt><trkpt lat="33.4361526" lon="10.1736875"><ele>282.25</ele><time>2026-04-26T08:57:30.739Z</time></trkpt><trkpt lat="33.436107" lon="10.1738247"><ele>282.0</ele><time>2026-04-26T08:57:31.746Z</time></trkpt><trkpt lat="33.4360626" lon="10.1739521"><ele>281.4</ele><time>2026-04-26T08:57:32.734Z</time></trkpt><trkpt lat="33.4360208" lon="10.1740583"><ele>280.79999999999995</ele><time>2026-04-26T08:57:33.723Z</time></trkpt><trkpt lat="33.435988" lon="10.1741464"><ele>280.2</ele><time>2026-04-26T08:57:34.735Z</time></trkpt><trkpt lat="33.4359418" lon="10.1742687"><ele>279.59999999999997</ele><time>2026-04-26T08:57:36.728Z</time></trkpt><trkpt lat="33.4358886" lon="10.1744142"><ele>279.0</ele><time>2026-04-26T08:57:38.745Z</time></trkpt><trkpt lat="33.4358492" lon="10.1745036"><ele>279.0</ele><time>2026-04-26T08:57:39.731Z</time></trkpt><trkpt lat="33.4358106" lon="10.1746006"><ele>279.0</ele><time>2026-04-26T08:57:40.729Z</time></trkpt><trkpt lat="33.4357681" lon="10.1746926"><ele>279.0</ele><time>2026-04-26T08:57:41.737Z</time></trkpt><trkpt lat="33.4357355" lon="10.1747673"><ele>279.0</ele><time>2026-04-26T08:57:42.741Z</time></trkpt><trkpt lat="33.4356816" lon="10.1748917"><ele>279.0</ele><time>2026-04-26T08:57:44.718Z</time></trkpt><trkpt lat="33.4356528" lon="10.1749607"><ele>279.0</ele><time>2026-04-26T08:57:45.732Z</time></trkpt><trkpt lat="33.4356135" lon="10.1750467"><ele>278.59999999999997</ele><time>2026-04-26T08:57:46.729Z</time></trkpt><trkpt lat="33.4355744" lon="10.1751358"><ele>278.2</ele><time>2026-04-26T08:57:47.73Z</time></trkpt><trkpt lat="33.4355342" lon="10.1752355"><ele>277.79999999999995</ele><time>2026-04-26T08:57:48.722Z</time></trkpt><trkpt lat="33.4354969" lon="10.1753378"><ele>277.4</ele><time>2026-04-26T08:57:49.724Z</time></trkpt><trkpt lat="33.4354614" lon="10.1754547"><ele>277.0</ele><time>2026-04-26T08:57:50.729Z</time></trkpt><trkpt lat="33.43543" lon="10.1755714"><ele>276.4</ele><time>2026-04-26T08:57:51.709Z</time></trkpt><trkpt lat="33.4353997" lon="10.1756935"><ele>275.79999999999995</ele><time>2026-04-26T08:57:52.732Z</time></trkpt><trkpt lat="33.4353804" lon="10.1758186"><ele>275.2</ele><time>2026-04-26T08:57:53.727Z</time></trkpt><trkpt lat="33.4353671" lon="10.1759467"><ele>274.59999999999997</ele><time>2026-04-26T08:57:54.723Z</time></trkpt><trkpt lat="33.43537" lon="10.1760837"><ele>274.0</ele><time>2026-04-26T08:57:55.726Z</time></trkpt><trkpt lat="33.4353811" lon="10.1762199"><ele>274.0</ele><time>2026-04-26T08:57:56.735Z</time></trkpt><trkpt lat="33.4353955" lon="10.1763572"><ele>274.0</ele><time>2026-04-26T08:57:57.731Z</time></trkpt><trkpt lat="33.4354158" lon="10.176494"><ele>274.0</ele><time>2026-04-26T08:57:58.719Z</time></trkpt><trkpt lat="33.4354439" lon="10.1766266"><ele>274.0</ele><time>2026-04-26T08:57:59.73Z</time></trkpt><trkpt lat="33.4354729" lon="10.1767653"><ele>273.75</ele><time>2026-04-26T08:58:00.746Z</time></trkpt><trkpt lat="33.4355046" lon="10.1768971"><ele>273.5</ele><time>2026-04-26T08:58:01.727Z</time></trkpt><trkpt lat="33.4355405" lon="10.1770345"><ele>273.25</ele><time>2026-04-26T08:58:02.722Z</time></trkpt><trkpt lat="33.4355744" lon="10.1771745"><ele>273.0</ele><time>2026-04-26T08:58:03.729Z</time></trkpt><trkpt lat="33.4356036" lon="10.1773211"><ele>272.75</ele><time>2026-04-26T08:58:04.718Z</time></trkpt><trkpt lat="33.4356291" lon="10.1774662"><ele>272.5</ele><time>2026-04-26T08:58:05.738Z</time></trkpt><trkpt lat="33.4356542" lon="10.177611"><ele>272.25</ele><time>2026-04-26T08:58:06.726Z</time></trkpt><trkpt lat="33.4356817" lon="10.177766"><ele>272.0</ele><time>2026-04-26T08:58:07.742Z</time></trkpt><trkpt lat="33.4357012" lon="10.177917"><ele>272.0</ele><time>2026-04-26T08:58:08.752Z</time></trkpt><trkpt lat="33.4357264" lon="10.1780708"><ele>272.0</ele><time>2026-04-26T08:58:09.736Z</time></trkpt><trkpt lat="33.435757" lon="10.1782262"><ele>272.0</ele><time>2026-04-26T08:58:10.722Z</time></trkpt><trkpt lat="33.435787" lon="10.1783904"><ele>272.0</ele><time>2026-04-26T08:58:11.73Z</time></trkpt><trkpt lat="33.4358165" lon="10.1785653"><ele>271.75</ele><time>2026-04-26T08:58:12.721Z</time></trkpt><trkpt lat="33.435846" lon="10.1787343"><ele>271.5</ele><time>2026-04-26T08:58:13.732Z</time></trkpt><trkpt lat="33.435875" lon="10.1788996"><ele>271.25</ele><time>2026-04-26T08:58:14.725Z</time></trkpt><trkpt lat="33.4359033" lon="10.179067"><ele>271.0</ele><time>2026-04-26T08:58:15.729Z</time></trkpt><trkpt lat="33.435929" lon="10.179229"><ele>271.0</ele><time>2026-04-26T08:58:16.719Z</time></trkpt><trkpt lat="33.435957" lon="10.1793941"><ele>271.0</ele><time>2026-04-26T08:58:17.74Z</time></trkpt><trkpt lat="33.4359818" lon="10.1795536"><ele>271.0</ele><time>2026-04-26T08:58:18.728Z</time></trkpt><trkpt lat="33.4360064" lon="10.1797151"><ele>271.0</ele><time>2026-04-26T08:58:19.728Z</time></trkpt><trkpt lat="33.4360354" lon="10.1798803"><ele>270.25</ele><time>2026-04-26T08:58:20.744Z</time></trkpt><trkpt lat="33.4360616" lon="10.1800427"><ele>269.5</ele><time>2026-04-26T08:58:21.722Z</time></trkpt><trkpt lat="33.4360887" lon="10.1801988"><ele>268.75</ele><time>2026-04-26T08:58:22.723Z</time></trkpt><trkpt lat="33.4361163" lon="10.1803604"><ele>268.0</ele><time>2026-04-26T08:58:23.724Z</time></trkpt><trkpt lat="33.4361448" lon="10.1805254"><ele>267.25</ele><time>2026-04-26T08:58:24.721Z</time></trkpt><trkpt lat="33.4361727" lon="10.1806957"><ele>266.5</ele><time>2026-04-26T08:58:25.714Z</time></trkpt><trkpt lat="33.4361989" lon="10.1808687"><ele>265.75</ele><time>2026-04-26T08:58:26.726Z</time></trkpt><trkpt lat="33.4362268" lon="10.1810406"><ele>265.0</ele><time>2026-04-26T08:58:27.729Z</time></trkpt><trkpt lat="33.4362586" lon="10.181209"><ele>265.0</ele><time>2026-04-26T08:58:28.732Z</time></trkpt><trkpt lat="33.4362878" lon="10.1813779"><ele>265.0</ele><time>2026-04-26T08:58:29.741Z</time></trkpt><trkpt lat="33.4363214" lon="10.1815456"><ele>265.0</ele><time>2026-04-26T08:58:30.734Z</time></trkpt><trkpt lat="33.4363586" lon="10.1817081"><ele>265.0</ele><time>2026-04-26T08:58:31.739Z</time></trkpt><trkpt lat="33.4363978" lon="10.181872"><ele>265.0</ele><time>2026-04-26T08:58:32.723Z</time></trkpt><trkpt lat="33.4364449" lon="10.1820346"><ele>265.0</ele><time>2026-04-26T08:58:33.73Z</time></trkpt><trkpt lat="33.4364895" lon="10.1821952"><ele>265.0</ele><time>2026-04-26T08:58:34.725Z</time></trkpt><trkpt lat="33.4365418" lon="10.1823508"><ele>265.0</ele><time>2026-04-26T08:58:35.722Z</time></trkpt><trkpt lat="33.4365939" lon="10.1825005"><ele>265.0</ele><time>2026-04-26T08:58:36.714Z</time></trkpt><trkpt lat="33.4366507" lon="10.1826531"><ele>265.0</ele><time>2026-04-26T08:58:37.733Z</time></trkpt><trkpt lat="33.4367114" lon="10.1828106"><ele>265.0</ele><time>2026-04-26T08:58:38.741Z</time></trkpt><trkpt lat="33.4367569" lon="10.1829703"><ele>265.0</ele><time>2026-04-26T08:58:39.726Z</time></trkpt><trkpt lat="33.4367976" lon="10.1831332"><ele>264.3333333333333</ele><time>2026-04-26T08:58:40.73Z</time></trkpt><trkpt lat="33.4368317" lon="10.1833094"><ele>263.6666666666667</ele><time>2026-04-26T08:58:41.732Z</time></trkpt><trkpt lat="33.436857" lon="10.183486"><ele>263.0</ele><time>2026-04-26T08:58:42.74Z</time></trkpt><trkpt lat="33.4368724" lon="10.1836645"><ele>263.0</ele><time>2026-04-26T08:58:43.744Z</time></trkpt><trkpt lat="33.4368871" lon="10.1838451"><ele>263.0</ele><time>2026-04-26T08:58:44.735Z</time></trkpt><trkpt lat="33.4369038" lon="10.1840318"><ele>263.0</ele><time>2026-04-26T08:58:45.725Z</time></trkpt><trkpt lat="33.4369142" lon="10.1842061"><ele>262.25</ele><time>2026-04-26T08:58:46.736Z</time></trkpt><trkpt lat="33.4369282" lon="10.1843808"><ele>261.5</ele><time>2026-04-26T08:58:47.715Z</time></trkpt><trkpt lat="33.436943" lon="10.1845574"><ele>260.75</ele><time>2026-04-26T08:58:48.74Z</time></trkpt><trkpt lat="33.4369567" lon="10.1847317"><ele>260.0</ele><time>2026-04-26T08:58:49.742Z</time></trkpt><trkpt lat="33.4369683" lon="10.1849065"><ele>259.0</ele><time>2026-04-26T08:58:50.73Z</time></trkpt><trkpt lat="33.4369824" lon="10.1850795"><ele>258.0</ele><time>2026-04-26T08:58:51.729Z</time></trkpt><trkpt lat="33.4369969" lon="10.1852509"><ele>257.0</ele><time>2026-04-26T08:58:52.736Z</time></trkpt><trkpt lat="33.4370098" lon="10.1854234"><ele>256.0</ele><time>2026-04-26T08:58:53.736Z</time></trkpt><trkpt lat="33.4370287" lon="10.1856014"><ele>255.5</ele><time>2026-04-26T08:58:54.738Z</time></trkpt><trkpt lat="33.4370504" lon="10.185772"><ele>255.0</ele><time>2026-04-26T08:58:55.742Z</time></trkpt><trkpt lat="33.4370664" lon="10.1859441"><ele>254.5</ele><time>2026-04-26T08:58:56.725Z</time></trkpt><trkpt lat="33.4370753" lon="10.1861132"><ele>254.0</ele><time>2026-04-26T08:58:57.72Z</time></trkpt><trkpt lat="33.4370917" lon="10.1862904"><ele>254.0</ele><time>2026-04-26T08:58:58.729Z</time></trkpt><trkpt lat="33.4371076" lon="10.1864604"><ele>254.0</ele><time>2026-04-26T08:58:59.734Z</time></trkpt><trkpt lat="33.4371241" lon="10.1866317"><ele>254.0</ele><time>2026-04-26T08:59:00.735Z</time></trkpt><trkpt lat="33.4371429" lon="10.1868007"><ele>254.0</ele><time>2026-04-26T08:59:01.731Z</time></trkpt><trkpt lat="33.4371626" lon="10.1869687"><ele>253.75</ele><time>2026-04-26T08:59:02.724Z</time></trkpt><trkpt lat="33.4371838" lon="10.1871346"><ele>253.5</ele><time>2026-04-26T08:59:03.719Z</time></trkpt><trkpt lat="33.4372049" lon="10.1873026"><ele>253.25</ele><time>2026-04-26T08:59:04.708Z</time></trkpt><trkpt lat="33.4372227" lon="10.1874654"><ele>253.0</ele><time>2026-04-26T08:59:05.741Z</time></trkpt><trkpt lat="33.4372394" lon="10.1876288"><ele>252.75</ele><time>2026-04-26T08:59:06.71Z</time></trkpt><trkpt lat="33.4372504" lon="10.187799"><ele>252.5</ele><time>2026-04-26T08:59:07.724Z</time></trkpt><trkpt lat="33.4372616" lon="10.1879655"><ele>252.25</ele><time>2026-04-26T08:59:08.724Z</time></trkpt><trkpt lat="33.437264" lon="10.1881255"><ele>252.0</ele><time>2026-04-26T08:59:09.744Z</time></trkpt><trkpt lat="33.4372582" lon="10.1882881"><ele>252.0</ele><time>2026-04-26T08:59:10.728Z</time></trkpt><trkpt lat="33.437254" lon="10.1884424"><ele>252.0</ele><time>2026-04-26T08:59:11.722Z</time></trkpt><trkpt lat="33.4372467" lon="10.1885962"><ele>252.0</ele><time>2026-04-26T08:59:12.73Z</time></trkpt><trkpt lat="33.4372413" lon="10.1887509"><ele>252.0</ele><time>2026-04-26T08:59:13.73Z</time></trkpt><trkpt lat="33.4372327" lon="10.1889059"><ele>252.0</ele><time>2026-04-26T08:59:14.733Z</time></trkpt><trkpt lat="33.4372226" lon="10.1890583"><ele>252.0</ele><time>2026-04-26T08:59:15.731Z</time></trkpt><trkpt lat="33.4372079" lon="10.1892128"><ele>252.0</ele><time>2026-04-26T08:59:16.73Z</time></trkpt><trkpt lat="33.4371894" lon="10.1893665"><ele>252.0</ele><time>2026-04-26T08:59:17.732Z</time></trkpt><trkpt lat="33.4371699" lon="10.1895121"><ele>251.0</ele><time>2026-04-26T08:59:18.73Z</time></trkpt><trkpt lat="33.4371344" lon="10.1896634"><ele>250.0</ele><time>2026-04-26T08:59:19.748Z</time></trkpt><trkpt lat="33.4370877" lon="10.1898033"><ele>249.0</ele><time>2026-04-26T08:59:20.723Z</time></trkpt><trkpt lat="33.4370247" lon="10.1899369"><ele>248.0</ele><time>2026-04-26T08:59:21.728Z</time></trkpt><trkpt lat="33.4369642" lon="10.1900741"><ele>248.0</ele><time>2026-04-26T08:59:22.735Z</time></trkpt><trkpt lat="33.4369054" lon="10.1902158"><ele>248.0</ele><time>2026-04-26T08:59:23.749Z</time></trkpt><trkpt lat="33.436856" lon="10.1903595"><ele>248.0</ele><time>2026-04-26T08:59:24.73Z</time></trkpt><trkpt lat="33.4368085" lon="10.1905082"><ele>248.0</ele><time>2026-04-26T08:59:25.729Z</time></trkpt><trkpt lat="33.4367627" lon="10.1906622"><ele>249.0</ele><time>2026-04-26T08:59:26.73Z</time></trkpt><trkpt lat="33.4367177" lon="10.1908121"><ele>250.0</ele><time>2026-04-26T08:59:27.72Z</time></trkpt><trkpt lat="33.4366734" lon="10.1909642"><ele>251.0</ele><time>2026-04-26T08:59:28.735Z</time></trkpt><trkpt lat="33.4366278" lon="10.1911237"><ele>252.0</ele><time>2026-04-26T08:59:29.726Z</time></trkpt><trkpt lat="33.4366016" lon="10.191294"><ele>252.0</ele><time>2026-04-26T08:59:30.729Z</time></trkpt><trkpt lat="33.4366296" lon="10.1914027"><ele>252.0</ele><time>2026-04-26T08:59:31.711Z</time></trkpt><trkpt lat="33.4365729" lon="10.191592"><ele>252.0</ele><time>2026-04-26T08:59:32.723Z</time></trkpt><trkpt lat="33.4365317" lon="10.1917697"><ele>252.0</ele><time>2026-04-26T08:59:33.746Z</time></trkpt><trkpt lat="33.4365092" lon="10.1919514"><ele>251.5</ele><time>2026-04-26T08:59:34.716Z</time></trkpt><trkpt lat="33.4365386" lon="10.1921218"><ele>251.0</ele><time>2026-04-26T08:59:35.713Z</time></trkpt><trkpt lat="33.4365442" lon="10.1922901"><ele>250.5</ele><time>2026-04-26T08:59:36.726Z</time></trkpt><trkpt lat="33.4365402" lon="10.1924572"><ele>250.0</ele><time>2026-04-26T08:59:37.733Z</time></trkpt><trkpt lat="33.4365424" lon="10.1926254"><ele>249.5</ele><time>2026-04-26T08:59:38.735Z</time></trkpt><trkpt lat="33.4365405" lon="10.1927926"><ele>249.0</ele><time>2026-04-26T08:59:39.732Z</time></trkpt><trkpt lat="33.4365443" lon="10.1929603"><ele>248.5</ele><time>2026-04-26T08:59:40.725Z</time></trkpt><trkpt lat="33.4365448" lon="10.1931254"><ele>248.0</ele><time>2026-04-26T08:59:41.728Z</time></trkpt><trkpt lat="33.4365315" lon="10.1932845"><ele>247.5</ele><time>2026-04-26T08:59:42.723Z</time></trkpt><trkpt lat="33.4365314" lon="10.1934432"><ele>247.0</ele><time>2026-04-26T08:59:43.731Z</time></trkpt><trkpt lat="33.4365431" lon="10.1936109"><ele>246.5</ele><time>2026-04-26T08:59:44.727Z</time></trkpt><trkpt lat="33.4365592" lon="10.1937938"><ele>246.0</ele><time>2026-04-26T08:59:45.745Z</time></trkpt><trkpt lat="33.4365794" lon="10.1939874"><ele>245.5</ele><time>2026-04-26T08:59:46.702Z</time></trkpt><trkpt lat="33.4365599" lon="10.1941748"><ele>245.0</ele><time>2026-04-26T08:59:47.722Z</time></trkpt><trkpt lat="33.4365707" lon="10.1943612"><ele>244.5</ele><time>2026-04-26T08:59:48.732Z</time></trkpt><trkpt lat="33.4365601" lon="10.1945047"><ele>244.0</ele><time>2026-04-26T08:59:50.733Z</time></trkpt><trkpt lat="33.4365597" lon="10.194601"><ele>244.0</ele><time>2026-04-26T08:59:51.729Z</time></trkpt><trkpt lat="33.4365594" lon="10.1946852"><ele>243.99999999999997</ele><time>2026-04-26T08:59:52.73Z</time></trkpt><trkpt lat="33.4365157" lon="10.1947855"><ele>243.99999999999997</ele><time>2026-04-26T08:59:55.733Z</time></trkpt><trkpt lat="33.4364967" lon="10.1948892"><ele>244.0</ele><time>2026-04-26T08:59:57.742Z</time></trkpt><trkpt lat="33.4364882" lon="10.1949931"><ele>244.0</ele><time>2026-04-26T09:00:00.732Z</time></trkpt><trkpt lat="33.4364677" lon="10.1951574"><ele>243.75</ele><time>2026-04-26T09:00:03.733Z</time></trkpt><trkpt lat="33.4364548" lon="10.1952569"><ele>243.5</ele><time>2026-04-26T09:00:04.723Z</time></trkpt><trkpt lat="33.43643" lon="10.1954253"><ele>243.25</ele><time>2026-04-26T09:00:05.732Z</time></trkpt><trkpt lat="33.4364037" lon="10.1956085"><ele>243.0</ele><time>2026-04-26T09:00:06.738Z</time></trkpt><trkpt lat="33.4363675" lon="10.195886"><ele>242.33333333333331</ele><time>2026-04-26T09:00:07.743Z</time></trkpt><trkpt lat="33.4363441" lon="10.1960572"><ele>241.66666666666666</ele><time>2026-04-26T09:00:08.74Z</time></trkpt><trkpt lat="33.4363184" lon="10.1962402"><ele>241.0</ele><time>2026-04-26T09:00:09.724Z</time></trkpt><trkpt lat="33.4362922" lon="10.1964244"><ele>240.0</ele><time>2026-04-26T09:00:10.759Z</time></trkpt><trkpt lat="33.4362627" lon="10.1966092"><ele>239.0</ele><time>2026-04-26T09:00:11.706Z</time></trkpt><trkpt lat="33.4362287" lon="10.1967938"><ele>238.0</ele><time>2026-04-26T09:00:12.719Z</time></trkpt><trkpt lat="33.4361989" lon="10.1969726"><ele>238.0</ele><time>2026-04-26T09:00:13.715Z</time></trkpt><trkpt lat="33.4361787" lon="10.1971129"><ele>238.0</ele><time>2026-04-26T09:00:14.76Z</time></trkpt><trkpt lat="33.436175" lon="10.1972607"><ele>238.0</ele><time>2026-04-26T09:00:15.727Z</time></trkpt><trkpt lat="33.4361512" lon="10.1974288"><ele>238.0</ele><time>2026-04-26T09:00:16.736Z</time></trkpt><trkpt lat="33.436119" lon="10.197592"><ele>237.25</ele><time>2026-04-26T09:00:17.717Z</time></trkpt><trkpt lat="33.4360902" lon="10.1977583"><ele>236.5</ele><time>2026-04-26T09:00:18.726Z</time></trkpt><trkpt lat="33.4360611" lon="10.1979338"><ele>235.75</ele><time>2026-04-26T09:00:19.735Z</time></trkpt><trkpt lat="33.4360329" lon="10.198107"><ele>235.0</ele><time>2026-04-26T09:00:20.742Z</time></trkpt><trkpt lat="33.4360062" lon="10.1982826"><ele>234.75</ele><time>2026-04-26T09:00:21.732Z</time></trkpt><trkpt lat="33.4359793" lon="10.1984519"><ele>234.5</ele><time>2026-04-26T09:00:22.739Z</time></trkpt><trkpt lat="33.4359511" lon="10.1986129"><ele>234.25</ele><time>2026-04-26T09:00:23.735Z</time></trkpt><trkpt lat="33.4359271" lon="10.198765"><ele>234.0</ele><time>2026-04-26T09:00:24.736Z</time></trkpt><trkpt lat="33.4359026" lon="10.1989181"><ele>233.5</ele><time>2026-04-26T09:00:25.737Z</time></trkpt><trkpt lat="33.4358823" lon="10.1990647"><ele>233.0</ele><time>2026-04-26T09:00:26.731Z</time></trkpt><trkpt lat="33.4358598" lon="10.1992227"><ele>232.5</ele><time>2026-04-26T09:00:27.725Z</time></trkpt><trkpt lat="33.4358357" lon="10.1993673"><ele>232.0</ele><time>2026-04-26T09:00:28.734Z</time></trkpt><trkpt lat="33.435813" lon="10.1995135"><ele>232.0</ele><time>2026-04-26T09:00:29.736Z</time></trkpt><trkpt lat="33.4357807" lon="10.1996622"><ele>232.0</ele><time>2026-04-26T09:00:30.726Z</time></trkpt><trkpt lat="33.4357577" lon="10.1997937"><ele>232.0</ele><time>2026-04-26T09:00:31.748Z</time></trkpt><trkpt lat="33.4357332" lon="10.1999134"><ele>232.0</ele><time>2026-04-26T09:00:32.74Z</time></trkpt><trkpt lat="33.4357113" lon="10.2000251"><ele>232.0</ele><time>2026-04-26T09:00:33.739Z</time></trkpt><trkpt lat="33.4356888" lon="10.2001385"><ele>232.39999999999998</ele><time>2026-04-26T09:00:34.724Z</time></trkpt><trkpt lat="33.4356624" lon="10.2002542"><ele>232.79999999999998</ele><time>2026-04-26T09:00:35.74Z</time></trkpt><trkpt lat="33.4356333" lon="10.2003668"><ele>233.2</ele><time>2026-04-26T09:00:36.752Z</time></trkpt><trkpt lat="33.4356076" lon="10.2004742"><ele>233.6</ele><time>2026-04-26T09:00:37.74Z</time></trkpt><trkpt lat="33.4355801" lon="10.200582"><ele>234.0</ele><time>2026-04-26T09:00:38.735Z</time></trkpt><trkpt lat="33.4355524" lon="10.2006836"><ele>234.2</ele><time>2026-04-26T09:00:39.73Z</time></trkpt><trkpt lat="33.435524" lon="10.2007987"><ele>234.39999999999998</ele><time>2026-04-26T09:00:40.713Z</time></trkpt><trkpt lat="33.4354948" lon="10.2009071"><ele>234.6</ele><time>2026-04-26T09:00:41.754Z</time></trkpt><trkpt lat="33.4354649" lon="10.2010258"><ele>234.8</ele><time>2026-04-26T09:00:42.737Z</time></trkpt><trkpt lat="33.4354335" lon="10.201158"><ele>235.0</ele><time>2026-04-26T09:00:43.73Z</time></trkpt><trkpt lat="33.4354052" lon="10.2012953"><ele>234.6</ele><time>2026-04-26T09:00:44.72Z</time></trkpt><trkpt lat="33.4353728" lon="10.2014158"><ele>234.2</ele><time>2026-04-26T09:00:45.717Z</time></trkpt><trkpt lat="33.4353467" lon="10.2015347"><ele>233.8</ele><time>2026-04-26T09:00:46.726Z</time></trkpt><trkpt lat="33.4353293" lon="10.2016172"><ele>233.4</ele><time>2026-04-26T09:00:47.732Z</time></trkpt><trkpt lat="33.4352911" lon="10.2017628"><ele>233.0</ele><time>2026-04-26T09:00:49.741Z</time></trkpt><trkpt lat="33.4352574" lon="10.2018967"><ele>232.83333333333334</ele><time>2026-04-26T09:00:51.743Z</time></trkpt><trkpt lat="33.4352268" lon="10.2020295"><ele>232.66666666666669</ele><time>2026-04-26T09:00:53.738Z</time></trkpt><trkpt lat="33.435213" lon="10.2021138"><ele>232.5</ele><time>2026-04-26T09:00:54.75Z</time></trkpt><trkpt lat="33.4351996" lon="10.2022186"><ele>232.33333333333331</ele><time>2026-04-26T09:00:55.731Z</time></trkpt><trkpt lat="33.4351793" lon="10.2023142"><ele>232.16666666666666</ele><time>2026-04-26T09:00:56.744Z</time></trkpt><trkpt lat="33.4351496" lon="10.2024139"><ele>232.0</ele><time>2026-04-26T09:00:57.738Z</time></trkpt><trkpt lat="33.4351254" lon="10.2025129"><ele>231.99999999999997</ele><time>2026-04-26T09:00:58.744Z</time></trkpt><trkpt lat="33.4351028" lon="10.2026059"><ele>232.0</ele><time>2026-04-26T09:00:59.728Z</time></trkpt><trkpt lat="33.435081" lon="10.2026975"><ele>232.0</ele><time>2026-04-26T09:01:00.745Z</time></trkpt><trkpt lat="33.4350569" lon="10.2027879"><ele>232.0</ele><time>2026-04-26T09:01:01.733Z</time></trkpt><trkpt lat="33.4350304" lon="10.2028767"><ele>231.99999999999997</ele><time>2026-04-26T09:01:02.743Z</time></trkpt><trkpt lat="33.4350024" lon="10.2029612"><ele>232.0</ele><time>2026-04-26T09:01:03.724Z</time></trkpt><trkpt lat="33.434971" lon="10.2030417"><ele>232.0</ele><time>2026-04-26T09:01:04.734Z</time></trkpt><trkpt lat="33.4349455" lon="10.2031216"><ele>232.0</ele><time>2026-04-26T09:01:05.731Z</time></trkpt><trkpt lat="33.4349191" lon="10.2032182"><ele>232.0</ele><time>2026-04-26T09:01:06.743Z</time></trkpt><trkpt lat="33.4348901" lon="10.2033381"><ele>232.0</ele><time>2026-04-26T09:01:07.738Z</time></trkpt><trkpt lat="33.4348668" lon="10.2034621"><ele>232.0</ele><time>2026-04-26T09:01:08.733Z</time></trkpt><trkpt lat="33.4348373" lon="10.2036037"><ele>232.25</ele><time>2026-04-26T09:01:09.736Z</time></trkpt><trkpt lat="33.4348106" lon="10.203751"><ele>232.5</ele><time>2026-04-26T09:01:10.736Z</time></trkpt><trkpt lat="33.4347862" lon="10.203906"><ele>232.75</ele><time>2026-04-26T09:01:11.731Z</time></trkpt><trkpt lat="33.4347534" lon="10.2040621"><ele>233.0</ele><time>2026-04-26T09:01:12.722Z</time></trkpt><trkpt lat="33.434725" lon="10.2042188"><ele>232.5</ele><time>2026-04-26T09:01:13.74Z</time></trkpt><trkpt lat="33.4346954" lon="10.2043707"><ele>232.0</ele><time>2026-04-26T09:01:14.721Z</time></trkpt><trkpt lat="33.4346623" lon="10.2045089"><ele>231.5</ele><time>2026-04-26T09:01:15.74Z</time></trkpt><trkpt lat="33.4346278" lon="10.2046442"><ele>231.0</ele><time>2026-04-26T09:01:16.728Z</time></trkpt><trkpt lat="33.4345979" lon="10.2047716"><ele>229.75</ele><time>2026-04-26T09:01:17.728Z</time></trkpt><trkpt lat="33.4345649" lon="10.2048922"><ele>228.5</ele><time>2026-04-26T09:01:18.733Z</time></trkpt><trkpt lat="33.4345301" lon="10.2050272"><ele>227.25</ele><time>2026-04-26T09:01:19.746Z</time></trkpt><trkpt lat="33.434508" lon="10.2051586"><ele>226.0</ele><time>2026-04-26T09:01:20.723Z</time></trkpt><trkpt lat="33.43447" lon="10.2052898"><ele>226.0</ele><time>2026-04-26T09:01:21.759Z</time></trkpt><trkpt lat="33.434434" lon="10.2054176"><ele>226.0</ele><time>2026-04-26T09:01:22.743Z</time></trkpt><trkpt lat="33.4343978" lon="10.2055502"><ele>226.0</ele><time>2026-04-26T09:01:23.738Z</time></trkpt><trkpt lat="33.4343628" lon="10.2056813"><ele>226.0</ele><time>2026-04-26T09:01:24.736Z</time></trkpt><trkpt lat="33.4343315" lon="10.205812"><ele>225.75</ele><time>2026-04-26T09:01:25.732Z</time></trkpt><trkpt lat="33.4342982" lon="10.2059408"><ele>225.5</ele><time>2026-04-26T09:01:26.732Z</time></trkpt><trkpt lat="33.4342658" lon="10.2060708"><ele>225.25</ele><time>2026-04-26T09:01:27.724Z</time></trkpt><trkpt lat="33.4342355" lon="10.2062031"><ele>225.0</ele><time>2026-04-26T09:01:28.742Z</time></trkpt><trkpt lat="33.4342021" lon="10.2063351"><ele>225.0</ele><time>2026-04-26T09:01:29.737Z</time></trkpt><trkpt lat="33.434167" lon="10.2064667"><ele>225.0</ele><time>2026-04-26T09:01:30.753Z</time></trkpt><trkpt lat="33.4341319" lon="10.2065976"><ele>225.0</ele><time>2026-04-26T09:01:31.732Z</time></trkpt><trkpt lat="33.4340995" lon="10.2067264"><ele>225.0</ele><time>2026-04-26T09:01:32.732Z</time></trkpt><trkpt lat="33.4340677" lon="10.2068562"><ele>225.25</ele><time>2026-04-26T09:01:33.73Z</time></trkpt><trkpt lat="33.4340335" lon="10.2069901"><ele>225.5</ele><time>2026-04-26T09:01:34.734Z</time></trkpt><trkpt lat="33.4339975" lon="10.2071243"><ele>225.75</ele><time>2026-04-26T09:01:35.738Z</time></trkpt><trkpt lat="33.4339634" lon="10.2072595"><ele>226.0</ele><time>2026-04-26T09:01:36.732Z</time></trkpt><trkpt lat="33.4339308" lon="10.2073955"><ele>225.25</ele><time>2026-04-26T09:01:37.736Z</time></trkpt><trkpt lat="33.4338973" lon="10.2075311"><ele>224.5</ele><time>2026-04-26T09:01:38.749Z</time></trkpt><trkpt lat="33.4338613" lon="10.2076677"><ele>223.75</ele><time>2026-04-26T09:01:39.746Z</time></trkpt><trkpt lat="33.4338254" lon="10.2078045"><ele>223.0</ele><time>2026-04-26T09:01:40.756Z</time></trkpt><trkpt lat="33.4337923" lon="10.2079427"><ele>222.0</ele><time>2026-04-26T09:01:41.734Z</time></trkpt><trkpt lat="33.4337609" lon="10.2080818"><ele>221.0</ele><time>2026-04-26T09:01:42.721Z</time></trkpt><trkpt lat="33.4337283" lon="10.2082226"><ele>220.0</ele><time>2026-04-26T09:01:43.728Z</time></trkpt><trkpt lat="33.4336966" lon="10.2083647"><ele>219.0</ele><time>2026-04-26T09:01:44.743Z</time></trkpt><trkpt lat="33.4336661" lon="10.208508"><ele>219.0</ele><time>2026-04-26T09:01:45.727Z</time></trkpt><trkpt lat="33.4336376" lon="10.2086536"><ele>219.0</ele><time>2026-04-26T09:01:46.73Z</time></trkpt><trkpt lat="33.4336136" lon="10.2088023"><ele>219.0</ele><time>2026-04-26T09:01:47.723Z</time></trkpt><trkpt lat="33.4335897" lon="10.2089522"><ele>219.0</ele><time>2026-04-26T09:01:48.724Z</time></trkpt><trkpt lat="33.4335657" lon="10.2091015"><ele>219.25</ele><time>2026-04-26T09:01:49.744Z</time></trkpt><trkpt lat="33.433543" lon="10.2092498"><ele>219.5</ele><time>2026-04-26T09:01:50.728Z</time></trkpt><trkpt lat="33.4335204" lon="10.209395"><ele>219.75</ele><time>2026-04-26T09:01:51.741Z</time></trkpt><trkpt lat="33.4334978" lon="10.2095424"><ele>220.0</ele><time>2026-04-26T09:01:52.734Z</time></trkpt><trkpt lat="33.4334763" lon="10.209691"><ele>219.5</ele><time>2026-04-26T09:01:53.734Z</time></trkpt><trkpt lat="33.4334556" lon="10.2098366"><ele>219.0</ele><time>2026-04-26T09:01:54.739Z</time></trkpt><trkpt lat="33.4334358" lon="10.2099832"><ele>218.5</ele><time>2026-04-26T09:01:55.73Z</time></trkpt><trkpt lat="33.4334128" lon="10.2101315"><ele>218.0</ele><time>2026-04-26T09:01:56.726Z</time></trkpt><trkpt lat="33.4333898" lon="10.2102822"><ele>218.0</ele><time>2026-04-26T09:01:57.729Z</time></trkpt><trkpt lat="33.4333665" lon="10.2104307"><ele>218.0</ele><time>2026-04-26T09:01:58.725Z</time></trkpt><trkpt lat="33.4333434" lon="10.210582"><ele>218.0</ele><time>2026-04-26T09:01:59.74Z</time></trkpt><trkpt lat="33.4333205" lon="10.2107339"><ele>218.0</ele><time>2026-04-26T09:02:00.725Z</time></trkpt><trkpt lat="33.4333015" lon="10.2108838"><ele>218.0</ele><time>2026-04-26T09:02:01.737Z</time></trkpt><trkpt lat="33.4332812" lon="10.2110376"><ele>218.0</ele><time>2026-04-26T09:02:02.737Z</time></trkpt><trkpt lat="33.4332701" lon="10.2111576"><ele>218.0</ele><time>2026-04-26T09:02:04.694Z</time></trkpt><trkpt lat="33.433249" lon="10.211269"><ele>218.0</ele><time>2026-04-26T09:02:05.698Z</time></trkpt><trkpt lat="33.4332297" lon="10.2113924"><ele>218.0</ele><time>2026-04-26T09:02:06.682Z</time></trkpt><trkpt lat="33.4332091" lon="10.2115327"><ele>217.75</ele><time>2026-04-26T09:02:07.692Z</time></trkpt><trkpt lat="33.4331851" lon="10.2116902"><ele>217.5</ele><time>2026-04-26T09:02:08.677Z</time></trkpt><trkpt lat="33.4331581" lon="10.2118546"><ele>217.25</ele><time>2026-04-26T09:02:09.677Z</time></trkpt><trkpt lat="33.4331382" lon="10.2120138"><ele>217.0</ele><time>2026-04-26T09:02:10.686Z</time></trkpt><trkpt lat="33.4331192" lon="10.212181"><ele>216.25</ele><time>2026-04-26T09:02:11.682Z</time></trkpt><trkpt lat="33.433103" lon="10.2123506"><ele>215.5</ele><time>2026-04-26T09:02:12.674Z</time></trkpt><trkpt lat="33.4330848" lon="10.212527"><ele>214.75</ele><time>2026-04-26T09:02:13.681Z</time></trkpt><trkpt lat="33.4330647" lon="10.2127061"><ele>214.0</ele><time>2026-04-26T09:02:14.684Z</time></trkpt><trkpt lat="33.4330411" lon="10.2128882"><ele>214.0</ele><time>2026-04-26T09:02:15.674Z</time></trkpt><trkpt lat="33.4330158" lon="10.2130751"><ele>214.0</ele><time>2026-04-26T09:02:16.66Z</time></trkpt><trkpt lat="33.4329898" lon="10.2132628"><ele>214.0</ele><time>2026-04-26T09:02:17.674Z</time></trkpt><trkpt lat="33.4329642" lon="10.2134525"><ele>213.33333333333331</ele><time>2026-04-26T09:02:18.681Z</time></trkpt><trkpt lat="33.4329388" lon="10.2136468"><ele>212.66666666666669</ele><time>2026-04-26T09:02:19.685Z</time></trkpt><trkpt lat="33.4329145" lon="10.2138413"><ele>212.0</ele><time>2026-04-26T09:02:20.691Z</time></trkpt><trkpt lat="33.4328878" lon="10.2140351"><ele>211.33333333333334</ele><time>2026-04-26T09:02:21.684Z</time></trkpt><trkpt lat="33.4328628" lon="10.2142293"><ele>210.66666666666669</ele><time>2026-04-26T09:02:22.683Z</time></trkpt><trkpt lat="33.4328328" lon="10.2144185"><ele>210.0</ele><time>2026-04-26T09:02:23.681Z</time></trkpt><trkpt lat="33.4328102" lon="10.2146158"><ele>210.0</ele><time>2026-04-26T09:02:24.681Z</time></trkpt><trkpt lat="33.4327858" lon="10.2148091"><ele>210.0</ele><time>2026-04-26T09:02:25.683Z</time></trkpt><trkpt lat="33.4327621" lon="10.2150069"><ele>210.0</ele><time>2026-04-26T09:02:26.689Z</time></trkpt><trkpt lat="33.4327335" lon="10.2152059"><ele>209.33333333333331</ele><time>2026-04-26T09:02:27.689Z</time></trkpt><trkpt lat="33.4327063" lon="10.2153989"><ele>208.66666666666666</ele><time>2026-04-26T09:02:28.696Z</time></trkpt><trkpt lat="33.432676" lon="10.2155949"><ele>208.0</ele><time>2026-04-26T09:02:29.68Z</time></trkpt><trkpt lat="33.4326483" lon="10.2157916"><ele>207.33333333333331</ele><time>2026-04-26T09:02:30.709Z</time></trkpt><trkpt lat="33.4326266" lon="10.2159864"><ele>206.66666666666669</ele><time>2026-04-26T09:02:31.682Z</time></trkpt><trkpt lat="33.4325961" lon="10.2161814"><ele>206.0</ele><time>2026-04-26T09:02:32.683Z</time></trkpt><trkpt lat="33.4325737" lon="10.2163792"><ele>206.0</ele><time>2026-04-26T09:02:33.684Z</time></trkpt><trkpt lat="33.4325481" lon="10.2165806"><ele>206.0</ele><time>2026-04-26T09:02:34.689Z</time></trkpt><trkpt lat="33.4325238" lon="10.2167809"><ele>206.0</ele><time>2026-04-26T09:02:35.696Z</time></trkpt><trkpt lat="33.4324991" lon="10.2169796"><ele>206.0</ele><time>2026-04-26T09:02:36.687Z</time></trkpt><trkpt lat="33.4324758" lon="10.2171759"><ele>206.0</ele><time>2026-04-26T09:02:37.691Z</time></trkpt><trkpt lat="33.4324534" lon="10.2173639"><ele>206.0</ele><time>2026-04-26T09:02:38.681Z</time></trkpt><trkpt lat="33.432427" lon="10.2175509"><ele>206.33333333333334</ele><time>2026-04-26T09:02:39.687Z</time></trkpt><trkpt lat="33.4324021" lon="10.2177345"><ele>206.66666666666669</ele><time>2026-04-26T09:02:40.696Z</time></trkpt><trkpt lat="33.4323768" lon="10.2179239"><ele>207.0</ele><time>2026-04-26T09:02:41.679Z</time></trkpt><trkpt lat="33.4323492" lon="10.2181063"><ele>207.33333333333331</ele><time>2026-04-26T09:02:42.673Z</time></trkpt><trkpt lat="33.4323205" lon="10.2182967"><ele>207.66666666666666</ele><time>2026-04-26T09:02:43.678Z</time></trkpt><trkpt lat="33.4322876" lon="10.218486"><ele>208.0</ele><time>2026-04-26T09:02:44.674Z</time></trkpt><trkpt lat="33.4322514" lon="10.218674"><ele>208.0</ele><time>2026-04-26T09:02:45.68Z</time></trkpt><trkpt lat="33.4322137" lon="10.2188575"><ele>208.0</ele><time>2026-04-26T09:02:46.692Z</time></trkpt><trkpt lat="33.4321717" lon="10.2190458"><ele>208.0</ele><time>2026-04-26T09:02:47.67Z</time></trkpt><trkpt lat="33.4321319" lon="10.2192383"><ele>206.0</ele><time>2026-04-26T09:02:48.685Z</time></trkpt><trkpt lat="33.4320917" lon="10.2194305"><ele>204.0</ele><time>2026-04-26T09:02:49.684Z</time></trkpt><trkpt lat="33.4320526" lon="10.2196278"><ele>202.0</ele><time>2026-04-26T09:02:50.705Z</time></trkpt><trkpt lat="33.4320107" lon="10.2198246"><ele>202.0</ele><time>2026-04-26T09:02:51.677Z</time></trkpt><trkpt lat="33.4319688" lon="10.2200159"><ele>202.0</ele><time>2026-04-26T09:02:52.665Z</time></trkpt><trkpt lat="33.4319305" lon="10.2202056"><ele>202.0</ele><time>2026-04-26T09:02:53.693Z</time></trkpt><trkpt lat="33.4318877" lon="10.2203947"><ele>202.0</ele><time>2026-04-26T09:02:54.678Z</time></trkpt><trkpt lat="33.4318454" lon="10.2205848"><ele>202.0</ele><time>2026-04-26T09:02:55.685Z</time></trkpt><trkpt lat="33.4318028" lon="10.2207686"><ele>202.0</ele><time>2026-04-26T09:02:56.689Z</time></trkpt><trkpt lat="33.4317607" lon="10.2209515"><ele>202.66666666666666</ele><time>2026-04-26T09:02:57.679Z</time></trkpt><trkpt lat="33.4317187" lon="10.2211361"><ele>203.33333333333331</ele><time>2026-04-26T09:02:58.673Z</time></trkpt><trkpt lat="33.4316772" lon="10.2213222"><ele>204.0</ele><time>2026-04-26T09:02:59.695Z</time></trkpt><trkpt lat="33.4316362" lon="10.2215086"><ele>204.0</ele><time>2026-04-26T09:03:00.678Z</time></trkpt><trkpt lat="33.4315996" lon="10.2216892"><ele>204.0</ele><time>2026-04-26T09:03:01.691Z</time></trkpt><trkpt lat="33.4315646" lon="10.2218704"><ele>204.0</ele><time>2026-04-26T09:03:02.666Z</time></trkpt><trkpt lat="33.4315283" lon="10.2220519"><ele>204.0</ele><time>2026-04-26T09:03:03.694Z</time></trkpt><trkpt lat="33.4314915" lon="10.2222293"><ele>204.0</ele><time>2026-04-26T09:03:04.687Z</time></trkpt><trkpt lat="33.4314546" lon="10.2224121"><ele>204.0</ele><time>2026-04-26T09:03:05.687Z</time></trkpt><trkpt lat="33.4314189" lon="10.222593"><ele>204.33333333333331</ele><time>2026-04-26T09:03:06.672Z</time></trkpt><trkpt lat="33.4313776" lon="10.2227792"><ele>204.66666666666666</ele><time>2026-04-26T09:03:07.701Z</time></trkpt><trkpt lat="33.4313407" lon="10.2229633"><ele>205.0</ele><time>2026-04-26T09:03:08.675Z</time></trkpt><trkpt lat="33.4313035" lon="10.2231468"><ele>204.66666666666666</ele><time>2026-04-26T09:03:09.689Z</time></trkpt><trkpt lat="33.4312673" lon="10.2233271"><ele>204.33333333333331</ele><time>2026-04-26T09:03:10.679Z</time></trkpt><trkpt lat="33.4312265" lon="10.223505"><ele>204.0</ele><time>2026-04-26T09:03:11.683Z</time></trkpt><trkpt lat="33.4311911" lon="10.2236847"><ele>204.0</ele><time>2026-04-26T09:03:12.686Z</time></trkpt><trkpt lat="33.4311502" lon="10.2238634"><ele>204.0</ele><time>2026-04-26T09:03:13.673Z</time></trkpt><trkpt lat="33.431112" lon="10.2240426"><ele>204.0</ele><time>2026-04-26T09:03:14.704Z</time></trkpt><trkpt lat="33.431075" lon="10.2242226"><ele>204.66666666666669</ele><time>2026-04-26T09:03:15.666Z</time></trkpt><trkpt lat="33.4310402" lon="10.2244024"><ele>205.33333333333334</ele><time>2026-04-26T09:03:16.671Z</time></trkpt><trkpt lat="33.4310012" lon="10.2245826"><ele>206.0</ele><time>2026-04-26T09:03:17.665Z</time></trkpt><trkpt lat="33.4309603" lon="10.2247613"><ele>204.66666666666669</ele><time>2026-04-26T09:03:18.682Z</time></trkpt><trkpt lat="33.4309202" lon="10.2249422"><ele>203.33333333333331</ele><time>2026-04-26T09:03:19.692Z</time></trkpt><trkpt lat="33.4308826" lon="10.2251214"><ele>202.0</ele><time>2026-04-26T09:03:20.704Z</time></trkpt><trkpt lat="33.4308464" lon="10.2252983"><ele>202.0</ele><time>2026-04-26T09:03:21.699Z</time></trkpt><trkpt lat="33.4308134" lon="10.2254743"><ele>202.0</ele><time>2026-04-26T09:03:22.673Z</time></trkpt><trkpt lat="33.4307761" lon="10.2256497"><ele>202.0</ele><time>2026-04-26T09:03:23.679Z</time></trkpt><trkpt lat="33.4307371" lon="10.2258264"><ele>202.0</ele><time>2026-04-26T09:03:24.68Z</time></trkpt><trkpt lat="33.4307004" lon="10.2259981"><ele>202.0</ele><time>2026-04-26T09:03:25.68Z</time></trkpt><trkpt lat="33.4306656" lon="10.2261734"><ele>202.0</ele><time>2026-04-26T09:03:26.676Z</time></trkpt><trkpt lat="33.4306295" lon="10.2263442"><ele>202.0</ele><time>2026-04-26T09:03:27.683Z</time></trkpt><trkpt lat="33.4305958" lon="10.2265171"><ele>202.0</ele><time>2026-04-26T09:03:28.684Z</time></trkpt><trkpt lat="33.4305626" lon="10.2266854"><ele>202.0</ele><time>2026-04-26T09:03:29.71Z</time></trkpt><trkpt lat="33.4305237" lon="10.2268528"><ele>202.0</ele><time>2026-04-26T09:03:30.687Z</time></trkpt><trkpt lat="33.4304844" lon="10.2270222"><ele>202.0</ele><time>2026-04-26T09:03:31.675Z</time></trkpt><trkpt lat="33.4304515" lon="10.2271958"><ele>202.33333333333331</ele><time>2026-04-26T09:03:32.685Z</time></trkpt><trkpt lat="33.4304245" lon="10.2273739"><ele>202.66666666666669</ele><time>2026-04-26T09:03:33.709Z</time></trkpt><trkpt lat="33.4303959" lon="10.2275527"><ele>203.0</ele><time>2026-04-26T09:03:34.685Z</time></trkpt><trkpt lat="33.4303561" lon="10.2277282"><ele>203.0</ele><time>2026-04-26T09:03:35.687Z</time></trkpt><trkpt lat="33.4303154" lon="10.2279003"><ele>203.0</ele><time>2026-04-26T09:03:36.672Z</time></trkpt><trkpt lat="33.4302717" lon="10.2280748"><ele>203.0</ele><time>2026-04-26T09:03:37.687Z</time></trkpt><trkpt lat="33.4302265" lon="10.2282442"><ele>203.0</ele><time>2026-04-26T09:03:38.673Z</time></trkpt><trkpt lat="33.4301863" lon="10.2284183"><ele>203.0</ele><time>2026-04-26T09:03:39.677Z</time></trkpt><trkpt lat="33.4301491" lon="10.2285922"><ele>203.0</ele><time>2026-04-26T09:03:40.679Z</time></trkpt><trkpt lat="33.4301121" lon="10.2287741"><ele>203.0</ele><time>2026-04-26T09:03:41.688Z</time></trkpt><trkpt lat="33.4300762" lon="10.2289575"><ele>203.0</ele><time>2026-04-26T09:03:42.696Z</time></trkpt><trkpt lat="33.4300395" lon="10.2291439"><ele>203.0</ele><time>2026-04-26T09:03:43.673Z</time></trkpt><trkpt lat="33.4300082" lon="10.2293362"><ele>201.66666666666669</ele><time>2026-04-26T09:03:44.675Z</time></trkpt><trkpt lat="33.4299738" lon="10.2295274"><ele>200.33333333333331</ele><time>2026-04-26T09:03:45.691Z</time></trkpt><trkpt lat="33.4299396" lon="10.229715"><ele>199.0</ele><time>2026-04-26T09:03:46.68Z</time></trkpt><trkpt lat="33.4299007" lon="10.229912"><ele>198.66666666666666</ele><time>2026-04-26T09:03:47.682Z</time></trkpt><trkpt lat="33.4298621" lon="10.2301093"><ele>198.33333333333331</ele><time>2026-04-26T09:03:48.682Z</time></trkpt><trkpt lat="33.4298245" lon="10.2303141"><ele>198.0</ele><time>2026-04-26T09:03:49.686Z</time></trkpt><trkpt lat="33.4297838" lon="10.2305208"><ele>198.0</ele><time>2026-04-26T09:03:50.691Z</time></trkpt><trkpt lat="33.4297402" lon="10.2307317"><ele>198.0</ele><time>2026-04-26T09:03:51.691Z</time></trkpt><trkpt lat="33.4296946" lon="10.2309482"><ele>198.0</ele><time>2026-04-26T09:03:52.681Z</time></trkpt><trkpt lat="33.429652" lon="10.2311663"><ele>198.33333333333331</ele><time>2026-04-26T09:03:53.681Z</time></trkpt><trkpt lat="33.429608" lon="10.2313776"><ele>198.66666666666666</ele><time>2026-04-26T09:03:54.686Z</time></trkpt><trkpt lat="33.4295632" lon="10.2315942"><ele>199.0</ele><time>2026-04-26T09:03:55.68Z</time></trkpt><trkpt lat="33.4295211" lon="10.2318094"><ele>199.33333333333331</ele><time>2026-04-26T09:03:56.679Z</time></trkpt><trkpt lat="33.4294786" lon="10.2320245"><ele>199.66666666666669</ele><time>2026-04-26T09:03:57.678Z</time></trkpt><trkpt lat="33.4294342" lon="10.2322402"><ele>200.0</ele><time>2026-04-26T09:03:58.684Z</time></trkpt><trkpt lat="33.4293868" lon="10.232457"><ele>200.0</ele><time>2026-04-26T09:03:59.673Z</time></trkpt><trkpt lat="33.4293402" lon="10.2326714"><ele>200.0</ele><time>2026-04-26T09:04:00.691Z</time></trkpt><trkpt lat="33.4292945" lon="10.2328836"><ele>200.0</ele><time>2026-04-26T09:04:01.69Z</time></trkpt><trkpt lat="33.4292462" lon="10.2330937"><ele>199.33333333333334</ele><time>2026-04-26T09:04:02.692Z</time></trkpt><trkpt lat="33.4292029" lon="10.2333066"><ele>198.66666666666669</ele><time>2026-04-26T09:04:03.679Z</time></trkpt><trkpt lat="33.4291568" lon="10.2335175"><ele>198.0</ele><time>2026-04-26T09:04:04.683Z</time></trkpt><trkpt lat="33.4291159" lon="10.2337343"><ele>198.0</ele><time>2026-04-26T09:04:05.674Z</time></trkpt><trkpt lat="33.4290727" lon="10.2339522"><ele>198.0</ele><time>2026-04-26T09:04:06.685Z</time></trkpt><trkpt lat="33.4290336" lon="10.2341702"><ele>198.0</ele><time>2026-04-26T09:04:07.682Z</time></trkpt><trkpt lat="33.4289877" lon="10.2343789"><ele>197.66666666666669</ele><time>2026-04-26T09:04:08.69Z</time></trkpt><trkpt lat="33.4289425" lon="10.2345877"><ele>197.33333333333334</ele><time>2026-04-26T09:04:09.686Z</time></trkpt><trkpt lat="33.4288983" lon="10.2347983"><ele>197.0</ele><time>2026-04-26T09:04:10.684Z</time></trkpt><trkpt lat="33.428848" lon="10.2350159"><ele>196.66666666666669</ele><time>2026-04-26T09:04:11.67Z</time></trkpt><trkpt lat="33.4287987" lon="10.2352317"><ele>196.33333333333331</ele><time>2026-04-26T09:04:12.686Z</time></trkpt><trkpt lat="33.4287551" lon="10.2354482"><ele>196.0</ele><time>2026-04-26T09:04:13.678Z</time></trkpt><trkpt lat="33.4287087" lon="10.2356651"><ele>197.33333333333331</ele><time>2026-04-26T09:04:14.665Z</time></trkpt><trkpt lat="33.4286626" lon="10.2358819"><ele>198.66666666666669</ele><time>2026-04-26T09:04:15.675Z</time></trkpt><trkpt lat="33.4286112" lon="10.2361034"><ele>200.0</ele><time>2026-04-26T09:04:16.687Z</time></trkpt><trkpt lat="33.4285605" lon="10.2363228"><ele>199.33333333333334</ele><time>2026-04-26T09:04:17.691Z</time></trkpt><trkpt lat="33.4285142" lon="10.236536"><ele>198.66666666666669</ele><time>2026-04-26T09:04:18.682Z</time></trkpt><trkpt lat="33.4284716" lon="10.236749"><ele>198.0</ele><time>2026-04-26T09:04:19.679Z</time></trkpt><trkpt lat="33.4284266" lon="10.2369594"><ele>198.0</ele><time>2026-04-26T09:04:20.684Z</time></trkpt><trkpt lat="33.4283843" lon="10.2371716"><ele>198.0</ele><time>2026-04-26T09:04:21.679Z</time></trkpt><trkpt lat="33.4283442" lon="10.2373782"><ele>198.0</ele><time>2026-04-26T09:04:22.692Z</time></trkpt><trkpt lat="33.4283063" lon="10.2375852"><ele>197.66666666666669</ele><time>2026-04-26T09:04:23.666Z</time></trkpt><trkpt lat="33.4282707" lon="10.2377899"><ele>197.33333333333334</ele><time>2026-04-26T09:04:24.713Z</time></trkpt><trkpt lat="33.4282368" lon="10.2379893"><ele>197.0</ele><time>2026-04-26T09:04:25.681Z</time></trkpt><trkpt lat="33.4282043" lon="10.2381909"><ele>197.0</ele><time>2026-04-26T09:04:26.674Z</time></trkpt><trkpt lat="33.4281697" lon="10.2383894"><ele>197.0</ele><time>2026-04-26T09:04:27.685Z</time></trkpt><trkpt lat="33.4281314" lon="10.2385856"><ele>197.0</ele><time>2026-04-26T09:04:28.68Z</time></trkpt><trkpt lat="33.4280956" lon="10.2387881"><ele>197.33333333333334</ele><time>2026-04-26T09:04:29.695Z</time></trkpt><trkpt lat="33.428059" lon="10.2389844"><ele>197.66666666666669</ele><time>2026-04-26T09:04:30.679Z</time></trkpt><trkpt lat="33.4280145" lon="10.2391789"><ele>198.0</ele><time>2026-04-26T09:04:31.668Z</time></trkpt><trkpt lat="33.4279683" lon="10.2393687"><ele>199.0</ele><time>2026-04-26T09:04:32.681Z</time></trkpt><trkpt lat="33.4279249" lon="10.2395583"><ele>200.0</ele><time>2026-04-26T09:04:33.674Z</time></trkpt><trkpt lat="33.4278816" lon="10.2397482"><ele>201.0</ele><time>2026-04-26T09:04:34.681Z</time></trkpt><trkpt lat="33.4278372" lon="10.2399407"><ele>201.0</ele><time>2026-04-26T09:04:35.685Z</time></trkpt><trkpt lat="33.4277929" lon="10.2401351"><ele>201.0</ele><time>2026-04-26T09:04:36.672Z</time></trkpt><trkpt lat="33.4277445" lon="10.2403312"><ele>201.0</ele><time>2026-04-26T09:04:37.667Z</time></trkpt><trkpt lat="33.4276993" lon="10.2405287"><ele>201.33333333333331</ele><time>2026-04-26T09:04:38.675Z</time></trkpt><trkpt lat="33.4276495" lon="10.2407272"><ele>201.66666666666666</ele><time>2026-04-26T09:04:39.686Z</time></trkpt><trkpt lat="33.4276066" lon="10.2409283"><ele>202.0</ele><time>2026-04-26T09:04:40.692Z</time></trkpt><trkpt lat="33.4275613" lon="10.2411288"><ele>202.0</ele><time>2026-04-26T09:04:41.674Z</time></trkpt><trkpt lat="33.4275182" lon="10.241325"><ele>202.0</ele><time>2026-04-26T09:04:42.688Z</time></trkpt><trkpt lat="33.4274754" lon="10.2415171"><ele>202.0</ele><time>2026-04-26T09:04:43.695Z</time></trkpt><trkpt lat="33.4274315" lon="10.2417074"><ele>202.33333333333331</ele><time>2026-04-26T09:04:44.69Z</time></trkpt><trkpt lat="33.4273862" lon="10.2418977"><ele>202.66666666666669</ele><time>2026-04-26T09:04:45.678Z</time></trkpt><trkpt lat="33.4273373" lon="10.242087"><ele>203.0</ele><time>2026-04-26T09:04:46.694Z</time></trkpt><trkpt lat="33.4272894" lon="10.2422804"><ele>203.33333333333334</ele><time>2026-04-26T09:04:47.677Z</time></trkpt><trkpt lat="33.4272376" lon="10.2424688"><ele>203.66666666666669</ele><time>2026-04-26T09:04:48.679Z</time></trkpt><trkpt lat="33.4271778" lon="10.2426589"><ele>204.0</ele><time>2026-04-26T09:04:49.668Z</time></trkpt><trkpt lat="33.4271146" lon="10.2428538"><ele>204.0</ele><time>2026-04-26T09:04:50.684Z</time></trkpt><trkpt lat="33.4270576" lon="10.2430507"><ele>204.0</ele><time>2026-04-26T09:04:51.695Z</time></trkpt><trkpt lat="33.4269993" lon="10.2432504"><ele>204.0</ele><time>2026-04-26T09:04:52.679Z</time></trkpt><trkpt lat="33.4269421" lon="10.2434485"><ele>203.33333333333331</ele><time>2026-04-26T09:04:53.69Z</time></trkpt><trkpt lat="33.4268804" lon="10.243641"><ele>202.66666666666666</ele><time>2026-04-26T09:04:54.688Z</time></trkpt><trkpt lat="33.4268168" lon="10.2438334"><ele>202.0</ele><time>2026-04-26T09:04:55.69Z</time></trkpt><trkpt lat="33.4267518" lon="10.2440263"><ele>201.0</ele><time>2026-04-26T09:04:56.683Z</time></trkpt><trkpt lat="33.4266857" lon="10.2442183"><ele>200.0</ele><time>2026-04-26T09:04:57.683Z</time></trkpt><trkpt lat="33.4266126" lon="10.2444061"><ele>199.0</ele><time>2026-04-26T09:04:58.684Z</time></trkpt><trkpt lat="33.4265262" lon="10.2445935"><ele>199.0</ele><time>2026-04-26T09:04:59.673Z</time></trkpt><trkpt lat="33.426432" lon="10.2447729"><ele>199.0</ele><time>2026-04-26T09:05:00.723Z</time></trkpt><trkpt lat="33.4263193" lon="10.2449349"><ele>199.0</ele><time>2026-04-26T09:05:01.678Z</time></trkpt><trkpt lat="33.4261974" lon="10.2450994"><ele>199.33333333333331</ele><time>2026-04-26T09:05:02.684Z</time></trkpt><trkpt lat="33.4260724" lon="10.245266"><ele>199.66666666666669</ele><time>2026-04-26T09:05:03.686Z</time></trkpt><trkpt lat="33.4259417" lon="10.2454199"><ele>200.0</ele><time>2026-04-26T09:05:04.677Z</time></trkpt><trkpt lat="33.4258065" lon="10.2455661"><ele>199.33333333333334</ele><time>2026-04-26T09:05:05.686Z</time></trkpt><trkpt lat="33.4256666" lon="10.2457079"><ele>198.66666666666669</ele><time>2026-04-26T09:05:06.669Z</time></trkpt><trkpt lat="33.4255275" lon="10.2458493"><ele>198.0</ele><time>2026-04-26T09:05:07.685Z</time></trkpt><trkpt lat="33.4253852" lon="10.2459924"><ele>199.66666666666669</ele><time>2026-04-26T09:05:08.676Z</time></trkpt><trkpt lat="33.4252444" lon="10.2461332"><ele>201.33333333333334</ele><time>2026-04-26T09:05:09.687Z</time></trkpt><trkpt lat="33.4251063" lon="10.2462724"><ele>203.0</ele><time>2026-04-26T09:05:10.694Z</time></trkpt><trkpt lat="33.4249669" lon="10.2464119"><ele>202.0</ele><time>2026-04-26T09:05:11.687Z</time></trkpt><trkpt lat="33.4248291" lon="10.2465539"><ele>201.0</ele><time>2026-04-26T09:05:12.679Z</time></trkpt><trkpt lat="33.4246965" lon="10.2466948"><ele>200.0</ele><time>2026-04-26T09:05:13.664Z</time></trkpt><trkpt lat="33.424558" lon="10.2468386"><ele>200.0</ele><time>2026-04-26T09:05:14.684Z</time></trkpt><trkpt lat="33.4244197" lon="10.2469761"><ele>200.0</ele><time>2026-04-26T09:05:15.68Z</time></trkpt><trkpt lat="33.4242772" lon="10.2471126"><ele>200.0</ele><time>2026-04-26T09:05:16.69Z</time></trkpt><trkpt lat="33.4241375" lon="10.2472518"><ele>200.66666666666669</ele><time>2026-04-26T09:05:17.675Z</time></trkpt><trkpt lat="33.4239958" lon="10.247393"><ele>201.33333333333331</ele><time>2026-04-26T09:05:18.689Z</time></trkpt><trkpt lat="33.4238569" lon="10.2475349"><ele>202.0</ele><time>2026-04-26T09:05:19.696Z</time></trkpt><trkpt lat="33.423718" lon="10.2476783"><ele>202.0</ele><time>2026-04-26T09:05:20.694Z</time></trkpt><trkpt lat="33.4235771" lon="10.2478219"><ele>202.0</ele><time>2026-04-26T09:05:21.69Z</time></trkpt><trkpt lat="33.4234349" lon="10.2479673"><ele>202.0</ele><time>2026-04-26T09:05:22.69Z</time></trkpt><trkpt lat="33.4232921" lon="10.248114"><ele>201.66666666666666</ele><time>2026-04-26T09:05:23.702Z</time></trkpt><trkpt lat="33.4231517" lon="10.2482579"><ele>201.33333333333331</ele><time>2026-04-26T09:05:24.677Z</time></trkpt><trkpt lat="33.4230067" lon="10.2484011"><ele>201.0</ele><time>2026-04-26T09:05:25.687Z</time></trkpt><trkpt lat="33.4228603" lon="10.2485451"><ele>201.0</ele><time>2026-04-26T09:05:26.701Z</time></trkpt><trkpt lat="33.4227172" lon="10.2486891"><ele>201.0</ele><time>2026-04-26T09:05:27.676Z</time></trkpt><trkpt lat="33.4225756" lon="10.2488341"><ele>201.0</ele><time>2026-04-26T09:05:28.683Z</time></trkpt><trkpt lat="33.422436" lon="10.2489776"><ele>200.0</ele><time>2026-04-26T09:05:29.681Z</time></trkpt><trkpt lat="33.4222986" lon="10.2491149"><ele>199.0</ele><time>2026-04-26T09:05:30.667Z</time></trkpt><trkpt lat="33.4221599" lon="10.2492545"><ele>198.0</ele><time>2026-04-26T09:05:31.687Z</time></trkpt><trkpt lat="33.4220249" lon="10.2493921"><ele>200.33333333333331</ele><time>2026-04-26T09:05:32.681Z</time></trkpt><trkpt lat="33.4218902" lon="10.2495287"><ele>202.66666666666666</ele><time>2026-04-26T09:05:33.681Z</time></trkpt><trkpt lat="33.4217586" lon="10.2496619"><ele>205.0</ele><time>2026-04-26T09:05:34.69Z</time></trkpt><trkpt lat="33.4216282" lon="10.2497932"><ele>205.33333333333331</ele><time>2026-04-26T09:05:35.683Z</time></trkpt><trkpt lat="33.4215018" lon="10.2499205"><ele>205.66666666666669</ele><time>2026-04-26T09:05:36.68Z</time></trkpt><trkpt lat="33.4213788" lon="10.2500428"><ele>206.0</ele><time>2026-04-26T09:05:37.689Z</time></trkpt><trkpt lat="33.4212656" lon="10.2501654"><ele>207.25</ele><time>2026-04-26T09:05:38.68Z</time></trkpt><trkpt lat="33.4211578" lon="10.2502826"><ele>208.5</ele><time>2026-04-26T09:05:39.676Z</time></trkpt><trkpt lat="33.4210672" lon="10.2503865"><ele>209.75</ele><time>2026-04-26T09:05:40.689Z</time></trkpt><trkpt lat="33.420993" lon="10.2504759"><ele>211.0</ele><time>2026-04-26T09:05:41.685Z</time></trkpt><trkpt lat="33.4209074" lon="10.2505666"><ele>210.75</ele><time>2026-04-26T09:05:42.68Z</time></trkpt><trkpt lat="33.4208001" lon="10.2506422"><ele>210.5</ele><time>2026-04-26T09:05:43.707Z</time></trkpt><trkpt lat="33.4206901" lon="10.2506996"><ele>210.25</ele><time>2026-04-26T09:05:44.672Z</time></trkpt><trkpt lat="33.4205866" lon="10.2507579"><ele>210.0</ele><time>2026-04-26T09:05:45.677Z</time></trkpt><trkpt lat="33.4204913" lon="10.2508161"><ele>208.8</ele><time>2026-04-26T09:05:46.68Z</time></trkpt><trkpt lat="33.4204029" lon="10.2508706"><ele>207.6</ele><time>2026-04-26T09:05:47.679Z</time></trkpt><trkpt lat="33.4203225" lon="10.2509291"><ele>206.39999999999998</ele><time>2026-04-26T09:05:48.675Z</time></trkpt><trkpt lat="33.4202428" lon="10.2509882"><ele>205.2</ele><time>2026-04-26T09:05:49.686Z</time></trkpt><trkpt lat="33.4201641" lon="10.2510497"><ele>204.0</ele><time>2026-04-26T09:05:50.685Z</time></trkpt><trkpt lat="33.4200867" lon="10.251124"><ele>204.0</ele><time>2026-04-26T09:05:51.693Z</time></trkpt><trkpt lat="33.4200111" lon="10.2512146"><ele>204.0</ele><time>2026-04-26T09:05:52.694Z</time></trkpt><trkpt lat="33.4199369" lon="10.2513175"><ele>204.0</ele><time>2026-04-26T09:05:53.717Z</time></trkpt><trkpt lat="33.4198657" lon="10.2514271"><ele>204.0</ele><time>2026-04-26T09:05:54.691Z</time></trkpt><trkpt lat="33.4197964" lon="10.251549"><ele>204.75</ele><time>2026-04-26T09:05:55.693Z</time></trkpt><trkpt lat="33.4197389" lon="10.2516789"><ele>205.5</ele><time>2026-04-26T09:05:56.681Z</time></trkpt><trkpt lat="33.4196813" lon="10.2518175"><ele>206.25</ele><time>2026-04-26T09:05:57.686Z</time></trkpt><trkpt lat="33.4196177" lon="10.2519669"><ele>207.0</ele><time>2026-04-26T09:05:58.672Z</time></trkpt><trkpt lat="33.4195491" lon="10.2521212"><ele>204.0</ele><time>2026-04-26T09:05:59.68Z</time></trkpt><trkpt lat="33.4194809" lon="10.2522741"><ele>201.0</ele><time>2026-04-26T09:06:00.677Z</time></trkpt><trkpt lat="33.4194152" lon="10.2524295"><ele>198.0</ele><time>2026-04-26T09:06:01.686Z</time></trkpt><trkpt lat="33.4193568" lon="10.2525901"><ele>195.0</ele><time>2026-04-26T09:06:02.687Z</time></trkpt><trkpt lat="33.4193037" lon="10.2527561"><ele>195.0</ele><time>2026-04-26T09:06:03.679Z</time></trkpt><trkpt lat="33.4192538" lon="10.2529337"><ele>195.0</ele><time>2026-04-26T09:06:04.681Z</time></trkpt><trkpt lat="33.4192102" lon="10.2531232"><ele>195.0</ele><time>2026-04-26T09:06:05.704Z</time></trkpt><trkpt lat="33.4191704" lon="10.2533093"><ele>195.0</ele><time>2026-04-26T09:06:06.686Z</time></trkpt><trkpt lat="33.4191322" lon="10.2534959"><ele>195.0</ele><time>2026-04-26T09:06:07.67Z</time></trkpt><trkpt lat="33.4190921" lon="10.2536848"><ele>195.0</ele><time>2026-04-26T09:06:08.696Z</time></trkpt><trkpt lat="33.4190521" lon="10.2538685"><ele>196.0</ele><time>2026-04-26T09:06:09.68Z</time></trkpt><trkpt lat="33.4190136" lon="10.2540531"><ele>197.0</ele><time>2026-04-26T09:06:10.689Z</time></trkpt><trkpt lat="33.4189602" lon="10.2542354"><ele>198.0</ele><time>2026-04-26T09:06:11.669Z</time></trkpt><trkpt lat="33.4188909" lon="10.2544126"><ele>194.66666666666666</ele><time>2026-04-26T09:06:12.679Z</time></trkpt><trkpt lat="33.4188002" lon="10.2545951"><ele>191.33333333333331</ele><time>2026-04-26T09:06:13.694Z</time></trkpt><trkpt lat="33.4187015" lon="10.2547807"><ele>188.0</ele><time>2026-04-26T09:06:14.686Z</time></trkpt><trkpt lat="33.4186007" lon="10.2549701"><ele>188.0</ele><time>2026-04-26T09:06:15.689Z</time></trkpt><trkpt lat="33.4185026" lon="10.2551606"><ele>188.0</ele><time>2026-04-26T09:06:16.681Z</time></trkpt><trkpt lat="33.4184071" lon="10.2553513"><ele>188.0</ele><time>2026-04-26T09:06:17.669Z</time></trkpt><trkpt lat="33.4183092" lon="10.2555386"><ele>188.66666666666666</ele><time>2026-04-26T09:06:18.695Z</time></trkpt><trkpt lat="33.4182094" lon="10.2557225"><ele>189.33333333333334</ele><time>2026-04-26T09:06:19.672Z</time></trkpt><trkpt lat="33.4181131" lon="10.2559096"><ele>190.0</ele><time>2026-04-26T09:06:20.669Z</time></trkpt><trkpt lat="33.418017" lon="10.2560955"><ele>188.0</ele><time>2026-04-26T09:06:21.666Z</time></trkpt><trkpt lat="33.4179233" lon="10.2562786"><ele>186.0</ele><time>2026-04-26T09:06:22.679Z</time></trkpt><trkpt lat="33.4178271" lon="10.2564647"><ele>184.0</ele><time>2026-04-26T09:06:23.686Z</time></trkpt><trkpt lat="33.417732" lon="10.2566508"><ele>184.0</ele><time>2026-04-26T09:06:24.697Z</time></trkpt><trkpt lat="33.4176374" lon="10.2568336"><ele>184.0</ele><time>2026-04-26T09:06:25.681Z</time></trkpt><trkpt lat="33.4175436" lon="10.2570142"><ele>184.0</ele><time>2026-04-26T09:06:26.687Z</time></trkpt><trkpt lat="33.41745" lon="10.2571955"><ele>183.33333333333334</ele><time>2026-04-26T09:06:27.701Z</time></trkpt><trkpt lat="33.417362" lon="10.2573761"><ele>182.66666666666666</ele><time>2026-04-26T09:06:28.684Z</time></trkpt><trkpt lat="33.4172859" lon="10.2575694"><ele>182.0</ele><time>2026-04-26T09:06:29.688Z</time></trkpt><trkpt lat="33.4172139" lon="10.2577677"><ele>181.0</ele><time>2026-04-26T09:06:30.708Z</time></trkpt><trkpt lat="33.4171477" lon="10.2579661"><ele>180.0</ele><time>2026-04-26T09:06:31.7Z</time></trkpt><trkpt lat="33.4170874" lon="10.258166"><ele>179.0</ele><time>2026-04-26T09:06:32.69Z</time></trkpt><trkpt lat="33.417028" lon="10.2583669"><ele>179.0</ele><time>2026-04-26T09:06:33.68Z</time></trkpt><trkpt lat="33.4169683" lon="10.2585686"><ele>179.0</ele><time>2026-04-26T09:06:34.683Z</time></trkpt><trkpt lat="33.416906" lon="10.2587674"><ele>179.0</ele><time>2026-04-26T09:06:35.687Z</time></trkpt><trkpt lat="33.4168451" lon="10.2589671"><ele>178.66666666666666</ele><time>2026-04-26T09:06:36.68Z</time></trkpt><trkpt lat="33.4167856" lon="10.2591724"><ele>178.33333333333334</ele><time>2026-04-26T09:06:37.673Z</time></trkpt><trkpt lat="33.4167241" lon="10.2593817"><ele>178.0</ele><time>2026-04-26T09:06:38.686Z</time></trkpt><trkpt lat="33.4166605" lon="10.259582"><ele>178.0</ele><time>2026-04-26T09:06:39.687Z</time></trkpt><trkpt lat="33.4166009" lon="10.2597806"><ele>178.0</ele><time>2026-04-26T09:06:40.681Z</time></trkpt><trkpt lat="33.4165336" lon="10.2599873"><ele>178.0</ele><time>2026-04-26T09:06:41.682Z</time></trkpt><trkpt lat="33.416469" lon="10.2601912"><ele>178.0</ele><time>2026-04-26T09:06:42.673Z</time></trkpt><trkpt lat="33.416404" lon="10.2604047"><ele>178.0</ele><time>2026-04-26T09:06:43.69Z</time></trkpt><trkpt lat="33.4163366" lon="10.2606136"><ele>178.0</ele><time>2026-04-26T09:06:44.685Z</time></trkpt><trkpt lat="33.4162716" lon="10.2608225"><ele>176.66666666666669</ele><time>2026-04-26T09:06:45.685Z</time></trkpt><trkpt lat="33.4162098" lon="10.2610318"><ele>175.33333333333334</ele><time>2026-04-26T09:06:46.698Z</time></trkpt><trkpt lat="33.4161486" lon="10.2612359"><ele>174.0</ele><time>2026-04-26T09:06:47.683Z</time></trkpt><trkpt lat="33.4160858" lon="10.26144"><ele>174.33333333333334</ele><time>2026-04-26T09:06:48.672Z</time></trkpt><trkpt lat="33.4160237" lon="10.2616444"><ele>174.66666666666669</ele><time>2026-04-26T09:06:49.699Z</time></trkpt><trkpt lat="33.415965" lon="10.2618446"><ele>175.0</ele><time>2026-04-26T09:06:50.687Z</time></trkpt><trkpt lat="33.4159142" lon="10.2620333"><ele>175.0</ele><time>2026-04-26T09:06:51.685Z</time></trkpt><trkpt lat="33.4158651" lon="10.2622138"><ele>175.0</ele><time>2026-04-26T09:06:52.681Z</time></trkpt><trkpt lat="33.4158136" lon="10.2623969"><ele>175.0</ele><time>2026-04-26T09:06:53.695Z</time></trkpt><trkpt lat="33.4157587" lon="10.262589"><ele>174.33333333333334</ele><time>2026-04-26T09:06:54.671Z</time></trkpt><trkpt lat="33.4157057" lon="10.2627841"><ele>173.66666666666666</ele><time>2026-04-26T09:06:55.688Z</time></trkpt><trkpt lat="33.4156553" lon="10.2629845"><ele>173.0</ele><time>2026-04-26T09:06:56.684Z</time></trkpt><trkpt lat="33.4156022" lon="10.2631835"><ele>172.33333333333331</ele><time>2026-04-26T09:06:57.699Z</time></trkpt><trkpt lat="33.4155482" lon="10.2633864"><ele>171.66666666666666</ele><time>2026-04-26T09:06:58.68Z</time></trkpt><trkpt lat="33.4154969" lon="10.2635884"><ele>171.0</ele><time>2026-04-26T09:06:59.694Z</time></trkpt><trkpt lat="33.4154434" lon="10.2637921"><ele>171.66666666666666</ele><time>2026-04-26T09:07:00.682Z</time></trkpt><trkpt lat="33.4153905" lon="10.2639921"><ele>172.33333333333331</ele><time>2026-04-26T09:07:01.693Z</time></trkpt><trkpt lat="33.4153312" lon="10.2641982"><ele>173.0</ele><time>2026-04-26T09:07:02.681Z</time></trkpt><trkpt lat="33.4152713" lon="10.2644065"><ele>173.0</ele><time>2026-04-26T09:07:03.692Z</time></trkpt><trkpt lat="33.4152145" lon="10.2646139"><ele>173.0</ele><time>2026-04-26T09:07:04.676Z</time></trkpt><trkpt lat="33.4151602" lon="10.26482"><ele>173.0</ele><time>2026-04-26T09:07:05.674Z</time></trkpt><trkpt lat="33.4151063" lon="10.2650319"><ele>173.0</ele><time>2026-04-26T09:07:06.693Z</time></trkpt><trkpt lat="33.4150485" lon="10.265242"><ele>173.0</ele><time>2026-04-26T09:07:07.682Z</time></trkpt><trkpt lat="33.4149914" lon="10.2654538"><ele>173.0</ele><time>2026-04-26T09:07:08.684Z</time></trkpt><trkpt lat="33.4149348" lon="10.2656641"><ele>172.0</ele><time>2026-04-26T09:07:09.707Z</time></trkpt><trkpt lat="33.4148825" lon="10.2658759"><ele>171.0</ele><time>2026-04-26T09:07:10.678Z</time></trkpt><trkpt lat="33.4148284" lon="10.2660864"><ele>170.0</ele><time>2026-04-26T09:07:11.688Z</time></trkpt><trkpt lat="33.4147707" lon="10.2662954"><ele>170.66666666666666</ele><time>2026-04-26T09:07:12.685Z</time></trkpt><trkpt lat="33.4147131" lon="10.2665042"><ele>171.33333333333334</ele><time>2026-04-26T09:07:13.69Z</time></trkpt><trkpt lat="33.4146564" lon="10.2667173"><ele>172.0</ele><time>2026-04-26T09:07:14.68Z</time></trkpt><trkpt lat="33.4146002" lon="10.2669309"><ele>172.0</ele><time>2026-04-26T09:07:15.69Z</time></trkpt><trkpt lat="33.4145414" lon="10.2671459"><ele>172.0</ele><time>2026-04-26T09:07:16.688Z</time></trkpt><trkpt lat="33.4144822" lon="10.2673646"><ele>172.0</ele><time>2026-04-26T09:07:17.692Z</time></trkpt><trkpt lat="33.4144183" lon="10.2675862"><ele>172.0</ele><time>2026-04-26T09:07:18.678Z</time></trkpt><trkpt lat="33.4143581" lon="10.2678129"><ele>172.0</ele><time>2026-04-26T09:07:19.693Z</time></trkpt><trkpt lat="33.4142968" lon="10.2680408"><ele>172.0</ele><time>2026-04-26T09:07:20.707Z</time></trkpt><trkpt lat="33.4142361" lon="10.2682704"><ele>172.0</ele><time>2026-04-26T09:07:21.685Z</time></trkpt><trkpt lat="33.4141766" lon="10.2684991"><ele>172.0</ele><time>2026-04-26T09:07:22.675Z</time></trkpt><trkpt lat="33.4141158" lon="10.2687291"><ele>172.0</ele><time>2026-04-26T09:07:23.673Z</time></trkpt><trkpt lat="33.4140607" lon="10.2689528"><ele>172.33333333333334</ele><time>2026-04-26T09:07:24.676Z</time></trkpt><trkpt lat="33.414" lon="10.2691712"><ele>172.66666666666666</ele><time>2026-04-26T09:07:25.671Z</time></trkpt><trkpt lat="33.4139394" lon="10.2693833"><ele>173.0</ele><time>2026-04-26T09:07:26.678Z</time></trkpt><trkpt lat="33.4138907" lon="10.2695944"><ele>173.66666666666666</ele><time>2026-04-26T09:07:27.725Z</time></trkpt><trkpt lat="33.4138451" lon="10.2698146"><ele>174.33333333333334</ele><time>2026-04-26T09:07:28.697Z</time></trkpt><trkpt lat="33.4138072" lon="10.2700329"><ele>175.0</ele><time>2026-04-26T09:07:29.687Z</time></trkpt><trkpt lat="33.413774" lon="10.2702474"><ele>173.0</ele><time>2026-04-26T09:07:30.685Z</time></trkpt><trkpt lat="33.4137517" lon="10.2704689"><ele>171.0</ele><time>2026-04-26T09:07:31.666Z</time></trkpt><trkpt lat="33.4137304" lon="10.2706905"><ele>169.0</ele><time>2026-04-26T09:07:32.673Z</time></trkpt><trkpt lat="33.4137092" lon="10.2709054"><ele>168.66666666666669</ele><time>2026-04-26T09:07:33.682Z</time></trkpt><trkpt lat="33.4136892" lon="10.2711245"><ele>168.33333333333334</ele><time>2026-04-26T09:07:34.678Z</time></trkpt><trkpt lat="33.4136714" lon="10.2713487"><ele>168.0</ele><time>2026-04-26T09:07:35.68Z</time></trkpt><trkpt lat="33.4136501" lon="10.27157"><ele>167.33333333333334</ele><time>2026-04-26T09:07:36.671Z</time></trkpt><trkpt lat="33.4136283" lon="10.2717938"><ele>166.66666666666669</ele><time>2026-04-26T09:07:37.668Z</time></trkpt><trkpt lat="33.4136078" lon="10.2720186"><ele>166.0</ele><time>2026-04-26T09:07:38.678Z</time></trkpt><trkpt lat="33.4135805" lon="10.2722427"><ele>165.33333333333334</ele><time>2026-04-26T09:07:39.703Z</time></trkpt><trkpt lat="33.413555" lon="10.272464"><ele>164.66666666666666</ele><time>2026-04-26T09:07:40.67Z</time></trkpt><trkpt lat="33.4135326" lon="10.2726828"><ele>164.0</ele><time>2026-04-26T09:07:41.691Z</time></trkpt><trkpt lat="33.413507" lon="10.2729003"><ele>165.0</ele><time>2026-04-26T09:07:42.684Z</time></trkpt><trkpt lat="33.4134839" lon="10.2731156"><ele>166.0</ele><time>2026-04-26T09:07:43.685Z</time></trkpt><trkpt lat="33.4134573" lon="10.2733301"><ele>167.0</ele><time>2026-04-26T09:07:44.677Z</time></trkpt><trkpt lat="33.4134333" lon="10.2735403"><ele>167.0</ele><time>2026-04-26T09:07:45.675Z</time></trkpt><trkpt lat="33.4134091" lon="10.2737479"><ele>167.0</ele><time>2026-04-26T09:07:46.696Z</time></trkpt><trkpt lat="33.4133827" lon="10.2739626"><ele>167.0</ele><time>2026-04-26T09:07:47.675Z</time></trkpt><trkpt lat="33.4133593" lon="10.2741727"><ele>167.0</ele><time>2026-04-26T09:07:48.678Z</time></trkpt><trkpt lat="33.4133321" lon="10.2743894"><ele>167.0</ele><time>2026-04-26T09:07:49.692Z</time></trkpt><trkpt lat="33.413308" lon="10.2746062"><ele>167.0</ele><time>2026-04-26T09:07:50.672Z</time></trkpt><trkpt lat="33.413282" lon="10.2748206"><ele>167.33333333333331</ele><time>2026-04-26T09:07:51.697Z</time></trkpt><trkpt lat="33.4132593" lon="10.2750334"><ele>167.66666666666666</ele><time>2026-04-26T09:07:52.692Z</time></trkpt><trkpt lat="33.4132346" lon="10.2752488"><ele>168.0</ele><time>2026-04-26T09:07:53.691Z</time></trkpt><trkpt lat="33.4132087" lon="10.275467"><ele>167.33333333333334</ele><time>2026-04-26T09:07:54.677Z</time></trkpt><trkpt lat="33.4131814" lon="10.275682"><ele>166.66666666666669</ele><time>2026-04-26T09:07:55.703Z</time></trkpt><trkpt lat="33.4131542" lon="10.2758971"><ele>166.0</ele><time>2026-04-26T09:07:56.679Z</time></trkpt><trkpt lat="33.4131296" lon="10.2761131"><ele>166.0</ele><time>2026-04-26T09:07:57.671Z</time></trkpt><trkpt lat="33.4131072" lon="10.2763265"><ele>166.0</ele><time>2026-04-26T09:07:58.686Z</time></trkpt><trkpt lat="33.4130832" lon="10.2765414"><ele>166.0</ele><time>2026-04-26T09:07:59.682Z</time></trkpt><trkpt lat="33.4130581" lon="10.2767581"><ele>165.66666666666669</ele><time>2026-04-26T09:08:00.667Z</time></trkpt><trkpt lat="33.4130361" lon="10.2769739"><ele>165.33333333333334</ele><time>2026-04-26T09:08:01.683Z</time></trkpt><trkpt lat="33.4130143" lon="10.2771916"><ele>165.0</ele><time>2026-04-26T09:08:02.691Z</time></trkpt><trkpt lat="33.4129941" lon="10.2774106"><ele>164.0</ele><time>2026-04-26T09:08:03.692Z</time></trkpt><trkpt lat="33.4129721" lon="10.2776285"><ele>163.0</ele><time>2026-04-26T09:08:04.673Z</time></trkpt><trkpt lat="33.4129488" lon="10.2778452"><ele>162.0</ele><time>2026-04-26T09:08:05.663Z</time></trkpt><trkpt lat="33.4129252" lon="10.2780627"><ele>161.0</ele><time>2026-04-26T09:08:06.68Z</time></trkpt><trkpt lat="33.4128999" lon="10.2782776"><ele>160.0</ele><time>2026-04-26T09:08:07.689Z</time></trkpt><trkpt lat="33.4128781" lon="10.278492"><ele>159.0</ele><time>2026-04-26T09:08:08.688Z</time></trkpt><trkpt lat="33.412858" lon="10.2787068"><ele>159.0</ele><time>2026-04-26T09:08:09.675Z</time></trkpt><trkpt lat="33.4128379" lon="10.2789139"><ele>159.0</ele><time>2026-04-26T09:08:10.689Z</time></trkpt><trkpt lat="33.4128203" lon="10.2791241"><ele>159.0</ele><time>2026-04-26T09:08:11.686Z</time></trkpt><trkpt lat="33.4127967" lon="10.2793383"><ele>159.33333333333334</ele><time>2026-04-26T09:08:12.678Z</time></trkpt><trkpt lat="33.412767" lon="10.2795557"><ele>159.66666666666669</ele><time>2026-04-26T09:08:13.694Z</time></trkpt><trkpt lat="33.412736" lon="10.27976"><ele>160.0</ele><time>2026-04-26T09:08:14.681Z</time></trkpt><trkpt lat="33.4126984" lon="10.2799679"><ele>160.0</ele><time>2026-04-26T09:08:15.679Z</time></trkpt><trkpt lat="33.4126545" lon="10.2801787"><ele>160.0</ele><time>2026-04-26T09:08:16.679Z</time></trkpt><trkpt lat="33.4126058" lon="10.2803878"><ele>160.0</ele><time>2026-04-26T09:08:17.686Z</time></trkpt><trkpt lat="33.4125554" lon="10.2806011"><ele>160.0</ele><time>2026-04-26T09:08:18.68Z</time></trkpt><trkpt lat="33.4125028" lon="10.2808093"><ele>160.0</ele><time>2026-04-26T09:08:19.668Z</time></trkpt><trkpt lat="33.4124492" lon="10.2810194"><ele>160.0</ele><time>2026-04-26T09:08:20.695Z</time></trkpt><trkpt lat="33.4123937" lon="10.2812276"><ele>161.33333333333334</ele><time>2026-04-26T09:08:21.684Z</time></trkpt><trkpt lat="33.4123386" lon="10.2814333"><ele>162.66666666666666</ele><time>2026-04-26T09:08:22.677Z</time></trkpt><trkpt lat="33.4122876" lon="10.2816343"><ele>164.0</ele><time>2026-04-26T09:08:23.68Z</time></trkpt><trkpt lat="33.4122409" lon="10.2818313"><ele>164.0</ele><time>2026-04-26T09:08:24.694Z</time></trkpt><trkpt lat="33.4121945" lon="10.2820126"><ele>164.0</ele><time>2026-04-26T09:08:25.673Z</time></trkpt><trkpt lat="33.4121515" lon="10.2821727"><ele>164.0</ele><time>2026-04-26T09:08:26.681Z</time></trkpt><trkpt lat="33.4121104" lon="10.2823164"><ele>164.0</ele><time>2026-04-26T09:08:27.684Z</time></trkpt><trkpt lat="33.4120764" lon="10.2824353"><ele>163.0</ele><time>2026-04-26T09:08:28.677Z</time></trkpt><trkpt lat="33.4120555" lon="10.2825244"><ele>162.0</ele><time>2026-04-26T09:08:29.694Z</time></trkpt><trkpt lat="33.4120393" lon="10.2826133"><ele>161.0</ele><time>2026-04-26T09:08:30.686Z</time></trkpt><trkpt lat="33.4120178" lon="10.2827081"><ele>160.0</ele><time>2026-04-26T09:08:31.682Z</time></trkpt><trkpt lat="33.4119882" lon="10.2828076"><ele>159.0</ele><time>2026-04-26T09:08:32.669Z</time></trkpt><trkpt lat="33.411961" lon="10.2829261"><ele>158.0</ele><time>2026-04-26T09:08:33.733Z</time></trkpt><trkpt lat="33.4119281" lon="10.2830582"><ele>158.0</ele><time>2026-04-26T09:08:34.685Z</time></trkpt><trkpt lat="33.4118874" lon="10.283204"><ele>158.0</ele><time>2026-04-26T09:08:35.678Z</time></trkpt><trkpt lat="33.4118472" lon="10.2833507"><ele>158.0</ele><time>2026-04-26T09:08:36.686Z</time></trkpt><trkpt lat="33.4118122" lon="10.2835034"><ele>158.0</ele><time>2026-04-26T09:08:37.672Z</time></trkpt><trkpt lat="33.4117805" lon="10.2836561"><ele>158.0</ele><time>2026-04-26T09:08:38.695Z</time></trkpt><trkpt lat="33.4117477" lon="10.2838045"><ele>158.0</ele><time>2026-04-26T09:08:39.671Z</time></trkpt><trkpt lat="33.4117112" lon="10.2839517"><ele>158.0</ele><time>2026-04-26T09:08:40.682Z</time></trkpt><trkpt lat="33.4116695" lon="10.2840917"><ele>158.0</ele><time>2026-04-26T09:08:41.683Z</time></trkpt><trkpt lat="33.4116332" lon="10.2842215"><ele>158.0</ele><time>2026-04-26T09:08:42.683Z</time></trkpt><trkpt lat="33.4115941" lon="10.2843517"><ele>158.0</ele><time>2026-04-26T09:08:43.7Z</time></trkpt><trkpt lat="33.4115642" lon="10.2844736"><ele>158.0</ele><time>2026-04-26T09:08:44.672Z</time></trkpt><trkpt lat="33.4115404" lon="10.2845776"><ele>158.0</ele><time>2026-04-26T09:08:45.687Z</time></trkpt><trkpt lat="33.4115254" lon="10.2846605"><ele>158.0</ele><time>2026-04-26T09:08:46.676Z</time></trkpt><trkpt lat="33.4114975" lon="10.2847818"><ele>158.0</ele><time>2026-04-26T09:08:48.673Z</time></trkpt><trkpt lat="33.4114582" lon="10.2849391"><ele>158.0</ele><time>2026-04-26T09:08:50.679Z</time></trkpt><trkpt lat="33.4114311" lon="10.2850419"><ele>158.0</ele><time>2026-04-26T09:08:51.676Z</time></trkpt><trkpt lat="33.411404" lon="10.2851507"><ele>158.0</ele><time>2026-04-26T09:08:52.682Z</time></trkpt><trkpt lat="33.4113719" lon="10.2852621"><ele>158.0</ele><time>2026-04-26T09:08:53.69Z</time></trkpt><trkpt lat="33.4113441" lon="10.2853844"><ele>158.20000000000002</ele><time>2026-04-26T09:08:54.675Z</time></trkpt><trkpt lat="33.4113168" lon="10.2855089"><ele>158.4</ele><time>2026-04-26T09:08:55.678Z</time></trkpt><trkpt lat="33.411285" lon="10.2856299"><ele>158.60000000000002</ele><time>2026-04-26T09:08:56.69Z</time></trkpt><trkpt lat="33.4112601" lon="10.2857411"><ele>158.8</ele><time>2026-04-26T09:08:57.773Z</time></trkpt><trkpt lat="33.411236" lon="10.2858319"><ele>159.0</ele><time>2026-04-26T09:08:58.74Z</time></trkpt><trkpt lat="33.4112112" lon="10.2859124"><ele>159.0</ele><time>2026-04-26T09:08:59.74Z</time></trkpt><trkpt lat="33.411179" lon="10.2860401"><ele>159.0</ele><time>2026-04-26T09:09:01.718Z</time></trkpt><trkpt lat="33.4111546" lon="10.2861249"><ele>159.0</ele><time>2026-04-26T09:09:02.718Z</time></trkpt><trkpt lat="33.4111262" lon="10.2862324"><ele>159.0</ele><time>2026-04-26T09:09:03.709Z</time></trkpt><trkpt lat="33.411099" lon="10.286349"><ele>159.0</ele><time>2026-04-26T09:09:04.744Z</time></trkpt><trkpt lat="33.4110673" lon="10.2864775"><ele>158.0</ele><time>2026-04-26T09:09:05.725Z</time></trkpt><trkpt lat="33.4110303" lon="10.2866123"><ele>157.0</ele><time>2026-04-26T09:09:06.731Z</time></trkpt><trkpt lat="33.410997" lon="10.2867508"><ele>156.0</ele><time>2026-04-26T09:09:07.728Z</time></trkpt><trkpt lat="33.4109603" lon="10.286898"><ele>155.0</ele><time>2026-04-26T09:09:08.73Z</time></trkpt><trkpt lat="33.4109223" lon="10.287056"><ele>155.0</ele><time>2026-04-26T09:09:09.727Z</time></trkpt><trkpt lat="33.4108787" lon="10.2872293"><ele>155.0</ele><time>2026-04-26T09:09:10.731Z</time></trkpt><trkpt lat="33.410834" lon="10.2874128"><ele>155.0</ele><time>2026-04-26T09:09:11.726Z</time></trkpt><trkpt lat="33.4107882" lon="10.2876003"><ele>155.33333333333331</ele><time>2026-04-26T09:09:12.727Z</time></trkpt><trkpt lat="33.4107375" lon="10.2877903"><ele>155.66666666666666</ele><time>2026-04-26T09:09:13.728Z</time></trkpt><trkpt lat="33.4106864" lon="10.2879877"><ele>156.0</ele><time>2026-04-26T09:09:14.727Z</time></trkpt><trkpt lat="33.410639" lon="10.2881886"><ele>156.0</ele><time>2026-04-26T09:09:15.731Z</time></trkpt><trkpt lat="33.4105886" lon="10.2883893"><ele>156.0</ele><time>2026-04-26T09:09:16.727Z</time></trkpt><trkpt lat="33.4105382" lon="10.2885857"><ele>156.0</ele><time>2026-04-26T09:09:17.712Z</time></trkpt><trkpt lat="33.4104849" lon="10.2887865"><ele>156.33333333333334</ele><time>2026-04-26T09:09:18.725Z</time></trkpt><trkpt lat="33.4104348" lon="10.2889851"><ele>156.66666666666669</ele><time>2026-04-26T09:09:19.719Z</time></trkpt><trkpt lat="33.4103819" lon="10.2891849"><ele>157.0</ele><time>2026-04-26T09:09:20.723Z</time></trkpt><trkpt lat="33.4103305" lon="10.2893819"><ele>157.0</ele><time>2026-04-26T09:09:21.735Z</time></trkpt><trkpt lat="33.4102783" lon="10.2895835"><ele>157.0</ele><time>2026-04-26T09:09:22.733Z</time></trkpt><trkpt lat="33.4102311" lon="10.2897859"><ele>157.0</ele><time>2026-04-26T09:09:23.738Z</time></trkpt><trkpt lat="33.4101831" lon="10.2899844"><ele>156.66666666666669</ele><time>2026-04-26T09:09:24.72Z</time></trkpt><trkpt lat="33.4101346" lon="10.2901853"><ele>156.33333333333334</ele><time>2026-04-26T09:09:25.737Z</time></trkpt><trkpt lat="33.4100826" lon="10.2903879"><ele>156.0</ele><time>2026-04-26T09:09:26.727Z</time></trkpt><trkpt lat="33.4100271" lon="10.2905918"><ele>155.33333333333334</ele><time>2026-04-26T09:09:27.729Z</time></trkpt><trkpt lat="33.4099761" lon="10.2907903"><ele>154.66666666666669</ele><time>2026-04-26T09:09:28.732Z</time></trkpt><trkpt lat="33.4099258" lon="10.2909889"><ele>154.0</ele><time>2026-04-26T09:09:29.729Z</time></trkpt><trkpt lat="33.409869" lon="10.2911933"><ele>154.0</ele><time>2026-04-26T09:09:30.724Z</time></trkpt><trkpt lat="33.4098167" lon="10.2913985"><ele>154.0</ele><time>2026-04-26T09:09:31.729Z</time></trkpt><trkpt lat="33.4097682" lon="10.291601"><ele>154.0</ele><time>2026-04-26T09:09:32.719Z</time></trkpt><trkpt lat="33.4097178" lon="10.2918045"><ele>153.66666666666669</ele><time>2026-04-26T09:09:33.731Z</time></trkpt><trkpt lat="33.4096687" lon="10.2920073"><ele>153.33333333333334</ele><time>2026-04-26T09:09:34.72Z</time></trkpt><trkpt lat="33.4096204" lon="10.2922123"><ele>153.0</ele><time>2026-04-26T09:09:35.735Z</time></trkpt><trkpt lat="33.4095716" lon="10.292413"><ele>152.66666666666666</ele><time>2026-04-26T09:09:36.722Z</time></trkpt><trkpt lat="33.4095225" lon="10.2926178"><ele>152.33333333333331</ele><time>2026-04-26T09:09:37.731Z</time></trkpt><trkpt lat="33.4094711" lon="10.2928241"><ele>152.0</ele><time>2026-04-26T09:09:38.722Z</time></trkpt><trkpt lat="33.4094149" lon="10.2930255"><ele>152.33333333333331</ele><time>2026-04-26T09:09:39.74Z</time></trkpt><trkpt lat="33.4093624" lon="10.2932278"><ele>152.66666666666666</ele><time>2026-04-26T09:09:40.737Z</time></trkpt><trkpt lat="33.4093087" lon="10.29343"><ele>153.0</ele><time>2026-04-26T09:09:41.732Z</time></trkpt><trkpt lat="33.4092559" lon="10.293634"><ele>153.0</ele><time>2026-04-26T09:09:42.732Z</time></trkpt><trkpt lat="33.4092066" lon="10.2938416"><ele>153.0</ele><time>2026-04-26T09:09:43.729Z</time></trkpt><trkpt lat="33.4091542" lon="10.2940481"><ele>153.0</ele><time>2026-04-26T09:09:44.72Z</time></trkpt><trkpt lat="33.4090976" lon="10.2942579"><ele>153.0</ele><time>2026-04-26T09:09:45.723Z</time></trkpt><trkpt lat="33.4090443" lon="10.2944636"><ele>153.0</ele><time>2026-04-26T09:09:46.729Z</time></trkpt><trkpt lat="33.4089929" lon="10.2946696"><ele>153.0</ele><time>2026-04-26T09:09:47.722Z</time></trkpt><trkpt lat="33.4089441" lon="10.2948752"><ele>152.33333333333334</ele><time>2026-04-26T09:09:48.722Z</time></trkpt><trkpt lat="33.4088918" lon="10.2950836"><ele>151.66666666666669</ele><time>2026-04-26T09:09:49.731Z</time></trkpt><trkpt lat="33.4088379" lon="10.2952872"><ele>151.0</ele><time>2026-04-26T09:09:50.744Z</time></trkpt><trkpt lat="33.4087851" lon="10.2954897"><ele>151.0</ele><time>2026-04-26T09:09:51.729Z</time></trkpt><trkpt lat="33.4087338" lon="10.2956892"><ele>151.0</ele><time>2026-04-26T09:09:52.73Z</time></trkpt><trkpt lat="33.4086848" lon="10.2958814"><ele>151.0</ele><time>2026-04-26T09:09:53.738Z</time></trkpt><trkpt lat="33.4086309" lon="10.2960743"><ele>151.0</ele><time>2026-04-26T09:09:54.722Z</time></trkpt><trkpt lat="33.4085825" lon="10.2962656"><ele>151.0</ele><time>2026-04-26T09:09:55.722Z</time></trkpt><trkpt lat="33.4085365" lon="10.2964587"><ele>151.0</ele><time>2026-04-26T09:09:56.704Z</time></trkpt><trkpt lat="33.40849" lon="10.2966438"><ele>150.0</ele><time>2026-04-26T09:09:57.726Z</time></trkpt><trkpt lat="33.4084452" lon="10.2968223"><ele>149.0</ele><time>2026-04-26T09:09:58.748Z</time></trkpt><trkpt lat="33.4084006" lon="10.2970033"><ele>148.0</ele><time>2026-04-26T09:09:59.74Z</time></trkpt><trkpt lat="33.4083521" lon="10.2971834"><ele>148.0</ele><time>2026-04-26T09:10:00.724Z</time></trkpt><trkpt lat="33.4083051" lon="10.2973537"><ele>148.0</ele><time>2026-04-26T09:10:01.729Z</time></trkpt><trkpt lat="33.4082596" lon="10.2975225"><ele>148.0</ele><time>2026-04-26T09:10:02.734Z</time></trkpt><trkpt lat="33.408216" lon="10.2976992"><ele>148.0</ele><time>2026-04-26T09:10:03.729Z</time></trkpt><trkpt lat="33.4081708" lon="10.2978852"><ele>148.0</ele><time>2026-04-26T09:10:04.723Z</time></trkpt><trkpt lat="33.4081284" lon="10.2980673"><ele>148.0</ele><time>2026-04-26T09:10:05.716Z</time></trkpt><trkpt lat="33.4080844" lon="10.298246"><ele>148.66666666666669</ele><time>2026-04-26T09:10:06.733Z</time></trkpt><trkpt lat="33.4080353" lon="10.2984298"><ele>149.33333333333334</ele><time>2026-04-26T09:10:07.725Z</time></trkpt><trkpt lat="33.4079892" lon="10.2986137"><ele>150.0</ele><time>2026-04-26T09:10:08.729Z</time></trkpt><trkpt lat="33.4079435" lon="10.2987963"><ele>150.0</ele><time>2026-04-26T09:10:09.726Z</time></trkpt><trkpt lat="33.4078958" lon="10.2989821"><ele>150.0</ele><time>2026-04-26T09:10:10.732Z</time></trkpt><trkpt lat="33.4078523" lon="10.299164"><ele>150.0</ele><time>2026-04-26T09:10:11.734Z</time></trkpt><trkpt lat="33.4078026" lon="10.2993541"><ele>150.0</ele><time>2026-04-26T09:10:12.723Z</time></trkpt><trkpt lat="33.4077565" lon="10.2995416"><ele>150.0</ele><time>2026-04-26T09:10:13.735Z</time></trkpt><trkpt lat="33.4077114" lon="10.2997278"><ele>150.0</ele><time>2026-04-26T09:10:14.725Z</time></trkpt><trkpt lat="33.4076641" lon="10.2999166"><ele>150.0</ele><time>2026-04-26T09:10:15.723Z</time></trkpt><trkpt lat="33.407614" lon="10.3001031"><ele>150.0</ele><time>2026-04-26T09:10:16.735Z</time></trkpt><trkpt lat="33.4075639" lon="10.3002971"><ele>150.0</ele><time>2026-04-26T09:10:17.745Z</time></trkpt><trkpt lat="33.4075161" lon="10.3004857"><ele>149.33333333333334</ele><time>2026-04-26T09:10:18.729Z</time></trkpt><trkpt lat="33.407466" lon="10.3006755"><ele>148.66666666666669</ele><time>2026-04-26T09:10:19.746Z</time></trkpt><trkpt lat="33.4074164" lon="10.3008646"><ele>148.0</ele><time>2026-04-26T09:10:20.733Z</time></trkpt><trkpt lat="33.4073693" lon="10.3010564"><ele>148.0</ele><time>2026-04-26T09:10:21.728Z</time></trkpt><trkpt lat="33.4073242" lon="10.3012441"><ele>148.0</ele><time>2026-04-26T09:10:22.728Z</time></trkpt><trkpt lat="33.407281" lon="10.301434"><ele>148.0</ele><time>2026-04-26T09:10:23.741Z</time></trkpt><trkpt lat="33.4072366" lon="10.3016235"><ele>148.33333333333334</ele><time>2026-04-26T09:10:24.732Z</time></trkpt><trkpt lat="33.4071887" lon="10.3018121"><ele>148.66666666666666</ele><time>2026-04-26T09:10:25.736Z</time></trkpt><trkpt lat="33.407139" lon="10.3019939"><ele>149.0</ele><time>2026-04-26T09:10:26.744Z</time></trkpt><trkpt lat="33.4070931" lon="10.3021797"><ele>148.66666666666666</ele><time>2026-04-26T09:10:27.734Z</time></trkpt><trkpt lat="33.4070459" lon="10.3023657"><ele>148.33333333333334</ele><time>2026-04-26T09:10:28.74Z</time></trkpt><trkpt lat="33.4069983" lon="10.3025485"><ele>148.0</ele><time>2026-04-26T09:10:29.733Z</time></trkpt><trkpt lat="33.4069513" lon="10.3027343"><ele>148.0</ele><time>2026-04-26T09:10:30.728Z</time></trkpt><trkpt lat="33.406908" lon="10.3029254"><ele>148.0</ele><time>2026-04-26T09:10:31.725Z</time></trkpt><trkpt lat="33.4068621" lon="10.3031094"><ele>148.0</ele><time>2026-04-26T09:10:32.732Z</time></trkpt><trkpt lat="33.406814" lon="10.3032951"><ele>147.66666666666669</ele><time>2026-04-26T09:10:33.729Z</time></trkpt><trkpt lat="33.4067596" lon="10.3034733"><ele>147.33333333333334</ele><time>2026-04-26T09:10:34.731Z</time></trkpt><trkpt lat="33.4066949" lon="10.3036438"><ele>147.0</ele><time>2026-04-26T09:10:35.742Z</time></trkpt><trkpt lat="33.4066101" lon="10.3038053"><ele>146.66666666666666</ele><time>2026-04-26T09:10:36.74Z</time></trkpt><trkpt lat="33.4065058" lon="10.3039534"><ele>146.33333333333331</ele><time>2026-04-26T09:10:37.723Z</time></trkpt><trkpt lat="33.4063935" lon="10.304093"><ele>146.0</ele><time>2026-04-26T09:10:38.722Z</time></trkpt><trkpt lat="33.406272" lon="10.3042381"><ele>144.66666666666666</ele><time>2026-04-26T09:10:39.71Z</time></trkpt><trkpt lat="33.4061559" lon="10.3043889"><ele>143.33333333333334</ele><time>2026-04-26T09:10:40.732Z</time></trkpt><trkpt lat="33.4060391" lon="10.3045371"><ele>142.0</ele><time>2026-04-26T09:10:41.731Z</time></trkpt><trkpt lat="33.4059156" lon="10.3046802"><ele>141.66666666666669</ele><time>2026-04-26T09:10:42.729Z</time></trkpt><trkpt lat="33.4057974" lon="10.3048217"><ele>141.33333333333334</ele><time>2026-04-26T09:10:43.74Z</time></trkpt><trkpt lat="33.4056799" lon="10.3049641"><ele>141.0</ele><time>2026-04-26T09:10:44.743Z</time></trkpt><trkpt lat="33.4055636" lon="10.3051095"><ele>141.0</ele><time>2026-04-26T09:10:45.747Z</time></trkpt><trkpt lat="33.4054464" lon="10.3052547"><ele>141.0</ele><time>2026-04-26T09:10:46.733Z</time></trkpt><trkpt lat="33.4053276" lon="10.3054034"><ele>141.0</ele><time>2026-04-26T09:10:47.725Z</time></trkpt><trkpt lat="33.4052114" lon="10.3055518"><ele>142.33333333333334</ele><time>2026-04-26T09:10:48.738Z</time></trkpt><trkpt lat="33.4050914" lon="10.3056994"><ele>143.66666666666669</ele><time>2026-04-26T09:10:49.723Z</time></trkpt><trkpt lat="33.4049734" lon="10.3058435"><ele>145.0</ele><time>2026-04-26T09:10:50.731Z</time></trkpt><trkpt lat="33.4048553" lon="10.3059902"><ele>145.0</ele><time>2026-04-26T09:10:51.725Z</time></trkpt><trkpt lat="33.4047399" lon="10.306135"><ele>145.0</ele><time>2026-04-26T09:10:52.758Z</time></trkpt><trkpt lat="33.4046225" lon="10.3062765"><ele>145.0</ele><time>2026-04-26T09:10:53.744Z</time></trkpt><trkpt lat="33.4045048" lon="10.3064178"><ele>143.33333333333334</ele><time>2026-04-26T09:10:54.73Z</time></trkpt><trkpt lat="33.4043861" lon="10.3065611"><ele>141.66666666666666</ele><time>2026-04-26T09:10:55.727Z</time></trkpt><trkpt lat="33.4042685" lon="10.3066977"><ele>140.0</ele><time>2026-04-26T09:10:56.748Z</time></trkpt><trkpt lat="33.4041363" lon="10.306837"><ele>140.0</ele><time>2026-04-26T09:10:57.734Z</time></trkpt><trkpt lat="33.4040225" lon="10.3069678"><ele>140.0</ele><time>2026-04-26T09:10:58.725Z</time></trkpt><trkpt lat="33.4039084" lon="10.3070983"><ele>140.0</ele><time>2026-04-26T09:10:59.737Z</time></trkpt><trkpt lat="33.4037959" lon="10.30723"><ele>141.66666666666666</ele><time>2026-04-26T09:11:00.721Z</time></trkpt><trkpt lat="33.4036835" lon="10.307364"><ele>143.33333333333334</ele><time>2026-04-26T09:11:01.741Z</time></trkpt><trkpt lat="33.4035746" lon="10.3075028"><ele>145.0</ele><time>2026-04-26T09:11:02.731Z</time></trkpt><trkpt lat="33.4034691" lon="10.3076436"><ele>145.0</ele><time>2026-04-26T09:11:03.728Z</time></trkpt><trkpt lat="33.4033691" lon="10.307792"><ele>145.0</ele><time>2026-04-26T09:11:04.717Z</time></trkpt><trkpt lat="33.4032809" lon="10.30795"><ele>145.0</ele><time>2026-04-26T09:11:05.716Z</time></trkpt><trkpt lat="33.4032034" lon="10.3081175"><ele>145.33333333333334</ele><time>2026-04-26T09:11:06.721Z</time></trkpt><trkpt lat="33.4031325" lon="10.3082937"><ele>145.66666666666666</ele><time>2026-04-26T09:11:07.731Z</time></trkpt><trkpt lat="33.4030643" lon="10.3084746"><ele>146.0</ele><time>2026-04-26T09:11:08.733Z</time></trkpt><trkpt lat="33.402994" lon="10.3086591"><ele>146.0</ele><time>2026-04-26T09:11:09.722Z</time></trkpt><trkpt lat="33.4029268" lon="10.3088421"><ele>146.0</ele><time>2026-04-26T09:11:10.734Z</time></trkpt><trkpt lat="33.4028603" lon="10.3090268"><ele>146.0</ele><time>2026-04-26T09:11:11.729Z</time></trkpt><trkpt lat="33.4027925" lon="10.309213"><ele>146.33333333333331</ele><time>2026-04-26T09:11:12.741Z</time></trkpt><trkpt lat="33.4027261" lon="10.3093982"><ele>146.66666666666666</ele><time>2026-04-26T09:11:13.739Z</time></trkpt><trkpt lat="33.4026579" lon="10.3095841"><ele>147.0</ele><time>2026-04-26T09:11:14.73Z</time></trkpt><trkpt lat="33.402587" lon="10.3097676"><ele>147.66666666666666</ele><time>2026-04-26T09:11:15.717Z</time></trkpt><trkpt lat="33.4025172" lon="10.3099528"><ele>148.33333333333331</ele><time>2026-04-26T09:11:16.736Z</time></trkpt><trkpt lat="33.4024472" lon="10.3101384"><ele>149.0</ele><time>2026-04-26T09:11:17.741Z</time></trkpt><trkpt lat="33.4023747" lon="10.3103243"><ele>149.0</ele><time>2026-04-26T09:11:18.729Z</time></trkpt><trkpt lat="33.4023016" lon="10.3105114"><ele>149.0</ele><time>2026-04-26T09:11:19.734Z</time></trkpt><trkpt lat="33.4022288" lon="10.310699"><ele>149.0</ele><time>2026-04-26T09:11:20.72Z</time></trkpt><trkpt lat="33.4021579" lon="10.3108864"><ele>146.66666666666666</ele><time>2026-04-26T09:11:21.726Z</time></trkpt><trkpt lat="33.4020879" lon="10.3110757"><ele>144.33333333333334</ele><time>2026-04-26T09:11:22.735Z</time></trkpt><trkpt lat="33.4020184" lon="10.311261"><ele>142.0</ele><time>2026-04-26T09:11:23.738Z</time></trkpt><trkpt lat="33.4019468" lon="10.311449"><ele>142.0</ele><time>2026-04-26T09:11:24.728Z</time></trkpt><trkpt lat="33.4018751" lon="10.3116345"><ele>142.0</ele><time>2026-04-26T09:11:25.734Z</time></trkpt><trkpt lat="33.4018044" lon="10.3118227"><ele>142.0</ele><time>2026-04-26T09:11:26.73Z</time></trkpt><trkpt lat="33.4017338" lon="10.3120048"><ele>142.0</ele><time>2026-04-26T09:11:27.723Z</time></trkpt><trkpt lat="33.4016636" lon="10.3121904"><ele>142.0</ele><time>2026-04-26T09:11:28.732Z</time></trkpt><trkpt lat="33.4015929" lon="10.3123721"><ele>142.0</ele><time>2026-04-26T09:11:29.731Z</time></trkpt><trkpt lat="33.4015244" lon="10.3125574"><ele>142.66666666666669</ele><time>2026-04-26T09:11:30.736Z</time></trkpt><trkpt lat="33.4014542" lon="10.3127367"><ele>143.33333333333334</ele><time>2026-04-26T09:11:31.733Z</time></trkpt><trkpt lat="33.4013841" lon="10.3129171"><ele>144.0</ele><time>2026-04-26T09:11:32.737Z</time></trkpt><trkpt lat="33.4013142" lon="10.3130967"><ele>144.33333333333334</ele><time>2026-04-26T09:11:33.732Z</time></trkpt><trkpt lat="33.4012455" lon="10.313277"><ele>144.66666666666669</ele><time>2026-04-26T09:11:34.726Z</time></trkpt><trkpt lat="33.4011784" lon="10.3134569"><ele>145.0</ele><time>2026-04-26T09:11:35.718Z</time></trkpt><trkpt lat="33.4011115" lon="10.3136341"><ele>145.0</ele><time>2026-04-26T09:11:36.767Z</time></trkpt><trkpt lat="33.4010434" lon="10.3138116"><ele>145.0</ele><time>2026-04-26T09:11:37.771Z</time></trkpt><trkpt lat="33.4009754" lon="10.313989"><ele>145.0</ele><time>2026-04-26T09:11:38.749Z</time></trkpt><trkpt lat="33.4009084" lon="10.3141696"><ele>144.33333333333334</ele><time>2026-04-26T09:11:39.724Z</time></trkpt><trkpt lat="33.4008411" lon="10.3143505"><ele>143.66666666666666</ele><time>2026-04-26T09:11:40.754Z</time></trkpt><trkpt lat="33.4007717" lon="10.3145338"><ele>143.0</ele><time>2026-04-26T09:11:41.732Z</time></trkpt><trkpt lat="33.4007022" lon="10.3147173"><ele>143.0</ele><time>2026-04-26T09:11:42.727Z</time></trkpt><trkpt lat="33.4006312" lon="10.3149019"><ele>143.0</ele><time>2026-04-26T09:11:43.731Z</time></trkpt><trkpt lat="33.4005577" lon="10.3150817"><ele>143.0</ele><time>2026-04-26T09:11:44.729Z</time></trkpt><trkpt lat="33.4004857" lon="10.3152637"><ele>143.0</ele><time>2026-04-26T09:11:45.717Z</time></trkpt><trkpt lat="33.4004167" lon="10.3154481"><ele>143.0</ele><time>2026-04-26T09:11:46.726Z</time></trkpt><trkpt lat="33.4003465" lon="10.3156327"><ele>143.0</ele><time>2026-04-26T09:11:47.728Z</time></trkpt><trkpt lat="33.4002774" lon="10.3158181"><ele>143.0</ele><time>2026-04-26T09:11:48.721Z</time></trkpt><trkpt lat="33.4002067" lon="10.3160018"><ele>143.0</ele><time>2026-04-26T09:11:49.731Z</time></trkpt><trkpt lat="33.4001352" lon="10.3161863"><ele>143.0</ele><time>2026-04-26T09:11:50.742Z</time></trkpt><trkpt lat="33.4000645" lon="10.3163697"><ele>142.33333333333331</ele><time>2026-04-26T09:11:51.739Z</time></trkpt><trkpt lat="33.3999937" lon="10.3165505"><ele>141.66666666666666</ele><time>2026-04-26T09:11:52.731Z</time></trkpt><trkpt lat="33.3999229" lon="10.3167314"><ele>141.0</ele><time>2026-04-26T09:11:53.743Z</time></trkpt><trkpt lat="33.3998524" lon="10.3169112"><ele>141.0</ele><time>2026-04-26T09:11:54.728Z</time></trkpt><trkpt lat="33.3997827" lon="10.3170905"><ele>141.0</ele><time>2026-04-26T09:11:55.737Z</time></trkpt><trkpt lat="33.3997139" lon="10.3172681"><ele>141.0</ele><time>2026-04-26T09:11:56.724Z</time></trkpt><trkpt lat="33.3996458" lon="10.3174461"><ele>140.66666666666666</ele><time>2026-04-26T09:11:57.735Z</time></trkpt><trkpt lat="33.3995774" lon="10.3176237"><ele>140.33333333333331</ele><time>2026-04-26T09:11:58.734Z</time></trkpt><trkpt lat="33.3995089" lon="10.3178028"><ele>140.0</ele><time>2026-04-26T09:11:59.754Z</time></trkpt><trkpt lat="33.3994399" lon="10.3179833"><ele>139.66666666666666</ele><time>2026-04-26T09:12:00.749Z</time></trkpt><trkpt lat="33.399372" lon="10.3181607"><ele>139.33333333333334</ele><time>2026-04-26T09:12:01.741Z</time></trkpt><trkpt lat="33.3993024" lon="10.3183363"><ele>139.0</ele><time>2026-04-26T09:12:02.736Z</time></trkpt><trkpt lat="33.3992462" lon="10.3185086"><ele>139.0</ele><time>2026-04-26T09:12:03.675Z</time></trkpt><trkpt lat="33.399181" lon="10.3186856"><ele>139.0</ele><time>2026-04-26T09:12:04.681Z</time></trkpt><trkpt lat="33.3991152" lon="10.3188602"><ele>139.0</ele><time>2026-04-26T09:12:05.689Z</time></trkpt><trkpt lat="33.3990499" lon="10.3190363"><ele>140.0</ele><time>2026-04-26T09:12:06.677Z</time></trkpt><trkpt lat="33.3989819" lon="10.3192173"><ele>141.0</ele><time>2026-04-26T09:12:07.669Z</time></trkpt><trkpt lat="33.3989123" lon="10.3193965"><ele>142.0</ele><time>2026-04-26T09:12:08.666Z</time></trkpt><trkpt lat="33.3988429" lon="10.3195761"><ele>142.33333333333334</ele><time>2026-04-26T09:12:09.706Z</time></trkpt><trkpt lat="33.3987741" lon="10.3197569"><ele>142.66666666666666</ele><time>2026-04-26T09:12:10.676Z</time></trkpt><trkpt lat="33.3987076" lon="10.319938"><ele>143.0</ele><time>2026-04-26T09:12:11.672Z</time></trkpt><trkpt lat="33.3986364" lon="10.3201178"><ele>143.0</ele><time>2026-04-26T09:12:12.679Z</time></trkpt><trkpt lat="33.3985686" lon="10.3202929"><ele>143.0</ele><time>2026-04-26T09:12:13.68Z</time></trkpt><trkpt lat="33.3984955" lon="10.320479"><ele>143.0</ele><time>2026-04-26T09:12:14.691Z</time></trkpt><trkpt lat="33.3984247" lon="10.320662"><ele>142.33333333333331</ele><time>2026-04-26T09:12:15.684Z</time></trkpt><trkpt lat="33.3983606" lon="10.3208443"><ele>141.66666666666666</ele><time>2026-04-26T09:12:16.673Z</time></trkpt><trkpt lat="33.3982945" lon="10.3210264"><ele>141.0</ele><time>2026-04-26T09:12:17.688Z</time></trkpt><trkpt lat="33.3982279" lon="10.3212035"><ele>141.0</ele><time>2026-04-26T09:12:18.681Z</time></trkpt><trkpt lat="33.3981637" lon="10.3213804"><ele>141.0</ele><time>2026-04-26T09:12:19.674Z</time></trkpt><trkpt lat="33.3980912" lon="10.3215508"><ele>141.0</ele><time>2026-04-26T09:12:20.685Z</time></trkpt><trkpt lat="33.3980217" lon="10.3217296"><ele>142.66666666666666</ele><time>2026-04-26T09:12:21.678Z</time></trkpt><trkpt lat="33.3979553" lon="10.3219072"><ele>144.33333333333331</ele><time>2026-04-26T09:12:22.682Z</time></trkpt><trkpt lat="33.3978887" lon="10.3220833"><ele>146.0</ele><time>2026-04-26T09:12:23.679Z</time></trkpt><trkpt lat="33.3978201" lon="10.3222636"><ele>146.0</ele><time>2026-04-26T09:12:24.676Z</time></trkpt><trkpt lat="33.397758" lon="10.3224454"><ele>146.0</ele><time>2026-04-26T09:12:25.688Z</time></trkpt><trkpt lat="33.3976952" lon="10.3226381"><ele>146.0</ele><time>2026-04-26T09:12:26.68Z</time></trkpt><trkpt lat="33.3976385" lon="10.3228299"><ele>146.0</ele><time>2026-04-26T09:12:27.686Z</time></trkpt><trkpt lat="33.3975808" lon="10.3230209"><ele>146.0</ele><time>2026-04-26T09:12:28.677Z</time></trkpt><trkpt lat="33.3975238" lon="10.3232082"><ele>146.0</ele><time>2026-04-26T09:12:29.673Z</time></trkpt><trkpt lat="33.3974595" lon="10.3233977"><ele>146.0</ele><time>2026-04-26T09:12:30.676Z</time></trkpt><trkpt lat="33.3973999" lon="10.3235924"><ele>146.0</ele><time>2026-04-26T09:12:31.683Z</time></trkpt><trkpt lat="33.3973409" lon="10.3237854"><ele>146.0</ele><time>2026-04-26T09:12:32.699Z</time></trkpt><trkpt lat="33.3972793" lon="10.323979"><ele>145.66666666666666</ele><time>2026-04-26T09:12:33.673Z</time></trkpt><trkpt lat="33.3972203" lon="10.3241693"><ele>145.33333333333334</ele><time>2026-04-26T09:12:34.678Z</time></trkpt><trkpt lat="33.3971617" lon="10.3243615"><ele>145.0</ele><time>2026-04-26T09:12:35.674Z</time></trkpt><trkpt lat="33.3970952" lon="10.3245486"><ele>145.0</ele><time>2026-04-26T09:12:36.679Z</time></trkpt><trkpt lat="33.3970331" lon="10.3247373"><ele>145.0</ele><time>2026-04-26T09:12:37.68Z</time></trkpt><trkpt lat="33.3969817" lon="10.3249199"><ele>145.0</ele><time>2026-04-26T09:12:38.684Z</time></trkpt><trkpt lat="33.3969225" lon="10.3251017"><ele>145.0</ele><time>2026-04-26T09:12:39.672Z</time></trkpt><trkpt lat="33.3968578" lon="10.3252864"><ele>145.0</ele><time>2026-04-26T09:12:40.679Z</time></trkpt><trkpt lat="33.3967972" lon="10.3254701"><ele>145.0</ele><time>2026-04-26T09:12:41.684Z</time></trkpt><trkpt lat="33.3967399" lon="10.3256513"><ele>145.33333333333334</ele><time>2026-04-26T09:12:42.685Z</time></trkpt><trkpt lat="33.3966814" lon="10.3258337"><ele>145.66666666666666</ele><time>2026-04-26T09:12:43.687Z</time></trkpt><trkpt lat="33.3966264" lon="10.3260125"><ele>146.0</ele><time>2026-04-26T09:12:44.676Z</time></trkpt><trkpt lat="33.3965684" lon="10.3261968"><ele>146.0</ele><time>2026-04-26T09:12:45.686Z</time></trkpt><trkpt lat="33.3965118" lon="10.3263725"><ele>146.0</ele><time>2026-04-26T09:12:46.694Z</time></trkpt><trkpt lat="33.396459" lon="10.3265392"><ele>146.0</ele><time>2026-04-26T09:12:47.68Z</time></trkpt><trkpt lat="33.3964114" lon="10.3266991"><ele>146.0</ele><time>2026-04-26T09:12:48.683Z</time></trkpt><trkpt lat="33.3963668" lon="10.3268391"><ele>146.0</ele><time>2026-04-26T09:12:49.675Z</time></trkpt><trkpt lat="33.396334" lon="10.3269505"><ele>146.0</ele><time>2026-04-26T09:12:50.678Z</time></trkpt><trkpt lat="33.3963055" lon="10.3270453"><ele>146.0</ele><time>2026-04-26T09:12:51.675Z</time></trkpt><trkpt lat="33.3962738" lon="10.3271255"><ele>146.0</ele><time>2026-04-26T09:12:52.673Z</time></trkpt><trkpt lat="33.3962533" lon="10.3271978"><ele>146.0</ele><time>2026-04-26T09:12:53.691Z</time></trkpt><trkpt lat="33.3962044" lon="10.3273529"><ele>146.0</ele><time>2026-04-26T09:12:55.683Z</time></trkpt><trkpt lat="33.3961753" lon="10.3274541"><ele>146.0</ele><time>2026-04-26T09:12:56.673Z</time></trkpt><trkpt lat="33.3961452" lon="10.3275581"><ele>146.0</ele><time>2026-04-26T09:12:57.669Z</time></trkpt><trkpt lat="33.3961057" lon="10.3276608"><ele>146.0</ele><time>2026-04-26T09:12:58.669Z</time></trkpt><trkpt lat="33.3960653" lon="10.3277602"><ele>146.0</ele><time>2026-04-26T09:12:59.678Z</time></trkpt><trkpt lat="33.3960228" lon="10.3278558"><ele>146.0</ele><time>2026-04-26T09:13:00.675Z</time></trkpt><trkpt lat="33.3959859" lon="10.3279539"><ele>146.0</ele><time>2026-04-26T09:13:01.664Z</time></trkpt><trkpt lat="33.3959563" lon="10.3280494"><ele>146.0</ele><time>2026-04-26T09:13:02.695Z</time></trkpt><trkpt lat="33.3959359" lon="10.3281551"><ele>146.0</ele><time>2026-04-26T09:13:03.689Z</time></trkpt><trkpt lat="33.3959094" lon="10.3282903"><ele>146.0</ele><time>2026-04-26T09:13:04.67Z</time></trkpt><trkpt lat="33.395871" lon="10.3284389"><ele>145.25</ele><time>2026-04-26T09:13:05.658Z</time></trkpt><trkpt lat="33.3958317" lon="10.3285725"><ele>144.5</ele><time>2026-04-26T09:13:06.668Z</time></trkpt><trkpt lat="33.3957818" lon="10.3287076"><ele>143.75</ele><time>2026-04-26T09:13:07.667Z</time></trkpt><trkpt lat="33.3957355" lon="10.3288366"><ele>143.0</ele><time>2026-04-26T09:13:08.659Z</time></trkpt><trkpt lat="33.3956911" lon="10.3289592"><ele>142.66666666666666</ele><time>2026-04-26T09:13:09.671Z</time></trkpt><trkpt lat="33.3956574" lon="10.3290719"><ele>142.33333333333331</ele><time>2026-04-26T09:13:10.674Z</time></trkpt><trkpt lat="33.3956283" lon="10.3291758"><ele>142.0</ele><time>2026-04-26T09:13:11.671Z</time></trkpt><trkpt lat="33.3956012" lon="10.3292568"><ele>141.66666666666666</ele><time>2026-04-26T09:13:12.668Z</time></trkpt><trkpt lat="33.3955779" lon="10.32933"><ele>141.33333333333334</ele><time>2026-04-26T09:13:13.683Z</time></trkpt><trkpt lat="33.3955404" lon="10.3294402"><ele>141.0</ele><time>2026-04-26T09:13:15.667Z</time></trkpt><trkpt lat="33.3955092" lon="10.3295149"><ele>141.0</ele><time>2026-04-26T09:13:18.69Z</time></trkpt><trkpt lat="33.3955845" lon="10.3294452"><ele>141.0</ele><time>2026-04-26T09:13:28.678Z</time></trkpt><trkpt lat="33.3956118" lon="10.3293535"><ele>141.0</ele><time>2026-04-26T09:13:29.695Z</time></trkpt><trkpt lat="33.3956401" lon="10.3292555"><ele>141.0</ele><time>2026-04-26T09:13:30.676Z</time></trkpt><trkpt lat="33.3956794" lon="10.3291448"><ele>141.0</ele><time>2026-04-26T09:13:31.666Z</time></trkpt><trkpt lat="33.3957127" lon="10.329032"><ele>141.0</ele><time>2026-04-26T09:13:32.682Z</time></trkpt><trkpt lat="33.3957516" lon="10.328913"><ele>141.0</ele><time>2026-04-26T09:13:33.678Z</time></trkpt><trkpt lat="33.3957921" lon="10.3287888"><ele>141.0</ele><time>2026-04-26T09:13:34.678Z</time></trkpt><trkpt lat="33.3958281" lon="10.3286686"><ele>141.0</ele><time>2026-04-26T09:13:35.675Z</time></trkpt><trkpt lat="33.395864" lon="10.3285547"><ele>141.0</ele><time>2026-04-26T09:13:36.672Z</time></trkpt><trkpt lat="33.3958943" lon="10.3284555"><ele>141.33333333333334</ele><time>2026-04-26T09:13:37.657Z</time></trkpt><trkpt lat="33.3959221" lon="10.3283571"><ele>141.66666666666666</ele><time>2026-04-26T09:13:38.672Z</time></trkpt><trkpt lat="33.3959223" lon="10.328264"><ele>142.0</ele><time>2026-04-26T09:13:39.673Z</time></trkpt><trkpt lat="33.395906" lon="10.3281736"><ele>142.33333333333331</ele><time>2026-04-26T09:13:40.689Z</time></trkpt><trkpt lat="33.3958648" lon="10.3280923"><ele>142.66666666666666</ele><time>2026-04-26T09:13:41.684Z</time></trkpt><trkpt lat="33.3958161" lon="10.3280087"><ele>143.0</ele><time>2026-04-26T09:13:42.683Z</time></trkpt><trkpt lat="33.3957508" lon="10.3279268"><ele>143.4</ele><time>2026-04-26T09:13:43.668Z</time></trkpt><trkpt lat="33.395682" lon="10.3278461"><ele>143.8</ele><time>2026-04-26T09:13:44.683Z</time></trkpt><trkpt lat="33.3956111" lon="10.3277564"><ele>144.2</ele><time>2026-04-26T09:13:45.685Z</time></trkpt><trkpt lat="33.3955376" lon="10.3276613"><ele>144.6</ele><time>2026-04-26T09:13:46.668Z</time></trkpt><trkpt lat="33.3954703" lon="10.3275596"><ele>145.0</ele><time>2026-04-26T09:13:47.685Z</time></trkpt><trkpt lat="33.3954043" lon="10.3274635"><ele>145.0</ele><time>2026-04-26T09:13:48.671Z</time></trkpt><trkpt lat="33.3953372" lon="10.3273672"><ele>145.0</ele><time>2026-04-26T09:13:49.671Z</time></trkpt><trkpt lat="33.3952673" lon="10.3272716"><ele>145.0</ele><time>2026-04-26T09:13:50.675Z</time></trkpt><trkpt lat="33.3951975" lon="10.3271659"><ele>145.0</ele><time>2026-04-26T09:13:51.684Z</time></trkpt><trkpt lat="33.3951189" lon="10.3270579"><ele>145.0</ele><time>2026-04-26T09:13:52.675Z</time></trkpt><trkpt lat="33.3950402" lon="10.3269394"><ele>145.5</ele><time>2026-04-26T09:13:53.673Z</time></trkpt><trkpt lat="33.3949609" lon="10.3268254"><ele>146.0</ele><time>2026-04-26T09:13:54.678Z</time></trkpt><trkpt lat="33.3948808" lon="10.3267116"><ele>146.5</ele><time>2026-04-26T09:13:55.676Z</time></trkpt><trkpt lat="33.3947937" lon="10.3265911"><ele>147.0</ele><time>2026-04-26T09:13:56.672Z</time></trkpt><trkpt lat="33.3947118" lon="10.3264678"><ele>146.25</ele><time>2026-04-26T09:13:57.676Z</time></trkpt><trkpt lat="33.3946232" lon="10.3263493"><ele>145.5</ele><time>2026-04-26T09:13:58.677Z</time></trkpt><trkpt lat="33.3945299" lon="10.3262293"><ele>144.75</ele><time>2026-04-26T09:13:59.688Z</time></trkpt><trkpt lat="33.3944301" lon="10.3260981"><ele>144.0</ele><time>2026-04-26T09:14:00.67Z</time></trkpt><trkpt lat="33.3943231" lon="10.3259631"><ele>144.0</ele><time>2026-04-26T09:14:01.673Z</time></trkpt><trkpt lat="33.3942164" lon="10.3258209"><ele>144.0</ele><time>2026-04-26T09:14:02.684Z</time></trkpt><trkpt lat="33.3941073" lon="10.3256746"><ele>144.0</ele><time>2026-04-26T09:14:03.674Z</time></trkpt><trkpt lat="33.3940022" lon="10.3255206"><ele>144.0</ele><time>2026-04-26T09:14:04.672Z</time></trkpt><trkpt lat="33.3938996" lon="10.3253724"><ele>144.0</ele><time>2026-04-26T09:14:05.696Z</time></trkpt><trkpt lat="33.3937963" lon="10.325226"><ele>144.0</ele><time>2026-04-26T09:14:06.666Z</time></trkpt><trkpt lat="33.3936891" lon="10.3250755"><ele>144.0</ele><time>2026-04-26T09:14:07.667Z</time></trkpt><trkpt lat="33.3935846" lon="10.3249265"><ele>144.0</ele><time>2026-04-26T09:14:08.675Z</time></trkpt><trkpt lat="33.3934804" lon="10.32478"><ele>144.0</ele><time>2026-04-26T09:14:09.665Z</time></trkpt><trkpt lat="33.3933769" lon="10.3246384"><ele>143.66666666666666</ele><time>2026-04-26T09:14:10.663Z</time></trkpt><trkpt lat="33.3932746" lon="10.3244946"><ele>143.33333333333331</ele><time>2026-04-26T09:14:11.675Z</time></trkpt><trkpt lat="33.3931684" lon="10.3243486"><ele>143.0</ele><time>2026-04-26T09:14:12.673Z</time></trkpt><trkpt lat="33.3930595" lon="10.324204"><ele>143.0</ele><time>2026-04-26T09:14:13.738Z</time></trkpt><trkpt lat="33.3929535" lon="10.3240636"><ele>143.0</ele><time>2026-04-26T09:14:14.705Z</time></trkpt><trkpt lat="33.3928482" lon="10.3239157"><ele>143.0</ele><time>2026-04-26T09:14:15.688Z</time></trkpt><trkpt lat="33.3927389" lon="10.323772"><ele>143.0</ele><time>2026-04-26T09:14:16.67Z</time></trkpt><trkpt lat="33.3926282" lon="10.3236268"><ele>143.0</ele><time>2026-04-26T09:14:17.687Z</time></trkpt><trkpt lat="33.392523" lon="10.3234796"><ele>143.0</ele><time>2026-04-26T09:14:18.657Z</time></trkpt><trkpt lat="33.3924158" lon="10.3233365"><ele>143.0</ele><time>2026-04-26T09:14:19.662Z</time></trkpt><trkpt lat="33.392311" lon="10.3231922"><ele>143.0</ele><time>2026-04-26T09:14:20.689Z</time></trkpt><trkpt lat="33.3922127" lon="10.3230514"><ele>143.0</ele><time>2026-04-26T09:14:21.686Z</time></trkpt><trkpt lat="33.3921134" lon="10.3229147"><ele>143.0</ele><time>2026-04-26T09:14:22.661Z</time></trkpt><trkpt lat="33.3920106" lon="10.3227788"><ele>143.0</ele><time>2026-04-26T09:14:23.661Z</time></trkpt><trkpt lat="33.3919103" lon="10.3226463"><ele>143.0</ele><time>2026-04-26T09:14:24.685Z</time></trkpt><trkpt lat="33.3918079" lon="10.3225122"><ele>143.0</ele><time>2026-04-26T09:14:25.692Z</time></trkpt><trkpt lat="33.3917096" lon="10.3223716"><ele>143.0</ele><time>2026-04-26T09:14:26.658Z</time></trkpt><trkpt lat="33.3916125" lon="10.322231"><ele>143.0</ele><time>2026-04-26T09:14:27.692Z</time></trkpt><trkpt lat="33.3915197" lon="10.32209"><ele>143.33333333333331</ele><time>2026-04-26T09:14:28.664Z</time></trkpt><trkpt lat="33.3914173" lon="10.3219497"><ele>143.66666666666666</ele><time>2026-04-26T09:14:29.678Z</time></trkpt><trkpt lat="33.3913218" lon="10.3218054"><ele>144.0</ele><time>2026-04-26T09:14:30.683Z</time></trkpt><trkpt lat="33.3912218" lon="10.32166"><ele>144.33333333333334</ele><time>2026-04-26T09:14:31.671Z</time></trkpt><trkpt lat="33.3911227" lon="10.321522"><ele>144.66666666666669</ele><time>2026-04-26T09:14:32.683Z</time></trkpt><trkpt lat="33.3910214" lon="10.3213791"><ele>145.0</ele><time>2026-04-26T09:14:33.695Z</time></trkpt><trkpt lat="33.3909215" lon="10.3212367"><ele>144.33333333333334</ele><time>2026-04-26T09:14:34.684Z</time></trkpt><trkpt lat="33.3908166" lon="10.3211014"><ele>143.66666666666666</ele><time>2026-04-26T09:14:35.7Z</time></trkpt><trkpt lat="33.390715" lon="10.3209649"><ele>143.0</ele><time>2026-04-26T09:14:36.684Z</time></trkpt><trkpt lat="33.3906169" lon="10.320821"><ele>143.0</ele><time>2026-04-26T09:14:37.678Z</time></trkpt><trkpt lat="33.3905148" lon="10.3206784"><ele>143.0</ele><time>2026-04-26T09:14:38.676Z</time></trkpt><trkpt lat="33.3904146" lon="10.3205405"><ele>143.0</ele><time>2026-04-26T09:14:39.676Z</time></trkpt><trkpt lat="33.3903121" lon="10.3203977"><ele>143.33333333333331</ele><time>2026-04-26T09:14:40.669Z</time></trkpt><trkpt lat="33.3902086" lon="10.3202588"><ele>143.66666666666666</ele><time>2026-04-26T09:14:41.668Z</time></trkpt><trkpt lat="33.3901059" lon="10.3201192"><ele>144.0</ele><time>2026-04-26T09:14:42.676Z</time></trkpt><trkpt lat="33.390005" lon="10.3199801"><ele>144.0</ele><time>2026-04-26T09:14:43.674Z</time></trkpt><trkpt lat="33.3899064" lon="10.3198389"><ele>144.0</ele><time>2026-04-26T09:14:44.68Z</time></trkpt><trkpt lat="33.3898041" lon="10.3196985"><ele>144.0</ele><time>2026-04-26T09:14:45.679Z</time></trkpt><trkpt lat="33.3896983" lon="10.3195587"><ele>145.0</ele><time>2026-04-26T09:14:46.676Z</time></trkpt><trkpt lat="33.3895958" lon="10.3194184"><ele>146.0</ele><time>2026-04-26T09:14:47.679Z</time></trkpt><trkpt lat="33.3894904" lon="10.3192741"><ele>147.0</ele><time>2026-04-26T09:14:48.672Z</time></trkpt><trkpt lat="33.3893843" lon="10.319133"><ele>147.0</ele><time>2026-04-26T09:14:49.671Z</time></trkpt><trkpt lat="33.3892773" lon="10.3189864"><ele>147.0</ele><time>2026-04-26T09:14:50.684Z</time></trkpt><trkpt lat="33.3891763" lon="10.3188421"><ele>147.0</ele><time>2026-04-26T09:14:51.666Z</time></trkpt><trkpt lat="33.3890746" lon="10.3186931"><ele>147.0</ele><time>2026-04-26T09:14:52.682Z</time></trkpt><trkpt lat="33.3889696" lon="10.31854"><ele>147.0</ele><time>2026-04-26T09:14:53.667Z</time></trkpt><trkpt lat="33.3888624" lon="10.3183899"><ele>147.0</ele><time>2026-04-26T09:14:54.667Z</time></trkpt><trkpt lat="33.3887583" lon="10.3182385"><ele>147.0</ele><time>2026-04-26T09:14:55.68Z</time></trkpt><trkpt lat="33.3886532" lon="10.3180897"><ele>147.0</ele><time>2026-04-26T09:14:56.682Z</time></trkpt><trkpt lat="33.388545" lon="10.3179464"><ele>147.0</ele><time>2026-04-26T09:14:57.676Z</time></trkpt><trkpt lat="33.3884361" lon="10.317798"><ele>147.0</ele><time>2026-04-26T09:14:58.671Z</time></trkpt><trkpt lat="33.3883292" lon="10.3176512"><ele>147.0</ele><time>2026-04-26T09:14:59.672Z</time></trkpt><trkpt lat="33.3882194" lon="10.3175051"><ele>147.0</ele><time>2026-04-26T09:15:00.671Z</time></trkpt><trkpt lat="33.3881073" lon="10.3173615"><ele>147.66666666666666</ele><time>2026-04-26T09:15:01.682Z</time></trkpt><trkpt lat="33.3879924" lon="10.3172156"><ele>148.33333333333331</ele><time>2026-04-26T09:15:02.686Z</time></trkpt><trkpt lat="33.3878833" lon="10.3170677"><ele>149.0</ele><time>2026-04-26T09:15:03.677Z</time></trkpt><trkpt lat="33.3877715" lon="10.3169188"><ele>149.0</ele><time>2026-04-26T09:15:04.685Z</time></trkpt><trkpt lat="33.3876617" lon="10.3167704"><ele>149.0</ele><time>2026-04-26T09:15:05.673Z</time></trkpt><trkpt lat="33.3875526" lon="10.3166131"><ele>149.0</ele><time>2026-04-26T09:15:06.68Z</time></trkpt><trkpt lat="33.3874485" lon="10.3164575"><ele>149.0</ele><time>2026-04-26T09:15:07.689Z</time></trkpt><trkpt lat="33.3873441" lon="10.316303"><ele>149.0</ele><time>2026-04-26T09:15:08.678Z</time></trkpt><trkpt lat="33.3872345" lon="10.3161513"><ele>149.0</ele><time>2026-04-26T09:15:09.67Z</time></trkpt><trkpt lat="33.3871237" lon="10.3159967"><ele>149.0</ele><time>2026-04-26T09:15:10.677Z</time></trkpt><trkpt lat="33.3870147" lon="10.3158454"><ele>149.0</ele><time>2026-04-26T09:15:11.688Z</time></trkpt><trkpt lat="33.3868992" lon="10.3156945"><ele>149.0</ele><time>2026-04-26T09:15:12.691Z</time></trkpt><trkpt lat="33.3867857" lon="10.3155391"><ele>148.66666666666666</ele><time>2026-04-26T09:15:13.674Z</time></trkpt><trkpt lat="33.3866718" lon="10.3153895"><ele>148.33333333333334</ele><time>2026-04-26T09:15:14.679Z</time></trkpt><trkpt lat="33.3865579" lon="10.3152378"><ele>148.0</ele><time>2026-04-26T09:15:15.67Z</time></trkpt><trkpt lat="33.3864497" lon="10.3150818"><ele>148.33333333333334</ele><time>2026-04-26T09:15:16.675Z</time></trkpt><trkpt lat="33.3863441" lon="10.31493"><ele>148.66666666666666</ele><time>2026-04-26T09:15:17.686Z</time></trkpt><trkpt lat="33.3862409" lon="10.3147752"><ele>149.0</ele><time>2026-04-26T09:15:18.693Z</time></trkpt><trkpt lat="33.3861334" lon="10.3146252"><ele>149.0</ele><time>2026-04-26T09:15:19.675Z</time></trkpt><trkpt lat="33.3860205" lon="10.3144749"><ele>149.0</ele><time>2026-04-26T09:15:20.695Z</time></trkpt><trkpt lat="33.3859066" lon="10.3143253"><ele>149.0</ele><time>2026-04-26T09:15:21.687Z</time></trkpt><trkpt lat="33.3857957" lon="10.3141759"><ele>149.0</ele><time>2026-04-26T09:15:22.676Z</time></trkpt><trkpt lat="33.3856884" lon="10.3140256"><ele>149.0</ele><time>2026-04-26T09:15:23.682Z</time></trkpt><trkpt lat="33.3855823" lon="10.3138768"><ele>149.0</ele><time>2026-04-26T09:15:24.659Z</time></trkpt><trkpt lat="33.385479" lon="10.3137269"><ele>149.66666666666666</ele><time>2026-04-26T09:15:25.683Z</time></trkpt><trkpt lat="33.3853704" lon="10.3135745"><ele>150.33333333333334</ele><time>2026-04-26T09:15:26.669Z</time></trkpt><trkpt lat="33.3852632" lon="10.3134202"><ele>151.0</ele><time>2026-04-26T09:15:27.682Z</time></trkpt><trkpt lat="33.3851512" lon="10.3132653"><ele>151.0</ele><time>2026-04-26T09:15:28.669Z</time></trkpt><trkpt lat="33.3850417" lon="10.3131098"><ele>151.0</ele><time>2026-04-26T09:15:29.693Z</time></trkpt><trkpt lat="33.3849352" lon="10.3129526"><ele>151.0</ele><time>2026-04-26T09:15:30.672Z</time></trkpt><trkpt lat="33.3848214" lon="10.3128037"><ele>151.0</ele><time>2026-04-26T09:15:31.672Z</time></trkpt><trkpt lat="33.3847108" lon="10.3126451"><ele>151.0</ele><time>2026-04-26T09:15:32.676Z</time></trkpt><trkpt lat="33.3845937" lon="10.3124892"><ele>151.0</ele><time>2026-04-26T09:15:33.683Z</time></trkpt><trkpt lat="33.3844801" lon="10.3123315"><ele>151.33333333333334</ele><time>2026-04-26T09:15:34.692Z</time></trkpt><trkpt lat="33.3843659" lon="10.3121751"><ele>151.66666666666666</ele><time>2026-04-26T09:15:35.684Z</time></trkpt><trkpt lat="33.3842534" lon="10.3120212"><ele>152.0</ele><time>2026-04-26T09:15:36.681Z</time></trkpt><trkpt lat="33.3841407" lon="10.3118659"><ele>152.0</ele><time>2026-04-26T09:15:37.682Z</time></trkpt><trkpt lat="33.3840292" lon="10.3117131"><ele>152.0</ele><time>2026-04-26T09:15:38.682Z</time></trkpt><trkpt lat="33.3839209" lon="10.3115635"><ele>152.0</ele><time>2026-04-26T09:15:39.664Z</time></trkpt><trkpt lat="33.3838057" lon="10.3114138"><ele>152.33333333333331</ele><time>2026-04-26T09:15:40.674Z</time></trkpt><trkpt lat="33.3836923" lon="10.3112641"><ele>152.66666666666666</ele><time>2026-04-26T09:15:41.673Z</time></trkpt><trkpt lat="33.3835812" lon="10.3111121"><ele>153.0</ele><time>2026-04-26T09:15:42.663Z</time></trkpt><trkpt lat="33.3834733" lon="10.3109629"><ele>153.0</ele><time>2026-04-26T09:15:43.673Z</time></trkpt><trkpt lat="33.3833716" lon="10.3108127"><ele>153.0</ele><time>2026-04-26T09:15:44.677Z</time></trkpt><trkpt lat="33.3832657" lon="10.3106672"><ele>153.0</ele><time>2026-04-26T09:15:45.674Z</time></trkpt><trkpt lat="33.3831612" lon="10.3105193"><ele>152.33333333333334</ele><time>2026-04-26T09:15:46.676Z</time></trkpt><trkpt lat="33.3830566" lon="10.3103706"><ele>151.66666666666669</ele><time>2026-04-26T09:15:47.684Z</time></trkpt><trkpt lat="33.3829485" lon="10.3102219"><ele>151.0</ele><time>2026-04-26T09:15:48.656Z</time></trkpt><trkpt lat="33.3828397" lon="10.3100768"><ele>150.33333333333334</ele><time>2026-04-26T09:15:49.67Z</time></trkpt><trkpt lat="33.382736" lon="10.3099279"><ele>149.66666666666666</ele><time>2026-04-26T09:15:50.699Z</time></trkpt><trkpt lat="33.3826284" lon="10.3097825"><ele>149.0</ele><time>2026-04-26T09:15:51.683Z</time></trkpt><trkpt lat="33.3825235" lon="10.3096319"><ele>149.0</ele><time>2026-04-26T09:15:52.687Z</time></trkpt><trkpt lat="33.3824209" lon="10.3094894"><ele>149.0</ele><time>2026-04-26T09:15:53.685Z</time></trkpt><trkpt lat="33.3823199" lon="10.3093459"><ele>149.0</ele><time>2026-04-26T09:15:54.674Z</time></trkpt><trkpt lat="33.3822162" lon="10.3092044"><ele>149.0</ele><time>2026-04-26T09:15:55.671Z</time></trkpt><trkpt lat="33.3821101" lon="10.3090654"><ele>149.0</ele><time>2026-04-26T09:15:56.689Z</time></trkpt><trkpt lat="33.3820035" lon="10.3089189"><ele>149.0</ele><time>2026-04-26T09:15:57.677Z</time></trkpt><trkpt lat="33.3818972" lon="10.3087757"><ele>149.0</ele><time>2026-04-26T09:15:58.671Z</time></trkpt><trkpt lat="33.3817938" lon="10.3086269"><ele>149.0</ele><time>2026-04-26T09:15:59.699Z</time></trkpt><trkpt lat="33.3816857" lon="10.3084779"><ele>149.0</ele><time>2026-04-26T09:16:00.705Z</time></trkpt><trkpt lat="33.3815808" lon="10.3083286"><ele>149.0</ele><time>2026-04-26T09:16:01.678Z</time></trkpt><trkpt lat="33.3814742" lon="10.3081773"><ele>149.0</ele><time>2026-04-26T09:16:02.691Z</time></trkpt><trkpt lat="33.3813598" lon="10.3080223"><ele>149.0</ele><time>2026-04-26T09:16:03.69Z</time></trkpt><trkpt lat="33.381243" lon="10.3078625"><ele>150.0</ele><time>2026-04-26T09:16:04.672Z</time></trkpt><trkpt lat="33.381123" lon="10.3077024"><ele>151.0</ele><time>2026-04-26T09:16:05.681Z</time></trkpt><trkpt lat="33.3810013" lon="10.3075491"><ele>152.0</ele><time>2026-04-26T09:16:06.669Z</time></trkpt><trkpt lat="33.3808847" lon="10.3073888"><ele>152.0</ele><time>2026-04-26T09:16:07.664Z</time></trkpt><trkpt lat="33.3807717" lon="10.3072283"><ele>152.0</ele><time>2026-04-26T09:16:08.678Z</time></trkpt><trkpt lat="33.3806594" lon="10.3070699"><ele>152.0</ele><time>2026-04-26T09:16:09.679Z</time></trkpt><trkpt lat="33.3805443" lon="10.3069097"><ele>151.66666666666666</ele><time>2026-04-26T09:16:10.67Z</time></trkpt><trkpt lat="33.3804306" lon="10.3067526"><ele>151.33333333333334</ele><time>2026-04-26T09:16:11.664Z</time></trkpt><trkpt lat="33.380318" lon="10.3065943"><ele>151.0</ele><time>2026-04-26T09:16:12.666Z</time></trkpt><trkpt lat="33.3802017" lon="10.3064332"><ele>151.33333333333334</ele><time>2026-04-26T09:16:13.674Z</time></trkpt><trkpt lat="33.3800871" lon="10.3062668"><ele>151.66666666666666</ele><time>2026-04-26T09:16:14.687Z</time></trkpt><trkpt lat="33.3799727" lon="10.306106"><ele>152.0</ele><time>2026-04-26T09:16:15.662Z</time></trkpt><trkpt lat="33.3798575" lon="10.3059488"><ele>152.0</ele><time>2026-04-26T09:16:16.674Z</time></trkpt><trkpt lat="33.3797432" lon="10.3057887"><ele>152.0</ele><time>2026-04-26T09:16:17.68Z</time></trkpt><trkpt lat="33.3796305" lon="10.3056273"><ele>152.0</ele><time>2026-04-26T09:16:18.678Z</time></trkpt><trkpt lat="33.3795132" lon="10.3054627"><ele>152.66666666666666</ele><time>2026-04-26T09:16:19.67Z</time></trkpt><trkpt lat="33.379399" lon="10.3052997"><ele>153.33333333333334</ele><time>2026-04-26T09:16:20.675Z</time></trkpt><trkpt lat="33.3792836" lon="10.3051413"><ele>154.0</ele><time>2026-04-26T09:16:21.671Z</time></trkpt><trkpt lat="33.3791711" lon="10.3049823"><ele>154.0</ele><time>2026-04-26T09:16:22.679Z</time></trkpt><trkpt lat="33.3790585" lon="10.3048242"><ele>154.0</ele><time>2026-04-26T09:16:23.696Z</time></trkpt><trkpt lat="33.3789445" lon="10.3046648"><ele>154.0</ele><time>2026-04-26T09:16:24.675Z</time></trkpt><trkpt lat="33.3788266" lon="10.3045044"><ele>153.66666666666669</ele><time>2026-04-26T09:16:25.673Z</time></trkpt><trkpt lat="33.3787145" lon="10.304342"><ele>153.33333333333334</ele><time>2026-04-26T09:16:26.678Z</time></trkpt><trkpt lat="33.3785988" lon="10.3041817"><ele>153.0</ele><time>2026-04-26T09:16:27.678Z</time></trkpt><trkpt lat="33.3784825" lon="10.3040245"><ele>153.66666666666666</ele><time>2026-04-26T09:16:28.674Z</time></trkpt><trkpt lat="33.3783643" lon="10.3038643"><ele>154.33333333333331</ele><time>2026-04-26T09:16:29.691Z</time></trkpt><trkpt lat="33.3782469" lon="10.303709"><ele>155.0</ele><time>2026-04-26T09:16:30.688Z</time></trkpt><trkpt lat="33.3781306" lon="10.3035529"><ele>154.66666666666666</ele><time>2026-04-26T09:16:31.683Z</time></trkpt><trkpt lat="33.3780148" lon="10.303395"><ele>154.33333333333334</ele><time>2026-04-26T09:16:32.67Z</time></trkpt><trkpt lat="33.3778974" lon="10.3032376"><ele>154.0</ele><time>2026-04-26T09:16:33.686Z</time></trkpt><trkpt lat="33.3777805" lon="10.3030798"><ele>154.66666666666669</ele><time>2026-04-26T09:16:34.674Z</time></trkpt><trkpt lat="33.3776645" lon="10.3029228"><ele>155.33333333333334</ele><time>2026-04-26T09:16:35.68Z</time></trkpt><trkpt lat="33.3775482" lon="10.3027691"><ele>156.0</ele><time>2026-04-26T09:16:36.67Z</time></trkpt><trkpt lat="33.3774315" lon="10.3026108"><ele>156.0</ele><time>2026-04-26T09:16:37.674Z</time></trkpt><trkpt lat="33.3773141" lon="10.3024475"><ele>156.0</ele><time>2026-04-26T09:16:38.66Z</time></trkpt><trkpt lat="33.3772017" lon="10.3022846"><ele>156.0</ele><time>2026-04-26T09:16:39.656Z</time></trkpt><trkpt lat="33.3770868" lon="10.3021255"><ele>156.0</ele><time>2026-04-26T09:16:40.671Z</time></trkpt><trkpt lat="33.3769712" lon="10.3019725"><ele>156.0</ele><time>2026-04-26T09:16:41.672Z</time></trkpt><trkpt lat="33.3768519" lon="10.3018192"><ele>156.0</ele><time>2026-04-26T09:16:42.672Z</time></trkpt><trkpt lat="33.3767362" lon="10.3016596"><ele>156.0</ele><time>2026-04-26T09:16:43.674Z</time></trkpt><trkpt lat="33.3766194" lon="10.301498"><ele>156.0</ele><time>2026-04-26T09:16:44.68Z</time></trkpt><trkpt lat="33.3765081" lon="10.3013374"><ele>156.0</ele><time>2026-04-26T09:16:45.69Z</time></trkpt><trkpt lat="33.376396" lon="10.3011738"><ele>156.0</ele><time>2026-04-26T09:16:46.678Z</time></trkpt><trkpt lat="33.3762858" lon="10.3010133"><ele>156.0</ele><time>2026-04-26T09:16:47.685Z</time></trkpt><trkpt lat="33.3761734" lon="10.3008489"><ele>156.0</ele><time>2026-04-26T09:16:48.681Z</time></trkpt><trkpt lat="33.3760602" lon="10.3006847"><ele>156.66666666666666</ele><time>2026-04-26T09:16:49.678Z</time></trkpt><trkpt lat="33.3759451" lon="10.3005252"><ele>157.33333333333331</ele><time>2026-04-26T09:16:50.684Z</time></trkpt><trkpt lat="33.3758339" lon="10.3003683"><ele>158.0</ele><time>2026-04-26T09:16:51.676Z</time></trkpt><trkpt lat="33.3757162" lon="10.300213"><ele>158.0</ele><time>2026-04-26T09:16:52.67Z</time></trkpt><trkpt lat="33.3756008" lon="10.300059"><ele>158.0</ele><time>2026-04-26T09:16:53.676Z</time></trkpt><trkpt lat="33.3754887" lon="10.2999084"><ele>158.0</ele><time>2026-04-26T09:16:54.699Z</time></trkpt><trkpt lat="33.375377" lon="10.2997602"><ele>158.0</ele><time>2026-04-26T09:16:55.678Z</time></trkpt><trkpt lat="33.3752661" lon="10.2996087"><ele>158.0</ele><time>2026-04-26T09:16:56.68Z</time></trkpt><trkpt lat="33.3751493" lon="10.2994596"><ele>158.0</ele><time>2026-04-26T09:16:57.664Z</time></trkpt><trkpt lat="33.3750353" lon="10.2993139"><ele>158.0</ele><time>2026-04-26T09:16:58.68Z</time></trkpt><trkpt lat="33.3749253" lon="10.2991665"><ele>158.0</ele><time>2026-04-26T09:16:59.671Z</time></trkpt><trkpt lat="33.3748175" lon="10.2990159"><ele>158.0</ele><time>2026-04-26T09:17:00.667Z</time></trkpt><trkpt lat="33.3747113" lon="10.2988661"><ele>158.0</ele><time>2026-04-26T09:17:01.68Z</time></trkpt><trkpt lat="33.3746029" lon="10.2987156"><ele>158.0</ele><time>2026-04-26T09:17:02.696Z</time></trkpt><trkpt lat="33.374498" lon="10.2985635"><ele>158.0</ele><time>2026-04-26T09:17:03.688Z</time></trkpt><trkpt lat="33.374389" lon="10.2984123"><ele>158.0</ele><time>2026-04-26T09:17:04.682Z</time></trkpt><trkpt lat="33.3742786" lon="10.2982657"><ele>158.0</ele><time>2026-04-26T09:17:05.683Z</time></trkpt><trkpt lat="33.3741737" lon="10.2981148"><ele>158.0</ele><time>2026-04-26T09:17:06.68Z</time></trkpt><trkpt lat="33.3740658" lon="10.2979684"><ele>158.33333333333331</ele><time>2026-04-26T09:17:07.668Z</time></trkpt><trkpt lat="33.3739584" lon="10.2978173"><ele>158.66666666666666</ele><time>2026-04-26T09:17:08.671Z</time></trkpt><trkpt lat="33.3738542" lon="10.297665"><ele>159.0</ele><time>2026-04-26T09:17:09.688Z</time></trkpt><trkpt lat="33.3737476" lon="10.2975212"><ele>159.33333333333334</ele><time>2026-04-26T09:17:10.673Z</time></trkpt><trkpt lat="33.3736388" lon="10.2973733"><ele>159.66666666666669</ele><time>2026-04-26T09:17:11.684Z</time></trkpt><trkpt lat="33.3735303" lon="10.2972219"><ele>160.0</ele><time>2026-04-26T09:17:12.676Z</time></trkpt><trkpt lat="33.3734202" lon="10.2970731"><ele>160.0</ele><time>2026-04-26T09:17:13.674Z</time></trkpt><trkpt lat="33.3733125" lon="10.296918"><ele>160.0</ele><time>2026-04-26T09:17:14.677Z</time></trkpt><trkpt lat="33.3732029" lon="10.2967695"><ele>160.0</ele><time>2026-04-26T09:17:15.678Z</time></trkpt><trkpt lat="33.3730956" lon="10.2966221"><ele>160.33333333333334</ele><time>2026-04-26T09:17:16.675Z</time></trkpt><trkpt lat="33.3729867" lon="10.2964766"><ele>160.66666666666666</ele><time>2026-04-26T09:17:17.664Z</time></trkpt><trkpt lat="33.3728794" lon="10.296324"><ele>161.0</ele><time>2026-04-26T09:17:18.672Z</time></trkpt><trkpt lat="33.3727758" lon="10.2961709"><ele>161.0</ele><time>2026-04-26T09:17:19.687Z</time></trkpt><trkpt lat="33.3726689" lon="10.2960196"><ele>161.0</ele><time>2026-04-26T09:17:20.687Z</time></trkpt><trkpt lat="33.3725614" lon="10.2958724"><ele>161.0</ele><time>2026-04-26T09:17:21.695Z</time></trkpt><trkpt lat="33.372454" lon="10.295721"><ele>161.0</ele><time>2026-04-26T09:17:22.705Z</time></trkpt><trkpt lat="33.3723476" lon="10.2955713"><ele>161.0</ele><time>2026-04-26T09:17:23.688Z</time></trkpt><trkpt lat="33.3722411" lon="10.2954229"><ele>161.0</ele><time>2026-04-26T09:17:24.669Z</time></trkpt><trkpt lat="33.3721319" lon="10.2952755"><ele>161.33333333333331</ele><time>2026-04-26T09:17:25.678Z</time></trkpt><trkpt lat="33.3720274" lon="10.2951271"><ele>161.66666666666666</ele><time>2026-04-26T09:17:26.678Z</time></trkpt><trkpt lat="33.3719186" lon="10.2949794"><ele>162.0</ele><time>2026-04-26T09:17:27.672Z</time></trkpt><trkpt lat="33.371809" lon="10.2948327"><ele>162.0</ele><time>2026-04-26T09:17:28.658Z</time></trkpt><trkpt lat="33.3716999" lon="10.2946862"><ele>162.0</ele><time>2026-04-26T09:17:29.673Z</time></trkpt><trkpt lat="33.3715939" lon="10.2945351"><ele>162.0</ele><time>2026-04-26T09:17:30.694Z</time></trkpt><trkpt lat="33.3714891" lon="10.2943837"><ele>162.0</ele><time>2026-04-26T09:17:31.697Z</time></trkpt><trkpt lat="33.3713842" lon="10.2942373"><ele>162.0</ele><time>2026-04-26T09:17:32.694Z</time></trkpt><trkpt lat="33.3712797" lon="10.2940834"><ele>162.0</ele><time>2026-04-26T09:17:33.671Z</time></trkpt><trkpt lat="33.3711683" lon="10.2939359"><ele>162.0</ele><time>2026-04-26T09:17:34.672Z</time></trkpt><trkpt lat="33.3710616" lon="10.2937891"><ele>162.0</ele><time>2026-04-26T09:17:35.662Z</time></trkpt><trkpt lat="33.3709498" lon="10.2936421"><ele>162.0</ele><time>2026-04-26T09:17:36.692Z</time></trkpt><trkpt lat="33.3708361" lon="10.2935002"><ele>162.0</ele><time>2026-04-26T09:17:37.686Z</time></trkpt><trkpt lat="33.370724" lon="10.2933605"><ele>162.0</ele><time>2026-04-26T09:17:38.672Z</time></trkpt><trkpt lat="33.3706156" lon="10.2932173"><ele>162.0</ele><time>2026-04-26T09:17:39.671Z</time></trkpt><trkpt lat="33.3705033" lon="10.2930743"><ele>162.33333333333334</ele><time>2026-04-26T09:17:40.676Z</time></trkpt><trkpt lat="33.3703935" lon="10.292927"><ele>162.66666666666669</ele><time>2026-04-26T09:17:41.681Z</time></trkpt><trkpt lat="33.3702826" lon="10.2927827"><ele>163.0</ele><time>2026-04-26T09:17:42.702Z</time></trkpt><trkpt lat="33.3701747" lon="10.2926334"><ele>163.0</ele><time>2026-04-26T09:17:43.682Z</time></trkpt><trkpt lat="33.3700701" lon="10.2924788"><ele>163.0</ele><time>2026-04-26T09:17:44.668Z</time></trkpt><trkpt lat="33.3699694" lon="10.2923222"><ele>163.0</ele><time>2026-04-26T09:17:45.683Z</time></trkpt><trkpt lat="33.3698712" lon="10.2921581"><ele>163.0</ele><time>2026-04-26T09:17:46.689Z</time></trkpt><trkpt lat="33.3697681" lon="10.2920061"><ele>163.0</ele><time>2026-04-26T09:17:47.695Z</time></trkpt><trkpt lat="33.3696592" lon="10.2918589"><ele>163.0</ele><time>2026-04-26T09:17:48.679Z</time></trkpt><trkpt lat="33.3695554" lon="10.2917122"><ele>163.0</ele><time>2026-04-26T09:17:49.682Z</time></trkpt><trkpt lat="33.3694486" lon="10.2915638"><ele>163.0</ele><time>2026-04-26T09:17:50.684Z</time></trkpt><trkpt lat="33.3693425" lon="10.2914156"><ele>163.0</ele><time>2026-04-26T09:17:51.671Z</time></trkpt><trkpt lat="33.3692378" lon="10.2912716"><ele>163.66666666666669</ele><time>2026-04-26T09:17:52.674Z</time></trkpt><trkpt lat="33.369136" lon="10.2911228"><ele>164.33333333333334</ele><time>2026-04-26T09:17:53.676Z</time></trkpt><trkpt lat="33.3690261" lon="10.2909738"><ele>165.0</ele><time>2026-04-26T09:17:54.682Z</time></trkpt><trkpt lat="33.3689157" lon="10.2908273"><ele>165.33333333333334</ele><time>2026-04-26T09:17:55.668Z</time></trkpt><trkpt lat="33.3688037" lon="10.2906804"><ele>165.66666666666669</ele><time>2026-04-26T09:17:56.674Z</time></trkpt><trkpt lat="33.3686926" lon="10.2905258"><ele>166.0</ele><time>2026-04-26T09:17:57.677Z</time></trkpt><trkpt lat="33.3685825" lon="10.2903729"><ele>166.0</ele><time>2026-04-26T09:17:58.67Z</time></trkpt><trkpt lat="33.3684768" lon="10.2902288"><ele>166.0</ele><time>2026-04-26T09:17:59.69Z</time></trkpt><trkpt lat="33.3683683" lon="10.2900789"><ele>166.0</ele><time>2026-04-26T09:18:00.677Z</time></trkpt><trkpt lat="33.3682609" lon="10.289933"><ele>166.0</ele><time>2026-04-26T09:18:01.686Z</time></trkpt><trkpt lat="33.3681567" lon="10.2897849"><ele>166.0</ele><time>2026-04-26T09:18:02.677Z</time></trkpt><trkpt lat="33.3680482" lon="10.2896371"><ele>166.0</ele><time>2026-04-26T09:18:03.687Z</time></trkpt><trkpt lat="33.3679399" lon="10.2894929"><ele>166.33333333333334</ele><time>2026-04-26T09:18:04.671Z</time></trkpt><trkpt lat="33.3678308" lon="10.2893493"><ele>166.66666666666666</ele><time>2026-04-26T09:18:05.673Z</time></trkpt><trkpt lat="33.3677228" lon="10.2891989"><ele>167.0</ele><time>2026-04-26T09:18:06.679Z</time></trkpt><trkpt lat="33.3676167" lon="10.2890509"><ele>166.66666666666666</ele><time>2026-04-26T09:18:07.708Z</time></trkpt><trkpt lat="33.3675106" lon="10.2888985"><ele>166.33333333333334</ele><time>2026-04-26T09:18:08.677Z</time></trkpt><trkpt lat="33.3674039" lon="10.2887514"><ele>166.0</ele><time>2026-04-26T09:18:09.681Z</time></trkpt><trkpt lat="33.3672978" lon="10.2886018"><ele>166.66666666666669</ele><time>2026-04-26T09:18:10.677Z</time></trkpt><trkpt lat="33.367194" lon="10.2884564"><ele>167.33333333333334</ele><time>2026-04-26T09:18:11.689Z</time></trkpt><trkpt lat="33.3670857" lon="10.2883097"><ele>168.0</ele><time>2026-04-26T09:18:12.671Z</time></trkpt><trkpt lat="33.3669771" lon="10.2881604"><ele>168.0</ele><time>2026-04-26T09:18:13.67Z</time></trkpt><trkpt lat="33.3668681" lon="10.2880139"><ele>168.0</ele><time>2026-04-26T09:18:14.68Z</time></trkpt><trkpt lat="33.3667596" lon="10.2878588"><ele>168.0</ele><time>2026-04-26T09:18:15.676Z</time></trkpt><trkpt lat="33.3666537" lon="10.2877058"><ele>168.0</ele><time>2026-04-26T09:18:16.679Z</time></trkpt><trkpt lat="33.3665482" lon="10.2875524"><ele>168.0</ele><time>2026-04-26T09:18:17.68Z</time></trkpt><trkpt lat="33.3664411" lon="10.2873992"><ele>168.0</ele><time>2026-04-26T09:18:18.68Z</time></trkpt><trkpt lat="33.3663328" lon="10.2872516"><ele>169.0</ele><time>2026-04-26T09:18:19.683Z</time></trkpt><trkpt lat="33.3662234" lon="10.2871036"><ele>170.0</ele><time>2026-04-26T09:18:20.677Z</time></trkpt><trkpt lat="33.366115" lon="10.2869601"><ele>171.0</ele><time>2026-04-26T09:18:21.68Z</time></trkpt><trkpt lat="33.3660096" lon="10.2868142"><ele>171.0</ele><time>2026-04-26T09:18:22.671Z</time></trkpt><trkpt lat="33.3659031" lon="10.2866669"><ele>171.0</ele><time>2026-04-26T09:18:23.683Z</time></trkpt><trkpt lat="33.3657975" lon="10.2865128"><ele>171.0</ele><time>2026-04-26T09:18:24.673Z</time></trkpt><trkpt lat="33.3656909" lon="10.2863642"><ele>171.0</ele><time>2026-04-26T09:18:25.683Z</time></trkpt><trkpt lat="33.3655852" lon="10.2862168"><ele>171.0</ele><time>2026-04-26T09:18:26.679Z</time></trkpt><trkpt lat="33.3654825" lon="10.2860619"><ele>171.0</ele><time>2026-04-26T09:18:27.69Z</time></trkpt><trkpt lat="33.3653802" lon="10.2859112"><ele>171.0</ele><time>2026-04-26T09:18:28.681Z</time></trkpt><trkpt lat="33.3652772" lon="10.2857651"><ele>171.0</ele><time>2026-04-26T09:18:29.668Z</time></trkpt><trkpt lat="33.3651735" lon="10.2856218"><ele>171.0</ele><time>2026-04-26T09:18:30.685Z</time></trkpt><trkpt lat="33.3650666" lon="10.2854725"><ele>170.66666666666666</ele><time>2026-04-26T09:18:31.677Z</time></trkpt><trkpt lat="33.3649587" lon="10.2853193"><ele>170.33333333333331</ele><time>2026-04-26T09:18:32.685Z</time></trkpt><trkpt lat="33.3648495" lon="10.2851657"><ele>170.0</ele><time>2026-04-26T09:18:33.689Z</time></trkpt><trkpt lat="33.3647427" lon="10.2850157"><ele>170.66666666666666</ele><time>2026-04-26T09:18:34.676Z</time></trkpt><trkpt lat="33.3646298" lon="10.28487"><ele>171.33333333333334</ele><time>2026-04-26T09:18:35.687Z</time></trkpt><trkpt lat="33.3645159" lon="10.2847234"><ele>172.0</ele><time>2026-04-26T09:18:36.662Z</time></trkpt><trkpt lat="33.364405" lon="10.2845787"><ele>172.0</ele><time>2026-04-26T09:18:37.668Z</time></trkpt><trkpt lat="33.3642919" lon="10.2844386"><ele>172.0</ele><time>2026-04-26T09:18:38.68Z</time></trkpt><trkpt lat="33.3641815" lon="10.284298"><ele>172.0</ele><time>2026-04-26T09:18:39.671Z</time></trkpt><trkpt lat="33.3640704" lon="10.2841532"><ele>172.0</ele><time>2026-04-26T09:18:40.671Z</time></trkpt><trkpt lat="33.3639655" lon="10.2840047"><ele>172.0</ele><time>2026-04-26T09:18:41.673Z</time></trkpt><trkpt lat="33.3638605" lon="10.2838567"><ele>172.0</ele><time>2026-04-26T09:18:42.663Z</time></trkpt><trkpt lat="33.3637588" lon="10.283706"><ele>172.33333333333334</ele><time>2026-04-26T09:18:43.676Z</time></trkpt><trkpt lat="33.3636555" lon="10.2835538"><ele>172.66666666666666</ele><time>2026-04-26T09:18:44.673Z</time></trkpt><trkpt lat="33.3635475" lon="10.2834057"><ele>173.0</ele><time>2026-04-26T09:18:45.668Z</time></trkpt><trkpt lat="33.3634382" lon="10.2832612"><ele>173.0</ele><time>2026-04-26T09:18:46.718Z</time></trkpt><trkpt lat="33.3633284" lon="10.2831157"><ele>173.0</ele><time>2026-04-26T09:18:47.663Z</time></trkpt><trkpt lat="33.3632169" lon="10.2829643"><ele>173.0</ele><time>2026-04-26T09:18:48.663Z</time></trkpt><trkpt lat="33.3631102" lon="10.2828157"><ele>172.66666666666666</ele><time>2026-04-26T09:18:49.682Z</time></trkpt><trkpt lat="33.3630078" lon="10.2826591"><ele>172.33333333333334</ele><time>2026-04-26T09:18:50.669Z</time></trkpt><trkpt lat="33.362902" lon="10.2825079"><ele>172.0</ele><time>2026-04-26T09:18:51.682Z</time></trkpt><trkpt lat="33.3627948" lon="10.2823602"><ele>172.66666666666669</ele><time>2026-04-26T09:18:52.695Z</time></trkpt><trkpt lat="33.3626883" lon="10.2822097"><ele>173.33333333333334</ele><time>2026-04-26T09:18:53.676Z</time></trkpt><trkpt lat="33.3625806" lon="10.2820641"><ele>174.0</ele><time>2026-04-26T09:18:54.668Z</time></trkpt><trkpt lat="33.362473" lon="10.2819128"><ele>174.0</ele><time>2026-04-26T09:18:55.688Z</time></trkpt><trkpt lat="33.3623681" lon="10.281768"><ele>174.0</ele><time>2026-04-26T09:18:56.688Z</time></trkpt><trkpt lat="33.3622588" lon="10.2816201"><ele>174.0</ele><time>2026-04-26T09:18:57.684Z</time></trkpt><trkpt lat="33.3621531" lon="10.2814721"><ele>173.66666666666666</ele><time>2026-04-26T09:18:58.676Z</time></trkpt><trkpt lat="33.3620439" lon="10.281331"><ele>173.33333333333331</ele><time>2026-04-26T09:18:59.682Z</time></trkpt><trkpt lat="33.3619348" lon="10.2811827"><ele>173.0</ele><time>2026-04-26T09:19:00.675Z</time></trkpt><trkpt lat="33.3618293" lon="10.2810362"><ele>173.0</ele><time>2026-04-26T09:19:01.684Z</time></trkpt><trkpt lat="33.3617204" lon="10.2808873"><ele>173.0</ele><time>2026-04-26T09:19:02.691Z</time></trkpt><trkpt lat="33.3616114" lon="10.2807376"><ele>173.0</ele><time>2026-04-26T09:19:03.687Z</time></trkpt><trkpt lat="33.3615051" lon="10.2805913"><ele>174.0</ele><time>2026-04-26T09:19:04.679Z</time></trkpt><trkpt lat="33.3613983" lon="10.2804375"><ele>175.0</ele><time>2026-04-26T09:19:05.676Z</time></trkpt><trkpt lat="33.361289" lon="10.2802844"><ele>176.0</ele><time>2026-04-26T09:19:06.68Z</time></trkpt><trkpt lat="33.3611736" lon="10.2801278"><ele>176.66666666666666</ele><time>2026-04-26T09:19:07.678Z</time></trkpt><trkpt lat="33.3610519" lon="10.2799587"><ele>177.33333333333334</ele><time>2026-04-26T09:19:08.675Z</time></trkpt><trkpt lat="33.3609201" lon="10.2797859"><ele>178.0</ele><time>2026-04-26T09:19:09.686Z</time></trkpt><trkpt lat="33.3607882" lon="10.2796033"><ele>178.33333333333334</ele><time>2026-04-26T09:19:10.669Z</time></trkpt><trkpt lat="33.3606564" lon="10.2794277"><ele>178.66666666666666</ele><time>2026-04-26T09:19:11.674Z</time></trkpt><trkpt lat="33.3605321" lon="10.2792512"><ele>179.0</ele><time>2026-04-26T09:19:12.678Z</time></trkpt><trkpt lat="33.360413" lon="10.2790835"><ele>179.33333333333331</ele><time>2026-04-26T09:19:13.673Z</time></trkpt><trkpt lat="33.3602973" lon="10.2789206"><ele>179.66666666666666</ele><time>2026-04-26T09:19:14.668Z</time></trkpt><trkpt lat="33.3601864" lon="10.2787708"><ele>180.0</ele><time>2026-04-26T09:19:15.65Z</time></trkpt><trkpt lat="33.3600751" lon="10.2786212"><ele>180.0</ele><time>2026-04-26T09:19:16.677Z</time></trkpt><trkpt lat="33.3599633" lon="10.2784738"><ele>180.0</ele><time>2026-04-26T09:19:17.677Z</time></trkpt><trkpt lat="33.359854" lon="10.2783292"><ele>180.0</ele><time>2026-04-26T09:19:18.664Z</time></trkpt><trkpt lat="33.3597385" lon="10.2781744"><ele>181.0</ele><time>2026-04-26T09:19:19.666Z</time></trkpt><trkpt lat="33.3596279" lon="10.278016"><ele>182.0</ele><time>2026-04-26T09:19:20.674Z</time></trkpt><trkpt lat="33.3595174" lon="10.277854"><ele>183.0</ele><time>2026-04-26T09:19:21.674Z</time></trkpt><trkpt lat="33.3594083" lon="10.2776935"><ele>183.0</ele><time>2026-04-26T09:19:22.676Z</time></trkpt><trkpt lat="33.3593006" lon="10.2775339"><ele>183.0</ele><time>2026-04-26T09:19:23.676Z</time></trkpt><trkpt lat="33.3591878" lon="10.2773806"><ele>183.0</ele><time>2026-04-26T09:19:24.673Z</time></trkpt><trkpt lat="33.3590763" lon="10.2772252"><ele>182.66666666666666</ele><time>2026-04-26T09:19:25.664Z</time></trkpt><trkpt lat="33.3589636" lon="10.2770737"><ele>182.33333333333331</ele><time>2026-04-26T09:19:26.684Z</time></trkpt><trkpt lat="33.3588512" lon="10.276926"><ele>182.0</ele><time>2026-04-26T09:19:27.678Z</time></trkpt><trkpt lat="33.3587389" lon="10.2767782"><ele>181.66666666666666</ele><time>2026-04-26T09:19:28.675Z</time></trkpt><trkpt lat="33.3586256" lon="10.27663"><ele>181.33333333333334</ele><time>2026-04-26T09:19:29.688Z</time></trkpt><trkpt lat="33.3585175" lon="10.2764799"><ele>181.0</ele><time>2026-04-26T09:19:30.658Z</time></trkpt><trkpt lat="33.3584101" lon="10.276329"><ele>181.0</ele><time>2026-04-26T09:19:31.679Z</time></trkpt><trkpt lat="33.3583007" lon="10.2761767"><ele>181.0</ele><time>2026-04-26T09:19:32.673Z</time></trkpt><trkpt lat="33.3581889" lon="10.2760291"><ele>181.0</ele><time>2026-04-26T09:19:33.679Z</time></trkpt><trkpt lat="33.358078" lon="10.2758727"><ele>180.66666666666669</ele><time>2026-04-26T09:19:34.669Z</time></trkpt><trkpt lat="33.3579641" lon="10.2757168"><ele>180.33333333333334</ele><time>2026-04-26T09:19:35.681Z</time></trkpt><trkpt lat="33.3578493" lon="10.2755603"><ele>180.0</ele><time>2026-04-26T09:19:36.686Z</time></trkpt><trkpt lat="33.3577266" lon="10.2753988"><ele>181.0</ele><time>2026-04-26T09:19:37.685Z</time></trkpt><trkpt lat="33.3576039" lon="10.2752334"><ele>182.0</ele><time>2026-04-26T09:19:38.68Z</time></trkpt><trkpt lat="33.3574782" lon="10.2750661"><ele>183.0</ele><time>2026-04-26T09:19:39.678Z</time></trkpt><trkpt lat="33.3573548" lon="10.2748982"><ele>183.0</ele><time>2026-04-26T09:19:40.686Z</time></trkpt><trkpt lat="33.3572407" lon="10.2747335"><ele>183.0</ele><time>2026-04-26T09:19:41.685Z</time></trkpt><trkpt lat="33.3571205" lon="10.2745718"><ele>183.0</ele><time>2026-04-26T09:19:42.672Z</time></trkpt><trkpt lat="33.3570021" lon="10.2744151"><ele>183.66666666666666</ele><time>2026-04-26T09:19:43.684Z</time></trkpt><trkpt lat="33.356884" lon="10.2742571"><ele>184.33333333333331</ele><time>2026-04-26T09:19:44.671Z</time></trkpt><trkpt lat="33.356769" lon="10.2740998"><ele>185.0</ele><time>2026-04-26T09:19:45.674Z</time></trkpt><trkpt lat="33.3566574" lon="10.2739425"><ele>185.0</ele><time>2026-04-26T09:19:46.674Z</time></trkpt><trkpt lat="33.3565432" lon="10.2737892"><ele>185.0</ele><time>2026-04-26T09:19:47.687Z</time></trkpt><trkpt lat="33.356431" lon="10.2736312"><ele>185.0</ele><time>2026-04-26T09:19:48.665Z</time></trkpt><trkpt lat="33.3563119" lon="10.2734751"><ele>184.66666666666666</ele><time>2026-04-26T09:19:49.67Z</time></trkpt><trkpt lat="33.3561989" lon="10.2733231"><ele>184.33333333333334</ele><time>2026-04-26T09:19:50.658Z</time></trkpt><trkpt lat="33.3560859" lon="10.2731645"><ele>184.0</ele><time>2026-04-26T09:19:51.682Z</time></trkpt><trkpt lat="33.3559741" lon="10.2730067"><ele>185.33333333333334</ele><time>2026-04-26T09:19:52.672Z</time></trkpt><trkpt lat="33.3558628" lon="10.2728478"><ele>186.66666666666666</ele><time>2026-04-26T09:19:53.675Z</time></trkpt><trkpt lat="33.3557568" lon="10.272688"><ele>188.0</ele><time>2026-04-26T09:19:54.663Z</time></trkpt><trkpt lat="33.3556538" lon="10.2725309"><ele>188.0</ele><time>2026-04-26T09:19:55.675Z</time></trkpt><trkpt lat="33.3555462" lon="10.2723707"><ele>188.0</ele><time>2026-04-26T09:19:56.679Z</time></trkpt><trkpt lat="33.3554373" lon="10.2722202"><ele>188.0</ele><time>2026-04-26T09:19:57.679Z</time></trkpt><trkpt lat="33.3553239" lon="10.272073"><ele>187.33333333333331</ele><time>2026-04-26T09:19:58.68Z</time></trkpt><trkpt lat="33.3552087" lon="10.2719275"><ele>186.66666666666666</ele><time>2026-04-26T09:19:59.686Z</time></trkpt><trkpt lat="33.3550946" lon="10.2717793"><ele>186.0</ele><time>2026-04-26T09:20:00.665Z</time></trkpt><trkpt lat="33.3549813" lon="10.2716275"><ele>186.0</ele><time>2026-04-26T09:20:01.686Z</time></trkpt><trkpt lat="33.3548675" lon="10.2714796"><ele>186.0</ele><time>2026-04-26T09:20:02.671Z</time></trkpt><trkpt lat="33.354759" lon="10.2713318"><ele>186.0</ele><time>2026-04-26T09:20:03.669Z</time></trkpt><trkpt lat="33.3546497" lon="10.27118"><ele>186.33333333333334</ele><time>2026-04-26T09:20:04.682Z</time></trkpt><trkpt lat="33.3545413" lon="10.2710297"><ele>186.66666666666669</ele><time>2026-04-26T09:20:05.686Z</time></trkpt><trkpt lat="33.3544334" lon="10.2708799"><ele>187.0</ele><time>2026-04-26T09:20:06.672Z</time></trkpt><trkpt lat="33.3543234" lon="10.2707298"><ele>188.33333333333334</ele><time>2026-04-26T09:20:07.691Z</time></trkpt><trkpt lat="33.3542157" lon="10.2705802"><ele>189.66666666666666</ele><time>2026-04-26T09:20:08.677Z</time></trkpt><trkpt lat="33.3541099" lon="10.2704264"><ele>191.0</ele><time>2026-04-26T09:20:09.679Z</time></trkpt><trkpt lat="33.354001" lon="10.2702716"><ele>191.0</ele><time>2026-04-26T09:20:10.667Z</time></trkpt><trkpt lat="33.35389" lon="10.2701182"><ele>191.0</ele><time>2026-04-26T09:20:11.666Z</time></trkpt><trkpt lat="33.3537797" lon="10.2699693"><ele>191.0</ele><time>2026-04-26T09:20:12.67Z</time></trkpt><trkpt lat="33.3536715" lon="10.2698185"><ele>190.66666666666666</ele><time>2026-04-26T09:20:13.687Z</time></trkpt><trkpt lat="33.3535643" lon="10.2696693"><ele>190.33333333333334</ele><time>2026-04-26T09:20:14.683Z</time></trkpt><trkpt lat="33.3534574" lon="10.2695099"><ele>190.0</ele><time>2026-04-26T09:20:15.664Z</time></trkpt><trkpt lat="33.3533462" lon="10.2693578"><ele>190.0</ele><time>2026-04-26T09:20:16.662Z</time></trkpt><trkpt lat="33.35324" lon="10.2692083"><ele>190.0</ele><time>2026-04-26T09:20:17.688Z</time></trkpt><trkpt lat="33.3531309" lon="10.2690572"><ele>190.0</ele><time>2026-04-26T09:20:18.661Z</time></trkpt><trkpt lat="33.3530218" lon="10.2689031"><ele>190.0</ele><time>2026-04-26T09:20:19.677Z</time></trkpt><trkpt lat="33.3529139" lon="10.2687546"><ele>190.0</ele><time>2026-04-26T09:20:20.672Z</time></trkpt><trkpt lat="33.3528074" lon="10.2686021"><ele>190.0</ele><time>2026-04-26T09:20:21.665Z</time></trkpt><trkpt lat="33.3526998" lon="10.2684502"><ele>190.0</ele><time>2026-04-26T09:20:22.667Z</time></trkpt><trkpt lat="33.3525898" lon="10.2682993"><ele>190.0</ele><time>2026-04-26T09:20:23.659Z</time></trkpt><trkpt lat="33.3524781" lon="10.2681476"><ele>190.0</ele><time>2026-04-26T09:20:24.679Z</time></trkpt><trkpt lat="33.3523661" lon="10.2679936"><ele>190.33333333333334</ele><time>2026-04-26T09:20:25.67Z</time></trkpt><trkpt lat="33.3522572" lon="10.2678475"><ele>190.66666666666666</ele><time>2026-04-26T09:20:26.69Z</time></trkpt><trkpt lat="33.3521461" lon="10.2676997"><ele>191.0</ele><time>2026-04-26T09:20:27.681Z</time></trkpt><trkpt lat="33.35203" lon="10.2675542"><ele>191.0</ele><time>2026-04-26T09:20:28.659Z</time></trkpt><trkpt lat="33.3519228" lon="10.2674072"><ele>191.0</ele><time>2026-04-26T09:20:29.672Z</time></trkpt><trkpt lat="33.3518143" lon="10.267256"><ele>191.0</ele><time>2026-04-26T09:20:30.672Z</time></trkpt><trkpt lat="33.3517059" lon="10.267113"><ele>191.33333333333331</ele><time>2026-04-26T09:20:31.674Z</time></trkpt><trkpt lat="33.3515958" lon="10.2669725"><ele>191.66666666666666</ele><time>2026-04-26T09:20:32.681Z</time></trkpt><trkpt lat="33.3514806" lon="10.2668309"><ele>192.0</ele><time>2026-04-26T09:20:33.685Z</time></trkpt><trkpt lat="33.351364" lon="10.2666883"><ele>192.33333333333331</ele><time>2026-04-26T09:20:34.694Z</time></trkpt><trkpt lat="33.3512464" lon="10.2665479"><ele>192.66666666666666</ele><time>2026-04-26T09:20:35.682Z</time></trkpt><trkpt lat="33.3511307" lon="10.2664055"><ele>193.0</ele><time>2026-04-26T09:20:36.68Z</time></trkpt><trkpt lat="33.3510066" lon="10.2662649"><ele>193.66666666666666</ele><time>2026-04-26T09:20:37.697Z</time></trkpt><trkpt lat="33.3508896" lon="10.2661228"><ele>194.33333333333331</ele><time>2026-04-26T09:20:38.677Z</time></trkpt><trkpt lat="33.3507721" lon="10.2659819"><ele>195.0</ele><time>2026-04-26T09:20:39.671Z</time></trkpt><trkpt lat="33.3506569" lon="10.2658392"><ele>195.0</ele><time>2026-04-26T09:20:40.682Z</time></trkpt><trkpt lat="33.3505353" lon="10.2656963"><ele>195.0</ele><time>2026-04-26T09:20:41.673Z</time></trkpt><trkpt lat="33.3504175" lon="10.2655557"><ele>195.0</ele><time>2026-04-26T09:20:42.677Z</time></trkpt><trkpt lat="33.3503004" lon="10.2654173"><ele>195.0</ele><time>2026-04-26T09:20:43.69Z</time></trkpt><trkpt lat="33.3501826" lon="10.2652763"><ele>195.0</ele><time>2026-04-26T09:20:44.677Z</time></trkpt><trkpt lat="33.3500691" lon="10.2651365"><ele>195.0</ele><time>2026-04-26T09:20:45.662Z</time></trkpt><trkpt lat="33.3499507" lon="10.264994"><ele>195.0</ele><time>2026-04-26T09:20:46.689Z</time></trkpt><trkpt lat="33.3498293" lon="10.2648488"><ele>195.0</ele><time>2026-04-26T09:20:47.683Z</time></trkpt><trkpt lat="33.3497112" lon="10.2647027"><ele>195.0</ele><time>2026-04-26T09:20:48.684Z</time></trkpt><trkpt lat="33.3495908" lon="10.2645561"><ele>194.66666666666669</ele><time>2026-04-26T09:20:49.667Z</time></trkpt><trkpt lat="33.3494758" lon="10.264419"><ele>194.33333333333334</ele><time>2026-04-26T09:20:50.663Z</time></trkpt><trkpt lat="33.3493587" lon="10.2642827"><ele>194.0</ele><time>2026-04-26T09:20:51.676Z</time></trkpt><trkpt lat="33.3492431" lon="10.2641476"><ele>194.0</ele><time>2026-04-26T09:20:52.669Z</time></trkpt><trkpt lat="33.3491275" lon="10.2640071"><ele>194.0</ele><time>2026-04-26T09:20:53.673Z</time></trkpt><trkpt lat="33.349012" lon="10.2638685"><ele>194.0</ele><time>2026-04-26T09:20:54.676Z</time></trkpt><trkpt lat="33.3488917" lon="10.2637286"><ele>195.0</ele><time>2026-04-26T09:20:55.671Z</time></trkpt><trkpt lat="33.3487721" lon="10.2635879"><ele>196.0</ele><time>2026-04-26T09:20:56.667Z</time></trkpt><trkpt lat="33.3486531" lon="10.2634479"><ele>197.0</ele><time>2026-04-26T09:20:57.672Z</time></trkpt><trkpt lat="33.3485354" lon="10.2633095"><ele>197.0</ele><time>2026-04-26T09:20:58.67Z</time></trkpt><trkpt lat="33.3484192" lon="10.263169"><ele>197.0</ele><time>2026-04-26T09:20:59.658Z</time></trkpt><trkpt lat="33.3483032" lon="10.2630276"><ele>197.0</ele><time>2026-04-26T09:21:00.674Z</time></trkpt><trkpt lat="33.3481842" lon="10.2628838"><ele>197.66666666666669</ele><time>2026-04-26T09:21:01.663Z</time></trkpt><trkpt lat="33.3480651" lon="10.2627433"><ele>198.33333333333331</ele><time>2026-04-26T09:21:02.668Z</time></trkpt><trkpt lat="33.347948" lon="10.2625995"><ele>199.0</ele><time>2026-04-26T09:21:03.68Z</time></trkpt><trkpt lat="33.3478312" lon="10.262458"><ele>199.0</ele><time>2026-04-26T09:21:04.682Z</time></trkpt><trkpt lat="33.3477156" lon="10.2623171"><ele>199.0</ele><time>2026-04-26T09:21:05.679Z</time></trkpt><trkpt lat="33.3475996" lon="10.2621753"><ele>199.0</ele><time>2026-04-26T09:21:06.665Z</time></trkpt><trkpt lat="33.3474837" lon="10.2620363"><ele>199.0</ele><time>2026-04-26T09:21:07.679Z</time></trkpt><trkpt lat="33.3473643" lon="10.2618984"><ele>199.0</ele><time>2026-04-26T09:21:08.677Z</time></trkpt><trkpt lat="33.3472451" lon="10.2617568"><ele>199.0</ele><time>2026-04-26T09:21:09.675Z</time></trkpt><trkpt lat="33.3471277" lon="10.2616167"><ele>199.33333333333331</ele><time>2026-04-26T09:21:10.674Z</time></trkpt><trkpt lat="33.3470109" lon="10.261474"><ele>199.66666666666669</ele><time>2026-04-26T09:21:11.687Z</time></trkpt><trkpt lat="33.3468906" lon="10.2613357"><ele>200.0</ele><time>2026-04-26T09:21:12.676Z</time></trkpt><trkpt lat="33.3467707" lon="10.2611977"><ele>200.0</ele><time>2026-04-26T09:21:13.686Z</time></trkpt><trkpt lat="33.3466537" lon="10.261056"><ele>200.0</ele><time>2026-04-26T09:21:14.691Z</time></trkpt><trkpt lat="33.3465347" lon="10.2609146"><ele>200.0</ele><time>2026-04-26T09:21:15.67Z</time></trkpt><trkpt lat="33.3464169" lon="10.260771"><ele>200.0</ele><time>2026-04-26T09:21:16.665Z</time></trkpt><trkpt lat="33.3463024" lon="10.2606283"><ele>200.0</ele><time>2026-04-26T09:21:17.675Z</time></trkpt><trkpt lat="33.3461868" lon="10.2604866"><ele>200.0</ele><time>2026-04-26T09:21:18.681Z</time></trkpt><trkpt lat="33.3460654" lon="10.2603492"><ele>200.0</ele><time>2026-04-26T09:21:19.673Z</time></trkpt><trkpt lat="33.3459469" lon="10.260207"><ele>200.0</ele><time>2026-04-26T09:21:20.677Z</time></trkpt><trkpt lat="33.34583" lon="10.2600702"><ele>200.0</ele><time>2026-04-26T09:21:21.663Z</time></trkpt><trkpt lat="33.3457148" lon="10.2599265"><ele>200.0</ele><time>2026-04-26T09:21:22.681Z</time></trkpt><trkpt lat="33.3455941" lon="10.2597871"><ele>200.0</ele><time>2026-04-26T09:21:23.67Z</time></trkpt><trkpt lat="33.345475" lon="10.2596459"><ele>200.0</ele><time>2026-04-26T09:21:24.656Z</time></trkpt><trkpt lat="33.3453549" lon="10.2595046"><ele>200.66666666666669</ele><time>2026-04-26T09:21:25.686Z</time></trkpt><trkpt lat="33.3452404" lon="10.2593679"><ele>201.33333333333331</ele><time>2026-04-26T09:21:26.677Z</time></trkpt><trkpt lat="33.3451265" lon="10.2592258"><ele>202.0</ele><time>2026-04-26T09:21:27.673Z</time></trkpt><trkpt lat="33.3450085" lon="10.2590876"><ele>202.0</ele><time>2026-04-26T09:21:28.674Z</time></trkpt><trkpt lat="33.3448943" lon="10.2589444"><ele>202.0</ele><time>2026-04-26T09:21:29.663Z</time></trkpt><trkpt lat="33.3447761" lon="10.2588078"><ele>202.0</ele><time>2026-04-26T09:21:30.666Z</time></trkpt><trkpt lat="33.3446567" lon="10.2586692"><ele>202.0</ele><time>2026-04-26T09:21:31.691Z</time></trkpt><trkpt lat="33.3445372" lon="10.2585281"><ele>202.0</ele><time>2026-04-26T09:21:32.677Z</time></trkpt><trkpt lat="33.3444194" lon="10.2583924"><ele>202.0</ele><time>2026-04-26T09:21:33.675Z</time></trkpt><trkpt lat="33.3442996" lon="10.2582541"><ele>202.66666666666666</ele><time>2026-04-26T09:21:34.685Z</time></trkpt><trkpt lat="33.3441812" lon="10.2581111"><ele>203.33333333333331</ele><time>2026-04-26T09:21:35.682Z</time></trkpt><trkpt lat="33.3440612" lon="10.2579746"><ele>204.0</ele><time>2026-04-26T09:21:36.672Z</time></trkpt><trkpt lat="33.3439431" lon="10.2578373"><ele>204.66666666666669</ele><time>2026-04-26T09:21:37.678Z</time></trkpt><trkpt lat="33.3438264" lon="10.2576961"><ele>205.33333333333334</ele><time>2026-04-26T09:21:38.681Z</time></trkpt><trkpt lat="33.3437091" lon="10.257557"><ele>206.0</ele><time>2026-04-26T09:21:39.676Z</time></trkpt><trkpt lat="33.3435916" lon="10.2574092"><ele>205.33333333333334</ele><time>2026-04-26T09:21:40.674Z</time></trkpt><trkpt lat="33.3434757" lon="10.2572643"><ele>204.66666666666669</ele><time>2026-04-26T09:21:41.665Z</time></trkpt><trkpt lat="33.3433602" lon="10.2571231"><ele>204.0</ele><time>2026-04-26T09:21:42.672Z</time></trkpt><trkpt lat="33.3432473" lon="10.2569821"><ele>204.0</ele><time>2026-04-26T09:21:43.675Z</time></trkpt><trkpt lat="33.3431298" lon="10.2568403"><ele>204.0</ele><time>2026-04-26T09:21:44.689Z</time></trkpt><trkpt lat="33.3430164" lon="10.2566954"><ele>204.0</ele><time>2026-04-26T09:21:45.698Z</time></trkpt><trkpt lat="33.3429052" lon="10.2565514"><ele>205.0</ele><time>2026-04-26T09:21:46.666Z</time></trkpt><trkpt lat="33.3427887" lon="10.2564088"><ele>206.0</ele><time>2026-04-26T09:21:47.688Z</time></trkpt><trkpt lat="33.3426739" lon="10.2562635"><ele>207.0</ele><time>2026-04-26T09:21:48.673Z</time></trkpt><trkpt lat="33.3425552" lon="10.2561183"><ele>207.0</ele><time>2026-04-26T09:21:49.678Z</time></trkpt><trkpt lat="33.342438" lon="10.2559761"><ele>207.0</ele><time>2026-04-26T09:21:50.677Z</time></trkpt><trkpt lat="33.3423188" lon="10.2558373"><ele>207.0</ele><time>2026-04-26T09:21:51.664Z</time></trkpt><trkpt lat="33.3421971" lon="10.2556951"><ele>207.33333333333331</ele><time>2026-04-26T09:21:52.675Z</time></trkpt><trkpt lat="33.3420757" lon="10.2555527"><ele>207.66666666666666</ele><time>2026-04-26T09:21:53.673Z</time></trkpt><trkpt lat="33.341959" lon="10.255412"><ele>208.0</ele><time>2026-04-26T09:21:54.68Z</time></trkpt><trkpt lat="33.3418439" lon="10.2552743"><ele>208.0</ele><time>2026-04-26T09:21:55.681Z</time></trkpt><trkpt lat="33.3417275" lon="10.2551357"><ele>208.0</ele><time>2026-04-26T09:21:56.67Z</time></trkpt><trkpt lat="33.3416034" lon="10.254999"><ele>208.0</ele><time>2026-04-26T09:21:57.679Z</time></trkpt><trkpt lat="33.3414702" lon="10.2548859"><ele>208.0</ele><time>2026-04-26T09:21:58.67Z</time></trkpt><trkpt lat="33.341324" lon="10.2547907"><ele>208.0</ele><time>2026-04-26T09:21:59.67Z</time></trkpt><trkpt lat="33.3411848" lon="10.2547043"><ele>208.0</ele><time>2026-04-26T09:22:00.681Z</time></trkpt><trkpt lat="33.3410567" lon="10.2546094"><ele>208.0</ele><time>2026-04-26T09:22:01.667Z</time></trkpt><trkpt lat="33.3409392" lon="10.2544806"><ele>208.0</ele><time>2026-04-26T09:22:02.687Z</time></trkpt><trkpt lat="33.3408361" lon="10.2543513"><ele>208.0</ele><time>2026-04-26T09:22:03.67Z</time></trkpt><trkpt lat="33.3407487" lon="10.2542098"><ele>208.0</ele><time>2026-04-26T09:22:04.692Z</time></trkpt><trkpt lat="33.3406581" lon="10.2540644"><ele>208.0</ele><time>2026-04-26T09:22:05.676Z</time></trkpt><trkpt lat="33.34057" lon="10.2539204"><ele>208.0</ele><time>2026-04-26T09:22:06.664Z</time></trkpt><trkpt lat="33.3404745" lon="10.2537759"><ele>209.0</ele><time>2026-04-26T09:22:07.685Z</time></trkpt><trkpt lat="33.3403822" lon="10.253625"><ele>210.0</ele><time>2026-04-26T09:22:08.683Z</time></trkpt><trkpt lat="33.3402836" lon="10.2534776"><ele>211.0</ele><time>2026-04-26T09:22:09.685Z</time></trkpt><trkpt lat="33.3401866" lon="10.2533296"><ele>211.0</ele><time>2026-04-26T09:22:10.676Z</time></trkpt><trkpt lat="33.3400906" lon="10.2531771"><ele>211.0</ele><time>2026-04-26T09:22:11.685Z</time></trkpt><trkpt lat="33.3399917" lon="10.2530216"><ele>211.0</ele><time>2026-04-26T09:22:12.681Z</time></trkpt><trkpt lat="33.3398891" lon="10.2528639"><ele>211.0</ele><time>2026-04-26T09:22:13.689Z</time></trkpt><trkpt lat="33.3397892" lon="10.2527079"><ele>211.0</ele><time>2026-04-26T09:22:14.686Z</time></trkpt><trkpt lat="33.33969" lon="10.2525545"><ele>211.0</ele><time>2026-04-26T09:22:15.667Z</time></trkpt><trkpt lat="33.3395976" lon="10.2524055"><ele>211.33333333333331</ele><time>2026-04-26T09:22:16.681Z</time></trkpt><trkpt lat="33.3395065" lon="10.2522578"><ele>211.66666666666669</ele><time>2026-04-26T09:22:17.691Z</time></trkpt><trkpt lat="33.3394162" lon="10.2521144"><ele>212.0</ele><time>2026-04-26T09:22:18.688Z</time></trkpt><trkpt lat="33.3393266" lon="10.2519753"><ele>212.0</ele><time>2026-04-26T09:22:19.666Z</time></trkpt><trkpt lat="33.3392357" lon="10.2518334"><ele>212.0</ele><time>2026-04-26T09:22:20.66Z</time></trkpt><trkpt lat="33.3391405" lon="10.2516878"><ele>212.0</ele><time>2026-04-26T09:22:21.684Z</time></trkpt><trkpt lat="33.3390449" lon="10.2515438"><ele>212.33333333333334</ele><time>2026-04-26T09:22:22.66Z</time></trkpt><trkpt lat="33.3389524" lon="10.251398"><ele>212.66666666666669</ele><time>2026-04-26T09:22:23.658Z</time></trkpt><trkpt lat="33.3388577" lon="10.2512533"><ele>213.0</ele><time>2026-04-26T09:22:24.68Z</time></trkpt><trkpt lat="33.3387617" lon="10.251105"><ele>213.0</ele><time>2026-04-26T09:22:25.666Z</time></trkpt><trkpt lat="33.3386672" lon="10.2509595"><ele>213.0</ele><time>2026-04-26T09:22:26.687Z</time></trkpt><trkpt lat="33.3385689" lon="10.2508089"><ele>213.0</ele><time>2026-04-26T09:22:27.731Z</time></trkpt><trkpt lat="33.3384701" lon="10.2506576"><ele>213.33333333333331</ele><time>2026-04-26T09:22:28.663Z</time></trkpt><trkpt lat="33.338373" lon="10.2505052"><ele>213.66666666666666</ele><time>2026-04-26T09:22:29.668Z</time></trkpt><trkpt lat="33.3382751" lon="10.250348"><ele>214.0</ele><time>2026-04-26T09:22:30.681Z</time></trkpt><trkpt lat="33.3381788" lon="10.2501866"><ele>214.0</ele><time>2026-04-26T09:22:31.676Z</time></trkpt><trkpt lat="33.3380829" lon="10.2500264"><ele>214.0</ele><time>2026-04-26T09:22:32.686Z</time></trkpt><trkpt lat="33.3379864" lon="10.2498668"><ele>214.0</ele><time>2026-04-26T09:22:33.676Z</time></trkpt><trkpt lat="33.337886" lon="10.2497085"><ele>214.66666666666666</ele><time>2026-04-26T09:22:34.675Z</time></trkpt><trkpt lat="33.3377839" lon="10.2495546"><ele>215.33333333333331</ele><time>2026-04-26T09:22:35.688Z</time></trkpt><trkpt lat="33.3376798" lon="10.2494054"><ele>216.0</ele><time>2026-04-26T09:22:36.67Z</time></trkpt><trkpt lat="33.3375748" lon="10.2492507"><ele>216.0</ele><time>2026-04-26T09:22:37.692Z</time></trkpt><trkpt lat="33.3374734" lon="10.2490991"><ele>216.0</ele><time>2026-04-26T09:22:38.689Z</time></trkpt><trkpt lat="33.3373721" lon="10.2489491"><ele>216.0</ele><time>2026-04-26T09:22:39.684Z</time></trkpt><trkpt lat="33.3372779" lon="10.2487969"><ele>216.0</ele><time>2026-04-26T09:22:40.679Z</time></trkpt><trkpt lat="33.3371846" lon="10.2486447"><ele>216.0</ele><time>2026-04-26T09:22:41.68Z</time></trkpt><trkpt lat="33.3370894" lon="10.2484901"><ele>216.0</ele><time>2026-04-26T09:22:42.679Z</time></trkpt><trkpt lat="33.3369907" lon="10.2483353"><ele>216.0</ele><time>2026-04-26T09:22:43.676Z</time></trkpt><trkpt lat="33.3368903" lon="10.2481783"><ele>216.0</ele><time>2026-04-26T09:22:44.679Z</time></trkpt><trkpt lat="33.3367904" lon="10.2480256"><ele>216.0</ele><time>2026-04-26T09:22:45.679Z</time></trkpt><trkpt lat="33.3366885" lon="10.2478646"><ele>216.66666666666669</ele><time>2026-04-26T09:22:46.673Z</time></trkpt><trkpt lat="33.3365868" lon="10.2477062"><ele>217.33333333333334</ele><time>2026-04-26T09:22:47.682Z</time></trkpt><trkpt lat="33.3364872" lon="10.2475484"><ele>218.0</ele><time>2026-04-26T09:22:48.686Z</time></trkpt><trkpt lat="33.3363864" lon="10.2473862"><ele>218.33333333333334</ele><time>2026-04-26T09:22:49.681Z</time></trkpt><trkpt lat="33.3362846" lon="10.2472225"><ele>218.66666666666669</ele><time>2026-04-26T09:22:50.682Z</time></trkpt><trkpt lat="33.3361806" lon="10.2470582"><ele>219.0</ele><time>2026-04-26T09:22:51.684Z</time></trkpt><trkpt lat="33.3360781" lon="10.2468956"><ele>219.0</ele><time>2026-04-26T09:22:52.673Z</time></trkpt><trkpt lat="33.3359727" lon="10.2467339"><ele>219.0</ele><time>2026-04-26T09:22:53.673Z</time></trkpt><trkpt lat="33.3358692" lon="10.2465734"><ele>219.0</ele><time>2026-04-26T09:22:54.684Z</time></trkpt><trkpt lat="33.3357627" lon="10.2464133"><ele>219.0</ele><time>2026-04-26T09:22:55.676Z</time></trkpt><trkpt lat="33.3356606" lon="10.2462497"><ele>219.0</ele><time>2026-04-26T09:22:56.672Z</time></trkpt><trkpt lat="33.3355519" lon="10.2460865"><ele>219.0</ele><time>2026-04-26T09:22:57.679Z</time></trkpt><trkpt lat="33.3354466" lon="10.2459255"><ele>219.0</ele><time>2026-04-26T09:22:58.674Z</time></trkpt><trkpt lat="33.3353368" lon="10.2457598"><ele>219.0</ele><time>2026-04-26T09:22:59.664Z</time></trkpt><trkpt lat="33.3352291" lon="10.2455916"><ele>219.0</ele><time>2026-04-26T09:23:00.674Z</time></trkpt><trkpt lat="33.3351185" lon="10.2454229"><ele>219.0</ele><time>2026-04-26T09:23:01.666Z</time></trkpt><trkpt lat="33.3350143" lon="10.2452537"><ele>219.0</ele><time>2026-04-26T09:23:02.681Z</time></trkpt><trkpt lat="33.334912" lon="10.245084"><ele>219.0</ele><time>2026-04-26T09:23:03.68Z</time></trkpt><trkpt lat="33.334806" lon="10.2449192"><ele>220.33333333333331</ele><time>2026-04-26T09:23:04.676Z</time></trkpt><trkpt lat="33.3346983" lon="10.2447557"><ele>221.66666666666666</ele><time>2026-04-26T09:23:05.681Z</time></trkpt><trkpt lat="33.3345928" lon="10.244592"><ele>223.0</ele><time>2026-04-26T09:23:06.678Z</time></trkpt><trkpt lat="33.3344861" lon="10.2444267"><ele>223.0</ele><time>2026-04-26T09:23:07.676Z</time></trkpt><trkpt lat="33.3343814" lon="10.2442645"><ele>223.0</ele><time>2026-04-26T09:23:08.684Z</time></trkpt><trkpt lat="33.3342785" lon="10.2441021"><ele>223.0</ele><time>2026-04-26T09:23:09.681Z</time></trkpt><trkpt lat="33.3341729" lon="10.2439352"><ele>223.0</ele><time>2026-04-26T09:23:10.679Z</time></trkpt><trkpt lat="33.3340679" lon="10.2437713"><ele>223.0</ele><time>2026-04-26T09:23:11.685Z</time></trkpt><trkpt lat="33.3339619" lon="10.2436082"><ele>223.0</ele><time>2026-04-26T09:23:12.674Z</time></trkpt><trkpt lat="33.3338585" lon="10.2434494"><ele>223.0</ele><time>2026-04-26T09:23:13.676Z</time></trkpt><trkpt lat="33.3337533" lon="10.2432846"><ele>223.0</ele><time>2026-04-26T09:23:14.685Z</time></trkpt><trkpt lat="33.333648" lon="10.2431266"><ele>223.0</ele><time>2026-04-26T09:23:15.661Z</time></trkpt><trkpt lat="33.3335452" lon="10.2429652"><ele>223.66666666666666</ele><time>2026-04-26T09:23:16.672Z</time></trkpt><trkpt lat="33.3334436" lon="10.2428022"><ele>224.33333333333331</ele><time>2026-04-26T09:23:17.683Z</time></trkpt><trkpt lat="33.3333437" lon="10.2426425"><ele>225.0</ele><time>2026-04-26T09:23:18.661Z</time></trkpt><trkpt lat="33.3332425" lon="10.242488"><ele>225.0</ele><time>2026-04-26T09:23:19.685Z</time></trkpt><trkpt lat="33.333137" lon="10.2423341"><ele>225.0</ele><time>2026-04-26T09:23:20.68Z</time></trkpt><trkpt lat="33.3330322" lon="10.242177"><ele>225.0</ele><time>2026-04-26T09:23:21.678Z</time></trkpt><trkpt lat="33.3329296" lon="10.2420203"><ele>225.0</ele><time>2026-04-26T09:23:22.671Z</time></trkpt><trkpt lat="33.3328303" lon="10.2418665"><ele>225.0</ele><time>2026-04-26T09:23:23.671Z</time></trkpt><trkpt lat="33.3327298" lon="10.2417116"><ele>225.0</ele><time>2026-04-26T09:23:24.676Z</time></trkpt><trkpt lat="33.3326284" lon="10.2415588"><ele>225.0</ele><time>2026-04-26T09:23:25.67Z</time></trkpt><trkpt lat="33.3325307" lon="10.2414065"><ele>225.0</ele><time>2026-04-26T09:23:26.684Z</time></trkpt><trkpt lat="33.3324351" lon="10.2412525"><ele>225.0</ele><time>2026-04-26T09:23:27.675Z</time></trkpt><trkpt lat="33.3323392" lon="10.2410931"><ele>225.0</ele><time>2026-04-26T09:23:28.697Z</time></trkpt><trkpt lat="33.3322454" lon="10.240931"><ele>225.0</ele><time>2026-04-26T09:23:29.676Z</time></trkpt><trkpt lat="33.3321486" lon="10.2407743"><ele>225.0</ele><time>2026-04-26T09:23:30.676Z</time></trkpt><trkpt lat="33.3320478" lon="10.2406225"><ele>226.0</ele><time>2026-04-26T09:23:31.665Z</time></trkpt><trkpt lat="33.3319432" lon="10.2404699"><ele>227.0</ele><time>2026-04-26T09:23:32.669Z</time></trkpt><trkpt lat="33.3318405" lon="10.2403237"><ele>228.0</ele><time>2026-04-26T09:23:33.672Z</time></trkpt><trkpt lat="33.3317427" lon="10.2401698"><ele>228.0</ele><time>2026-04-26T09:23:34.677Z</time></trkpt><trkpt lat="33.3316468" lon="10.240014"><ele>228.0</ele><time>2026-04-26T09:23:35.687Z</time></trkpt><trkpt lat="33.3315525" lon="10.2398586"><ele>228.0</ele><time>2026-04-26T09:23:36.681Z</time></trkpt><trkpt lat="33.3314576" lon="10.2397026"><ele>228.33333333333331</ele><time>2026-04-26T09:23:37.683Z</time></trkpt><trkpt lat="33.3313651" lon="10.2395426"><ele>228.66666666666666</ele><time>2026-04-26T09:23:38.692Z</time></trkpt><trkpt lat="33.3312717" lon="10.2393804"><ele>229.0</ele><time>2026-04-26T09:23:39.686Z</time></trkpt><trkpt lat="33.3311731" lon="10.239219"><ele>229.0</ele><time>2026-04-26T09:23:40.682Z</time></trkpt><trkpt lat="33.3310701" lon="10.239064"><ele>229.0</ele><time>2026-04-26T09:23:41.669Z</time></trkpt><trkpt lat="33.3309593" lon="10.2389195"><ele>229.0</ele><time>2026-04-26T09:23:42.677Z</time></trkpt><trkpt lat="33.3308438" lon="10.2387815"><ele>229.0</ele><time>2026-04-26T09:23:43.674Z</time></trkpt><trkpt lat="33.330717" lon="10.2386507"><ele>229.0</ele><time>2026-04-26T09:23:44.695Z</time></trkpt><trkpt lat="33.3305882" lon="10.2385164"><ele>229.0</ele><time>2026-04-26T09:23:45.658Z</time></trkpt><trkpt lat="33.3304598" lon="10.2383795"><ele>229.33333333333331</ele><time>2026-04-26T09:23:46.665Z</time></trkpt><trkpt lat="33.3303321" lon="10.2382429"><ele>229.66666666666669</ele><time>2026-04-26T09:23:47.671Z</time></trkpt><trkpt lat="33.3302047" lon="10.2381082"><ele>230.0</ele><time>2026-04-26T09:23:48.661Z</time></trkpt><trkpt lat="33.3300744" lon="10.2379728"><ele>230.0</ele><time>2026-04-26T09:23:49.684Z</time></trkpt><trkpt lat="33.3299398" lon="10.2378371"><ele>230.0</ele><time>2026-04-26T09:23:50.684Z</time></trkpt><trkpt lat="33.3298113" lon="10.2376979"><ele>230.0</ele><time>2026-04-26T09:23:51.68Z</time></trkpt><trkpt lat="33.3296862" lon="10.2375606"><ele>230.0</ele><time>2026-04-26T09:23:52.67Z</time></trkpt><trkpt lat="33.3295606" lon="10.2374225"><ele>230.0</ele><time>2026-04-26T09:23:53.688Z</time></trkpt><trkpt lat="33.3294343" lon="10.2372822"><ele>230.0</ele><time>2026-04-26T09:23:54.676Z</time></trkpt><trkpt lat="33.3293127" lon="10.2371452"><ele>231.0</ele><time>2026-04-26T09:23:55.67Z</time></trkpt><trkpt lat="33.3291875" lon="10.2370035"><ele>232.0</ele><time>2026-04-26T09:23:56.674Z</time></trkpt><trkpt lat="33.3290606" lon="10.2368654"><ele>233.0</ele><time>2026-04-26T09:23:57.683Z</time></trkpt><trkpt lat="33.3289323" lon="10.2367263"><ele>233.0</ele><time>2026-04-26T09:23:58.687Z</time></trkpt><trkpt lat="33.3288026" lon="10.2365909"><ele>233.0</ele><time>2026-04-26T09:23:59.686Z</time></trkpt><trkpt lat="33.3286697" lon="10.2364532"><ele>233.0</ele><time>2026-04-26T09:24:00.673Z</time></trkpt><trkpt lat="33.3285409" lon="10.2363148"><ele>233.0</ele><time>2026-04-26T09:24:01.67Z</time></trkpt><trkpt lat="33.3284142" lon="10.2361771"><ele>233.0</ele><time>2026-04-26T09:24:02.662Z</time></trkpt><trkpt lat="33.3282881" lon="10.2360381"><ele>233.0</ele><time>2026-04-26T09:24:03.666Z</time></trkpt><trkpt lat="33.3281644" lon="10.2358927"><ele>233.33333333333334</ele><time>2026-04-26T09:24:04.675Z</time></trkpt><trkpt lat="33.3280407" lon="10.2357504"><ele>233.66666666666669</ele><time>2026-04-26T09:24:05.667Z</time></trkpt><trkpt lat="33.3279159" lon="10.2356077"><ele>234.0</ele><time>2026-04-26T09:24:06.686Z</time></trkpt><trkpt lat="33.3277923" lon="10.2354677"><ele>234.33333333333331</ele><time>2026-04-26T09:24:07.682Z</time></trkpt><trkpt lat="33.3276652" lon="10.2353296"><ele>234.66666666666666</ele><time>2026-04-26T09:24:08.685Z</time></trkpt><trkpt lat="33.327542" lon="10.235193"><ele>235.0</ele><time>2026-04-26T09:24:09.676Z</time></trkpt><trkpt lat="33.3274232" lon="10.2350564"><ele>235.0</ele><time>2026-04-26T09:24:10.677Z</time></trkpt><trkpt lat="33.3273032" lon="10.2349148"><ele>235.0</ele><time>2026-04-26T09:24:11.678Z</time></trkpt><trkpt lat="33.3271865" lon="10.2347739"><ele>235.0</ele><time>2026-04-26T09:24:12.674Z</time></trkpt><trkpt lat="33.3270628" lon="10.2346396"><ele>235.33333333333331</ele><time>2026-04-26T09:24:13.671Z</time></trkpt><trkpt lat="33.3269392" lon="10.2345093"><ele>235.66666666666669</ele><time>2026-04-26T09:24:14.675Z</time></trkpt><trkpt lat="33.3268162" lon="10.2343792"><ele>236.0</ele><time>2026-04-26T09:24:15.657Z</time></trkpt><trkpt lat="33.3266916" lon="10.2342564"><ele>236.0</ele><time>2026-04-26T09:24:16.671Z</time></trkpt><trkpt lat="33.3265683" lon="10.2341293"><ele>236.0</ele><time>2026-04-26T09:24:17.678Z</time></trkpt><trkpt lat="33.3264467" lon="10.2339946"><ele>236.0</ele><time>2026-04-26T09:24:18.676Z</time></trkpt><trkpt lat="33.3263241" lon="10.2338615"><ele>235.66666666666669</ele><time>2026-04-26T09:24:19.673Z</time></trkpt><trkpt lat="33.3262007" lon="10.2337294"><ele>235.33333333333331</ele><time>2026-04-26T09:24:20.674Z</time></trkpt><trkpt lat="33.3260795" lon="10.2335908"><ele>235.0</ele><time>2026-04-26T09:24:21.673Z</time></trkpt><trkpt lat="33.3259585" lon="10.2334488"><ele>235.0</ele><time>2026-04-26T09:24:22.68Z</time></trkpt><trkpt lat="33.3258354" lon="10.2333067"><ele>235.0</ele><time>2026-04-26T09:24:23.684Z</time></trkpt><trkpt lat="33.3257119" lon="10.2331663"><ele>235.0</ele><time>2026-04-26T09:24:24.68Z</time></trkpt><trkpt lat="33.3255885" lon="10.2330273"><ele>235.66666666666666</ele><time>2026-04-26T09:24:25.667Z</time></trkpt><trkpt lat="33.3254603" lon="10.232888"><ele>236.33333333333331</ele><time>2026-04-26T09:24:26.684Z</time></trkpt><trkpt lat="33.3253305" lon="10.2327507"><ele>237.0</ele><time>2026-04-26T09:24:27.666Z</time></trkpt><trkpt lat="33.3252017" lon="10.2326121"><ele>237.0</ele><time>2026-04-26T09:24:28.676Z</time></trkpt><trkpt lat="33.3250729" lon="10.2324724"><ele>237.0</ele><time>2026-04-26T09:24:29.678Z</time></trkpt><trkpt lat="33.3249447" lon="10.2323328"><ele>237.0</ele><time>2026-04-26T09:24:30.664Z</time></trkpt><trkpt lat="33.3248187" lon="10.2321904"><ele>237.66666666666669</ele><time>2026-04-26T09:24:31.663Z</time></trkpt><trkpt lat="33.3246912" lon="10.2320507"><ele>238.33333333333334</ele><time>2026-04-26T09:24:32.671Z</time></trkpt><trkpt lat="33.3245625" lon="10.2319033"><ele>239.0</ele><time>2026-04-26T09:24:33.668Z</time></trkpt><trkpt lat="33.3244381" lon="10.2317601"><ele>239.0</ele><time>2026-04-26T09:24:34.665Z</time></trkpt><trkpt lat="33.3243124" lon="10.23162"><ele>239.0</ele><time>2026-04-26T09:24:35.671Z</time></trkpt><trkpt lat="33.3241884" lon="10.2314803"><ele>239.0</ele><time>2026-04-26T09:24:36.698Z</time></trkpt><trkpt lat="33.3240622" lon="10.2313375"><ele>239.66666666666669</ele><time>2026-04-26T09:24:37.67Z</time></trkpt><trkpt lat="33.323937" lon="10.231201"><ele>240.33333333333331</ele><time>2026-04-26T09:24:38.697Z</time></trkpt><trkpt lat="33.3238125" lon="10.2310637"><ele>241.0</ele><time>2026-04-26T09:24:39.688Z</time></trkpt><trkpt lat="33.3236899" lon="10.2309243"><ele>241.0</ele><time>2026-04-26T09:24:40.685Z</time></trkpt><trkpt lat="33.3235642" lon="10.2307855"><ele>241.0</ele><time>2026-04-26T09:24:41.689Z</time></trkpt><trkpt lat="33.3234382" lon="10.2306446"><ele>241.0</ele><time>2026-04-26T09:24:42.689Z</time></trkpt><trkpt lat="33.3233174" lon="10.2305084"><ele>241.0</ele><time>2026-04-26T09:24:43.68Z</time></trkpt><trkpt lat="33.3231942" lon="10.2303748"><ele>241.0</ele><time>2026-04-26T09:24:44.682Z</time></trkpt><trkpt lat="33.3230683" lon="10.2302385"><ele>241.0</ele><time>2026-04-26T09:24:45.678Z</time></trkpt><trkpt lat="33.3229466" lon="10.2301033"><ele>241.0</ele><time>2026-04-26T09:24:46.676Z</time></trkpt><trkpt lat="33.3228237" lon="10.2299724"><ele>241.0</ele><time>2026-04-26T09:24:47.672Z</time></trkpt><trkpt lat="33.3226965" lon="10.2298384"><ele>241.0</ele><time>2026-04-26T09:24:48.678Z</time></trkpt><trkpt lat="33.3225678" lon="10.2297128"><ele>241.66666666666666</ele><time>2026-04-26T09:24:49.683Z</time></trkpt><trkpt lat="33.3224424" lon="10.2295903"><ele>242.33333333333331</ele><time>2026-04-26T09:24:50.67Z</time></trkpt><trkpt lat="33.3223227" lon="10.2294663"><ele>243.0</ele><time>2026-04-26T09:24:51.678Z</time></trkpt><trkpt lat="33.322209" lon="10.2293436"><ele>243.0</ele><time>2026-04-26T09:24:52.679Z</time></trkpt><trkpt lat="33.3220909" lon="10.2292152"><ele>243.0</ele><time>2026-04-26T09:24:53.679Z</time></trkpt><trkpt lat="33.3219792" lon="10.2290859"><ele>243.0</ele><time>2026-04-26T09:24:54.675Z</time></trkpt><trkpt lat="33.321866" lon="10.2289541"><ele>244.0</ele><time>2026-04-26T09:24:55.671Z</time></trkpt><trkpt lat="33.3217504" lon="10.2288296"><ele>245.0</ele><time>2026-04-26T09:24:56.67Z</time></trkpt><trkpt lat="33.321633" lon="10.2287012"><ele>246.0</ele><time>2026-04-26T09:24:57.672Z</time></trkpt><trkpt lat="33.3215138" lon="10.2285794"><ele>245.66666666666669</ele><time>2026-04-26T09:24:58.672Z</time></trkpt><trkpt lat="33.321384" lon="10.2284611"><ele>245.33333333333334</ele><time>2026-04-26T09:24:59.685Z</time></trkpt><trkpt lat="33.3212525" lon="10.2283395"><ele>245.0</ele><time>2026-04-26T09:25:00.675Z</time></trkpt><trkpt lat="33.3211172" lon="10.2282245"><ele>245.33333333333334</ele><time>2026-04-26T09:25:01.665Z</time></trkpt><trkpt lat="33.3209862" lon="10.2281155"><ele>245.66666666666669</ele><time>2026-04-26T09:25:02.67Z</time></trkpt><trkpt lat="33.3208527" lon="10.2280051"><ele>246.0</ele><time>2026-04-26T09:25:03.694Z</time></trkpt><trkpt lat="33.3207157" lon="10.2278965"><ele>246.0</ele><time>2026-04-26T09:25:04.676Z</time></trkpt><trkpt lat="33.3205846" lon="10.227792"><ele>246.0</ele><time>2026-04-26T09:25:05.7Z</time></trkpt><trkpt lat="33.3204599" lon="10.2276957"><ele>246.0</ele><time>2026-04-26T09:25:06.674Z</time></trkpt><trkpt lat="33.3203524" lon="10.2276118"><ele>246.0</ele><time>2026-04-26T09:25:07.676Z</time></trkpt><trkpt lat="33.3202674" lon="10.227538"><ele>246.00000000000003</ele><time>2026-04-26T09:25:08.691Z</time></trkpt><trkpt lat="33.3202091" lon="10.2274932"><ele>246.0</ele><time>2026-04-26T09:25:09.69Z</time></trkpt><trkpt lat="33.3201506" lon="10.2274431"><ele>246.00000000000003</ele><time>2026-04-26T09:25:11.685Z</time></trkpt><trkpt lat="33.3201043" lon="10.2273822"><ele>246.00000000000003</ele><time>2026-04-26T09:25:14.693Z</time></trkpt><trkpt lat="33.320037" lon="10.2273334"><ele>246.0</ele><time>2026-04-26T09:25:16.682Z</time></trkpt><trkpt lat="33.3199702" lon="10.2272949"><ele>246.00000000000003</ele><time>2026-04-26T09:25:17.673Z</time></trkpt><trkpt lat="33.3198973" lon="10.2272507"><ele>246.00000000000003</ele><time>2026-04-26T09:25:18.679Z</time></trkpt><trkpt lat="33.3198269" lon="10.2271987"><ele>246.0</ele><time>2026-04-26T09:25:19.669Z</time></trkpt><trkpt lat="33.3197399" lon="10.2271362"><ele>246.00000000000003</ele><time>2026-04-26T09:25:20.685Z</time></trkpt><trkpt lat="33.319652" lon="10.2270688"><ele>246.00000000000003</ele><time>2026-04-26T09:25:21.676Z</time></trkpt><trkpt lat="33.3195597" lon="10.2269938"><ele>246.0</ele><time>2026-04-26T09:25:22.682Z</time></trkpt><trkpt lat="33.3194632" lon="10.2269091"><ele>246.0</ele><time>2026-04-26T09:25:23.689Z</time></trkpt><trkpt lat="33.3193666" lon="10.2268262"><ele>246.0</ele><time>2026-04-26T09:25:24.684Z</time></trkpt><trkpt lat="33.3192651" lon="10.2267446"><ele>246.0</ele><time>2026-04-26T09:25:25.685Z</time></trkpt><trkpt lat="33.3191611" lon="10.2266676"><ele>246.0</ele><time>2026-04-26T09:25:26.677Z</time></trkpt><trkpt lat="33.3190488" lon="10.2265873"><ele>246.0</ele><time>2026-04-26T09:25:27.69Z</time></trkpt><trkpt lat="33.3189339" lon="10.2265117"><ele>247.75</ele><time>2026-04-26T09:25:28.682Z</time></trkpt><trkpt lat="33.31882" lon="10.2264312"><ele>249.5</ele><time>2026-04-26T09:25:29.693Z</time></trkpt><trkpt lat="33.3187101" lon="10.2263536"><ele>251.25</ele><time>2026-04-26T09:25:30.67Z</time></trkpt><trkpt lat="33.3186045" lon="10.2262849"><ele>253.0</ele><time>2026-04-26T09:25:31.672Z</time></trkpt><trkpt lat="33.3185107" lon="10.2262173"><ele>252.99999999999997</ele><time>2026-04-26T09:25:32.667Z</time></trkpt><trkpt lat="33.318424" lon="10.2261582"><ele>253.0</ele><time>2026-04-26T09:25:33.675Z</time></trkpt><trkpt lat="33.3183412" lon="10.2261012"><ele>253.0</ele><time>2026-04-26T09:25:34.679Z</time></trkpt><trkpt lat="33.3182743" lon="10.2260463"><ele>253.0</ele><time>2026-04-26T09:25:35.669Z</time></trkpt><trkpt lat="33.3182221" lon="10.2259985"><ele>252.99999999999997</ele><time>2026-04-26T09:25:36.68Z</time></trkpt><trkpt lat="33.3181434" lon="10.2259339"><ele>253.0</ele><time>2026-04-26T09:25:38.675Z</time></trkpt><trkpt lat="33.3180919" lon="10.225887"><ele>253.16666666666666</ele><time>2026-04-26T09:25:40.667Z</time></trkpt><trkpt lat="33.3180024" lon="10.2258368"><ele>253.33333333333331</ele><time>2026-04-26T09:25:42.664Z</time></trkpt><trkpt lat="33.3179347" lon="10.2257935"><ele>253.5</ele><time>2026-04-26T09:25:43.665Z</time></trkpt><trkpt lat="33.3178652" lon="10.2257499"><ele>253.66666666666669</ele><time>2026-04-26T09:25:44.688Z</time></trkpt><trkpt lat="33.3178035" lon="10.2256966"><ele>253.83333333333334</ele><time>2026-04-26T09:25:45.667Z</time></trkpt><trkpt lat="33.3177328" lon="10.2256388"><ele>254.0</ele><time>2026-04-26T09:25:46.689Z</time></trkpt><trkpt lat="33.3176599" lon="10.2255794"><ele>254.0</ele><time>2026-04-26T09:25:47.675Z</time></trkpt><trkpt lat="33.3175809" lon="10.225518"><ele>253.99999999999997</ele><time>2026-04-26T09:25:48.672Z</time></trkpt><trkpt lat="33.3174914" lon="10.2254507"><ele>253.99999999999997</ele><time>2026-04-26T09:25:49.685Z</time></trkpt><trkpt lat="33.3173939" lon="10.225372"><ele>254.0</ele><time>2026-04-26T09:25:50.671Z</time></trkpt><trkpt lat="33.3172901" lon="10.2252993"><ele>254.0</ele><time>2026-04-26T09:25:51.689Z</time></trkpt><trkpt lat="33.3171803" lon="10.2252248"><ele>253.75</ele><time>2026-04-26T09:25:52.681Z</time></trkpt><trkpt lat="33.3170681" lon="10.2251457"><ele>253.5</ele><time>2026-04-26T09:25:53.686Z</time></trkpt><trkpt lat="33.3169542" lon="10.2250679"><ele>253.25</ele><time>2026-04-26T09:25:54.67Z</time></trkpt><trkpt lat="33.3168389" lon="10.2249777"><ele>253.0</ele><time>2026-04-26T09:25:55.684Z</time></trkpt><trkpt lat="33.3167217" lon="10.2248871"><ele>253.5</ele><time>2026-04-26T09:25:56.689Z</time></trkpt><trkpt lat="33.3166051" lon="10.224791"><ele>254.0</ele><time>2026-04-26T09:25:57.684Z</time></trkpt><trkpt lat="33.3164834" lon="10.2247042"><ele>254.5</ele><time>2026-04-26T09:25:58.68Z</time></trkpt><trkpt lat="33.3163629" lon="10.2246166"><ele>255.0</ele><time>2026-04-26T09:25:59.68Z</time></trkpt><trkpt lat="33.3162423" lon="10.2245192"><ele>255.0</ele><time>2026-04-26T09:26:00.692Z</time></trkpt><trkpt lat="33.3161226" lon="10.2244203"><ele>255.0</ele><time>2026-04-26T09:26:01.657Z</time></trkpt><trkpt lat="33.3160032" lon="10.2243259"><ele>255.0</ele><time>2026-04-26T09:26:02.685Z</time></trkpt><trkpt lat="33.3158828" lon="10.2242341"><ele>255.0</ele><time>2026-04-26T09:26:03.677Z</time></trkpt><trkpt lat="33.3157581" lon="10.2241532"><ele>255.0</ele><time>2026-04-26T09:26:04.687Z</time></trkpt><trkpt lat="33.3156319" lon="10.2240686"><ele>255.0</ele><time>2026-04-26T09:26:05.683Z</time></trkpt><trkpt lat="33.3155085" lon="10.2239892"><ele>255.0</ele><time>2026-04-26T09:26:06.678Z</time></trkpt><trkpt lat="33.3153911" lon="10.2238949"><ele>255.0</ele><time>2026-04-26T09:26:07.69Z</time></trkpt><trkpt lat="33.3152808" lon="10.2237914"><ele>256.0</ele><time>2026-04-26T09:26:08.683Z</time></trkpt><trkpt lat="33.3151795" lon="10.2236845"><ele>257.0</ele><time>2026-04-26T09:26:09.68Z</time></trkpt><trkpt lat="33.3150811" lon="10.2235749"><ele>258.0</ele><time>2026-04-26T09:26:10.681Z</time></trkpt><trkpt lat="33.314982" lon="10.223474"><ele>259.0</ele><time>2026-04-26T09:26:11.668Z</time></trkpt><trkpt lat="33.3148962" lon="10.223376"><ele>259.0</ele><time>2026-04-26T09:26:12.671Z</time></trkpt><trkpt lat="33.3148212" lon="10.2232817"><ele>259.0</ele><time>2026-04-26T09:26:13.659Z</time></trkpt><trkpt lat="33.3147501" lon="10.2231878"><ele>259.0</ele><time>2026-04-26T09:26:14.682Z</time></trkpt><trkpt lat="33.3146816" lon="10.2230914"><ele>259.0</ele><time>2026-04-26T09:26:15.661Z</time></trkpt><trkpt lat="33.3146145" lon="10.2229929"><ele>259.0</ele><time>2026-04-26T09:26:16.689Z</time></trkpt><trkpt lat="33.314552" lon="10.2228932"><ele>258.25</ele><time>2026-04-26T09:26:17.687Z</time></trkpt><trkpt lat="33.3145036" lon="10.2227843"><ele>257.5</ele><time>2026-04-26T09:26:18.686Z</time></trkpt><trkpt lat="33.3144583" lon="10.2226668"><ele>256.75</ele><time>2026-04-26T09:26:19.679Z</time></trkpt><trkpt lat="33.3144251" lon="10.2225297"><ele>256.0</ele><time>2026-04-26T09:26:20.673Z</time></trkpt><trkpt lat="33.314389" lon="10.2223834"><ele>256.0</ele><time>2026-04-26T09:26:21.683Z</time></trkpt><trkpt lat="33.3143586" lon="10.2222331"><ele>256.0</ele><time>2026-04-26T09:26:22.668Z</time></trkpt><trkpt lat="33.3143362" lon="10.2220838"><ele>256.0</ele><time>2026-04-26T09:26:23.663Z</time></trkpt><trkpt lat="33.3143215" lon="10.221921"><ele>256.0</ele><time>2026-04-26T09:26:24.694Z</time></trkpt><trkpt lat="33.314302" lon="10.2217512"><ele>256.0</ele><time>2026-04-26T09:26:25.692Z</time></trkpt><trkpt lat="33.3142717" lon="10.2215728"><ele>256.0</ele><time>2026-04-26T09:26:26.68Z</time></trkpt><trkpt lat="33.3142332" lon="10.2213909"><ele>256.0</ele><time>2026-04-26T09:26:27.686Z</time></trkpt><trkpt lat="33.3141845" lon="10.2212019"><ele>256.0</ele><time>2026-04-26T09:26:28.665Z</time></trkpt><trkpt lat="33.3141413" lon="10.2210118"><ele>256.0</ele><time>2026-04-26T09:26:29.677Z</time></trkpt><trkpt lat="33.3140962" lon="10.2208242"><ele>256.0</ele><time>2026-04-26T09:26:30.683Z</time></trkpt><trkpt lat="33.3140555" lon="10.2206543"><ele>256.25</ele><time>2026-04-26T09:26:31.668Z</time></trkpt><trkpt lat="33.3140113" lon="10.2204912"><ele>256.5</ele><time>2026-04-26T09:26:32.665Z</time></trkpt><trkpt lat="33.3139661" lon="10.2203301"><ele>256.75</ele><time>2026-04-26T09:26:33.681Z</time></trkpt><trkpt lat="33.3139208" lon="10.2201741"><ele>257.0</ele><time>2026-04-26T09:26:34.679Z</time></trkpt><trkpt lat="33.3138786" lon="10.2200213"><ele>257.75</ele><time>2026-04-26T09:26:35.67Z</time></trkpt><trkpt lat="33.3138403" lon="10.2198685"><ele>258.5</ele><time>2026-04-26T09:26:36.675Z</time></trkpt><trkpt lat="33.3138053" lon="10.219714"><ele>259.25</ele><time>2026-04-26T09:26:37.663Z</time></trkpt><trkpt lat="33.3137725" lon="10.2195608"><ele>260.0</ele><time>2026-04-26T09:26:38.664Z</time></trkpt><trkpt lat="33.313735" lon="10.2194135"><ele>260.0</ele><time>2026-04-26T09:26:39.683Z</time></trkpt><trkpt lat="33.3136986" lon="10.2192603"><ele>260.0</ele><time>2026-04-26T09:26:40.697Z</time></trkpt><trkpt lat="33.3136675" lon="10.219105"><ele>260.0</ele><time>2026-04-26T09:26:41.668Z</time></trkpt><trkpt lat="33.3136473" lon="10.2189347"><ele>260.0</ele><time>2026-04-26T09:26:42.673Z</time></trkpt><trkpt lat="33.31363" lon="10.2187546"><ele>260.0</ele><time>2026-04-26T09:26:43.674Z</time></trkpt><trkpt lat="33.3136034" lon="10.2185688"><ele>260.0</ele><time>2026-04-26T09:26:44.673Z</time></trkpt><trkpt lat="33.3135792" lon="10.2183816"><ele>260.0</ele><time>2026-04-26T09:26:45.66Z</time></trkpt><trkpt lat="33.3135675" lon="10.2181915"><ele>260.33333333333337</ele><time>2026-04-26T09:26:46.674Z</time></trkpt><trkpt lat="33.3135694" lon="10.2180037"><ele>260.6666666666667</ele><time>2026-04-26T09:26:47.677Z</time></trkpt><trkpt lat="33.3135859" lon="10.2178115"><ele>261.0</ele><time>2026-04-26T09:26:48.677Z</time></trkpt><trkpt lat="33.3136134" lon="10.2176169"><ele>261.0</ele><time>2026-04-26T09:26:49.673Z</time></trkpt><trkpt lat="33.3136457" lon="10.2174273"><ele>261.0</ele><time>2026-04-26T09:26:50.666Z</time></trkpt><trkpt lat="33.3136888" lon="10.2172503"><ele>261.0</ele><time>2026-04-26T09:26:51.671Z</time></trkpt><trkpt lat="33.3137359" lon="10.2170777"><ele>262.3333333333333</ele><time>2026-04-26T09:26:52.688Z</time></trkpt><trkpt lat="33.3137845" lon="10.2168997"><ele>263.66666666666663</ele><time>2026-04-26T09:26:53.667Z</time></trkpt><trkpt lat="33.3138283" lon="10.2167263"><ele>265.0</ele><time>2026-04-26T09:26:54.676Z</time></trkpt><trkpt lat="33.3138702" lon="10.2165569"><ele>264.0</ele><time>2026-04-26T09:26:55.687Z</time></trkpt><trkpt lat="33.3139132" lon="10.2163834"><ele>263.0</ele><time>2026-04-26T09:26:56.684Z</time></trkpt><trkpt lat="33.3139589" lon="10.2162157"><ele>262.0</ele><time>2026-04-26T09:26:57.679Z</time></trkpt><trkpt lat="33.3140089" lon="10.2160463"><ele>261.0</ele><time>2026-04-26T09:26:58.676Z</time></trkpt><trkpt lat="33.3140661" lon="10.2158859"><ele>261.0</ele><time>2026-04-26T09:26:59.689Z</time></trkpt><trkpt lat="33.3141129" lon="10.215727"><ele>261.0</ele><time>2026-04-26T09:27:00.674Z</time></trkpt><trkpt lat="33.3141594" lon="10.2155676"><ele>261.0</ele><time>2026-04-26T09:27:01.67Z</time></trkpt><trkpt lat="33.3142141" lon="10.2154003"><ele>261.0</ele><time>2026-04-26T09:27:02.669Z</time></trkpt><trkpt lat="33.3142708" lon="10.215228"><ele>261.6666666666667</ele><time>2026-04-26T09:27:03.685Z</time></trkpt><trkpt lat="33.3143278" lon="10.2150533"><ele>262.33333333333337</ele><time>2026-04-26T09:27:04.691Z</time></trkpt><trkpt lat="33.3143841" lon="10.2148845"><ele>263.0</ele><time>2026-04-26T09:27:05.668Z</time></trkpt><trkpt lat="33.3144406" lon="10.214703"><ele>263.33333333333337</ele><time>2026-04-26T09:27:06.669Z</time></trkpt><trkpt lat="33.3144974" lon="10.2145283"><ele>263.6666666666667</ele><time>2026-04-26T09:27:07.689Z</time></trkpt><trkpt lat="33.3145598" lon="10.214346"><ele>264.0</ele><time>2026-04-26T09:27:08.664Z</time></trkpt><trkpt lat="33.3146165" lon="10.2141697"><ele>263.0</ele><time>2026-04-26T09:27:09.659Z</time></trkpt><trkpt lat="33.3146693" lon="10.2139824"><ele>262.0</ele><time>2026-04-26T09:27:10.656Z</time></trkpt><trkpt lat="33.3147136" lon="10.2138057"><ele>261.0</ele><time>2026-04-26T09:27:11.668Z</time></trkpt><trkpt lat="33.3147548" lon="10.2136248"><ele>261.0</ele><time>2026-04-26T09:27:12.666Z</time></trkpt><trkpt lat="33.3147954" lon="10.2134494"><ele>261.0</ele><time>2026-04-26T09:27:13.665Z</time></trkpt><trkpt lat="33.3148322" lon="10.2132761"><ele>261.0</ele><time>2026-04-26T09:27:14.68Z</time></trkpt><trkpt lat="33.3148547" lon="10.2130995"><ele>262.0</ele><time>2026-04-26T09:27:15.668Z</time></trkpt><trkpt lat="33.3148678" lon="10.2129199"><ele>263.0</ele><time>2026-04-26T09:27:16.679Z</time></trkpt><trkpt lat="33.3148641" lon="10.2127387"><ele>264.0</ele><time>2026-04-26T09:27:17.674Z</time></trkpt><trkpt lat="33.3148478" lon="10.2125615"><ele>264.0</ele><time>2026-04-26T09:27:18.668Z</time></trkpt><trkpt lat="33.3148245" lon="10.2123859"><ele>264.0</ele><time>2026-04-26T09:27:19.676Z</time></trkpt><trkpt lat="33.3148093" lon="10.2122026"><ele>264.0</ele><time>2026-04-26T09:27:20.666Z</time></trkpt><trkpt lat="33.3148101" lon="10.2120242"><ele>265.0</ele><time>2026-04-26T09:27:21.659Z</time></trkpt><trkpt lat="33.3148215" lon="10.2118325"><ele>266.0</ele><time>2026-04-26T09:27:22.682Z</time></trkpt><trkpt lat="33.3148376" lon="10.2116452"><ele>267.0</ele><time>2026-04-26T09:27:23.686Z</time></trkpt><trkpt lat="33.3148504" lon="10.2114677"><ele>267.0</ele><time>2026-04-26T09:27:24.673Z</time></trkpt><trkpt lat="33.3148601" lon="10.2112898"><ele>267.0</ele><time>2026-04-26T09:27:25.688Z</time></trkpt><trkpt lat="33.3148737" lon="10.2111146"><ele>267.0</ele><time>2026-04-26T09:27:26.661Z</time></trkpt><trkpt lat="33.3148811" lon="10.2109463"><ele>267.0</ele><time>2026-04-26T09:27:27.701Z</time></trkpt><trkpt lat="33.31489" lon="10.2107783"><ele>266.75</ele><time>2026-04-26T09:27:28.662Z</time></trkpt><trkpt lat="33.3148988" lon="10.2106059"><ele>266.5</ele><time>2026-04-26T09:27:29.674Z</time></trkpt><trkpt lat="33.3149" lon="10.2104277"><ele>266.25</ele><time>2026-04-26T09:27:30.685Z</time></trkpt><trkpt lat="33.3149" lon="10.2102511"><ele>266.0</ele><time>2026-04-26T09:27:31.669Z</time></trkpt><trkpt lat="33.3149016" lon="10.2100753"><ele>266.0</ele><time>2026-04-26T09:27:32.674Z</time></trkpt><trkpt lat="33.3149032" lon="10.2099009"><ele>266.0</ele><time>2026-04-26T09:27:33.681Z</time></trkpt><trkpt lat="33.3148907" lon="10.2097234"><ele>266.0</ele><time>2026-04-26T09:27:34.676Z</time></trkpt><trkpt lat="33.3148701" lon="10.2095472"><ele>266.0</ele><time>2026-04-26T09:27:35.681Z</time></trkpt><trkpt lat="33.3148419" lon="10.2093673"><ele>266.0</ele><time>2026-04-26T09:27:36.675Z</time></trkpt><trkpt lat="33.3148045" lon="10.2091871"><ele>266.0</ele><time>2026-04-26T09:27:37.687Z</time></trkpt><trkpt lat="33.3147532" lon="10.2089951"><ele>266.0</ele><time>2026-04-26T09:27:38.661Z</time></trkpt><trkpt lat="33.3147012" lon="10.2088049"><ele>266.6666666666667</ele><time>2026-04-26T09:27:39.668Z</time></trkpt><trkpt lat="33.3146474" lon="10.2086116"><ele>267.3333333333333</ele><time>2026-04-26T09:27:40.673Z</time></trkpt><trkpt lat="33.3145912" lon="10.2084235"><ele>268.0</ele><time>2026-04-26T09:27:41.674Z</time></trkpt><trkpt lat="33.3145322" lon="10.208242"><ele>268.0</ele><time>2026-04-26T09:27:42.683Z</time></trkpt><trkpt lat="33.3144739" lon="10.2080723"><ele>268.0</ele><time>2026-04-26T09:27:43.667Z</time></trkpt><trkpt lat="33.314416" lon="10.2079085"><ele>268.0</ele><time>2026-04-26T09:27:44.668Z</time></trkpt><trkpt lat="33.3143508" lon="10.2077489"><ele>268.0</ele><time>2026-04-26T09:27:45.667Z</time></trkpt><trkpt lat="33.3142829" lon="10.207594"><ele>268.0</ele><time>2026-04-26T09:27:46.673Z</time></trkpt><trkpt lat="33.3142082" lon="10.2074371"><ele>268.0</ele><time>2026-04-26T09:27:47.68Z</time></trkpt><trkpt lat="33.3141389" lon="10.2072774"><ele>268.0</ele><time>2026-04-26T09:27:48.689Z</time></trkpt><trkpt lat="33.3140739" lon="10.2071084"><ele>269.66666666666663</ele><time>2026-04-26T09:27:49.678Z</time></trkpt><trkpt lat="33.3140143" lon="10.20694"><ele>271.3333333333333</ele><time>2026-04-26T09:27:50.686Z</time></trkpt><trkpt lat="33.3139591" lon="10.2067689"><ele>273.0</ele><time>2026-04-26T09:27:51.673Z</time></trkpt><trkpt lat="33.3139076" lon="10.206597"><ele>273.0</ele><time>2026-04-26T09:27:52.667Z</time></trkpt><trkpt lat="33.3138582" lon="10.2064233"><ele>273.0</ele><time>2026-04-26T09:27:53.684Z</time></trkpt><trkpt lat="33.3138096" lon="10.2062451"><ele>273.0</ele><time>2026-04-26T09:27:54.701Z</time></trkpt><trkpt lat="33.3137626" lon="10.2060669"><ele>273.0</ele><time>2026-04-26T09:27:55.682Z</time></trkpt><trkpt lat="33.3137132" lon="10.2058919"><ele>273.0</ele><time>2026-04-26T09:27:56.665Z</time></trkpt><trkpt lat="33.3136664" lon="10.2057143"><ele>273.0</ele><time>2026-04-26T09:27:57.679Z</time></trkpt><trkpt lat="33.3136135" lon="10.2055332"><ele>274.6666666666667</ele><time>2026-04-26T09:27:58.682Z</time></trkpt><trkpt lat="33.3135647" lon="10.2053577"><ele>276.33333333333337</ele><time>2026-04-26T09:27:59.688Z</time></trkpt><trkpt lat="33.3135174" lon="10.2051813"><ele>278.0</ele><time>2026-04-26T09:28:00.691Z</time></trkpt><trkpt lat="33.3134704" lon="10.2050027"><ele>278.6666666666667</ele><time>2026-04-26T09:28:01.673Z</time></trkpt><trkpt lat="33.3134316" lon="10.2048141"><ele>279.3333333333333</ele><time>2026-04-26T09:28:02.668Z</time></trkpt><trkpt lat="33.3133986" lon="10.2046221"><ele>280.0</ele><time>2026-04-26T09:28:03.676Z</time></trkpt><trkpt lat="33.3133632" lon="10.204431"><ele>280.0</ele><time>2026-04-26T09:28:04.663Z</time></trkpt><trkpt lat="33.3133314" lon="10.2042422"><ele>280.0</ele><time>2026-04-26T09:28:05.68Z</time></trkpt><trkpt lat="33.3132905" lon="10.2040519"><ele>280.0</ele><time>2026-04-26T09:28:06.673Z</time></trkpt><trkpt lat="33.3132413" lon="10.203857"><ele>281.3333333333333</ele><time>2026-04-26T09:28:07.675Z</time></trkpt><trkpt lat="33.3131856" lon="10.2036531"><ele>282.6666666666667</ele><time>2026-04-26T09:28:08.681Z</time></trkpt><trkpt lat="33.3131278" lon="10.2034436"><ele>284.0</ele><time>2026-04-26T09:28:09.674Z</time></trkpt><trkpt lat="33.3130759" lon="10.2032321"><ele>282.6666666666667</ele><time>2026-04-26T09:28:10.675Z</time></trkpt><trkpt lat="33.3130232" lon="10.2030144"><ele>281.3333333333333</ele><time>2026-04-26T09:28:11.666Z</time></trkpt><trkpt lat="33.3129712" lon="10.2027949"><ele>280.0</ele><time>2026-04-26T09:28:12.67Z</time></trkpt><trkpt lat="33.3129209" lon="10.2025889"><ele>280.0</ele><time>2026-04-26T09:28:13.68Z</time></trkpt><trkpt lat="33.3128736" lon="10.2023979"><ele>280.0</ele><time>2026-04-26T09:28:14.667Z</time></trkpt><trkpt lat="33.3128286" lon="10.2022157"><ele>280.0</ele><time>2026-04-26T09:28:15.676Z</time></trkpt><trkpt lat="33.3127909" lon="10.2020386"><ele>280.3333333333333</ele><time>2026-04-26T09:28:16.675Z</time></trkpt><trkpt lat="33.3127708" lon="10.2018637"><ele>280.6666666666667</ele><time>2026-04-26T09:28:17.702Z</time></trkpt><trkpt lat="33.3127647" lon="10.2016793"><ele>281.0</ele><time>2026-04-26T09:28:18.667Z</time></trkpt><trkpt lat="33.3127672" lon="10.2014879"><ele>279.6666666666667</ele><time>2026-04-26T09:28:19.671Z</time></trkpt><trkpt lat="33.3127763" lon="10.2012937"><ele>278.3333333333333</ele><time>2026-04-26T09:28:20.694Z</time></trkpt><trkpt lat="33.3127857" lon="10.2010994"><ele>277.0</ele><time>2026-04-26T09:28:21.684Z</time></trkpt><trkpt lat="33.3127963" lon="10.2009078"><ele>277.0</ele><time>2026-04-26T09:28:22.663Z</time></trkpt><trkpt lat="33.3128107" lon="10.2007177"><ele>277.0</ele><time>2026-04-26T09:28:23.67Z</time></trkpt><trkpt lat="33.3128365" lon="10.2005255"><ele>277.0</ele><time>2026-04-26T09:28:24.678Z</time></trkpt><trkpt lat="33.3128738" lon="10.2003461"><ele>276.75</ele><time>2026-04-26T09:28:25.663Z</time></trkpt><trkpt lat="33.3129065" lon="10.20018"><ele>276.5</ele><time>2026-04-26T09:28:26.669Z</time></trkpt><trkpt lat="33.312938" lon="10.2000308"><ele>276.25</ele><time>2026-04-26T09:28:27.682Z</time></trkpt><trkpt lat="33.3129665" lon="10.1998925"><ele>276.0</ele><time>2026-04-26T09:28:28.665Z</time></trkpt><trkpt lat="33.3129876" lon="10.1997505"><ele>277.25</ele><time>2026-04-26T09:28:29.672Z</time></trkpt><trkpt lat="33.3130114" lon="10.1995979"><ele>278.5</ele><time>2026-04-26T09:28:30.686Z</time></trkpt><trkpt lat="33.3130278" lon="10.1994393"><ele>279.75</ele><time>2026-04-26T09:28:31.666Z</time></trkpt><trkpt lat="33.3130509" lon="10.1992671"><ele>281.0</ele><time>2026-04-26T09:28:32.654Z</time></trkpt><trkpt lat="33.3130842" lon="10.1990906"><ele>281.6666666666667</ele><time>2026-04-26T09:28:33.674Z</time></trkpt><trkpt lat="33.3131185" lon="10.19891"><ele>282.3333333333333</ele><time>2026-04-26T09:28:34.663Z</time></trkpt><trkpt lat="33.3131583" lon="10.1987284"><ele>283.0</ele><time>2026-04-26T09:28:35.679Z</time></trkpt><trkpt lat="33.3131952" lon="10.1985433"><ele>283.0</ele><time>2026-04-26T09:28:36.661Z</time></trkpt><trkpt lat="33.3132315" lon="10.1983598"><ele>283.0</ele><time>2026-04-26T09:28:37.683Z</time></trkpt><trkpt lat="33.3132713" lon="10.1981815"><ele>283.0</ele><time>2026-04-26T09:28:38.699Z</time></trkpt><trkpt lat="33.3133112" lon="10.1980089"><ele>283.5</ele><time>2026-04-26T09:28:39.681Z</time></trkpt><trkpt lat="33.3133546" lon="10.1978386"><ele>284.0</ele><time>2026-04-26T09:28:40.682Z</time></trkpt><trkpt lat="33.3133969" lon="10.1976652"><ele>284.5</ele><time>2026-04-26T09:28:41.667Z</time></trkpt><trkpt lat="33.3134341" lon="10.1974916"><ele>285.0</ele><time>2026-04-26T09:28:42.665Z</time></trkpt><trkpt lat="33.3134501" lon="10.197319"><ele>285.0</ele><time>2026-04-26T09:28:43.673Z</time></trkpt><trkpt lat="33.3134487" lon="10.1971487"><ele>285.0</ele><time>2026-04-26T09:28:44.678Z</time></trkpt><trkpt lat="33.3134341" lon="10.1969698"><ele>285.0</ele><time>2026-04-26T09:28:45.682Z</time></trkpt><trkpt lat="33.3134082" lon="10.1967964"><ele>285.0</ele><time>2026-04-26T09:28:46.668Z</time></trkpt><trkpt lat="33.3133644" lon="10.1966157"><ele>285.0</ele><time>2026-04-26T09:28:47.679Z</time></trkpt><trkpt lat="33.3133174" lon="10.1964272"><ele>285.0</ele><time>2026-04-26T09:28:48.678Z</time></trkpt><trkpt lat="33.3132673" lon="10.19624"><ele>285.0</ele><time>2026-04-26T09:28:49.674Z</time></trkpt><trkpt lat="33.3132174" lon="10.196055"><ele>285.0</ele><time>2026-04-26T09:28:50.689Z</time></trkpt><trkpt lat="33.31316" lon="10.1958651"><ele>285.0</ele><time>2026-04-26T09:28:51.674Z</time></trkpt><trkpt lat="33.3131043" lon="10.1956736"><ele>285.0</ele><time>2026-04-26T09:28:52.657Z</time></trkpt><trkpt lat="33.3130437" lon="10.1954844"><ele>286.3333333333333</ele><time>2026-04-26T09:28:53.67Z</time></trkpt><trkpt lat="33.3129762" lon="10.195289"><ele>287.66666666666663</ele><time>2026-04-26T09:28:54.68Z</time></trkpt><trkpt lat="33.3129048" lon="10.1951049"><ele>289.0</ele><time>2026-04-26T09:28:55.68Z</time></trkpt><trkpt lat="33.3128253" lon="10.194922"><ele>288.0</ele><time>2026-04-26T09:28:56.672Z</time></trkpt><trkpt lat="33.3127399" lon="10.194733"><ele>287.0</ele><time>2026-04-26T09:28:57.682Z</time></trkpt><trkpt lat="33.3126524" lon="10.1945554"><ele>286.0</ele><time>2026-04-26T09:28:58.669Z</time></trkpt><trkpt lat="33.3125648" lon="10.1943667"><ele>286.0</ele><time>2026-04-26T09:28:59.685Z</time></trkpt><trkpt lat="33.3124777" lon="10.1941862"><ele>286.0</ele><time>2026-04-26T09:29:00.708Z</time></trkpt><trkpt lat="33.3123911" lon="10.1940077"><ele>286.0</ele><time>2026-04-26T09:29:01.675Z</time></trkpt><trkpt lat="33.312301" lon="10.1938104"><ele>287.0</ele><time>2026-04-26T09:29:02.691Z</time></trkpt><trkpt lat="33.3122005" lon="10.1936019"><ele>288.0</ele><time>2026-04-26T09:29:03.676Z</time></trkpt><trkpt lat="33.3120891" lon="10.1933992"><ele>289.0</ele><time>2026-04-26T09:29:04.682Z</time></trkpt><trkpt lat="33.3119733" lon="10.1932032"><ele>288.3333333333333</ele><time>2026-04-26T09:29:05.675Z</time></trkpt><trkpt lat="33.311862" lon="10.1930122"><ele>287.6666666666667</ele><time>2026-04-26T09:29:06.68Z</time></trkpt><trkpt lat="33.311747" lon="10.1928383"><ele>287.0</ele><time>2026-04-26T09:29:07.697Z</time></trkpt><trkpt lat="33.3116259" lon="10.1926848"><ele>287.0</ele><time>2026-04-26T09:29:08.682Z</time></trkpt><trkpt lat="33.3115116" lon="10.1925393"><ele>287.0</ele><time>2026-04-26T09:29:09.674Z</time></trkpt><trkpt lat="33.3114157" lon="10.1923962"><ele>287.0</ele><time>2026-04-26T09:29:10.675Z</time></trkpt><trkpt lat="33.3113219" lon="10.1922502"><ele>289.0</ele><time>2026-04-26T09:29:11.693Z</time></trkpt><trkpt lat="33.3112158" lon="10.1920982"><ele>291.0</ele><time>2026-04-26T09:29:12.673Z</time></trkpt><trkpt lat="33.311104" lon="10.19195"><ele>293.0</ele><time>2026-04-26T09:29:13.652Z</time></trkpt><trkpt lat="33.3109987" lon="10.1918013"><ele>293.0</ele><time>2026-04-26T09:29:14.66Z</time></trkpt><trkpt lat="33.3109031" lon="10.1916559"><ele>293.0</ele><time>2026-04-26T09:29:15.663Z</time></trkpt><trkpt lat="33.3108047" lon="10.1915245"><ele>293.0</ele><time>2026-04-26T09:29:16.674Z</time></trkpt><trkpt lat="33.310698" lon="10.1914161"><ele>293.0</ele><time>2026-04-26T09:29:17.713Z</time></trkpt><trkpt lat="33.3105685" lon="10.1913365"><ele>293.33333333333337</ele><time>2026-04-26T09:29:18.667Z</time></trkpt><trkpt lat="33.310422" lon="10.1912665"><ele>293.6666666666667</ele><time>2026-04-26T09:29:19.673Z</time></trkpt><trkpt lat="33.3102878" lon="10.1911819"><ele>294.0</ele><time>2026-04-26T09:29:20.678Z</time></trkpt><trkpt lat="33.310144" lon="10.1910931"><ele>294.0</ele><time>2026-04-26T09:29:21.676Z</time></trkpt><trkpt lat="33.3099994" lon="10.1910179"><ele>294.0</ele><time>2026-04-26T09:29:22.694Z</time></trkpt><trkpt lat="33.3098545" lon="10.1909398"><ele>294.0</ele><time>2026-04-26T09:29:23.681Z</time></trkpt><trkpt lat="33.3097112" lon="10.1908631"><ele>294.6666666666667</ele><time>2026-04-26T09:29:24.671Z</time></trkpt><trkpt lat="33.3095698" lon="10.1907741"><ele>295.33333333333337</ele><time>2026-04-26T09:29:25.669Z</time></trkpt><trkpt lat="33.3094372" lon="10.1906773"><ele>296.0</ele><time>2026-04-26T09:29:26.689Z</time></trkpt><trkpt lat="33.3093069" lon="10.1905837"><ele>296.0</ele><time>2026-04-26T09:29:27.698Z</time></trkpt><trkpt lat="33.3091769" lon="10.190489"><ele>296.0</ele><time>2026-04-26T09:29:28.684Z</time></trkpt><trkpt lat="33.3090542" lon="10.1903878"><ele>296.0</ele><time>2026-04-26T09:29:29.676Z</time></trkpt><trkpt lat="33.3089371" lon="10.1902797"><ele>296.0</ele><time>2026-04-26T09:29:30.669Z</time></trkpt><trkpt lat="33.308823" lon="10.1901685"><ele>296.0</ele><time>2026-04-26T09:29:31.674Z</time></trkpt><trkpt lat="33.308714" lon="10.1900573"><ele>296.0</ele><time>2026-04-26T09:29:32.666Z</time></trkpt><trkpt lat="33.3086031" lon="10.1899472"><ele>296.0</ele><time>2026-04-26T09:29:33.67Z</time></trkpt><trkpt lat="33.3084966" lon="10.1898337"><ele>296.0</ele><time>2026-04-26T09:29:34.673Z</time></trkpt><trkpt lat="33.3083878" lon="10.1897171"><ele>296.5</ele><time>2026-04-26T09:29:35.666Z</time></trkpt><trkpt lat="33.3082891" lon="10.1895902"><ele>297.0</ele><time>2026-04-26T09:29:36.666Z</time></trkpt><trkpt lat="33.3082008" lon="10.1894594"><ele>297.5</ele><time>2026-04-26T09:29:37.693Z</time></trkpt><trkpt lat="33.308116" lon="10.1893403"><ele>298.0</ele><time>2026-04-26T09:29:38.672Z</time></trkpt><trkpt lat="33.3080372" lon="10.1892331"><ele>298.25</ele><time>2026-04-26T09:29:39.663Z</time></trkpt><trkpt lat="33.307953" lon="10.1891333"><ele>298.5</ele><time>2026-04-26T09:29:40.684Z</time></trkpt><trkpt lat="33.3078673" lon="10.1890326"><ele>298.75</ele><time>2026-04-26T09:29:41.665Z</time></trkpt><trkpt lat="33.3077742" lon="10.1889294"><ele>299.0</ele><time>2026-04-26T09:29:42.68Z</time></trkpt><trkpt lat="33.3076832" lon="10.1888248"><ele>299.5</ele><time>2026-04-26T09:29:43.67Z</time></trkpt><trkpt lat="33.307584" lon="10.1887257"><ele>300.0</ele><time>2026-04-26T09:29:44.681Z</time></trkpt><trkpt lat="33.3074742" lon="10.1886366"><ele>300.5</ele><time>2026-04-26T09:29:45.687Z</time></trkpt><trkpt lat="33.3073586" lon="10.1885632"><ele>301.0</ele><time>2026-04-26T09:29:46.689Z</time></trkpt><trkpt lat="33.3072372" lon="10.1885045"><ele>301.0</ele><time>2026-04-26T09:29:47.664Z</time></trkpt><trkpt lat="33.3071193" lon="10.1884595"><ele>301.0</ele><time>2026-04-26T09:29:48.704Z</time></trkpt><trkpt lat="33.3070037" lon="10.1884218"><ele>301.0</ele><time>2026-04-26T09:29:49.697Z</time></trkpt><trkpt lat="33.3068866" lon="10.1883976"><ele>301.0</ele><time>2026-04-26T09:29:50.673Z</time></trkpt><trkpt lat="33.3067674" lon="10.1883765"><ele>301.0</ele><time>2026-04-26T09:29:51.69Z</time></trkpt><trkpt lat="33.3066481" lon="10.1883531"><ele>301.0</ele><time>2026-04-26T09:29:52.681Z</time></trkpt><trkpt lat="33.3065334" lon="10.188324"><ele>301.0</ele><time>2026-04-26T09:29:53.692Z</time></trkpt><trkpt lat="33.3064212" lon="10.1882821"><ele>301.0</ele><time>2026-04-26T09:29:54.673Z</time></trkpt><trkpt lat="33.3063214" lon="10.1882176"><ele>302.2</ele><time>2026-04-26T09:29:55.683Z</time></trkpt><trkpt lat="33.3062322" lon="10.1881439"><ele>303.40000000000003</ele><time>2026-04-26T09:29:56.679Z</time></trkpt><trkpt lat="33.3061414" lon="10.1880684"><ele>304.6</ele><time>2026-04-26T09:29:57.69Z</time></trkpt><trkpt lat="33.3060618" lon="10.187999"><ele>305.8</ele><time>2026-04-26T09:29:58.679Z</time></trkpt><trkpt lat="33.3059801" lon="10.1879184"><ele>307.0</ele><time>2026-04-26T09:29:59.68Z</time></trkpt><trkpt lat="33.3058783" lon="10.1878205"><ele>307.0</ele><time>2026-04-26T09:30:00.668Z</time></trkpt><trkpt lat="33.3057836" lon="10.1877238"><ele>307.0</ele><time>2026-04-26T09:30:01.681Z</time></trkpt><trkpt lat="33.305702" lon="10.1876189"><ele>307.0</ele><time>2026-04-26T09:30:02.665Z</time></trkpt><trkpt lat="33.3056383" lon="10.1875162"><ele>307.0</ele><time>2026-04-26T09:30:03.676Z</time></trkpt><trkpt lat="33.305599" lon="10.1874134"><ele>307.0</ele><time>2026-04-26T09:30:04.704Z</time></trkpt><trkpt lat="33.3055645" lon="10.1873032"><ele>307.25</ele><time>2026-04-26T09:30:05.664Z</time></trkpt><trkpt lat="33.3055371" lon="10.1871695"><ele>307.5</ele><time>2026-04-26T09:30:06.665Z</time></trkpt><trkpt lat="33.3055104" lon="10.1870304"><ele>307.75</ele><time>2026-04-26T09:30:07.688Z</time></trkpt><trkpt lat="33.305486" lon="10.1868879"><ele>308.0</ele><time>2026-04-26T09:30:08.669Z</time></trkpt><trkpt lat="33.305458" lon="10.1867335"><ele>308.0</ele><time>2026-04-26T09:30:09.666Z</time></trkpt><trkpt lat="33.3054304" lon="10.1865859"><ele>308.0</ele><time>2026-04-26T09:30:10.672Z</time></trkpt><trkpt lat="33.3054151" lon="10.1864509"><ele>308.0</ele><time>2026-04-26T09:30:11.679Z</time></trkpt><trkpt lat="33.3054175" lon="10.1863217"><ele>308.0</ele><time>2026-04-26T09:30:12.67Z</time></trkpt><trkpt lat="33.3054211" lon="10.186201"><ele>308.0</ele><time>2026-04-26T09:30:13.66Z</time></trkpt><trkpt lat="33.3054043" lon="10.1860725"><ele>309.0</ele><time>2026-04-26T09:30:14.675Z</time></trkpt><trkpt lat="33.3053634" lon="10.18594"><ele>310.0</ele><time>2026-04-26T09:30:15.678Z</time></trkpt><trkpt lat="33.3053131" lon="10.1858116"><ele>311.0</ele><time>2026-04-26T09:30:16.681Z</time></trkpt><trkpt lat="33.3052512" lon="10.1856843"><ele>312.0</ele><time>2026-04-26T09:30:17.671Z</time></trkpt><trkpt lat="33.305187" lon="10.1855544"><ele>312.5</ele><time>2026-04-26T09:30:18.672Z</time></trkpt><trkpt lat="33.3051286" lon="10.1854321"><ele>313.0</ele><time>2026-04-26T09:30:19.69Z</time></trkpt><trkpt lat="33.3050633" lon="10.1853115"><ele>313.5</ele><time>2026-04-26T09:30:20.668Z</time></trkpt><trkpt lat="33.3050085" lon="10.18519"><ele>314.0</ele><time>2026-04-26T09:30:21.676Z</time></trkpt><trkpt lat="33.3049546" lon="10.1850664"><ele>314.0</ele><time>2026-04-26T09:30:22.68Z</time></trkpt><trkpt lat="33.3049107" lon="10.184952"><ele>314.0</ele><time>2026-04-26T09:30:23.676Z</time></trkpt><trkpt lat="33.3048642" lon="10.1848386"><ele>314.0</ele><time>2026-04-26T09:30:24.684Z</time></trkpt><trkpt lat="33.3048196" lon="10.1847378"><ele>314.0</ele><time>2026-04-26T09:30:25.693Z</time></trkpt><trkpt lat="33.3047785" lon="10.1846491"><ele>314.0</ele><time>2026-04-26T09:30:26.669Z</time></trkpt><trkpt lat="33.3047396" lon="10.1845492"><ele>317.25</ele><time>2026-04-26T09:30:27.67Z</time></trkpt><trkpt lat="33.3046974" lon="10.1844206"><ele>320.5</ele><time>2026-04-26T09:30:28.696Z</time></trkpt><trkpt lat="33.3046557" lon="10.1842723"><ele>323.75</ele><time>2026-04-26T09:30:29.689Z</time></trkpt><trkpt lat="33.3046329" lon="10.1840964"><ele>327.0</ele><time>2026-04-26T09:30:30.667Z</time></trkpt><trkpt lat="33.3046339" lon="10.183907"><ele>331.3333333333333</ele><time>2026-04-26T09:30:31.669Z</time></trkpt><trkpt lat="33.3046339" lon="10.1837064"><ele>335.66666666666663</ele><time>2026-04-26T09:30:32.686Z</time></trkpt><trkpt lat="33.3046437" lon="10.1835101"><ele>340.0</ele><time>2026-04-26T09:30:33.69Z</time></trkpt><trkpt lat="33.304671" lon="10.1833161"><ele>339.75</ele><time>2026-04-26T09:30:34.664Z</time></trkpt><trkpt lat="33.3047053" lon="10.1831249"><ele>339.5</ele><time>2026-04-26T09:30:35.673Z</time></trkpt><trkpt lat="33.3047347" lon="10.1829493"><ele>339.25</ele><time>2026-04-26T09:30:36.668Z</time></trkpt><trkpt lat="33.3047572" lon="10.1827946"><ele>339.0</ele><time>2026-04-26T09:30:37.693Z</time></trkpt><trkpt lat="33.3047683" lon="10.1826471"><ele>339.0</ele><time>2026-04-26T09:30:38.677Z</time></trkpt><trkpt lat="33.3047487" lon="10.1824967"><ele>339.0</ele><time>2026-04-26T09:30:39.682Z</time></trkpt><trkpt lat="33.3047014" lon="10.1823719"><ele>339.0</ele><time>2026-04-26T09:30:40.677Z</time></trkpt><trkpt lat="33.3046264" lon="10.1822484"><ele>339.0</ele><time>2026-04-26T09:30:41.68Z</time></trkpt><trkpt lat="33.3045483" lon="10.1821309"><ele>340.79999999999995</ele><time>2026-04-26T09:30:42.667Z</time></trkpt><trkpt lat="33.3044858" lon="10.1820279"><ele>342.59999999999997</ele><time>2026-04-26T09:30:43.663Z</time></trkpt><trkpt lat="33.304434" lon="10.1819165"><ele>344.4</ele><time>2026-04-26T09:30:44.67Z</time></trkpt><trkpt lat="33.3043776" lon="10.1818011"><ele>346.2</ele><time>2026-04-26T09:30:45.682Z</time></trkpt><trkpt lat="33.3043202" lon="10.1816989"><ele>348.0</ele><time>2026-04-26T09:30:46.683Z</time></trkpt><trkpt lat="33.3042689" lon="10.1816039"><ele>351.0</ele><time>2026-04-26T09:30:47.665Z</time></trkpt><trkpt lat="33.3042141" lon="10.1814952"><ele>354.0</ele><time>2026-04-26T09:30:48.675Z</time></trkpt><trkpt lat="33.304151" lon="10.1813823"><ele>357.0</ele><time>2026-04-26T09:30:49.687Z</time></trkpt><trkpt lat="33.3040757" lon="10.1812628"><ele>360.0</ele><time>2026-04-26T09:30:50.683Z</time></trkpt><trkpt lat="33.3039735" lon="10.1811494"><ele>357.6666666666667</ele><time>2026-04-26T09:30:51.683Z</time></trkpt><trkpt lat="33.3038512" lon="10.1810473"><ele>355.33333333333337</ele><time>2026-04-26T09:30:52.694Z</time></trkpt><trkpt lat="33.3037189" lon="10.1809445"><ele>353.0</ele><time>2026-04-26T09:30:53.698Z</time></trkpt><trkpt lat="33.3036023" lon="10.1808422"><ele>353.0</ele><time>2026-04-26T09:30:54.673Z</time></trkpt><trkpt lat="33.3034811" lon="10.1807187"><ele>353.0</ele><time>2026-04-26T09:30:55.677Z</time></trkpt><trkpt lat="33.3033595" lon="10.1805602"><ele>353.0</ele><time>2026-04-26T09:30:56.666Z</time></trkpt><trkpt lat="33.3032347" lon="10.1803675"><ele>353.0</ele><time>2026-04-26T09:30:57.69Z</time></trkpt><trkpt lat="33.3031162" lon="10.1801518"><ele>353.0</ele><time>2026-04-26T09:30:58.685Z</time></trkpt><trkpt lat="33.3030089" lon="10.179926"><ele>353.0</ele><time>2026-04-26T09:30:59.687Z</time></trkpt><trkpt lat="33.302919" lon="10.1797002"><ele>348.0</ele><time>2026-04-26T09:31:00.671Z</time></trkpt><trkpt lat="33.3028523" lon="10.1794957"><ele>343.0</ele><time>2026-04-26T09:31:01.69Z</time></trkpt><trkpt lat="33.3028072" lon="10.1793239"><ele>338.0</ele><time>2026-04-26T09:31:02.671Z</time></trkpt><trkpt lat="33.3027841" lon="10.1791806"><ele>338.0</ele><time>2026-04-26T09:31:03.698Z</time></trkpt><trkpt lat="33.3027821" lon="10.17905"><ele>338.0</ele><time>2026-04-26T09:31:04.682Z</time></trkpt><trkpt lat="33.3028053" lon="10.1789284"><ele>338.0</ele><time>2026-04-26T09:31:05.689Z</time></trkpt><trkpt lat="33.3028432" lon="10.1788164"><ele>338.0</ele><time>2026-04-26T09:31:06.686Z</time></trkpt><trkpt lat="33.3028984" lon="10.1787106"><ele>338.0</ele><time>2026-04-26T09:31:07.68Z</time></trkpt><trkpt lat="33.3029586" lon="10.1786167"><ele>337.4</ele><time>2026-04-26T09:31:08.678Z</time></trkpt><trkpt lat="33.3030146" lon="10.1785139"><ele>336.79999999999995</ele><time>2026-04-26T09:31:09.692Z</time></trkpt><trkpt lat="33.3030691" lon="10.1783988"><ele>336.2</ele><time>2026-04-26T09:31:10.678Z</time></trkpt><trkpt lat="33.3031195" lon="10.1782834"><ele>335.6</ele><time>2026-04-26T09:31:11.665Z</time></trkpt><trkpt lat="33.303175" lon="10.1781608"><ele>335.0</ele><time>2026-04-26T09:31:12.66Z</time></trkpt><trkpt lat="33.3032374" lon="10.17804"><ele>336.75</ele><time>2026-04-26T09:31:13.689Z</time></trkpt><trkpt lat="33.3033018" lon="10.1779236"><ele>338.5</ele><time>2026-04-26T09:31:14.684Z</time></trkpt><trkpt lat="33.3033599" lon="10.1777999"><ele>340.25</ele><time>2026-04-26T09:31:15.675Z</time></trkpt><trkpt lat="33.3034126" lon="10.1776703"><ele>342.0</ele><time>2026-04-26T09:31:16.67Z</time></trkpt><trkpt lat="33.303457" lon="10.1775295"><ele>342.0</ele><time>2026-04-26T09:31:17.674Z</time></trkpt><trkpt lat="33.303497" lon="10.1773799"><ele>342.0</ele><time>2026-04-26T09:31:18.68Z</time></trkpt><trkpt lat="33.3035183" lon="10.1772223"><ele>342.0</ele><time>2026-04-26T09:31:19.675Z</time></trkpt><trkpt lat="33.303509" lon="10.1770513"><ele>342.0</ele><time>2026-04-26T09:31:20.684Z</time></trkpt><trkpt lat="33.3034885" lon="10.1768771"><ele>342.5</ele><time>2026-04-26T09:31:21.683Z</time></trkpt><trkpt lat="33.3034557" lon="10.1767073"><ele>343.0</ele><time>2026-04-26T09:31:22.677Z</time></trkpt><trkpt lat="33.3034197" lon="10.1765302"><ele>343.5</ele><time>2026-04-26T09:31:23.686Z</time></trkpt><trkpt lat="33.3033784" lon="10.1763585"><ele>344.0</ele><time>2026-04-26T09:31:24.67Z</time></trkpt><trkpt lat="33.3033201" lon="10.1761956"><ele>343.33333333333337</ele><time>2026-04-26T09:31:25.658Z</time></trkpt><trkpt lat="33.3032423" lon="10.1760362"><ele>342.6666666666667</ele><time>2026-04-26T09:31:26.691Z</time></trkpt><trkpt lat="33.3031611" lon="10.1758724"><ele>342.0</ele><time>2026-04-26T09:31:27.676Z</time></trkpt><trkpt lat="33.3030711" lon="10.1757272"><ele>342.0</ele><time>2026-04-26T09:31:28.67Z</time></trkpt><trkpt lat="33.3029772" lon="10.175573"><ele>342.0</ele><time>2026-04-26T09:31:29.676Z</time></trkpt><trkpt lat="33.3028807" lon="10.1754239"><ele>342.0</ele><time>2026-04-26T09:31:30.682Z</time></trkpt><trkpt lat="33.3027815" lon="10.1752829"><ele>342.0</ele><time>2026-04-26T09:31:31.678Z</time></trkpt><trkpt lat="33.3026833" lon="10.1751431"><ele>342.0</ele><time>2026-04-26T09:31:32.671Z</time></trkpt><trkpt lat="33.3025937" lon="10.175007"><ele>342.0</ele><time>2026-04-26T09:31:33.693Z</time></trkpt><trkpt lat="33.3024999" lon="10.1748649"><ele>342.0</ele><time>2026-04-26T09:31:34.684Z</time></trkpt><trkpt lat="33.3024019" lon="10.1747201"><ele>342.0</ele><time>2026-04-26T09:31:35.673Z</time></trkpt><trkpt lat="33.302304" lon="10.1745817"><ele>342.0</ele><time>2026-04-26T09:31:36.683Z</time></trkpt><trkpt lat="33.3022031" lon="10.1744463"><ele>342.0</ele><time>2026-04-26T09:31:37.685Z</time></trkpt><trkpt lat="33.3021013" lon="10.1743123"><ele>342.0</ele><time>2026-04-26T09:31:38.679Z</time></trkpt><trkpt lat="33.3019954" lon="10.1741816"><ele>342.0</ele><time>2026-04-26T09:31:39.68Z</time></trkpt><trkpt lat="33.3018801" lon="10.1740659"><ele>342.0</ele><time>2026-04-26T09:31:40.664Z</time></trkpt><trkpt lat="33.301768" lon="10.1739605"><ele>342.0</ele><time>2026-04-26T09:31:41.657Z</time></trkpt><trkpt lat="33.3016635" lon="10.1738516"><ele>343.25</ele><time>2026-04-26T09:31:42.672Z</time></trkpt><trkpt lat="33.3015585" lon="10.1737367"><ele>344.5</ele><time>2026-04-26T09:31:43.679Z</time></trkpt><trkpt lat="33.3014604" lon="10.1736029"><ele>345.75</ele><time>2026-04-26T09:31:44.672Z</time></trkpt><trkpt lat="33.3013752" lon="10.1734581"><ele>347.0</ele><time>2026-04-26T09:31:45.667Z</time></trkpt><trkpt lat="33.3013027" lon="10.1733052"><ele>347.33333333333337</ele><time>2026-04-26T09:31:46.676Z</time></trkpt><trkpt lat="33.3012441" lon="10.1731425"><ele>347.6666666666667</ele><time>2026-04-26T09:31:47.7Z</time></trkpt><trkpt lat="33.3011915" lon="10.1729685"><ele>348.0</ele><time>2026-04-26T09:31:48.681Z</time></trkpt><trkpt lat="33.301148" lon="10.1727955"><ele>348.0</ele><time>2026-04-26T09:31:49.683Z</time></trkpt><trkpt lat="33.3011263" lon="10.1726113"><ele>348.0</ele><time>2026-04-26T09:31:50.663Z</time></trkpt><trkpt lat="33.301105" lon="10.172419"><ele>348.0</ele><time>2026-04-26T09:31:51.694Z</time></trkpt><trkpt lat="33.3010848" lon="10.1722271"><ele>348.5</ele><time>2026-04-26T09:31:52.701Z</time></trkpt><trkpt lat="33.3010664" lon="10.1720444"><ele>349.0</ele><time>2026-04-26T09:31:53.681Z</time></trkpt><trkpt lat="33.3010532" lon="10.1718743"><ele>349.5</ele><time>2026-04-26T09:31:54.678Z</time></trkpt><trkpt lat="33.30104" lon="10.1717281"><ele>350.0</ele><time>2026-04-26T09:31:55.694Z</time></trkpt><trkpt lat="33.3010327" lon="10.1715918"><ele>350.0</ele><time>2026-04-26T09:31:56.677Z</time></trkpt><trkpt lat="33.3010177" lon="10.1714545"><ele>350.0</ele><time>2026-04-26T09:31:57.673Z</time></trkpt><trkpt lat="33.3009956" lon="10.1713253"><ele>350.0</ele><time>2026-04-26T09:31:58.695Z</time></trkpt><trkpt lat="33.3009608" lon="10.1712003"><ele>350.0</ele><time>2026-04-26T09:31:59.696Z</time></trkpt><trkpt lat="33.3009314" lon="10.1710799"><ele>350.0</ele><time>2026-04-26T09:32:00.668Z</time></trkpt><trkpt lat="33.3009107" lon="10.1709599"><ele>350.0</ele><time>2026-04-26T09:32:01.683Z</time></trkpt><trkpt lat="33.3008876" lon="10.1708451"><ele>350.0</ele><time>2026-04-26T09:32:02.678Z</time></trkpt><trkpt lat="33.3008695" lon="10.170727"><ele>350.0</ele><time>2026-04-26T09:32:03.675Z</time></trkpt><trkpt lat="33.3008552" lon="10.1706164"><ele>350.0</ele><time>2026-04-26T09:32:04.669Z</time></trkpt><trkpt lat="33.3008432" lon="10.1705115"><ele>350.0</ele><time>2026-04-26T09:32:05.687Z</time></trkpt><trkpt lat="33.3008295" lon="10.1704034"><ele>351.0</ele><time>2026-04-26T09:32:06.677Z</time></trkpt><trkpt lat="33.3008219" lon="10.1702972"><ele>352.0</ele><time>2026-04-26T09:32:07.668Z</time></trkpt><trkpt lat="33.3008101" lon="10.1701907"><ele>353.0</ele><time>2026-04-26T09:32:08.682Z</time></trkpt><trkpt lat="33.3007937" lon="10.1700784"><ele>354.0</ele><time>2026-04-26T09:32:09.695Z</time></trkpt><trkpt lat="33.3007708" lon="10.169965"><ele>355.0</ele><time>2026-04-26T09:32:10.681Z</time></trkpt><trkpt lat="33.3007366" lon="10.1698561"><ele>355.4</ele><time>2026-04-26T09:32:11.689Z</time></trkpt><trkpt lat="33.3006976" lon="10.1697453"><ele>355.8</ele><time>2026-04-26T09:32:12.67Z</time></trkpt><trkpt lat="33.3006522" lon="10.1696333"><ele>356.20000000000005</ele><time>2026-04-26T09:32:13.678Z</time></trkpt><trkpt lat="33.3005929" lon="10.16952"><ele>356.6</ele><time>2026-04-26T09:32:14.689Z</time></trkpt><trkpt lat="33.3005279" lon="10.1694154"><ele>357.0</ele><time>2026-04-26T09:32:15.678Z</time></trkpt><trkpt lat="33.3004573" lon="10.1693138"><ele>357.0</ele><time>2026-04-26T09:32:16.667Z</time></trkpt><trkpt lat="33.3003769" lon="10.169213"><ele>357.0</ele><time>2026-04-26T09:32:17.671Z</time></trkpt><trkpt lat="33.3002898" lon="10.1691075"><ele>357.0</ele><time>2026-04-26T09:32:18.674Z</time></trkpt><trkpt lat="33.3002011" lon="10.1690066"><ele>357.0</ele><time>2026-04-26T09:32:19.686Z</time></trkpt><trkpt lat="33.3001088" lon="10.1689101"><ele>357.25</ele><time>2026-04-26T09:32:20.675Z</time></trkpt><trkpt lat="33.3000128" lon="10.1688169"><ele>357.5</ele><time>2026-04-26T09:32:21.69Z</time></trkpt><trkpt lat="33.2999211" lon="10.1687234"><ele>357.75</ele><time>2026-04-26T09:32:22.674Z</time></trkpt><trkpt lat="33.2998302" lon="10.1686174"><ele>358.0</ele><time>2026-04-26T09:32:23.691Z</time></trkpt><trkpt lat="33.2997382" lon="10.1685128"><ele>357.75</ele><time>2026-04-26T09:32:24.683Z</time></trkpt><trkpt lat="33.299652" lon="10.1684148"><ele>357.5</ele><time>2026-04-26T09:32:25.667Z</time></trkpt><trkpt lat="33.2995627" lon="10.1683146"><ele>357.25</ele><time>2026-04-26T09:32:26.658Z</time></trkpt><trkpt lat="33.2994675" lon="10.168226"><ele>357.0</ele><time>2026-04-26T09:32:27.688Z</time></trkpt><trkpt lat="33.299362" lon="10.1681452"><ele>357.0</ele><time>2026-04-26T09:32:28.66Z</time></trkpt><trkpt lat="33.2992527" lon="10.1680737"><ele>357.0</ele><time>2026-04-26T09:32:29.679Z</time></trkpt><trkpt lat="33.2991438" lon="10.1680024"><ele>357.0</ele><time>2026-04-26T09:32:30.682Z</time></trkpt><trkpt lat="33.2990413" lon="10.1679243"><ele>357.0</ele><time>2026-04-26T09:32:31.682Z</time></trkpt><trkpt lat="33.2989433" lon="10.1678417"><ele>358.0</ele><time>2026-04-26T09:32:32.693Z</time></trkpt><trkpt lat="33.2988591" lon="10.167755"><ele>359.0</ele><time>2026-04-26T09:32:33.686Z</time></trkpt><trkpt lat="33.2987707" lon="10.1676661"><ele>360.0</ele><time>2026-04-26T09:32:34.673Z</time></trkpt><trkpt lat="33.2986755" lon="10.1675783"><ele>361.0</ele><time>2026-04-26T09:32:35.662Z</time></trkpt><trkpt lat="33.2985855" lon="10.1674885"><ele>361.0</ele><time>2026-04-26T09:32:36.668Z</time></trkpt><trkpt lat="33.2984914" lon="10.167404"><ele>361.0</ele><time>2026-04-26T09:32:37.678Z</time></trkpt><trkpt lat="33.2983928" lon="10.1673221"><ele>361.0</ele><time>2026-04-26T09:32:38.662Z</time></trkpt><trkpt lat="33.2983054" lon="10.1672133"><ele>361.0</ele><time>2026-04-26T09:32:39.687Z</time></trkpt><trkpt lat="33.2982241" lon="10.1670836"><ele>360.3333333333333</ele><time>2026-04-26T09:32:40.674Z</time></trkpt><trkpt lat="33.2981561" lon="10.1669301"><ele>359.6666666666667</ele><time>2026-04-26T09:32:41.689Z</time></trkpt><trkpt lat="33.2980892" lon="10.1667678"><ele>359.0</ele><time>2026-04-26T09:32:42.679Z</time></trkpt><trkpt lat="33.2980137" lon="10.1666052"><ele>359.6666666666667</ele><time>2026-04-26T09:32:43.659Z</time></trkpt><trkpt lat="33.2979352" lon="10.166442"><ele>360.3333333333333</ele><time>2026-04-26T09:32:44.665Z</time></trkpt><trkpt lat="33.2978698" lon="10.1662741"><ele>361.0</ele><time>2026-04-26T09:32:45.666Z</time></trkpt><trkpt lat="33.2978052" lon="10.1661079"><ele>361.0</ele><time>2026-04-26T09:32:46.663Z</time></trkpt><trkpt lat="33.2977395" lon="10.1659464"><ele>361.0</ele><time>2026-04-26T09:32:47.675Z</time></trkpt><trkpt lat="33.2976769" lon="10.1657872"><ele>361.0</ele><time>2026-04-26T09:32:48.659Z</time></trkpt><trkpt lat="33.2976131" lon="10.1656369"><ele>361.0</ele><time>2026-04-26T09:32:49.679Z</time></trkpt><trkpt lat="33.2975504" lon="10.1654938"><ele>360.75</ele><time>2026-04-26T09:32:50.663Z</time></trkpt><trkpt lat="33.2974944" lon="10.1653576"><ele>360.5</ele><time>2026-04-26T09:32:51.673Z</time></trkpt><trkpt lat="33.2974329" lon="10.1652304"><ele>360.25</ele><time>2026-04-26T09:32:52.676Z</time></trkpt><trkpt lat="33.2973731" lon="10.1651024"><ele>360.0</ele><time>2026-04-26T09:32:53.658Z</time></trkpt><trkpt lat="33.2973129" lon="10.1649677"><ele>361.25</ele><time>2026-04-26T09:32:54.671Z</time></trkpt><trkpt lat="33.2972525" lon="10.1648259"><ele>362.5</ele><time>2026-04-26T09:32:55.702Z</time></trkpt><trkpt lat="33.2971993" lon="10.1646792"><ele>363.75</ele><time>2026-04-26T09:32:56.677Z</time></trkpt><trkpt lat="33.2971563" lon="10.1645253"><ele>365.0</ele><time>2026-04-26T09:32:57.675Z</time></trkpt><trkpt lat="33.2971236" lon="10.1643725"><ele>365.0</ele><time>2026-04-26T09:32:58.681Z</time></trkpt><trkpt lat="33.2970902" lon="10.1642244"><ele>365.0</ele><time>2026-04-26T09:32:59.67Z</time></trkpt><trkpt lat="33.2970564" lon="10.1640745"><ele>365.0</ele><time>2026-04-26T09:33:00.685Z</time></trkpt><trkpt lat="33.2970219" lon="10.1639205"><ele>365.0</ele><time>2026-04-26T09:33:01.679Z</time></trkpt><trkpt lat="33.2969856" lon="10.1637603"><ele>365.25</ele><time>2026-04-26T09:33:02.678Z</time></trkpt><trkpt lat="33.2969426" lon="10.1635967"><ele>365.5</ele><time>2026-04-26T09:33:03.685Z</time></trkpt><trkpt lat="33.2968994" lon="10.1634331"><ele>365.75</ele><time>2026-04-26T09:33:04.666Z</time></trkpt><trkpt lat="33.2968582" lon="10.1632666"><ele>366.0</ele><time>2026-04-26T09:33:05.687Z</time></trkpt><trkpt lat="33.2968162" lon="10.1631006"><ele>366.75</ele><time>2026-04-26T09:33:06.692Z</time></trkpt><trkpt lat="33.2967701" lon="10.1629341"><ele>367.5</ele><time>2026-04-26T09:33:07.67Z</time></trkpt><trkpt lat="33.2967226" lon="10.1627677"><ele>368.25</ele><time>2026-04-26T09:33:08.673Z</time></trkpt><trkpt lat="33.2966733" lon="10.162602"><ele>369.0</ele><time>2026-04-26T09:33:09.686Z</time></trkpt><trkpt lat="33.2966188" lon="10.1624368"><ele>368.6666666666667</ele><time>2026-04-26T09:33:10.674Z</time></trkpt><trkpt lat="33.2965592" lon="10.1622693"><ele>368.33333333333337</ele><time>2026-04-26T09:33:11.699Z</time></trkpt><trkpt lat="33.2964954" lon="10.1621076"><ele>368.0</ele><time>2026-04-26T09:33:12.689Z</time></trkpt><trkpt lat="33.2964286" lon="10.1619464"><ele>368.33333333333337</ele><time>2026-04-26T09:33:13.662Z</time></trkpt><trkpt lat="33.2963665" lon="10.1617789"><ele>368.6666666666667</ele><time>2026-04-26T09:33:14.688Z</time></trkpt><trkpt lat="33.2963013" lon="10.1616147"><ele>369.0</ele><time>2026-04-26T09:33:15.678Z</time></trkpt><trkpt lat="33.2962321" lon="10.1614534"><ele>369.0</ele><time>2026-04-26T09:33:16.678Z</time></trkpt><trkpt lat="33.2961641" lon="10.1612945"><ele>369.0</ele><time>2026-04-26T09:33:17.657Z</time></trkpt><trkpt lat="33.2960923" lon="10.1611315"><ele>369.0</ele><time>2026-04-26T09:33:18.678Z</time></trkpt><trkpt lat="33.2960153" lon="10.160972"><ele>369.0</ele><time>2026-04-26T09:33:19.676Z</time></trkpt><trkpt lat="33.2959375" lon="10.1608134"><ele>369.0</ele><time>2026-04-26T09:33:20.688Z</time></trkpt><trkpt lat="33.2958585" lon="10.1606549"><ele>369.0</ele><time>2026-04-26T09:33:21.678Z</time></trkpt><trkpt lat="33.2957795" lon="10.1605066"><ele>369.0</ele><time>2026-04-26T09:33:22.667Z</time></trkpt><trkpt lat="33.2956878" lon="10.1603626"><ele>369.0</ele><time>2026-04-26T09:33:23.664Z</time></trkpt><trkpt lat="33.2955922" lon="10.1602246"><ele>369.0</ele><time>2026-04-26T09:33:24.672Z</time></trkpt><trkpt lat="33.2954866" lon="10.1600943"><ele>370.3333333333333</ele><time>2026-04-26T09:33:25.691Z</time></trkpt><trkpt lat="33.2953788" lon="10.1599759"><ele>371.66666666666663</ele><time>2026-04-26T09:33:26.671Z</time></trkpt><trkpt lat="33.2952657" lon="10.1598571"><ele>373.0</ele><time>2026-04-26T09:33:27.675Z</time></trkpt><trkpt lat="33.2951548" lon="10.1597264"><ele>373.0</ele><time>2026-04-26T09:33:28.685Z</time></trkpt><trkpt lat="33.2950444" lon="10.1595931"><ele>373.0</ele><time>2026-04-26T09:33:29.686Z</time></trkpt><trkpt lat="33.2949362" lon="10.1594631"><ele>373.0</ele><time>2026-04-26T09:33:30.675Z</time></trkpt><trkpt lat="33.2948363" lon="10.1593333"><ele>372.66666666666663</ele><time>2026-04-26T09:33:31.699Z</time></trkpt><trkpt lat="33.2947308" lon="10.1592007"><ele>372.3333333333333</ele><time>2026-04-26T09:33:32.678Z</time></trkpt><trkpt lat="33.2946265" lon="10.1590698"><ele>372.0</ele><time>2026-04-26T09:33:33.683Z</time></trkpt><trkpt lat="33.2945266" lon="10.1589378"><ele>372.0</ele><time>2026-04-26T09:33:34.675Z</time></trkpt><trkpt lat="33.2944265" lon="10.1588046"><ele>372.0</ele><time>2026-04-26T09:33:35.678Z</time></trkpt><trkpt lat="33.2943314" lon="10.1586817"><ele>372.0</ele><time>2026-04-26T09:33:36.689Z</time></trkpt><trkpt lat="33.2942386" lon="10.1585574"><ele>372.0</ele><time>2026-04-26T09:33:37.677Z</time></trkpt><trkpt lat="33.2941491" lon="10.158438"><ele>372.0</ele><time>2026-04-26T09:33:38.658Z</time></trkpt><trkpt lat="33.2940552" lon="10.1583233"><ele>372.0</ele><time>2026-04-26T09:33:39.677Z</time></trkpt><trkpt lat="33.293966" lon="10.1582058"><ele>372.0</ele><time>2026-04-26T09:33:40.671Z</time></trkpt><trkpt lat="33.293873" lon="10.1580952"><ele>372.0</ele><time>2026-04-26T09:33:41.676Z</time></trkpt><trkpt lat="33.2937844" lon="10.157985"><ele>373.25</ele><time>2026-04-26T09:33:42.677Z</time></trkpt><trkpt lat="33.2936927" lon="10.1578861"><ele>374.5</ele><time>2026-04-26T09:33:43.661Z</time></trkpt><trkpt lat="33.2936064" lon="10.1577803"><ele>375.75</ele><time>2026-04-26T09:33:44.68Z</time></trkpt><trkpt lat="33.2935188" lon="10.1576757"><ele>377.0</ele><time>2026-04-26T09:33:45.668Z</time></trkpt><trkpt lat="33.2934334" lon="10.1575709"><ele>377.0</ele><time>2026-04-26T09:33:46.672Z</time></trkpt><trkpt lat="33.2933578" lon="10.1574685"><ele>377.0</ele><time>2026-04-26T09:33:47.668Z</time></trkpt><trkpt lat="33.2932957" lon="10.1573633"><ele>377.0</ele><time>2026-04-26T09:33:48.653Z</time></trkpt><trkpt lat="33.2932429" lon="10.1572709"><ele>377.0</ele><time>2026-04-26T09:33:49.673Z</time></trkpt><trkpt lat="33.2931974" lon="10.1571842"><ele>377.0</ele><time>2026-04-26T09:33:50.672Z</time></trkpt><trkpt lat="33.2931621" lon="10.1570997"><ele>377.5</ele><time>2026-04-26T09:33:51.683Z</time></trkpt><trkpt lat="33.2931419" lon="10.1570152"><ele>378.0</ele><time>2026-04-26T09:33:52.665Z</time></trkpt><trkpt lat="33.293137" lon="10.1569253"><ele>378.5</ele><time>2026-04-26T09:33:53.683Z</time></trkpt><trkpt lat="33.2931463" lon="10.1568277"><ele>379.0</ele><time>2026-04-26T09:33:54.672Z</time></trkpt><trkpt lat="33.2931535" lon="10.1567354"><ele>379.5</ele><time>2026-04-26T09:33:55.689Z</time></trkpt><trkpt lat="33.2931476" lon="10.1566224"><ele>380.0</ele><time>2026-04-26T09:33:56.672Z</time></trkpt><trkpt lat="33.2931458" lon="10.1565164"><ele>380.4</ele><time>2026-04-26T09:33:57.692Z</time></trkpt><trkpt lat="33.2931355" lon="10.1564014"><ele>380.8</ele><time>2026-04-26T09:33:58.687Z</time></trkpt><trkpt lat="33.2931131" lon="10.156284"><ele>381.20000000000005</ele><time>2026-04-26T09:33:59.674Z</time></trkpt><trkpt lat="33.293082" lon="10.1561656"><ele>381.6</ele><time>2026-04-26T09:34:00.672Z</time></trkpt><trkpt lat="33.2930433" lon="10.1560558"><ele>382.0</ele><time>2026-04-26T09:34:01.664Z</time></trkpt><trkpt lat="33.2930026" lon="10.1559555"><ele>382.0</ele><time>2026-04-26T09:34:02.679Z</time></trkpt><trkpt lat="33.2929465" lon="10.1558666"><ele>382.0</ele><time>2026-04-26T09:34:03.681Z</time></trkpt><trkpt lat="33.2928853" lon="10.1557886"><ele>382.0</ele><time>2026-04-26T09:34:04.68Z</time></trkpt><trkpt lat="33.2928064" lon="10.1557272"><ele>382.0</ele><time>2026-04-26T09:34:05.67Z</time></trkpt><trkpt lat="33.2927176" lon="10.1556642"><ele>382.0</ele><time>2026-04-26T09:34:06.666Z</time></trkpt><trkpt lat="33.2926241" lon="10.1556135"><ele>382.20000000000005</ele><time>2026-04-26T09:34:07.674Z</time></trkpt><trkpt lat="33.2925278" lon="10.1555737"><ele>382.4</ele><time>2026-04-26T09:34:08.674Z</time></trkpt><trkpt lat="33.2924309" lon="10.1555425"><ele>382.6</ele><time>2026-04-26T09:34:09.683Z</time></trkpt><trkpt lat="33.2923283" lon="10.1555218"><ele>382.79999999999995</ele><time>2026-04-26T09:34:10.679Z</time></trkpt><trkpt lat="33.2922272" lon="10.1555013"><ele>383.0</ele><time>2026-04-26T09:34:11.669Z</time></trkpt><trkpt lat="33.2921259" lon="10.1554931"><ele>382.4</ele><time>2026-04-26T09:34:12.672Z</time></trkpt><trkpt lat="33.2920287" lon="10.1554875"><ele>381.79999999999995</ele><time>2026-04-26T09:34:13.667Z</time></trkpt><trkpt lat="33.2919315" lon="10.1554731"><ele>381.2</ele><time>2026-04-26T09:34:14.665Z</time></trkpt><trkpt lat="33.2918384" lon="10.1554456"><ele>380.6</ele><time>2026-04-26T09:34:15.659Z</time></trkpt><trkpt lat="33.2917541" lon="10.1554161"><ele>380.0</ele><time>2026-04-26T09:34:16.676Z</time></trkpt><trkpt lat="33.2916697" lon="10.1553812"><ele>380.0</ele><time>2026-04-26T09:34:17.677Z</time></trkpt><trkpt lat="33.2915827" lon="10.1553519"><ele>380.0</ele><time>2026-04-26T09:34:18.667Z</time></trkpt><trkpt lat="33.2915073" lon="10.1553307"><ele>380.0</ele><time>2026-04-26T09:34:19.664Z</time></trkpt><trkpt lat="33.291438" lon="10.1553306"><ele>380.0</ele><time>2026-04-26T09:34:20.674Z</time></trkpt><trkpt lat="33.2913434" lon="10.1553871"><ele>380.0</ele><time>2026-04-26T09:34:22.667Z</time></trkpt><trkpt lat="33.291289" lon="10.1554925"><ele>380.0</ele><time>2026-04-26T09:34:24.679Z</time></trkpt><trkpt lat="33.2912525" lon="10.1556249"><ele>380.8</ele><time>2026-04-26T09:34:26.673Z</time></trkpt><trkpt lat="33.2912659" lon="10.1557586"><ele>381.6</ele><time>2026-04-26T09:34:28.688Z</time></trkpt><trkpt lat="33.2913384" lon="10.1558822"><ele>382.4</ele><time>2026-04-26T09:34:30.66Z</time></trkpt><trkpt lat="33.2914446" lon="10.155968"><ele>383.2</ele><time>2026-04-26T09:34:32.661Z</time></trkpt><trkpt lat="33.2915143" lon="10.1560035"><ele>384.0</ele><time>2026-04-26T09:34:33.672Z</time></trkpt><trkpt lat="33.2915797" lon="10.1560269"><ele>384.0</ele><time>2026-04-26T09:34:34.69Z</time></trkpt><trkpt lat="33.2916424" lon="10.156045"><ele>384.0</ele><time>2026-04-26T09:34:35.678Z</time></trkpt><trkpt lat="33.2917023" lon="10.1560725"><ele>384.0</ele><time>2026-04-26T09:34:36.667Z</time></trkpt><trkpt lat="33.2917906" lon="10.1561628"><ele>384.0</ele><time>2026-04-26T09:34:38.68Z</time></trkpt><trkpt lat="33.2918242" lon="10.1562288"><ele>384.0</ele><time>2026-04-26T09:34:39.664Z</time></trkpt><trkpt lat="33.2918575" lon="10.156365"><ele>384.0</ele><time>2026-04-26T09:34:41.671Z</time></trkpt><trkpt lat="33.2918726" lon="10.1565253"><ele>386.1428571428571</ele><time>2026-04-26T09:34:43.692Z</time></trkpt><trkpt lat="33.2918723" lon="10.1566221"><ele>388.2857142857143</ele><time>2026-04-26T09:34:44.691Z</time></trkpt><trkpt lat="33.2918599" lon="10.1567083"><ele>390.42857142857144</ele><time>2026-04-26T09:34:45.674Z</time></trkpt><trkpt lat="33.2918383" lon="10.1567897"><ele>392.57142857142856</ele><time>2026-04-26T09:34:46.679Z</time></trkpt><trkpt lat="33.2918087" lon="10.1568642"><ele>394.7142857142857</ele><time>2026-04-26T09:34:47.667Z</time></trkpt><trkpt lat="33.2917705" lon="10.1569267"><ele>396.85714285714283</ele><time>2026-04-26T09:34:48.672Z</time></trkpt><trkpt lat="33.2917207" lon="10.1569808"><ele>399.0</ele><time>2026-04-26T09:34:49.672Z</time></trkpt><trkpt lat="33.2916661" lon="10.1570288"><ele>399.0</ele><time>2026-04-26T09:34:50.677Z</time></trkpt><trkpt lat="33.2916136" lon="10.1570798"><ele>399.0</ele><time>2026-04-26T09:34:51.666Z</time></trkpt><trkpt lat="33.2915317" lon="10.1571862"><ele>399.0</ele><time>2026-04-26T09:34:53.665Z</time></trkpt><trkpt lat="33.2914991" lon="10.1573406"><ele>399.0</ele><time>2026-04-26T09:34:55.674Z</time></trkpt><trkpt lat="33.2915029" lon="10.1574835"><ele>399.0</ele><time>2026-04-26T09:34:57.677Z</time></trkpt><trkpt lat="33.2915379" lon="10.1576064"><ele>409.0</ele><time>2026-04-26T09:34:59.663Z</time></trkpt><trkpt lat="33.2915832" lon="10.1577211"><ele>409.0</ele><time>2026-04-26T09:35:01.683Z</time></trkpt><trkpt lat="33.2916137" lon="10.1578282"><ele>409.0</ele><time>2026-04-26T09:35:03.657Z</time></trkpt><trkpt lat="33.2916355" lon="10.1579079"><ele>409.0</ele><time>2026-04-26T09:35:05.674Z</time></trkpt><trkpt lat="33.2916227" lon="10.1579927"><ele>409.0</ele><time>2026-04-26T09:35:18.68Z</time></trkpt><trkpt lat="33.2916192" lon="10.1580709"><ele>409.0</ele><time>2026-04-26T09:35:33.679Z</time></trkpt></trkseg><trkseg><trkpt lat="33.2915944" lon="10.1580225"><ele>409.00000000000006</ele><time>2026-04-26T10:11:01.664Z</time></trkpt><trkpt lat="33.2915561" lon="10.1579606"><ele>409.0</ele><time>2026-04-26T10:11:09.67Z</time></trkpt><trkpt lat="33.2914894" lon="10.1579173"><ele>409.0</ele><time>2026-04-26T10:11:20.69Z</time></trkpt><trkpt lat="33.2914089" lon="10.1578908"><ele>409.0</ele><time>2026-04-26T10:11:23.691Z</time></trkpt><trkpt lat="33.2913598" lon="10.1578284"><ele>409.00000000000006</ele><time>2026-04-26T10:11:26.691Z</time></trkpt><trkpt lat="33.2913092" lon="10.1577396"><ele>409.0</ele><time>2026-04-26T10:11:29.683Z</time></trkpt><trkpt lat="33.2912783" lon="10.1576657"><ele>408.57142857142856</ele><time>2026-04-26T10:11:31.732Z</time></trkpt><trkpt lat="33.2912646" lon="10.1575856"><ele>408.14285714285717</ele><time>2026-04-26T10:11:33.672Z</time></trkpt><trkpt lat="33.2912555" lon="10.1574943"><ele>407.7142857142857</ele><time>2026-04-26T10:11:35.698Z</time></trkpt><trkpt lat="33.2912469" lon="10.1574074"><ele>407.2857142857143</ele><time>2026-04-26T10:11:37.687Z</time></trkpt><trkpt lat="33.2912412" lon="10.1573244"><ele>406.8571428571429</ele><time>2026-04-26T10:11:39.667Z</time></trkpt><trkpt lat="33.2912225" lon="10.1572209"><ele>406.42857142857144</ele><time>2026-04-26T10:11:42.688Z</time></trkpt><trkpt lat="33.2911626" lon="10.1571759"><ele>406.0</ele><time>2026-04-26T10:11:45.702Z</time></trkpt><trkpt lat="33.291101" lon="10.1572415"><ele>406.0</ele><time>2026-04-26T10:11:48.688Z</time></trkpt><trkpt lat="33.2911054" lon="10.1573527"><ele>406.0</ele><time>2026-04-26T10:11:51.694Z</time></trkpt><trkpt lat="33.2911437" lon="10.1574173"><ele>406.0</ele><time>2026-04-26T10:11:53.695Z</time></trkpt><trkpt lat="33.2911792" lon="10.1574817"><ele>406.0</ele><time>2026-04-26T10:11:55.671Z</time></trkpt><trkpt lat="33.2912185" lon="10.1575489"><ele>406.0</ele><time>2026-04-26T10:11:57.699Z</time></trkpt><trkpt lat="33.2912625" lon="10.1576141"><ele>406.0</ele><time>2026-04-26T10:11:59.693Z</time></trkpt><trkpt lat="33.2913069" lon="10.1576752"><ele>406.0</ele><time>2026-04-26T10:12:01.698Z</time></trkpt><trkpt lat="33.2913621" lon="10.157758"><ele>406.00000000000006</ele><time>2026-04-26T10:12:05.684Z</time></trkpt><trkpt lat="33.2914192" lon="10.15784"><ele>406.0</ele><time>2026-04-26T10:12:08.683Z</time></trkpt><trkpt lat="33.2914756" lon="10.1578858"><ele>406.0</ele><time>2026-04-26T10:12:10.684Z</time></trkpt><trkpt lat="33.291541" lon="10.157915"><ele>406.0</ele><time>2026-04-26T10:12:13.693Z</time></trkpt><trkpt lat="33.2916087" lon="10.1579468"><ele>406.00000000000006</ele><time>2026-04-26T10:12:16.691Z</time></trkpt><trkpt lat="33.2916523" lon="10.1578855"><ele>406.0</ele><time>2026-04-26T10:12:19.676Z</time></trkpt><trkpt lat="33.2916266" lon="10.1577673"><ele>406.6</ele><time>2026-04-26T10:12:22.685Z</time></trkpt><trkpt lat="33.2915852" lon="10.1576416"><ele>407.20000000000005</ele><time>2026-04-26T10:12:24.691Z</time></trkpt><trkpt lat="33.2915504" lon="10.1575118"><ele>407.79999999999995</ele><time>2026-04-26T10:12:26.694Z</time></trkpt><trkpt lat="33.2915389" lon="10.1573762"><ele>408.4</ele><time>2026-04-26T10:12:28.699Z</time></trkpt><trkpt lat="33.2915593" lon="10.1572583"><ele>409.0</ele><time>2026-04-26T10:12:30.691Z</time></trkpt><trkpt lat="33.2916058" lon="10.1571561"><ele>407.0</ele><time>2026-04-26T10:12:32.679Z</time></trkpt><trkpt lat="33.2916707" lon="10.1570631"><ele>405.0</ele><time>2026-04-26T10:12:34.672Z</time></trkpt><trkpt lat="33.2917627" lon="10.1569801"><ele>403.0</ele><time>2026-04-26T10:12:36.695Z</time></trkpt><trkpt lat="33.2918434" lon="10.1568781"><ele>401.0</ele><time>2026-04-26T10:12:38.697Z</time></trkpt><trkpt lat="33.2918914" lon="10.1567568"><ele>399.0</ele><time>2026-04-26T10:12:40.689Z</time></trkpt><trkpt lat="33.2919061" lon="10.1566096"><ele>396.5</ele><time>2026-04-26T10:12:42.683Z</time></trkpt><trkpt lat="33.2918989" lon="10.1565245"><ele>394.0</ele><time>2026-04-26T10:12:43.698Z</time></trkpt><trkpt lat="33.2918902" lon="10.1564445"><ele>391.5</ele><time>2026-04-26T10:12:44.7Z</time></trkpt><trkpt lat="33.2918833" lon="10.1563631"><ele>389.0</ele><time>2026-04-26T10:12:45.681Z</time></trkpt><trkpt lat="33.2918636" lon="10.1562292"><ele>386.5</ele><time>2026-04-26T10:12:47.701Z</time></trkpt><trkpt lat="33.2918105" lon="10.1561293"><ele>384.0</ele><time>2026-04-26T10:12:49.69Z</time></trkpt><trkpt lat="33.291712" lon="10.1560445"><ele>384.0</ele><time>2026-04-26T10:12:51.696Z</time></trkpt><trkpt lat="33.2916346" lon="10.1560043"><ele>384.0</ele><time>2026-04-26T10:12:53.707Z</time></trkpt><trkpt lat="33.2915376" lon="10.1559803"><ele>384.0</ele><time>2026-04-26T10:12:55.681Z</time></trkpt><trkpt lat="33.2914425" lon="10.1559379"><ele>384.0</ele><time>2026-04-26T10:12:57.687Z</time></trkpt><trkpt lat="33.2913709" lon="10.1558501"><ele>384.0</ele><time>2026-04-26T10:12:59.671Z</time></trkpt><trkpt lat="33.2913051" lon="10.1557517"><ele>384.1666666666667</ele><time>2026-04-26T10:13:01.679Z</time></trkpt><trkpt lat="33.2912606" lon="10.1556656"><ele>384.33333333333337</ele><time>2026-04-26T10:13:03.686Z</time></trkpt><trkpt lat="33.2912817" lon="10.1555538"><ele>384.5</ele><time>2026-04-26T10:13:06.701Z</time></trkpt><trkpt lat="33.291327" lon="10.1554627"><ele>384.6666666666667</ele><time>2026-04-26T10:13:09.683Z</time></trkpt><trkpt lat="33.2913637" lon="10.1553903"><ele>384.83333333333337</ele><time>2026-04-26T10:13:13.694Z</time></trkpt><trkpt lat="33.2913713" lon="10.1552879"><ele>385.0</ele><time>2026-04-26T10:13:17.696Z</time></trkpt><trkpt lat="33.2913225" lon="10.1552162"><ele>385.0</ele><time>2026-04-26T10:13:19.698Z</time></trkpt><trkpt lat="33.2912647" lon="10.1551762"><ele>385.0</ele><time>2026-04-26T10:13:20.677Z</time></trkpt><trkpt lat="33.291209" lon="10.1551297"><ele>385.0</ele><time>2026-04-26T10:13:21.678Z</time></trkpt><trkpt lat="33.2911495" lon="10.1550736"><ele>385.0</ele><time>2026-04-26T10:13:22.67Z</time></trkpt><trkpt lat="33.2910937" lon="10.1550159"><ele>385.0</ele><time>2026-04-26T10:13:23.685Z</time></trkpt><trkpt lat="33.2910335" lon="10.1549626"><ele>385.0</ele><time>2026-04-26T10:13:24.698Z</time></trkpt><trkpt lat="33.290973" lon="10.1549039"><ele>385.0</ele><time>2026-04-26T10:13:25.69Z</time></trkpt><trkpt lat="33.2909106" lon="10.154836"><ele>384.8</ele><time>2026-04-26T10:13:26.686Z</time></trkpt><trkpt lat="33.2908406" lon="10.1547675"><ele>384.6</ele><time>2026-04-26T10:13:27.68Z</time></trkpt><trkpt lat="33.2907696" lon="10.1547068"><ele>384.4</ele><time>2026-04-26T10:13:28.691Z</time></trkpt><trkpt lat="33.2906855" lon="10.1546585"><ele>384.2</ele><time>2026-04-26T10:13:29.703Z</time></trkpt><trkpt lat="33.2905958" lon="10.1546235"><ele>384.0</ele><time>2026-04-26T10:13:30.69Z</time></trkpt><trkpt lat="33.2904997" lon="10.1545884"><ele>383.79999999999995</ele><time>2026-04-26T10:13:31.683Z</time></trkpt><trkpt lat="33.2903964" lon="10.1545605"><ele>383.59999999999997</ele><time>2026-04-26T10:13:32.688Z</time></trkpt><trkpt lat="33.2903014" lon="10.1545316"><ele>383.4</ele><time>2026-04-26T10:13:33.7Z</time></trkpt><trkpt lat="33.2901998" lon="10.1544991"><ele>383.2</ele><time>2026-04-26T10:13:34.701Z</time></trkpt><trkpt lat="33.2900995" lon="10.1544643"><ele>383.0</ele><time>2026-04-26T10:13:35.715Z</time></trkpt><trkpt lat="33.2899944" lon="10.1544185"><ele>383.0</ele><time>2026-04-26T10:13:36.693Z</time></trkpt><trkpt lat="33.2898925" lon="10.1543595"><ele>383.0</ele><time>2026-04-26T10:13:37.688Z</time></trkpt><trkpt lat="33.2897932" lon="10.1542967"><ele>383.0</ele><time>2026-04-26T10:13:38.696Z</time></trkpt><trkpt lat="33.2897122" lon="10.1542344"><ele>383.0</ele><time>2026-04-26T10:13:39.689Z</time></trkpt><trkpt lat="33.2896319" lon="10.1541698"><ele>383.0</ele><time>2026-04-26T10:13:40.686Z</time></trkpt><trkpt lat="33.2895577" lon="10.1541037"><ele>383.0</ele><time>2026-04-26T10:13:41.67Z</time></trkpt><trkpt lat="33.2894864" lon="10.1540398"><ele>383.0</ele><time>2026-04-26T10:13:42.671Z</time></trkpt><trkpt lat="33.2894179" lon="10.1539773"><ele>383.0</ele><time>2026-04-26T10:13:43.674Z</time></trkpt><trkpt lat="33.289348" lon="10.1539101"><ele>383.0</ele><time>2026-04-26T10:13:44.68Z</time></trkpt><trkpt lat="33.2892843" lon="10.1538307"><ele>383.0</ele><time>2026-04-26T10:13:45.683Z</time></trkpt><trkpt lat="33.2892172" lon="10.1537371"><ele>383.0</ele><time>2026-04-26T10:13:46.698Z</time></trkpt><trkpt lat="33.2891522" lon="10.1536466"><ele>383.0</ele><time>2026-04-26T10:13:47.687Z</time></trkpt><trkpt lat="33.2890857" lon="10.1535487"><ele>383.0</ele><time>2026-04-26T10:13:48.696Z</time></trkpt><trkpt lat="33.2890121" lon="10.153461"><ele>383.0</ele><time>2026-04-26T10:13:49.693Z</time></trkpt><trkpt lat="33.2889317" lon="10.1533731"><ele>383.0</ele><time>2026-04-26T10:13:50.695Z</time></trkpt><trkpt lat="33.2888501" lon="10.153288"><ele>384.4</ele><time>2026-04-26T10:13:51.707Z</time></trkpt><trkpt lat="33.2887691" lon="10.1532073"><ele>385.79999999999995</ele><time>2026-04-26T10:13:52.706Z</time></trkpt><trkpt lat="33.2886842" lon="10.1531404"><ele>387.2</ele><time>2026-04-26T10:13:53.709Z</time></trkpt><trkpt lat="33.2885881" lon="10.1530808"><ele>388.6</ele><time>2026-04-26T10:13:54.691Z</time></trkpt><trkpt lat="33.2884828" lon="10.1530253"><ele>390.0</ele><time>2026-04-26T10:13:55.683Z</time></trkpt><trkpt lat="33.2883757" lon="10.1529898"><ele>390.0</ele><time>2026-04-26T10:13:56.703Z</time></trkpt><trkpt lat="33.2882629" lon="10.1529758"><ele>390.0</ele><time>2026-04-26T10:13:57.706Z</time></trkpt><trkpt lat="33.2881494" lon="10.1529779"><ele>390.0</ele><time>2026-04-26T10:13:58.703Z</time></trkpt><trkpt lat="33.2880285" lon="10.1529924"><ele>390.0</ele><time>2026-04-26T10:13:59.69Z</time></trkpt><trkpt lat="33.2878988" lon="10.1530012"><ele>390.25</ele><time>2026-04-26T10:14:00.691Z</time></trkpt><trkpt lat="33.2877702" lon="10.1530025"><ele>390.5</ele><time>2026-04-26T10:14:01.686Z</time></trkpt><trkpt lat="33.2876465" lon="10.1530033"><ele>390.75</ele><time>2026-04-26T10:14:02.684Z</time></trkpt><trkpt lat="33.2875173" lon="10.152988"><ele>391.0</ele><time>2026-04-26T10:14:03.694Z</time></trkpt><trkpt lat="33.2873796" lon="10.1529493"><ele>392.33333333333337</ele><time>2026-04-26T10:14:04.687Z</time></trkpt><trkpt lat="33.287237" lon="10.1528865"><ele>393.66666666666663</ele><time>2026-04-26T10:14:05.702Z</time></trkpt><trkpt lat="33.2870916" lon="10.1528031"><ele>395.0</ele><time>2026-04-26T10:14:06.709Z</time></trkpt><trkpt lat="33.286946" lon="10.1527223"><ele>395.0</ele><time>2026-04-26T10:14:07.695Z</time></trkpt><trkpt lat="33.2867803" lon="10.1526371"><ele>395.0</ele><time>2026-04-26T10:14:08.685Z</time></trkpt><trkpt lat="33.2866068" lon="10.1525536"><ele>395.0</ele><time>2026-04-26T10:14:09.703Z</time></trkpt><trkpt lat="33.2864344" lon="10.1524603"><ele>398.66666666666663</ele><time>2026-04-26T10:14:10.686Z</time></trkpt><trkpt lat="33.2862575" lon="10.152371"><ele>402.33333333333337</ele><time>2026-04-26T10:14:11.689Z</time></trkpt><trkpt lat="33.2861075" lon="10.1523039"><ele>406.0</ele><time>2026-04-26T10:14:12.692Z</time></trkpt><trkpt lat="33.2859753" lon="10.1522372"><ele>406.0</ele><time>2026-04-26T10:14:13.696Z</time></trkpt><trkpt lat="33.2858591" lon="10.1521741"><ele>406.0</ele><time>2026-04-26T10:14:14.697Z</time></trkpt><trkpt lat="33.2857534" lon="10.1521148"><ele>406.0</ele><time>2026-04-26T10:14:15.695Z</time></trkpt><trkpt lat="33.2856558" lon="10.1520546"><ele>406.0</ele><time>2026-04-26T10:14:16.687Z</time></trkpt><trkpt lat="33.2855736" lon="10.1520022"><ele>406.0</ele><time>2026-04-26T10:14:17.713Z</time></trkpt><trkpt lat="33.2854997" lon="10.1519595"><ele>405.83333333333337</ele><time>2026-04-26T10:14:18.696Z</time></trkpt><trkpt lat="33.2854273" lon="10.1519139"><ele>405.6666666666667</ele><time>2026-04-26T10:14:19.694Z</time></trkpt><trkpt lat="33.2853606" lon="10.1518584"><ele>405.5</ele><time>2026-04-26T10:14:20.686Z</time></trkpt><trkpt lat="33.2852935" lon="10.1517955"><ele>405.33333333333337</ele><time>2026-04-26T10:14:21.692Z</time></trkpt><trkpt lat="33.2852292" lon="10.1517164"><ele>405.1666666666667</ele><time>2026-04-26T10:14:22.699Z</time></trkpt><trkpt lat="33.2851587" lon="10.1516242"><ele>405.0</ele><time>2026-04-26T10:14:23.695Z</time></trkpt><trkpt lat="33.2850883" lon="10.1515355"><ele>405.0</ele><time>2026-04-26T10:14:24.679Z</time></trkpt><trkpt lat="33.2850225" lon="10.1514457"><ele>405.0</ele><time>2026-04-26T10:14:25.701Z</time></trkpt><trkpt lat="33.2849515" lon="10.1513536"><ele>405.0</ele><time>2026-04-26T10:14:26.701Z</time></trkpt><trkpt lat="33.2848784" lon="10.1512627"><ele>405.0</ele><time>2026-04-26T10:14:27.719Z</time></trkpt><trkpt lat="33.2848092" lon="10.1511731"><ele>405.0</ele><time>2026-04-26T10:14:28.71Z</time></trkpt><trkpt lat="33.2847421" lon="10.1510724"><ele>404.25</ele><time>2026-04-26T10:14:29.679Z</time></trkpt><trkpt lat="33.2846664" lon="10.1509635"><ele>403.5</ele><time>2026-04-26T10:14:30.686Z</time></trkpt><trkpt lat="33.2845868" lon="10.1508514"><ele>402.75</ele><time>2026-04-26T10:14:31.685Z</time></trkpt><trkpt lat="33.2844894" lon="10.1507486"><ele>402.0</ele><time>2026-04-26T10:14:32.687Z</time></trkpt><trkpt lat="33.2843746" lon="10.1506546"><ele>402.0</ele><time>2026-04-26T10:14:33.709Z</time></trkpt><trkpt lat="33.284252" lon="10.1505629"><ele>402.0</ele><time>2026-04-26T10:14:34.687Z</time></trkpt><trkpt lat="33.2841268" lon="10.1504764"><ele>402.0</ele><time>2026-04-26T10:14:35.691Z</time></trkpt><trkpt lat="33.2840062" lon="10.1504133"><ele>402.0</ele><time>2026-04-26T10:14:36.71Z</time></trkpt><trkpt lat="33.2838799" lon="10.1503667"><ele>402.5</ele><time>2026-04-26T10:14:37.69Z</time></trkpt><trkpt lat="33.2837572" lon="10.1503171"><ele>403.0</ele><time>2026-04-26T10:14:38.687Z</time></trkpt><trkpt lat="33.2836366" lon="10.1502729"><ele>403.5</ele><time>2026-04-26T10:14:39.694Z</time></trkpt><trkpt lat="33.2835086" lon="10.1502297"><ele>404.0</ele><time>2026-04-26T10:14:40.696Z</time></trkpt><trkpt lat="33.2833802" lon="10.1501903"><ele>404.0</ele><time>2026-04-26T10:14:41.686Z</time></trkpt><trkpt lat="33.283255" lon="10.1501524"><ele>404.0</ele><time>2026-04-26T10:14:42.69Z</time></trkpt><trkpt lat="33.2831319" lon="10.1501076"><ele>404.0</ele><time>2026-04-26T10:14:43.707Z</time></trkpt><trkpt lat="33.2830049" lon="10.1500756"><ele>404.0</ele><time>2026-04-26T10:14:44.693Z</time></trkpt><trkpt lat="33.2828851" lon="10.150037"><ele>404.5</ele><time>2026-04-26T10:14:45.694Z</time></trkpt><trkpt lat="33.2827738" lon="10.1499724"><ele>405.0</ele><time>2026-04-26T10:14:46.703Z</time></trkpt><trkpt lat="33.2826758" lon="10.1498749"><ele>405.5</ele><time>2026-04-26T10:14:47.688Z</time></trkpt><trkpt lat="33.2825734" lon="10.1497543"><ele>406.0</ele><time>2026-04-26T10:14:48.68Z</time></trkpt><trkpt lat="33.282473" lon="10.1496212"><ele>406.33333333333337</ele><time>2026-04-26T10:14:49.694Z</time></trkpt><trkpt lat="33.2823653" lon="10.1494875"><ele>406.66666666666663</ele><time>2026-04-26T10:14:50.682Z</time></trkpt><trkpt lat="33.2822557" lon="10.1493525"><ele>407.0</ele><time>2026-04-26T10:14:51.699Z</time></trkpt><trkpt lat="33.282135" lon="10.1492266"><ele>407.0</ele><time>2026-04-26T10:14:52.675Z</time></trkpt><trkpt lat="33.2820101" lon="10.1491197"><ele>407.0</ele><time>2026-04-26T10:14:53.671Z</time></trkpt><trkpt lat="33.2818748" lon="10.149028"><ele>407.0</ele><time>2026-04-26T10:14:54.682Z</time></trkpt><trkpt lat="33.2817357" lon="10.1489314"><ele>408.3333333333333</ele><time>2026-04-26T10:14:55.701Z</time></trkpt><trkpt lat="33.2815872" lon="10.1488301"><ele>409.66666666666663</ele><time>2026-04-26T10:14:56.702Z</time></trkpt><trkpt lat="33.2814369" lon="10.1487294"><ele>411.0</ele><time>2026-04-26T10:14:57.699Z</time></trkpt><trkpt lat="33.2812839" lon="10.1486307"><ele>411.0</ele><time>2026-04-26T10:14:58.696Z</time></trkpt><trkpt lat="33.281129" lon="10.1485299"><ele>411.0</ele><time>2026-04-26T10:14:59.683Z</time></trkpt><trkpt lat="33.280973" lon="10.1484387"><ele>411.0</ele><time>2026-04-26T10:15:00.677Z</time></trkpt><trkpt lat="33.2808087" lon="10.1483467"><ele>411.0</ele><time>2026-04-26T10:15:01.695Z</time></trkpt><trkpt lat="33.2806507" lon="10.148255"><ele>411.0</ele><time>2026-04-26T10:15:02.695Z</time></trkpt><trkpt lat="33.2804954" lon="10.1481635"><ele>411.0</ele><time>2026-04-26T10:15:03.687Z</time></trkpt><trkpt lat="33.2803436" lon="10.1480776"><ele>413.0</ele><time>2026-04-26T10:15:04.696Z</time></trkpt><trkpt lat="33.2802023" lon="10.1479881"><ele>415.0</ele><time>2026-04-26T10:15:05.68Z</time></trkpt><trkpt lat="33.2800655" lon="10.1478909"><ele>417.0</ele><time>2026-04-26T10:15:06.681Z</time></trkpt><trkpt lat="33.279937" lon="10.1477878"><ele>417.0</ele><time>2026-04-26T10:15:07.699Z</time></trkpt><trkpt lat="33.2798016" lon="10.1476777"><ele>417.0</ele><time>2026-04-26T10:15:08.684Z</time></trkpt><trkpt lat="33.2796843" lon="10.1475696"><ele>417.0</ele><time>2026-04-26T10:15:09.697Z</time></trkpt><trkpt lat="33.279576" lon="10.1474624"><ele>417.0</ele><time>2026-04-26T10:15:10.682Z</time></trkpt><trkpt lat="33.2794775" lon="10.147359"><ele>417.0</ele><time>2026-04-26T10:15:11.674Z</time></trkpt><trkpt lat="33.2793978" lon="10.147242"><ele>417.0</ele><time>2026-04-26T10:15:12.684Z</time></trkpt><trkpt lat="33.2793416" lon="10.1471014"><ele>417.0</ele><time>2026-04-26T10:15:13.698Z</time></trkpt><trkpt lat="33.2793009" lon="10.1469452"><ele>417.0</ele><time>2026-04-26T10:15:14.696Z</time></trkpt><trkpt lat="33.2792572" lon="10.1467904"><ele>417.0</ele><time>2026-04-26T10:15:15.685Z</time></trkpt><trkpt lat="33.2791938" lon="10.1466164"><ele>417.0</ele><time>2026-04-26T10:15:16.698Z</time></trkpt><trkpt lat="33.2791385" lon="10.1464497"><ele>417.0</ele><time>2026-04-26T10:15:17.693Z</time></trkpt><trkpt lat="33.2790836" lon="10.1462957"><ele>417.25</ele><time>2026-04-26T10:15:18.688Z</time></trkpt><trkpt lat="33.2790291" lon="10.1461528"><ele>417.5</ele><time>2026-04-26T10:15:19.695Z</time></trkpt><trkpt lat="33.2789756" lon="10.1460058"><ele>417.75</ele><time>2026-04-26T10:15:20.687Z</time></trkpt><trkpt lat="33.278923" lon="10.1458643"><ele>418.0</ele><time>2026-04-26T10:15:21.703Z</time></trkpt><trkpt lat="33.2788798" lon="10.1457181"><ele>418.5</ele><time>2026-04-26T10:15:22.692Z</time></trkpt><trkpt lat="33.2788406" lon="10.1455788"><ele>419.0</ele><time>2026-04-26T10:15:23.698Z</time></trkpt><trkpt lat="33.2788013" lon="10.1454467"><ele>419.5</ele><time>2026-04-26T10:15:24.691Z</time></trkpt><trkpt lat="33.2787607" lon="10.1453122"><ele>420.0</ele><time>2026-04-26T10:15:25.686Z</time></trkpt><trkpt lat="33.2787196" lon="10.1451762"><ele>420.0</ele><time>2026-04-26T10:15:26.701Z</time></trkpt><trkpt lat="33.2786835" lon="10.145039"><ele>420.0</ele><time>2026-04-26T10:15:27.7Z</time></trkpt><trkpt lat="33.2786412" lon="10.1449065"><ele>420.0</ele><time>2026-04-26T10:15:28.692Z</time></trkpt><trkpt lat="33.2785987" lon="10.1447726"><ele>420.0</ele><time>2026-04-26T10:15:29.686Z</time></trkpt><trkpt lat="33.2785568" lon="10.1446381"><ele>420.75</ele><time>2026-04-26T10:15:30.699Z</time></trkpt><trkpt lat="33.2785047" lon="10.1445094"><ele>421.5</ele><time>2026-04-26T10:15:31.684Z</time></trkpt><trkpt lat="33.278437" lon="10.1443893"><ele>422.25</ele><time>2026-04-26T10:15:32.696Z</time></trkpt><trkpt lat="33.2783675" lon="10.1442755"><ele>423.0</ele><time>2026-04-26T10:15:33.676Z</time></trkpt><trkpt lat="33.2782856" lon="10.1441621"><ele>423.0</ele><time>2026-04-26T10:15:34.687Z</time></trkpt><trkpt lat="33.2781988" lon="10.1440485"><ele>423.0</ele><time>2026-04-26T10:15:35.678Z</time></trkpt><trkpt lat="33.2781079" lon="10.1439437"><ele>423.0</ele><time>2026-04-26T10:15:36.694Z</time></trkpt><trkpt lat="33.2780204" lon="10.1438382"><ele>423.0</ele><time>2026-04-26T10:15:37.682Z</time></trkpt><trkpt lat="33.2779253" lon="10.1437433"><ele>422.5</ele><time>2026-04-26T10:15:38.69Z</time></trkpt><trkpt lat="33.2778293" lon="10.1436459"><ele>422.0</ele><time>2026-04-26T10:15:39.707Z</time></trkpt><trkpt lat="33.2777281" lon="10.1435579"><ele>421.5</ele><time>2026-04-26T10:15:40.708Z</time></trkpt><trkpt lat="33.2776295" lon="10.1434671"><ele>421.0</ele><time>2026-04-26T10:15:41.692Z</time></trkpt><trkpt lat="33.2775316" lon="10.1433753"><ele>421.0</ele><time>2026-04-26T10:15:42.686Z</time></trkpt><trkpt lat="33.277439" lon="10.1432818"><ele>421.0</ele><time>2026-04-26T10:15:43.684Z</time></trkpt><trkpt lat="33.277352" lon="10.143176"><ele>421.0</ele><time>2026-04-26T10:15:44.698Z</time></trkpt><trkpt lat="33.2772795" lon="10.1430539"><ele>421.0</ele><time>2026-04-26T10:15:45.697Z</time></trkpt><trkpt lat="33.2772064" lon="10.142935"><ele>422.0</ele><time>2026-04-26T10:15:46.701Z</time></trkpt><trkpt lat="33.2771273" lon="10.1428123"><ele>423.0</ele><time>2026-04-26T10:15:47.685Z</time></trkpt><trkpt lat="33.2770587" lon="10.1426778"><ele>424.0</ele><time>2026-04-26T10:15:48.694Z</time></trkpt><trkpt lat="33.276989" lon="10.1425377"><ele>425.0</ele><time>2026-04-26T10:15:49.696Z</time></trkpt><trkpt lat="33.2769178" lon="10.1423948"><ele>425.5</ele><time>2026-04-26T10:15:50.695Z</time></trkpt><trkpt lat="33.2768414" lon="10.1422503"><ele>426.0</ele><time>2026-04-26T10:15:51.681Z</time></trkpt><trkpt lat="33.2767672" lon="10.1421059"><ele>426.5</ele><time>2026-04-26T10:15:52.688Z</time></trkpt><trkpt lat="33.276695" lon="10.1419449"><ele>427.0</ele><time>2026-04-26T10:15:53.708Z</time></trkpt><trkpt lat="33.2766321" lon="10.1417758"><ele>427.0</ele><time>2026-04-26T10:15:54.686Z</time></trkpt><trkpt lat="33.2765757" lon="10.1416041"><ele>427.0</ele><time>2026-04-26T10:15:55.689Z</time></trkpt><trkpt lat="33.276517" lon="10.1414359"><ele>427.0</ele><time>2026-04-26T10:15:56.684Z</time></trkpt><trkpt lat="33.2764494" lon="10.1412647"><ele>428.33333333333337</ele><time>2026-04-26T10:15:57.697Z</time></trkpt><trkpt lat="33.2763827" lon="10.1410978"><ele>429.66666666666663</ele><time>2026-04-26T10:15:58.692Z</time></trkpt><trkpt lat="33.2763146" lon="10.140936"><ele>431.0</ele><time>2026-04-26T10:15:59.691Z</time></trkpt><trkpt lat="33.276246" lon="10.1407715"><ele>431.3333333333333</ele><time>2026-04-26T10:16:00.684Z</time></trkpt><trkpt lat="33.2761744" lon="10.1406035"><ele>431.66666666666663</ele><time>2026-04-26T10:16:01.698Z</time></trkpt><trkpt lat="33.2760917" lon="10.1404485"><ele>432.0</ele><time>2026-04-26T10:16:02.683Z</time></trkpt><trkpt lat="33.2760084" lon="10.1402894"><ele>432.0</ele><time>2026-04-26T10:16:03.685Z</time></trkpt><trkpt lat="33.2759141" lon="10.1401383"><ele>432.0</ele><time>2026-04-26T10:16:04.682Z</time></trkpt><trkpt lat="33.2758177" lon="10.1399911"><ele>432.0</ele><time>2026-04-26T10:16:05.652Z</time></trkpt><trkpt lat="33.2757216" lon="10.1398414"><ele>433.0</ele><time>2026-04-26T10:16:06.666Z</time></trkpt><trkpt lat="33.2756261" lon="10.1396894"><ele>434.0</ele><time>2026-04-26T10:16:07.683Z</time></trkpt><trkpt lat="33.2755298" lon="10.1395426"><ele>435.0</ele><time>2026-04-26T10:16:08.686Z</time></trkpt><trkpt lat="33.2754382" lon="10.1393878"><ele>435.0</ele><time>2026-04-26T10:16:09.684Z</time></trkpt><trkpt lat="33.27536" lon="10.1392265"><ele>435.0</ele><time>2026-04-26T10:16:10.704Z</time></trkpt><trkpt lat="33.2752894" lon="10.1390621"><ele>435.0</ele><time>2026-04-26T10:16:11.668Z</time></trkpt><trkpt lat="33.2752229" lon="10.1388984"><ele>436.66666666666663</ele><time>2026-04-26T10:16:12.683Z</time></trkpt><trkpt lat="33.2751589" lon="10.1387371"><ele>438.3333333333333</ele><time>2026-04-26T10:16:13.693Z</time></trkpt><trkpt lat="33.2750825" lon="10.1385833"><ele>440.0</ele><time>2026-04-26T10:16:14.696Z</time></trkpt><trkpt lat="33.2749975" lon="10.1384335"><ele>440.0</ele><time>2026-04-26T10:16:15.684Z</time></trkpt><trkpt lat="33.2749126" lon="10.1383007"><ele>440.0</ele><time>2026-04-26T10:16:16.7Z</time></trkpt><trkpt lat="33.2748245" lon="10.1381904"><ele>440.0</ele><time>2026-04-26T10:16:17.689Z</time></trkpt><trkpt lat="33.2747298" lon="10.1380941"><ele>440.0</ele><time>2026-04-26T10:16:18.703Z</time></trkpt><trkpt lat="33.2746423" lon="10.138006"><ele>440.0</ele><time>2026-04-26T10:16:19.699Z</time></trkpt><trkpt lat="33.2745514" lon="10.1379263"><ele>440.0</ele><time>2026-04-26T10:16:20.686Z</time></trkpt><trkpt lat="33.2744653" lon="10.1378594"><ele>440.0</ele><time>2026-04-26T10:16:21.7Z</time></trkpt><trkpt lat="33.2743884" lon="10.1377964"><ele>440.0</ele><time>2026-04-26T10:16:22.695Z</time></trkpt><trkpt lat="33.2743191" lon="10.1377423"><ele>440.0</ele><time>2026-04-26T10:16:23.692Z</time></trkpt><trkpt lat="33.2742639" lon="10.1376987"><ele>439.99999999999994</ele><time>2026-04-26T10:16:24.682Z</time></trkpt><trkpt lat="33.2742027" lon="10.1376554"><ele>440.0</ele><time>2026-04-26T10:16:25.686Z</time></trkpt><trkpt lat="33.2741428" lon="10.1376035"><ele>440.0</ele><time>2026-04-26T10:16:26.699Z</time></trkpt><trkpt lat="33.2740879" lon="10.1375491"><ele>440.0</ele><time>2026-04-26T10:16:27.699Z</time></trkpt><trkpt lat="33.2740374" lon="10.1374759"><ele>439.99999999999994</ele><time>2026-04-26T10:16:28.7Z</time></trkpt><trkpt lat="33.2739974" lon="10.1373835"><ele>440.0</ele><time>2026-04-26T10:16:29.692Z</time></trkpt><trkpt lat="33.2739486" lon="10.1372744"><ele>440.8</ele><time>2026-04-26T10:16:30.701Z</time></trkpt><trkpt lat="33.2739047" lon="10.137161"><ele>441.6</ele><time>2026-04-26T10:16:31.674Z</time></trkpt><trkpt lat="33.2738623" lon="10.1370415"><ele>442.4</ele><time>2026-04-26T10:16:32.702Z</time></trkpt><trkpt lat="33.2738208" lon="10.136917"><ele>443.2</ele><time>2026-04-26T10:16:33.707Z</time></trkpt><trkpt lat="33.2737719" lon="10.1367906"><ele>444.0</ele><time>2026-04-26T10:16:34.702Z</time></trkpt><trkpt lat="33.2737258" lon="10.1366596"><ele>443.25</ele><time>2026-04-26T10:16:35.705Z</time></trkpt><trkpt lat="33.2736842" lon="10.1365277"><ele>442.5</ele><time>2026-04-26T10:16:36.694Z</time></trkpt><trkpt lat="33.2736464" lon="10.1363893"><ele>441.75</ele><time>2026-04-26T10:16:37.695Z</time></trkpt><trkpt lat="33.2735999" lon="10.1362508"><ele>441.0</ele><time>2026-04-26T10:16:38.676Z</time></trkpt><trkpt lat="33.27356" lon="10.1361021"><ele>441.0</ele><time>2026-04-26T10:16:39.696Z</time></trkpt><trkpt lat="33.2735167" lon="10.1359461"><ele>441.0</ele><time>2026-04-26T10:16:40.684Z</time></trkpt><trkpt lat="33.2734708" lon="10.1357954"><ele>441.0</ele><time>2026-04-26T10:16:41.703Z</time></trkpt><trkpt lat="33.2734266" lon="10.1356397"><ele>441.0</ele><time>2026-04-26T10:16:42.685Z</time></trkpt><trkpt lat="33.2733815" lon="10.1354824"><ele>441.75</ele><time>2026-04-26T10:16:43.678Z</time></trkpt><trkpt lat="33.2733334" lon="10.1353229"><ele>442.5</ele><time>2026-04-26T10:16:44.698Z</time></trkpt><trkpt lat="33.2732809" lon="10.1351599"><ele>443.25</ele><time>2026-04-26T10:16:45.689Z</time></trkpt><trkpt lat="33.2732223" lon="10.1349909"><ele>444.0</ele><time>2026-04-26T10:16:46.69Z</time></trkpt><trkpt lat="33.2731552" lon="10.134819"><ele>444.33333333333337</ele><time>2026-04-26T10:16:47.685Z</time></trkpt><trkpt lat="33.2730808" lon="10.1346448"><ele>444.6666666666667</ele><time>2026-04-26T10:16:48.668Z</time></trkpt><trkpt lat="33.2730089" lon="10.134472"><ele>445.0</ele><time>2026-04-26T10:16:49.69Z</time></trkpt><trkpt lat="33.272926" lon="10.1343026"><ele>445.0</ele><time>2026-04-26T10:16:50.671Z</time></trkpt><trkpt lat="33.2728497" lon="10.1341352"><ele>445.0</ele><time>2026-04-26T10:16:51.696Z</time></trkpt><trkpt lat="33.2727757" lon="10.133965"><ele>445.0</ele><time>2026-04-26T10:16:52.664Z</time></trkpt><trkpt lat="33.2726937" lon="10.1337986"><ele>445.6666666666667</ele><time>2026-04-26T10:16:53.69Z</time></trkpt><trkpt lat="33.2726163" lon="10.1336406"><ele>446.33333333333337</ele><time>2026-04-26T10:16:54.682Z</time></trkpt><trkpt lat="33.272538" lon="10.1334805"><ele>447.0</ele><time>2026-04-26T10:16:55.685Z</time></trkpt><trkpt lat="33.2724627" lon="10.1333287"><ele>447.25</ele><time>2026-04-26T10:16:56.697Z</time></trkpt><trkpt lat="33.2723943" lon="10.1331783"><ele>447.5</ele><time>2026-04-26T10:16:57.686Z</time></trkpt><trkpt lat="33.2723271" lon="10.1330298"><ele>447.75</ele><time>2026-04-26T10:16:58.724Z</time></trkpt><trkpt lat="33.2722567" lon="10.1328786"><ele>448.0</ele><time>2026-04-26T10:16:59.691Z</time></trkpt><trkpt lat="33.2721963" lon="10.132732"><ele>448.25</ele><time>2026-04-26T10:17:00.681Z</time></trkpt><trkpt lat="33.2721414" lon="10.1325914"><ele>448.5</ele><time>2026-04-26T10:17:01.704Z</time></trkpt><trkpt lat="33.2720831" lon="10.1324517"><ele>448.75</ele><time>2026-04-26T10:17:02.683Z</time></trkpt><trkpt lat="33.2720289" lon="10.1323197"><ele>449.0</ele><time>2026-04-26T10:17:03.688Z</time></trkpt><trkpt lat="33.2719813" lon="10.1321851"><ele>449.25</ele><time>2026-04-26T10:17:04.687Z</time></trkpt><trkpt lat="33.2719328" lon="10.1320452"><ele>449.5</ele><time>2026-04-26T10:17:05.709Z</time></trkpt><trkpt lat="33.2718855" lon="10.1319073"><ele>449.75</ele><time>2026-04-26T10:17:06.698Z</time></trkpt><trkpt lat="33.2718413" lon="10.1317718"><ele>450.0</ele><time>2026-04-26T10:17:07.701Z</time></trkpt><trkpt lat="33.2718011" lon="10.1316439"><ele>450.2</ele><time>2026-04-26T10:17:08.678Z</time></trkpt><trkpt lat="33.2717634" lon="10.1315177"><ele>450.4</ele><time>2026-04-26T10:17:09.705Z</time></trkpt><trkpt lat="33.2717299" lon="10.1314096"><ele>450.6</ele><time>2026-04-26T10:17:10.698Z</time></trkpt><trkpt lat="33.2717045" lon="10.1313206"><ele>450.8</ele><time>2026-04-26T10:17:11.698Z</time></trkpt><trkpt lat="33.2716674" lon="10.1311937"><ele>451.0</ele><time>2026-04-26T10:17:13.693Z</time></trkpt><trkpt lat="33.2715964" lon="10.1311194"><ele>451.0</ele><time>2026-04-26T10:17:15.698Z</time></trkpt><trkpt lat="33.2714901" lon="10.1311174"><ele>451.0</ele><time>2026-04-26T10:17:17.707Z</time></trkpt><trkpt lat="33.2713613" lon="10.1311794"><ele>451.0</ele><time>2026-04-26T10:17:19.695Z</time></trkpt><trkpt lat="33.2712759" lon="10.1312124"><ele>451.0</ele><time>2026-04-26T10:17:20.691Z</time></trkpt><trkpt lat="33.2711777" lon="10.1312417"><ele>451.0</ele><time>2026-04-26T10:17:21.705Z</time></trkpt><trkpt lat="33.2710745" lon="10.1312705"><ele>450.5</ele><time>2026-04-26T10:17:22.697Z</time></trkpt><trkpt lat="33.270962" lon="10.1313002"><ele>450.0</ele><time>2026-04-26T10:17:23.712Z</time></trkpt><trkpt lat="33.2708474" lon="10.1313321"><ele>449.5</ele><time>2026-04-26T10:17:24.709Z</time></trkpt><trkpt lat="33.2707403" lon="10.131365"><ele>449.0</ele><time>2026-04-26T10:17:25.695Z</time></trkpt><trkpt lat="33.2706359" lon="10.1314023"><ele>449.4</ele><time>2026-04-26T10:17:26.705Z</time></trkpt><trkpt lat="33.2705265" lon="10.1314404"><ele>449.79999999999995</ele><time>2026-04-26T10:17:27.703Z</time></trkpt><trkpt lat="33.2704324" lon="10.1314665"><ele>450.20000000000005</ele><time>2026-04-26T10:17:28.695Z</time></trkpt><trkpt lat="33.2703418" lon="10.1314738"><ele>450.6</ele><time>2026-04-26T10:17:29.702Z</time></trkpt><trkpt lat="33.2702502" lon="10.1314603"><ele>451.0</ele><time>2026-04-26T10:17:30.706Z</time></trkpt><trkpt lat="33.2701526" lon="10.1314205"><ele>451.0</ele><time>2026-04-26T10:17:31.692Z</time></trkpt><trkpt lat="33.2700606" lon="10.1313569"><ele>451.0</ele><time>2026-04-26T10:17:32.702Z</time></trkpt><trkpt lat="33.2699636" lon="10.1312955"><ele>451.0</ele><time>2026-04-26T10:17:33.703Z</time></trkpt><trkpt lat="33.269865" lon="10.131244"><ele>451.0</ele><time>2026-04-26T10:17:34.715Z</time></trkpt><trkpt lat="33.2697586" lon="10.1311913"><ele>451.0</ele><time>2026-04-26T10:17:35.689Z</time></trkpt><trkpt lat="33.2696591" lon="10.1311395"><ele>451.8</ele><time>2026-04-26T10:17:36.702Z</time></trkpt><trkpt lat="33.2695542" lon="10.1311008"><ele>452.6</ele><time>2026-04-26T10:17:37.691Z</time></trkpt><trkpt lat="33.2694518" lon="10.1310604"><ele>453.4</ele><time>2026-04-26T10:17:38.701Z</time></trkpt><trkpt lat="33.2693563" lon="10.1310284"><ele>454.2</ele><time>2026-04-26T10:17:39.698Z</time></trkpt><trkpt lat="33.2692735" lon="10.1310063"><ele>455.0</ele><time>2026-04-26T10:17:40.696Z</time></trkpt><trkpt lat="33.2692019" lon="10.1309949"><ele>454.99999999999994</ele><time>2026-04-26T10:17:41.695Z</time></trkpt><trkpt lat="33.2691323" lon="10.1309851"><ele>455.0</ele><time>2026-04-26T10:17:42.697Z</time></trkpt><trkpt lat="33.2690664" lon="10.1309816"><ele>455.0</ele><time>2026-04-26T10:17:43.714Z</time></trkpt><trkpt lat="33.2689859" lon="10.1309802"><ele>455.0</ele><time>2026-04-26T10:17:44.688Z</time></trkpt><trkpt lat="33.2688946" lon="10.1309806"><ele>454.99999999999994</ele><time>2026-04-26T10:17:45.693Z</time></trkpt><trkpt lat="33.2688" lon="10.1309776"><ele>455.0</ele><time>2026-04-26T10:17:46.677Z</time></trkpt><trkpt lat="33.268708" lon="10.1309743"><ele>455.4</ele><time>2026-04-26T10:17:47.692Z</time></trkpt><trkpt lat="33.2686154" lon="10.1309694"><ele>455.8</ele><time>2026-04-26T10:17:48.676Z</time></trkpt><trkpt lat="33.26851" lon="10.1309625"><ele>456.20000000000005</ele><time>2026-04-26T10:17:49.689Z</time></trkpt><trkpt lat="33.2684019" lon="10.1309522"><ele>456.6</ele><time>2026-04-26T10:17:50.682Z</time></trkpt><trkpt lat="33.2682883" lon="10.1309348"><ele>457.0</ele><time>2026-04-26T10:17:51.682Z</time></trkpt><trkpt lat="33.2681643" lon="10.1309136"><ele>457.25</ele><time>2026-04-26T10:17:52.688Z</time></trkpt><trkpt lat="33.2680299" lon="10.130897"><ele>457.5</ele><time>2026-04-26T10:17:53.701Z</time></trkpt><trkpt lat="33.267883" lon="10.1308723"><ele>457.75</ele><time>2026-04-26T10:17:54.695Z</time></trkpt><trkpt lat="33.2677319" lon="10.1308526"><ele>458.0</ele><time>2026-04-26T10:17:55.678Z</time></trkpt><trkpt lat="33.2675808" lon="10.1308446"><ele>458.0</ele><time>2026-04-26T10:17:56.684Z</time></trkpt><trkpt lat="33.2674334" lon="10.1308576"><ele>458.0</ele><time>2026-04-26T10:17:57.708Z</time></trkpt><trkpt lat="33.2672863" lon="10.1308858"><ele>458.0</ele><time>2026-04-26T10:17:58.685Z</time></trkpt><trkpt lat="33.26714" lon="10.1309266"><ele>458.0</ele><time>2026-04-26T10:17:59.69Z</time></trkpt><trkpt lat="33.2670015" lon="10.130988"><ele>456.75</ele><time>2026-04-26T10:18:00.684Z</time></trkpt><trkpt lat="33.2668666" lon="10.1310618"><ele>455.5</ele><time>2026-04-26T10:18:01.702Z</time></trkpt><trkpt lat="33.2667511" lon="10.1311525"><ele>454.25</ele><time>2026-04-26T10:18:02.713Z</time></trkpt><trkpt lat="33.2666274" lon="10.1312623"><ele>453.0</ele><time>2026-04-26T10:18:03.679Z</time></trkpt><trkpt lat="33.2665185" lon="10.1313878"><ele>452.0</ele><time>2026-04-26T10:18:04.693Z</time></trkpt><trkpt lat="33.266409" lon="10.1315274"><ele>451.0</ele><time>2026-04-26T10:18:05.692Z</time></trkpt><trkpt lat="33.2663014" lon="10.1316773"><ele>450.0</ele><time>2026-04-26T10:18:06.691Z</time></trkpt><trkpt lat="33.2661945" lon="10.131822"><ele>452.33333333333337</ele><time>2026-04-26T10:18:07.691Z</time></trkpt><trkpt lat="33.2660856" lon="10.1319689"><ele>454.6666666666667</ele><time>2026-04-26T10:18:08.685Z</time></trkpt><trkpt lat="33.2659725" lon="10.1321207"><ele>457.0</ele><time>2026-04-26T10:18:09.69Z</time></trkpt><trkpt lat="33.2658639" lon="10.1322721"><ele>457.0</ele><time>2026-04-26T10:18:10.704Z</time></trkpt><trkpt lat="33.2657548" lon="10.1324201"><ele>457.0</ele><time>2026-04-26T10:18:11.693Z</time></trkpt><trkpt lat="33.2656397" lon="10.1325652"><ele>457.0</ele><time>2026-04-26T10:18:12.684Z</time></trkpt><trkpt lat="33.265528" lon="10.1327088"><ele>457.0</ele><time>2026-04-26T10:18:13.68Z</time></trkpt><trkpt lat="33.2654093" lon="10.1328475"><ele>457.0</ele><time>2026-04-26T10:18:14.687Z</time></trkpt><trkpt lat="33.2652928" lon="10.1329869"><ele>457.0</ele><time>2026-04-26T10:18:15.689Z</time></trkpt><trkpt lat="33.2651686" lon="10.1331217"><ele>459.0</ele><time>2026-04-26T10:18:16.682Z</time></trkpt><trkpt lat="33.2650455" lon="10.1332575"><ele>461.0</ele><time>2026-04-26T10:18:17.708Z</time></trkpt><trkpt lat="33.2649206" lon="10.1333867"><ele>463.0</ele><time>2026-04-26T10:18:18.687Z</time></trkpt><trkpt lat="33.2648057" lon="10.1335089"><ele>461.0</ele><time>2026-04-26T10:18:19.691Z</time></trkpt><trkpt lat="33.2646977" lon="10.1336296"><ele>459.0</ele><time>2026-04-26T10:18:20.695Z</time></trkpt><trkpt lat="33.2645909" lon="10.1337577"><ele>457.0</ele><time>2026-04-26T10:18:21.677Z</time></trkpt><trkpt lat="33.264486" lon="10.1338953"><ele>457.0</ele><time>2026-04-26T10:18:22.675Z</time></trkpt><trkpt lat="33.2643759" lon="10.1340429"><ele>457.0</ele><time>2026-04-26T10:18:23.675Z</time></trkpt><trkpt lat="33.2642797" lon="10.134198"><ele>457.0</ele><time>2026-04-26T10:18:24.686Z</time></trkpt><trkpt lat="33.2641838" lon="10.1343582"><ele>457.33333333333337</ele><time>2026-04-26T10:18:25.685Z</time></trkpt><trkpt lat="33.2640832" lon="10.1345226"><ele>457.66666666666663</ele><time>2026-04-26T10:18:26.698Z</time></trkpt><trkpt lat="33.2639818" lon="10.1346923"><ele>458.0</ele><time>2026-04-26T10:18:27.687Z</time></trkpt><trkpt lat="33.2638875" lon="10.1348592"><ele>457.3333333333333</ele><time>2026-04-26T10:18:28.68Z</time></trkpt><trkpt lat="33.2637911" lon="10.1350242"><ele>456.66666666666663</ele><time>2026-04-26T10:18:29.698Z</time></trkpt><trkpt lat="33.2636943" lon="10.1351893"><ele>456.0</ele><time>2026-04-26T10:18:30.715Z</time></trkpt><trkpt lat="33.2636005" lon="10.1353556"><ele>456.0</ele><time>2026-04-26T10:18:31.696Z</time></trkpt><trkpt lat="33.2635182" lon="10.1355222"><ele>456.0</ele><time>2026-04-26T10:18:32.682Z</time></trkpt><trkpt lat="33.2634387" lon="10.1356965"><ele>456.0</ele><time>2026-04-26T10:18:33.7Z</time></trkpt><trkpt lat="33.2633664" lon="10.1358739"><ele>455.66666666666663</ele><time>2026-04-26T10:18:34.69Z</time></trkpt><trkpt lat="33.2632951" lon="10.1360568"><ele>455.3333333333333</ele><time>2026-04-26T10:18:35.698Z</time></trkpt><trkpt lat="33.2632344" lon="10.136255"><ele>455.0</ele><time>2026-04-26T10:18:36.701Z</time></trkpt><trkpt lat="33.2631793" lon="10.1364595"><ele>456.0</ele><time>2026-04-26T10:18:37.691Z</time></trkpt><trkpt lat="33.2631356" lon="10.1366588"><ele>457.0</ele><time>2026-04-26T10:18:38.692Z</time></trkpt><trkpt lat="33.2630982" lon="10.1368544"><ele>458.0</ele><time>2026-04-26T10:18:39.706Z</time></trkpt><trkpt lat="33.2630857" lon="10.1370418"><ele>458.0</ele><time>2026-04-26T10:18:40.708Z</time></trkpt><trkpt lat="33.2630818" lon="10.1372094"><ele>458.0</ele><time>2026-04-26T10:18:41.713Z</time></trkpt><trkpt lat="33.263076" lon="10.1373785"><ele>458.0</ele><time>2026-04-26T10:18:42.691Z</time></trkpt><trkpt lat="33.26308" lon="10.1375604"><ele>458.0</ele><time>2026-04-26T10:18:43.675Z</time></trkpt><trkpt lat="33.2631017" lon="10.1377484"><ele>458.66666666666663</ele><time>2026-04-26T10:18:44.679Z</time></trkpt><trkpt lat="33.2631222" lon="10.1379502"><ele>459.33333333333337</ele><time>2026-04-26T10:18:45.701Z</time></trkpt><trkpt lat="33.2631474" lon="10.1381697"><ele>460.0</ele><time>2026-04-26T10:18:46.686Z</time></trkpt><trkpt lat="33.2631822" lon="10.1384003"><ele>460.33333333333337</ele><time>2026-04-26T10:18:47.694Z</time></trkpt><trkpt lat="33.2632098" lon="10.1386419"><ele>460.66666666666663</ele><time>2026-04-26T10:18:48.7Z</time></trkpt><trkpt lat="33.263233" lon="10.1388843"><ele>461.0</ele><time>2026-04-26T10:18:49.686Z</time></trkpt><trkpt lat="33.2632545" lon="10.1391208"><ele>461.66666666666663</ele><time>2026-04-26T10:18:50.691Z</time></trkpt><trkpt lat="33.2632719" lon="10.1393517"><ele>462.33333333333337</ele><time>2026-04-26T10:18:51.692Z</time></trkpt><trkpt lat="33.2632786" lon="10.1395743"><ele>463.0</ele><time>2026-04-26T10:18:52.714Z</time></trkpt><trkpt lat="33.2632724" lon="10.1397975"><ele>462.33333333333337</ele><time>2026-04-26T10:18:53.702Z</time></trkpt><trkpt lat="33.2632489" lon="10.1400206"><ele>461.66666666666663</ele><time>2026-04-26T10:18:54.716Z</time></trkpt><trkpt lat="33.2632018" lon="10.1402345"><ele>461.0</ele><time>2026-04-26T10:18:55.693Z</time></trkpt><trkpt lat="33.263144" lon="10.1404431"><ele>461.66666666666663</ele><time>2026-04-26T10:18:56.696Z</time></trkpt><trkpt lat="33.2630726" lon="10.1406562"><ele>462.33333333333337</ele><time>2026-04-26T10:18:57.693Z</time></trkpt><trkpt lat="33.2629934" lon="10.1408596"><ele>463.0</ele><time>2026-04-26T10:18:58.685Z</time></trkpt><trkpt lat="33.262916" lon="10.1410626"><ele>463.33333333333337</ele><time>2026-04-26T10:18:59.69Z</time></trkpt><trkpt lat="33.2628401" lon="10.1412606"><ele>463.66666666666663</ele><time>2026-04-26T10:19:00.694Z</time></trkpt><trkpt lat="33.2627629" lon="10.1414556"><ele>464.0</ele><time>2026-04-26T10:19:01.693Z</time></trkpt><trkpt lat="33.2626817" lon="10.1416443"><ele>464.66666666666663</ele><time>2026-04-26T10:19:02.699Z</time></trkpt><trkpt lat="33.2625968" lon="10.1418223"><ele>465.33333333333337</ele><time>2026-04-26T10:19:03.685Z</time></trkpt><trkpt lat="33.2624984" lon="10.1419998"><ele>466.0</ele><time>2026-04-26T10:19:04.714Z</time></trkpt><trkpt lat="33.2623729" lon="10.1421691"><ele>468.6666666666667</ele><time>2026-04-26T10:19:05.675Z</time></trkpt><trkpt lat="33.2622236" lon="10.1423288"><ele>471.33333333333337</ele><time>2026-04-26T10:19:06.687Z</time></trkpt><trkpt lat="33.2620755" lon="10.1424816"><ele>474.0</ele><time>2026-04-26T10:19:07.697Z</time></trkpt><trkpt lat="33.2619376" lon="10.1426234"><ele>474.33333333333337</ele><time>2026-04-26T10:19:08.691Z</time></trkpt><trkpt lat="33.2618121" lon="10.1427663"><ele>474.6666666666667</ele><time>2026-04-26T10:19:09.695Z</time></trkpt><trkpt lat="33.2617083" lon="10.1428965"><ele>475.0</ele><time>2026-04-26T10:19:10.683Z</time></trkpt><trkpt lat="33.261628" lon="10.1430246"><ele>475.0</ele><time>2026-04-26T10:19:11.694Z</time></trkpt><trkpt lat="33.2615803" lon="10.1431537"><ele>475.0</ele><time>2026-04-26T10:19:12.695Z</time></trkpt><trkpt lat="33.2615583" lon="10.1432982"><ele>475.0</ele><time>2026-04-26T10:19:13.688Z</time></trkpt><trkpt lat="33.2615597" lon="10.1434438"><ele>475.0</ele><time>2026-04-26T10:19:14.692Z</time></trkpt><trkpt lat="33.2615997" lon="10.1435941"><ele>475.5</ele><time>2026-04-26T10:19:15.698Z</time></trkpt><trkpt lat="33.2616615" lon="10.1437311"><ele>476.0</ele><time>2026-04-26T10:19:16.683Z</time></trkpt><trkpt lat="33.2617522" lon="10.1438574"><ele>476.5</ele><time>2026-04-26T10:19:17.689Z</time></trkpt><trkpt lat="33.2618678" lon="10.1439691"><ele>477.0</ele><time>2026-04-26T10:19:18.687Z</time></trkpt><trkpt lat="33.2619918" lon="10.1440893"><ele>477.0</ele><time>2026-04-26T10:19:19.699Z</time></trkpt><trkpt lat="33.2621089" lon="10.1442416"><ele>477.0</ele><time>2026-04-26T10:19:20.689Z</time></trkpt><trkpt lat="33.262214" lon="10.1444022"><ele>477.0</ele><time>2026-04-26T10:19:21.68Z</time></trkpt><trkpt lat="33.2623087" lon="10.1445636"><ele>476.33333333333337</ele><time>2026-04-26T10:19:22.692Z</time></trkpt><trkpt lat="33.2623963" lon="10.1447316"><ele>475.6666666666667</ele><time>2026-04-26T10:19:23.7Z</time></trkpt><trkpt lat="33.2624756" lon="10.1448938"><ele>475.0</ele><time>2026-04-26T10:19:24.688Z</time></trkpt><trkpt lat="33.2625529" lon="10.1450539"><ele>475.0</ele><time>2026-04-26T10:19:25.68Z</time></trkpt><trkpt lat="33.2626312" lon="10.1452125"><ele>475.0</ele><time>2026-04-26T10:19:26.683Z</time></trkpt><trkpt lat="33.2627103" lon="10.1453727"><ele>475.0</ele><time>2026-04-26T10:19:27.706Z</time></trkpt><trkpt lat="33.2627826" lon="10.1455337"><ele>475.0</ele><time>2026-04-26T10:19:28.687Z</time></trkpt><trkpt lat="33.2628513" lon="10.1456934"><ele>475.0</ele><time>2026-04-26T10:19:29.68Z</time></trkpt><trkpt lat="33.26292" lon="10.1458541"><ele>475.0</ele><time>2026-04-26T10:19:30.703Z</time></trkpt><trkpt lat="33.2629792" lon="10.1460042"><ele>475.0</ele><time>2026-04-26T10:19:31.691Z</time></trkpt><trkpt lat="33.2630317" lon="10.1461514"><ele>474.0</ele><time>2026-04-26T10:19:32.677Z</time></trkpt><trkpt lat="33.2630755" lon="10.1463043"><ele>473.0</ele><time>2026-04-26T10:19:33.675Z</time></trkpt><trkpt lat="33.2631068" lon="10.1464689"><ele>472.0</ele><time>2026-04-26T10:19:34.687Z</time></trkpt><trkpt lat="33.2631394" lon="10.1466368"><ele>471.0</ele><time>2026-04-26T10:19:35.704Z</time></trkpt><trkpt lat="33.263171" lon="10.1468071"><ele>471.0</ele><time>2026-04-26T10:19:36.684Z</time></trkpt><trkpt lat="33.2631989" lon="10.146988"><ele>471.0</ele><time>2026-04-26T10:19:37.693Z</time></trkpt><trkpt lat="33.2632229" lon="10.1471723"><ele>471.0</ele><time>2026-04-26T10:19:38.686Z</time></trkpt><trkpt lat="33.2632425" lon="10.1473628"><ele>472.0</ele><time>2026-04-26T10:19:39.674Z</time></trkpt><trkpt lat="33.2632599" lon="10.1475528"><ele>473.0</ele><time>2026-04-26T10:19:40.693Z</time></trkpt><trkpt lat="33.2632807" lon="10.1477395"><ele>474.0</ele><time>2026-04-26T10:19:41.696Z</time></trkpt><trkpt lat="33.2632975" lon="10.1479301"><ele>474.0</ele><time>2026-04-26T10:19:42.694Z</time></trkpt><trkpt lat="33.2633186" lon="10.1481224"><ele>474.0</ele><time>2026-04-26T10:19:43.691Z</time></trkpt><trkpt lat="33.2633402" lon="10.1483123"><ele>474.0</ele><time>2026-04-26T10:19:44.684Z</time></trkpt><trkpt lat="33.2633726" lon="10.1485013"><ele>474.33333333333337</ele><time>2026-04-26T10:19:45.692Z</time></trkpt><trkpt lat="33.2634139" lon="10.1486881"><ele>474.6666666666667</ele><time>2026-04-26T10:19:46.696Z</time></trkpt><trkpt lat="33.2634572" lon="10.1488765"><ele>475.0</ele><time>2026-04-26T10:19:47.691Z</time></trkpt><trkpt lat="33.2635071" lon="10.1490655"><ele>476.33333333333337</ele><time>2026-04-26T10:19:48.688Z</time></trkpt><trkpt lat="33.263562" lon="10.149256"><ele>477.66666666666663</ele><time>2026-04-26T10:19:49.697Z</time></trkpt><trkpt lat="33.2636271" lon="10.1494393"><ele>479.0</ele><time>2026-04-26T10:19:50.692Z</time></trkpt><trkpt lat="33.2636999" lon="10.149622"><ele>479.0</ele><time>2026-04-26T10:19:51.688Z</time></trkpt><trkpt lat="33.2637767" lon="10.1497999"><ele>479.0</ele><time>2026-04-26T10:19:52.687Z</time></trkpt><trkpt lat="33.2638522" lon="10.1499789"><ele>479.0</ele><time>2026-04-26T10:19:53.689Z</time></trkpt><trkpt lat="33.2639284" lon="10.1501585"><ele>477.3333333333333</ele><time>2026-04-26T10:19:54.693Z</time></trkpt><trkpt lat="33.2640081" lon="10.1503331"><ele>475.66666666666663</ele><time>2026-04-26T10:19:55.7Z</time></trkpt><trkpt lat="33.2640904" lon="10.150508"><ele>474.0</ele><time>2026-04-26T10:19:56.676Z</time></trkpt><trkpt lat="33.2641698" lon="10.1506843"><ele>474.33333333333337</ele><time>2026-04-26T10:19:57.676Z</time></trkpt><trkpt lat="33.2642417" lon="10.1508615"><ele>474.6666666666667</ele><time>2026-04-26T10:19:58.682Z</time></trkpt><trkpt lat="33.2643062" lon="10.1510379"><ele>475.0</ele><time>2026-04-26T10:19:59.694Z</time></trkpt><trkpt lat="33.2643526" lon="10.1512172"><ele>475.0</ele><time>2026-04-26T10:20:00.678Z</time></trkpt><trkpt lat="33.2643754" lon="10.1514016"><ele>475.0</ele><time>2026-04-26T10:20:01.672Z</time></trkpt><trkpt lat="33.2643829" lon="10.1515836"><ele>475.0</ele><time>2026-04-26T10:20:02.675Z</time></trkpt><trkpt lat="33.2643816" lon="10.1517645"><ele>476.0</ele><time>2026-04-26T10:20:03.689Z</time></trkpt><trkpt lat="33.2643767" lon="10.1519486"><ele>477.0</ele><time>2026-04-26T10:20:04.68Z</time></trkpt><trkpt lat="33.264371" lon="10.1521407"><ele>478.0</ele><time>2026-04-26T10:20:05.697Z</time></trkpt><trkpt lat="33.2643688" lon="10.1523293"><ele>477.6666666666667</ele><time>2026-04-26T10:20:06.679Z</time></trkpt><trkpt lat="33.2643655" lon="10.1525151"><ele>477.33333333333337</ele><time>2026-04-26T10:20:07.696Z</time></trkpt><trkpt lat="33.2643562" lon="10.152707"><ele>477.0</ele><time>2026-04-26T10:20:08.694Z</time></trkpt><trkpt lat="33.2643458" lon="10.1529016"><ele>477.0</ele><time>2026-04-26T10:20:09.691Z</time></trkpt><trkpt lat="33.2643353" lon="10.153096"><ele>477.0</ele><time>2026-04-26T10:20:10.689Z</time></trkpt><trkpt lat="33.2643265" lon="10.1532918"><ele>477.0</ele><time>2026-04-26T10:20:11.696Z</time></trkpt><trkpt lat="33.2643114" lon="10.1534917"><ele>477.33333333333337</ele><time>2026-04-26T10:20:12.7Z</time></trkpt><trkpt lat="33.2642963" lon="10.1536916"><ele>477.6666666666667</ele><time>2026-04-26T10:20:13.681Z</time></trkpt><trkpt lat="33.264277" lon="10.1538989"><ele>478.0</ele><time>2026-04-26T10:20:14.693Z</time></trkpt><trkpt lat="33.2642534" lon="10.1541033"><ele>478.0</ele><time>2026-04-26T10:20:15.696Z</time></trkpt><trkpt lat="33.2642291" lon="10.1543035"><ele>478.0</ele><time>2026-04-26T10:20:16.689Z</time></trkpt><trkpt lat="33.2642019" lon="10.1545091"><ele>478.0</ele><time>2026-04-26T10:20:17.715Z</time></trkpt><trkpt lat="33.2641746" lon="10.1547108"><ele>478.0</ele><time>2026-04-26T10:20:18.691Z</time></trkpt><trkpt lat="33.2641518" lon="10.154912"><ele>478.0</ele><time>2026-04-26T10:20:19.712Z</time></trkpt><trkpt lat="33.2641305" lon="10.1551036"><ele>478.0</ele><time>2026-04-26T10:20:20.684Z</time></trkpt><trkpt lat="33.2641114" lon="10.1552971"><ele>478.0</ele><time>2026-04-26T10:20:21.686Z</time></trkpt><trkpt lat="33.2640955" lon="10.1554843"><ele>478.0</ele><time>2026-04-26T10:20:22.693Z</time></trkpt><trkpt lat="33.2640721" lon="10.1556613"><ele>478.0</ele><time>2026-04-26T10:20:23.704Z</time></trkpt><trkpt lat="33.2640561" lon="10.1558352"><ele>478.0</ele><time>2026-04-26T10:20:24.699Z</time></trkpt><trkpt lat="33.2640379" lon="10.1560074"><ele>478.0</ele><time>2026-04-26T10:20:25.693Z</time></trkpt><trkpt lat="33.2640157" lon="10.1561801"><ele>478.0</ele><time>2026-04-26T10:20:26.7Z</time></trkpt><trkpt lat="33.263991" lon="10.156359"><ele>478.0</ele><time>2026-04-26T10:20:27.695Z</time></trkpt><trkpt lat="33.263959" lon="10.1565427"><ele>479.0</ele><time>2026-04-26T10:20:28.707Z</time></trkpt><trkpt lat="33.2639235" lon="10.1567288"><ele>480.0</ele><time>2026-04-26T10:20:29.701Z</time></trkpt><trkpt lat="33.2638836" lon="10.1569135"><ele>481.0</ele><time>2026-04-26T10:20:30.691Z</time></trkpt><trkpt lat="33.2638475" lon="10.1570965"><ele>481.0</ele><time>2026-04-26T10:20:31.682Z</time></trkpt><trkpt lat="33.2638199" lon="10.1572784"><ele>481.0</ele><time>2026-04-26T10:20:32.693Z</time></trkpt><trkpt lat="33.263803" lon="10.1574535"><ele>481.0</ele><time>2026-04-26T10:20:33.684Z</time></trkpt><trkpt lat="33.2637865" lon="10.1576329"><ele>481.0</ele><time>2026-04-26T10:20:34.691Z</time></trkpt><trkpt lat="33.2637808" lon="10.1578114"><ele>481.0</ele><time>2026-04-26T10:20:35.702Z</time></trkpt><trkpt lat="33.263786" lon="10.1579853"><ele>481.0</ele><time>2026-04-26T10:20:36.68Z</time></trkpt><trkpt lat="33.2637974" lon="10.1581585"><ele>481.0</ele><time>2026-04-26T10:20:37.697Z</time></trkpt><trkpt lat="33.2638164" lon="10.1583347"><ele>481.5</ele><time>2026-04-26T10:20:38.682Z</time></trkpt><trkpt lat="33.2638343" lon="10.1585085"><ele>482.0</ele><time>2026-04-26T10:20:39.693Z</time></trkpt><trkpt lat="33.2638539" lon="10.1586816"><ele>482.5</ele><time>2026-04-26T10:20:40.679Z</time></trkpt><trkpt lat="33.2638756" lon="10.1588548"><ele>483.0</ele><time>2026-04-26T10:20:41.689Z</time></trkpt><trkpt lat="33.2638961" lon="10.1590264"><ele>483.5</ele><time>2026-04-26T10:20:42.688Z</time></trkpt><trkpt lat="33.2639197" lon="10.1591955"><ele>484.0</ele><time>2026-04-26T10:20:43.685Z</time></trkpt><trkpt lat="33.2639429" lon="10.1593655"><ele>484.5</ele><time>2026-04-26T10:20:44.686Z</time></trkpt><trkpt lat="33.2639643" lon="10.1595388"><ele>485.0</ele><time>2026-04-26T10:20:45.683Z</time></trkpt><trkpt lat="33.2639814" lon="10.1597044"><ele>485.5</ele><time>2026-04-26T10:20:46.687Z</time></trkpt><trkpt lat="33.2639963" lon="10.1598706"><ele>486.0</ele><time>2026-04-26T10:20:47.687Z</time></trkpt><trkpt lat="33.2640089" lon="10.1600398"><ele>486.5</ele><time>2026-04-26T10:20:48.678Z</time></trkpt><trkpt lat="33.2640232" lon="10.1602063"><ele>487.0</ele><time>2026-04-26T10:20:49.698Z</time></trkpt><trkpt lat="33.2640333" lon="10.1603761"><ele>487.0</ele><time>2026-04-26T10:20:50.704Z</time></trkpt><trkpt lat="33.2640431" lon="10.1605533"><ele>487.0</ele><time>2026-04-26T10:20:51.692Z</time></trkpt><trkpt lat="33.2640545" lon="10.1607298"><ele>487.0</ele><time>2026-04-26T10:20:52.677Z</time></trkpt><trkpt lat="33.2640638" lon="10.1609058"><ele>487.0</ele><time>2026-04-26T10:20:53.694Z</time></trkpt><trkpt lat="33.2640747" lon="10.1610847"><ele>487.0</ele><time>2026-04-26T10:20:54.702Z</time></trkpt><trkpt lat="33.2640839" lon="10.1612621"><ele>487.0</ele><time>2026-04-26T10:20:55.706Z</time></trkpt><trkpt lat="33.2640921" lon="10.1614413"><ele>487.0</ele><time>2026-04-26T10:20:56.687Z</time></trkpt><trkpt lat="33.264096" lon="10.1616251"><ele>487.0</ele><time>2026-04-26T10:20:57.71Z</time></trkpt><trkpt lat="33.264086" lon="10.1618042"><ele>487.0</ele><time>2026-04-26T10:20:58.684Z</time></trkpt><trkpt lat="33.2640617" lon="10.1619654"><ele>487.0</ele><time>2026-04-26T10:20:59.706Z</time></trkpt><trkpt lat="33.2640144" lon="10.1621087"><ele>487.0</ele><time>2026-04-26T10:21:00.708Z</time></trkpt><trkpt lat="33.2639542" lon="10.1622388"><ele>488.0</ele><time>2026-04-26T10:21:01.694Z</time></trkpt><trkpt lat="33.2638923" lon="10.1623698"><ele>489.0</ele><time>2026-04-26T10:21:02.684Z</time></trkpt><trkpt lat="33.2638486" lon="10.1625069"><ele>490.0</ele><time>2026-04-26T10:21:03.7Z</time></trkpt><trkpt lat="33.2638263" lon="10.1626649"><ele>491.0</ele><time>2026-04-26T10:21:04.699Z</time></trkpt><trkpt lat="33.2638185" lon="10.1628229"><ele>491.0</ele><time>2026-04-26T10:21:05.69Z</time></trkpt><trkpt lat="33.2638279" lon="10.1630005"><ele>491.0</ele><time>2026-04-26T10:21:06.687Z</time></trkpt><trkpt lat="33.2638549" lon="10.1631699"><ele>491.0</ele><time>2026-04-26T10:21:07.679Z</time></trkpt><trkpt lat="33.2639005" lon="10.163342"><ele>491.0</ele><time>2026-04-26T10:21:08.704Z</time></trkpt><trkpt lat="33.2639494" lon="10.1635216"><ele>491.0</ele><time>2026-04-26T10:21:09.701Z</time></trkpt><trkpt lat="33.2640004" lon="10.163702"><ele>491.0</ele><time>2026-04-26T10:21:10.678Z</time></trkpt><trkpt lat="33.2640574" lon="10.1638779"><ele>491.0</ele><time>2026-04-26T10:21:11.69Z</time></trkpt><trkpt lat="33.2641252" lon="10.1640519"><ele>489.66666666666663</ele><time>2026-04-26T10:21:12.671Z</time></trkpt><trkpt lat="33.2641923" lon="10.1642214"><ele>488.33333333333337</ele><time>2026-04-26T10:21:13.681Z</time></trkpt><trkpt lat="33.2642635" lon="10.1643902"><ele>487.0</ele><time>2026-04-26T10:21:14.677Z</time></trkpt><trkpt lat="33.2643335" lon="10.1645484"><ele>487.0</ele><time>2026-04-26T10:21:15.694Z</time></trkpt><trkpt lat="33.2643982" lon="10.1646999"><ele>487.0</ele><time>2026-04-26T10:21:16.676Z</time></trkpt><trkpt lat="33.2644638" lon="10.1648442"><ele>487.0</ele><time>2026-04-26T10:21:17.689Z</time></trkpt><trkpt lat="33.2645264" lon="10.1649843"><ele>487.0</ele><time>2026-04-26T10:21:18.674Z</time></trkpt><trkpt lat="33.2645713" lon="10.1651283"><ele>488.5</ele><time>2026-04-26T10:21:19.691Z</time></trkpt><trkpt lat="33.2646062" lon="10.1652764"><ele>490.0</ele><time>2026-04-26T10:21:20.688Z</time></trkpt><trkpt lat="33.2646169" lon="10.1654355"><ele>491.5</ele><time>2026-04-26T10:21:21.69Z</time></trkpt><trkpt lat="33.2646087" lon="10.1655847"><ele>493.0</ele><time>2026-04-26T10:21:22.688Z</time></trkpt><trkpt lat="33.2645747" lon="10.1657492"><ele>493.25</ele><time>2026-04-26T10:21:23.683Z</time></trkpt><trkpt lat="33.2645533" lon="10.1659245"><ele>493.5</ele><time>2026-04-26T10:21:24.697Z</time></trkpt><trkpt lat="33.2645456" lon="10.1660949"><ele>493.75</ele><time>2026-04-26T10:21:25.686Z</time></trkpt><trkpt lat="33.2645248" lon="10.1662695"><ele>494.0</ele><time>2026-04-26T10:21:26.689Z</time></trkpt><trkpt lat="33.2644984" lon="10.1664477"><ele>495.0</ele><time>2026-04-26T10:21:27.687Z</time></trkpt><trkpt lat="33.2644776" lon="10.1666256"><ele>496.0</ele><time>2026-04-26T10:21:28.678Z</time></trkpt><trkpt lat="33.2644782" lon="10.1667986"><ele>497.0</ele><time>2026-04-26T10:21:29.68Z</time></trkpt><trkpt lat="33.264499" lon="10.1669855"><ele>497.0</ele><time>2026-04-26T10:21:30.686Z</time></trkpt><trkpt lat="33.2645332" lon="10.1671674"><ele>497.0</ele><time>2026-04-26T10:21:31.682Z</time></trkpt><trkpt lat="33.2645514" lon="10.167349"><ele>497.0</ele><time>2026-04-26T10:21:32.698Z</time></trkpt><trkpt lat="33.2645451" lon="10.1675273"><ele>496.3333333333333</ele><time>2026-04-26T10:21:33.678Z</time></trkpt><trkpt lat="33.2645234" lon="10.1677207"><ele>495.66666666666663</ele><time>2026-04-26T10:21:34.71Z</time></trkpt><trkpt lat="33.264487" lon="10.1679137"><ele>495.0</ele><time>2026-04-26T10:21:35.697Z</time></trkpt><trkpt lat="33.2644439" lon="10.1681198"><ele>494.66666666666663</ele><time>2026-04-26T10:21:36.679Z</time></trkpt><trkpt lat="33.2644082" lon="10.1683313"><ele>494.3333333333333</ele><time>2026-04-26T10:21:37.673Z</time></trkpt><trkpt lat="33.2643827" lon="10.1685405"><ele>494.0</ele><time>2026-04-26T10:21:38.693Z</time></trkpt><trkpt lat="33.2643623" lon="10.1687536"><ele>494.0</ele><time>2026-04-26T10:21:39.69Z</time></trkpt><trkpt lat="33.264346" lon="10.1689637"><ele>494.0</ele><time>2026-04-26T10:21:40.688Z</time></trkpt><trkpt lat="33.2643324" lon="10.1691813"><ele>494.0</ele><time>2026-04-26T10:21:41.686Z</time></trkpt><trkpt lat="33.264324" lon="10.1693929"><ele>495.0</ele><time>2026-04-26T10:21:42.698Z</time></trkpt><trkpt lat="33.2643232" lon="10.1695965"><ele>496.0</ele><time>2026-04-26T10:21:43.682Z</time></trkpt><trkpt lat="33.2643205" lon="10.1697973"><ele>497.0</ele><time>2026-04-26T10:21:44.681Z</time></trkpt><trkpt lat="33.2643203" lon="10.1699971"><ele>497.0</ele><time>2026-04-26T10:21:45.687Z</time></trkpt><trkpt lat="33.2643248" lon="10.1701919"><ele>497.0</ele><time>2026-04-26T10:21:46.684Z</time></trkpt><trkpt lat="33.2643403" lon="10.1703713"><ele>497.0</ele><time>2026-04-26T10:21:47.683Z</time></trkpt><trkpt lat="33.2643458" lon="10.1705385"><ele>497.5</ele><time>2026-04-26T10:21:48.681Z</time></trkpt><trkpt lat="33.2643428" lon="10.1707066"><ele>498.0</ele><time>2026-04-26T10:21:49.688Z</time></trkpt><trkpt lat="33.2643126" lon="10.170873"><ele>498.5</ele><time>2026-04-26T10:21:50.68Z</time></trkpt><trkpt lat="33.2642804" lon="10.1710305"><ele>499.0</ele><time>2026-04-26T10:21:51.688Z</time></trkpt><trkpt lat="33.2642625" lon="10.1711779"><ele>499.0</ele><time>2026-04-26T10:21:52.681Z</time></trkpt><trkpt lat="33.2642737" lon="10.1713362"><ele>499.0</ele><time>2026-04-26T10:21:53.689Z</time></trkpt><trkpt lat="33.2643172" lon="10.1714784"><ele>499.0</ele><time>2026-04-26T10:21:54.688Z</time></trkpt><trkpt lat="33.2643786" lon="10.1716361"><ele>499.0</ele><time>2026-04-26T10:21:55.68Z</time></trkpt><trkpt lat="33.2644413" lon="10.1718016"><ele>499.0</ele><time>2026-04-26T10:21:56.67Z</time></trkpt><trkpt lat="33.2645047" lon="10.1719593"><ele>499.0</ele><time>2026-04-26T10:21:57.677Z</time></trkpt><trkpt lat="33.2645652" lon="10.1721279"><ele>499.0</ele><time>2026-04-26T10:21:58.683Z</time></trkpt><trkpt lat="33.2646247" lon="10.1722918"><ele>499.0</ele><time>2026-04-26T10:21:59.703Z</time></trkpt><trkpt lat="33.2646806" lon="10.1724507"><ele>500.0</ele><time>2026-04-26T10:22:00.689Z</time></trkpt><trkpt lat="33.2647324" lon="10.1726128"><ele>501.0</ele><time>2026-04-26T10:22:01.693Z</time></trkpt><trkpt lat="33.2647876" lon="10.1727835"><ele>502.0</ele><time>2026-04-26T10:22:02.701Z</time></trkpt><trkpt lat="33.2648505" lon="10.1729552"><ele>502.0</ele><time>2026-04-26T10:22:03.694Z</time></trkpt><trkpt lat="33.2649085" lon="10.1731257"><ele>502.0</ele><time>2026-04-26T10:22:04.698Z</time></trkpt><trkpt lat="33.2649503" lon="10.1733015"><ele>502.0</ele><time>2026-04-26T10:22:05.695Z</time></trkpt><trkpt lat="33.2649968" lon="10.1734777"><ele>502.25</ele><time>2026-04-26T10:22:06.713Z</time></trkpt><trkpt lat="33.2650437" lon="10.1736467"><ele>502.5</ele><time>2026-04-26T10:22:07.683Z</time></trkpt><trkpt lat="33.2650877" lon="10.1738165"><ele>502.75</ele><time>2026-04-26T10:22:08.684Z</time></trkpt><trkpt lat="33.2651245" lon="10.1739921"><ele>503.0</ele><time>2026-04-26T10:22:09.695Z</time></trkpt><trkpt lat="33.2651602" lon="10.1741671"><ele>502.3333333333333</ele><time>2026-04-26T10:22:10.692Z</time></trkpt><trkpt lat="33.2652019" lon="10.1743411"><ele>501.66666666666663</ele><time>2026-04-26T10:22:11.68Z</time></trkpt><trkpt lat="33.2652542" lon="10.1745068"><ele>501.0</ele><time>2026-04-26T10:22:12.696Z</time></trkpt><trkpt lat="33.2653276" lon="10.1746663"><ele>501.0</ele><time>2026-04-26T10:22:13.683Z</time></trkpt><trkpt lat="33.2654138" lon="10.1748037"><ele>501.0</ele><time>2026-04-26T10:22:14.682Z</time></trkpt><trkpt lat="33.265503" lon="10.1749153"><ele>501.0</ele><time>2026-04-26T10:22:15.711Z</time></trkpt><trkpt lat="33.2655922" lon="10.175014"><ele>501.0</ele><time>2026-04-26T10:22:16.677Z</time></trkpt><trkpt lat="33.2656568" lon="10.1751145"><ele>502.5</ele><time>2026-04-26T10:22:17.705Z</time></trkpt><trkpt lat="33.2656936" lon="10.1752249"><ele>504.0</ele><time>2026-04-26T10:22:18.689Z</time></trkpt><trkpt lat="33.2657101" lon="10.1753502"><ele>505.5</ele><time>2026-04-26T10:22:19.704Z</time></trkpt><trkpt lat="33.2656927" lon="10.1754865"><ele>507.0</ele><time>2026-04-26T10:22:20.697Z</time></trkpt><trkpt lat="33.2656454" lon="10.175631"><ele>507.0</ele><time>2026-04-26T10:22:21.692Z</time></trkpt><trkpt lat="33.2655856" lon="10.1757739"><ele>507.0</ele><time>2026-04-26T10:22:22.685Z</time></trkpt><trkpt lat="33.2655304" lon="10.1759086"><ele>507.0</ele><time>2026-04-26T10:22:23.668Z</time></trkpt><trkpt lat="33.2654866" lon="10.1760548"><ele>507.0</ele><time>2026-04-26T10:22:24.683Z</time></trkpt><trkpt lat="33.2654504" lon="10.1762051"><ele>507.0</ele><time>2026-04-26T10:22:25.68Z</time></trkpt><trkpt lat="33.2654095" lon="10.1763637"><ele>507.0</ele><time>2026-04-26T10:22:26.69Z</time></trkpt><trkpt lat="33.2653652" lon="10.1765281"><ele>507.0</ele><time>2026-04-26T10:22:27.698Z</time></trkpt><trkpt lat="33.2653194" lon="10.1766971"><ele>507.0</ele><time>2026-04-26T10:22:28.688Z</time></trkpt><trkpt lat="33.2652707" lon="10.1768661"><ele>507.0</ele><time>2026-04-26T10:22:29.688Z</time></trkpt><trkpt lat="33.265217" lon="10.1770322"><ele>507.0</ele><time>2026-04-26T10:22:30.674Z</time></trkpt><trkpt lat="33.2651653" lon="10.1772043"><ele>507.0</ele><time>2026-04-26T10:22:31.693Z</time></trkpt><trkpt lat="33.2651284" lon="10.1773818"><ele>507.0</ele><time>2026-04-26T10:22:32.688Z</time></trkpt><trkpt lat="33.2651084" lon="10.1775641"><ele>507.0</ele><time>2026-04-26T10:22:33.692Z</time></trkpt><trkpt lat="33.2650999" lon="10.1777431"><ele>507.0</ele><time>2026-04-26T10:22:34.689Z</time></trkpt><trkpt lat="33.2650997" lon="10.1779252"><ele>507.0</ele><time>2026-04-26T10:22:35.687Z</time></trkpt><trkpt lat="33.2651091" lon="10.1781108"><ele>507.0</ele><time>2026-04-26T10:22:36.695Z</time></trkpt><trkpt lat="33.2651252" lon="10.178293"><ele>507.0</ele><time>2026-04-26T10:22:37.684Z</time></trkpt><trkpt lat="33.2651529" lon="10.1784736"><ele>507.33333333333337</ele><time>2026-04-26T10:22:38.715Z</time></trkpt><trkpt lat="33.2651825" lon="10.1786574"><ele>507.6666666666667</ele><time>2026-04-26T10:22:39.706Z</time></trkpt><trkpt lat="33.2652149" lon="10.1788406"><ele>508.0</ele><time>2026-04-26T10:22:40.68Z</time></trkpt><trkpt lat="33.2652385" lon="10.1790261"><ele>508.0</ele><time>2026-04-26T10:22:41.694Z</time></trkpt><trkpt lat="33.2652426" lon="10.1792209"><ele>508.0</ele><time>2026-04-26T10:22:42.693Z</time></trkpt><trkpt lat="33.2652315" lon="10.1794142"><ele>508.0</ele><time>2026-04-26T10:22:43.701Z</time></trkpt><trkpt lat="33.2652149" lon="10.1796053"><ele>508.0</ele><time>2026-04-26T10:22:44.69Z</time></trkpt><trkpt lat="33.2651965" lon="10.179796"><ele>508.0</ele><time>2026-04-26T10:22:45.718Z</time></trkpt><trkpt lat="33.2651745" lon="10.1799748"><ele>508.0</ele><time>2026-04-26T10:22:46.68Z</time></trkpt><trkpt lat="33.2651466" lon="10.1801581"><ele>508.33333333333337</ele><time>2026-04-26T10:22:47.71Z</time></trkpt><trkpt lat="33.2651186" lon="10.1803425"><ele>508.66666666666663</ele><time>2026-04-26T10:22:48.676Z</time></trkpt><trkpt lat="33.2650859" lon="10.1805236"><ele>509.0</ele><time>2026-04-26T10:22:49.688Z</time></trkpt><trkpt lat="33.2650612" lon="10.1806961"><ele>509.5</ele><time>2026-04-26T10:22:50.687Z</time></trkpt><trkpt lat="33.2650432" lon="10.1808639"><ele>510.0</ele><time>2026-04-26T10:22:51.688Z</time></trkpt><trkpt lat="33.2650218" lon="10.1810291"><ele>510.5</ele><time>2026-04-26T10:22:52.688Z</time></trkpt><trkpt lat="33.2650039" lon="10.1811857"><ele>511.0</ele><time>2026-04-26T10:22:53.687Z</time></trkpt><trkpt lat="33.2649758" lon="10.1813404"><ele>511.0</ele><time>2026-04-26T10:22:54.699Z</time></trkpt><trkpt lat="33.2649361" lon="10.1814964"><ele>511.0</ele><time>2026-04-26T10:22:55.696Z</time></trkpt><trkpt lat="33.2648968" lon="10.1816549"><ele>511.0</ele><time>2026-04-26T10:22:56.686Z</time></trkpt><trkpt lat="33.264858" lon="10.1818104"><ele>511.0</ele><time>2026-04-26T10:22:57.683Z</time></trkpt><trkpt lat="33.2648208" lon="10.1819644"><ele>512.4</ele><time>2026-04-26T10:22:58.698Z</time></trkpt><trkpt lat="33.2647778" lon="10.182102"><ele>513.8</ele><time>2026-04-26T10:22:59.709Z</time></trkpt><trkpt lat="33.2647457" lon="10.1822234"><ele>515.1999999999999</ele><time>2026-04-26T10:23:00.7Z</time></trkpt><trkpt lat="33.2647268" lon="10.1823493"><ele>516.6</ele><time>2026-04-26T10:23:01.707Z</time></trkpt><trkpt lat="33.264714" lon="10.1824829"><ele>518.0</ele><time>2026-04-26T10:23:02.694Z</time></trkpt><trkpt lat="33.2647097" lon="10.1826344"><ele>518.0</ele><time>2026-04-26T10:23:03.68Z</time></trkpt><trkpt lat="33.2647074" lon="10.1827925"><ele>518.0</ele><time>2026-04-26T10:23:04.696Z</time></trkpt><trkpt lat="33.264707" lon="10.1829587"><ele>518.0</ele><time>2026-04-26T10:23:05.702Z</time></trkpt><trkpt lat="33.2647238" lon="10.183124"><ele>518.0</ele><time>2026-04-26T10:23:06.675Z</time></trkpt><trkpt lat="33.2647548" lon="10.1832803"><ele>516.75</ele><time>2026-04-26T10:23:07.691Z</time></trkpt><trkpt lat="33.2648054" lon="10.183427"><ele>515.5</ele><time>2026-04-26T10:23:08.696Z</time></trkpt><trkpt lat="33.2648668" lon="10.1835777"><ele>514.25</ele><time>2026-04-26T10:23:09.699Z</time></trkpt><trkpt lat="33.2649297" lon="10.1837337"><ele>513.0</ele><time>2026-04-26T10:23:10.69Z</time></trkpt><trkpt lat="33.2649939" lon="10.1838987"><ele>513.75</ele><time>2026-04-26T10:23:11.694Z</time></trkpt><trkpt lat="33.2650481" lon="10.1840535"><ele>514.5</ele><time>2026-04-26T10:23:12.713Z</time></trkpt><trkpt lat="33.265081" lon="10.1841974"><ele>515.25</ele><time>2026-04-26T10:23:13.7Z</time></trkpt><trkpt lat="33.2650924" lon="10.1843509"><ele>516.0</ele><time>2026-04-26T10:23:14.691Z</time></trkpt><trkpt lat="33.2650794" lon="10.1844994"><ele>516.0</ele><time>2026-04-26T10:23:15.689Z</time></trkpt><trkpt lat="33.2650178" lon="10.1846309"><ele>516.0</ele><time>2026-04-26T10:23:16.699Z</time></trkpt><trkpt lat="33.2649333" lon="10.1847517"><ele>516.0</ele><time>2026-04-26T10:23:17.688Z</time></trkpt><trkpt lat="33.2648362" lon="10.1848561"><ele>516.0</ele><time>2026-04-26T10:23:18.691Z</time></trkpt><trkpt lat="33.2647445" lon="10.1849519"><ele>516.75</ele><time>2026-04-26T10:23:19.693Z</time></trkpt><trkpt lat="33.2646589" lon="10.1850564"><ele>517.5</ele><time>2026-04-26T10:23:20.69Z</time></trkpt><trkpt lat="33.2645692" lon="10.1851563"><ele>518.25</ele><time>2026-04-26T10:23:21.696Z</time></trkpt><trkpt lat="33.2644696" lon="10.1852527"><ele>519.0</ele><time>2026-04-26T10:23:22.697Z</time></trkpt><trkpt lat="33.2643601" lon="10.1853525"><ele>519.0</ele><time>2026-04-26T10:23:23.703Z</time></trkpt><trkpt lat="33.2642395" lon="10.1854457"><ele>519.0</ele><time>2026-04-26T10:23:24.683Z</time></trkpt><trkpt lat="33.2641152" lon="10.1855317"><ele>519.0</ele><time>2026-04-26T10:23:25.686Z</time></trkpt><trkpt lat="33.2639907" lon="10.1856152"><ele>519.0</ele><time>2026-04-26T10:23:26.688Z</time></trkpt><trkpt lat="33.2638665" lon="10.1856993"><ele>520.5</ele><time>2026-04-26T10:23:27.704Z</time></trkpt><trkpt lat="33.2637415" lon="10.1857826"><ele>522.0</ele><time>2026-04-26T10:23:28.697Z</time></trkpt><trkpt lat="33.2636151" lon="10.185875"><ele>523.5</ele><time>2026-04-26T10:23:29.702Z</time></trkpt><trkpt lat="33.2634915" lon="10.1859662"><ele>525.0</ele><time>2026-04-26T10:23:30.694Z</time></trkpt><trkpt lat="33.2633744" lon="10.1860666"><ele>525.0</ele><time>2026-04-26T10:23:31.707Z</time></trkpt><trkpt lat="33.263265" lon="10.1861808"><ele>525.0</ele><time>2026-04-26T10:23:32.711Z</time></trkpt><trkpt lat="33.2631579" lon="10.1862958"><ele>525.0</ele><time>2026-04-26T10:23:33.695Z</time></trkpt><trkpt lat="33.2630553" lon="10.1864041"><ele>525.0</ele><time>2026-04-26T10:23:34.698Z</time></trkpt><trkpt lat="33.2629588" lon="10.1865081"><ele>526.0</ele><time>2026-04-26T10:23:35.7Z</time></trkpt><trkpt lat="33.2628543" lon="10.1865978"><ele>527.0</ele><time>2026-04-26T10:23:36.713Z</time></trkpt><trkpt lat="33.2627464" lon="10.1866719"><ele>528.0</ele><time>2026-04-26T10:23:37.69Z</time></trkpt><trkpt lat="33.2626369" lon="10.1867452"><ele>529.0</ele><time>2026-04-26T10:23:38.694Z</time></trkpt><trkpt lat="33.262534" lon="10.18684"><ele>529.0</ele><time>2026-04-26T10:23:39.699Z</time></trkpt><trkpt lat="33.2624477" lon="10.186972"><ele>529.0</ele><time>2026-04-26T10:23:40.699Z</time></trkpt><trkpt lat="33.2623713" lon="10.1871341"><ele>529.0</ele><time>2026-04-26T10:23:41.705Z</time></trkpt><trkpt lat="33.2622934" lon="10.1873218"><ele>530.6666666666667</ele><time>2026-04-26T10:23:42.7Z</time></trkpt><trkpt lat="33.2622035" lon="10.1874974"><ele>532.3333333333334</ele><time>2026-04-26T10:23:43.7Z</time></trkpt><trkpt lat="33.2621154" lon="10.1876754"><ele>534.0</ele><time>2026-04-26T10:23:44.693Z</time></trkpt><trkpt lat="33.2620189" lon="10.1878488"><ele>534.0</ele><time>2026-04-26T10:23:45.686Z</time></trkpt><trkpt lat="33.2619203" lon="10.1880137"><ele>534.0</ele><time>2026-04-26T10:23:46.679Z</time></trkpt><trkpt lat="33.2618213" lon="10.1881831"><ele>534.0</ele><time>2026-04-26T10:23:47.688Z</time></trkpt><trkpt lat="33.2617207" lon="10.1883521"><ele>536.3333333333334</ele><time>2026-04-26T10:23:48.71Z</time></trkpt><trkpt lat="33.2616171" lon="10.188508"><ele>538.6666666666667</ele><time>2026-04-26T10:23:49.679Z</time></trkpt><trkpt lat="33.2615036" lon="10.1886487"><ele>541.0</ele><time>2026-04-26T10:23:50.688Z</time></trkpt><trkpt lat="33.2613945" lon="10.1887952"><ele>542.3333333333334</ele><time>2026-04-26T10:23:51.686Z</time></trkpt><trkpt lat="33.2612953" lon="10.1889373"><ele>543.6666666666666</ele><time>2026-04-26T10:23:52.682Z</time></trkpt><trkpt lat="33.2611792" lon="10.1890646"><ele>545.0</ele><time>2026-04-26T10:23:53.685Z</time></trkpt><trkpt lat="33.2610522" lon="10.1891746"><ele>546.25</ele><time>2026-04-26T10:23:54.675Z</time></trkpt><trkpt lat="33.260932" lon="10.1892618"><ele>547.5</ele><time>2026-04-26T10:23:55.69Z</time></trkpt><trkpt lat="33.2608088" lon="10.1893264"><ele>548.75</ele><time>2026-04-26T10:23:56.698Z</time></trkpt><trkpt lat="33.2606834" lon="10.189357"><ele>550.0</ele><time>2026-04-26T10:23:57.695Z</time></trkpt><trkpt lat="33.2605669" lon="10.1893429"><ele>553.75</ele><time>2026-04-26T10:23:58.7Z</time></trkpt><trkpt lat="33.260447" lon="10.1893028"><ele>557.5</ele><time>2026-04-26T10:23:59.688Z</time></trkpt><trkpt lat="33.2603298" lon="10.189241"><ele>561.25</ele><time>2026-04-26T10:24:00.707Z</time></trkpt><trkpt lat="33.2602128" lon="10.1891646"><ele>565.0</ele><time>2026-04-26T10:24:01.712Z</time></trkpt><trkpt lat="33.2600935" lon="10.1890977"><ele>565.0</ele><time>2026-04-26T10:24:02.7Z</time></trkpt><trkpt lat="33.2599697" lon="10.189033"><ele>565.0</ele><time>2026-04-26T10:24:03.675Z</time></trkpt><trkpt lat="33.2598412" lon="10.1889804"><ele>565.0</ele><time>2026-04-26T10:24:04.684Z</time></trkpt><trkpt lat="33.2597092" lon="10.188966"><ele>565.0</ele><time>2026-04-26T10:24:05.687Z</time></trkpt><trkpt lat="33.2595754" lon="10.1889889"><ele>568.25</ele><time>2026-04-26T10:24:06.693Z</time></trkpt><trkpt lat="33.2594404" lon="10.189046"><ele>571.5</ele><time>2026-04-26T10:24:07.686Z</time></trkpt><trkpt lat="33.2593072" lon="10.1891158"><ele>574.75</ele><time>2026-04-26T10:24:08.678Z</time></trkpt><trkpt lat="33.259177" lon="10.1892027"><ele>578.0</ele><time>2026-04-26T10:24:09.688Z</time></trkpt><trkpt lat="33.2590408" lon="10.1892924"><ele>583.6666666666666</ele><time>2026-04-26T10:24:10.687Z</time></trkpt><trkpt lat="33.2589124" lon="10.1893933"><ele>589.3333333333334</ele><time>2026-04-26T10:24:11.714Z</time></trkpt><trkpt lat="33.2587964" lon="10.1894981"><ele>595.0</ele><time>2026-04-26T10:24:12.681Z</time></trkpt><trkpt lat="33.2586895" lon="10.1896284"><ele>595.0</ele><time>2026-04-26T10:24:13.673Z</time></trkpt><trkpt lat="33.2585885" lon="10.1897532"><ele>595.0</ele><time>2026-04-26T10:24:14.677Z</time></trkpt><trkpt lat="33.2584945" lon="10.1898743"><ele>595.0</ele><time>2026-04-26T10:24:15.665Z</time></trkpt><trkpt lat="33.2584101" lon="10.1900026"><ele>595.0</ele><time>2026-04-26T10:24:16.699Z</time></trkpt><trkpt lat="33.2583521" lon="10.1901472"><ele>594.5</ele><time>2026-04-26T10:24:17.681Z</time></trkpt><trkpt lat="33.2583111" lon="10.1903015"><ele>594.0</ele><time>2026-04-26T10:24:18.681Z</time></trkpt><trkpt lat="33.2582923" lon="10.1904696"><ele>593.5</ele><time>2026-04-26T10:24:19.685Z</time></trkpt><trkpt lat="33.2582999" lon="10.1906455"><ele>593.0</ele><time>2026-04-26T10:24:20.694Z</time></trkpt><trkpt lat="33.258307" lon="10.1908204"><ele>592.75</ele><time>2026-04-26T10:24:21.689Z</time></trkpt><trkpt lat="33.2582993" lon="10.1909826"><ele>592.5</ele><time>2026-04-26T10:24:22.687Z</time></trkpt><trkpt lat="33.2582848" lon="10.191145"><ele>592.25</ele><time>2026-04-26T10:24:23.685Z</time></trkpt><trkpt lat="33.2582555" lon="10.1912926"><ele>592.0</ele><time>2026-04-26T10:24:24.678Z</time></trkpt><trkpt lat="33.2582226" lon="10.1914353"><ele>591.2</ele><time>2026-04-26T10:24:25.685Z</time></trkpt><trkpt lat="33.2581837" lon="10.1915582"><ele>590.4000000000001</ele><time>2026-04-26T10:24:26.691Z</time></trkpt><trkpt lat="33.2581504" lon="10.1916561"><ele>589.5999999999999</ele><time>2026-04-26T10:24:27.691Z</time></trkpt><trkpt lat="33.258118" lon="10.1917475"><ele>588.8</ele><time>2026-04-26T10:24:28.691Z</time></trkpt><trkpt lat="33.2580778" lon="10.1918339"><ele>588.0</ele><time>2026-04-26T10:24:29.694Z</time></trkpt><trkpt lat="33.2580324" lon="10.191922"><ele>589.1666666666666</ele><time>2026-04-26T10:24:30.689Z</time></trkpt><trkpt lat="33.2579879" lon="10.1920094"><ele>590.3333333333334</ele><time>2026-04-26T10:24:31.683Z</time></trkpt><trkpt lat="33.2579475" lon="10.1921006"><ele>591.5</ele><time>2026-04-26T10:24:32.676Z</time></trkpt><trkpt lat="33.2579137" lon="10.1921943"><ele>592.6666666666667</ele><time>2026-04-26T10:24:33.682Z</time></trkpt><trkpt lat="33.25788" lon="10.1922911"><ele>593.8333333333334</ele><time>2026-04-26T10:24:34.682Z</time></trkpt><trkpt lat="33.2578434" lon="10.1924009"><ele>595.0</ele><time>2026-04-26T10:24:35.68Z</time></trkpt><trkpt lat="33.2578029" lon="10.1925056"><ele>595.0</ele><time>2026-04-26T10:24:36.684Z</time></trkpt><trkpt lat="33.2577584" lon="10.1926193"><ele>595.0</ele><time>2026-04-26T10:24:37.669Z</time></trkpt><trkpt lat="33.2577095" lon="10.1927425"><ele>595.0</ele><time>2026-04-26T10:24:38.686Z</time></trkpt><trkpt lat="33.2576571" lon="10.1928714"><ele>595.0</ele><time>2026-04-26T10:24:39.689Z</time></trkpt><trkpt lat="33.2576042" lon="10.1930117"><ele>595.0</ele><time>2026-04-26T10:24:40.682Z</time></trkpt><trkpt lat="33.257563" lon="10.1931575"><ele>595.0</ele><time>2026-04-26T10:24:41.694Z</time></trkpt><trkpt lat="33.2575344" lon="10.1933004"><ele>595.0</ele><time>2026-04-26T10:24:42.703Z</time></trkpt><trkpt lat="33.2575195" lon="10.1934393"><ele>595.0</ele><time>2026-04-26T10:24:43.691Z</time></trkpt><trkpt lat="33.2575133" lon="10.1935675"><ele>593.6</ele><time>2026-04-26T10:24:44.685Z</time></trkpt><trkpt lat="33.2575104" lon="10.1936968"><ele>592.2</ele><time>2026-04-26T10:24:45.696Z</time></trkpt><trkpt lat="33.257505" lon="10.193821"><ele>590.8</ele><time>2026-04-26T10:24:46.705Z</time></trkpt><trkpt lat="33.257499" lon="10.1939439"><ele>589.4</ele><time>2026-04-26T10:24:47.687Z</time></trkpt><trkpt lat="33.2574844" lon="10.1940772"><ele>588.0</ele><time>2026-04-26T10:24:48.705Z</time></trkpt><trkpt lat="33.2574782" lon="10.1942087"><ele>586.8</ele><time>2026-04-26T10:24:49.691Z</time></trkpt><trkpt lat="33.2574801" lon="10.1943366"><ele>585.5999999999999</ele><time>2026-04-26T10:24:50.694Z</time></trkpt><trkpt lat="33.2574893" lon="10.1944634"><ele>584.4000000000001</ele><time>2026-04-26T10:24:51.699Z</time></trkpt><trkpt lat="33.2575197" lon="10.1945988"><ele>583.2</ele><time>2026-04-26T10:24:52.686Z</time></trkpt><trkpt lat="33.257554" lon="10.1947284"><ele>582.0</ele><time>2026-04-26T10:24:53.699Z</time></trkpt><trkpt lat="33.2575986" lon="10.1948594"><ele>579.5</ele><time>2026-04-26T10:24:54.688Z</time></trkpt><trkpt lat="33.2576476" lon="10.1949926"><ele>577.0</ele><time>2026-04-26T10:24:55.692Z</time></trkpt><trkpt lat="33.2576968" lon="10.1951405"><ele>574.5</ele><time>2026-04-26T10:24:56.674Z</time></trkpt><trkpt lat="33.2577442" lon="10.1952879"><ele>572.0</ele><time>2026-04-26T10:24:57.687Z</time></trkpt><trkpt lat="33.2578012" lon="10.195436"><ele>572.0</ele><time>2026-04-26T10:24:58.683Z</time></trkpt><trkpt lat="33.2578687" lon="10.1955861"><ele>572.0</ele><time>2026-04-26T10:24:59.691Z</time></trkpt><trkpt lat="33.2579529" lon="10.1957277"><ele>572.0</ele><time>2026-04-26T10:25:00.695Z</time></trkpt><trkpt lat="33.2580529" lon="10.1958628"><ele>572.0</ele><time>2026-04-26T10:25:01.69Z</time></trkpt><trkpt lat="33.2581457" lon="10.1959927"><ele>571.75</ele><time>2026-04-26T10:25:02.687Z</time></trkpt><trkpt lat="33.2582369" lon="10.1961292"><ele>571.5</ele><time>2026-04-26T10:25:03.684Z</time></trkpt><trkpt lat="33.2582956" lon="10.1962928"><ele>571.25</ele><time>2026-04-26T10:25:04.706Z</time></trkpt><trkpt lat="33.2583181" lon="10.1964607"><ele>571.0</ele><time>2026-04-26T10:25:05.678Z</time></trkpt><trkpt lat="33.2583231" lon="10.1966373"><ele>571.0</ele><time>2026-04-26T10:25:06.685Z</time></trkpt><trkpt lat="33.2582994" lon="10.1968303"><ele>571.0</ele><time>2026-04-26T10:25:07.69Z</time></trkpt><trkpt lat="33.2582413" lon="10.1970442"><ele>571.0</ele><time>2026-04-26T10:25:08.679Z</time></trkpt><trkpt lat="33.2581763" lon="10.1972556"><ele>571.3333333333334</ele><time>2026-04-26T10:25:09.699Z</time></trkpt><trkpt lat="33.2581234" lon="10.1974568"><ele>571.6666666666666</ele><time>2026-04-26T10:25:10.702Z</time></trkpt><trkpt lat="33.2580808" lon="10.1976634"><ele>572.0</ele><time>2026-04-26T10:25:11.692Z</time></trkpt><trkpt lat="33.2580646" lon="10.1978821"><ele>562.3333333333333</ele><time>2026-04-26T10:25:12.694Z</time></trkpt><trkpt lat="33.258054" lon="10.1980846"><ele>552.6666666666666</ele><time>2026-04-26T10:25:13.696Z</time></trkpt><trkpt lat="33.2580441" lon="10.1982768"><ele>543.0</ele><time>2026-04-26T10:25:14.693Z</time></trkpt><trkpt lat="33.2580232" lon="10.1984608"><ele>543.0</ele><time>2026-04-26T10:25:15.683Z</time></trkpt><trkpt lat="33.2579994" lon="10.1986268"><ele>543.0</ele><time>2026-04-26T10:25:16.689Z</time></trkpt><trkpt lat="33.2579554" lon="10.1987736"><ele>543.0</ele><time>2026-04-26T10:25:17.686Z</time></trkpt><trkpt lat="33.2578938" lon="10.1989081"><ele>543.0</ele><time>2026-04-26T10:25:18.692Z</time></trkpt><trkpt lat="33.2578172" lon="10.1990196"><ele>547.0</ele><time>2026-04-26T10:25:19.68Z</time></trkpt><trkpt lat="33.2577269" lon="10.1991124"><ele>551.0</ele><time>2026-04-26T10:25:20.691Z</time></trkpt><trkpt lat="33.257616" lon="10.1991738"><ele>555.0</ele><time>2026-04-26T10:25:21.692Z</time></trkpt><trkpt lat="33.2574821" lon="10.199202"><ele>559.0</ele><time>2026-04-26T10:25:22.689Z</time></trkpt><trkpt lat="33.2573274" lon="10.1992012"><ele>557.6666666666667</ele><time>2026-04-26T10:25:23.699Z</time></trkpt><trkpt lat="33.2571689" lon="10.199174"><ele>556.3333333333334</ele><time>2026-04-26T10:25:24.686Z</time></trkpt><trkpt lat="33.2570011" lon="10.1991352"><ele>555.0</ele><time>2026-04-26T10:25:25.68Z</time></trkpt><trkpt lat="33.2568219" lon="10.1990821"><ele>555.0</ele><time>2026-04-26T10:25:26.671Z</time></trkpt><trkpt lat="33.2566422" lon="10.1990218"><ele>555.0</ele><time>2026-04-26T10:25:27.691Z</time></trkpt><trkpt lat="33.2564713" lon="10.198956"><ele>555.0</ele><time>2026-04-26T10:25:28.693Z</time></trkpt><trkpt lat="33.2563082" lon="10.1988937"><ele>547.0</ele><time>2026-04-26T10:25:29.686Z</time></trkpt><trkpt lat="33.2561493" lon="10.1988295"><ele>539.0</ele><time>2026-04-26T10:25:30.7Z</time></trkpt><trkpt lat="33.2560029" lon="10.1987725"><ele>531.0</ele><time>2026-04-26T10:25:31.665Z</time></trkpt><trkpt lat="33.255858" lon="10.1987173"><ele>531.0</ele><time>2026-04-26T10:25:32.69Z</time></trkpt><trkpt lat="33.2557162" lon="10.1986586"><ele>531.0</ele><time>2026-04-26T10:25:33.667Z</time></trkpt><trkpt lat="33.2555677" lon="10.1986213"><ele>531.0</ele><time>2026-04-26T10:25:34.679Z</time></trkpt><trkpt lat="33.2554161" lon="10.1985928"><ele>530.0</ele><time>2026-04-26T10:25:35.698Z</time></trkpt><trkpt lat="33.2552661" lon="10.1985726"><ele>529.0</ele><time>2026-04-26T10:25:36.674Z</time></trkpt><trkpt lat="33.2551197" lon="10.1985717"><ele>528.0</ele><time>2026-04-26T10:25:37.692Z</time></trkpt><trkpt lat="33.25498" lon="10.1985872"><ele>527.0</ele><time>2026-04-26T10:25:38.673Z</time></trkpt><trkpt lat="33.2548408" lon="10.1986275"><ele>526.75</ele><time>2026-04-26T10:25:39.692Z</time></trkpt><trkpt lat="33.2547038" lon="10.198668"><ele>526.5</ele><time>2026-04-26T10:25:40.69Z</time></trkpt><trkpt lat="33.2545706" lon="10.1987101"><ele>526.25</ele><time>2026-04-26T10:25:41.688Z</time></trkpt><trkpt lat="33.2544447" lon="10.1987746"><ele>526.0</ele><time>2026-04-26T10:25:42.686Z</time></trkpt><trkpt lat="33.2543215" lon="10.1988429"><ele>526.0</ele><time>2026-04-26T10:25:43.681Z</time></trkpt><trkpt lat="33.254205" lon="10.1989205"><ele>526.0</ele><time>2026-04-26T10:25:44.675Z</time></trkpt><trkpt lat="33.2540902" lon="10.199015"><ele>526.0</ele><time>2026-04-26T10:25:45.677Z</time></trkpt><trkpt lat="33.2539805" lon="10.1991069"><ele>526.0</ele><time>2026-04-26T10:25:46.696Z</time></trkpt><trkpt lat="33.2538771" lon="10.1991906"><ele>525.25</ele><time>2026-04-26T10:25:47.678Z</time></trkpt><trkpt lat="33.2537747" lon="10.1992593"><ele>524.5</ele><time>2026-04-26T10:25:48.695Z</time></trkpt><trkpt lat="33.2536716" lon="10.1993047"><ele>523.75</ele><time>2026-04-26T10:25:49.712Z</time></trkpt><trkpt lat="33.2535635" lon="10.1993386"><ele>523.0</ele><time>2026-04-26T10:25:50.687Z</time></trkpt><trkpt lat="33.2534546" lon="10.1993639"><ele>523.0</ele><time>2026-04-26T10:25:51.698Z</time></trkpt><trkpt lat="33.2533466" lon="10.1993828"><ele>523.0</ele><time>2026-04-26T10:25:52.69Z</time></trkpt><trkpt lat="33.2532484" lon="10.1993921"><ele>523.0</ele><time>2026-04-26T10:25:53.701Z</time></trkpt><trkpt lat="33.2531669" lon="10.199395"><ele>523.0</ele><time>2026-04-26T10:25:54.717Z</time></trkpt><trkpt lat="33.2530963" lon="10.1993926"><ele>523.0</ele><time>2026-04-26T10:25:55.694Z</time></trkpt><trkpt lat="33.2529822" lon="10.1993819"><ele>522.1666666666667</ele><time>2026-04-26T10:25:57.677Z</time></trkpt><trkpt lat="33.2529183" lon="10.1993723"><ele>521.3333333333334</ele><time>2026-04-26T10:25:58.7Z</time></trkpt><trkpt lat="33.2528452" lon="10.1993524"><ele>520.5</ele><time>2026-04-26T10:25:59.697Z</time></trkpt><trkpt lat="33.2527579" lon="10.1993288"><ele>519.6666666666666</ele><time>2026-04-26T10:26:00.687Z</time></trkpt><trkpt lat="33.2526742" lon="10.199302"><ele>518.8333333333333</ele><time>2026-04-26T10:26:01.672Z</time></trkpt><trkpt lat="33.2525895" lon="10.1992785"><ele>518.0</ele><time>2026-04-26T10:26:02.684Z</time></trkpt><trkpt lat="33.2524976" lon="10.1992601"><ele>518.0</ele><time>2026-04-26T10:26:03.687Z</time></trkpt><trkpt lat="33.2523999" lon="10.1992471"><ele>518.0</ele><time>2026-04-26T10:26:04.686Z</time></trkpt><trkpt lat="33.2523024" lon="10.1992445"><ele>518.0</ele><time>2026-04-26T10:26:05.691Z</time></trkpt><trkpt lat="33.2522014" lon="10.1992461"><ele>518.0</ele><time>2026-04-26T10:26:06.695Z</time></trkpt><trkpt lat="33.2521041" lon="10.1992517"><ele>518.0</ele><time>2026-04-26T10:26:07.695Z</time></trkpt><trkpt lat="33.2520186" lon="10.1992465"><ele>516.5</ele><time>2026-04-26T10:26:08.696Z</time></trkpt><trkpt lat="33.2519401" lon="10.199246"><ele>515.0</ele><time>2026-04-26T10:26:09.688Z</time></trkpt><trkpt lat="33.2518684" lon="10.1992513"><ele>513.5</ele><time>2026-04-26T10:26:10.676Z</time></trkpt><trkpt lat="33.2517482" lon="10.1992431"><ele>512.0</ele><time>2026-04-26T10:26:12.682Z</time></trkpt><trkpt lat="33.2516869" lon="10.1992148"><ele>510.49999999999994</ele><time>2026-04-26T10:26:13.697Z</time></trkpt><trkpt lat="33.2515874" lon="10.1991854"><ele>509.0</ele><time>2026-04-26T10:26:15.683Z</time></trkpt><trkpt lat="33.2515075" lon="10.1991683"><ele>508.16666666666663</ele><time>2026-04-26T10:26:17.696Z</time></trkpt><trkpt lat="33.2514373" lon="10.1991891"><ele>507.3333333333333</ele><time>2026-04-26T10:26:21.704Z</time></trkpt><trkpt lat="33.2514075" lon="10.1992617"><ele>506.5</ele><time>2026-04-26T10:26:23.689Z</time></trkpt><trkpt lat="33.2514104" lon="10.1993999"><ele>505.66666666666663</ele><time>2026-04-26T10:26:25.664Z</time></trkpt><trkpt lat="33.2514247" lon="10.1994827"><ele>504.8333333333333</ele><time>2026-04-26T10:26:26.699Z</time></trkpt><trkpt lat="33.2514346" lon="10.199563"><ele>504.0</ele><time>2026-04-26T10:26:27.697Z</time></trkpt><trkpt lat="33.2514477" lon="10.199645"><ele>503.66666666666663</ele><time>2026-04-26T10:26:28.706Z</time></trkpt><trkpt lat="33.2514937" lon="10.1999921"><ele>503.3333333333333</ele><time>2026-04-26T10:26:32.274Z</time></trkpt><trkpt lat="33.2514886" lon="10.2001279"><ele>503.0</ele><time>2026-04-26T10:26:33.678Z</time></trkpt><trkpt lat="33.2514962" lon="10.2002044"><ele>503.0</ele><time>2026-04-26T10:26:34.692Z</time></trkpt><trkpt lat="33.2515067" lon="10.2003144"><ele>503.0</ele><time>2026-04-26T10:26:35.663Z</time></trkpt><trkpt lat="33.2515079" lon="10.2004475"><ele>503.0</ele><time>2026-04-26T10:26:36.679Z</time></trkpt><trkpt lat="33.2514897" lon="10.2005902"><ele>503.0</ele><time>2026-04-26T10:26:37.681Z</time></trkpt><trkpt lat="33.2514658" lon="10.200737"><ele>504.5</ele><time>2026-04-26T10:26:38.678Z</time></trkpt><trkpt lat="33.2514354" lon="10.2008814"><ele>506.0</ele><time>2026-04-26T10:26:39.688Z</time></trkpt><trkpt lat="33.2513902" lon="10.201017"><ele>507.5</ele><time>2026-04-26T10:26:40.684Z</time></trkpt><trkpt lat="33.2513408" lon="10.2011385"><ele>509.0</ele><time>2026-04-26T10:26:41.68Z</time></trkpt><trkpt lat="33.2512946" lon="10.201255"><ele>509.0</ele><time>2026-04-26T10:26:42.706Z</time></trkpt><trkpt lat="33.251245" lon="10.2013574"><ele>509.0</ele><time>2026-04-26T10:26:43.671Z</time></trkpt><trkpt lat="33.2511772" lon="10.2014545"><ele>509.0</ele><time>2026-04-26T10:26:44.669Z</time></trkpt><trkpt lat="33.2511049" lon="10.2015442"><ele>509.0</ele><time>2026-04-26T10:26:45.693Z</time></trkpt><trkpt lat="33.2510341" lon="10.2016285"><ele>509.0</ele><time>2026-04-26T10:26:46.696Z</time></trkpt><trkpt lat="33.2509659" lon="10.2017152"><ele>507.6</ele><time>2026-04-26T10:26:47.675Z</time></trkpt><trkpt lat="33.2508986" lon="10.2018014"><ele>506.2</ele><time>2026-04-26T10:26:48.686Z</time></trkpt><trkpt lat="33.2508317" lon="10.201882"><ele>504.80000000000007</ele><time>2026-04-26T10:26:49.69Z</time></trkpt><trkpt lat="33.2507664" lon="10.2019584"><ele>503.40000000000003</ele><time>2026-04-26T10:26:50.692Z</time></trkpt><trkpt lat="33.2507034" lon="10.2020384"><ele>502.0</ele><time>2026-04-26T10:26:51.683Z</time></trkpt><trkpt lat="33.2506422" lon="10.2021134"><ele>500.40000000000003</ele><time>2026-04-26T10:26:52.69Z</time></trkpt><trkpt lat="33.2505833" lon="10.2021917"><ele>498.80000000000007</ele><time>2026-04-26T10:26:53.7Z</time></trkpt><trkpt lat="33.2505247" lon="10.202272"><ele>497.2</ele><time>2026-04-26T10:26:54.691Z</time></trkpt><trkpt lat="33.2504659" lon="10.2023518"><ele>495.6</ele><time>2026-04-26T10:26:55.676Z</time></trkpt><trkpt lat="33.2504063" lon="10.2024351"><ele>494.0</ele><time>2026-04-26T10:26:56.695Z</time></trkpt><trkpt lat="33.2503396" lon="10.2025212"><ele>493.6</ele><time>2026-04-26T10:26:57.699Z</time></trkpt><trkpt lat="33.2502721" lon="10.2026114"><ele>493.2</ele><time>2026-04-26T10:26:58.68Z</time></trkpt><trkpt lat="33.250203" lon="10.2027128"><ele>492.80000000000007</ele><time>2026-04-26T10:26:59.67Z</time></trkpt><trkpt lat="33.2501339" lon="10.2028052"><ele>492.40000000000003</ele><time>2026-04-26T10:27:00.703Z</time></trkpt><trkpt lat="33.2500703" lon="10.2028993"><ele>492.0</ele><time>2026-04-26T10:27:01.686Z</time></trkpt><trkpt lat="33.2500102" lon="10.2029964"><ele>492.0</ele><time>2026-04-26T10:27:02.682Z</time></trkpt><trkpt lat="33.2499519" lon="10.2030859"><ele>492.00000000000006</ele><time>2026-04-26T10:27:03.673Z</time></trkpt><trkpt lat="33.2498964" lon="10.2031829"><ele>492.00000000000006</ele><time>2026-04-26T10:27:04.695Z</time></trkpt><trkpt lat="33.2498423" lon="10.2032729"><ele>492.0</ele><time>2026-04-26T10:27:05.695Z</time></trkpt><trkpt lat="33.2497914" lon="10.2033631"><ele>492.0</ele><time>2026-04-26T10:27:06.691Z</time></trkpt><trkpt lat="33.2497402" lon="10.2034541"><ele>490.20000000000005</ele><time>2026-04-26T10:27:07.679Z</time></trkpt><trkpt lat="33.2496884" lon="10.2035429"><ele>488.40000000000003</ele><time>2026-04-26T10:27:08.679Z</time></trkpt><trkpt lat="33.2496343" lon="10.2036374"><ele>486.59999999999997</ele><time>2026-04-26T10:27:09.705Z</time></trkpt><trkpt lat="33.2495723" lon="10.203732"><ele>484.79999999999995</ele><time>2026-04-26T10:27:10.694Z</time></trkpt><trkpt lat="33.2495037" lon="10.2038331"><ele>483.0</ele><time>2026-04-26T10:27:11.703Z</time></trkpt><trkpt lat="33.2494341" lon="10.2039471"><ele>483.0</ele><time>2026-04-26T10:27:12.684Z</time></trkpt><trkpt lat="33.2493554" lon="10.2040594"><ele>483.0</ele><time>2026-04-26T10:27:13.712Z</time></trkpt><trkpt lat="33.2492761" lon="10.2041736"><ele>483.0</ele><time>2026-04-26T10:27:14.703Z</time></trkpt><trkpt lat="33.2491944" lon="10.2042953"><ele>483.0</ele><time>2026-04-26T10:27:15.687Z</time></trkpt><trkpt lat="33.2491118" lon="10.204428"><ele>483.0</ele><time>2026-04-26T10:27:16.699Z</time></trkpt><trkpt lat="33.2490308" lon="10.2045545"><ele>483.0</ele><time>2026-04-26T10:27:17.693Z</time></trkpt><trkpt lat="33.2489526" lon="10.2046716"><ele>483.0</ele><time>2026-04-26T10:27:18.686Z</time></trkpt><trkpt lat="33.2488726" lon="10.2047835"><ele>483.0</ele><time>2026-04-26T10:27:19.716Z</time></trkpt><trkpt lat="33.2487955" lon="10.2048924"><ele>482.75</ele><time>2026-04-26T10:27:20.694Z</time></trkpt><trkpt lat="33.2487237" lon="10.20501"><ele>482.5</ele><time>2026-04-26T10:27:21.699Z</time></trkpt><trkpt lat="33.2486495" lon="10.2051235"><ele>482.25</ele><time>2026-04-26T10:27:22.691Z</time></trkpt><trkpt lat="33.2485742" lon="10.2052395"><ele>482.0</ele><time>2026-04-26T10:27:23.698Z</time></trkpt><trkpt lat="33.2484993" lon="10.2053542"><ele>482.0</ele><time>2026-04-26T10:27:24.691Z</time></trkpt><trkpt lat="33.2484234" lon="10.2054658"><ele>482.0</ele><time>2026-04-26T10:27:25.693Z</time></trkpt><trkpt lat="33.2483477" lon="10.2055797"><ele>482.0</ele><time>2026-04-26T10:27:26.696Z</time></trkpt><trkpt lat="33.2482692" lon="10.2056949"><ele>482.0</ele><time>2026-04-26T10:27:27.705Z</time></trkpt><trkpt lat="33.2481886" lon="10.2058124"><ele>480.25</ele><time>2026-04-26T10:27:28.694Z</time></trkpt><trkpt lat="33.2481117" lon="10.2059361"><ele>478.5</ele><time>2026-04-26T10:27:29.697Z</time></trkpt><trkpt lat="33.2480374" lon="10.2060537"><ele>476.75</ele><time>2026-04-26T10:27:30.698Z</time></trkpt><trkpt lat="33.2479648" lon="10.2061653"><ele>475.0</ele><time>2026-04-26T10:27:31.702Z</time></trkpt><trkpt lat="33.2478919" lon="10.2062735"><ele>475.0</ele><time>2026-04-26T10:27:32.688Z</time></trkpt><trkpt lat="33.2478225" lon="10.2063783"><ele>475.0</ele><time>2026-04-26T10:27:33.692Z</time></trkpt><trkpt lat="33.2477551" lon="10.2064792"><ele>475.0</ele><time>2026-04-26T10:27:34.685Z</time></trkpt><trkpt lat="33.2476865" lon="10.2065769"><ele>475.0</ele><time>2026-04-26T10:27:35.691Z</time></trkpt><trkpt lat="33.2476226" lon="10.2066731"><ele>475.0</ele><time>2026-04-26T10:27:36.689Z</time></trkpt><trkpt lat="33.2475637" lon="10.2067641"><ele>474.83333333333337</ele><time>2026-04-26T10:27:37.683Z</time></trkpt><trkpt lat="33.2475039" lon="10.2068496"><ele>474.6666666666667</ele><time>2026-04-26T10:27:38.69Z</time></trkpt><trkpt lat="33.2474494" lon="10.2069276"><ele>474.5</ele><time>2026-04-26T10:27:39.69Z</time></trkpt><trkpt lat="33.2474002" lon="10.206999"><ele>474.33333333333337</ele><time>2026-04-26T10:27:40.693Z</time></trkpt><trkpt lat="33.247352" lon="10.2070622"><ele>474.1666666666667</ele><time>2026-04-26T10:27:41.685Z</time></trkpt><trkpt lat="33.2472982" lon="10.2071074"><ele>474.0</ele><time>2026-04-26T10:27:42.682Z</time></trkpt><trkpt lat="33.2471699" lon="10.2071388"><ele>473.8333333333333</ele><time>2026-04-26T10:27:44.691Z</time></trkpt><trkpt lat="33.2470948" lon="10.2071429"><ele>473.66666666666663</ele><time>2026-04-26T10:27:45.7Z</time></trkpt><trkpt lat="33.2470247" lon="10.2071437"><ele>473.5</ele><time>2026-04-26T10:27:46.684Z</time></trkpt><trkpt lat="33.2469466" lon="10.2071387"><ele>473.3333333333333</ele><time>2026-04-26T10:27:47.699Z</time></trkpt><trkpt lat="33.2468699" lon="10.2071267"><ele>473.16666666666663</ele><time>2026-04-26T10:27:48.689Z</time></trkpt><trkpt lat="33.2467911" lon="10.2071136"><ele>473.0</ele><time>2026-04-26T10:27:49.685Z</time></trkpt><trkpt lat="33.2467102" lon="10.2071015"><ele>473.0</ele><time>2026-04-26T10:27:50.702Z</time></trkpt><trkpt lat="33.2466278" lon="10.2070945"><ele>472.99999999999994</ele><time>2026-04-26T10:27:51.681Z</time></trkpt><trkpt lat="33.2465462" lon="10.2070963"><ele>472.99999999999994</ele><time>2026-04-26T10:27:52.707Z</time></trkpt><trkpt lat="33.2464608" lon="10.2071096"><ele>473.0</ele><time>2026-04-26T10:27:53.693Z</time></trkpt><trkpt lat="33.2463421" lon="10.2071491"><ele>473.0</ele><time>2026-04-26T10:27:54.69Z</time></trkpt><trkpt lat="33.246184" lon="10.2071981"><ele>472.5</ele><time>2026-04-26T10:27:55.681Z</time></trkpt><trkpt lat="33.2460156" lon="10.2072369"><ele>472.0</ele><time>2026-04-26T10:27:56.687Z</time></trkpt><trkpt lat="33.2458685" lon="10.2072716"><ele>471.5</ele><time>2026-04-26T10:27:57.698Z</time></trkpt><trkpt lat="33.2457474" lon="10.207302"><ele>471.0</ele><time>2026-04-26T10:27:58.711Z</time></trkpt><trkpt lat="33.2456392" lon="10.207329"><ele>470.0</ele><time>2026-04-26T10:27:59.695Z</time></trkpt><trkpt lat="33.2455353" lon="10.2073567"><ele>469.0</ele><time>2026-04-26T10:28:00.714Z</time></trkpt><trkpt lat="33.245452" lon="10.2073822"><ele>468.0</ele><time>2026-04-26T10:28:01.696Z</time></trkpt><trkpt lat="33.2453754" lon="10.207409"><ele>467.0</ele><time>2026-04-26T10:28:02.693Z</time></trkpt><trkpt lat="33.2452843" lon="10.2074316"><ele>466.0</ele><time>2026-04-26T10:28:03.684Z</time></trkpt><trkpt lat="33.2451772" lon="10.2074534"><ele>466.0</ele><time>2026-04-26T10:28:04.688Z</time></trkpt><trkpt lat="33.2450607" lon="10.2074745"><ele>466.0</ele><time>2026-04-26T10:28:05.674Z</time></trkpt><trkpt lat="33.2449384" lon="10.2075"><ele>466.0</ele><time>2026-04-26T10:28:06.675Z</time></trkpt><trkpt lat="33.2448256" lon="10.2075229"><ele>466.0</ele><time>2026-04-26T10:28:07.681Z</time></trkpt><trkpt lat="33.2447183" lon="10.2075459"><ele>466.4</ele><time>2026-04-26T10:28:08.697Z</time></trkpt><trkpt lat="33.2446158" lon="10.2075623"><ele>466.8</ele><time>2026-04-26T10:28:09.692Z</time></trkpt><trkpt lat="33.2445233" lon="10.2075794"><ele>467.19999999999993</ele><time>2026-04-26T10:28:10.679Z</time></trkpt><trkpt lat="33.2444389" lon="10.2075943"><ele>467.59999999999997</ele><time>2026-04-26T10:28:11.701Z</time></trkpt><trkpt lat="33.2443533" lon="10.2076141"><ele>468.0</ele><time>2026-04-26T10:28:12.685Z</time></trkpt><trkpt lat="33.2442609" lon="10.2076355"><ele>468.0</ele><time>2026-04-26T10:28:13.686Z</time></trkpt><trkpt lat="33.2441607" lon="10.2076584"><ele>468.0</ele><time>2026-04-26T10:28:14.699Z</time></trkpt><trkpt lat="33.2440518" lon="10.2076825"><ele>468.0</ele><time>2026-04-26T10:28:15.698Z</time></trkpt><trkpt lat="33.2439385" lon="10.2077072"><ele>468.0</ele><time>2026-04-26T10:28:16.708Z</time></trkpt><trkpt lat="33.2438172" lon="10.2077291"><ele>466.25</ele><time>2026-04-26T10:28:17.68Z</time></trkpt><trkpt lat="33.2436987" lon="10.2077497"><ele>464.5</ele><time>2026-04-26T10:28:18.687Z</time></trkpt><trkpt lat="33.2435819" lon="10.2077756"><ele>462.75</ele><time>2026-04-26T10:28:19.7Z</time></trkpt><trkpt lat="33.2434674" lon="10.2078034"><ele>461.0</ele><time>2026-04-26T10:28:20.678Z</time></trkpt><trkpt lat="33.2433535" lon="10.2078223"><ele>461.0</ele><time>2026-04-26T10:28:21.679Z</time></trkpt><trkpt lat="33.243238" lon="10.207847"><ele>461.0</ele><time>2026-04-26T10:28:22.69Z</time></trkpt><trkpt lat="33.2431096" lon="10.2078675"><ele>461.0</ele><time>2026-04-26T10:28:23.689Z</time></trkpt><trkpt lat="33.242974" lon="10.2078967"><ele>461.0</ele><time>2026-04-26T10:28:24.692Z</time></trkpt><trkpt lat="33.2428413" lon="10.207919"><ele>460.5</ele><time>2026-04-26T10:28:25.672Z</time></trkpt><trkpt lat="33.2427105" lon="10.2079235"><ele>460.0</ele><time>2026-04-26T10:28:26.69Z</time></trkpt><trkpt lat="33.2425734" lon="10.2079228"><ele>459.5</ele><time>2026-04-26T10:28:27.687Z</time></trkpt><trkpt lat="33.2424292" lon="10.2079208"><ele>459.0</ele><time>2026-04-26T10:28:28.698Z</time></trkpt><trkpt lat="33.2422808" lon="10.2079147"><ele>458.0</ele><time>2026-04-26T10:28:29.697Z</time></trkpt><trkpt lat="33.2421307" lon="10.2079052"><ele>457.0</ele><time>2026-04-26T10:28:30.696Z</time></trkpt><trkpt lat="33.241982" lon="10.2078885"><ele>456.0</ele><time>2026-04-26T10:28:31.679Z</time></trkpt><trkpt lat="33.2418378" lon="10.207876"><ele>455.0</ele><time>2026-04-26T10:28:32.696Z</time></trkpt><trkpt lat="33.2416996" lon="10.2078608"><ele>455.0</ele><time>2026-04-26T10:28:33.683Z</time></trkpt><trkpt lat="33.2415491" lon="10.207842"><ele>455.0</ele><time>2026-04-26T10:28:34.687Z</time></trkpt><trkpt lat="33.2413843" lon="10.2078083"><ele>455.0</ele><time>2026-04-26T10:28:35.7Z</time></trkpt><trkpt lat="33.2411877" lon="10.207761"><ele>454.3333333333333</ele><time>2026-04-26T10:28:36.688Z</time></trkpt><trkpt lat="33.2409674" lon="10.207714"><ele>453.66666666666663</ele><time>2026-04-26T10:28:37.707Z</time></trkpt><trkpt lat="33.2407464" lon="10.2076635"><ele>453.0</ele><time>2026-04-26T10:28:38.709Z</time></trkpt><trkpt lat="33.240536" lon="10.2076154"><ele>452.66666666666663</ele><time>2026-04-26T10:28:39.692Z</time></trkpt><trkpt lat="33.2403381" lon="10.2075687"><ele>452.3333333333333</ele><time>2026-04-26T10:28:40.697Z</time></trkpt><trkpt lat="33.2401528" lon="10.2075283"><ele>452.0</ele><time>2026-04-26T10:28:41.693Z</time></trkpt><trkpt lat="33.2399772" lon="10.207487"><ele>452.0</ele><time>2026-04-26T10:28:42.714Z</time></trkpt><trkpt lat="33.2398166" lon="10.2074468"><ele>452.0</ele><time>2026-04-26T10:28:43.708Z</time></trkpt><trkpt lat="33.2396648" lon="10.2074038"><ele>452.0</ele><time>2026-04-26T10:28:44.696Z</time></trkpt><trkpt lat="33.2395107" lon="10.2073709"><ele>451.0</ele><time>2026-04-26T10:28:45.675Z</time></trkpt><trkpt lat="33.239355" lon="10.207337"><ele>450.0</ele><time>2026-04-26T10:28:46.698Z</time></trkpt><trkpt lat="33.239196" lon="10.2072977"><ele>449.0</ele><time>2026-04-26T10:28:47.705Z</time></trkpt><trkpt lat="33.2390343" lon="10.2072531"><ele>448.66666666666663</ele><time>2026-04-26T10:28:48.692Z</time></trkpt><trkpt lat="33.2388733" lon="10.2072193"><ele>448.33333333333337</ele><time>2026-04-26T10:28:49.674Z</time></trkpt><trkpt lat="33.2387091" lon="10.2071905"><ele>448.0</ele><time>2026-04-26T10:28:50.682Z</time></trkpt><trkpt lat="33.2385437" lon="10.2071632"><ele>448.0</ele><time>2026-04-26T10:28:51.687Z</time></trkpt><trkpt lat="33.2383821" lon="10.2071467"><ele>448.0</ele><time>2026-04-26T10:28:52.692Z</time></trkpt><trkpt lat="33.2382235" lon="10.2071482"><ele>448.0</ele><time>2026-04-26T10:28:53.698Z</time></trkpt><trkpt lat="33.2380629" lon="10.2071598"><ele>449.6666666666667</ele><time>2026-04-26T10:28:54.697Z</time></trkpt><trkpt lat="33.2378987" lon="10.2071728"><ele>451.33333333333337</ele><time>2026-04-26T10:28:55.708Z</time></trkpt><trkpt lat="33.2377294" lon="10.2071862"><ele>453.0</ele><time>2026-04-26T10:28:56.69Z</time></trkpt><trkpt lat="33.2375615" lon="10.2072085"><ele>453.0</ele><time>2026-04-26T10:28:57.691Z</time></trkpt><trkpt lat="33.2373812" lon="10.2072353"><ele>453.0</ele><time>2026-04-26T10:28:58.693Z</time></trkpt><trkpt lat="33.2372018" lon="10.2072566"><ele>453.0</ele><time>2026-04-26T10:28:59.703Z</time></trkpt><trkpt lat="33.2370179" lon="10.2072702"><ele>453.0</ele><time>2026-04-26T10:29:00.715Z</time></trkpt><trkpt lat="33.2368308" lon="10.2072904"><ele>453.0</ele><time>2026-04-26T10:29:01.687Z</time></trkpt><trkpt lat="33.2366443" lon="10.2073108"><ele>453.0</ele><time>2026-04-26T10:29:02.684Z</time></trkpt><trkpt lat="33.2364641" lon="10.2073398"><ele>453.66666666666663</ele><time>2026-04-26T10:29:03.696Z</time></trkpt><trkpt lat="33.2362838" lon="10.207371"><ele>454.3333333333333</ele><time>2026-04-26T10:29:04.707Z</time></trkpt><trkpt lat="33.2361059" lon="10.2074206"><ele>455.0</ele><time>2026-04-26T10:29:05.692Z</time></trkpt><trkpt lat="33.2359264" lon="10.2074816"><ele>455.0</ele><time>2026-04-26T10:29:06.715Z</time></trkpt><trkpt lat="33.2357442" lon="10.2075593"><ele>455.0</ele><time>2026-04-26T10:29:07.672Z</time></trkpt><trkpt lat="33.2355705" lon="10.2076547"><ele>455.0</ele><time>2026-04-26T10:29:08.694Z</time></trkpt><trkpt lat="33.2353885" lon="10.20774"><ele>453.66666666666663</ele><time>2026-04-26T10:29:09.691Z</time></trkpt><trkpt lat="33.2352097" lon="10.2078251"><ele>452.33333333333337</ele><time>2026-04-26T10:29:10.695Z</time></trkpt><trkpt lat="33.2350377" lon="10.2079073"><ele>451.0</ele><time>2026-04-26T10:29:11.712Z</time></trkpt><trkpt lat="33.2348727" lon="10.2079802"><ele>450.6666666666667</ele><time>2026-04-26T10:29:12.685Z</time></trkpt><trkpt lat="33.2347116" lon="10.2080536"><ele>450.33333333333337</ele><time>2026-04-26T10:29:13.693Z</time></trkpt><trkpt lat="33.2345578" lon="10.2081257"><ele>450.0</ele><time>2026-04-26T10:29:14.683Z</time></trkpt><trkpt lat="33.2344053" lon="10.2081947"><ele>450.0</ele><time>2026-04-26T10:29:15.701Z</time></trkpt><trkpt lat="33.2342615" lon="10.2082604"><ele>450.0</ele><time>2026-04-26T10:29:16.682Z</time></trkpt><trkpt lat="33.2341297" lon="10.2083231"><ele>450.0</ele><time>2026-04-26T10:29:17.697Z</time></trkpt><trkpt lat="33.2340035" lon="10.2083849"><ele>450.0</ele><time>2026-04-26T10:29:18.698Z</time></trkpt><trkpt lat="33.2338933" lon="10.2084474"><ele>451.25</ele><time>2026-04-26T10:29:19.691Z</time></trkpt><trkpt lat="33.2337909" lon="10.2085346"><ele>452.5</ele><time>2026-04-26T10:29:20.688Z</time></trkpt><trkpt lat="33.2337141" lon="10.2086424"><ele>453.75</ele><time>2026-04-26T10:29:21.718Z</time></trkpt><trkpt lat="33.2336548" lon="10.2087762"><ele>455.0</ele><time>2026-04-26T10:29:22.697Z</time></trkpt><trkpt lat="33.2336117" lon="10.2089494"><ele>455.3333333333333</ele><time>2026-04-26T10:29:23.706Z</time></trkpt><trkpt lat="33.2335742" lon="10.2091348"><ele>455.66666666666663</ele><time>2026-04-26T10:29:24.701Z</time></trkpt><trkpt lat="33.2335323" lon="10.2093318"><ele>456.0</ele><time>2026-04-26T10:29:25.705Z</time></trkpt><trkpt lat="33.2334997" lon="10.2095233"><ele>456.0</ele><time>2026-04-26T10:29:26.709Z</time></trkpt><trkpt lat="33.2334739" lon="10.2097198"><ele>456.0</ele><time>2026-04-26T10:29:27.687Z</time></trkpt><trkpt lat="33.233447" lon="10.2099163"><ele>456.0</ele><time>2026-04-26T10:29:28.686Z</time></trkpt><trkpt lat="33.2334231" lon="10.2101218"><ele>456.66666666666663</ele><time>2026-04-26T10:29:29.705Z</time></trkpt><trkpt lat="33.2333943" lon="10.2103256"><ele>457.3333333333333</ele><time>2026-04-26T10:29:30.694Z</time></trkpt><trkpt lat="33.233366" lon="10.2105245"><ele>458.0</ele><time>2026-04-26T10:29:31.704Z</time></trkpt><trkpt lat="33.2333379" lon="10.210724"><ele>456.66666666666663</ele><time>2026-04-26T10:29:32.697Z</time></trkpt><trkpt lat="33.2333073" lon="10.210923"><ele>455.33333333333337</ele><time>2026-04-26T10:29:33.678Z</time></trkpt><trkpt lat="33.2332783" lon="10.2111133"><ele>454.0</ele><time>2026-04-26T10:29:34.691Z</time></trkpt><trkpt lat="33.2332511" lon="10.2113068"><ele>455.0</ele><time>2026-04-26T10:29:35.68Z</time></trkpt><trkpt lat="33.233227" lon="10.2114991"><ele>456.0</ele><time>2026-04-26T10:29:36.678Z</time></trkpt><trkpt lat="33.2331967" lon="10.2116892"><ele>457.0</ele><time>2026-04-26T10:29:37.672Z</time></trkpt><trkpt lat="33.2331608" lon="10.2118727"><ele>459.33333333333337</ele><time>2026-04-26T10:29:38.69Z</time></trkpt><trkpt lat="33.233123" lon="10.2120593"><ele>461.66666666666663</ele><time>2026-04-26T10:29:39.678Z</time></trkpt><trkpt lat="33.2330771" lon="10.2122437"><ele>464.0</ele><time>2026-04-26T10:29:40.682Z</time></trkpt><trkpt lat="33.2330173" lon="10.212422"><ele>465.66666666666663</ele><time>2026-04-26T10:29:41.689Z</time></trkpt><trkpt lat="33.2329514" lon="10.2125903"><ele>467.33333333333337</ele><time>2026-04-26T10:29:42.699Z</time></trkpt><trkpt lat="33.2328749" lon="10.2127598"><ele>469.0</ele><time>2026-04-26T10:29:43.695Z</time></trkpt><trkpt lat="33.2327947" lon="10.2129287"><ele>469.0</ele><time>2026-04-26T10:29:44.681Z</time></trkpt><trkpt lat="33.2327115" lon="10.213096"><ele>469.0</ele><time>2026-04-26T10:29:45.69Z</time></trkpt><trkpt lat="33.2326323" lon="10.2132667"><ele>469.0</ele><time>2026-04-26T10:29:46.69Z</time></trkpt><trkpt lat="33.2325357" lon="10.2134255"><ele>469.0</ele><time>2026-04-26T10:29:47.699Z</time></trkpt><trkpt lat="33.2324334" lon="10.2135841"><ele>469.0</ele><time>2026-04-26T10:29:48.703Z</time></trkpt><trkpt lat="33.2323094" lon="10.2137142"><ele>469.0</ele><time>2026-04-26T10:29:49.689Z</time></trkpt><trkpt lat="33.2321628" lon="10.2138279"><ele>469.0</ele><time>2026-04-26T10:29:50.689Z</time></trkpt><trkpt lat="33.2320159" lon="10.2139351"><ele>469.0</ele><time>2026-04-26T10:29:51.696Z</time></trkpt><trkpt lat="33.2318722" lon="10.2140331"><ele>469.0</ele><time>2026-04-26T10:29:52.692Z</time></trkpt><trkpt lat="33.2317294" lon="10.2141398"><ele>469.6666666666667</ele><time>2026-04-26T10:29:53.683Z</time></trkpt><trkpt lat="33.231587" lon="10.2142414"><ele>470.33333333333337</ele><time>2026-04-26T10:29:54.687Z</time></trkpt><trkpt lat="33.2314426" lon="10.2143528"><ele>471.0</ele><time>2026-04-26T10:29:55.701Z</time></trkpt><trkpt lat="33.2312901" lon="10.2144703"><ele>470.0</ele><time>2026-04-26T10:29:56.703Z</time></trkpt><trkpt lat="33.231141" lon="10.2145847"><ele>469.0</ele><time>2026-04-26T10:29:57.696Z</time></trkpt><trkpt lat="33.2309792" lon="10.2147152"><ele>468.0</ele><time>2026-04-26T10:29:58.707Z</time></trkpt><trkpt lat="33.2308083" lon="10.2148486"><ele>468.0</ele><time>2026-04-26T10:29:59.694Z</time></trkpt><trkpt lat="33.2306322" lon="10.2149883"><ele>468.0</ele><time>2026-04-26T10:30:00.715Z</time></trkpt><trkpt lat="33.2304475" lon="10.2151217"><ele>468.0</ele><time>2026-04-26T10:30:01.71Z</time></trkpt><trkpt lat="33.2302603" lon="10.2152597"><ele>468.0</ele><time>2026-04-26T10:30:02.702Z</time></trkpt><trkpt lat="33.2300639" lon="10.2154056"><ele>468.0</ele><time>2026-04-26T10:30:03.701Z</time></trkpt><trkpt lat="33.2298713" lon="10.2155603"><ele>464.5</ele><time>2026-04-26T10:30:04.69Z</time></trkpt><trkpt lat="33.2296764" lon="10.2157138"><ele>461.0</ele><time>2026-04-26T10:30:05.691Z</time></trkpt><trkpt lat="33.2294805" lon="10.2158678"><ele>461.0</ele><time>2026-04-26T10:30:06.702Z</time></trkpt><trkpt lat="33.2292872" lon="10.2160147"><ele>461.0</ele><time>2026-04-26T10:30:07.69Z</time></trkpt><trkpt lat="33.2290929" lon="10.2161639"><ele>461.5</ele><time>2026-04-26T10:30:08.688Z</time></trkpt><trkpt lat="33.2288969" lon="10.2163099"><ele>462.0</ele><time>2026-04-26T10:30:09.695Z</time></trkpt><trkpt lat="33.2287003" lon="10.2164575"><ele>461.0</ele><time>2026-04-26T10:30:10.705Z</time></trkpt><trkpt lat="33.2285067" lon="10.2166128"><ele>460.0</ele><time>2026-04-26T10:30:11.687Z</time></trkpt><trkpt lat="33.2283171" lon="10.2167684"><ele>458.5</ele><time>2026-04-26T10:30:12.7Z</time></trkpt><trkpt lat="33.2281263" lon="10.216926"><ele>457.0</ele><time>2026-04-26T10:30:13.709Z</time></trkpt><trkpt lat="33.2279371" lon="10.2170874"><ele>457.0</ele><time>2026-04-26T10:30:14.696Z</time></trkpt><trkpt lat="33.2277549" lon="10.2172474"><ele>457.0</ele><time>2026-04-26T10:30:15.69Z</time></trkpt><trkpt lat="33.2275781" lon="10.2173958"><ele>457.0</ele><time>2026-04-26T10:30:16.701Z</time></trkpt><trkpt lat="33.2274081" lon="10.2175463"><ele>455.6666666666667</ele><time>2026-04-26T10:30:17.686Z</time></trkpt><trkpt lat="33.2272435" lon="10.2176933"><ele>454.33333333333337</ele><time>2026-04-26T10:30:18.692Z</time></trkpt><trkpt lat="33.2270736" lon="10.2178389"><ele>453.0</ele><time>2026-04-26T10:30:19.687Z</time></trkpt><trkpt lat="33.2269121" lon="10.217985"><ele>453.0</ele><time>2026-04-26T10:30:20.698Z</time></trkpt><trkpt lat="33.2267575" lon="10.2181296"><ele>453.0</ele><time>2026-04-26T10:30:21.7Z</time></trkpt><trkpt lat="33.2266102" lon="10.218265"><ele>453.0</ele><time>2026-04-26T10:30:22.696Z</time></trkpt><trkpt lat="33.2264714" lon="10.218393"><ele>452.0</ele><time>2026-04-26T10:30:23.694Z</time></trkpt><trkpt lat="33.2263349" lon="10.2185126"><ele>451.0</ele><time>2026-04-26T10:30:24.692Z</time></trkpt><trkpt lat="33.2261986" lon="10.2186322"><ele>450.0</ele><time>2026-04-26T10:30:25.707Z</time></trkpt><trkpt lat="33.2260663" lon="10.2187517"><ele>450.0</ele><time>2026-04-26T10:30:26.686Z</time></trkpt><trkpt lat="33.2259421" lon="10.2188681"><ele>450.0</ele><time>2026-04-26T10:30:27.697Z</time></trkpt><trkpt lat="33.2258307" lon="10.2189816"><ele>450.0</ele><time>2026-04-26T10:30:28.677Z</time></trkpt><trkpt lat="33.2257361" lon="10.2190948"><ele>450.0</ele><time>2026-04-26T10:30:29.707Z</time></trkpt><trkpt lat="33.2256426" lon="10.2192085"><ele>449.8</ele><time>2026-04-26T10:30:30.682Z</time></trkpt><trkpt lat="33.2255602" lon="10.2193061"><ele>449.6</ele><time>2026-04-26T10:30:31.694Z</time></trkpt><trkpt lat="33.2254818" lon="10.2193919"><ele>449.4</ele><time>2026-04-26T10:30:32.701Z</time></trkpt><trkpt lat="33.2254099" lon="10.2194676"><ele>449.2</ele><time>2026-04-26T10:30:33.708Z</time></trkpt><trkpt lat="33.2253435" lon="10.219536"><ele>449.0</ele><time>2026-04-26T10:30:34.692Z</time></trkpt><trkpt lat="33.2252841" lon="10.2196007"><ele>448.99999999999994</ele><time>2026-04-26T10:30:35.683Z</time></trkpt><trkpt lat="33.2251822" lon="10.219681"><ele>449.0</ele><time>2026-04-26T10:30:37.699Z</time></trkpt><trkpt lat="33.2251267" lon="10.2197261"><ele>449.0</ele><time>2026-04-26T10:30:39.688Z</time></trkpt><trkpt lat="33.2250575" lon="10.219806"><ele>449.0</ele><time>2026-04-26T10:31:26.694Z</time></trkpt><trkpt lat="33.2250132" lon="10.2198788"><ele>448.99999999999994</ele><time>2026-04-26T10:31:27.695Z</time></trkpt><trkpt lat="33.2249705" lon="10.2199489"><ele>449.0</ele><time>2026-04-26T10:31:28.71Z</time></trkpt><trkpt lat="33.2249188" lon="10.2200101"><ele>448.2</ele><time>2026-04-26T10:31:29.704Z</time></trkpt><trkpt lat="33.2248701" lon="10.2200831"><ele>447.4</ele><time>2026-04-26T10:31:30.687Z</time></trkpt><trkpt lat="33.2248018" lon="10.2201669"><ele>446.6</ele><time>2026-04-26T10:31:31.692Z</time></trkpt><trkpt lat="33.2247201" lon="10.2202637"><ele>445.8</ele><time>2026-04-26T10:31:32.688Z</time></trkpt><trkpt lat="33.2246405" lon="10.2203727"><ele>445.0</ele><time>2026-04-26T10:31:33.701Z</time></trkpt><trkpt lat="33.2245586" lon="10.2204945"><ele>444.6666666666667</ele><time>2026-04-26T10:31:34.697Z</time></trkpt><trkpt lat="33.2244793" lon="10.220638"><ele>444.33333333333337</ele><time>2026-04-26T10:31:35.695Z</time></trkpt><trkpt lat="33.2243968" lon="10.2208007"><ele>444.0</ele><time>2026-04-26T10:31:36.692Z</time></trkpt><trkpt lat="33.2243191" lon="10.2209674"><ele>443.0</ele><time>2026-04-26T10:31:37.689Z</time></trkpt><trkpt lat="33.2242476" lon="10.221135"><ele>442.0</ele><time>2026-04-26T10:31:38.693Z</time></trkpt><trkpt lat="33.2241768" lon="10.2213038"><ele>441.0</ele><time>2026-04-26T10:31:39.716Z</time></trkpt><trkpt lat="33.2241191" lon="10.2214914"><ele>441.0</ele><time>2026-04-26T10:31:40.692Z</time></trkpt><trkpt lat="33.2240749" lon="10.2216838"><ele>441.0</ele><time>2026-04-26T10:31:41.683Z</time></trkpt><trkpt lat="33.2240434" lon="10.2218803"><ele>441.0</ele><time>2026-04-26T10:31:42.679Z</time></trkpt><trkpt lat="33.2240209" lon="10.2220741"><ele>441.0</ele><time>2026-04-26T10:31:43.723Z</time></trkpt><trkpt lat="33.2239997" lon="10.2222756"><ele>441.0</ele><time>2026-04-26T10:31:44.686Z</time></trkpt><trkpt lat="33.2239777" lon="10.222482"><ele>441.0</ele><time>2026-04-26T10:31:45.692Z</time></trkpt><trkpt lat="33.2239611" lon="10.2226825"><ele>442.0</ele><time>2026-04-26T10:31:46.676Z</time></trkpt><trkpt lat="33.2239354" lon="10.2228865"><ele>443.0</ele><time>2026-04-26T10:31:47.696Z</time></trkpt><trkpt lat="33.2239119" lon="10.2230883"><ele>444.0</ele><time>2026-04-26T10:31:48.694Z</time></trkpt><trkpt lat="33.2238899" lon="10.2232822"><ele>445.0</ele><time>2026-04-26T10:31:49.687Z</time></trkpt><trkpt lat="33.2238684" lon="10.2234749"><ele>446.0</ele><time>2026-04-26T10:31:50.696Z</time></trkpt><trkpt lat="33.223848" lon="10.2236671"><ele>447.0</ele><time>2026-04-26T10:31:51.705Z</time></trkpt><trkpt lat="33.2238219" lon="10.2238535"><ele>448.33333333333337</ele><time>2026-04-26T10:31:52.687Z</time></trkpt><trkpt lat="33.2237909" lon="10.2240357"><ele>449.6666666666667</ele><time>2026-04-26T10:31:53.702Z</time></trkpt><trkpt lat="33.2237522" lon="10.2242082"><ele>451.0</ele><time>2026-04-26T10:31:54.702Z</time></trkpt><trkpt lat="33.2237081" lon="10.2243755"><ele>451.0</ele><time>2026-04-26T10:31:55.707Z</time></trkpt><trkpt lat="33.2236588" lon="10.2245332"><ele>451.0</ele><time>2026-04-26T10:31:56.71Z</time></trkpt><trkpt lat="33.223611" lon="10.2246861"><ele>451.0</ele><time>2026-04-26T10:31:57.706Z</time></trkpt><trkpt lat="33.2235574" lon="10.224836"><ele>451.0</ele><time>2026-04-26T10:31:58.699Z</time></trkpt><trkpt lat="33.2234932" lon="10.2249748"><ele>453.0</ele><time>2026-04-26T10:31:59.694Z</time></trkpt><trkpt lat="33.2234161" lon="10.2251029"><ele>455.0</ele><time>2026-04-26T10:32:00.686Z</time></trkpt><trkpt lat="33.2233343" lon="10.225214"><ele>457.0</ele><time>2026-04-26T10:32:01.702Z</time></trkpt><trkpt lat="33.2232424" lon="10.2253212"><ele>459.0</ele><time>2026-04-26T10:32:02.696Z</time></trkpt><trkpt lat="33.2231473" lon="10.2254248"><ele>459.25</ele><time>2026-04-26T10:32:03.691Z</time></trkpt><trkpt lat="33.2230511" lon="10.2255255"><ele>459.5</ele><time>2026-04-26T10:32:04.698Z</time></trkpt><trkpt lat="33.2229564" lon="10.2256256"><ele>459.75</ele><time>2026-04-26T10:32:05.707Z</time></trkpt><trkpt lat="33.2228426" lon="10.2257249"><ele>460.0</ele><time>2026-04-26T10:32:06.69Z</time></trkpt><trkpt lat="33.2227226" lon="10.2258114"><ele>460.25</ele><time>2026-04-26T10:32:07.692Z</time></trkpt><trkpt lat="33.2225976" lon="10.2258918"><ele>460.5</ele><time>2026-04-26T10:32:08.687Z</time></trkpt><trkpt lat="33.2224721" lon="10.2259668"><ele>460.75</ele><time>2026-04-26T10:32:09.681Z</time></trkpt><trkpt lat="33.2223413" lon="10.2260514"><ele>461.0</ele><time>2026-04-26T10:32:10.686Z</time></trkpt><trkpt lat="33.2222096" lon="10.2261318"><ele>460.3333333333333</ele><time>2026-04-26T10:32:11.686Z</time></trkpt><trkpt lat="33.222078" lon="10.2262156"><ele>459.66666666666663</ele><time>2026-04-26T10:32:12.695Z</time></trkpt><trkpt lat="33.2219417" lon="10.2262981"><ele>459.0</ele><time>2026-04-26T10:32:13.678Z</time></trkpt><trkpt lat="33.221811" lon="10.2263867"><ele>459.0</ele><time>2026-04-26T10:32:14.682Z</time></trkpt><trkpt lat="33.2216834" lon="10.2264658"><ele>459.0</ele><time>2026-04-26T10:32:15.697Z</time></trkpt><trkpt lat="33.221563" lon="10.2265375"><ele>459.0</ele><time>2026-04-26T10:32:16.692Z</time></trkpt><trkpt lat="33.2214479" lon="10.2266078"><ele>459.0</ele><time>2026-04-26T10:32:17.71Z</time></trkpt><trkpt lat="33.2213295" lon="10.2266866"><ele>458.0</ele><time>2026-04-26T10:32:18.698Z</time></trkpt><trkpt lat="33.2212117" lon="10.2267643"><ele>457.0</ele><time>2026-04-26T10:32:19.676Z</time></trkpt><trkpt lat="33.2210877" lon="10.2268453"><ele>456.0</ele><time>2026-04-26T10:32:20.693Z</time></trkpt><trkpt lat="33.2209637" lon="10.2269237"><ele>455.0</ele><time>2026-04-26T10:32:21.703Z</time></trkpt><trkpt lat="33.2208362" lon="10.227009"><ele>455.0</ele><time>2026-04-26T10:32:22.692Z</time></trkpt><trkpt lat="33.2206992" lon="10.227092"><ele>455.0</ele><time>2026-04-26T10:32:23.709Z</time></trkpt><trkpt lat="33.2205671" lon="10.2271836"><ele>455.0</ele><time>2026-04-26T10:32:24.697Z</time></trkpt><trkpt lat="33.220431" lon="10.227275"><ele>454.0</ele><time>2026-04-26T10:32:25.707Z</time></trkpt><trkpt lat="33.2202935" lon="10.227365"><ele>453.0</ele><time>2026-04-26T10:32:26.694Z</time></trkpt><trkpt lat="33.2201571" lon="10.2274548"><ele>452.0</ele><time>2026-04-26T10:32:27.686Z</time></trkpt><trkpt lat="33.2200285" lon="10.2275379"><ele>452.0</ele><time>2026-04-26T10:32:28.691Z</time></trkpt><trkpt lat="33.2199025" lon="10.2276262"><ele>452.0</ele><time>2026-04-26T10:32:29.74Z</time></trkpt><trkpt lat="33.2197803" lon="10.22771"><ele>452.0</ele><time>2026-04-26T10:32:30.689Z</time></trkpt><trkpt lat="33.2196666" lon="10.2278028"><ele>452.0</ele><time>2026-04-26T10:32:31.699Z</time></trkpt><trkpt lat="33.2195546" lon="10.2279009"><ele>452.3333333333333</ele><time>2026-04-26T10:32:32.683Z</time></trkpt><trkpt lat="33.2194357" lon="10.2280157"><ele>452.66666666666663</ele><time>2026-04-26T10:32:33.7Z</time></trkpt><trkpt lat="33.2193189" lon="10.2281312"><ele>453.0</ele><time>2026-04-26T10:32:34.689Z</time></trkpt><trkpt lat="33.2191938" lon="10.2282421"><ele>451.0</ele><time>2026-04-26T10:32:35.691Z</time></trkpt><trkpt lat="33.2190745" lon="10.2283546"><ele>449.0</ele><time>2026-04-26T10:32:36.693Z</time></trkpt><trkpt lat="33.2189502" lon="10.2284696"><ele>447.0</ele><time>2026-04-26T10:32:37.695Z</time></trkpt><trkpt lat="33.2188245" lon="10.2285681"><ele>446.33333333333337</ele><time>2026-04-26T10:32:38.703Z</time></trkpt><trkpt lat="33.2186978" lon="10.2286592"><ele>445.6666666666667</ele><time>2026-04-26T10:32:39.69Z</time></trkpt><trkpt lat="33.218557" lon="10.2287256"><ele>445.0</ele><time>2026-04-26T10:32:40.692Z</time></trkpt><trkpt lat="33.2184112" lon="10.2287831"><ele>445.0</ele><time>2026-04-26T10:32:41.704Z</time></trkpt><trkpt lat="33.21826" lon="10.228827"><ele>445.0</ele><time>2026-04-26T10:32:42.692Z</time></trkpt><trkpt lat="33.2181109" lon="10.228868"><ele>445.0</ele><time>2026-04-26T10:32:43.686Z</time></trkpt><trkpt lat="33.2179539" lon="10.2289017"><ele>444.33333333333337</ele><time>2026-04-26T10:32:44.699Z</time></trkpt><trkpt lat="33.2177958" lon="10.228941"><ele>443.66666666666663</ele><time>2026-04-26T10:32:45.719Z</time></trkpt><trkpt lat="33.2176477" lon="10.2290064"><ele>443.0</ele><time>2026-04-26T10:32:46.697Z</time></trkpt><trkpt lat="33.2175074" lon="10.2290997"><ele>442.0</ele><time>2026-04-26T10:32:47.698Z</time></trkpt><trkpt lat="33.217371" lon="10.2292045"><ele>441.0</ele><time>2026-04-26T10:32:48.69Z</time></trkpt><trkpt lat="33.2172411" lon="10.2293133"><ele>440.0</ele><time>2026-04-26T10:32:49.705Z</time></trkpt><trkpt lat="33.2171085" lon="10.229427"><ele>439.3333333333333</ele><time>2026-04-26T10:32:50.68Z</time></trkpt><trkpt lat="33.2169706" lon="10.2295355"><ele>438.66666666666663</ele><time>2026-04-26T10:32:51.678Z</time></trkpt><trkpt lat="33.2168325" lon="10.2296446"><ele>438.0</ele><time>2026-04-26T10:32:52.692Z</time></trkpt><trkpt lat="33.216692" lon="10.2297504"><ele>438.0</ele><time>2026-04-26T10:32:53.695Z</time></trkpt><trkpt lat="33.2165512" lon="10.2298593"><ele>438.0</ele><time>2026-04-26T10:32:54.69Z</time></trkpt><trkpt lat="33.2164058" lon="10.2299721"><ele>438.0</ele><time>2026-04-26T10:32:55.703Z</time></trkpt><trkpt lat="33.216266" lon="10.2300812"><ele>438.0</ele><time>2026-04-26T10:32:56.713Z</time></trkpt><trkpt lat="33.2161254" lon="10.2301924"><ele>438.0</ele><time>2026-04-26T10:32:57.68Z</time></trkpt><trkpt lat="33.2159878" lon="10.2303129"><ele>438.0</ele><time>2026-04-26T10:32:58.73Z</time></trkpt><trkpt lat="33.2158536" lon="10.2304326"><ele>438.0</ele><time>2026-04-26T10:32:59.687Z</time></trkpt><trkpt lat="33.2157214" lon="10.2305562"><ele>438.0</ele><time>2026-04-26T10:33:00.706Z</time></trkpt><trkpt lat="33.21559" lon="10.230688"><ele>438.0</ele><time>2026-04-26T10:33:01.707Z</time></trkpt><trkpt lat="33.2154662" lon="10.2308239"><ele>439.33333333333337</ele><time>2026-04-26T10:33:02.697Z</time></trkpt><trkpt lat="33.2153408" lon="10.230954"><ele>440.6666666666667</ele><time>2026-04-26T10:33:03.685Z</time></trkpt><trkpt lat="33.2152185" lon="10.2310833"><ele>442.0</ele><time>2026-04-26T10:33:04.696Z</time></trkpt><trkpt lat="33.2151091" lon="10.2312264"><ele>442.0</ele><time>2026-04-26T10:33:05.696Z</time></trkpt><trkpt lat="33.2150188" lon="10.2313825"><ele>442.0</ele><time>2026-04-26T10:33:06.698Z</time></trkpt><trkpt lat="33.2149511" lon="10.2315716"><ele>442.0</ele><time>2026-04-26T10:33:07.687Z</time></trkpt><trkpt lat="33.2149072" lon="10.2317689"><ele>442.33333333333337</ele><time>2026-04-26T10:33:08.678Z</time></trkpt><trkpt lat="33.2148762" lon="10.2319625"><ele>442.66666666666663</ele><time>2026-04-26T10:33:09.703Z</time></trkpt><trkpt lat="33.2148452" lon="10.2321604"><ele>443.0</ele><time>2026-04-26T10:33:10.683Z</time></trkpt><trkpt lat="33.2148079" lon="10.2323535"><ele>445.66666666666663</ele><time>2026-04-26T10:33:11.695Z</time></trkpt><trkpt lat="33.2147701" lon="10.2325472"><ele>448.33333333333337</ele><time>2026-04-26T10:33:12.683Z</time></trkpt><trkpt lat="33.2147379" lon="10.2327424"><ele>451.0</ele><time>2026-04-26T10:33:13.701Z</time></trkpt><trkpt lat="33.21469" lon="10.2329268"><ele>451.0</ele><time>2026-04-26T10:33:14.703Z</time></trkpt><trkpt lat="33.214623" lon="10.2331096"><ele>451.0</ele><time>2026-04-26T10:33:15.693Z</time></trkpt><trkpt lat="33.2145347" lon="10.2332831"><ele>451.0</ele><time>2026-04-26T10:33:16.685Z</time></trkpt><trkpt lat="33.2144409" lon="10.2334501"><ele>451.0</ele><time>2026-04-26T10:33:17.675Z</time></trkpt><trkpt lat="33.2143455" lon="10.2336191"><ele>451.0</ele><time>2026-04-26T10:33:18.684Z</time></trkpt><trkpt lat="33.2142474" lon="10.2337855"><ele>451.0</ele><time>2026-04-26T10:33:19.673Z</time></trkpt><trkpt lat="33.2141509" lon="10.2339573"><ele>451.0</ele><time>2026-04-26T10:33:20.702Z</time></trkpt><trkpt lat="33.214058" lon="10.2341267"><ele>451.0</ele><time>2026-04-26T10:33:21.683Z</time></trkpt><trkpt lat="33.213964" lon="10.2342936"><ele>451.0</ele><time>2026-04-26T10:33:22.699Z</time></trkpt><trkpt lat="33.2138738" lon="10.2344562"><ele>451.0</ele><time>2026-04-26T10:33:23.706Z</time></trkpt><trkpt lat="33.213785" lon="10.2346262"><ele>451.0</ele><time>2026-04-26T10:33:24.707Z</time></trkpt><trkpt lat="33.2137037" lon="10.2348074"><ele>451.0</ele><time>2026-04-26T10:33:25.693Z</time></trkpt><trkpt lat="33.2136246" lon="10.2349796"><ele>450.0</ele><time>2026-04-26T10:33:26.684Z</time></trkpt><trkpt lat="33.2135429" lon="10.2351499"><ele>449.0</ele><time>2026-04-26T10:33:27.701Z</time></trkpt><trkpt lat="33.2134603" lon="10.2353127"><ele>448.0</ele><time>2026-04-26T10:33:28.678Z</time></trkpt><trkpt lat="33.2133791" lon="10.2354793"><ele>446.6666666666667</ele><time>2026-04-26T10:33:29.705Z</time></trkpt><trkpt lat="33.2132994" lon="10.235657"><ele>445.33333333333337</ele><time>2026-04-26T10:33:30.693Z</time></trkpt><trkpt lat="33.2132174" lon="10.2358316"><ele>444.0</ele><time>2026-04-26T10:33:31.686Z</time></trkpt><trkpt lat="33.2131286" lon="10.2360174"><ele>443.33333333333337</ele><time>2026-04-26T10:33:32.704Z</time></trkpt><trkpt lat="33.2130389" lon="10.2362041"><ele>442.6666666666667</ele><time>2026-04-26T10:33:33.71Z</time></trkpt><trkpt lat="33.2129484" lon="10.2363938"><ele>442.0</ele><time>2026-04-26T10:33:34.689Z</time></trkpt><trkpt lat="33.2128547" lon="10.236588"><ele>442.0</ele><time>2026-04-26T10:33:35.689Z</time></trkpt><trkpt lat="33.2127599" lon="10.23678"><ele>442.0</ele><time>2026-04-26T10:33:36.718Z</time></trkpt><trkpt lat="33.2126707" lon="10.2369715"><ele>442.0</ele><time>2026-04-26T10:33:37.693Z</time></trkpt><trkpt lat="33.2125799" lon="10.2371596"><ele>442.33333333333337</ele><time>2026-04-26T10:33:38.693Z</time></trkpt><trkpt lat="33.2124933" lon="10.2373457"><ele>442.66666666666663</ele><time>2026-04-26T10:33:39.694Z</time></trkpt><trkpt lat="33.212405" lon="10.2375281"><ele>443.0</ele><time>2026-04-26T10:33:40.723Z</time></trkpt><trkpt lat="33.2123191" lon="10.2377108"><ele>442.3333333333333</ele><time>2026-04-26T10:33:41.676Z</time></trkpt><trkpt lat="33.2122351" lon="10.2378935"><ele>441.66666666666663</ele><time>2026-04-26T10:33:42.663Z</time></trkpt><trkpt lat="33.2121449" lon="10.2380771"><ele>441.0</ele><time>2026-04-26T10:33:43.677Z</time></trkpt><trkpt lat="33.2120531" lon="10.238272"><ele>441.0</ele><time>2026-04-26T10:33:44.694Z</time></trkpt><trkpt lat="33.2119631" lon="10.2384596"><ele>441.0</ele><time>2026-04-26T10:33:45.684Z</time></trkpt><trkpt lat="33.2118749" lon="10.2386448"><ele>441.0</ele><time>2026-04-26T10:33:46.686Z</time></trkpt><trkpt lat="33.2117913" lon="10.2388323"><ele>439.66666666666663</ele><time>2026-04-26T10:33:47.697Z</time></trkpt><trkpt lat="33.2117009" lon="10.2390209"><ele>438.3333333333333</ele><time>2026-04-26T10:33:48.696Z</time></trkpt><trkpt lat="33.2116115" lon="10.2392032"><ele>437.0</ele><time>2026-04-26T10:33:49.684Z</time></trkpt><trkpt lat="33.2115113" lon="10.2393767"><ele>438.3333333333333</ele><time>2026-04-26T10:33:50.685Z</time></trkpt><trkpt lat="33.2114024" lon="10.2395568"><ele>439.66666666666663</ele><time>2026-04-26T10:33:51.699Z</time></trkpt><trkpt lat="33.2112833" lon="10.2397203"><ele>441.0</ele><time>2026-04-26T10:33:52.694Z</time></trkpt><trkpt lat="33.2111547" lon="10.2398743"><ele>441.66666666666663</ele><time>2026-04-26T10:33:53.719Z</time></trkpt><trkpt lat="33.2110274" lon="10.2400247"><ele>442.3333333333333</ele><time>2026-04-26T10:33:54.685Z</time></trkpt><trkpt lat="33.2109087" lon="10.2401794"><ele>443.0</ele><time>2026-04-26T10:33:55.685Z</time></trkpt><trkpt lat="33.210789" lon="10.2403344"><ele>443.0</ele><time>2026-04-26T10:33:56.715Z</time></trkpt><trkpt lat="33.210672" lon="10.2404896"><ele>443.0</ele><time>2026-04-26T10:33:57.701Z</time></trkpt><trkpt lat="33.2105488" lon="10.2406483"><ele>443.0</ele><time>2026-04-26T10:33:58.699Z</time></trkpt><trkpt lat="33.2104266" lon="10.2408034"><ele>444.66666666666663</ele><time>2026-04-26T10:33:59.677Z</time></trkpt><trkpt lat="33.210304" lon="10.2409643"><ele>446.33333333333337</ele><time>2026-04-26T10:34:00.693Z</time></trkpt><trkpt lat="33.2101788" lon="10.2411203"><ele>448.0</ele><time>2026-04-26T10:34:01.713Z</time></trkpt><trkpt lat="33.2100471" lon="10.2412676"><ele>448.0</ele><time>2026-04-26T10:34:02.707Z</time></trkpt><trkpt lat="33.2099118" lon="10.2413742"><ele>448.0</ele><time>2026-04-26T10:34:03.703Z</time></trkpt><trkpt lat="33.2097749" lon="10.241457"><ele>448.0</ele><time>2026-04-26T10:34:04.703Z</time></trkpt><trkpt lat="33.2096253" lon="10.2414937"><ele>448.33333333333337</ele><time>2026-04-26T10:34:05.693Z</time></trkpt><trkpt lat="33.2094575" lon="10.2414899"><ele>448.66666666666663</ele><time>2026-04-26T10:34:06.694Z</time></trkpt><trkpt lat="33.2092818" lon="10.2414823"><ele>449.0</ele><time>2026-04-26T10:34:07.69Z</time></trkpt><trkpt lat="33.2091155" lon="10.2414794"><ele>448.3333333333333</ele><time>2026-04-26T10:34:08.692Z</time></trkpt><trkpt lat="33.2089324" lon="10.2414777"><ele>447.66666666666663</ele><time>2026-04-26T10:34:09.702Z</time></trkpt><trkpt lat="33.208749" lon="10.241475"><ele>447.0</ele><time>2026-04-26T10:34:10.699Z</time></trkpt><trkpt lat="33.2085646" lon="10.2414727"><ele>447.0</ele><time>2026-04-26T10:34:11.694Z</time></trkpt><trkpt lat="33.208368" lon="10.2414669"><ele>447.0</ele><time>2026-04-26T10:34:12.688Z</time></trkpt><trkpt lat="33.208186" lon="10.2414504"><ele>447.0</ele><time>2026-04-26T10:34:13.708Z</time></trkpt><trkpt lat="33.2080063" lon="10.241438"><ele>447.0</ele><time>2026-04-26T10:34:14.688Z</time></trkpt><trkpt lat="33.2078184" lon="10.2414223"><ele>447.0</ele><time>2026-04-26T10:34:15.705Z</time></trkpt><trkpt lat="33.2076369" lon="10.241404"><ele>447.0</ele><time>2026-04-26T10:34:16.695Z</time></trkpt><trkpt lat="33.2074579" lon="10.2413877"><ele>446.0</ele><time>2026-04-26T10:34:17.707Z</time></trkpt><trkpt lat="33.2072839" lon="10.2413616"><ele>445.0</ele><time>2026-04-26T10:34:18.689Z</time></trkpt><trkpt lat="33.2071181" lon="10.2413017"><ele>444.0</ele><time>2026-04-26T10:34:19.698Z</time></trkpt><trkpt lat="33.2069434" lon="10.241214"><ele>444.0</ele><time>2026-04-26T10:34:20.684Z</time></trkpt><trkpt lat="33.2067763" lon="10.2411128"><ele>444.0</ele><time>2026-04-26T10:34:21.702Z</time></trkpt><trkpt lat="33.2066168" lon="10.2410033"><ele>444.0</ele><time>2026-04-26T10:34:22.692Z</time></trkpt><trkpt lat="33.2064608" lon="10.2409043"><ele>444.33333333333337</ele><time>2026-04-26T10:34:23.716Z</time></trkpt><trkpt lat="33.2063031" lon="10.240795"><ele>444.6666666666667</ele><time>2026-04-26T10:34:24.69Z</time></trkpt><trkpt lat="33.2061429" lon="10.2406899"><ele>445.0</ele><time>2026-04-26T10:34:25.686Z</time></trkpt><trkpt lat="33.2059939" lon="10.2405795"><ele>445.0</ele><time>2026-04-26T10:34:26.714Z</time></trkpt><trkpt lat="33.2058616" lon="10.2404687"><ele>445.0</ele><time>2026-04-26T10:34:27.688Z</time></trkpt><trkpt lat="33.2057664" lon="10.2403325"><ele>445.0</ele><time>2026-04-26T10:34:28.697Z</time></trkpt><trkpt lat="33.2056743" lon="10.2401942"><ele>443.5</ele><time>2026-04-26T10:34:29.754Z</time></trkpt><trkpt lat="33.2055739" lon="10.2400492"><ele>442.0</ele><time>2026-04-26T10:34:30.697Z</time></trkpt><trkpt lat="33.20548" lon="10.2399117"><ele>440.5</ele><time>2026-04-26T10:34:31.701Z</time></trkpt><trkpt lat="33.2053894" lon="10.239792"><ele>439.0</ele><time>2026-04-26T10:34:32.687Z</time></trkpt><trkpt lat="33.2052789" lon="10.2396959"><ele>439.0</ele><time>2026-04-26T10:34:33.696Z</time></trkpt><trkpt lat="33.2051401" lon="10.2396301"><ele>439.0</ele><time>2026-04-26T10:34:34.693Z</time></trkpt><trkpt lat="33.204989" lon="10.2395932"><ele>439.0</ele><time>2026-04-26T10:34:35.692Z</time></trkpt><trkpt lat="33.2048399" lon="10.2395924"><ele>437.6666666666667</ele><time>2026-04-26T10:34:36.7Z</time></trkpt><trkpt lat="33.2046862" lon="10.2395793"><ele>436.33333333333337</ele><time>2026-04-26T10:34:37.702Z</time></trkpt><trkpt lat="33.2045269" lon="10.2395585"><ele>435.0</ele><time>2026-04-26T10:34:38.695Z</time></trkpt><trkpt lat="33.2043819" lon="10.2395518"><ele>435.0</ele><time>2026-04-26T10:34:39.698Z</time></trkpt><trkpt lat="33.2042376" lon="10.2395337"><ele>435.0</ele><time>2026-04-26T10:34:40.706Z</time></trkpt><trkpt lat="33.2041107" lon="10.2395027"><ele>435.0</ele><time>2026-04-26T10:34:41.701Z</time></trkpt><trkpt lat="33.2040023" lon="10.2394271"><ele>435.0</ele><time>2026-04-26T10:34:42.702Z</time></trkpt><trkpt lat="33.203905" lon="10.2393349"><ele>434.75</ele><time>2026-04-26T10:34:43.712Z</time></trkpt><trkpt lat="33.2038216" lon="10.2392215"><ele>434.5</ele><time>2026-04-26T10:34:44.694Z</time></trkpt><trkpt lat="33.2037387" lon="10.239106"><ele>434.25</ele><time>2026-04-26T10:34:45.694Z</time></trkpt><trkpt lat="33.2036552" lon="10.2389772"><ele>434.0</ele><time>2026-04-26T10:34:46.714Z</time></trkpt><trkpt lat="33.2035458" lon="10.2388496"><ele>432.66666666666663</ele><time>2026-04-26T10:34:47.716Z</time></trkpt><trkpt lat="33.2034311" lon="10.2387251"><ele>431.33333333333337</ele><time>2026-04-26T10:34:48.665Z</time></trkpt><trkpt lat="33.2033066" lon="10.2385945"><ele>430.0</ele><time>2026-04-26T10:34:49.686Z</time></trkpt><trkpt lat="33.2031804" lon="10.2384676"><ele>429.6666666666667</ele><time>2026-04-26T10:34:50.686Z</time></trkpt><trkpt lat="33.2030549" lon="10.2383481"><ele>429.33333333333337</ele><time>2026-04-26T10:34:51.674Z</time></trkpt><trkpt lat="33.2029244" lon="10.238227"><ele>429.0</ele><time>2026-04-26T10:34:52.698Z</time></trkpt><trkpt lat="33.2027935" lon="10.2381215"><ele>429.0</ele><time>2026-04-26T10:34:53.68Z</time></trkpt><trkpt lat="33.2026668" lon="10.2380356"><ele>429.0</ele><time>2026-04-26T10:34:54.674Z</time></trkpt><trkpt lat="33.2025346" lon="10.2379944"><ele>429.0</ele><time>2026-04-26T10:34:55.688Z</time></trkpt><trkpt lat="33.2023913" lon="10.238006"><ele>429.0</ele><time>2026-04-26T10:34:56.689Z</time></trkpt><trkpt lat="33.2022463" lon="10.2380484"><ele>428.33333333333337</ele><time>2026-04-26T10:34:57.694Z</time></trkpt><trkpt lat="33.2021051" lon="10.2381295"><ele>427.6666666666667</ele><time>2026-04-26T10:34:58.688Z</time></trkpt><trkpt lat="33.2019565" lon="10.2382088"><ele>427.0</ele><time>2026-04-26T10:34:59.693Z</time></trkpt><trkpt lat="33.2018058" lon="10.2382624"><ele>427.0</ele><time>2026-04-26T10:35:00.682Z</time></trkpt><trkpt lat="33.2016542" lon="10.2383117"><ele>427.0</ele><time>2026-04-26T10:35:01.694Z</time></trkpt><trkpt lat="33.2015126" lon="10.2383542"><ele>427.0</ele><time>2026-04-26T10:35:02.698Z</time></trkpt><trkpt lat="33.201376" lon="10.2383951"><ele>427.0</ele><time>2026-04-26T10:35:03.683Z</time></trkpt><trkpt lat="33.2012368" lon="10.2384004"><ele>428.0</ele><time>2026-04-26T10:35:04.682Z</time></trkpt><trkpt lat="33.201104" lon="10.2383714"><ele>429.0</ele><time>2026-04-26T10:35:05.695Z</time></trkpt><trkpt lat="33.2009703" lon="10.2383102"><ele>430.0</ele><time>2026-04-26T10:35:06.686Z</time></trkpt><trkpt lat="33.2008319" lon="10.2382381"><ele>431.0</ele><time>2026-04-26T10:35:07.704Z</time></trkpt><trkpt lat="33.2006949" lon="10.2381678"><ele>427.0</ele><time>2026-04-26T10:35:08.681Z</time></trkpt><trkpt lat="33.2005565" lon="10.2380847"><ele>423.0</ele><time>2026-04-26T10:35:09.697Z</time></trkpt><trkpt lat="33.2004229" lon="10.2379951"><ele>419.0</ele><time>2026-04-26T10:35:10.685Z</time></trkpt><trkpt lat="33.2002939" lon="10.237907"><ele>419.0</ele><time>2026-04-26T10:35:11.686Z</time></trkpt><trkpt lat="33.2001668" lon="10.2378168"><ele>419.0</ele><time>2026-04-26T10:35:12.685Z</time></trkpt><trkpt lat="33.2000462" lon="10.2377241"><ele>419.0</ele><time>2026-04-26T10:35:13.688Z</time></trkpt><trkpt lat="33.1999449" lon="10.2376122"><ele>419.0</ele><time>2026-04-26T10:35:14.691Z</time></trkpt><trkpt lat="33.1998585" lon="10.23749"><ele>418.75</ele><time>2026-04-26T10:35:15.67Z</time></trkpt><trkpt lat="33.1997862" lon="10.2373471"><ele>418.5</ele><time>2026-04-26T10:35:16.682Z</time></trkpt><trkpt lat="33.1997357" lon="10.2372047"><ele>418.25</ele><time>2026-04-26T10:35:17.683Z</time></trkpt><trkpt lat="33.1996831" lon="10.2370579"><ele>418.0</ele><time>2026-04-26T10:35:18.698Z</time></trkpt><trkpt lat="33.1996091" lon="10.2369291"><ele>418.0</ele><time>2026-04-26T10:35:19.689Z</time></trkpt><trkpt lat="33.1995207" lon="10.2368218"><ele>418.0</ele><time>2026-04-26T10:35:20.695Z</time></trkpt><trkpt lat="33.1994161" lon="10.2367282"><ele>418.0</ele><time>2026-04-26T10:35:21.681Z</time></trkpt><trkpt lat="33.1992847" lon="10.2366533"><ele>418.0</ele><time>2026-04-26T10:35:22.7Z</time></trkpt><trkpt lat="33.1991459" lon="10.2365778"><ele>418.0</ele><time>2026-04-26T10:35:23.693Z</time></trkpt><trkpt lat="33.1990014" lon="10.2365043"><ele>418.0</ele><time>2026-04-26T10:35:24.721Z</time></trkpt><trkpt lat="33.1988453" lon="10.23644"><ele>418.0</ele><time>2026-04-26T10:35:25.695Z</time></trkpt><trkpt lat="33.1986947" lon="10.2363727"><ele>416.0</ele><time>2026-04-26T10:35:26.693Z</time></trkpt><trkpt lat="33.1985384" lon="10.2363109"><ele>414.0</ele><time>2026-04-26T10:35:27.718Z</time></trkpt><trkpt lat="33.1983721" lon="10.236249"><ele>412.0</ele><time>2026-04-26T10:35:28.68Z</time></trkpt><trkpt lat="33.198214" lon="10.2361924"><ele>411.0</ele><time>2026-04-26T10:35:29.697Z</time></trkpt><trkpt lat="33.1980609" lon="10.2361314"><ele>410.0</ele><time>2026-04-26T10:35:30.703Z</time></trkpt><trkpt lat="33.1979232" lon="10.236047"><ele>409.0</ele><time>2026-04-26T10:35:31.677Z</time></trkpt><trkpt lat="33.1977822" lon="10.2359559"><ele>409.0</ele><time>2026-04-26T10:35:32.672Z</time></trkpt><trkpt lat="33.1976439" lon="10.23586"><ele>409.0</ele><time>2026-04-26T10:35:33.699Z</time></trkpt><trkpt lat="33.1975089" lon="10.2357787"><ele>409.0</ele><time>2026-04-26T10:35:34.693Z</time></trkpt><trkpt lat="33.1973838" lon="10.2357026"><ele>409.75</ele><time>2026-04-26T10:35:35.687Z</time></trkpt><trkpt lat="33.1972699" lon="10.2356595"><ele>410.5</ele><time>2026-04-26T10:35:36.695Z</time></trkpt><trkpt lat="33.1971582" lon="10.2356755"><ele>411.25</ele><time>2026-04-26T10:35:37.702Z</time></trkpt><trkpt lat="33.1970512" lon="10.2357402"><ele>412.0</ele><time>2026-04-26T10:35:38.694Z</time></trkpt><trkpt lat="33.1969236" lon="10.2358325"><ele>412.0</ele><time>2026-04-26T10:35:39.697Z</time></trkpt><trkpt lat="33.1967876" lon="10.2359265"><ele>412.0</ele><time>2026-04-26T10:35:40.671Z</time></trkpt><trkpt lat="33.1966405" lon="10.2360263"><ele>412.0</ele><time>2026-04-26T10:35:41.713Z</time></trkpt><trkpt lat="33.1964926" lon="10.2361312"><ele>414.6666666666667</ele><time>2026-04-26T10:35:42.701Z</time></trkpt><trkpt lat="33.1963359" lon="10.2362132"><ele>417.33333333333337</ele><time>2026-04-26T10:35:43.687Z</time></trkpt><trkpt lat="33.1961595" lon="10.2362731"><ele>420.0</ele><time>2026-04-26T10:35:44.677Z</time></trkpt><trkpt lat="33.1959806" lon="10.2363299"><ele>420.0</ele><time>2026-04-26T10:35:45.683Z</time></trkpt><trkpt lat="33.1958034" lon="10.2363945"><ele>420.0</ele><time>2026-04-26T10:35:46.708Z</time></trkpt><trkpt lat="33.1956318" lon="10.2364527"><ele>420.0</ele><time>2026-04-26T10:35:47.669Z</time></trkpt><trkpt lat="33.1954574" lon="10.2365103"><ele>413.33333333333337</ele><time>2026-04-26T10:35:48.69Z</time></trkpt><trkpt lat="33.1952839" lon="10.2365643"><ele>406.6666666666667</ele><time>2026-04-26T10:35:49.693Z</time></trkpt><trkpt lat="33.1951127" lon="10.2366118"><ele>400.0</ele><time>2026-04-26T10:35:50.687Z</time></trkpt><trkpt lat="33.1949513" lon="10.2366588"><ele>400.6666666666667</ele><time>2026-04-26T10:35:51.692Z</time></trkpt><trkpt lat="33.1947968" lon="10.2366841"><ele>401.33333333333337</ele><time>2026-04-26T10:35:52.692Z</time></trkpt><trkpt lat="33.1946441" lon="10.2366738"><ele>402.0</ele><time>2026-04-26T10:35:53.698Z</time></trkpt><trkpt lat="33.1944879" lon="10.2366357"><ele>402.0</ele><time>2026-04-26T10:35:54.691Z</time></trkpt><trkpt lat="33.1943198" lon="10.2365794"><ele>402.0</ele><time>2026-04-26T10:35:55.699Z</time></trkpt><trkpt lat="33.1941545" lon="10.2364951"><ele>402.0</ele><time>2026-04-26T10:35:56.68Z</time></trkpt><trkpt lat="33.1939958" lon="10.2363996"><ele>402.0</ele><time>2026-04-26T10:35:57.698Z</time></trkpt><trkpt lat="33.1938358" lon="10.236293"><ele>402.0</ele><time>2026-04-26T10:35:58.692Z</time></trkpt><trkpt lat="33.1936824" lon="10.236184"><ele>402.0</ele><time>2026-04-26T10:35:59.716Z</time></trkpt><trkpt lat="33.1935173" lon="10.236067"><ele>402.0</ele><time>2026-04-26T10:36:00.68Z</time></trkpt><trkpt lat="33.193345" lon="10.2359462"><ele>402.0</ele><time>2026-04-26T10:36:01.689Z</time></trkpt><trkpt lat="33.1931659" lon="10.2358218"><ele>402.0</ele><time>2026-04-26T10:36:02.699Z</time></trkpt><trkpt lat="33.192988" lon="10.2356966"><ele>399.66666666666663</ele><time>2026-04-26T10:36:03.683Z</time></trkpt><trkpt lat="33.1928094" lon="10.2355683"><ele>397.3333333333333</ele><time>2026-04-26T10:36:04.694Z</time></trkpt><trkpt lat="33.192631" lon="10.2354481"><ele>395.0</ele><time>2026-04-26T10:36:05.696Z</time></trkpt><trkpt lat="33.1924506" lon="10.2353347"><ele>394.66666666666663</ele><time>2026-04-26T10:36:06.676Z</time></trkpt><trkpt lat="33.1922724" lon="10.2352394"><ele>394.33333333333337</ele><time>2026-04-26T10:36:07.712Z</time></trkpt><trkpt lat="33.1920921" lon="10.2351534"><ele>394.0</ele><time>2026-04-26T10:36:08.68Z</time></trkpt><trkpt lat="33.1919117" lon="10.2350681"><ele>394.0</ele><time>2026-04-26T10:36:09.68Z</time></trkpt><trkpt lat="33.1917333" lon="10.2349806"><ele>394.0</ele><time>2026-04-26T10:36:10.698Z</time></trkpt><trkpt lat="33.1915462" lon="10.2348969"><ele>394.0</ele><time>2026-04-26T10:36:11.697Z</time></trkpt><trkpt lat="33.1913703" lon="10.2348202"><ele>393.0</ele><time>2026-04-26T10:36:12.685Z</time></trkpt><trkpt lat="33.1912004" lon="10.2347392"><ele>392.0</ele><time>2026-04-26T10:36:13.69Z</time></trkpt><trkpt lat="33.1910399" lon="10.2346727"><ele>391.0</ele><time>2026-04-26T10:36:14.694Z</time></trkpt><trkpt lat="33.1908939" lon="10.2346328"><ele>391.0</ele><time>2026-04-26T10:36:15.69Z</time></trkpt><trkpt lat="33.1907524" lon="10.234641"><ele>391.0</ele><time>2026-04-26T10:36:16.691Z</time></trkpt><trkpt lat="33.1906275" lon="10.234688"><ele>391.0</ele><time>2026-04-26T10:36:17.669Z</time></trkpt><trkpt lat="33.190507" lon="10.2347647"><ele>391.0</ele><time>2026-04-26T10:36:18.66Z</time></trkpt><trkpt lat="33.1903899" lon="10.2348762"><ele>390.6666666666667</ele><time>2026-04-26T10:36:19.709Z</time></trkpt><trkpt lat="33.1902827" lon="10.2350024"><ele>390.33333333333337</ele><time>2026-04-26T10:36:20.718Z</time></trkpt><trkpt lat="33.1901694" lon="10.2351327"><ele>390.0</ele><time>2026-04-26T10:36:21.709Z</time></trkpt><trkpt lat="33.1900607" lon="10.235269"><ele>390.0</ele><time>2026-04-26T10:36:22.701Z</time></trkpt><trkpt lat="33.1899421" lon="10.2354003"><ele>390.0</ele><time>2026-04-26T10:36:23.714Z</time></trkpt><trkpt lat="33.1898193" lon="10.235523"><ele>390.0</ele><time>2026-04-26T10:36:24.7Z</time></trkpt><trkpt lat="33.1896888" lon="10.235636"><ele>388.33333333333337</ele><time>2026-04-26T10:36:25.709Z</time></trkpt><trkpt lat="33.1895591" lon="10.2357404"><ele>386.6666666666667</ele><time>2026-04-26T10:36:26.748Z</time></trkpt><trkpt lat="33.1894292" lon="10.2358429"><ele>385.0</ele><time>2026-04-26T10:36:27.662Z</time></trkpt><trkpt lat="33.1892875" lon="10.2359536"><ele>385.0</ele><time>2026-04-26T10:36:28.711Z</time></trkpt><trkpt lat="33.1891506" lon="10.2360759"><ele>385.0</ele><time>2026-04-26T10:36:29.712Z</time></trkpt><trkpt lat="33.1890221" lon="10.2362076"><ele>385.0</ele><time>2026-04-26T10:36:30.711Z</time></trkpt><trkpt lat="33.1889063" lon="10.2363609"><ele>384.0</ele><time>2026-04-26T10:36:31.694Z</time></trkpt><trkpt lat="33.1887958" lon="10.236512"><ele>383.0</ele><time>2026-04-26T10:36:32.707Z</time></trkpt><trkpt lat="33.1886822" lon="10.2366685"><ele>382.0</ele><time>2026-04-26T10:36:33.713Z</time></trkpt><trkpt lat="33.1885646" lon="10.2368273"><ele>382.0</ele><time>2026-04-26T10:36:34.708Z</time></trkpt><trkpt lat="33.1884449" lon="10.2369925"><ele>382.0</ele><time>2026-04-26T10:36:35.715Z</time></trkpt><trkpt lat="33.1883269" lon="10.2371489"><ele>382.0</ele><time>2026-04-26T10:36:36.674Z</time></trkpt><trkpt lat="33.1882187" lon="10.2373105"><ele>381.3333333333333</ele><time>2026-04-26T10:36:37.673Z</time></trkpt><trkpt lat="33.1881061" lon="10.2374688"><ele>380.6666666666667</ele><time>2026-04-26T10:36:38.717Z</time></trkpt><trkpt lat="33.1879915" lon="10.237621"><ele>380.0</ele><time>2026-04-26T10:36:39.734Z</time></trkpt><trkpt lat="33.1878847" lon="10.2377745"><ele>380.0</ele><time>2026-04-26T10:36:40.711Z</time></trkpt><trkpt lat="33.1877767" lon="10.2379312"><ele>380.0</ele><time>2026-04-26T10:36:41.701Z</time></trkpt><trkpt lat="33.1876661" lon="10.2380858"><ele>380.0</ele><time>2026-04-26T10:36:42.663Z</time></trkpt><trkpt lat="33.1875516" lon="10.2382425"><ele>380.33333333333337</ele><time>2026-04-26T10:36:43.708Z</time></trkpt><trkpt lat="33.1874349" lon="10.2383986"><ele>380.6666666666667</ele><time>2026-04-26T10:36:44.707Z</time></trkpt><trkpt lat="33.1873188" lon="10.2385533"><ele>381.0</ele><time>2026-04-26T10:36:45.724Z</time></trkpt><trkpt lat="33.1871986" lon="10.2387106"><ele>380.3333333333333</ele><time>2026-04-26T10:36:46.681Z</time></trkpt><trkpt lat="33.1870736" lon="10.2388751"><ele>379.66666666666663</ele><time>2026-04-26T10:36:47.704Z</time></trkpt><trkpt lat="33.1869424" lon="10.2390422"><ele>379.0</ele><time>2026-04-26T10:36:48.685Z</time></trkpt><trkpt lat="33.1868107" lon="10.2392095"><ele>379.0</ele><time>2026-04-26T10:36:49.722Z</time></trkpt><trkpt lat="33.1866788" lon="10.2393765"><ele>379.0</ele><time>2026-04-26T10:36:50.699Z</time></trkpt><trkpt lat="33.1865401" lon="10.2395337"><ele>379.0</ele><time>2026-04-26T10:36:51.725Z</time></trkpt><trkpt lat="33.1863945" lon="10.2396811"><ele>378.0</ele><time>2026-04-26T10:36:52.718Z</time></trkpt><trkpt lat="33.1862384" lon="10.239815"><ele>377.0</ele><time>2026-04-26T10:36:53.717Z</time></trkpt><trkpt lat="33.1860795" lon="10.2399363"><ele>376.0</ele><time>2026-04-26T10:36:54.695Z</time></trkpt><trkpt lat="33.1859224" lon="10.2400623"><ele>376.0</ele><time>2026-04-26T10:36:55.707Z</time></trkpt><trkpt lat="33.1857646" lon="10.240188"><ele>376.0</ele><time>2026-04-26T10:36:56.726Z</time></trkpt><trkpt lat="33.1856027" lon="10.2403077"><ele>376.0</ele><time>2026-04-26T10:36:57.714Z</time></trkpt><trkpt lat="33.1854409" lon="10.2404251"><ele>376.0</ele><time>2026-04-26T10:36:58.707Z</time></trkpt><trkpt lat="33.1852737" lon="10.2405425"><ele>376.0</ele><time>2026-04-26T10:36:59.715Z</time></trkpt><trkpt lat="33.1851097" lon="10.2406632"><ele>376.0</ele><time>2026-04-26T10:37:00.69Z</time></trkpt><trkpt lat="33.184952" lon="10.240783"><ele>375.3333333333333</ele><time>2026-04-26T10:37:01.723Z</time></trkpt><trkpt lat="33.1847886" lon="10.240907"><ele>374.6666666666667</ele><time>2026-04-26T10:37:02.726Z</time></trkpt><trkpt lat="33.184633" lon="10.2410275"><ele>374.0</ele><time>2026-04-26T10:37:03.7Z</time></trkpt><trkpt lat="33.1844784" lon="10.241148"><ele>374.0</ele><time>2026-04-26T10:37:04.713Z</time></trkpt><trkpt lat="33.1843233" lon="10.2412737"><ele>374.0</ele><time>2026-04-26T10:37:05.703Z</time></trkpt><trkpt lat="33.1841712" lon="10.2414089"><ele>374.0</ele><time>2026-04-26T10:37:06.688Z</time></trkpt><trkpt lat="33.1840252" lon="10.2415551"><ele>373.6666666666667</ele><time>2026-04-26T10:37:07.714Z</time></trkpt><trkpt lat="33.1838772" lon="10.2417058"><ele>373.3333333333333</ele><time>2026-04-26T10:37:08.72Z</time></trkpt><trkpt lat="33.1837332" lon="10.241856"><ele>373.0</ele><time>2026-04-26T10:37:09.723Z</time></trkpt><trkpt lat="33.183589" lon="10.2420103"><ele>373.0</ele><time>2026-04-26T10:37:10.715Z</time></trkpt><trkpt lat="33.1834445" lon="10.2421648"><ele>373.0</ele><time>2026-04-26T10:37:11.713Z</time></trkpt><trkpt lat="33.1832977" lon="10.2423128"><ele>373.0</ele><time>2026-04-26T10:37:12.718Z</time></trkpt><trkpt lat="33.183151" lon="10.2424595"><ele>372.66666666666663</ele><time>2026-04-26T10:37:13.707Z</time></trkpt><trkpt lat="33.1830011" lon="10.2426097"><ele>372.3333333333333</ele><time>2026-04-26T10:37:14.701Z</time></trkpt><trkpt lat="33.1828534" lon="10.2427571"><ele>372.0</ele><time>2026-04-26T10:37:15.718Z</time></trkpt><trkpt lat="33.1827094" lon="10.2429054"><ele>372.0</ele><time>2026-04-26T10:37:16.719Z</time></trkpt><trkpt lat="33.1825696" lon="10.2430557"><ele>372.0</ele><time>2026-04-26T10:37:17.708Z</time></trkpt><trkpt lat="33.1824404" lon="10.2432208"><ele>372.0</ele><time>2026-04-26T10:37:18.719Z</time></trkpt><trkpt lat="33.1823216" lon="10.2434004"><ele>371.6666666666667</ele><time>2026-04-26T10:37:19.714Z</time></trkpt><trkpt lat="33.1822131" lon="10.2435985"><ele>371.33333333333337</ele><time>2026-04-26T10:37:20.716Z</time></trkpt><trkpt lat="33.1821132" lon="10.2438063"><ele>371.0</ele><time>2026-04-26T10:37:21.71Z</time></trkpt><trkpt lat="33.1820215" lon="10.2440165"><ele>370.6666666666667</ele><time>2026-04-26T10:37:22.71Z</time></trkpt><trkpt lat="33.181932" lon="10.2442222"><ele>370.3333333333333</ele><time>2026-04-26T10:37:23.711Z</time></trkpt><trkpt lat="33.181844" lon="10.2444284"><ele>370.0</ele><time>2026-04-26T10:37:24.715Z</time></trkpt><trkpt lat="33.1817711" lon="10.244637"><ele>370.3333333333333</ele><time>2026-04-26T10:37:25.722Z</time></trkpt><trkpt lat="33.1817018" lon="10.2448465"><ele>370.6666666666667</ele><time>2026-04-26T10:37:26.703Z</time></trkpt><trkpt lat="33.1816383" lon="10.2450571"><ele>371.0</ele><time>2026-04-26T10:37:27.713Z</time></trkpt><trkpt lat="33.1815697" lon="10.2452643"><ele>370.6666666666667</ele><time>2026-04-26T10:37:28.714Z</time></trkpt><trkpt lat="33.1815013" lon="10.2454718"><ele>370.3333333333333</ele><time>2026-04-26T10:37:29.711Z</time></trkpt><trkpt lat="33.1814335" lon="10.2456816"><ele>370.0</ele><time>2026-04-26T10:37:30.717Z</time></trkpt><trkpt lat="33.1813668" lon="10.2458866"><ele>370.0</ele><time>2026-04-26T10:37:31.724Z</time></trkpt><trkpt lat="33.1813077" lon="10.2460939"><ele>370.0</ele><time>2026-04-26T10:37:32.698Z</time></trkpt><trkpt lat="33.1812513" lon="10.2463081"><ele>370.0</ele><time>2026-04-26T10:37:33.733Z</time></trkpt><trkpt lat="33.1811993" lon="10.2465248"><ele>370.0</ele><time>2026-04-26T10:37:34.733Z</time></trkpt><trkpt lat="33.1811594" lon="10.2467378"><ele>370.0</ele><time>2026-04-26T10:37:35.687Z</time></trkpt><trkpt lat="33.1811283" lon="10.2469587"><ele>370.0</ele><time>2026-04-26T10:37:36.714Z</time></trkpt><trkpt lat="33.1810945" lon="10.2471781"><ele>369.66666666666663</ele><time>2026-04-26T10:37:37.669Z</time></trkpt><trkpt lat="33.1810611" lon="10.2474018"><ele>369.3333333333333</ele><time>2026-04-26T10:37:38.735Z</time></trkpt><trkpt lat="33.1810245" lon="10.2476281"><ele>369.0</ele><time>2026-04-26T10:37:39.697Z</time></trkpt><trkpt lat="33.1809867" lon="10.247854"><ele>369.0</ele><time>2026-04-26T10:37:40.729Z</time></trkpt><trkpt lat="33.1809474" lon="10.2480647"><ele>369.0</ele><time>2026-04-26T10:37:41.713Z</time></trkpt><trkpt lat="33.1809129" lon="10.2482783"><ele>369.0</ele><time>2026-04-26T10:37:42.71Z</time></trkpt><trkpt lat="33.1808839" lon="10.2485007"><ele>367.6666666666667</ele><time>2026-04-26T10:37:43.725Z</time></trkpt><trkpt lat="33.1808622" lon="10.2487259"><ele>366.33333333333337</ele><time>2026-04-26T10:37:44.728Z</time></trkpt><trkpt lat="33.1808502" lon="10.2489594"><ele>365.0</ele><time>2026-04-26T10:37:45.709Z</time></trkpt><trkpt lat="33.1808402" lon="10.249193"><ele>365.0</ele><time>2026-04-26T10:37:46.715Z</time></trkpt><trkpt lat="33.180834" lon="10.2494338"><ele>365.0</ele><time>2026-04-26T10:37:47.714Z</time></trkpt><trkpt lat="33.1808309" lon="10.2496746"><ele>365.0</ele><time>2026-04-26T10:37:48.712Z</time></trkpt><trkpt lat="33.1808296" lon="10.2499147"><ele>366.0</ele><time>2026-04-26T10:37:49.692Z</time></trkpt><trkpt lat="33.1808285" lon="10.2501521"><ele>367.0</ele><time>2026-04-26T10:37:50.689Z</time></trkpt><trkpt lat="33.180823" lon="10.250382"><ele>368.0</ele><time>2026-04-26T10:37:51.693Z</time></trkpt><trkpt lat="33.1808179" lon="10.2506116"><ele>367.33333333333337</ele><time>2026-04-26T10:37:52.683Z</time></trkpt><trkpt lat="33.1808168" lon="10.2508382"><ele>366.6666666666667</ele><time>2026-04-26T10:37:53.711Z</time></trkpt><trkpt lat="33.1808166" lon="10.2510584"><ele>366.0</ele><time>2026-04-26T10:37:54.717Z</time></trkpt><trkpt lat="33.1808166" lon="10.2512665"><ele>367.3333333333333</ele><time>2026-04-26T10:37:55.662Z</time></trkpt><trkpt lat="33.1808137" lon="10.2514752"><ele>368.66666666666663</ele><time>2026-04-26T10:37:56.711Z</time></trkpt><trkpt lat="33.1808086" lon="10.2516857"><ele>370.0</ele><time>2026-04-26T10:37:57.704Z</time></trkpt><trkpt lat="33.1807904" lon="10.2518824"><ele>370.0</ele><time>2026-04-26T10:37:58.676Z</time></trkpt><trkpt lat="33.1807628" lon="10.2520828"><ele>370.0</ele><time>2026-04-26T10:37:59.728Z</time></trkpt><trkpt lat="33.1807343" lon="10.2522896"><ele>370.0</ele><time>2026-04-26T10:38:00.732Z</time></trkpt><trkpt lat="33.1807056" lon="10.2524977"><ele>370.66666666666663</ele><time>2026-04-26T10:38:01.704Z</time></trkpt><trkpt lat="33.1806805" lon="10.2526988"><ele>371.3333333333333</ele><time>2026-04-26T10:38:02.723Z</time></trkpt><trkpt lat="33.1806574" lon="10.2528875"><ele>372.0</ele><time>2026-04-26T10:38:03.688Z</time></trkpt><trkpt lat="33.1806257" lon="10.2530632"><ele>372.5</ele><time>2026-04-26T10:38:04.685Z</time></trkpt><trkpt lat="33.1805816" lon="10.2532278"><ele>373.0</ele><time>2026-04-26T10:38:05.684Z</time></trkpt><trkpt lat="33.1805277" lon="10.2533819"><ele>373.5</ele><time>2026-04-26T10:38:06.707Z</time></trkpt><trkpt lat="33.1804654" lon="10.2535235"><ele>374.0</ele><time>2026-04-26T10:38:07.721Z</time></trkpt><trkpt lat="33.1803939" lon="10.2536568"><ele>374.0</ele><time>2026-04-26T10:38:08.701Z</time></trkpt><trkpt lat="33.1803223" lon="10.2537723"><ele>374.0</ele><time>2026-04-26T10:38:09.708Z</time></trkpt><trkpt lat="33.1802539" lon="10.2538748"><ele>374.0</ele><time>2026-04-26T10:38:10.689Z</time></trkpt><trkpt lat="33.1801806" lon="10.2539659"><ele>374.0</ele><time>2026-04-26T10:38:11.7Z</time></trkpt><trkpt lat="33.1800993" lon="10.2540499"><ele>374.0</ele><time>2026-04-26T10:38:12.753Z</time></trkpt><trkpt lat="33.1800172" lon="10.2541286"><ele>374.2</ele><time>2026-04-26T10:38:13.674Z</time></trkpt><trkpt lat="33.1799337" lon="10.2542079"><ele>374.4</ele><time>2026-04-26T10:38:14.709Z</time></trkpt><trkpt lat="33.1798511" lon="10.2542933"><ele>374.6</ele><time>2026-04-26T10:38:15.698Z</time></trkpt><trkpt lat="33.1797727" lon="10.2543773"><ele>374.8</ele><time>2026-04-26T10:38:16.707Z</time></trkpt><trkpt lat="33.179685" lon="10.2544555"><ele>375.0</ele><time>2026-04-26T10:38:17.714Z</time></trkpt><trkpt lat="33.1795983" lon="10.2545358"><ele>375.75</ele><time>2026-04-26T10:38:18.702Z</time></trkpt><trkpt lat="33.1795086" lon="10.2546082"><ele>376.5</ele><time>2026-04-26T10:38:19.74Z</time></trkpt><trkpt lat="33.1794138" lon="10.2546783"><ele>377.25</ele><time>2026-04-26T10:38:20.722Z</time></trkpt><trkpt lat="33.1793167" lon="10.254751"><ele>378.0</ele><time>2026-04-26T10:38:21.732Z</time></trkpt><trkpt lat="33.1792143" lon="10.2548263"><ele>378.0</ele><time>2026-04-26T10:38:22.71Z</time></trkpt><trkpt lat="33.1791101" lon="10.2548894"><ele>378.0</ele><time>2026-04-26T10:38:23.723Z</time></trkpt><trkpt lat="33.1789987" lon="10.2549585"><ele>378.0</ele><time>2026-04-26T10:38:24.739Z</time></trkpt><trkpt lat="33.1788881" lon="10.2550433"><ele>378.0</ele><time>2026-04-26T10:38:25.697Z</time></trkpt><trkpt lat="33.1787807" lon="10.2551352"><ele>378.25</ele><time>2026-04-26T10:38:26.711Z</time></trkpt><trkpt lat="33.1786904" lon="10.2552496"><ele>378.5</ele><time>2026-04-26T10:38:27.711Z</time></trkpt><trkpt lat="33.1786131" lon="10.2553775"><ele>378.75</ele><time>2026-04-26T10:38:28.715Z</time></trkpt><trkpt lat="33.1785619" lon="10.2555152"><ele>379.0</ele><time>2026-04-26T10:38:29.717Z</time></trkpt><trkpt lat="33.1785286" lon="10.255662"><ele>377.75</ele><time>2026-04-26T10:38:30.681Z</time></trkpt><trkpt lat="33.1785076" lon="10.2558254"><ele>376.5</ele><time>2026-04-26T10:38:31.71Z</time></trkpt><trkpt lat="33.1784845" lon="10.2559961"><ele>375.25</ele><time>2026-04-26T10:38:32.696Z</time></trkpt><trkpt lat="33.1784655" lon="10.2561624"><ele>374.0</ele><time>2026-04-26T10:38:33.717Z</time></trkpt><trkpt lat="33.1784495" lon="10.2563222"><ele>372.25</ele><time>2026-04-26T10:38:34.719Z</time></trkpt><trkpt lat="33.1784293" lon="10.2564729"><ele>370.5</ele><time>2026-04-26T10:38:35.694Z</time></trkpt><trkpt lat="33.1784105" lon="10.2566176"><ele>368.75</ele><time>2026-04-26T10:38:36.706Z</time></trkpt><trkpt lat="33.1783954" lon="10.2567597"><ele>367.0</ele><time>2026-04-26T10:38:37.726Z</time></trkpt><trkpt lat="33.1783786" lon="10.2569034"><ele>367.0</ele><time>2026-04-26T10:38:38.685Z</time></trkpt><trkpt lat="33.1783532" lon="10.2570365"><ele>367.0</ele><time>2026-04-26T10:38:39.706Z</time></trkpt><trkpt lat="33.1783145" lon="10.2571583"><ele>367.0</ele><time>2026-04-26T10:38:40.713Z</time></trkpt><trkpt lat="33.1782635" lon="10.2572661"><ele>367.0</ele><time>2026-04-26T10:38:41.744Z</time></trkpt><trkpt lat="33.1781796" lon="10.2573511"><ele>367.0</ele><time>2026-04-26T10:38:42.711Z</time></trkpt><trkpt lat="33.1780777" lon="10.2574128"><ele>364.5</ele><time>2026-04-26T10:38:43.709Z</time></trkpt><trkpt lat="33.1779673" lon="10.2574659"><ele>362.0</ele><time>2026-04-26T10:38:44.713Z</time></trkpt><trkpt lat="33.1778498" lon="10.2575048"><ele>359.5</ele><time>2026-04-26T10:38:45.71Z</time></trkpt><trkpt lat="33.1777202" lon="10.2575485"><ele>357.0</ele><time>2026-04-26T10:38:46.717Z</time></trkpt><trkpt lat="33.1775628" lon="10.2575842"><ele>357.0</ele><time>2026-04-26T10:38:47.714Z</time></trkpt><trkpt lat="33.177395" lon="10.2576185"><ele>357.0</ele><time>2026-04-26T10:38:48.726Z</time></trkpt><trkpt lat="33.1772133" lon="10.2576422"><ele>357.0</ele><time>2026-04-26T10:38:49.723Z</time></trkpt><trkpt lat="33.1770381" lon="10.2576591"><ele>356.3333333333333</ele><time>2026-04-26T10:38:50.714Z</time></trkpt><trkpt lat="33.1768408" lon="10.2576712"><ele>355.66666666666663</ele><time>2026-04-26T10:38:51.69Z</time></trkpt><trkpt lat="33.1766114" lon="10.2576549"><ele>355.0</ele><time>2026-04-26T10:38:52.714Z</time></trkpt><trkpt lat="33.1763794" lon="10.2576035"><ele>353.66666666666663</ele><time>2026-04-26T10:38:53.713Z</time></trkpt><trkpt lat="33.1761588" lon="10.257545"><ele>352.3333333333333</ele><time>2026-04-26T10:38:54.71Z</time></trkpt><trkpt lat="33.1759639" lon="10.257485"><ele>351.0</ele><time>2026-04-26T10:38:55.719Z</time></trkpt><trkpt lat="33.175785" lon="10.257436"><ele>351.0</ele><time>2026-04-26T10:38:56.674Z</time></trkpt><trkpt lat="33.1756213" lon="10.2573856"><ele>351.0</ele><time>2026-04-26T10:38:57.695Z</time></trkpt><trkpt lat="33.175457" lon="10.2573463"><ele>351.0</ele><time>2026-04-26T10:38:58.664Z</time></trkpt><trkpt lat="33.1752778" lon="10.257309"><ele>351.0</ele><time>2026-04-26T10:38:59.672Z</time></trkpt><trkpt lat="33.1750925" lon="10.2572855"><ele>351.0</ele><time>2026-04-26T10:39:00.668Z</time></trkpt><trkpt lat="33.1748927" lon="10.2572868"><ele>351.0</ele><time>2026-04-26T10:39:01.662Z</time></trkpt><trkpt lat="33.1746775" lon="10.2573156"><ele>350.5</ele><time>2026-04-26T10:39:02.664Z</time></trkpt><trkpt lat="33.1744363" lon="10.2573587"><ele>350.0</ele><time>2026-04-26T10:39:03.661Z</time></trkpt><trkpt lat="33.1741555" lon="10.2573977"><ele>351.0</ele><time>2026-04-26T10:39:04.663Z</time></trkpt><trkpt lat="33.1738704" lon="10.2574317"><ele>352.0</ele><time>2026-04-26T10:39:05.666Z</time></trkpt><trkpt lat="33.1736038" lon="10.2574648"><ele>352.0</ele><time>2026-04-26T10:39:06.671Z</time></trkpt><trkpt lat="33.1733591" lon="10.2574935"><ele>352.0</ele><time>2026-04-26T10:39:07.674Z</time></trkpt><trkpt lat="33.1731325" lon="10.2575304"><ele>353.3333333333333</ele><time>2026-04-26T10:39:08.659Z</time></trkpt><trkpt lat="33.1729242" lon="10.2575644"><ele>354.6666666666667</ele><time>2026-04-26T10:39:09.66Z</time></trkpt><trkpt lat="33.172721" lon="10.2575952"><ele>356.0</ele><time>2026-04-26T10:39:10.672Z</time></trkpt><trkpt lat="33.1725006" lon="10.2576298"><ele>354.5</ele><time>2026-04-26T10:39:11.662Z</time></trkpt><trkpt lat="33.1722449" lon="10.2576728"><ele>353.0</ele><time>2026-04-26T10:39:12.666Z</time></trkpt><trkpt lat="33.1719884" lon="10.2577085"><ele>353.0</ele><time>2026-04-26T10:39:13.668Z</time></trkpt><trkpt lat="33.1717564" lon="10.2577395"><ele>353.0</ele><time>2026-04-26T10:39:14.664Z</time></trkpt><trkpt lat="33.171575" lon="10.257778"><ele>353.0</ele><time>2026-04-26T10:39:15.667Z</time></trkpt><trkpt lat="33.1714012" lon="10.2578255"><ele>353.0</ele><time>2026-04-26T10:39:16.67Z</time></trkpt><trkpt lat="33.1712136" lon="10.2578972"><ele>353.0</ele><time>2026-04-26T10:39:17.673Z</time></trkpt><trkpt lat="33.1710117" lon="10.2580098"><ele>353.0</ele><time>2026-04-26T10:39:18.665Z</time></trkpt><trkpt lat="33.1707704" lon="10.2581516"><ele>353.5</ele><time>2026-04-26T10:39:19.678Z</time></trkpt><trkpt lat="33.1705333" lon="10.2583158"><ele>354.0</ele><time>2026-04-26T10:39:20.669Z</time></trkpt><trkpt lat="33.1703162" lon="10.258446"><ele>354.0</ele><time>2026-04-26T10:39:21.676Z</time></trkpt><trkpt lat="33.1701151" lon="10.258564"><ele>354.0</ele><time>2026-04-26T10:39:22.67Z</time></trkpt><trkpt lat="33.1699381" lon="10.2586728"><ele>354.0</ele><time>2026-04-26T10:39:23.67Z</time></trkpt><trkpt lat="33.1697663" lon="10.2587801"><ele>354.3333333333333</ele><time>2026-04-26T10:39:24.67Z</time></trkpt><trkpt lat="33.1696215" lon="10.2588846"><ele>354.66666666666663</ele><time>2026-04-26T10:39:25.677Z</time></trkpt><trkpt lat="33.1694853" lon="10.2589809"><ele>355.0</ele><time>2026-04-26T10:39:26.672Z</time></trkpt><trkpt lat="33.1693553" lon="10.2590777"><ele>355.0</ele><time>2026-04-26T10:39:27.669Z</time></trkpt><trkpt lat="33.1692316" lon="10.2591704"><ele>355.0</ele><time>2026-04-26T10:39:28.662Z</time></trkpt><trkpt lat="33.1691078" lon="10.2592628"><ele>355.0</ele><time>2026-04-26T10:39:29.671Z</time></trkpt><trkpt lat="33.168997" lon="10.2593839"><ele>355.0</ele><time>2026-04-26T10:39:30.671Z</time></trkpt><trkpt lat="33.1689036" lon="10.2595569"><ele>353.5</ele><time>2026-04-26T10:39:31.662Z</time></trkpt><trkpt lat="33.1688006" lon="10.2598001"><ele>352.0</ele><time>2026-04-26T10:39:32.655Z</time></trkpt><trkpt lat="33.1686891" lon="10.260052"><ele>352.0</ele><time>2026-04-26T10:39:33.673Z</time></trkpt><trkpt lat="33.1685612" lon="10.2603501"><ele>352.0</ele><time>2026-04-26T10:39:34.679Z</time></trkpt><trkpt lat="33.1684343" lon="10.2606268"><ele>353.0</ele><time>2026-04-26T10:39:35.672Z</time></trkpt><trkpt lat="33.1683113" lon="10.2608928"><ele>354.0</ele><time>2026-04-26T10:39:36.677Z</time></trkpt><trkpt lat="33.1682045" lon="10.2611225"><ele>351.6666666666667</ele><time>2026-04-26T10:39:37.67Z</time></trkpt><trkpt lat="33.1681132" lon="10.2613554"><ele>349.33333333333337</ele><time>2026-04-26T10:39:38.669Z</time></trkpt><trkpt lat="33.1680228" lon="10.2615904"><ele>347.0</ele><time>2026-04-26T10:39:39.659Z</time></trkpt><trkpt lat="33.167937" lon="10.2618375"><ele>347.0</ele><time>2026-04-26T10:39:40.67Z</time></trkpt><trkpt lat="33.1678648" lon="10.2620653"><ele>347.0</ele><time>2026-04-26T10:39:41.666Z</time></trkpt><trkpt lat="33.1678112" lon="10.2622763"><ele>347.0</ele><time>2026-04-26T10:39:42.668Z</time></trkpt><trkpt lat="33.1677622" lon="10.2624788"><ele>347.0</ele><time>2026-04-26T10:39:43.671Z</time></trkpt><trkpt lat="33.1677288" lon="10.2626872"><ele>347.0</ele><time>2026-04-26T10:39:44.664Z</time></trkpt><trkpt lat="33.1677118" lon="10.2629017"><ele>347.0</ele><time>2026-04-26T10:39:45.678Z</time></trkpt><trkpt lat="33.1677076" lon="10.2631181"><ele>345.6666666666667</ele><time>2026-04-26T10:39:46.672Z</time></trkpt><trkpt lat="33.1677016" lon="10.2633338"><ele>344.3333333333333</ele><time>2026-04-26T10:39:47.67Z</time></trkpt><trkpt lat="33.1677084" lon="10.2635469"><ele>343.0</ele><time>2026-04-26T10:39:48.667Z</time></trkpt><trkpt lat="33.167721" lon="10.2637616"><ele>343.66666666666663</ele><time>2026-04-26T10:39:49.658Z</time></trkpt><trkpt lat="33.1677421" lon="10.2639717"><ele>344.3333333333333</ele><time>2026-04-26T10:39:50.66Z</time></trkpt><trkpt lat="33.167767" lon="10.2641828"><ele>345.0</ele><time>2026-04-26T10:39:51.665Z</time></trkpt><trkpt lat="33.1677917" lon="10.2643877"><ele>345.0</ele><time>2026-04-26T10:39:52.653Z</time></trkpt><trkpt lat="33.1678118" lon="10.2645987"><ele>345.0</ele><time>2026-04-26T10:39:53.668Z</time></trkpt><trkpt lat="33.1678293" lon="10.2648136"><ele>345.0</ele><time>2026-04-26T10:39:54.679Z</time></trkpt><trkpt lat="33.1678276" lon="10.2650203"><ele>346.0</ele><time>2026-04-26T10:39:55.667Z</time></trkpt><trkpt lat="33.1678038" lon="10.2652223"><ele>347.0</ele><time>2026-04-26T10:39:56.664Z</time></trkpt><trkpt lat="33.1677658" lon="10.2654043"><ele>348.0</ele><time>2026-04-26T10:39:57.664Z</time></trkpt><trkpt lat="33.1677078" lon="10.2655642"><ele>346.25</ele><time>2026-04-26T10:39:58.667Z</time></trkpt><trkpt lat="33.1676332" lon="10.2657103"><ele>344.5</ele><time>2026-04-26T10:39:59.663Z</time></trkpt><trkpt lat="33.1675466" lon="10.2658415"><ele>342.75</ele><time>2026-04-26T10:40:00.654Z</time></trkpt><trkpt lat="33.1674581" lon="10.2659563"><ele>341.0</ele><time>2026-04-26T10:40:01.661Z</time></trkpt><trkpt lat="33.1673711" lon="10.2660711"><ele>340.75</ele><time>2026-04-26T10:40:02.663Z</time></trkpt><trkpt lat="33.1672761" lon="10.2661961"><ele>340.5</ele><time>2026-04-26T10:40:03.665Z</time></trkpt><trkpt lat="33.1671815" lon="10.2663202"><ele>340.25</ele><time>2026-04-26T10:40:04.667Z</time></trkpt><trkpt lat="33.1670811" lon="10.2664471"><ele>340.0</ele><time>2026-04-26T10:40:05.665Z</time></trkpt><trkpt lat="33.1669794" lon="10.2665786"><ele>339.66666666666663</ele><time>2026-04-26T10:40:06.668Z</time></trkpt><trkpt lat="33.1668785" lon="10.2667132"><ele>339.3333333333333</ele><time>2026-04-26T10:40:07.666Z</time></trkpt><trkpt lat="33.1667726" lon="10.2668572"><ele>339.0</ele><time>2026-04-26T10:40:08.66Z</time></trkpt><trkpt lat="33.1666603" lon="10.267009"><ele>339.0</ele><time>2026-04-26T10:40:09.676Z</time></trkpt><trkpt lat="33.1665488" lon="10.2671546"><ele>339.0</ele><time>2026-04-26T10:40:10.675Z</time></trkpt><trkpt lat="33.1664428" lon="10.2672957"><ele>339.0</ele><time>2026-04-26T10:40:11.663Z</time></trkpt><trkpt lat="33.1663365" lon="10.2674337"><ele>339.0</ele><time>2026-04-26T10:40:12.673Z</time></trkpt><trkpt lat="33.1662186" lon="10.2675638"><ele>339.0</ele><time>2026-04-26T10:40:13.662Z</time></trkpt><trkpt lat="33.1660636" lon="10.2676701"><ele>339.0</ele><time>2026-04-26T10:40:14.672Z</time></trkpt><trkpt lat="33.1658633" lon="10.2677709"><ele>339.0</ele><time>2026-04-26T10:40:15.667Z</time></trkpt><trkpt lat="33.1656226" lon="10.2678715"><ele>339.0</ele><time>2026-04-26T10:40:16.671Z</time></trkpt><trkpt lat="33.1653838" lon="10.2679697"><ele>339.0</ele><time>2026-04-26T10:40:17.673Z</time></trkpt><trkpt lat="33.1651674" lon="10.2680592"><ele>339.0</ele><time>2026-04-26T10:40:18.673Z</time></trkpt><trkpt lat="33.1649821" lon="10.2681481"><ele>339.0</ele><time>2026-04-26T10:40:19.666Z</time></trkpt><trkpt lat="33.1648212" lon="10.2682224"><ele>340.25</ele><time>2026-04-26T10:40:20.664Z</time></trkpt><trkpt lat="33.1646784" lon="10.2683133"><ele>341.5</ele><time>2026-04-26T10:40:21.665Z</time></trkpt><trkpt lat="33.164607" lon="10.2684239"><ele>342.75</ele><time>2026-04-26T10:40:22.667Z</time></trkpt><trkpt lat="33.1645804" lon="10.2685551"><ele>344.0</ele><time>2026-04-26T10:40:23.68Z</time></trkpt><trkpt lat="33.1645849" lon="10.2686989"><ele>344.0</ele><time>2026-04-26T10:40:24.676Z</time></trkpt><trkpt lat="33.1646444" lon="10.2688562"><ele>344.0</ele><time>2026-04-26T10:40:25.667Z</time></trkpt><trkpt lat="33.1647341" lon="10.2690213"><ele>344.0</ele><time>2026-04-26T10:40:26.671Z</time></trkpt><trkpt lat="33.1648165" lon="10.2691834"><ele>344.0</ele><time>2026-04-26T10:40:27.671Z</time></trkpt><trkpt lat="33.1648691" lon="10.2693397"><ele>344.0</ele><time>2026-04-26T10:40:28.669Z</time></trkpt><trkpt lat="33.1648795" lon="10.2695447"><ele>344.0</ele><time>2026-04-26T10:40:29.676Z</time></trkpt><trkpt lat="33.1648664" lon="10.2697957"><ele>350.33333333333337</ele><time>2026-04-26T10:40:30.672Z</time></trkpt><trkpt lat="33.1648485" lon="10.270035"><ele>356.6666666666667</ele><time>2026-04-26T10:40:31.67Z</time></trkpt><trkpt lat="33.1648133" lon="10.2702467"><ele>363.0</ele><time>2026-04-26T10:40:32.666Z</time></trkpt><trkpt lat="33.1647489" lon="10.2704589"><ele>364.6666666666667</ele><time>2026-04-26T10:40:33.665Z</time></trkpt><trkpt lat="33.1646534" lon="10.2706863"><ele>366.33333333333337</ele><time>2026-04-26T10:40:34.671Z</time></trkpt><trkpt lat="33.1645368" lon="10.2709197"><ele>368.0</ele><time>2026-04-26T10:40:35.667Z</time></trkpt><trkpt lat="33.1644304" lon="10.2711409"><ele>368.0</ele><time>2026-04-26T10:40:36.671Z</time></trkpt><trkpt lat="33.1643342" lon="10.2713464"><ele>368.0</ele><time>2026-04-26T10:40:37.67Z</time></trkpt><trkpt lat="33.1642692" lon="10.2715353"><ele>368.0</ele><time>2026-04-26T10:40:38.658Z</time></trkpt><trkpt lat="33.1642206" lon="10.271704"><ele>369.0</ele><time>2026-04-26T10:40:39.664Z</time></trkpt><trkpt lat="33.164187" lon="10.271855"><ele>370.0</ele><time>2026-04-26T10:40:40.659Z</time></trkpt><trkpt lat="33.1641466" lon="10.2720008"><ele>371.0</ele><time>2026-04-26T10:40:41.671Z</time></trkpt><trkpt lat="33.1640924" lon="10.2721238"><ele>372.0</ele><time>2026-04-26T10:40:42.676Z</time></trkpt><trkpt lat="33.164021" lon="10.2722207"><ele>371.25</ele><time>2026-04-26T10:40:43.665Z</time></trkpt><trkpt lat="33.1639286" lon="10.2723067"><ele>370.5</ele><time>2026-04-26T10:40:44.661Z</time></trkpt><trkpt lat="33.1638055" lon="10.2723875"><ele>369.75</ele><time>2026-04-26T10:40:45.668Z</time></trkpt><trkpt lat="33.1636743" lon="10.2724341"><ele>369.0</ele><time>2026-04-26T10:40:46.671Z</time></trkpt><trkpt lat="33.1635249" lon="10.2724852"><ele>369.0</ele><time>2026-04-26T10:40:47.669Z</time></trkpt><trkpt lat="33.1633758" lon="10.2725583"><ele>369.0</ele><time>2026-04-26T10:40:48.665Z</time></trkpt><trkpt lat="33.1632307" lon="10.2726638"><ele>369.0</ele><time>2026-04-26T10:40:49.663Z</time></trkpt><trkpt lat="33.1630773" lon="10.2728204"><ele>370.3333333333333</ele><time>2026-04-26T10:40:50.671Z</time></trkpt><trkpt lat="33.1629253" lon="10.273013"><ele>371.66666666666663</ele><time>2026-04-26T10:40:51.667Z</time></trkpt><trkpt lat="33.1627689" lon="10.2732049"><ele>373.0</ele><time>2026-04-26T10:40:52.661Z</time></trkpt><trkpt lat="33.1626163" lon="10.2733594"><ele>373.0</ele><time>2026-04-26T10:40:53.661Z</time></trkpt><trkpt lat="33.1624891" lon="10.2735132"><ele>373.0</ele><time>2026-04-26T10:40:54.666Z</time></trkpt><trkpt lat="33.1623977" lon="10.2736636"><ele>373.0</ele><time>2026-04-26T10:40:55.674Z</time></trkpt><trkpt lat="33.162317" lon="10.2738003"><ele>373.79999999999995</ele><time>2026-04-26T10:40:56.666Z</time></trkpt><trkpt lat="33.162259" lon="10.2739192"><ele>374.6</ele><time>2026-04-26T10:40:57.673Z</time></trkpt><trkpt lat="33.1622044" lon="10.2740352"><ele>375.4</ele><time>2026-04-26T10:40:58.663Z</time></trkpt><trkpt lat="33.1621464" lon="10.274135"><ele>376.20000000000005</ele><time>2026-04-26T10:40:59.661Z</time></trkpt><trkpt lat="33.1620818" lon="10.2742317"><ele>377.0</ele><time>2026-04-26T10:41:00.66Z</time></trkpt><trkpt lat="33.1619999" lon="10.2743189"><ele>377.75</ele><time>2026-04-26T10:41:01.658Z</time></trkpt><trkpt lat="33.1619189" lon="10.2744046"><ele>378.5</ele><time>2026-04-26T10:41:02.668Z</time></trkpt><trkpt lat="33.1618283" lon="10.2744868"><ele>379.25</ele><time>2026-04-26T10:41:03.667Z</time></trkpt><trkpt lat="33.1617289" lon="10.2745661"><ele>380.0</ele><time>2026-04-26T10:41:04.666Z</time></trkpt><trkpt lat="33.1616279" lon="10.2746421"><ele>378.5</ele><time>2026-04-26T10:41:05.665Z</time></trkpt><trkpt lat="33.1615291" lon="10.2747195"><ele>377.0</ele><time>2026-04-26T10:41:06.658Z</time></trkpt><trkpt lat="33.1614308" lon="10.2748053"><ele>375.5</ele><time>2026-04-26T10:41:07.665Z</time></trkpt><trkpt lat="33.1613482" lon="10.2748998"><ele>374.0</ele><time>2026-04-26T10:41:08.675Z</time></trkpt><trkpt lat="33.1612783" lon="10.2750069"><ele>374.0</ele><time>2026-04-26T10:41:09.676Z</time></trkpt><trkpt lat="33.1612278" lon="10.2751218"><ele>374.0</ele><time>2026-04-26T10:41:10.665Z</time></trkpt><trkpt lat="33.1611869" lon="10.2752448"><ele>374.0</ele><time>2026-04-26T10:41:11.663Z</time></trkpt><trkpt lat="33.1611376" lon="10.2753644"><ele>374.0</ele><time>2026-04-26T10:41:12.653Z</time></trkpt><trkpt lat="33.1610944" lon="10.2754876"><ele>374.0</ele><time>2026-04-26T10:41:13.658Z</time></trkpt><trkpt lat="33.1610406" lon="10.2756097"><ele>375.0</ele><time>2026-04-26T10:41:14.662Z</time></trkpt><trkpt lat="33.1609768" lon="10.2757203"><ele>376.0</ele><time>2026-04-26T10:41:15.669Z</time></trkpt><trkpt lat="33.1608916" lon="10.2758203"><ele>377.0</ele><time>2026-04-26T10:41:16.668Z</time></trkpt><trkpt lat="33.1607912" lon="10.2759119"><ele>378.0</ele><time>2026-04-26T10:41:17.674Z</time></trkpt><trkpt lat="33.1606917" lon="10.2759987"><ele>378.25</ele><time>2026-04-26T10:41:18.664Z</time></trkpt><trkpt lat="33.1605835" lon="10.2760785"><ele>378.5</ele><time>2026-04-26T10:41:19.655Z</time></trkpt><trkpt lat="33.1604801" lon="10.2761564"><ele>378.75</ele><time>2026-04-26T10:41:20.66Z</time></trkpt><trkpt lat="33.1603715" lon="10.276239"><ele>379.0</ele><time>2026-04-26T10:41:21.662Z</time></trkpt><trkpt lat="33.1602553" lon="10.2763274"><ele>379.0</ele><time>2026-04-26T10:41:22.665Z</time></trkpt><trkpt lat="33.1601374" lon="10.2764225"><ele>379.0</ele><time>2026-04-26T10:41:23.668Z</time></trkpt><trkpt lat="33.1600201" lon="10.2765192"><ele>379.0</ele><time>2026-04-26T10:41:24.663Z</time></trkpt><trkpt lat="33.1599082" lon="10.276607"><ele>379.0</ele><time>2026-04-26T10:41:25.67Z</time></trkpt><trkpt lat="33.1598013" lon="10.2767002"><ele>380.0</ele><time>2026-04-26T10:41:26.671Z</time></trkpt><trkpt lat="33.1596877" lon="10.2767909"><ele>381.0</ele><time>2026-04-26T10:41:27.666Z</time></trkpt><trkpt lat="33.1595777" lon="10.2768845"><ele>382.0</ele><time>2026-04-26T10:41:28.668Z</time></trkpt><trkpt lat="33.1594682" lon="10.276976"><ele>383.0</ele><time>2026-04-26T10:41:29.67Z</time></trkpt><trkpt lat="33.1593624" lon="10.2770704"><ele>383.0</ele><time>2026-04-26T10:41:30.659Z</time></trkpt><trkpt lat="33.1592567" lon="10.2771587"><ele>383.0</ele><time>2026-04-26T10:41:31.668Z</time></trkpt><trkpt lat="33.1591563" lon="10.2772454"><ele>383.0</ele><time>2026-04-26T10:41:32.675Z</time></trkpt><trkpt lat="33.159055" lon="10.2773388"><ele>383.0</ele><time>2026-04-26T10:41:33.667Z</time></trkpt><trkpt lat="33.1589526" lon="10.2774287"><ele>384.75</ele><time>2026-04-26T10:41:34.681Z</time></trkpt><trkpt lat="33.1588505" lon="10.2775223"><ele>386.5</ele><time>2026-04-26T10:41:35.683Z</time></trkpt><trkpt lat="33.1587501" lon="10.2776171"><ele>388.25</ele><time>2026-04-26T10:41:36.674Z</time></trkpt><trkpt lat="33.1586502" lon="10.2777145"><ele>390.0</ele><time>2026-04-26T10:41:37.668Z</time></trkpt><trkpt lat="33.1585538" lon="10.2778188"><ele>390.0</ele><time>2026-04-26T10:41:38.661Z</time></trkpt><trkpt lat="33.1584608" lon="10.2779307"><ele>390.0</ele><time>2026-04-26T10:41:39.663Z</time></trkpt><trkpt lat="33.1583756" lon="10.278044"><ele>390.0</ele><time>2026-04-26T10:41:40.666Z</time></trkpt><trkpt lat="33.1582991" lon="10.2781753"><ele>390.0</ele><time>2026-04-26T10:41:41.655Z</time></trkpt><trkpt lat="33.1582274" lon="10.278308"><ele>387.5</ele><time>2026-04-26T10:41:42.656Z</time></trkpt><trkpt lat="33.1581567" lon="10.2784461"><ele>385.0</ele><time>2026-04-26T10:41:43.666Z</time></trkpt><trkpt lat="33.158085" lon="10.2785875"><ele>382.5</ele><time>2026-04-26T10:41:44.658Z</time></trkpt><trkpt lat="33.158014" lon="10.2787358"><ele>380.0</ele><time>2026-04-26T10:41:45.677Z</time></trkpt><trkpt lat="33.1579371" lon="10.2788755"><ele>382.5</ele><time>2026-04-26T10:41:46.667Z</time></trkpt><trkpt lat="33.157862" lon="10.27901"><ele>385.0</ele><time>2026-04-26T10:41:47.659Z</time></trkpt><trkpt lat="33.1577879" lon="10.2791484"><ele>387.5</ele><time>2026-04-26T10:41:48.666Z</time></trkpt><trkpt lat="33.1577161" lon="10.2792914"><ele>390.0</ele><time>2026-04-26T10:41:49.673Z</time></trkpt><trkpt lat="33.1576395" lon="10.2794323"><ele>390.0</ele><time>2026-04-26T10:41:50.659Z</time></trkpt><trkpt lat="33.1575643" lon="10.2795724"><ele>390.0</ele><time>2026-04-26T10:41:51.668Z</time></trkpt><trkpt lat="33.1574867" lon="10.2797113"><ele>390.0</ele><time>2026-04-26T10:41:52.671Z</time></trkpt><trkpt lat="33.1574063" lon="10.2798429"><ele>390.0</ele><time>2026-04-26T10:41:53.659Z</time></trkpt><trkpt lat="33.1573255" lon="10.2799727"><ele>390.75</ele><time>2026-04-26T10:41:54.671Z</time></trkpt><trkpt lat="33.1572435" lon="10.28009"><ele>391.5</ele><time>2026-04-26T10:41:55.675Z</time></trkpt><trkpt lat="33.157154" lon="10.2801944"><ele>392.25</ele><time>2026-04-26T10:41:56.667Z</time></trkpt><trkpt lat="33.1570593" lon="10.2802842"><ele>393.0</ele><time>2026-04-26T10:41:57.669Z</time></trkpt><trkpt lat="33.1569499" lon="10.2803503"><ele>393.0</ele><time>2026-04-26T10:41:58.656Z</time></trkpt><trkpt lat="33.1568272" lon="10.2803964"><ele>393.0</ele><time>2026-04-26T10:41:59.666Z</time></trkpt><trkpt lat="33.156701" lon="10.2804226"><ele>393.0</ele><time>2026-04-26T10:42:00.665Z</time></trkpt><trkpt lat="33.1565781" lon="10.280432"><ele>393.0</ele><time>2026-04-26T10:42:01.672Z</time></trkpt><trkpt lat="33.1564614" lon="10.280456"><ele>392.75</ele><time>2026-04-26T10:42:02.664Z</time></trkpt><trkpt lat="33.1563325" lon="10.2804842"><ele>392.5</ele><time>2026-04-26T10:42:03.672Z</time></trkpt><trkpt lat="33.1562108" lon="10.2805248"><ele>392.25</ele><time>2026-04-26T10:42:04.66Z</time></trkpt><trkpt lat="33.1560921" lon="10.2805912"><ele>392.0</ele><time>2026-04-26T10:42:05.669Z</time></trkpt><trkpt lat="33.1559751" lon="10.2806609"><ele>392.0</ele><time>2026-04-26T10:42:06.667Z</time></trkpt><trkpt lat="33.1558684" lon="10.2807479"><ele>392.0</ele><time>2026-04-26T10:42:07.668Z</time></trkpt><trkpt lat="33.1557567" lon="10.2808313"><ele>392.0</ele><time>2026-04-26T10:42:08.674Z</time></trkpt><trkpt lat="33.1556496" lon="10.2809137"><ele>392.0</ele><time>2026-04-26T10:42:09.682Z</time></trkpt><trkpt lat="33.1555411" lon="10.280997"><ele>390.25</ele><time>2026-04-26T10:42:10.661Z</time></trkpt><trkpt lat="33.1554406" lon="10.2810781"><ele>388.5</ele><time>2026-04-26T10:42:11.662Z</time></trkpt><trkpt lat="33.1553403" lon="10.2811567"><ele>386.75</ele><time>2026-04-26T10:42:12.668Z</time></trkpt><trkpt lat="33.1552404" lon="10.281233"><ele>385.0</ele><time>2026-04-26T10:42:13.659Z</time></trkpt><trkpt lat="33.1551311" lon="10.2812674"><ele>385.0</ele><time>2026-04-26T10:42:14.653Z</time></trkpt><trkpt lat="33.1550392" lon="10.2812372"><ele>385.0</ele><time>2026-04-26T10:42:15.676Z</time></trkpt><trkpt lat="33.1549449" lon="10.2811881"><ele>385.0</ele><time>2026-04-26T10:42:16.667Z</time></trkpt><trkpt lat="33.154849" lon="10.2811172"><ele>385.0</ele><time>2026-04-26T10:42:17.676Z</time></trkpt><trkpt lat="33.1547547" lon="10.2810295"><ele>385.0</ele><time>2026-04-26T10:42:18.66Z</time></trkpt><trkpt lat="33.1546674" lon="10.2809459"><ele>384.2</ele><time>2026-04-26T10:42:19.663Z</time></trkpt><trkpt lat="33.1545715" lon="10.280887"><ele>383.4</ele><time>2026-04-26T10:42:20.66Z</time></trkpt><trkpt lat="33.1544798" lon="10.2808409"><ele>382.6</ele><time>2026-04-26T10:42:21.666Z</time></trkpt><trkpt lat="33.1543941" lon="10.2808405"><ele>381.8</ele><time>2026-04-26T10:42:22.669Z</time></trkpt><trkpt lat="33.1542986" lon="10.2808721"><ele>381.0</ele><time>2026-04-26T10:42:23.673Z</time></trkpt><trkpt lat="33.154221" lon="10.2809115"><ele>381.0</ele><time>2026-04-26T10:42:24.674Z</time></trkpt><trkpt lat="33.1541418" lon="10.2809552"><ele>381.0</ele><time>2026-04-26T10:42:25.663Z</time></trkpt><trkpt lat="33.1540662" lon="10.2810126"><ele>381.0</ele><time>2026-04-26T10:42:26.668Z</time></trkpt><trkpt lat="33.1539805" lon="10.281066"><ele>381.0</ele><time>2026-04-26T10:42:27.672Z</time></trkpt><trkpt lat="33.1538999" lon="10.2811297"><ele>381.0</ele><time>2026-04-26T10:42:28.674Z</time></trkpt><trkpt lat="33.1538178" lon="10.2811923"><ele>380.0</ele><time>2026-04-26T10:42:29.67Z</time></trkpt><trkpt lat="33.1537312" lon="10.2812728"><ele>379.0</ele><time>2026-04-26T10:42:30.67Z</time></trkpt><trkpt lat="33.1536422" lon="10.2813624"><ele>378.0</ele><time>2026-04-26T10:42:31.669Z</time></trkpt><trkpt lat="33.1535516" lon="10.2814616"><ele>377.0</ele><time>2026-04-26T10:42:32.671Z</time></trkpt><trkpt lat="33.1534659" lon="10.2815844"><ele>379.25</ele><time>2026-04-26T10:42:33.663Z</time></trkpt><trkpt lat="33.1533927" lon="10.2817211"><ele>381.5</ele><time>2026-04-26T10:42:34.672Z</time></trkpt><trkpt lat="33.1533379" lon="10.281859"><ele>383.75</ele><time>2026-04-26T10:42:35.674Z</time></trkpt><trkpt lat="33.1532997" lon="10.2820038"><ele>386.0</ele><time>2026-04-26T10:42:36.67Z</time></trkpt><trkpt lat="33.1532879" lon="10.282152"><ele>386.25</ele><time>2026-04-26T10:42:37.672Z</time></trkpt><trkpt lat="33.1533043" lon="10.282308"><ele>386.5</ele><time>2026-04-26T10:42:38.673Z</time></trkpt><trkpt lat="33.1533263" lon="10.2824518"><ele>386.75</ele><time>2026-04-26T10:42:39.665Z</time></trkpt><trkpt lat="33.1533385" lon="10.282588"><ele>387.0</ele><time>2026-04-26T10:42:40.663Z</time></trkpt><trkpt lat="33.1533338" lon="10.2827202"><ele>387.0</ele><time>2026-04-26T10:42:41.669Z</time></trkpt><trkpt lat="33.1533135" lon="10.2828581"><ele>387.0</ele><time>2026-04-26T10:42:42.67Z</time></trkpt><trkpt lat="33.15323" lon="10.2829854"><ele>387.0</ele><time>2026-04-26T10:42:43.655Z</time></trkpt><trkpt lat="33.1530949" lon="10.283095"><ele>387.0</ele><time>2026-04-26T10:42:44.672Z</time></trkpt><trkpt lat="33.1529314" lon="10.2831947"><ele>388.66666666666663</ele><time>2026-04-26T10:42:45.687Z</time></trkpt><trkpt lat="33.152754" lon="10.2833056"><ele>390.3333333333333</ele><time>2026-04-26T10:42:46.67Z</time></trkpt><trkpt lat="33.1525529" lon="10.2834042"><ele>392.0</ele><time>2026-04-26T10:42:47.657Z</time></trkpt><trkpt lat="33.1523259" lon="10.2835336"><ele>394.5</ele><time>2026-04-26T10:42:48.669Z</time></trkpt><trkpt lat="33.1520988" lon="10.2836612"><ele>397.0</ele><time>2026-04-26T10:42:49.674Z</time></trkpt><trkpt lat="33.1519049" lon="10.283767"><ele>397.0</ele><time>2026-04-26T10:42:50.674Z</time></trkpt><trkpt lat="33.1517485" lon="10.2838863"><ele>397.0</ele><time>2026-04-26T10:42:51.668Z</time></trkpt><trkpt lat="33.1516009" lon="10.2840091"><ele>397.0</ele><time>2026-04-26T10:42:52.661Z</time></trkpt><trkpt lat="33.1514678" lon="10.2841277"><ele>398.33333333333337</ele><time>2026-04-26T10:42:53.689Z</time></trkpt><trkpt lat="33.1513404" lon="10.2842394"><ele>399.66666666666663</ele><time>2026-04-26T10:42:54.661Z</time></trkpt><trkpt lat="33.151227" lon="10.2843626"><ele>401.0</ele><time>2026-04-26T10:42:55.679Z</time></trkpt><trkpt lat="33.151134" lon="10.2845022"><ele>401.0</ele><time>2026-04-26T10:42:56.658Z</time></trkpt><trkpt lat="33.151053" lon="10.2846607"><ele>401.0</ele><time>2026-04-26T10:42:57.665Z</time></trkpt><trkpt lat="33.1509901" lon="10.2848331"><ele>401.0</ele><time>2026-04-26T10:42:58.659Z</time></trkpt><trkpt lat="33.1509295" lon="10.2850021"><ele>400.66666666666663</ele><time>2026-04-26T10:42:59.664Z</time></trkpt><trkpt lat="33.1508645" lon="10.285174"><ele>400.33333333333337</ele><time>2026-04-26T10:43:00.65Z</time></trkpt><trkpt lat="33.1507917" lon="10.2853601"><ele>400.0</ele><time>2026-04-26T10:43:01.668Z</time></trkpt><trkpt lat="33.1507203" lon="10.2855468"><ele>402.6666666666667</ele><time>2026-04-26T10:43:02.659Z</time></trkpt><trkpt lat="33.1506496" lon="10.2857402"><ele>405.33333333333337</ele><time>2026-04-26T10:43:03.671Z</time></trkpt><trkpt lat="33.1505828" lon="10.2859331"><ele>408.0</ele><time>2026-04-26T10:43:04.669Z</time></trkpt><trkpt lat="33.1505216" lon="10.2861033"><ele>408.0</ele><time>2026-04-26T10:43:05.667Z</time></trkpt><trkpt lat="33.1504521" lon="10.2862711"><ele>408.0</ele><time>2026-04-26T10:43:06.672Z</time></trkpt><trkpt lat="33.150381" lon="10.2864207"><ele>408.0</ele><time>2026-04-26T10:43:07.661Z</time></trkpt><trkpt lat="33.1502929" lon="10.2865628"><ele>408.0</ele><time>2026-04-26T10:43:08.665Z</time></trkpt><trkpt lat="33.1501977" lon="10.2866961"><ele>405.33333333333337</ele><time>2026-04-26T10:43:09.669Z</time></trkpt><trkpt lat="33.1500822" lon="10.286822"><ele>402.6666666666667</ele><time>2026-04-26T10:43:10.66Z</time></trkpt><trkpt lat="33.1499515" lon="10.28694"><ele>400.0</ele><time>2026-04-26T10:43:11.67Z</time></trkpt><trkpt lat="33.1498151" lon="10.2870461"><ele>400.0</ele><time>2026-04-26T10:43:12.668Z</time></trkpt><trkpt lat="33.1496843" lon="10.2871461"><ele>400.0</ele><time>2026-04-26T10:43:13.666Z</time></trkpt><trkpt lat="33.1495523" lon="10.2872374"><ele>400.0</ele><time>2026-04-26T10:43:14.669Z</time></trkpt><trkpt lat="33.1494196" lon="10.2873198"><ele>395.5</ele><time>2026-04-26T10:43:15.662Z</time></trkpt><trkpt lat="33.1492872" lon="10.2873954"><ele>391.0</ele><time>2026-04-26T10:43:16.67Z</time></trkpt><trkpt lat="33.1491669" lon="10.2874739"><ele>386.5</ele><time>2026-04-26T10:43:17.664Z</time></trkpt><trkpt lat="33.1490595" lon="10.2875535"><ele>382.0</ele><time>2026-04-26T10:43:18.668Z</time></trkpt><trkpt lat="33.1489619" lon="10.2876309"><ele>382.0</ele><time>2026-04-26T10:43:19.666Z</time></trkpt><trkpt lat="33.1488639" lon="10.287681"><ele>382.0</ele><time>2026-04-26T10:43:20.672Z</time></trkpt><trkpt lat="33.1487712" lon="10.2877121"><ele>382.0</ele><time>2026-04-26T10:43:21.66Z</time></trkpt><trkpt lat="33.1486845" lon="10.2877098"><ele>382.0</ele><time>2026-04-26T10:43:22.665Z</time></trkpt><trkpt lat="33.1485991" lon="10.2876719"><ele>382.0</ele><time>2026-04-26T10:43:23.668Z</time></trkpt><trkpt lat="33.1485066" lon="10.2875929"><ele>382.0</ele><time>2026-04-26T10:43:24.657Z</time></trkpt><trkpt lat="33.1484298" lon="10.287497"><ele>382.0</ele><time>2026-04-26T10:43:25.664Z</time></trkpt><trkpt lat="33.148354" lon="10.287412"><ele>382.0</ele><time>2026-04-26T10:43:26.663Z</time></trkpt><trkpt lat="33.1482748" lon="10.2873301"><ele>382.0</ele><time>2026-04-26T10:43:27.647Z</time></trkpt><trkpt lat="33.1481932" lon="10.2872709"><ele>382.0</ele><time>2026-04-26T10:43:28.664Z</time></trkpt><trkpt lat="33.1481067" lon="10.2872502"><ele>383.0</ele><time>2026-04-26T10:43:29.655Z</time></trkpt><trkpt lat="33.1480262" lon="10.2872554"><ele>384.0</ele><time>2026-04-26T10:43:30.67Z</time></trkpt><trkpt lat="33.147947" lon="10.2872951"><ele>385.0</ele><time>2026-04-26T10:43:31.657Z</time></trkpt><trkpt lat="33.1478834" lon="10.2873537"><ele>386.0</ele><time>2026-04-26T10:43:32.67Z</time></trkpt><trkpt lat="33.1478303" lon="10.2874399"><ele>387.00000000000006</ele><time>2026-04-26T10:43:33.665Z</time></trkpt><trkpt lat="33.1477905" lon="10.287539"><ele>388.0</ele><time>2026-04-26T10:43:34.661Z</time></trkpt><trkpt lat="33.147745" lon="10.2876552"><ele>385.4</ele><time>2026-04-26T10:43:35.669Z</time></trkpt><trkpt lat="33.1476821" lon="10.2877554"><ele>382.79999999999995</ele><time>2026-04-26T10:43:36.665Z</time></trkpt><trkpt lat="33.1476013" lon="10.2878288"><ele>380.2</ele><time>2026-04-26T10:43:37.669Z</time></trkpt><trkpt lat="33.1475187" lon="10.2878605"><ele>377.6</ele><time>2026-04-26T10:43:38.668Z</time></trkpt><trkpt lat="33.1474314" lon="10.287862"><ele>375.0</ele><time>2026-04-26T10:43:39.668Z</time></trkpt><trkpt lat="33.1473391" lon="10.2878238"><ele>373.4</ele><time>2026-04-26T10:43:40.674Z</time></trkpt><trkpt lat="33.1472623" lon="10.2877599"><ele>371.8</ele><time>2026-04-26T10:43:41.671Z</time></trkpt><trkpt lat="33.1472335" lon="10.2876652"><ele>370.20000000000005</ele><time>2026-04-26T10:43:42.663Z</time></trkpt><trkpt lat="33.1472198" lon="10.287555"><ele>368.6</ele><time>2026-04-26T10:43:43.67Z</time></trkpt><trkpt lat="33.1472214" lon="10.2874416"><ele>367.0</ele><time>2026-04-26T10:43:44.665Z</time></trkpt><trkpt lat="33.1472197" lon="10.2873372"><ele>370.16666666666663</ele><time>2026-04-26T10:43:45.67Z</time></trkpt><trkpt lat="33.1472177" lon="10.287223"><ele>373.3333333333333</ele><time>2026-04-26T10:43:46.67Z</time></trkpt><trkpt lat="33.1472099" lon="10.2871407"><ele>376.5</ele><time>2026-04-26T10:43:47.67Z</time></trkpt><trkpt lat="33.14717" lon="10.2870769"><ele>379.66666666666663</ele><time>2026-04-26T10:43:48.657Z</time></trkpt><trkpt lat="33.1471107" lon="10.2870396"><ele>382.8333333333333</ele><time>2026-04-26T10:43:49.665Z</time></trkpt><trkpt lat="33.1470359" lon="10.2870367"><ele>386.0</ele><time>2026-04-26T10:43:50.662Z</time></trkpt><trkpt lat="33.1469647" lon="10.287078"><ele>386.0</ele><time>2026-04-26T10:43:51.655Z</time></trkpt><trkpt lat="33.1469167" lon="10.2871625"><ele>386.0</ele><time>2026-04-26T10:43:52.652Z</time></trkpt><trkpt lat="33.1468542" lon="10.2872448"><ele>386.0</ele><time>2026-04-26T10:43:53.665Z</time></trkpt><trkpt lat="33.1467666" lon="10.2873253"><ele>386.0</ele><time>2026-04-26T10:43:54.659Z</time></trkpt><trkpt lat="33.1466626" lon="10.2873856"><ele>386.0</ele><time>2026-04-26T10:43:55.664Z</time></trkpt><trkpt lat="33.1465418" lon="10.2874357"><ele>382.5</ele><time>2026-04-26T10:43:56.662Z</time></trkpt><trkpt lat="33.1464332" lon="10.2874955"><ele>379.0</ele><time>2026-04-26T10:43:57.667Z</time></trkpt><trkpt lat="33.1463399" lon="10.2875705"><ele>375.5</ele><time>2026-04-26T10:43:58.656Z</time></trkpt><trkpt lat="33.1462505" lon="10.2876527"><ele>372.0</ele><time>2026-04-26T10:43:59.653Z</time></trkpt><trkpt lat="33.146174" lon="10.2877397"><ele>372.0</ele><time>2026-04-26T10:44:00.657Z</time></trkpt><trkpt lat="33.1461148" lon="10.2878342"><ele>372.0</ele><time>2026-04-26T10:44:01.656Z</time></trkpt><trkpt lat="33.1460594" lon="10.2879245"><ele>372.0</ele><time>2026-04-26T10:44:02.651Z</time></trkpt><trkpt lat="33.1460047" lon="10.2880111"><ele>372.0</ele><time>2026-04-26T10:44:03.645Z</time></trkpt><trkpt lat="33.1459393" lon="10.2880956"><ele>372.0</ele><time>2026-04-26T10:44:04.657Z</time></trkpt><trkpt lat="33.1458764" lon="10.2881857"><ele>370.0</ele><time>2026-04-26T10:44:05.675Z</time></trkpt><trkpt lat="33.1458176" lon="10.2882738"><ele>368.0</ele><time>2026-04-26T10:44:06.679Z</time></trkpt><trkpt lat="33.1457602" lon="10.2883529"><ele>366.0</ele><time>2026-04-26T10:44:07.703Z</time></trkpt><trkpt lat="33.1456949" lon="10.2884166"><ele>364.0</ele><time>2026-04-26T10:44:08.692Z</time></trkpt><trkpt lat="33.14561" lon="10.2884575"><ele>362.0</ele><time>2026-04-26T10:44:09.728Z</time></trkpt><trkpt lat="33.1455257" lon="10.2884634"><ele>360.0</ele><time>2026-04-26T10:44:10.709Z</time></trkpt><trkpt lat="33.1454455" lon="10.288424"><ele>359.1428571428571</ele><time>2026-04-26T10:44:11.7Z</time></trkpt><trkpt lat="33.1453759" lon="10.2883703"><ele>358.28571428571433</ele><time>2026-04-26T10:44:12.693Z</time></trkpt><trkpt lat="33.1453332" lon="10.2882947"><ele>357.42857142857144</ele><time>2026-04-26T10:44:13.695Z</time></trkpt><trkpt lat="33.1453065" lon="10.2882139"><ele>356.57142857142856</ele><time>2026-04-26T10:44:14.706Z</time></trkpt><trkpt lat="33.1452821" lon="10.2881208"><ele>355.71428571428567</ele><time>2026-04-26T10:44:15.699Z</time></trkpt><trkpt lat="33.1452479" lon="10.2880495"><ele>354.8571428571429</ele><time>2026-04-26T10:44:16.696Z</time></trkpt><trkpt lat="33.1451917" lon="10.2880127"><ele>354.0</ele><time>2026-04-26T10:44:17.69Z</time></trkpt><trkpt lat="33.1451262" lon="10.2879911"><ele>354.0</ele><time>2026-04-26T10:44:18.679Z</time></trkpt><trkpt lat="33.1450568" lon="10.2880095"><ele>354.0</ele><time>2026-04-26T10:44:19.709Z</time></trkpt><trkpt lat="33.1449971" lon="10.2880683"><ele>354.0</ele><time>2026-04-26T10:44:20.694Z</time></trkpt><trkpt lat="33.1449638" lon="10.2881538"><ele>354.0</ele><time>2026-04-26T10:44:21.72Z</time></trkpt><trkpt lat="33.1449153" lon="10.2882609"><ele>354.0</ele><time>2026-04-26T10:44:22.711Z</time></trkpt><trkpt lat="33.1448656" lon="10.2883546"><ele>354.0</ele><time>2026-04-26T10:44:23.715Z</time></trkpt><trkpt lat="33.1448082" lon="10.2884438"><ele>353.6666666666667</ele><time>2026-04-26T10:44:24.699Z</time></trkpt><trkpt lat="33.1447339" lon="10.2884996"><ele>353.3333333333333</ele><time>2026-04-26T10:44:25.715Z</time></trkpt><trkpt lat="33.1446574" lon="10.2885204"><ele>353.0</ele><time>2026-04-26T10:44:26.7Z</time></trkpt><trkpt lat="33.1445753" lon="10.2884945"><ele>352.66666666666663</ele><time>2026-04-26T10:44:27.713Z</time></trkpt><trkpt lat="33.1445081" lon="10.2884261"><ele>352.3333333333333</ele><time>2026-04-26T10:44:28.711Z</time></trkpt><trkpt lat="33.1444509" lon="10.2883435"><ele>352.0</ele><time>2026-04-26T10:44:29.72Z</time></trkpt><trkpt lat="33.1444054" lon="10.2882375"><ele>352.0</ele><time>2026-04-26T10:44:30.678Z</time></trkpt><trkpt lat="33.1443663" lon="10.2881467"><ele>352.0</ele><time>2026-04-26T10:44:31.713Z</time></trkpt><trkpt lat="33.1443159" lon="10.2880599"><ele>352.0</ele><time>2026-04-26T10:44:32.701Z</time></trkpt><trkpt lat="33.1442505" lon="10.2879988"><ele>352.0</ele><time>2026-04-26T10:44:33.669Z</time></trkpt><trkpt lat="33.1441685" lon="10.2879685"><ele>352.0</ele><time>2026-04-26T10:44:34.724Z</time></trkpt><trkpt lat="33.144104" lon="10.2879908"><ele>352.0</ele><time>2026-04-26T10:44:35.701Z</time></trkpt><trkpt lat="33.1440469" lon="10.2880565"><ele>353.5</ele><time>2026-04-26T10:44:36.703Z</time></trkpt><trkpt lat="33.1440029" lon="10.2881666"><ele>355.0</ele><time>2026-04-26T10:44:37.71Z</time></trkpt><trkpt lat="33.1439843" lon="10.2883043"><ele>356.5</ele><time>2026-04-26T10:44:38.69Z</time></trkpt><trkpt lat="33.1439864" lon="10.2884862"><ele>358.0</ele><time>2026-04-26T10:44:39.703Z</time></trkpt><trkpt lat="33.1439911" lon="10.2886849"><ele>358.0</ele><time>2026-04-26T10:44:40.687Z</time></trkpt><trkpt lat="33.1440187" lon="10.2888792"><ele>358.0</ele><time>2026-04-26T10:44:41.69Z</time></trkpt><trkpt lat="33.1440693" lon="10.2890618"><ele>358.0</ele><time>2026-04-26T10:44:42.706Z</time></trkpt><trkpt lat="33.1441428" lon="10.2892141"><ele>358.2</ele><time>2026-04-26T10:44:43.717Z</time></trkpt><trkpt lat="33.1442088" lon="10.2893394"><ele>358.4</ele><time>2026-04-26T10:44:44.675Z</time></trkpt><trkpt lat="33.1442626" lon="10.2894407"><ele>358.59999999999997</ele><time>2026-04-26T10:44:45.661Z</time></trkpt><trkpt lat="33.1442923" lon="10.2895452"><ele>358.79999999999995</ele><time>2026-04-26T10:44:46.713Z</time></trkpt><trkpt lat="33.1442995" lon="10.2896588"><ele>359.0</ele><time>2026-04-26T10:44:47.684Z</time></trkpt><trkpt lat="33.1442712" lon="10.2897699"><ele>359.0</ele><time>2026-04-26T10:44:48.716Z</time></trkpt><trkpt lat="33.1441948" lon="10.2898581"><ele>359.0</ele><time>2026-04-26T10:44:49.664Z</time></trkpt><trkpt lat="33.1440718" lon="10.2899266"><ele>359.0</ele><time>2026-04-26T10:44:50.677Z</time></trkpt><trkpt lat="33.1439441" lon="10.2899833"><ele>359.0</ele><time>2026-04-26T10:44:51.661Z</time></trkpt><trkpt lat="33.1438376" lon="10.2900262"><ele>361.33333333333337</ele><time>2026-04-26T10:44:52.677Z</time></trkpt><trkpt lat="33.1437702" lon="10.2900712"><ele>363.6666666666667</ele><time>2026-04-26T10:44:53.67Z</time></trkpt><trkpt lat="33.1437208" lon="10.2901416"><ele>366.0</ele><time>2026-04-26T10:44:54.679Z</time></trkpt><trkpt lat="33.1437012" lon="10.2902808"><ele>368.3333333333333</ele><time>2026-04-26T10:44:56.673Z</time></trkpt><trkpt lat="33.1437467" lon="10.2903552"><ele>370.66666666666663</ele><time>2026-04-26T10:44:57.688Z</time></trkpt><trkpt lat="33.1438207" lon="10.2904004"><ele>373.0</ele><time>2026-04-26T10:44:58.7Z</time></trkpt><trkpt lat="33.1439126" lon="10.2904137"><ele>369.5</ele><time>2026-04-26T10:44:59.703Z</time></trkpt><trkpt lat="33.1440475" lon="10.2903972"><ele>366.0</ele><time>2026-04-26T10:45:00.676Z</time></trkpt><trkpt lat="33.1441819" lon="10.2903869"><ele>362.5</ele><time>2026-04-26T10:45:01.698Z</time></trkpt><trkpt lat="33.1442873" lon="10.2903883"><ele>359.0</ele><time>2026-04-26T10:45:02.713Z</time></trkpt><trkpt lat="33.1443701" lon="10.2904147"><ele>359.0</ele><time>2026-04-26T10:45:03.691Z</time></trkpt><trkpt lat="33.144443" lon="10.290451"><ele>359.0</ele><time>2026-04-26T10:45:04.689Z</time></trkpt><trkpt lat="33.1444938" lon="10.2905186"><ele>359.0</ele><time>2026-04-26T10:45:05.715Z</time></trkpt><trkpt lat="33.1445234" lon="10.2905901"><ele>359.0</ele><time>2026-04-26T10:45:06.689Z</time></trkpt><trkpt lat="33.144515" lon="10.2906902"><ele>359.0</ele><time>2026-04-26T10:45:07.716Z</time></trkpt><trkpt lat="33.144467" lon="10.290814"><ele>359.0</ele><time>2026-04-26T10:45:08.717Z</time></trkpt><trkpt lat="33.1443948" lon="10.2909205"><ele>360.5</ele><time>2026-04-26T10:45:09.679Z</time></trkpt><trkpt lat="33.1443117" lon="10.2910253"><ele>362.0</ele><time>2026-04-26T10:45:10.688Z</time></trkpt><trkpt lat="33.144206" lon="10.2911227"><ele>363.5</ele><time>2026-04-26T10:45:11.695Z</time></trkpt><trkpt lat="33.1441034" lon="10.2912187"><ele>365.0</ele><time>2026-04-26T10:45:12.706Z</time></trkpt><trkpt lat="33.1440069" lon="10.2913202"><ele>369.5</ele><time>2026-04-26T10:45:13.708Z</time></trkpt><trkpt lat="33.143926" lon="10.2914314"><ele>374.0</ele><time>2026-04-26T10:45:14.705Z</time></trkpt><trkpt lat="33.1438711" lon="10.29154"><ele>378.5</ele><time>2026-04-26T10:45:15.711Z</time></trkpt><trkpt lat="33.1438196" lon="10.2916657"><ele>383.0</ele><time>2026-04-26T10:45:16.712Z</time></trkpt><trkpt lat="33.1437759" lon="10.2918086"><ele>383.0</ele><time>2026-04-26T10:45:17.705Z</time></trkpt><trkpt lat="33.1437456" lon="10.2919507"><ele>383.0</ele><time>2026-04-26T10:45:18.704Z</time></trkpt><trkpt lat="33.1437273" lon="10.292088"><ele>383.0</ele><time>2026-04-26T10:45:19.702Z</time></trkpt><trkpt lat="33.1437043" lon="10.292222"><ele>383.0</ele><time>2026-04-26T10:45:20.712Z</time></trkpt><trkpt lat="33.1436753" lon="10.2923412"><ele>383.0</ele><time>2026-04-26T10:45:21.715Z</time></trkpt><trkpt lat="33.1436235" lon="10.2924359"><ele>383.0</ele><time>2026-04-26T10:45:22.723Z</time></trkpt><trkpt lat="33.1435646" lon="10.2924976"><ele>383.0</ele><time>2026-04-26T10:45:23.69Z</time></trkpt><trkpt lat="33.1434502" lon="10.2924935"><ele>383.0</ele><time>2026-04-26T10:45:25.705Z</time></trkpt><trkpt lat="33.143399" lon="10.2923466"><ele>383.0</ele><time>2026-04-26T10:45:27.713Z</time></trkpt><trkpt lat="33.1434045" lon="10.2922345"><ele>383.0</ele><time>2026-04-26T10:45:28.697Z</time></trkpt><trkpt lat="33.1434265" lon="10.2920777"><ele>383.0</ele><time>2026-04-26T10:45:29.702Z</time></trkpt><trkpt lat="33.1434441" lon="10.2919252"><ele>383.0</ele><time>2026-04-26T10:45:30.675Z</time></trkpt><trkpt lat="33.1434651" lon="10.2917869"><ele>383.0</ele><time>2026-04-26T10:45:31.672Z</time></trkpt><trkpt lat="33.1434928" lon="10.2916541"><ele>383.0</ele><time>2026-04-26T10:45:32.699Z</time></trkpt><trkpt lat="33.1435218" lon="10.2915276"><ele>383.0</ele><time>2026-04-26T10:45:33.687Z</time></trkpt><trkpt lat="33.1435447" lon="10.2914177"><ele>383.0</ele><time>2026-04-26T10:45:34.699Z</time></trkpt><trkpt lat="33.1435393" lon="10.2913231"><ele>383.0</ele><time>2026-04-26T10:45:35.658Z</time></trkpt><trkpt lat="33.1435157" lon="10.2912426"><ele>383.0</ele><time>2026-04-26T10:45:36.709Z</time></trkpt><trkpt lat="33.1434641" lon="10.2911791"><ele>383.0</ele><time>2026-04-26T10:45:37.682Z</time></trkpt><trkpt lat="33.1433215" lon="10.2912016"><ele>380.75</ele><time>2026-04-26T10:45:39.704Z</time></trkpt><trkpt lat="33.1432382" lon="10.2913001"><ele>378.5</ele><time>2026-04-26T10:45:40.679Z</time></trkpt><trkpt lat="33.1431549" lon="10.2914125"><ele>376.25</ele><time>2026-04-26T10:45:41.705Z</time></trkpt><trkpt lat="33.1430878" lon="10.2915225"><ele>374.0</ele><time>2026-04-26T10:45:42.705Z</time></trkpt><trkpt lat="33.1430248" lon="10.2916147"><ele>378.79999999999995</ele><time>2026-04-26T10:45:43.725Z</time></trkpt><trkpt lat="33.1429574" lon="10.2916882"><ele>383.59999999999997</ele><time>2026-04-26T10:45:44.712Z</time></trkpt><trkpt lat="33.1428723" lon="10.2917267"><ele>388.4</ele><time>2026-04-26T10:45:45.717Z</time></trkpt><trkpt lat="33.1427657" lon="10.2917352"><ele>393.2</ele><time>2026-04-26T10:45:46.709Z</time></trkpt><trkpt lat="33.1426774" lon="10.2917072"><ele>398.0</ele><time>2026-04-26T10:45:47.718Z</time></trkpt><trkpt lat="33.1425938" lon="10.2916374"><ele>398.0</ele><time>2026-04-26T10:45:48.7Z</time></trkpt><trkpt lat="33.1425303" lon="10.2915326"><ele>398.0</ele><time>2026-04-26T10:45:49.703Z</time></trkpt><trkpt lat="33.1424852" lon="10.2914039"><ele>398.0</ele><time>2026-04-26T10:45:50.691Z</time></trkpt><trkpt lat="33.1424506" lon="10.2912653"><ele>398.0</ele><time>2026-04-26T10:45:51.701Z</time></trkpt><trkpt lat="33.1424232" lon="10.2911505"><ele>398.0</ele><time>2026-04-26T10:45:52.688Z</time></trkpt><trkpt lat="33.1424053" lon="10.2910773"><ele>397.3333333333333</ele><time>2026-04-26T10:45:53.678Z</time></trkpt><trkpt lat="33.142401" lon="10.2909822"><ele>396.66666666666663</ele><time>2026-04-26T10:45:55.717Z</time></trkpt><trkpt lat="33.1423885" lon="10.2909043"><ele>396.0</ele><time>2026-04-26T10:46:02.704Z</time></trkpt><trkpt lat="33.1423505" lon="10.2908322"><ele>395.33333333333337</ele><time>2026-04-26T10:46:04.679Z</time></trkpt><trkpt lat="33.1423015" lon="10.2906734"><ele>394.6666666666667</ele><time>2026-04-26T10:46:06.698Z</time></trkpt><trkpt lat="33.1422927" lon="10.290574"><ele>394.0</ele><time>2026-04-26T10:46:07.699Z</time></trkpt><trkpt lat="33.1422945" lon="10.2904752"><ele>397.00000000000006</ele><time>2026-04-26T10:46:08.715Z</time></trkpt><trkpt lat="33.1423084" lon="10.2903783"><ele>400.0</ele><time>2026-04-26T10:46:09.703Z</time></trkpt><trkpt lat="33.1423273" lon="10.2903015"><ele>403.0</ele><time>2026-04-26T10:46:10.698Z</time></trkpt><trkpt lat="33.1423592" lon="10.2901941"><ele>406.0</ele><time>2026-04-26T10:46:12.703Z</time></trkpt><trkpt lat="33.1423637" lon="10.2901138"><ele>409.00000000000006</ele><time>2026-04-26T11:03:20.659Z</time></trkpt><trkpt lat="33.1422978" lon="10.2900477"><ele>412.0</ele><time>2026-04-26T11:03:23.675Z</time></trkpt><trkpt lat="33.1422506" lon="10.2899627"><ele>412.0</ele><time>2026-04-26T11:03:25.648Z</time></trkpt><trkpt lat="33.1421786" lon="10.2898612"><ele>412.0</ele><time>2026-04-26T11:03:27.656Z</time></trkpt><trkpt lat="33.142118" lon="10.2898031"><ele>412.0</ele><time>2026-04-26T11:03:28.648Z</time></trkpt><trkpt lat="33.1420497" lon="10.2897593"><ele>412.0</ele><time>2026-04-26T11:03:29.684Z</time></trkpt><trkpt lat="33.1419618" lon="10.2897212"><ele>412.0</ele><time>2026-04-26T11:03:30.649Z</time></trkpt><trkpt lat="33.1418693" lon="10.2896906"><ele>411.6</ele><time>2026-04-26T11:03:31.649Z</time></trkpt><trkpt lat="33.1417661" lon="10.2896686"><ele>411.20000000000005</ele><time>2026-04-26T11:03:32.661Z</time></trkpt><trkpt lat="33.1416646" lon="10.2896487"><ele>410.8</ele><time>2026-04-26T11:03:33.666Z</time></trkpt><trkpt lat="33.1415579" lon="10.2896299"><ele>410.4</ele><time>2026-04-26T11:03:34.653Z</time></trkpt><trkpt lat="33.1414557" lon="10.2896113"><ele>410.0</ele><time>2026-04-26T11:03:35.663Z</time></trkpt><trkpt lat="33.1413624" lon="10.2895932"><ele>409.99999999999994</ele><time>2026-04-26T11:03:36.649Z</time></trkpt><trkpt lat="33.1412709" lon="10.2895715"><ele>410.0</ele><time>2026-04-26T11:03:37.653Z</time></trkpt><trkpt lat="33.1411936" lon="10.2895513"><ele>410.0</ele><time>2026-04-26T11:03:38.668Z</time></trkpt><trkpt lat="33.14113" lon="10.2895295"><ele>410.0</ele><time>2026-04-26T11:03:39.726Z</time></trkpt><trkpt lat="33.1410256" lon="10.2895109"><ele>409.99999999999994</ele><time>2026-04-26T11:03:41.654Z</time></trkpt><trkpt lat="33.1409358" lon="10.2894964"><ele>410.0</ele><time>2026-04-26T11:03:43.666Z</time></trkpt><trkpt lat="33.1408555" lon="10.2894887"><ele>410.0</ele><time>2026-04-26T11:03:45.663Z</time></trkpt><trkpt lat="33.1407658" lon="10.2894806"><ele>410.0</ele><time>2026-04-26T11:03:48.655Z</time></trkpt><trkpt lat="33.1406912" lon="10.2894616"><ele>410.0</ele><time>2026-04-26T11:03:51.668Z</time></trkpt><trkpt lat="33.1405843" lon="10.2894385"><ele>410.0</ele><time>2026-04-26T11:03:54.675Z</time></trkpt><trkpt lat="33.1404819" lon="10.2894224"><ele>410.0</ele><time>2026-04-26T11:03:56.693Z</time></trkpt><trkpt lat="33.1403826" lon="10.2894014"><ele>409.8</ele><time>2026-04-26T11:03:58.678Z</time></trkpt><trkpt lat="33.1402978" lon="10.2893744"><ele>409.6</ele><time>2026-04-26T11:04:00.677Z</time></trkpt><trkpt lat="33.1402108" lon="10.289341"><ele>409.4</ele><time>2026-04-26T11:04:02.673Z</time></trkpt><trkpt lat="33.1401094" lon="10.2892845"><ele>409.2</ele><time>2026-04-26T11:04:04.67Z</time></trkpt><trkpt lat="33.14001" lon="10.2892046"><ele>409.0</ele><time>2026-04-26T11:04:06.681Z</time></trkpt><trkpt lat="33.1399622" lon="10.2891544"><ele>409.33333333333337</ele><time>2026-04-26T11:04:07.681Z</time></trkpt><trkpt lat="33.1398756" lon="10.2890547"><ele>409.6666666666667</ele><time>2026-04-26T11:04:09.682Z</time></trkpt><trkpt lat="33.1398276" lon="10.2890005"><ele>410.0</ele><time>2026-04-26T11:04:10.679Z</time></trkpt><trkpt lat="33.1397755" lon="10.2889416"><ele>410.33333333333337</ele><time>2026-04-26T11:04:11.668Z</time></trkpt><trkpt lat="33.1397254" lon="10.2888785"><ele>410.6666666666667</ele><time>2026-04-26T11:04:12.675Z</time></trkpt><trkpt lat="33.1396724" lon="10.2888105"><ele>411.0</ele><time>2026-04-26T11:04:13.681Z</time></trkpt><trkpt lat="33.1396185" lon="10.2887503"><ele>411.0</ele><time>2026-04-26T11:04:14.691Z</time></trkpt><trkpt lat="33.1395572" lon="10.2886887"><ele>411.0</ele><time>2026-04-26T11:04:15.692Z</time></trkpt><trkpt lat="33.1394953" lon="10.2886337"><ele>411.0</ele><time>2026-04-26T11:04:16.68Z</time></trkpt><trkpt lat="33.1394316" lon="10.2885773"><ele>411.0</ele><time>2026-04-26T11:04:17.732Z</time></trkpt><trkpt lat="33.1393576" lon="10.2885175"><ele>411.0</ele><time>2026-04-26T11:04:18.679Z</time></trkpt><trkpt lat="33.1392672" lon="10.2884669"><ele>411.0</ele><time>2026-04-26T11:04:19.668Z</time></trkpt><trkpt lat="33.1391642" lon="10.2884403"><ele>411.0</ele><time>2026-04-26T11:04:20.679Z</time></trkpt><trkpt lat="33.1390524" lon="10.2884351"><ele>411.0</ele><time>2026-04-26T11:04:21.673Z</time></trkpt><trkpt lat="33.1389344" lon="10.2884601"><ele>411.0</ele><time>2026-04-26T11:04:22.685Z</time></trkpt><trkpt lat="33.1388143" lon="10.2885061"><ele>411.0</ele><time>2026-04-26T11:04:23.668Z</time></trkpt><trkpt lat="33.13869" lon="10.288568"><ele>411.5</ele><time>2026-04-26T11:04:24.693Z</time></trkpt><trkpt lat="33.1385693" lon="10.2886412"><ele>412.0</ele><time>2026-04-26T11:04:25.682Z</time></trkpt><trkpt lat="33.1384484" lon="10.2887062"><ele>412.5</ele><time>2026-04-26T11:04:26.68Z</time></trkpt><trkpt lat="33.1383324" lon="10.2887769"><ele>413.0</ele><time>2026-04-26T11:04:27.673Z</time></trkpt><trkpt lat="33.1382158" lon="10.2888521"><ele>413.0</ele><time>2026-04-26T11:04:28.692Z</time></trkpt><trkpt lat="33.1381086" lon="10.2889212"><ele>413.0</ele><time>2026-04-26T11:04:29.67Z</time></trkpt><trkpt lat="33.1380031" lon="10.2890101"><ele>413.0</ele><time>2026-04-26T11:04:30.675Z</time></trkpt><trkpt lat="33.1379075" lon="10.2890998"><ele>413.0</ele><time>2026-04-26T11:04:31.743Z</time></trkpt><trkpt lat="33.1378158" lon="10.2891984"><ele>412.59999999999997</ele><time>2026-04-26T11:04:32.674Z</time></trkpt><trkpt lat="33.1377246" lon="10.2892944"><ele>412.2</ele><time>2026-04-26T11:04:33.688Z</time></trkpt><trkpt lat="33.1376348" lon="10.2893682"><ele>411.8</ele><time>2026-04-26T11:04:34.681Z</time></trkpt><trkpt lat="33.1375311" lon="10.2894203"><ele>411.4</ele><time>2026-04-26T11:04:35.683Z</time></trkpt><trkpt lat="33.1374333" lon="10.2894282"><ele>411.0</ele><time>2026-04-26T11:04:36.669Z</time></trkpt><trkpt lat="33.1373419" lon="10.2893954"><ele>411.20000000000005</ele><time>2026-04-26T11:04:37.689Z</time></trkpt><trkpt lat="33.1372715" lon="10.2893238"><ele>411.40000000000003</ele><time>2026-04-26T11:04:38.678Z</time></trkpt><trkpt lat="33.1372335" lon="10.2892279"><ele>411.6</ele><time>2026-04-26T11:04:39.683Z</time></trkpt><trkpt lat="33.1372192" lon="10.2891205"><ele>411.8</ele><time>2026-04-26T11:04:40.683Z</time></trkpt><trkpt lat="33.1372149" lon="10.2890057"><ele>412.0</ele><time>2026-04-26T11:04:41.679Z</time></trkpt><trkpt lat="33.1371902" lon="10.2888973"><ele>412.00000000000006</ele><time>2026-04-26T11:04:42.68Z</time></trkpt><trkpt lat="33.1371475" lon="10.2888029"><ele>412.0</ele><time>2026-04-26T11:04:43.693Z</time></trkpt><trkpt lat="33.1370744" lon="10.2887427"><ele>412.0</ele><time>2026-04-26T11:04:44.685Z</time></trkpt><trkpt lat="33.136997" lon="10.2887189"><ele>412.0</ele><time>2026-04-26T11:04:45.693Z</time></trkpt><trkpt lat="33.1369139" lon="10.2887321"><ele>412.00000000000006</ele><time>2026-04-26T11:04:46.693Z</time></trkpt><trkpt lat="33.1368239" lon="10.2887834"><ele>412.0</ele><time>2026-04-26T11:04:47.689Z</time></trkpt><trkpt lat="33.136734" lon="10.2888584"><ele>409.5</ele><time>2026-04-26T11:04:48.682Z</time></trkpt><trkpt lat="33.136639" lon="10.2889351"><ele>407.0</ele><time>2026-04-26T11:04:49.684Z</time></trkpt><trkpt lat="33.1365353" lon="10.2889943"><ele>404.5</ele><time>2026-04-26T11:04:50.678Z</time></trkpt><trkpt lat="33.1364232" lon="10.2890322"><ele>402.0</ele><time>2026-04-26T11:04:51.673Z</time></trkpt><trkpt lat="33.1362941" lon="10.2890593"><ele>402.0</ele><time>2026-04-26T11:04:52.683Z</time></trkpt><trkpt lat="33.1361644" lon="10.2890993"><ele>402.0</ele><time>2026-04-26T11:04:53.676Z</time></trkpt><trkpt lat="33.136047" lon="10.289153"><ele>402.0</ele><time>2026-04-26T11:04:54.681Z</time></trkpt><trkpt lat="33.1359297" lon="10.2892202"><ele>402.0</ele><time>2026-04-26T11:04:55.688Z</time></trkpt><trkpt lat="33.1358136" lon="10.2893166"><ele>401.25</ele><time>2026-04-26T11:04:56.678Z</time></trkpt><trkpt lat="33.1357003" lon="10.2894222"><ele>400.5</ele><time>2026-04-26T11:04:57.674Z</time></trkpt><trkpt lat="33.1355928" lon="10.2895293"><ele>399.75</ele><time>2026-04-26T11:04:58.695Z</time></trkpt><trkpt lat="33.1354891" lon="10.2896305"><ele>399.0</ele><time>2026-04-26T11:04:59.687Z</time></trkpt><trkpt lat="33.1353835" lon="10.289742"><ele>397.75</ele><time>2026-04-26T11:05:00.688Z</time></trkpt><trkpt lat="33.1352842" lon="10.2898496"><ele>396.5</ele><time>2026-04-26T11:05:01.665Z</time></trkpt><trkpt lat="33.1351908" lon="10.2899589"><ele>395.25</ele><time>2026-04-26T11:05:02.696Z</time></trkpt><trkpt lat="33.1351054" lon="10.2900822"><ele>394.0</ele><time>2026-04-26T11:05:03.684Z</time></trkpt><trkpt lat="33.1350299" lon="10.2902136"><ele>394.0</ele><time>2026-04-26T11:05:04.689Z</time></trkpt><trkpt lat="33.1349693" lon="10.2903694"><ele>394.0</ele><time>2026-04-26T11:05:05.684Z</time></trkpt><trkpt lat="33.1349125" lon="10.2905306"><ele>394.0</ele><time>2026-04-26T11:05:06.696Z</time></trkpt><trkpt lat="33.1348608" lon="10.2907058"><ele>394.0</ele><time>2026-04-26T11:05:07.684Z</time></trkpt><trkpt lat="33.1348056" lon="10.2908777"><ele>390.0</ele><time>2026-04-26T11:05:08.679Z</time></trkpt><trkpt lat="33.1347456" lon="10.2910376"><ele>386.0</ele><time>2026-04-26T11:05:09.701Z</time></trkpt><trkpt lat="33.1346738" lon="10.291194"><ele>382.0</ele><time>2026-04-26T11:05:10.684Z</time></trkpt><trkpt lat="33.1345865" lon="10.2913476"><ele>381.3333333333333</ele><time>2026-04-26T11:05:11.684Z</time></trkpt><trkpt lat="33.1344881" lon="10.2914855"><ele>380.6666666666667</ele><time>2026-04-26T11:05:12.679Z</time></trkpt><trkpt lat="33.134373" lon="10.2916146"><ele>380.0</ele><time>2026-04-26T11:05:13.689Z</time></trkpt><trkpt lat="33.1342488" lon="10.2917367"><ele>380.0</ele><time>2026-04-26T11:05:14.686Z</time></trkpt><trkpt lat="33.1341176" lon="10.2918601"><ele>380.0</ele><time>2026-04-26T11:05:15.662Z</time></trkpt><trkpt lat="33.1339814" lon="10.2919731"><ele>380.0</ele><time>2026-04-26T11:05:16.676Z</time></trkpt><trkpt lat="33.1338422" lon="10.2920835"><ele>379.33333333333337</ele><time>2026-04-26T11:05:17.667Z</time></trkpt><trkpt lat="33.1336951" lon="10.2921909"><ele>378.6666666666667</ele><time>2026-04-26T11:05:18.678Z</time></trkpt><trkpt lat="33.1335464" lon="10.2922911"><ele>378.0</ele><time>2026-04-26T11:05:19.679Z</time></trkpt><trkpt lat="33.1333981" lon="10.2923885"><ele>378.0</ele><time>2026-04-26T11:05:20.687Z</time></trkpt><trkpt lat="33.1332464" lon="10.2924868"><ele>378.0</ele><time>2026-04-26T11:05:21.69Z</time></trkpt><trkpt lat="33.1330921" lon="10.2925812"><ele>378.0</ele><time>2026-04-26T11:05:22.685Z</time></trkpt><trkpt lat="33.1329339" lon="10.2926756"><ele>376.0</ele><time>2026-04-26T11:05:23.682Z</time></trkpt><trkpt lat="33.1327706" lon="10.2927694"><ele>374.0</ele><time>2026-04-26T11:05:24.684Z</time></trkpt><trkpt lat="33.1326108" lon="10.2928577"><ele>372.0</ele><time>2026-04-26T11:05:25.685Z</time></trkpt><trkpt lat="33.1324519" lon="10.2929506"><ele>370.3333333333333</ele><time>2026-04-26T11:05:26.675Z</time></trkpt><trkpt lat="33.1322982" lon="10.2930412"><ele>368.66666666666663</ele><time>2026-04-26T11:05:27.674Z</time></trkpt><trkpt lat="33.1321415" lon="10.2931331"><ele>367.0</ele><time>2026-04-26T11:05:28.685Z</time></trkpt><trkpt lat="33.1319846" lon="10.2932204"><ele>367.0</ele><time>2026-04-26T11:05:29.696Z</time></trkpt><trkpt lat="33.1318282" lon="10.293313"><ele>367.0</ele><time>2026-04-26T11:05:30.678Z</time></trkpt><trkpt lat="33.131676" lon="10.2934001"><ele>367.0</ele><time>2026-04-26T11:05:31.67Z</time></trkpt><trkpt lat="33.1315285" lon="10.2934837"><ele>365.0</ele><time>2026-04-26T11:05:32.675Z</time></trkpt><trkpt lat="33.131381" lon="10.2935692"><ele>363.0</ele><time>2026-04-26T11:05:33.687Z</time></trkpt><trkpt lat="33.1312461" lon="10.2936555"><ele>361.0</ele><time>2026-04-26T11:05:34.683Z</time></trkpt><trkpt lat="33.1311159" lon="10.2937511"><ele>361.0</ele><time>2026-04-26T11:05:35.696Z</time></trkpt><trkpt lat="33.1309916" lon="10.2938547"><ele>361.0</ele><time>2026-04-26T11:05:36.686Z</time></trkpt><trkpt lat="33.130877" lon="10.2939609"><ele>361.0</ele><time>2026-04-26T11:05:37.68Z</time></trkpt><trkpt lat="33.1307679" lon="10.294068"><ele>361.0</ele><time>2026-04-26T11:05:38.68Z</time></trkpt><trkpt lat="33.1306657" lon="10.2941732"><ele>359.0</ele><time>2026-04-26T11:05:39.683Z</time></trkpt><trkpt lat="33.1305699" lon="10.2942734"><ele>357.0</ele><time>2026-04-26T11:05:40.741Z</time></trkpt><trkpt lat="33.1304684" lon="10.2943531"><ele>355.0</ele><time>2026-04-26T11:05:41.671Z</time></trkpt><trkpt lat="33.1303696" lon="10.2944099"><ele>353.0</ele><time>2026-04-26T11:05:42.687Z</time></trkpt><trkpt lat="33.1302761" lon="10.2944409"><ele>353.0</ele><time>2026-04-26T11:05:43.666Z</time></trkpt><trkpt lat="33.1301803" lon="10.2944504"><ele>353.0</ele><time>2026-04-26T11:05:44.671Z</time></trkpt><trkpt lat="33.1300894" lon="10.2944245"><ele>353.0</ele><time>2026-04-26T11:05:45.67Z</time></trkpt><trkpt lat="33.1300029" lon="10.2943781"><ele>353.0</ele><time>2026-04-26T11:05:46.665Z</time></trkpt><trkpt lat="33.1299335" lon="10.2943087"><ele>353.0</ele><time>2026-04-26T11:05:47.688Z</time></trkpt><trkpt lat="33.1298858" lon="10.2942031"><ele>353.0</ele><time>2026-04-26T11:05:48.689Z</time></trkpt><trkpt lat="33.1298793" lon="10.2940968"><ele>353.0</ele><time>2026-04-26T11:05:49.683Z</time></trkpt><trkpt lat="33.1298832" lon="10.29399"><ele>353.0</ele><time>2026-04-26T11:05:50.667Z</time></trkpt><trkpt lat="33.1298686" lon="10.293876"><ele>353.0</ele><time>2026-04-26T11:05:51.682Z</time></trkpt><trkpt lat="33.1298236" lon="10.2937843"><ele>353.0</ele><time>2026-04-26T11:05:52.683Z</time></trkpt><trkpt lat="33.1297589" lon="10.2937098"><ele>354.2</ele><time>2026-04-26T11:05:53.681Z</time></trkpt><trkpt lat="33.1296775" lon="10.293673"><ele>355.4</ele><time>2026-04-26T11:05:54.697Z</time></trkpt><trkpt lat="33.1295831" lon="10.2936668"><ele>356.59999999999997</ele><time>2026-04-26T11:05:55.685Z</time></trkpt><trkpt lat="33.1294894" lon="10.2936939"><ele>357.79999999999995</ele><time>2026-04-26T11:05:56.702Z</time></trkpt><trkpt lat="33.1293873" lon="10.2937637"><ele>359.0</ele><time>2026-04-26T11:05:57.663Z</time></trkpt><trkpt lat="33.1292756" lon="10.2938359"><ele>359.0</ele><time>2026-04-26T11:05:58.691Z</time></trkpt><trkpt lat="33.1291596" lon="10.2939025"><ele>359.0</ele><time>2026-04-26T11:05:59.696Z</time></trkpt><trkpt lat="33.1290406" lon="10.2939433"><ele>359.0</ele><time>2026-04-26T11:06:00.685Z</time></trkpt><trkpt lat="33.1289278" lon="10.2939566"><ele>359.0</ele><time>2026-04-26T11:06:01.682Z</time></trkpt><trkpt lat="33.1288076" lon="10.2939377"><ele>358.0</ele><time>2026-04-26T11:06:02.678Z</time></trkpt><trkpt lat="33.1286854" lon="10.2938963"><ele>357.0</ele><time>2026-04-26T11:06:03.666Z</time></trkpt><trkpt lat="33.1285638" lon="10.2938371"><ele>356.0</ele><time>2026-04-26T11:06:04.666Z</time></trkpt><trkpt lat="33.1284361" lon="10.2937557"><ele>355.0</ele><time>2026-04-26T11:06:05.679Z</time></trkpt><trkpt lat="33.1282956" lon="10.2936724"><ele>353.0</ele><time>2026-04-26T11:06:06.685Z</time></trkpt><trkpt lat="33.1281489" lon="10.2935848"><ele>351.0</ele><time>2026-04-26T11:06:07.688Z</time></trkpt><trkpt lat="33.1279978" lon="10.2934981"><ele>349.0</ele><time>2026-04-26T11:06:08.685Z</time></trkpt><trkpt lat="33.1278527" lon="10.2934209"><ele>349.0</ele><time>2026-04-26T11:06:09.685Z</time></trkpt><trkpt lat="33.1277052" lon="10.2933568"><ele>349.0</ele><time>2026-04-26T11:06:10.663Z</time></trkpt><trkpt lat="33.1275607" lon="10.2933187"><ele>349.0</ele><time>2026-04-26T11:06:11.679Z</time></trkpt><trkpt lat="33.1274142" lon="10.293289"><ele>348.75</ele><time>2026-04-26T11:06:12.707Z</time></trkpt><trkpt lat="33.1272643" lon="10.2932808"><ele>348.5</ele><time>2026-04-26T11:06:13.754Z</time></trkpt><trkpt lat="33.1271254" lon="10.2932404"><ele>348.25</ele><time>2026-04-26T11:06:14.713Z</time></trkpt><trkpt lat="33.1269991" lon="10.2931918"><ele>348.0</ele><time>2026-04-26T11:06:15.69Z</time></trkpt><trkpt lat="33.1268756" lon="10.2931313"><ele>348.0</ele><time>2026-04-26T11:06:16.693Z</time></trkpt><trkpt lat="33.1267531" lon="10.2930923"><ele>348.0</ele><time>2026-04-26T11:06:17.694Z</time></trkpt><trkpt lat="33.1266406" lon="10.2930878"><ele>348.0</ele><time>2026-04-26T11:06:18.684Z</time></trkpt><trkpt lat="33.1265352" lon="10.2931224"><ele>348.0</ele><time>2026-04-26T11:06:19.71Z</time></trkpt><trkpt lat="33.1264375" lon="10.2931962"><ele>349.0</ele><time>2026-04-26T11:06:20.676Z</time></trkpt><trkpt lat="33.1263506" lon="10.2932794"><ele>350.0</ele><time>2026-04-26T11:06:21.708Z</time></trkpt><trkpt lat="33.1262722" lon="10.2933732"><ele>351.0</ele><time>2026-04-26T11:06:22.695Z</time></trkpt><trkpt lat="33.1262087" lon="10.2934799"><ele>352.0</ele><time>2026-04-26T11:06:23.7Z</time></trkpt><trkpt lat="33.1261663" lon="10.2935992"><ele>353.0</ele><time>2026-04-26T11:06:24.682Z</time></trkpt><trkpt lat="33.1261468" lon="10.293725"><ele>353.0</ele><time>2026-04-26T11:06:25.694Z</time></trkpt><trkpt lat="33.1261569" lon="10.2938653"><ele>353.0</ele><time>2026-04-26T11:06:26.71Z</time></trkpt><trkpt lat="33.1261921" lon="10.2939978"><ele>353.0</ele><time>2026-04-26T11:06:27.668Z</time></trkpt><trkpt lat="33.1262618" lon="10.2941027"><ele>353.0</ele><time>2026-04-26T11:06:28.749Z</time></trkpt><trkpt lat="33.1263504" lon="10.2941941"><ele>353.0</ele><time>2026-04-26T11:06:29.694Z</time></trkpt><trkpt lat="33.1264327" lon="10.294285"><ele>353.0</ele><time>2026-04-26T11:06:30.701Z</time></trkpt><trkpt lat="33.1265096" lon="10.2943775"><ele>353.0</ele><time>2026-04-26T11:06:31.678Z</time></trkpt><trkpt lat="33.1265603" lon="10.2944874"><ele>353.0</ele><time>2026-04-26T11:06:32.703Z</time></trkpt><trkpt lat="33.1265988" lon="10.2945913"><ele>353.0</ele><time>2026-04-26T11:06:33.703Z</time></trkpt><trkpt lat="33.1266101" lon="10.294708"><ele>352.5</ele><time>2026-04-26T11:06:34.682Z</time></trkpt><trkpt lat="33.1266011" lon="10.2948354"><ele>352.0</ele><time>2026-04-26T11:06:35.715Z</time></trkpt><trkpt lat="33.1265653" lon="10.2949721"><ele>351.5</ele><time>2026-04-26T11:06:36.699Z</time></trkpt><trkpt lat="33.1265388" lon="10.2951124"><ele>351.0</ele><time>2026-04-26T11:06:37.682Z</time></trkpt><trkpt lat="33.126505" lon="10.2952623"><ele>353.25</ele><time>2026-04-26T11:06:38.698Z</time></trkpt><trkpt lat="33.1264739" lon="10.2954087"><ele>355.5</ele><time>2026-04-26T11:06:39.681Z</time></trkpt><trkpt lat="33.1264459" lon="10.2955631"><ele>357.75</ele><time>2026-04-26T11:06:40.707Z</time></trkpt><trkpt lat="33.1264157" lon="10.2957219"><ele>360.0</ele><time>2026-04-26T11:06:41.691Z</time></trkpt><trkpt lat="33.1264025" lon="10.2958828"><ele>361.75</ele><time>2026-04-26T11:06:42.711Z</time></trkpt><trkpt lat="33.1264015" lon="10.2960505"><ele>363.5</ele><time>2026-04-26T11:06:43.649Z</time></trkpt><trkpt lat="33.126419" lon="10.2962165"><ele>365.25</ele><time>2026-04-26T11:06:44.699Z</time></trkpt><trkpt lat="33.1264564" lon="10.2963697"><ele>367.0</ele><time>2026-04-26T11:06:45.711Z</time></trkpt><trkpt lat="33.1265014" lon="10.2965257"><ele>367.20000000000005</ele><time>2026-04-26T11:06:46.684Z</time></trkpt><trkpt lat="33.126549" lon="10.2966727"><ele>367.4</ele><time>2026-04-26T11:06:47.697Z</time></trkpt><trkpt lat="33.1265758" lon="10.2968016"><ele>367.6</ele><time>2026-04-26T11:06:48.679Z</time></trkpt><trkpt lat="33.126582" lon="10.2969297"><ele>367.79999999999995</ele><time>2026-04-26T11:06:49.682Z</time></trkpt><trkpt lat="33.1265616" lon="10.2970328"><ele>368.0</ele><time>2026-04-26T11:06:50.704Z</time></trkpt><trkpt lat="33.1265032" lon="10.2971211"><ele>368.0</ele><time>2026-04-26T11:06:51.699Z</time></trkpt><trkpt lat="33.1264259" lon="10.2971795"><ele>368.0</ele><time>2026-04-26T11:06:52.676Z</time></trkpt><trkpt lat="33.1263289" lon="10.2971983"><ele>368.0</ele><time>2026-04-26T11:06:53.696Z</time></trkpt><trkpt lat="33.1262296" lon="10.297177"><ele>368.0</ele><time>2026-04-26T11:06:54.704Z</time></trkpt><trkpt lat="33.126121" lon="10.2971266"><ele>368.0</ele><time>2026-04-26T11:06:55.699Z</time></trkpt><trkpt lat="33.1260078" lon="10.2970653"><ele>368.0</ele><time>2026-04-26T11:06:56.682Z</time></trkpt><trkpt lat="33.1258889" lon="10.296981"><ele>368.0</ele><time>2026-04-26T11:06:57.697Z</time></trkpt><trkpt lat="33.1257685" lon="10.2968901"><ele>368.0</ele><time>2026-04-26T11:06:58.701Z</time></trkpt><trkpt lat="33.1256472" lon="10.2967917"><ele>368.0</ele><time>2026-04-26T11:06:59.7Z</time></trkpt><trkpt lat="33.1255201" lon="10.2966945"><ele>367.33333333333337</ele><time>2026-04-26T11:07:00.693Z</time></trkpt><trkpt lat="33.1253882" lon="10.2966014"><ele>366.6666666666667</ele><time>2026-04-26T11:07:01.708Z</time></trkpt><trkpt lat="33.1252602" lon="10.2965042"><ele>366.0</ele><time>2026-04-26T11:07:02.72Z</time></trkpt><trkpt lat="33.1251289" lon="10.2964159"><ele>366.0</ele><time>2026-04-26T11:07:03.705Z</time></trkpt><trkpt lat="33.1249889" lon="10.2963484"><ele>366.0</ele><time>2026-04-26T11:07:04.727Z</time></trkpt><trkpt lat="33.1248418" lon="10.2963002"><ele>366.0</ele><time>2026-04-26T11:07:05.709Z</time></trkpt><trkpt lat="33.1246944" lon="10.2962655"><ele>366.6666666666667</ele><time>2026-04-26T11:07:06.707Z</time></trkpt><trkpt lat="33.1245422" lon="10.2962432"><ele>367.33333333333337</ele><time>2026-04-26T11:07:07.706Z</time></trkpt><trkpt lat="33.1243918" lon="10.2962256"><ele>368.0</ele><time>2026-04-26T11:07:08.682Z</time></trkpt><trkpt lat="33.1242415" lon="10.2962155"><ele>368.0</ele><time>2026-04-26T11:07:09.707Z</time></trkpt><trkpt lat="33.124097" lon="10.296218"><ele>368.0</ele><time>2026-04-26T11:07:10.713Z</time></trkpt><trkpt lat="33.1239676" lon="10.2962442"><ele>368.0</ele><time>2026-04-26T11:07:11.718Z</time></trkpt><trkpt lat="33.1238519" lon="10.2963044"><ele>368.0</ele><time>2026-04-26T11:07:12.679Z</time></trkpt><trkpt lat="33.1237474" lon="10.2963913"><ele>369.75</ele><time>2026-04-26T11:07:13.721Z</time></trkpt><trkpt lat="33.1236435" lon="10.2964929"><ele>371.5</ele><time>2026-04-26T11:07:14.692Z</time></trkpt><trkpt lat="33.1235476" lon="10.2966141"><ele>373.25</ele><time>2026-04-26T11:07:15.728Z</time></trkpt><trkpt lat="33.1234443" lon="10.2967315"><ele>375.0</ele><time>2026-04-26T11:07:16.683Z</time></trkpt><trkpt lat="33.1233209" lon="10.2968282"><ele>374.6666666666667</ele><time>2026-04-26T11:07:17.699Z</time></trkpt><trkpt lat="33.1231898" lon="10.2969167"><ele>374.33333333333337</ele><time>2026-04-26T11:07:18.694Z</time></trkpt><trkpt lat="33.1230447" lon="10.2969914"><ele>374.0</ele><time>2026-04-26T11:07:19.708Z</time></trkpt><trkpt lat="33.1228924" lon="10.2970499"><ele>374.0</ele><time>2026-04-26T11:07:20.714Z</time></trkpt><trkpt lat="33.1227309" lon="10.2971187"><ele>374.0</ele><time>2026-04-26T11:07:21.751Z</time></trkpt><trkpt lat="33.1225735" lon="10.2971762"><ele>374.0</ele><time>2026-04-26T11:07:22.701Z</time></trkpt><trkpt lat="33.1224141" lon="10.2972415"><ele>374.33333333333337</ele><time>2026-04-26T11:07:23.685Z</time></trkpt><trkpt lat="33.1222505" lon="10.297304"><ele>374.6666666666667</ele><time>2026-04-26T11:07:24.709Z</time></trkpt><trkpt lat="33.1220871" lon="10.2973667"><ele>375.0</ele><time>2026-04-26T11:07:25.654Z</time></trkpt><trkpt lat="33.1219264" lon="10.2974301"><ele>375.0</ele><time>2026-04-26T11:07:26.664Z</time></trkpt><trkpt lat="33.1217718" lon="10.2974848"><ele>375.0</ele><time>2026-04-26T11:07:27.702Z</time></trkpt><trkpt lat="33.1216281" lon="10.2975432"><ele>375.0</ele><time>2026-04-26T11:07:28.682Z</time></trkpt><trkpt lat="33.1214976" lon="10.2975994"><ele>374.25</ele><time>2026-04-26T11:07:29.698Z</time></trkpt><trkpt lat="33.1213851" lon="10.2976689"><ele>373.5</ele><time>2026-04-26T11:07:30.691Z</time></trkpt><trkpt lat="33.1212819" lon="10.2977451"><ele>372.75</ele><time>2026-04-26T11:07:31.667Z</time></trkpt><trkpt lat="33.121189" lon="10.2978477"><ele>372.0</ele><time>2026-04-26T11:07:32.715Z</time></trkpt><trkpt lat="33.1211128" lon="10.2979702"><ele>371.5</ele><time>2026-04-26T11:07:33.708Z</time></trkpt><trkpt lat="33.1210432" lon="10.2981054"><ele>371.0</ele><time>2026-04-26T11:07:34.709Z</time></trkpt><trkpt lat="33.1209653" lon="10.2982498"><ele>370.5</ele><time>2026-04-26T11:07:35.719Z</time></trkpt><trkpt lat="33.1208839" lon="10.2984044"><ele>370.0</ele><time>2026-04-26T11:07:36.676Z</time></trkpt><trkpt lat="33.1207996" lon="10.2985555"><ele>368.3333333333333</ele><time>2026-04-26T11:07:37.701Z</time></trkpt><trkpt lat="33.1207096" lon="10.2987092"><ele>366.6666666666667</ele><time>2026-04-26T11:07:38.704Z</time></trkpt><trkpt lat="33.1206176" lon="10.2988669"><ele>365.0</ele><time>2026-04-26T11:07:39.721Z</time></trkpt><trkpt lat="33.1205163" lon="10.2990173"><ele>365.0</ele><time>2026-04-26T11:07:40.714Z</time></trkpt><trkpt lat="33.1203884" lon="10.299156"><ele>365.0</ele><time>2026-04-26T11:07:41.688Z</time></trkpt><trkpt lat="33.1202456" lon="10.2992743"><ele>365.0</ele><time>2026-04-26T11:07:42.676Z</time></trkpt><trkpt lat="33.1200845" lon="10.299381"><ele>365.0</ele><time>2026-04-26T11:07:43.714Z</time></trkpt><trkpt lat="33.1199035" lon="10.2994741"><ele>365.0</ele><time>2026-04-26T11:07:44.648Z</time></trkpt><trkpt lat="33.119723" lon="10.2995709"><ele>365.0</ele><time>2026-04-26T11:07:45.711Z</time></trkpt><trkpt lat="33.1195433" lon="10.2996573"><ele>363.0</ele><time>2026-04-26T11:07:46.702Z</time></trkpt><trkpt lat="33.1193605" lon="10.2997508"><ele>361.0</ele><time>2026-04-26T11:07:47.744Z</time></trkpt><trkpt lat="33.1191762" lon="10.2998404"><ele>359.0</ele><time>2026-04-26T11:07:48.705Z</time></trkpt><trkpt lat="33.1189938" lon="10.2999259"><ele>359.0</ele><time>2026-04-26T11:07:49.718Z</time></trkpt><trkpt lat="33.118836" lon="10.3000134"><ele>359.0</ele><time>2026-04-26T11:07:50.719Z</time></trkpt><trkpt lat="33.1186811" lon="10.3001071"><ele>359.0</ele><time>2026-04-26T11:07:51.704Z</time></trkpt><trkpt lat="33.1185246" lon="10.3001937"><ele>359.0</ele><time>2026-04-26T11:07:52.681Z</time></trkpt><trkpt lat="33.1183685" lon="10.3002862"><ele>359.0</ele><time>2026-04-26T11:07:53.707Z</time></trkpt><trkpt lat="33.1182109" lon="10.3003719"><ele>359.0</ele><time>2026-04-26T11:07:54.674Z</time></trkpt><trkpt lat="33.1180548" lon="10.3004609"><ele>357.33333333333337</ele><time>2026-04-26T11:07:55.691Z</time></trkpt><trkpt lat="33.1179019" lon="10.3005548"><ele>355.6666666666667</ele><time>2026-04-26T11:07:56.691Z</time></trkpt><trkpt lat="33.1177595" lon="10.3006557"><ele>354.0</ele><time>2026-04-26T11:07:57.684Z</time></trkpt><trkpt lat="33.1176383" lon="10.300783"><ele>353.75</ele><time>2026-04-26T11:07:58.688Z</time></trkpt><trkpt lat="33.1175316" lon="10.3009165"><ele>353.5</ele><time>2026-04-26T11:07:59.66Z</time></trkpt><trkpt lat="33.1174317" lon="10.3010453"><ele>353.25</ele><time>2026-04-26T11:08:00.71Z</time></trkpt><trkpt lat="33.1173156" lon="10.3011495"><ele>353.0</ele><time>2026-04-26T11:08:01.7Z</time></trkpt><trkpt lat="33.1171855" lon="10.3012378"><ele>352.6666666666667</ele><time>2026-04-26T11:08:02.69Z</time></trkpt><trkpt lat="33.1170358" lon="10.3013105"><ele>352.3333333333333</ele><time>2026-04-26T11:08:03.709Z</time></trkpt><trkpt lat="33.1168859" lon="10.301374"><ele>352.0</ele><time>2026-04-26T11:08:04.717Z</time></trkpt><trkpt lat="33.1167341" lon="10.3014473"><ele>352.66666666666663</ele><time>2026-04-26T11:08:05.715Z</time></trkpt><trkpt lat="33.1165793" lon="10.3015251"><ele>353.3333333333333</ele><time>2026-04-26T11:08:06.691Z</time></trkpt><trkpt lat="33.116431" lon="10.3016037"><ele>354.0</ele><time>2026-04-26T11:08:07.662Z</time></trkpt><trkpt lat="33.1163015" lon="10.3016848"><ele>354.0</ele><time>2026-04-26T11:08:08.717Z</time></trkpt><trkpt lat="33.116173" lon="10.3017545"><ele>354.0</ele><time>2026-04-26T11:08:09.687Z</time></trkpt><trkpt lat="33.1160396" lon="10.3018138"><ele>354.0</ele><time>2026-04-26T11:08:10.741Z</time></trkpt><trkpt lat="33.1158988" lon="10.301856"><ele>354.0</ele><time>2026-04-26T11:08:11.715Z</time></trkpt><trkpt lat="33.1157486" lon="10.3018645"><ele>353.3333333333333</ele><time>2026-04-26T11:08:12.708Z</time></trkpt><trkpt lat="33.1155981" lon="10.3018401"><ele>352.66666666666663</ele><time>2026-04-26T11:08:13.671Z</time></trkpt><trkpt lat="33.1154457" lon="10.3017894"><ele>352.0</ele><time>2026-04-26T11:08:14.709Z</time></trkpt><trkpt lat="33.1152988" lon="10.3017393"><ele>352.0</ele><time>2026-04-26T11:08:15.696Z</time></trkpt><trkpt lat="33.1151443" lon="10.3016903"><ele>352.0</ele><time>2026-04-26T11:08:16.707Z</time></trkpt><trkpt lat="33.1149937" lon="10.3016495"><ele>352.0</ele><time>2026-04-26T11:08:17.7Z</time></trkpt><trkpt lat="33.1148379" lon="10.3016057"><ele>353.3333333333333</ele><time>2026-04-26T11:08:18.717Z</time></trkpt><trkpt lat="33.1146822" lon="10.3015614"><ele>354.6666666666667</ele><time>2026-04-26T11:08:19.709Z</time></trkpt><trkpt lat="33.1145246" lon="10.3015167"><ele>356.0</ele><time>2026-04-26T11:08:20.717Z</time></trkpt><trkpt lat="33.1143665" lon="10.3014682"><ele>356.0</ele><time>2026-04-26T11:08:21.679Z</time></trkpt><trkpt lat="33.1142105" lon="10.301425"><ele>356.0</ele><time>2026-04-26T11:08:22.677Z</time></trkpt><trkpt lat="33.1140592" lon="10.3013848"><ele>356.0</ele><time>2026-04-26T11:08:23.688Z</time></trkpt><trkpt lat="33.1139077" lon="10.3013478"><ele>357.75</ele><time>2026-04-26T11:08:24.705Z</time></trkpt><trkpt lat="33.1137597" lon="10.3013129"><ele>359.5</ele><time>2026-04-26T11:08:25.679Z</time></trkpt><trkpt lat="33.1136143" lon="10.3012814"><ele>361.25</ele><time>2026-04-26T11:08:26.694Z</time></trkpt><trkpt lat="33.1134705" lon="10.3012412"><ele>363.0</ele><time>2026-04-26T11:08:27.708Z</time></trkpt><trkpt lat="33.1133241" lon="10.3011966"><ele>362.6666666666667</ele><time>2026-04-26T11:08:28.696Z</time></trkpt><trkpt lat="33.113172" lon="10.3011509"><ele>362.33333333333337</ele><time>2026-04-26T11:08:29.704Z</time></trkpt><trkpt lat="33.1130234" lon="10.3011118"><ele>362.0</ele><time>2026-04-26T11:08:30.692Z</time></trkpt><trkpt lat="33.1128759" lon="10.3010832"><ele>362.0</ele><time>2026-04-26T11:08:31.697Z</time></trkpt><trkpt lat="33.1127364" lon="10.3010809"><ele>362.0</ele><time>2026-04-26T11:08:32.681Z</time></trkpt><trkpt lat="33.1125942" lon="10.3010983"><ele>362.0</ele><time>2026-04-26T11:08:33.705Z</time></trkpt><trkpt lat="33.1124542" lon="10.3011318"><ele>362.0</ele><time>2026-04-26T11:08:34.725Z</time></trkpt><trkpt lat="33.1123212" lon="10.3011951"><ele>361.75</ele><time>2026-04-26T11:08:35.688Z</time></trkpt><trkpt lat="33.1121946" lon="10.3012779"><ele>361.5</ele><time>2026-04-26T11:08:36.72Z</time></trkpt><trkpt lat="33.1120759" lon="10.3013794"><ele>361.25</ele><time>2026-04-26T11:08:37.71Z</time></trkpt><trkpt lat="33.1119588" lon="10.3014777"><ele>361.0</ele><time>2026-04-26T11:08:38.712Z</time></trkpt><trkpt lat="33.1118341" lon="10.3015588"><ele>361.0</ele><time>2026-04-26T11:08:39.69Z</time></trkpt><trkpt lat="33.1116995" lon="10.3016216"><ele>361.0</ele><time>2026-04-26T11:08:40.685Z</time></trkpt><trkpt lat="33.1115566" lon="10.3016607"><ele>361.0</ele><time>2026-04-26T11:08:41.692Z</time></trkpt><trkpt lat="33.1114057" lon="10.301688"><ele>361.0</ele><time>2026-04-26T11:08:42.684Z</time></trkpt><trkpt lat="33.1112505" lon="10.3017165"><ele>361.3333333333333</ele><time>2026-04-26T11:08:43.711Z</time></trkpt><trkpt lat="33.1110883" lon="10.3017514"><ele>361.6666666666667</ele><time>2026-04-26T11:08:44.699Z</time></trkpt><trkpt lat="33.1109254" lon="10.3017786"><ele>362.0</ele><time>2026-04-26T11:08:45.707Z</time></trkpt><trkpt lat="33.1107635" lon="10.301814"><ele>361.0</ele><time>2026-04-26T11:08:46.667Z</time></trkpt><trkpt lat="33.1106081" lon="10.3018472"><ele>360.0</ele><time>2026-04-26T11:08:47.695Z</time></trkpt><trkpt lat="33.1104565" lon="10.3018739"><ele>359.0</ele><time>2026-04-26T11:08:48.717Z</time></trkpt><trkpt lat="33.1103168" lon="10.3019067"><ele>359.0</ele><time>2026-04-26T11:08:49.711Z</time></trkpt><trkpt lat="33.110185" lon="10.3019568"><ele>359.0</ele><time>2026-04-26T11:08:50.699Z</time></trkpt><trkpt lat="33.1100767" lon="10.3020299"><ele>359.0</ele><time>2026-04-26T11:08:51.707Z</time></trkpt><trkpt lat="33.1099837" lon="10.3021264"><ele>359.0</ele><time>2026-04-26T11:08:52.696Z</time></trkpt><trkpt lat="33.1098964" lon="10.3022479"><ele>356.0</ele><time>2026-04-26T11:08:53.677Z</time></trkpt><trkpt lat="33.1098194" lon="10.3023907"><ele>353.0</ele><time>2026-04-26T11:08:54.705Z</time></trkpt><trkpt lat="33.109774" lon="10.3025367"><ele>350.0</ele><time>2026-04-26T11:08:55.708Z</time></trkpt><trkpt lat="33.1097412" lon="10.3026845"><ele>347.0</ele><time>2026-04-26T11:08:56.709Z</time></trkpt><trkpt lat="33.1097121" lon="10.3028352"><ele>347.0</ele><time>2026-04-26T11:08:57.701Z</time></trkpt><trkpt lat="33.1096806" lon="10.3029742"><ele>347.0</ele><time>2026-04-26T11:08:58.697Z</time></trkpt><trkpt lat="33.1096535" lon="10.3030911"><ele>347.0</ele><time>2026-04-26T11:08:59.672Z</time></trkpt><trkpt lat="33.1096218" lon="10.3031816"><ele>347.0</ele><time>2026-04-26T11:09:00.713Z</time></trkpt><trkpt lat="33.1095751" lon="10.3032441"><ele>347.0</ele><time>2026-04-26T11:09:01.684Z</time></trkpt><trkpt lat="33.1095116" lon="10.3032623"><ele>347.0</ele><time>2026-04-26T11:09:02.711Z</time></trkpt><trkpt lat="33.1094332" lon="10.3032549"><ele>347.0</ele><time>2026-04-26T11:09:03.709Z</time></trkpt><trkpt lat="33.1093456" lon="10.3032111"><ele>347.0</ele><time>2026-04-26T11:09:04.709Z</time></trkpt><trkpt lat="33.1092672" lon="10.3031268"><ele>347.0</ele><time>2026-04-26T11:09:05.724Z</time></trkpt><trkpt lat="33.1091938" lon="10.3030104"><ele>347.0</ele><time>2026-04-26T11:09:06.71Z</time></trkpt><trkpt lat="33.1091372" lon="10.3028858"><ele>347.0</ele><time>2026-04-26T11:09:07.698Z</time></trkpt><trkpt lat="33.1090738" lon="10.3027403"><ele>345.0</ele><time>2026-04-26T11:09:08.708Z</time></trkpt><trkpt lat="33.1090046" lon="10.3026009"><ele>343.0</ele><time>2026-04-26T11:09:09.709Z</time></trkpt><trkpt lat="33.1089104" lon="10.3024755"><ele>341.0</ele><time>2026-04-26T11:09:10.703Z</time></trkpt><trkpt lat="33.1088116" lon="10.3023787"><ele>339.0</ele><time>2026-04-26T11:09:11.723Z</time></trkpt><trkpt lat="33.1086951" lon="10.3022943"><ele>339.5</ele><time>2026-04-26T11:09:12.713Z</time></trkpt><trkpt lat="33.108572" lon="10.3022296"><ele>340.0</ele><time>2026-04-26T11:09:13.7Z</time></trkpt><trkpt lat="33.1084461" lon="10.3021916"><ele>340.5</ele><time>2026-04-26T11:09:14.705Z</time></trkpt><trkpt lat="33.1083164" lon="10.3021668"><ele>341.0</ele><time>2026-04-26T11:09:15.714Z</time></trkpt><trkpt lat="33.1081808" lon="10.3021674"><ele>341.75</ele><time>2026-04-26T11:09:16.71Z</time></trkpt><trkpt lat="33.1080499" lon="10.3021945"><ele>342.5</ele><time>2026-04-26T11:09:17.685Z</time></trkpt><trkpt lat="33.1079201" lon="10.3022575"><ele>343.25</ele><time>2026-04-26T11:09:18.71Z</time></trkpt><trkpt lat="33.107796" lon="10.302361"><ele>344.0</ele><time>2026-04-26T11:09:19.712Z</time></trkpt><trkpt lat="33.1076802" lon="10.3024963"><ele>344.0</ele><time>2026-04-26T11:09:20.698Z</time></trkpt><trkpt lat="33.1075556" lon="10.3026617"><ele>344.0</ele><time>2026-04-26T11:09:21.715Z</time></trkpt><trkpt lat="33.1074312" lon="10.3028102"><ele>344.0</ele><time>2026-04-26T11:09:22.705Z</time></trkpt><trkpt lat="33.1073145" lon="10.3029646"><ele>344.6666666666667</ele><time>2026-04-26T11:09:23.713Z</time></trkpt><trkpt lat="33.1072119" lon="10.3031204"><ele>345.3333333333333</ele><time>2026-04-26T11:09:24.685Z</time></trkpt><trkpt lat="33.1071179" lon="10.3032766"><ele>346.0</ele><time>2026-04-26T11:09:25.685Z</time></trkpt><trkpt lat="33.107031" lon="10.3034275"><ele>346.0</ele><time>2026-04-26T11:09:26.791Z</time></trkpt><trkpt lat="33.1068453" lon="10.3037228"><ele>346.0</ele><time>2026-04-26T11:09:28.714Z</time></trkpt><trkpt lat="33.106764" lon="10.3038611"><ele>345.0</ele><time>2026-04-26T11:09:29.686Z</time></trkpt><trkpt lat="33.1067072" lon="10.3040081"><ele>344.0</ele><time>2026-04-26T11:09:30.7Z</time></trkpt><trkpt lat="33.1066752" lon="10.304165"><ele>343.0</ele><time>2026-04-26T11:09:31.706Z</time></trkpt><trkpt lat="33.1066723" lon="10.3043306"><ele>342.0</ele><time>2026-04-26T11:09:32.711Z</time></trkpt><trkpt lat="33.1066928" lon="10.3044942"><ele>342.0</ele><time>2026-04-26T11:09:33.707Z</time></trkpt><trkpt lat="33.1067163" lon="10.30465"><ele>342.0</ele><time>2026-04-26T11:09:34.701Z</time></trkpt><trkpt lat="33.1067344" lon="10.3048074"><ele>342.0</ele><time>2026-04-26T11:09:35.713Z</time></trkpt><trkpt lat="33.1067392" lon="10.3049537"><ele>342.0</ele><time>2026-04-26T11:09:36.697Z</time></trkpt><trkpt lat="33.1067364" lon="10.3050884"><ele>342.0</ele><time>2026-04-26T11:09:37.688Z</time></trkpt><trkpt lat="33.1067336" lon="10.3052217"><ele>342.0</ele><time>2026-04-26T11:09:38.704Z</time></trkpt><trkpt lat="33.1067296" lon="10.3053357"><ele>342.0</ele><time>2026-04-26T11:09:39.707Z</time></trkpt><trkpt lat="33.1067241" lon="10.3054428"><ele>342.0</ele><time>2026-04-26T11:09:40.702Z</time></trkpt><trkpt lat="33.1067297" lon="10.3055499"><ele>342.0</ele><time>2026-04-26T11:09:41.709Z</time></trkpt><trkpt lat="33.1067347" lon="10.3056577"><ele>342.8</ele><time>2026-04-26T11:09:42.703Z</time></trkpt><trkpt lat="33.106743" lon="10.3057708"><ele>343.6</ele><time>2026-04-26T11:09:43.707Z</time></trkpt><trkpt lat="33.1067551" lon="10.30588"><ele>344.40000000000003</ele><time>2026-04-26T11:09:44.716Z</time></trkpt><trkpt lat="33.1067702" lon="10.3059899"><ele>345.20000000000005</ele><time>2026-04-26T11:09:45.654Z</time></trkpt><trkpt lat="33.1067801" lon="10.3061003"><ele>346.0</ele><time>2026-04-26T11:09:46.708Z</time></trkpt><trkpt lat="33.1067867" lon="10.3062102"><ele>346.0</ele><time>2026-04-26T11:09:47.715Z</time></trkpt><trkpt lat="33.1067859" lon="10.3063207"><ele>346.0</ele><time>2026-04-26T11:09:48.7Z</time></trkpt><trkpt lat="33.1067777" lon="10.3064392"><ele>346.0</ele><time>2026-04-26T11:09:49.704Z</time></trkpt><trkpt lat="33.1067552" lon="10.3065541"><ele>346.0</ele><time>2026-04-26T11:09:50.806Z</time></trkpt><trkpt lat="33.1067208" lon="10.3066585"><ele>346.0</ele><time>2026-04-26T11:09:51.714Z</time></trkpt><trkpt lat="33.1066732" lon="10.3067666"><ele>346.20000000000005</ele><time>2026-04-26T11:09:52.714Z</time></trkpt><trkpt lat="33.1066097" lon="10.3068587"><ele>346.40000000000003</ele><time>2026-04-26T11:09:53.711Z</time></trkpt><trkpt lat="33.1065393" lon="10.3069369"><ele>346.6</ele><time>2026-04-26T11:09:54.709Z</time></trkpt><trkpt lat="33.10645" lon="10.3069985"><ele>346.8</ele><time>2026-04-26T11:09:55.673Z</time></trkpt><trkpt lat="33.1063669" lon="10.3070391"><ele>347.0</ele><time>2026-04-26T11:09:56.699Z</time></trkpt><trkpt lat="33.1062825" lon="10.307083"><ele>347.33333333333337</ele><time>2026-04-26T11:09:57.68Z</time></trkpt><trkpt lat="33.1061993" lon="10.3071196"><ele>347.6666666666667</ele><time>2026-04-26T11:09:58.698Z</time></trkpt><trkpt lat="33.1061211" lon="10.3071643"><ele>348.0</ele><time>2026-04-26T11:09:59.687Z</time></trkpt><trkpt lat="33.1060457" lon="10.3072162"><ele>348.3333333333333</ele><time>2026-04-26T11:10:00.7Z</time></trkpt><trkpt lat="33.1059789" lon="10.307286"><ele>348.66666666666663</ele><time>2026-04-26T11:10:01.694Z</time></trkpt><trkpt lat="33.1059187" lon="10.3073728"><ele>349.0</ele><time>2026-04-26T11:10:02.702Z</time></trkpt><trkpt lat="33.1058653" lon="10.3074716"><ele>349.0</ele><time>2026-04-26T11:10:03.708Z</time></trkpt><trkpt lat="33.1058193" lon="10.3075745"><ele>349.0</ele><time>2026-04-26T11:10:04.707Z</time></trkpt><trkpt lat="33.1057949" lon="10.3077092"><ele>349.0</ele><time>2026-04-26T11:10:05.683Z</time></trkpt><trkpt lat="33.1057739" lon="10.3078302"><ele>349.0</ele><time>2026-04-26T11:10:06.675Z</time></trkpt><trkpt lat="33.105752" lon="10.3079503"><ele>349.0</ele><time>2026-04-26T11:10:07.72Z</time></trkpt><trkpt lat="33.1057278" lon="10.3080702"><ele>350.2</ele><time>2026-04-26T11:10:08.717Z</time></trkpt><trkpt lat="33.1056996" lon="10.3081887"><ele>351.4</ele><time>2026-04-26T11:10:09.71Z</time></trkpt><trkpt lat="33.1056634" lon="10.308306"><ele>352.6</ele><time>2026-04-26T11:10:10.673Z</time></trkpt><trkpt lat="33.1056285" lon="10.3084184"><ele>353.8</ele><time>2026-04-26T11:10:11.701Z</time></trkpt><trkpt lat="33.1055966" lon="10.3085337"><ele>355.0</ele><time>2026-04-26T11:10:12.712Z</time></trkpt><trkpt lat="33.105566" lon="10.3086407"><ele>355.0</ele><time>2026-04-26T11:10:13.712Z</time></trkpt><trkpt lat="33.1055278" lon="10.3087526"><ele>355.0</ele><time>2026-04-26T11:10:14.709Z</time></trkpt><trkpt lat="33.1054863" lon="10.3088606"><ele>355.0</ele><time>2026-04-26T11:10:15.715Z</time></trkpt><trkpt lat="33.1054386" lon="10.3089722"><ele>355.0</ele><time>2026-04-26T11:10:16.712Z</time></trkpt><trkpt lat="33.1053874" lon="10.3090836"><ele>355.0</ele><time>2026-04-26T11:10:17.692Z</time></trkpt><trkpt lat="33.1053345" lon="10.3091961"><ele>354.4</ele><time>2026-04-26T11:10:18.704Z</time></trkpt><trkpt lat="33.1052814" lon="10.3093061"><ele>353.8</ele><time>2026-04-26T11:10:19.729Z</time></trkpt><trkpt lat="33.1052208" lon="10.3094067"><ele>353.20000000000005</ele><time>2026-04-26T11:10:20.721Z</time></trkpt><trkpt lat="33.1051434" lon="10.309497"><ele>352.6</ele><time>2026-04-26T11:10:21.706Z</time></trkpt><trkpt lat="33.1050563" lon="10.3095873"><ele>352.0</ele><time>2026-04-26T11:10:22.713Z</time></trkpt><trkpt lat="33.1049548" lon="10.3096728"><ele>353.75</ele><time>2026-04-26T11:10:23.725Z</time></trkpt><trkpt lat="33.1048498" lon="10.3097597"><ele>355.5</ele><time>2026-04-26T11:10:24.702Z</time></trkpt><trkpt lat="33.1047403" lon="10.3098305"><ele>357.25</ele><time>2026-04-26T11:10:25.719Z</time></trkpt><trkpt lat="33.1046296" lon="10.3099052"><ele>359.0</ele><time>2026-04-26T11:10:26.705Z</time></trkpt><trkpt lat="33.1045193" lon="10.3099815"><ele>359.0</ele><time>2026-04-26T11:10:27.694Z</time></trkpt><trkpt lat="33.1044152" lon="10.3100764"><ele>359.0</ele><time>2026-04-26T11:10:28.707Z</time></trkpt><trkpt lat="33.1043145" lon="10.3101966"><ele>359.0</ele><time>2026-04-26T11:10:29.715Z</time></trkpt><trkpt lat="33.1042216" lon="10.3103522"><ele>359.0</ele><time>2026-04-26T11:10:30.711Z</time></trkpt><trkpt lat="33.1041269" lon="10.3105319"><ele>358.6666666666667</ele><time>2026-04-26T11:10:31.7Z</time></trkpt><trkpt lat="33.1040183" lon="10.3107053"><ele>358.3333333333333</ele><time>2026-04-26T11:10:32.706Z</time></trkpt><trkpt lat="33.1039017" lon="10.3108662"><ele>358.0</ele><time>2026-04-26T11:10:33.711Z</time></trkpt><trkpt lat="33.1037791" lon="10.3110095"><ele>358.0</ele><time>2026-04-26T11:10:34.706Z</time></trkpt><trkpt lat="33.1036489" lon="10.3111442"><ele>358.0</ele><time>2026-04-26T11:10:35.703Z</time></trkpt><trkpt lat="33.103516" lon="10.311272"><ele>358.0</ele><time>2026-04-26T11:10:36.702Z</time></trkpt><trkpt lat="33.1033801" lon="10.3113822"><ele>360.3333333333333</ele><time>2026-04-26T11:10:37.698Z</time></trkpt><trkpt lat="33.103242" lon="10.3114605"><ele>362.6666666666667</ele><time>2026-04-26T11:10:38.71Z</time></trkpt><trkpt lat="33.1030907" lon="10.3115293"><ele>365.0</ele><time>2026-04-26T11:10:39.711Z</time></trkpt><trkpt lat="33.1029345" lon="10.3115844"><ele>365.0</ele><time>2026-04-26T11:10:40.7Z</time></trkpt><trkpt lat="33.1027817" lon="10.3116353"><ele>365.0</ele><time>2026-04-26T11:10:41.712Z</time></trkpt><trkpt lat="33.1026197" lon="10.311672"><ele>365.0</ele><time>2026-04-26T11:10:42.712Z</time></trkpt><trkpt lat="33.1024613" lon="10.3117068"><ele>366.33333333333337</ele><time>2026-04-26T11:10:43.712Z</time></trkpt><trkpt lat="33.1023002" lon="10.3117439"><ele>367.6666666666667</ele><time>2026-04-26T11:10:44.704Z</time></trkpt><trkpt lat="33.1021478" lon="10.3117785"><ele>369.0</ele><time>2026-04-26T11:10:45.707Z</time></trkpt><trkpt lat="33.1019965" lon="10.311811"><ele>369.0</ele><time>2026-04-26T11:10:46.655Z</time></trkpt><trkpt lat="33.101853" lon="10.3118519"><ele>369.0</ele><time>2026-04-26T11:10:47.688Z</time></trkpt><trkpt lat="33.1017203" lon="10.3118858"><ele>369.0</ele><time>2026-04-26T11:10:48.705Z</time></trkpt><trkpt lat="33.1015871" lon="10.3119173"><ele>369.0</ele><time>2026-04-26T11:10:49.694Z</time></trkpt><trkpt lat="33.1014627" lon="10.3119452"><ele>372.25</ele><time>2026-04-26T11:10:50.699Z</time></trkpt><trkpt lat="33.1013419" lon="10.3119723"><ele>375.5</ele><time>2026-04-26T11:10:51.683Z</time></trkpt><trkpt lat="33.101229" lon="10.3119831"><ele>378.75</ele><time>2026-04-26T11:10:52.704Z</time></trkpt><trkpt lat="33.1011184" lon="10.3119823"><ele>382.0</ele><time>2026-04-26T11:10:53.694Z</time></trkpt><trkpt lat="33.1010103" lon="10.3119639"><ele>382.0</ele><time>2026-04-26T11:10:54.711Z</time></trkpt><trkpt lat="33.1008952" lon="10.3119411"><ele>382.0</ele><time>2026-04-26T11:10:55.71Z</time></trkpt><trkpt lat="33.1007856" lon="10.311901"><ele>382.0</ele><time>2026-04-26T11:10:56.709Z</time></trkpt><trkpt lat="33.1006799" lon="10.3118547"><ele>382.0</ele><time>2026-04-26T11:10:57.699Z</time></trkpt><trkpt lat="33.1005685" lon="10.3118187"><ele>382.0</ele><time>2026-04-26T11:10:58.705Z</time></trkpt><trkpt lat="33.1004607" lon="10.3117868"><ele>382.0</ele><time>2026-04-26T11:10:59.741Z</time></trkpt><trkpt lat="33.1003598" lon="10.3117702"><ele>382.0</ele><time>2026-04-26T11:11:00.724Z</time></trkpt><trkpt lat="33.1002697" lon="10.3117586"><ele>382.0</ele><time>2026-04-26T11:11:01.705Z</time></trkpt><trkpt lat="33.1001764" lon="10.3117535"><ele>382.0</ele><time>2026-04-26T11:11:02.677Z</time></trkpt><trkpt lat="33.1000894" lon="10.3117469"><ele>382.0</ele><time>2026-04-26T11:11:03.736Z</time></trkpt><trkpt lat="33.0999924" lon="10.3117359"><ele>382.0</ele><time>2026-04-26T11:11:04.715Z</time></trkpt><trkpt lat="33.0998936" lon="10.3117269"><ele>382.0</ele><time>2026-04-26T11:11:05.716Z</time></trkpt><trkpt lat="33.0997868" lon="10.311717"><ele>382.0</ele><time>2026-04-26T11:11:06.709Z</time></trkpt><trkpt lat="33.0996732" lon="10.3117038"><ele>382.0</ele><time>2026-04-26T11:11:07.691Z</time></trkpt><trkpt lat="33.0995605" lon="10.3116964"><ele>381.0</ele><time>2026-04-26T11:11:08.711Z</time></trkpt><trkpt lat="33.0994401" lon="10.3116834"><ele>380.0</ele><time>2026-04-26T11:11:09.714Z</time></trkpt><trkpt lat="33.0993173" lon="10.311668"><ele>379.0</ele><time>2026-04-26T11:11:10.72Z</time></trkpt><trkpt lat="33.0991847" lon="10.3116512"><ele>378.0</ele><time>2026-04-26T11:11:11.7Z</time></trkpt><trkpt lat="33.0990556" lon="10.3116328"><ele>377.0</ele><time>2026-04-26T11:11:12.706Z</time></trkpt><trkpt lat="33.0989214" lon="10.3116174"><ele>376.0</ele><time>2026-04-26T11:11:13.721Z</time></trkpt><trkpt lat="33.0987883" lon="10.3115963"><ele>375.0</ele><time>2026-04-26T11:11:14.707Z</time></trkpt><trkpt lat="33.0986677" lon="10.3115781"><ele>374.0</ele><time>2026-04-26T11:11:15.677Z</time></trkpt><trkpt lat="33.0985444" lon="10.3115642"><ele>374.0</ele><time>2026-04-26T11:11:16.702Z</time></trkpt><trkpt lat="33.0984187" lon="10.3115473"><ele>374.0</ele><time>2026-04-26T11:11:17.659Z</time></trkpt><trkpt lat="33.0982988" lon="10.3115344"><ele>374.0</ele><time>2026-04-26T11:11:18.677Z</time></trkpt><trkpt lat="33.0981876" lon="10.3115253"><ele>374.0</ele><time>2026-04-26T11:11:19.687Z</time></trkpt><trkpt lat="33.0980752" lon="10.3115074"><ele>373.2</ele><time>2026-04-26T11:11:20.702Z</time></trkpt><trkpt lat="33.0979625" lon="10.3114918"><ele>372.4</ele><time>2026-04-26T11:11:21.71Z</time></trkpt><trkpt lat="33.0978531" lon="10.3114793"><ele>371.6</ele><time>2026-04-26T11:11:22.71Z</time></trkpt><trkpt lat="33.0977449" lon="10.3114757"><ele>370.8</ele><time>2026-04-26T11:11:23.709Z</time></trkpt><trkpt lat="33.0976357" lon="10.3114988"><ele>370.0</ele><time>2026-04-26T11:11:24.712Z</time></trkpt><trkpt lat="33.0975315" lon="10.3115257"><ele>370.0</ele><time>2026-04-26T11:11:25.711Z</time></trkpt><trkpt lat="33.0974335" lon="10.3115755"><ele>370.0</ele><time>2026-04-26T11:11:26.699Z</time></trkpt><trkpt lat="33.0973281" lon="10.3116477"><ele>370.0</ele><time>2026-04-26T11:11:27.698Z</time></trkpt><trkpt lat="33.0972276" lon="10.31172"><ele>370.0</ele><time>2026-04-26T11:11:28.687Z</time></trkpt><trkpt lat="33.0971326" lon="10.3117935"><ele>369.25</ele><time>2026-04-26T11:11:29.707Z</time></trkpt><trkpt lat="33.0970357" lon="10.311868"><ele>368.5</ele><time>2026-04-26T11:11:30.703Z</time></trkpt><trkpt lat="33.0969413" lon="10.3119502"><ele>367.75</ele><time>2026-04-26T11:11:31.704Z</time></trkpt><trkpt lat="33.0968518" lon="10.3120263"><ele>367.0</ele><time>2026-04-26T11:11:32.71Z</time></trkpt><trkpt lat="33.0967639" lon="10.3121041"><ele>367.0</ele><time>2026-04-26T11:11:33.662Z</time></trkpt><trkpt lat="33.0966791" lon="10.3121803"><ele>367.0</ele><time>2026-04-26T11:11:34.707Z</time></trkpt><trkpt lat="33.0965974" lon="10.3122701"><ele>367.0</ele><time>2026-04-26T11:11:35.687Z</time></trkpt><trkpt lat="33.0965154" lon="10.3123725"><ele>367.0</ele><time>2026-04-26T11:11:36.693Z</time></trkpt><trkpt lat="33.0964268" lon="10.3124744"><ele>365.25</ele><time>2026-04-26T11:11:37.757Z</time></trkpt><trkpt lat="33.096333" lon="10.3125787"><ele>363.5</ele><time>2026-04-26T11:11:38.701Z</time></trkpt><trkpt lat="33.0962386" lon="10.312688"><ele>361.75</ele><time>2026-04-26T11:11:39.727Z</time></trkpt><trkpt lat="33.0961357" lon="10.3128005"><ele>360.0</ele><time>2026-04-26T11:11:40.71Z</time></trkpt><trkpt lat="33.0960143" lon="10.3129024"><ele>360.0</ele><time>2026-04-26T11:11:41.709Z</time></trkpt><trkpt lat="33.0958773" lon="10.3129891"><ele>360.0</ele><time>2026-04-26T11:11:42.7Z</time></trkpt><trkpt lat="33.0957353" lon="10.3130577"><ele>360.0</ele><time>2026-04-26T11:11:43.709Z</time></trkpt><trkpt lat="33.0955977" lon="10.3131219"><ele>361.0</ele><time>2026-04-26T11:11:44.713Z</time></trkpt><trkpt lat="33.0954666" lon="10.3131727"><ele>362.0</ele><time>2026-04-26T11:11:45.714Z</time></trkpt><trkpt lat="33.0953293" lon="10.3132074"><ele>363.0</ele><time>2026-04-26T11:11:46.712Z</time></trkpt><trkpt lat="33.0952023" lon="10.3132113"><ele>364.0</ele><time>2026-04-26T11:11:47.707Z</time></trkpt><trkpt lat="33.0950756" lon="10.3132075"><ele>364.0</ele><time>2026-04-26T11:11:48.678Z</time></trkpt><trkpt lat="33.0949498" lon="10.3132001"><ele>364.0</ele><time>2026-04-26T11:11:49.704Z</time></trkpt><trkpt lat="33.0948118" lon="10.3131931"><ele>364.0</ele><time>2026-04-26T11:11:50.675Z</time></trkpt><trkpt lat="33.0946687" lon="10.313182"><ele>364.0</ele><time>2026-04-26T11:11:51.714Z</time></trkpt><trkpt lat="33.0945229" lon="10.3131629"><ele>363.25</ele><time>2026-04-26T11:11:52.695Z</time></trkpt><trkpt lat="33.0943737" lon="10.313136"><ele>362.5</ele><time>2026-04-26T11:11:53.706Z</time></trkpt><trkpt lat="33.0942277" lon="10.3131115"><ele>361.75</ele><time>2026-04-26T11:11:54.714Z</time></trkpt><trkpt lat="33.094081" lon="10.3130735"><ele>361.0</ele><time>2026-04-26T11:11:55.713Z</time></trkpt><trkpt lat="33.093938" lon="10.3130228"><ele>360.66666666666663</ele><time>2026-04-26T11:11:56.707Z</time></trkpt><trkpt lat="33.0937978" lon="10.3129594"><ele>360.3333333333333</ele><time>2026-04-26T11:11:57.737Z</time></trkpt><trkpt lat="33.0936504" lon="10.312881"><ele>360.0</ele><time>2026-04-26T11:11:58.704Z</time></trkpt><trkpt lat="33.0934906" lon="10.3127824"><ele>360.0</ele><time>2026-04-26T11:11:59.711Z</time></trkpt><trkpt lat="33.0933223" lon="10.3126801"><ele>360.0</ele><time>2026-04-26T11:12:00.705Z</time></trkpt><trkpt lat="33.0931481" lon="10.3125764"><ele>360.0</ele><time>2026-04-26T11:12:01.705Z</time></trkpt><trkpt lat="33.0929682" lon="10.3124731"><ele>358.3333333333333</ele><time>2026-04-26T11:12:02.704Z</time></trkpt><trkpt lat="33.0927847" lon="10.3123794"><ele>356.66666666666663</ele><time>2026-04-26T11:12:03.712Z</time></trkpt><trkpt lat="33.0925959" lon="10.3122836"><ele>355.0</ele><time>2026-04-26T11:12:04.692Z</time></trkpt><trkpt lat="33.0924078" lon="10.3121911"><ele>353.3333333333333</ele><time>2026-04-26T11:12:05.705Z</time></trkpt><trkpt lat="33.0922217" lon="10.3121096"><ele>351.6666666666667</ele><time>2026-04-26T11:12:06.724Z</time></trkpt><trkpt lat="33.0920357" lon="10.3120512"><ele>350.0</ele><time>2026-04-26T11:12:07.707Z</time></trkpt><trkpt lat="33.0918476" lon="10.311996"><ele>350.0</ele><time>2026-04-26T11:12:08.712Z</time></trkpt><trkpt lat="33.091666" lon="10.3119494"><ele>350.0</ele><time>2026-04-26T11:12:09.7Z</time></trkpt><trkpt lat="33.0914835" lon="10.3119177"><ele>350.0</ele><time>2026-04-26T11:12:10.694Z</time></trkpt><trkpt lat="33.0913068" lon="10.3118943"><ele>351.0</ele><time>2026-04-26T11:12:11.699Z</time></trkpt><trkpt lat="33.0911333" lon="10.3118847"><ele>352.0</ele><time>2026-04-26T11:12:12.706Z</time></trkpt><trkpt lat="33.0909543" lon="10.3119027"><ele>353.0</ele><time>2026-04-26T11:12:13.708Z</time></trkpt><trkpt lat="33.0907808" lon="10.3119501"><ele>353.6666666666667</ele><time>2026-04-26T11:12:14.673Z</time></trkpt><trkpt lat="33.0906036" lon="10.312022"><ele>354.3333333333333</ele><time>2026-04-26T11:12:15.676Z</time></trkpt><trkpt lat="33.0904404" lon="10.3121133"><ele>355.0</ele><time>2026-04-26T11:12:16.731Z</time></trkpt><trkpt lat="33.0902762" lon="10.3122167"><ele>354.0</ele><time>2026-04-26T11:12:17.71Z</time></trkpt><trkpt lat="33.0901083" lon="10.3123191"><ele>353.0</ele><time>2026-04-26T11:12:18.673Z</time></trkpt><trkpt lat="33.0899401" lon="10.3124242"><ele>352.0</ele><time>2026-04-26T11:12:19.702Z</time></trkpt><trkpt lat="33.0897769" lon="10.3125292"><ele>351.66666666666663</ele><time>2026-04-26T11:12:20.705Z</time></trkpt><trkpt lat="33.089607" lon="10.312636"><ele>351.3333333333333</ele><time>2026-04-26T11:12:21.703Z</time></trkpt><trkpt lat="33.0894329" lon="10.3127396"><ele>351.0</ele><time>2026-04-26T11:12:22.713Z</time></trkpt><trkpt lat="33.0892646" lon="10.3128442"><ele>351.0</ele><time>2026-04-26T11:12:23.662Z</time></trkpt><trkpt lat="33.0890936" lon="10.3129429"><ele>351.0</ele><time>2026-04-26T11:12:24.688Z</time></trkpt><trkpt lat="33.0889243" lon="10.3130405"><ele>351.0</ele><time>2026-04-26T11:12:25.722Z</time></trkpt><trkpt lat="33.0887564" lon="10.3131369"><ele>349.6666666666667</ele><time>2026-04-26T11:12:26.699Z</time></trkpt><trkpt lat="33.0885839" lon="10.3132274"><ele>348.33333333333337</ele><time>2026-04-26T11:12:27.694Z</time></trkpt><trkpt lat="33.0884114" lon="10.3133182"><ele>347.0</ele><time>2026-04-26T11:12:28.728Z</time></trkpt><trkpt lat="33.0882408" lon="10.3134113"><ele>346.0</ele><time>2026-04-26T11:12:29.708Z</time></trkpt><trkpt lat="33.088068" lon="10.3135092"><ele>345.0</ele><time>2026-04-26T11:12:30.706Z</time></trkpt><trkpt lat="33.0878967" lon="10.3136095"><ele>344.0</ele><time>2026-04-26T11:12:31.7Z</time></trkpt><trkpt lat="33.0877269" lon="10.3137123"><ele>344.0</ele><time>2026-04-26T11:12:32.702Z</time></trkpt><trkpt lat="33.0875604" lon="10.3138182"><ele>344.0</ele><time>2026-04-26T11:12:33.716Z</time></trkpt><trkpt lat="33.087394" lon="10.3139329"><ele>344.0</ele><time>2026-04-26T11:12:34.696Z</time></trkpt><trkpt lat="33.087227" lon="10.3140429"><ele>346.0</ele><time>2026-04-26T11:12:35.708Z</time></trkpt><trkpt lat="33.0870549" lon="10.3141587"><ele>348.0</ele><time>2026-04-26T11:12:36.654Z</time></trkpt><trkpt lat="33.086885" lon="10.3142754"><ele>350.0</ele><time>2026-04-26T11:12:37.645Z</time></trkpt><trkpt lat="33.0867103" lon="10.3143862"><ele>350.6666666666667</ele><time>2026-04-26T11:12:38.694Z</time></trkpt><trkpt lat="33.0865355" lon="10.3144986"><ele>351.3333333333333</ele><time>2026-04-26T11:12:39.645Z</time></trkpt><trkpt lat="33.0863681" lon="10.3146166"><ele>352.0</ele><time>2026-04-26T11:12:40.647Z</time></trkpt><trkpt lat="33.0862036" lon="10.3147366"><ele>352.0</ele><time>2026-04-26T11:12:41.645Z</time></trkpt><trkpt lat="33.0860359" lon="10.3148519"><ele>352.0</ele><time>2026-04-26T11:12:42.644Z</time></trkpt><trkpt lat="33.0858698" lon="10.3149668"><ele>352.0</ele><time>2026-04-26T11:12:43.645Z</time></trkpt><trkpt lat="33.0857024" lon="10.3150779"><ele>353.66666666666663</ele><time>2026-04-26T11:12:44.659Z</time></trkpt><trkpt lat="33.0855335" lon="10.3151835"><ele>355.3333333333333</ele><time>2026-04-26T11:12:45.67Z</time></trkpt><trkpt lat="33.0853714" lon="10.3152893"><ele>357.0</ele><time>2026-04-26T11:12:46.655Z</time></trkpt><trkpt lat="33.0852146" lon="10.3153894"><ele>357.0</ele><time>2026-04-26T11:12:47.658Z</time></trkpt><trkpt lat="33.0850556" lon="10.3154719"><ele>357.0</ele><time>2026-04-26T11:12:48.649Z</time></trkpt><trkpt lat="33.0848954" lon="10.3155412"><ele>357.0</ele><time>2026-04-26T11:12:49.683Z</time></trkpt><trkpt lat="33.0847268" lon="10.3155755"><ele>356.3333333333333</ele><time>2026-04-26T11:12:50.691Z</time></trkpt><trkpt lat="33.0845453" lon="10.3155949"><ele>355.66666666666663</ele><time>2026-04-26T11:12:51.696Z</time></trkpt><trkpt lat="33.0843577" lon="10.3156059"><ele>355.0</ele><time>2026-04-26T11:12:52.702Z</time></trkpt><trkpt lat="33.0841741" lon="10.3156138"><ele>355.3333333333333</ele><time>2026-04-26T11:12:53.717Z</time></trkpt><trkpt lat="33.0839885" lon="10.315615"><ele>355.6666666666667</ele><time>2026-04-26T11:12:54.689Z</time></trkpt><trkpt lat="33.0838021" lon="10.3156213"><ele>356.0</ele><time>2026-04-26T11:12:55.666Z</time></trkpt><trkpt lat="33.0836032" lon="10.3156304"><ele>356.0</ele><time>2026-04-26T11:12:56.691Z</time></trkpt><trkpt lat="33.0834082" lon="10.3156386"><ele>356.0</ele><time>2026-04-26T11:12:57.706Z</time></trkpt><trkpt lat="33.0832143" lon="10.315647"><ele>356.0</ele><time>2026-04-26T11:12:58.682Z</time></trkpt><trkpt lat="33.0830204" lon="10.3156589"><ele>356.33333333333337</ele><time>2026-04-26T11:12:59.684Z</time></trkpt><trkpt lat="33.0828258" lon="10.3156724"><ele>356.6666666666667</ele><time>2026-04-26T11:13:00.687Z</time></trkpt><trkpt lat="33.0826268" lon="10.3156806"><ele>357.0</ele><time>2026-04-26T11:13:01.69Z</time></trkpt><trkpt lat="33.0824248" lon="10.3156868"><ele>356.0</ele><time>2026-04-26T11:13:02.707Z</time></trkpt><trkpt lat="33.0822284" lon="10.315696"><ele>355.0</ele><time>2026-04-26T11:13:03.668Z</time></trkpt><trkpt lat="33.0820378" lon="10.3157013"><ele>354.0</ele><time>2026-04-26T11:13:04.687Z</time></trkpt><trkpt lat="33.081854" lon="10.3157042"><ele>354.0</ele><time>2026-04-26T11:13:05.688Z</time></trkpt><trkpt lat="33.0816791" lon="10.3157081"><ele>354.0</ele><time>2026-04-26T11:13:06.659Z</time></trkpt><trkpt lat="33.0815146" lon="10.3157143"><ele>354.0</ele><time>2026-04-26T11:13:07.786Z</time></trkpt><trkpt lat="33.0813589" lon="10.3157284"><ele>352.6666666666667</ele><time>2026-04-26T11:13:08.727Z</time></trkpt><trkpt lat="33.0812052" lon="10.3157497"><ele>351.33333333333337</ele><time>2026-04-26T11:13:09.745Z</time></trkpt><trkpt lat="33.0810579" lon="10.315791"><ele>350.0</ele><time>2026-04-26T11:13:10.709Z</time></trkpt><trkpt lat="33.080916" lon="10.315856"><ele>350.0</ele><time>2026-04-26T11:13:11.69Z</time></trkpt><trkpt lat="33.0807758" lon="10.3159332"><ele>350.0</ele><time>2026-04-26T11:13:12.715Z</time></trkpt><trkpt lat="33.0806299" lon="10.3160137"><ele>350.0</ele><time>2026-04-26T11:13:13.686Z</time></trkpt><trkpt lat="33.0804802" lon="10.3161143"><ele>347.33333333333337</ele><time>2026-04-26T11:13:14.737Z</time></trkpt><trkpt lat="33.0803291" lon="10.3162282"><ele>344.6666666666667</ele><time>2026-04-26T11:13:15.739Z</time></trkpt><trkpt lat="33.0801853" lon="10.3163391"><ele>342.0</ele><time>2026-04-26T11:13:16.753Z</time></trkpt><trkpt lat="33.0800371" lon="10.3164482"><ele>340.3333333333333</ele><time>2026-04-26T11:13:17.713Z</time></trkpt><trkpt lat="33.0798891" lon="10.3165577"><ele>338.66666666666663</ele><time>2026-04-26T11:13:18.748Z</time></trkpt><trkpt lat="33.0797323" lon="10.316669"><ele>337.0</ele><time>2026-04-26T11:13:19.729Z</time></trkpt><trkpt lat="33.0795701" lon="10.3167903"><ele>337.0</ele><time>2026-04-26T11:13:20.763Z</time></trkpt><trkpt lat="33.0794115" lon="10.3169053"><ele>337.0</ele><time>2026-04-26T11:13:21.759Z</time></trkpt><trkpt lat="33.0792517" lon="10.3170238"><ele>337.0</ele><time>2026-04-26T11:13:22.77Z</time></trkpt><trkpt lat="33.0790916" lon="10.3171373"><ele>335.66666666666663</ele><time>2026-04-26T11:13:23.721Z</time></trkpt><trkpt lat="33.0789286" lon="10.3172442"><ele>334.3333333333333</ele><time>2026-04-26T11:13:24.765Z</time></trkpt><trkpt lat="33.0787635" lon="10.3173399"><ele>333.0</ele><time>2026-04-26T11:13:25.748Z</time></trkpt><trkpt lat="33.0785951" lon="10.3174187"><ele>333.0</ele><time>2026-04-26T11:13:26.731Z</time></trkpt><trkpt lat="33.0784223" lon="10.3174752"><ele>333.0</ele><time>2026-04-26T11:13:27.739Z</time></trkpt><trkpt lat="33.0782564" lon="10.3175262"><ele>333.0</ele><time>2026-04-26T11:13:28.769Z</time></trkpt><trkpt lat="33.0780821" lon="10.3175531"><ele>333.0</ele><time>2026-04-26T11:13:29.759Z</time></trkpt><trkpt lat="33.0779043" lon="10.3175672"><ele>333.0</ele><time>2026-04-26T11:13:30.715Z</time></trkpt><trkpt lat="33.0777156" lon="10.3175835"><ele>333.0</ele><time>2026-04-26T11:13:31.709Z</time></trkpt><trkpt lat="33.0775257" lon="10.3175968"><ele>332.6666666666667</ele><time>2026-04-26T11:13:32.735Z</time></trkpt><trkpt lat="33.0773312" lon="10.3176071"><ele>332.33333333333337</ele><time>2026-04-26T11:13:33.771Z</time></trkpt><trkpt lat="33.0771418" lon="10.3176187"><ele>332.0</ele><time>2026-04-26T11:13:34.76Z</time></trkpt><trkpt lat="33.0769552" lon="10.3176279"><ele>332.0</ele><time>2026-04-26T11:13:35.741Z</time></trkpt><trkpt lat="33.0767716" lon="10.317649"><ele>332.0</ele><time>2026-04-26T11:13:36.724Z</time></trkpt><trkpt lat="33.0765907" lon="10.3176937"><ele>332.0</ele><time>2026-04-26T11:13:37.731Z</time></trkpt><trkpt lat="33.0764203" lon="10.3177662"><ele>332.33333333333337</ele><time>2026-04-26T11:13:38.724Z</time></trkpt><trkpt lat="33.0762517" lon="10.3178589"><ele>332.6666666666667</ele><time>2026-04-26T11:13:39.722Z</time></trkpt><trkpt lat="33.0760903" lon="10.3179795"><ele>333.0</ele><time>2026-04-26T11:13:40.737Z</time></trkpt><trkpt lat="33.0759313" lon="10.3181126"><ele>333.0</ele><time>2026-04-26T11:13:41.712Z</time></trkpt><trkpt lat="33.0757761" lon="10.3182443"><ele>333.0</ele><time>2026-04-26T11:13:42.74Z</time></trkpt><trkpt lat="33.0756241" lon="10.3183871"><ele>333.0</ele><time>2026-04-26T11:13:43.724Z</time></trkpt><trkpt lat="33.0754867" lon="10.3185401"><ele>333.0</ele><time>2026-04-26T11:13:44.761Z</time></trkpt><trkpt lat="33.0753635" lon="10.3187024"><ele>333.0</ele><time>2026-04-26T11:13:45.746Z</time></trkpt><trkpt lat="33.0752446" lon="10.3188639"><ele>333.0</ele><time>2026-04-26T11:13:46.774Z</time></trkpt><trkpt lat="33.0751263" lon="10.3190134"><ele>333.0</ele><time>2026-04-26T11:13:47.777Z</time></trkpt><trkpt lat="33.0750105" lon="10.319148"><ele>333.0</ele><time>2026-04-26T11:13:48.737Z</time></trkpt><trkpt lat="33.0748806" lon="10.3192725"><ele>333.0</ele><time>2026-04-26T11:13:49.758Z</time></trkpt><trkpt lat="33.0747301" lon="10.3193902"><ele>333.0</ele><time>2026-04-26T11:13:50.767Z</time></trkpt><trkpt lat="33.0745573" lon="10.3194862"><ele>333.0</ele><time>2026-04-26T11:13:51.744Z</time></trkpt><trkpt lat="33.074363" lon="10.3195688"><ele>333.0</ele><time>2026-04-26T11:13:52.764Z</time></trkpt><trkpt lat="33.0741736" lon="10.3196329"><ele>332.6666666666667</ele><time>2026-04-26T11:13:53.771Z</time></trkpt><trkpt lat="33.0739884" lon="10.3196911"><ele>332.33333333333337</ele><time>2026-04-26T11:13:54.779Z</time></trkpt><trkpt lat="33.0738097" lon="10.3197595"><ele>332.0</ele><time>2026-04-26T11:13:55.765Z</time></trkpt><trkpt lat="33.0736243" lon="10.3198353"><ele>329.6666666666667</ele><time>2026-04-26T11:13:56.75Z</time></trkpt><trkpt lat="33.0734448" lon="10.3198962"><ele>327.3333333333333</ele><time>2026-04-26T11:13:57.737Z</time></trkpt><trkpt lat="33.0732659" lon="10.3199481"><ele>325.0</ele><time>2026-04-26T11:13:58.766Z</time></trkpt><trkpt lat="33.0730893" lon="10.3199787"><ele>324.3333333333333</ele><time>2026-04-26T11:13:59.731Z</time></trkpt><trkpt lat="33.0729032" lon="10.3199742"><ele>323.6666666666667</ele><time>2026-04-26T11:14:00.764Z</time></trkpt><trkpt lat="33.0727203" lon="10.3199513"><ele>323.0</ele><time>2026-04-26T11:14:01.78Z</time></trkpt><trkpt lat="33.0725399" lon="10.3199198"><ele>321.33333333333337</ele><time>2026-04-26T11:14:02.757Z</time></trkpt><trkpt lat="33.072365" lon="10.3198981"><ele>319.6666666666667</ele><time>2026-04-26T11:14:03.762Z</time></trkpt><trkpt lat="33.0721849" lon="10.3198765"><ele>318.0</ele><time>2026-04-26T11:14:04.75Z</time></trkpt><trkpt lat="33.072014" lon="10.3198594"><ele>318.0</ele><time>2026-04-26T11:14:05.752Z</time></trkpt><trkpt lat="33.0718344" lon="10.3198377"><ele>318.0</ele><time>2026-04-26T11:14:06.726Z</time></trkpt><trkpt lat="33.0716618" lon="10.3198162"><ele>318.0</ele><time>2026-04-26T11:14:07.731Z</time></trkpt><trkpt lat="33.0714909" lon="10.3197948"><ele>316.3333333333333</ele><time>2026-04-26T11:14:08.734Z</time></trkpt><trkpt lat="33.0713221" lon="10.3197705"><ele>314.66666666666663</ele><time>2026-04-26T11:14:09.754Z</time></trkpt><trkpt lat="33.0711627" lon="10.319744"><ele>313.0</ele><time>2026-04-26T11:14:10.747Z</time></trkpt><trkpt lat="33.071002" lon="10.319715"><ele>318.66666666666663</ele><time>2026-04-26T11:14:11.774Z</time></trkpt><trkpt lat="33.070846" lon="10.3196902"><ele>324.3333333333333</ele><time>2026-04-26T11:14:12.774Z</time></trkpt><trkpt lat="33.0706931" lon="10.3196703"><ele>330.0</ele><time>2026-04-26T11:14:13.77Z</time></trkpt><trkpt lat="33.0705471" lon="10.3196635"><ele>330.5</ele><time>2026-04-26T11:14:14.74Z</time></trkpt><trkpt lat="33.0704068" lon="10.31966"><ele>331.0</ele><time>2026-04-26T11:14:15.771Z</time></trkpt><trkpt lat="33.0702738" lon="10.3196659"><ele>331.5</ele><time>2026-04-26T11:14:16.744Z</time></trkpt><trkpt lat="33.0701438" lon="10.3196824"><ele>332.0</ele><time>2026-04-26T11:14:17.762Z</time></trkpt><trkpt lat="33.0700174" lon="10.31972"><ele>329.75</ele><time>2026-04-26T11:14:18.749Z</time></trkpt><trkpt lat="33.0698952" lon="10.3197757"><ele>327.5</ele><time>2026-04-26T11:14:19.778Z</time></trkpt><trkpt lat="33.0697813" lon="10.3198566"><ele>325.25</ele><time>2026-04-26T11:14:20.76Z</time></trkpt><trkpt lat="33.0696814" lon="10.3199552"><ele>323.0</ele><time>2026-04-26T11:14:21.762Z</time></trkpt><trkpt lat="33.0695854" lon="10.320069"><ele>323.0</ele><time>2026-04-26T11:14:22.737Z</time></trkpt><trkpt lat="33.0695012" lon="10.3201734"><ele>323.0</ele><time>2026-04-26T11:14:23.763Z</time></trkpt><trkpt lat="33.0694144" lon="10.3202711"><ele>323.0</ele><time>2026-04-26T11:14:24.745Z</time></trkpt><trkpt lat="33.0693261" lon="10.3203595"><ele>323.0</ele><time>2026-04-26T11:14:25.769Z</time></trkpt><trkpt lat="33.0692325" lon="10.3204251"><ele>323.0</ele><time>2026-04-26T11:14:26.761Z</time></trkpt><trkpt lat="33.0691303" lon="10.3204618"><ele>323.0</ele><time>2026-04-26T11:14:27.714Z</time></trkpt><trkpt lat="33.0690065" lon="10.3204733"><ele>323.0</ele><time>2026-04-26T11:14:28.77Z</time></trkpt><trkpt lat="33.0688819" lon="10.3204666"><ele>323.0</ele><time>2026-04-26T11:14:29.733Z</time></trkpt><trkpt lat="33.0687549" lon="10.3204444"><ele>322.25</ele><time>2026-04-26T11:14:30.77Z</time></trkpt><trkpt lat="33.0686229" lon="10.3204123"><ele>321.5</ele><time>2026-04-26T11:14:31.767Z</time></trkpt><trkpt lat="33.0684975" lon="10.320378"><ele>320.75</ele><time>2026-04-26T11:14:32.761Z</time></trkpt><trkpt lat="33.0683661" lon="10.3203383"><ele>320.0</ele><time>2026-04-26T11:14:33.759Z</time></trkpt><trkpt lat="33.068234" lon="10.3202962"><ele>319.0</ele><time>2026-04-26T11:14:34.72Z</time></trkpt><trkpt lat="33.0681015" lon="10.3202511"><ele>318.0</ele><time>2026-04-26T11:14:35.735Z</time></trkpt><trkpt lat="33.0679637" lon="10.3202029"><ele>317.0</ele><time>2026-04-26T11:14:36.731Z</time></trkpt><trkpt lat="33.0678263" lon="10.3201579"><ele>316.0</ele><time>2026-04-26T11:14:37.749Z</time></trkpt><trkpt lat="33.0676885" lon="10.3201116"><ele>316.0</ele><time>2026-04-26T11:14:38.743Z</time></trkpt><trkpt lat="33.0675499" lon="10.3200628"><ele>316.0</ele><time>2026-04-26T11:14:39.751Z</time></trkpt><trkpt lat="33.0674118" lon="10.320005"><ele>316.0</ele><time>2026-04-26T11:14:40.715Z</time></trkpt><trkpt lat="33.0672747" lon="10.3199372"><ele>316.0</ele><time>2026-04-26T11:14:41.692Z</time></trkpt><trkpt lat="33.0671446" lon="10.3198543"><ele>315.66666666666663</ele><time>2026-04-26T11:14:42.756Z</time></trkpt><trkpt lat="33.067015" lon="10.3197597"><ele>315.3333333333333</ele><time>2026-04-26T11:14:43.757Z</time></trkpt><trkpt lat="33.0668828" lon="10.319664"><ele>315.0</ele><time>2026-04-26T11:14:44.763Z</time></trkpt><trkpt lat="33.0667588" lon="10.3195739"><ele>315.0</ele><time>2026-04-26T11:14:45.742Z</time></trkpt><trkpt lat="33.0666355" lon="10.3194852"><ele>315.0</ele><time>2026-04-26T11:14:46.745Z</time></trkpt><trkpt lat="33.0665149" lon="10.3193988"><ele>315.0</ele><time>2026-04-26T11:14:47.764Z</time></trkpt><trkpt lat="33.0664098" lon="10.3193206"><ele>315.0</ele><time>2026-04-26T11:14:48.758Z</time></trkpt><trkpt lat="33.0663142" lon="10.319249"><ele>314.6666666666667</ele><time>2026-04-26T11:14:49.713Z</time></trkpt><trkpt lat="33.0662296" lon="10.3191854"><ele>314.3333333333333</ele><time>2026-04-26T11:14:50.775Z</time></trkpt><trkpt lat="33.0661625" lon="10.3191368"><ele>314.0</ele><time>2026-04-26T11:14:51.75Z</time></trkpt><trkpt lat="33.0661022" lon="10.3190958"><ele>313.66666666666663</ele><time>2026-04-26T11:14:52.76Z</time></trkpt><trkpt lat="33.0660427" lon="10.3190583"><ele>313.3333333333333</ele><time>2026-04-26T11:14:53.739Z</time></trkpt><trkpt lat="33.06597" lon="10.3190154"><ele>313.0</ele><time>2026-04-26T11:14:54.767Z</time></trkpt><trkpt lat="33.065886" lon="10.3189639"><ele>312.25</ele><time>2026-04-26T11:14:55.771Z</time></trkpt><trkpt lat="33.0657881" lon="10.318899"><ele>311.5</ele><time>2026-04-26T11:14:56.774Z</time></trkpt><trkpt lat="33.0656803" lon="10.318821"><ele>310.75</ele><time>2026-04-26T11:14:57.771Z</time></trkpt><trkpt lat="33.0655643" lon="10.3187324"><ele>310.0</ele><time>2026-04-26T11:14:58.761Z</time></trkpt><trkpt lat="33.0654448" lon="10.3186378"><ele>308.66666666666663</ele><time>2026-04-26T11:14:59.713Z</time></trkpt><trkpt lat="33.0653185" lon="10.3185377"><ele>307.3333333333333</ele><time>2026-04-26T11:15:00.732Z</time></trkpt><trkpt lat="33.0651917" lon="10.318435"><ele>306.0</ele><time>2026-04-26T11:15:01.741Z</time></trkpt><trkpt lat="33.0650673" lon="10.3183299"><ele>306.3333333333333</ele><time>2026-04-26T11:15:02.75Z</time></trkpt><trkpt lat="33.064938" lon="10.3182249"><ele>306.66666666666663</ele><time>2026-04-26T11:15:03.721Z</time></trkpt><trkpt lat="33.0648051" lon="10.3181194"><ele>307.0</ele><time>2026-04-26T11:15:04.733Z</time></trkpt><trkpt lat="33.0646718" lon="10.3180235"><ele>306.25</ele><time>2026-04-26T11:15:05.743Z</time></trkpt><trkpt lat="33.0645417" lon="10.3179274"><ele>305.5</ele><time>2026-04-26T11:15:06.713Z</time></trkpt><trkpt lat="33.0644141" lon="10.3178335"><ele>304.75</ele><time>2026-04-26T11:15:07.76Z</time></trkpt><trkpt lat="33.0642938" lon="10.3177367"><ele>304.0</ele><time>2026-04-26T11:15:08.737Z</time></trkpt><trkpt lat="33.0641736" lon="10.3176409"><ele>303.0</ele><time>2026-04-26T11:15:09.747Z</time></trkpt><trkpt lat="33.0640582" lon="10.3175521"><ele>302.0</ele><time>2026-04-26T11:15:10.735Z</time></trkpt><trkpt lat="33.0639424" lon="10.3174627"><ele>301.0</ele><time>2026-04-26T11:15:11.755Z</time></trkpt><trkpt lat="33.0638285" lon="10.3173738"><ele>300.0</ele><time>2026-04-26T11:15:12.748Z</time></trkpt><trkpt lat="33.0637167" lon="10.3172843"><ele>301.0</ele><time>2026-04-26T11:15:13.766Z</time></trkpt><trkpt lat="33.0636062" lon="10.3171998"><ele>302.0</ele><time>2026-04-26T11:15:14.763Z</time></trkpt><trkpt lat="33.0634996" lon="10.3171164"><ele>303.0</ele><time>2026-04-26T11:15:15.762Z</time></trkpt><trkpt lat="33.0633993" lon="10.3170374"><ele>304.0</ele><time>2026-04-26T11:15:16.779Z</time></trkpt><trkpt lat="33.0633068" lon="10.3169488"><ele>303.0</ele><time>2026-04-26T11:15:17.783Z</time></trkpt><trkpt lat="33.0632226" lon="10.3168555"><ele>302.0</ele><time>2026-04-26T11:15:18.758Z</time></trkpt><trkpt lat="33.0631478" lon="10.3167504"><ele>301.0</ele><time>2026-04-26T11:15:19.769Z</time></trkpt><trkpt lat="33.0630748" lon="10.3166293"><ele>300.0</ele><time>2026-04-26T11:15:20.763Z</time></trkpt><trkpt lat="33.0630068" lon="10.3165038"><ele>299.75</ele><time>2026-04-26T11:15:21.767Z</time></trkpt><trkpt lat="33.062934" lon="10.3163743"><ele>299.5</ele><time>2026-04-26T11:15:22.774Z</time></trkpt><trkpt lat="33.0628645" lon="10.3162458"><ele>299.25</ele><time>2026-04-26T11:15:23.772Z</time></trkpt><trkpt lat="33.0627943" lon="10.3161078"><ele>299.0</ele><time>2026-04-26T11:15:24.731Z</time></trkpt><trkpt lat="33.0627262" lon="10.315969"><ele>299.0</ele><time>2026-04-26T11:15:25.753Z</time></trkpt><trkpt lat="33.0626519" lon="10.3158244"><ele>299.0</ele><time>2026-04-26T11:15:26.765Z</time></trkpt><trkpt lat="33.0625738" lon="10.3156851"><ele>299.0</ele><time>2026-04-26T11:15:27.727Z</time></trkpt><trkpt lat="33.0624944" lon="10.3155524"><ele>299.0</ele><time>2026-04-26T11:15:28.75Z</time></trkpt><trkpt lat="33.0624161" lon="10.3154194"><ele>298.0</ele><time>2026-04-26T11:15:29.774Z</time></trkpt><trkpt lat="33.0623358" lon="10.3152922"><ele>297.0</ele><time>2026-04-26T11:15:30.759Z</time></trkpt><trkpt lat="33.0622473" lon="10.315176"><ele>296.0</ele><time>2026-04-26T11:15:31.77Z</time></trkpt><trkpt lat="33.062153" lon="10.3150751"><ele>295.0</ele><time>2026-04-26T11:15:32.744Z</time></trkpt><trkpt lat="33.0620488" lon="10.3150012"><ele>295.0</ele><time>2026-04-26T11:15:33.767Z</time></trkpt><trkpt lat="33.0619354" lon="10.3149347"><ele>295.0</ele><time>2026-04-26T11:15:34.755Z</time></trkpt><trkpt lat="33.0618263" lon="10.3148977"><ele>295.0</ele><time>2026-04-26T11:15:35.756Z</time></trkpt><trkpt lat="33.0617196" lon="10.3148871"><ele>295.0</ele><time>2026-04-26T11:15:36.746Z</time></trkpt><trkpt lat="33.0616181" lon="10.3149086"><ele>294.0</ele><time>2026-04-26T11:15:37.769Z</time></trkpt><trkpt lat="33.0615176" lon="10.3149578"><ele>293.0</ele><time>2026-04-26T11:15:38.76Z</time></trkpt><trkpt lat="33.0614193" lon="10.3150288"><ele>292.0</ele><time>2026-04-26T11:15:39.729Z</time></trkpt><trkpt lat="33.0613203" lon="10.3151045"><ele>291.0</ele><time>2026-04-26T11:15:40.766Z</time></trkpt><trkpt lat="33.061224" lon="10.3152005"><ele>291.0</ele><time>2026-04-26T11:15:41.751Z</time></trkpt><trkpt lat="33.0611284" lon="10.3153106"><ele>291.0</ele><time>2026-04-26T11:15:42.759Z</time></trkpt><trkpt lat="33.06104" lon="10.315427"><ele>291.0</ele><time>2026-04-26T11:15:43.766Z</time></trkpt><trkpt lat="33.0609572" lon="10.3155505"><ele>291.0</ele><time>2026-04-26T11:15:44.732Z</time></trkpt><trkpt lat="33.0608827" lon="10.3156861"><ele>291.0</ele><time>2026-04-26T11:15:45.751Z</time></trkpt><trkpt lat="33.0608198" lon="10.3158287"><ele>291.0</ele><time>2026-04-26T11:15:46.77Z</time></trkpt><trkpt lat="33.0607637" lon="10.3159782"><ele>291.0</ele><time>2026-04-26T11:15:47.762Z</time></trkpt><trkpt lat="33.060717" lon="10.3161257"><ele>291.0</ele><time>2026-04-26T11:15:48.768Z</time></trkpt><trkpt lat="33.0606761" lon="10.3162639"><ele>291.2</ele><time>2026-04-26T11:15:49.731Z</time></trkpt><trkpt lat="33.0606399" lon="10.3163953"><ele>291.40000000000003</ele><time>2026-04-26T11:15:50.699Z</time></trkpt><trkpt lat="33.060604" lon="10.3165217"><ele>291.6</ele><time>2026-04-26T11:15:51.759Z</time></trkpt><trkpt lat="33.0605643" lon="10.3166377"><ele>291.8</ele><time>2026-04-26T11:15:52.745Z</time></trkpt><trkpt lat="33.0605277" lon="10.3167351"><ele>292.0</ele><time>2026-04-26T11:15:53.767Z</time></trkpt><trkpt lat="33.0604862" lon="10.3168369"><ele>292.2</ele><time>2026-04-26T11:15:54.757Z</time></trkpt><trkpt lat="33.0604423" lon="10.3169291"><ele>292.4</ele><time>2026-04-26T11:15:55.756Z</time></trkpt><trkpt lat="33.0603961" lon="10.3170244"><ele>292.6</ele><time>2026-04-26T11:15:56.764Z</time></trkpt><trkpt lat="33.0603414" lon="10.3171294"><ele>292.8</ele><time>2026-04-26T11:15:57.75Z</time></trkpt><trkpt lat="33.0602916" lon="10.3172316"><ele>293.0</ele><time>2026-04-26T11:15:58.762Z</time></trkpt><trkpt lat="33.0602358" lon="10.317339"><ele>293.0</ele><time>2026-04-26T11:15:59.743Z</time></trkpt><trkpt lat="33.0601794" lon="10.3174409"><ele>293.0</ele><time>2026-04-26T11:16:00.729Z</time></trkpt><trkpt lat="33.060117" lon="10.3175371"><ele>293.0</ele><time>2026-04-26T11:16:01.747Z</time></trkpt><trkpt lat="33.0600523" lon="10.3176372"><ele>293.0</ele><time>2026-04-26T11:16:02.77Z</time></trkpt><trkpt lat="33.0599856" lon="10.3177379"><ele>293.0</ele><time>2026-04-26T11:16:03.764Z</time></trkpt><trkpt lat="33.0599113" lon="10.3178342"><ele>294.25</ele><time>2026-04-26T11:16:04.772Z</time></trkpt><trkpt lat="33.0598316" lon="10.317928"><ele>295.5</ele><time>2026-04-26T11:16:05.767Z</time></trkpt><trkpt lat="33.0597445" lon="10.3180159"><ele>296.75</ele><time>2026-04-26T11:16:06.767Z</time></trkpt><trkpt lat="33.0596536" lon="10.3181004"><ele>298.0</ele><time>2026-04-26T11:16:07.763Z</time></trkpt><trkpt lat="33.0595605" lon="10.3181923"><ele>298.0</ele><time>2026-04-26T11:16:08.746Z</time></trkpt><trkpt lat="33.0594606" lon="10.3182864"><ele>298.0</ele><time>2026-04-26T11:16:09.728Z</time></trkpt><trkpt lat="33.0593586" lon="10.318377"><ele>298.0</ele><time>2026-04-26T11:16:10.766Z</time></trkpt><trkpt lat="33.0592615" lon="10.3184572"><ele>298.0</ele><time>2026-04-26T11:16:11.764Z</time></trkpt><trkpt lat="33.0591674" lon="10.3185379"><ele>299.6</ele><time>2026-04-26T11:16:12.764Z</time></trkpt><trkpt lat="33.05908" lon="10.3186151"><ele>301.20000000000005</ele><time>2026-04-26T11:16:13.751Z</time></trkpt><trkpt lat="33.059" lon="10.3186813"><ele>302.8</ele><time>2026-04-26T11:16:14.759Z</time></trkpt><trkpt lat="33.0589261" lon="10.3187368"><ele>304.40000000000003</ele><time>2026-04-26T11:16:15.766Z</time></trkpt><trkpt lat="33.0588343" lon="10.3188054"><ele>306.0</ele><time>2026-04-26T11:16:17.771Z</time></trkpt><trkpt lat="33.0587625" lon="10.3188577"><ele>305.5</ele><time>2026-04-26T11:16:20.75Z</time></trkpt><trkpt lat="33.0587388" lon="10.3189388"><ele>305.0</ele><time>2026-04-26T11:17:13.69Z</time></trkpt><trkpt lat="33.0586545" lon="10.3190198"><ele>304.5</ele><time>2026-04-26T11:17:22.658Z</time></trkpt><trkpt lat="33.0586027" lon="10.319065"><ele>304.0</ele><time>2026-04-26T11:17:23.661Z</time></trkpt><trkpt lat="33.0585419" lon="10.3191142"><ele>303.5</ele><time>2026-04-26T11:17:24.658Z</time></trkpt><trkpt lat="33.0584818" lon="10.3191615"><ele>303.0</ele><time>2026-04-26T11:17:25.698Z</time></trkpt><trkpt lat="33.0582686" lon="10.3193029"><ele>302.4</ele><time>2026-04-26T11:17:28.649Z</time></trkpt><trkpt lat="33.0581267" lon="10.3193746"><ele>301.8</ele><time>2026-04-26T11:17:30.65Z</time></trkpt><trkpt lat="33.0580456" lon="10.3193824"><ele>301.2</ele><time>2026-04-26T11:17:31.654Z</time></trkpt><trkpt lat="33.057957" lon="10.319392"><ele>300.6</ele><time>2026-04-26T11:17:32.666Z</time></trkpt><trkpt lat="33.057849" lon="10.3193863"><ele>300.0</ele><time>2026-04-26T11:17:33.648Z</time></trkpt><trkpt lat="33.0577357" lon="10.319387"><ele>300.0</ele><time>2026-04-26T11:17:34.647Z</time></trkpt><trkpt lat="33.0576146" lon="10.3193783"><ele>300.0</ele><time>2026-04-26T11:17:35.643Z</time></trkpt><trkpt lat="33.0574864" lon="10.3193777"><ele>300.0</ele><time>2026-04-26T11:17:36.647Z</time></trkpt><trkpt lat="33.0573678" lon="10.3193711"><ele>300.0</ele><time>2026-04-26T11:17:37.669Z</time></trkpt><trkpt lat="33.0572449" lon="10.3193627"><ele>298.5</ele><time>2026-04-26T11:17:38.646Z</time></trkpt><trkpt lat="33.0571265" lon="10.3193639"><ele>297.0</ele><time>2026-04-26T11:17:39.648Z</time></trkpt><trkpt lat="33.0570052" lon="10.3193718"><ele>295.5</ele><time>2026-04-26T11:17:40.689Z</time></trkpt><trkpt lat="33.0568824" lon="10.3193881"><ele>294.0</ele><time>2026-04-26T11:17:41.677Z</time></trkpt><trkpt lat="33.0567571" lon="10.3194223"><ele>294.0</ele><time>2026-04-26T11:17:42.658Z</time></trkpt><trkpt lat="33.0566228" lon="10.3194794"><ele>294.0</ele><time>2026-04-26T11:17:43.647Z</time></trkpt><trkpt lat="33.0564859" lon="10.3195515"><ele>294.0</ele><time>2026-04-26T11:17:44.654Z</time></trkpt><trkpt lat="33.0563593" lon="10.3196402"><ele>294.0</ele><time>2026-04-26T11:17:45.663Z</time></trkpt><trkpt lat="33.0562384" lon="10.319736"><ele>294.5</ele><time>2026-04-26T11:17:46.643Z</time></trkpt><trkpt lat="33.0561316" lon="10.3198253"><ele>295.0</ele><time>2026-04-26T11:17:47.653Z</time></trkpt><trkpt lat="33.0560266" lon="10.3199026"><ele>295.5</ele><time>2026-04-26T11:17:48.679Z</time></trkpt><trkpt lat="33.0559223" lon="10.3199662"><ele>296.0</ele><time>2026-04-26T11:17:49.674Z</time></trkpt><trkpt lat="33.0558426" lon="10.3200154"><ele>295.83333333333337</ele><time>2026-04-26T11:17:50.661Z</time></trkpt><trkpt lat="33.0557789" lon="10.3200506"><ele>295.6666666666667</ele><time>2026-04-26T11:17:51.658Z</time></trkpt><trkpt lat="33.0557146" lon="10.3200772"><ele>295.5</ele><time>2026-04-26T11:17:52.664Z</time></trkpt><trkpt lat="33.055647" lon="10.3200954"><ele>295.3333333333333</ele><time>2026-04-26T11:17:53.669Z</time></trkpt><trkpt lat="33.0555655" lon="10.3201063"><ele>295.16666666666663</ele><time>2026-04-26T11:17:54.669Z</time></trkpt><trkpt lat="33.055478" lon="10.3201099"><ele>295.0</ele><time>2026-04-26T11:17:55.664Z</time></trkpt><trkpt lat="33.0553685" lon="10.3200915"><ele>295.0</ele><time>2026-04-26T11:17:56.663Z</time></trkpt><trkpt lat="33.0552487" lon="10.3200647"><ele>295.0</ele><time>2026-04-26T11:17:57.657Z</time></trkpt><trkpt lat="33.0551249" lon="10.3200403"><ele>295.0</ele><time>2026-04-26T11:17:58.67Z</time></trkpt><trkpt lat="33.0550029" lon="10.3200046"><ele>295.0</ele><time>2026-04-26T11:17:59.678Z</time></trkpt><trkpt lat="33.0548713" lon="10.3199753"><ele>294.0</ele><time>2026-04-26T11:18:00.677Z</time></trkpt><trkpt lat="33.0547336" lon="10.3199487"><ele>293.0</ele><time>2026-04-26T11:18:01.665Z</time></trkpt><trkpt lat="33.0546015" lon="10.3199217"><ele>292.0</ele><time>2026-04-26T11:18:02.649Z</time></trkpt><trkpt lat="33.0544679" lon="10.3198962"><ele>291.0</ele><time>2026-04-26T11:18:03.702Z</time></trkpt><trkpt lat="33.0543346" lon="10.3199113"><ele>291.0</ele><time>2026-04-26T11:18:04.656Z</time></trkpt><trkpt lat="33.0541981" lon="10.3199527"><ele>291.0</ele><time>2026-04-26T11:18:05.653Z</time></trkpt><trkpt lat="33.0540568" lon="10.3200238"><ele>291.0</ele><time>2026-04-26T11:18:06.686Z</time></trkpt><trkpt lat="33.0539177" lon="10.3201252"><ele>292.0</ele><time>2026-04-26T11:18:07.663Z</time></trkpt><trkpt lat="33.0537711" lon="10.3202342"><ele>293.0</ele><time>2026-04-26T11:18:08.657Z</time></trkpt><trkpt lat="33.053632" lon="10.320353"><ele>294.0</ele><time>2026-04-26T11:18:09.678Z</time></trkpt><trkpt lat="33.053491" lon="10.3204723"><ele>292.6666666666667</ele><time>2026-04-26T11:18:10.679Z</time></trkpt><trkpt lat="33.0533631" lon="10.3205971"><ele>291.33333333333337</ele><time>2026-04-26T11:18:11.658Z</time></trkpt><trkpt lat="33.0532505" lon="10.320725"><ele>290.0</ele><time>2026-04-26T11:18:12.676Z</time></trkpt><trkpt lat="33.0531493" lon="10.3208518"><ele>289.75</ele><time>2026-04-26T11:18:13.666Z</time></trkpt><trkpt lat="33.0530501" lon="10.3209716"><ele>289.5</ele><time>2026-04-26T11:18:14.674Z</time></trkpt><trkpt lat="33.0529472" lon="10.3210928"><ele>289.25</ele><time>2026-04-26T11:18:15.675Z</time></trkpt><trkpt lat="33.0528486" lon="10.3212115"><ele>289.0</ele><time>2026-04-26T11:18:16.667Z</time></trkpt><trkpt lat="33.0527515" lon="10.3213223"><ele>289.59999999999997</ele><time>2026-04-26T11:18:17.664Z</time></trkpt><trkpt lat="33.0526612" lon="10.3214264"><ele>290.2</ele><time>2026-04-26T11:18:18.674Z</time></trkpt><trkpt lat="33.0525769" lon="10.3215208"><ele>290.79999999999995</ele><time>2026-04-26T11:18:19.676Z</time></trkpt><trkpt lat="33.0524993" lon="10.3216089"><ele>291.4</ele><time>2026-04-26T11:18:20.677Z</time></trkpt><trkpt lat="33.0524312" lon="10.3216839"><ele>292.0</ele><time>2026-04-26T11:18:21.663Z</time></trkpt><trkpt lat="33.0523796" lon="10.3217397"><ele>292.1428571428571</ele><time>2026-04-26T11:18:22.662Z</time></trkpt><trkpt lat="33.0523263" lon="10.321786"><ele>292.2857142857143</ele><time>2026-04-26T11:18:23.673Z</time></trkpt><trkpt lat="33.0522721" lon="10.321845"><ele>292.42857142857144</ele><time>2026-04-26T11:18:24.666Z</time></trkpt><trkpt lat="33.0522109" lon="10.3219086"><ele>292.57142857142856</ele><time>2026-04-26T11:18:25.663Z</time></trkpt><trkpt lat="33.0521496" lon="10.3219579"><ele>292.7142857142857</ele><time>2026-04-26T11:18:26.672Z</time></trkpt><trkpt lat="33.0520871" lon="10.3220057"><ele>292.85714285714283</ele><time>2026-04-26T11:18:27.674Z</time></trkpt><trkpt lat="33.0520305" lon="10.3220516"><ele>293.0</ele><time>2026-04-26T11:18:28.666Z</time></trkpt><trkpt lat="33.0519762" lon="10.3220926"><ele>293.0</ele><time>2026-04-26T11:18:29.669Z</time></trkpt><trkpt lat="33.0518743" lon="10.3221744"><ele>293.0</ele><time>2026-04-26T11:18:31.662Z</time></trkpt><trkpt lat="33.0518098" lon="10.3222304"><ele>293.0</ele><time>2026-04-26T11:18:32.683Z</time></trkpt><trkpt lat="33.051739" lon="10.322291"><ele>293.0</ele><time>2026-04-26T11:18:33.685Z</time></trkpt><trkpt lat="33.0516527" lon="10.3223589"><ele>293.0</ele><time>2026-04-26T11:18:34.669Z</time></trkpt><trkpt lat="33.051557" lon="10.3224265"><ele>294.0</ele><time>2026-04-26T11:18:35.66Z</time></trkpt><trkpt lat="33.0514507" lon="10.3224925"><ele>295.0</ele><time>2026-04-26T11:18:36.664Z</time></trkpt><trkpt lat="33.0513377" lon="10.3225586"><ele>296.0</ele><time>2026-04-26T11:18:37.661Z</time></trkpt><trkpt lat="33.0512128" lon="10.3226296"><ele>297.0</ele><time>2026-04-26T11:18:38.663Z</time></trkpt><trkpt lat="33.0510871" lon="10.3226937"><ele>297.0</ele><time>2026-04-26T11:18:39.669Z</time></trkpt><trkpt lat="33.0509567" lon="10.322744"><ele>297.0</ele><time>2026-04-26T11:18:40.666Z</time></trkpt><trkpt lat="33.0508202" lon="10.3227968"><ele>297.0</ele><time>2026-04-26T11:18:41.662Z</time></trkpt><trkpt lat="33.0506715" lon="10.3228401"><ele>297.0</ele><time>2026-04-26T11:18:42.676Z</time></trkpt><trkpt lat="33.0505268" lon="10.3228834"><ele>298.0</ele><time>2026-04-26T11:18:43.663Z</time></trkpt><trkpt lat="33.050381" lon="10.3229298"><ele>299.0</ele><time>2026-04-26T11:18:44.666Z</time></trkpt><trkpt lat="33.0502287" lon="10.3229738"><ele>300.0</ele><time>2026-04-26T11:18:45.663Z</time></trkpt><trkpt lat="33.050079" lon="10.3230145"><ele>301.0</ele><time>2026-04-26T11:18:46.676Z</time></trkpt><trkpt lat="33.0499317" lon="10.3230571"><ele>302.0</ele><time>2026-04-26T11:18:47.666Z</time></trkpt><trkpt lat="33.0497857" lon="10.3231028"><ele>303.0</ele><time>2026-04-26T11:18:48.673Z</time></trkpt><trkpt lat="33.0496396" lon="10.3231645"><ele>301.0</ele><time>2026-04-26T11:18:49.668Z</time></trkpt><trkpt lat="33.0494927" lon="10.3232287"><ele>299.0</ele><time>2026-04-26T11:18:50.659Z</time></trkpt><trkpt lat="33.0493507" lon="10.3233042"><ele>297.0</ele><time>2026-04-26T11:18:51.663Z</time></trkpt><trkpt lat="33.0492225" lon="10.3234023"><ele>298.3333333333333</ele><time>2026-04-26T11:18:52.662Z</time></trkpt><trkpt lat="33.0491111" lon="10.3235129"><ele>299.66666666666663</ele><time>2026-04-26T11:18:53.685Z</time></trkpt><trkpt lat="33.0490002" lon="10.3236355"><ele>301.0</ele><time>2026-04-26T11:18:54.679Z</time></trkpt><trkpt lat="33.0488998" lon="10.3237818"><ele>300.0</ele><time>2026-04-26T11:18:55.677Z</time></trkpt><trkpt lat="33.0488155" lon="10.3239404"><ele>299.0</ele><time>2026-04-26T11:18:56.66Z</time></trkpt><trkpt lat="33.0487419" lon="10.3241189"><ele>298.0</ele><time>2026-04-26T11:18:57.666Z</time></trkpt><trkpt lat="33.0486862" lon="10.3243051"><ele>298.0</ele><time>2026-04-26T11:18:58.673Z</time></trkpt><trkpt lat="33.0486474" lon="10.3244936"><ele>298.0</ele><time>2026-04-26T11:18:59.679Z</time></trkpt><trkpt lat="33.0486178" lon="10.3246799"><ele>298.0</ele><time>2026-04-26T11:19:00.658Z</time></trkpt><trkpt lat="33.048592" lon="10.3248655"><ele>298.3333333333333</ele><time>2026-04-26T11:19:01.663Z</time></trkpt><trkpt lat="33.0485697" lon="10.3250493"><ele>298.6666666666667</ele><time>2026-04-26T11:19:02.675Z</time></trkpt><trkpt lat="33.0485304" lon="10.3252357"><ele>299.0</ele><time>2026-04-26T11:19:03.683Z</time></trkpt><trkpt lat="33.0484707" lon="10.3254111"><ele>299.33333333333337</ele><time>2026-04-26T11:19:04.666Z</time></trkpt><trkpt lat="33.0483943" lon="10.3255734"><ele>299.6666666666667</ele><time>2026-04-26T11:19:05.663Z</time></trkpt><trkpt lat="33.048269" lon="10.3257134"><ele>300.0</ele><time>2026-04-26T11:19:06.678Z</time></trkpt><trkpt lat="33.0481395" lon="10.3258405"><ele>302.6666666666667</ele><time>2026-04-26T11:19:07.663Z</time></trkpt><trkpt lat="33.0479993" lon="10.3259519"><ele>305.33333333333337</ele><time>2026-04-26T11:19:08.661Z</time></trkpt><trkpt lat="33.0478572" lon="10.3260621"><ele>308.0</ele><time>2026-04-26T11:19:09.665Z</time></trkpt><trkpt lat="33.0477161" lon="10.3261678"><ele>308.0</ele><time>2026-04-26T11:19:10.68Z</time></trkpt><trkpt lat="33.0475804" lon="10.326274"><ele>308.0</ele><time>2026-04-26T11:19:11.671Z</time></trkpt><trkpt lat="33.047439" lon="10.3263894"><ele>308.0</ele><time>2026-04-26T11:19:12.664Z</time></trkpt><trkpt lat="33.0473011" lon="10.326501"><ele>309.6666666666667</ele><time>2026-04-26T11:19:13.667Z</time></trkpt><trkpt lat="33.0471686" lon="10.3266379"><ele>311.3333333333333</ele><time>2026-04-26T11:19:14.666Z</time></trkpt><trkpt lat="33.0470448" lon="10.3267899"><ele>313.0</ele><time>2026-04-26T11:19:15.66Z</time></trkpt><trkpt lat="33.0469378" lon="10.3269495"><ele>313.0</ele><time>2026-04-26T11:19:16.667Z</time></trkpt><trkpt lat="33.0468321" lon="10.3271225"><ele>313.0</ele><time>2026-04-26T11:19:17.668Z</time></trkpt><trkpt lat="33.0467216" lon="10.3272929"><ele>313.0</ele><time>2026-04-26T11:19:18.68Z</time></trkpt><trkpt lat="33.0466209" lon="10.3274652"><ele>313.3333333333333</ele><time>2026-04-26T11:19:19.672Z</time></trkpt><trkpt lat="33.046528" lon="10.3276418"><ele>313.6666666666667</ele><time>2026-04-26T11:19:20.678Z</time></trkpt><trkpt lat="33.0464446" lon="10.3278291"><ele>314.0</ele><time>2026-04-26T11:19:21.672Z</time></trkpt><trkpt lat="33.0463705" lon="10.3280282"><ele>316.0</ele><time>2026-04-26T11:19:22.674Z</time></trkpt><trkpt lat="33.0463078" lon="10.3282302"><ele>318.0</ele><time>2026-04-26T11:19:23.677Z</time></trkpt><trkpt lat="33.04624" lon="10.3284335"><ele>320.0</ele><time>2026-04-26T11:19:24.671Z</time></trkpt><trkpt lat="33.0461695" lon="10.3286283"><ele>320.0</ele><time>2026-04-26T11:19:25.662Z</time></trkpt><trkpt lat="33.0460992" lon="10.3288123"><ele>320.0</ele><time>2026-04-26T11:19:26.661Z</time></trkpt><trkpt lat="33.0460256" lon="10.3289823"><ele>320.0</ele><time>2026-04-26T11:19:27.671Z</time></trkpt><trkpt lat="33.0459427" lon="10.329137"><ele>319.6666666666667</ele><time>2026-04-26T11:19:28.679Z</time></trkpt><trkpt lat="33.0458426" lon="10.3292852"><ele>319.3333333333333</ele><time>2026-04-26T11:19:29.669Z</time></trkpt><trkpt lat="33.0457276" lon="10.3294204"><ele>319.0</ele><time>2026-04-26T11:19:30.676Z</time></trkpt><trkpt lat="33.0455989" lon="10.3295442"><ele>319.0</ele><time>2026-04-26T11:19:31.684Z</time></trkpt><trkpt lat="33.0454678" lon="10.3296574"><ele>319.0</ele><time>2026-04-26T11:19:32.66Z</time></trkpt><trkpt lat="33.0453267" lon="10.3297687"><ele>319.0</ele><time>2026-04-26T11:19:33.675Z</time></trkpt><trkpt lat="33.045183" lon="10.3298679"><ele>321.0</ele><time>2026-04-26T11:19:34.679Z</time></trkpt><trkpt lat="33.0450345" lon="10.3299675"><ele>323.0</ele><time>2026-04-26T11:19:35.668Z</time></trkpt><trkpt lat="33.044884" lon="10.3300706"><ele>325.0</ele><time>2026-04-26T11:19:36.675Z</time></trkpt><trkpt lat="33.0447335" lon="10.3301696"><ele>326.66666666666663</ele><time>2026-04-26T11:19:37.684Z</time></trkpt><trkpt lat="33.0445771" lon="10.3302436"><ele>328.3333333333333</ele><time>2026-04-26T11:19:38.671Z</time></trkpt><trkpt lat="33.0444186" lon="10.3303073"><ele>330.0</ele><time>2026-04-26T11:19:39.673Z</time></trkpt><trkpt lat="33.0442517" lon="10.3303517"><ele>330.3333333333333</ele><time>2026-04-26T11:19:40.673Z</time></trkpt><trkpt lat="33.0440818" lon="10.3303859"><ele>330.66666666666663</ele><time>2026-04-26T11:19:41.67Z</time></trkpt><trkpt lat="33.0439166" lon="10.3304099"><ele>331.0</ele><time>2026-04-26T11:19:42.68Z</time></trkpt><trkpt lat="33.0437533" lon="10.3304332"><ele>331.0</ele><time>2026-04-26T11:19:43.677Z</time></trkpt><trkpt lat="33.0435875" lon="10.3304594"><ele>331.0</ele><time>2026-04-26T11:19:44.68Z</time></trkpt><trkpt lat="33.0434172" lon="10.3304878"><ele>331.0</ele><time>2026-04-26T11:19:45.687Z</time></trkpt><trkpt lat="33.0432395" lon="10.3305157"><ele>330.0</ele><time>2026-04-26T11:19:46.678Z</time></trkpt><trkpt lat="33.0430589" lon="10.3305496"><ele>329.0</ele><time>2026-04-26T11:19:47.672Z</time></trkpt><trkpt lat="33.0428788" lon="10.3305876"><ele>328.0</ele><time>2026-04-26T11:19:48.671Z</time></trkpt><trkpt lat="33.0426942" lon="10.3306246"><ele>327.66666666666663</ele><time>2026-04-26T11:19:49.67Z</time></trkpt><trkpt lat="33.042502" lon="10.3306563"><ele>327.3333333333333</ele><time>2026-04-26T11:19:50.676Z</time></trkpt><trkpt lat="33.0423124" lon="10.3306947"><ele>327.0</ele><time>2026-04-26T11:19:51.674Z</time></trkpt><trkpt lat="33.042121" lon="10.3307322"><ele>327.0</ele><time>2026-04-26T11:19:52.671Z</time></trkpt><trkpt lat="33.0419292" lon="10.3307745"><ele>327.0</ele><time>2026-04-26T11:19:53.681Z</time></trkpt><trkpt lat="33.0417366" lon="10.3308221"><ele>327.0</ele><time>2026-04-26T11:19:54.674Z</time></trkpt><trkpt lat="33.0415429" lon="10.3308669"><ele>327.0</ele><time>2026-04-26T11:19:55.672Z</time></trkpt><trkpt lat="33.0413549" lon="10.3309146"><ele>327.0</ele><time>2026-04-26T11:19:56.671Z</time></trkpt><trkpt lat="33.0411755" lon="10.3309616"><ele>327.0</ele><time>2026-04-26T11:19:57.68Z</time></trkpt><trkpt lat="33.0409941" lon="10.3310057"><ele>327.0</ele><time>2026-04-26T11:19:58.681Z</time></trkpt><trkpt lat="33.0408141" lon="10.331046"><ele>327.0</ele><time>2026-04-26T11:19:59.686Z</time></trkpt><trkpt lat="33.0406343" lon="10.3310918"><ele>327.0</ele><time>2026-04-26T11:20:00.668Z</time></trkpt><trkpt lat="33.0404581" lon="10.3311319"><ele>327.0</ele><time>2026-04-26T11:20:01.696Z</time></trkpt><trkpt lat="33.0402831" lon="10.331175"><ele>327.0</ele><time>2026-04-26T11:20:02.671Z</time></trkpt><trkpt lat="33.0401106" lon="10.3312193"><ele>327.0</ele><time>2026-04-26T11:20:03.675Z</time></trkpt><trkpt lat="33.0399382" lon="10.3312692"><ele>326.0</ele><time>2026-04-26T11:20:04.677Z</time></trkpt><trkpt lat="33.0397673" lon="10.3313178"><ele>325.0</ele><time>2026-04-26T11:20:05.697Z</time></trkpt><trkpt lat="33.0395941" lon="10.3313663"><ele>324.0</ele><time>2026-04-26T11:20:06.665Z</time></trkpt><trkpt lat="33.0394149" lon="10.3314069"><ele>322.6666666666667</ele><time>2026-04-26T11:20:07.671Z</time></trkpt><trkpt lat="33.0392367" lon="10.3314416"><ele>321.33333333333337</ele><time>2026-04-26T11:20:08.672Z</time></trkpt><trkpt lat="33.0390527" lon="10.3314639"><ele>320.0</ele><time>2026-04-26T11:20:09.681Z</time></trkpt><trkpt lat="33.0388697" lon="10.3314771"><ele>318.6666666666667</ele><time>2026-04-26T11:20:10.695Z</time></trkpt><trkpt lat="33.0386776" lon="10.331495"><ele>317.3333333333333</ele><time>2026-04-26T11:20:11.689Z</time></trkpt><trkpt lat="33.038484" lon="10.3315095"><ele>316.0</ele><time>2026-04-26T11:20:12.674Z</time></trkpt><trkpt lat="33.0382896" lon="10.3315213"><ele>314.66666666666663</ele><time>2026-04-26T11:20:13.664Z</time></trkpt><trkpt lat="33.0380995" lon="10.3315294"><ele>313.3333333333333</ele><time>2026-04-26T11:20:14.674Z</time></trkpt><trkpt lat="33.0379081" lon="10.3315396"><ele>312.0</ele><time>2026-04-26T11:20:15.674Z</time></trkpt><trkpt lat="33.0377131" lon="10.3315482"><ele>312.0</ele><time>2026-04-26T11:20:16.678Z</time></trkpt><trkpt lat="33.0375219" lon="10.3315554"><ele>312.0</ele><time>2026-04-26T11:20:17.679Z</time></trkpt><trkpt lat="33.0373348" lon="10.3315618"><ele>312.0</ele><time>2026-04-26T11:20:18.671Z</time></trkpt><trkpt lat="33.0371452" lon="10.3315649"><ele>312.3333333333333</ele><time>2026-04-26T11:20:19.678Z</time></trkpt><trkpt lat="33.0369569" lon="10.3315643"><ele>312.66666666666663</ele><time>2026-04-26T11:20:20.689Z</time></trkpt><trkpt lat="33.0367736" lon="10.3315739"><ele>313.0</ele><time>2026-04-26T11:20:21.674Z</time></trkpt><trkpt lat="33.0365945" lon="10.3315766"><ele>313.0</ele><time>2026-04-26T11:20:22.677Z</time></trkpt><trkpt lat="33.0364062" lon="10.3315813"><ele>313.0</ele><time>2026-04-26T11:20:23.672Z</time></trkpt><trkpt lat="33.036225" lon="10.331588"><ele>313.0</ele><time>2026-04-26T11:20:24.665Z</time></trkpt><trkpt lat="33.0360455" lon="10.331595"><ele>313.0</ele><time>2026-04-26T11:20:25.665Z</time></trkpt><trkpt lat="33.0358668" lon="10.3316051"><ele>313.0</ele><time>2026-04-26T11:20:26.666Z</time></trkpt><trkpt lat="33.035686" lon="10.3316165"><ele>313.0</ele><time>2026-04-26T11:20:27.67Z</time></trkpt><trkpt lat="33.0355042" lon="10.3316229"><ele>312.66666666666663</ele><time>2026-04-26T11:20:28.673Z</time></trkpt><trkpt lat="33.0353201" lon="10.3316274"><ele>312.3333333333333</ele><time>2026-04-26T11:20:29.679Z</time></trkpt><trkpt lat="33.035134" lon="10.3316348"><ele>312.0</ele><time>2026-04-26T11:20:30.67Z</time></trkpt><trkpt lat="33.0349481" lon="10.331645"><ele>311.3333333333333</ele><time>2026-04-26T11:20:31.692Z</time></trkpt><trkpt lat="33.034755" lon="10.3316578"><ele>310.66666666666663</ele><time>2026-04-26T11:20:32.663Z</time></trkpt><trkpt lat="33.0345684" lon="10.3316776"><ele>310.0</ele><time>2026-04-26T11:20:33.669Z</time></trkpt><trkpt lat="33.0343782" lon="10.3316938"><ele>310.0</ele><time>2026-04-26T11:20:34.679Z</time></trkpt><trkpt lat="33.0341802" lon="10.3317073"><ele>310.0</ele><time>2026-04-26T11:20:35.687Z</time></trkpt><trkpt lat="33.0339895" lon="10.3317198"><ele>310.0</ele><time>2026-04-26T11:20:36.676Z</time></trkpt><trkpt lat="33.0337985" lon="10.3317308"><ele>309.3333333333333</ele><time>2026-04-26T11:20:37.702Z</time></trkpt><trkpt lat="33.033596" lon="10.3317354"><ele>308.6666666666667</ele><time>2026-04-26T11:20:38.674Z</time></trkpt><trkpt lat="33.0333909" lon="10.3317392"><ele>308.0</ele><time>2026-04-26T11:20:39.679Z</time></trkpt><trkpt lat="33.0331856" lon="10.3317386"><ele>307.0</ele><time>2026-04-26T11:20:40.677Z</time></trkpt><trkpt lat="33.0329811" lon="10.3317356"><ele>306.0</ele><time>2026-04-26T11:20:41.675Z</time></trkpt><trkpt lat="33.0327804" lon="10.3317343"><ele>305.0</ele><time>2026-04-26T11:20:42.673Z</time></trkpt><trkpt lat="33.0325826" lon="10.3317309"><ele>306.0</ele><time>2026-04-26T11:20:43.669Z</time></trkpt><trkpt lat="33.032386" lon="10.331728"><ele>307.0</ele><time>2026-04-26T11:20:44.673Z</time></trkpt><trkpt lat="33.0321992" lon="10.3317301"><ele>308.0</ele><time>2026-04-26T11:20:45.666Z</time></trkpt><trkpt lat="33.0320069" lon="10.3317387"><ele>308.0</ele><time>2026-04-26T11:20:46.662Z</time></trkpt><trkpt lat="33.0318138" lon="10.3317436"><ele>308.0</ele><time>2026-04-26T11:20:47.69Z</time></trkpt><trkpt lat="33.0316216" lon="10.3317474"><ele>308.0</ele><time>2026-04-26T11:20:48.694Z</time></trkpt><trkpt lat="33.031427" lon="10.3317594"><ele>308.0</ele><time>2026-04-26T11:20:49.68Z</time></trkpt><trkpt lat="33.0312338" lon="10.331768"><ele>308.0</ele><time>2026-04-26T11:20:50.675Z</time></trkpt><trkpt lat="33.0310371" lon="10.3317752"><ele>308.0</ele><time>2026-04-26T11:20:51.685Z</time></trkpt><trkpt lat="33.0308379" lon="10.3317844"><ele>308.33333333333337</ele><time>2026-04-26T11:20:52.658Z</time></trkpt><trkpt lat="33.030643" lon="10.3317875"><ele>308.6666666666667</ele><time>2026-04-26T11:20:53.682Z</time></trkpt><trkpt lat="33.0304458" lon="10.3317835"><ele>309.0</ele><time>2026-04-26T11:20:54.672Z</time></trkpt><trkpt lat="33.0302484" lon="10.3317836"><ele>309.0</ele><time>2026-04-26T11:20:55.662Z</time></trkpt><trkpt lat="33.0300542" lon="10.3317881"><ele>309.0</ele><time>2026-04-26T11:20:56.664Z</time></trkpt><trkpt lat="33.0298596" lon="10.3317903"><ele>309.0</ele><time>2026-04-26T11:20:57.667Z</time></trkpt><trkpt lat="33.029668" lon="10.3318001"><ele>308.3333333333333</ele><time>2026-04-26T11:20:58.677Z</time></trkpt><trkpt lat="33.0294746" lon="10.3318049"><ele>307.66666666666663</ele><time>2026-04-26T11:20:59.685Z</time></trkpt><trkpt lat="33.0292838" lon="10.3318072"><ele>307.0</ele><time>2026-04-26T11:21:00.681Z</time></trkpt><trkpt lat="33.0290839" lon="10.3318052"><ele>305.0</ele><time>2026-04-26T11:21:01.67Z</time></trkpt><trkpt lat="33.0288855" lon="10.3318082"><ele>303.0</ele><time>2026-04-26T11:21:02.678Z</time></trkpt><trkpt lat="33.0286901" lon="10.3318079"><ele>301.0</ele><time>2026-04-26T11:21:03.668Z</time></trkpt><trkpt lat="33.0284854" lon="10.3318076"><ele>300.3333333333333</ele><time>2026-04-26T11:21:04.683Z</time></trkpt><trkpt lat="33.028293" lon="10.3318079"><ele>299.6666666666667</ele><time>2026-04-26T11:21:05.679Z</time></trkpt><trkpt lat="33.0280958" lon="10.3318082"><ele>299.0</ele><time>2026-04-26T11:21:06.68Z</time></trkpt><trkpt lat="33.0279006" lon="10.3318084"><ele>299.0</ele><time>2026-04-26T11:21:07.647Z</time></trkpt><trkpt lat="33.0277013" lon="10.3318117"><ele>299.0</ele><time>2026-04-26T11:21:08.67Z</time></trkpt><trkpt lat="33.0275017" lon="10.3318149"><ele>299.0</ele><time>2026-04-26T11:21:09.665Z</time></trkpt><trkpt lat="33.027305" lon="10.3318152"><ele>298.33333333333337</ele><time>2026-04-26T11:21:10.68Z</time></trkpt><trkpt lat="33.0271119" lon="10.3318136"><ele>297.6666666666667</ele><time>2026-04-26T11:21:11.683Z</time></trkpt><trkpt lat="33.0269144" lon="10.3318162"><ele>297.0</ele><time>2026-04-26T11:21:12.679Z</time></trkpt><trkpt lat="33.0267246" lon="10.3318223"><ele>297.6666666666667</ele><time>2026-04-26T11:21:13.676Z</time></trkpt><trkpt lat="33.0265301" lon="10.3318351"><ele>298.33333333333337</ele><time>2026-04-26T11:21:14.667Z</time></trkpt><trkpt lat="33.0263372" lon="10.3318559"><ele>299.0</ele><time>2026-04-26T11:21:15.671Z</time></trkpt><trkpt lat="33.0261465" lon="10.3318913"><ele>299.0</ele><time>2026-04-26T11:21:16.658Z</time></trkpt><trkpt lat="33.025958" lon="10.331939"><ele>299.0</ele><time>2026-04-26T11:21:17.669Z</time></trkpt><trkpt lat="33.0257718" lon="10.3319937"><ele>299.0</ele><time>2026-04-26T11:21:18.672Z</time></trkpt><trkpt lat="33.0255872" lon="10.3320602"><ele>299.6666666666667</ele><time>2026-04-26T11:21:19.676Z</time></trkpt><trkpt lat="33.0254066" lon="10.3321304"><ele>300.3333333333333</ele><time>2026-04-26T11:21:20.671Z</time></trkpt><trkpt lat="33.0252251" lon="10.332208"><ele>301.0</ele><time>2026-04-26T11:21:21.679Z</time></trkpt><trkpt lat="33.0250422" lon="10.3322918"><ele>300.0</ele><time>2026-04-26T11:21:22.677Z</time></trkpt><trkpt lat="33.0248584" lon="10.3323768"><ele>299.0</ele><time>2026-04-26T11:21:23.675Z</time></trkpt><trkpt lat="33.0246714" lon="10.3324632"><ele>298.0</ele><time>2026-04-26T11:21:24.689Z</time></trkpt><trkpt lat="33.0244806" lon="10.3325455"><ele>298.0</ele><time>2026-04-26T11:21:25.673Z</time></trkpt><trkpt lat="33.0243035" lon="10.3326325"><ele>298.0</ele><time>2026-04-26T11:21:26.669Z</time></trkpt><trkpt lat="33.0241217" lon="10.3327184"><ele>298.0</ele><time>2026-04-26T11:21:27.671Z</time></trkpt><trkpt lat="33.0239397" lon="10.3328062"><ele>297.3333333333333</ele><time>2026-04-26T11:21:28.685Z</time></trkpt><trkpt lat="33.0237573" lon="10.3328953"><ele>296.6666666666667</ele><time>2026-04-26T11:21:29.669Z</time></trkpt><trkpt lat="33.0235785" lon="10.3329842"><ele>296.0</ele><time>2026-04-26T11:21:30.68Z</time></trkpt><trkpt lat="33.023399" lon="10.3330696"><ele>295.0</ele><time>2026-04-26T11:21:31.654Z</time></trkpt><trkpt lat="33.0232192" lon="10.3331635"><ele>294.0</ele><time>2026-04-26T11:21:32.674Z</time></trkpt><trkpt lat="33.0230383" lon="10.3332485"><ele>293.0</ele><time>2026-04-26T11:21:33.663Z</time></trkpt><trkpt lat="33.022856" lon="10.3333331"><ele>293.0</ele><time>2026-04-26T11:21:34.678Z</time></trkpt><trkpt lat="33.0226793" lon="10.3334169"><ele>293.0</ele><time>2026-04-26T11:21:35.685Z</time></trkpt><trkpt lat="33.0224954" lon="10.333507"><ele>293.0</ele><time>2026-04-26T11:21:36.676Z</time></trkpt><trkpt lat="33.0223145" lon="10.3335914"><ele>292.6666666666667</ele><time>2026-04-26T11:21:37.67Z</time></trkpt><trkpt lat="33.0221297" lon="10.3336789"><ele>292.3333333333333</ele><time>2026-04-26T11:21:38.68Z</time></trkpt><trkpt lat="33.0219486" lon="10.3337696"><ele>292.0</ele><time>2026-04-26T11:21:39.682Z</time></trkpt><trkpt lat="33.0217696" lon="10.333856"><ele>292.0</ele><time>2026-04-26T11:21:40.665Z</time></trkpt><trkpt lat="33.0215884" lon="10.3339428"><ele>292.0</ele><time>2026-04-26T11:21:41.669Z</time></trkpt><trkpt lat="33.0214076" lon="10.3340338"><ele>292.0</ele><time>2026-04-26T11:21:42.68Z</time></trkpt><trkpt lat="33.0212327" lon="10.3341218"><ele>292.0</ele><time>2026-04-26T11:21:43.688Z</time></trkpt><trkpt lat="33.0210549" lon="10.334209"><ele>292.0</ele><time>2026-04-26T11:21:44.668Z</time></trkpt><trkpt lat="33.0208757" lon="10.3342967"><ele>292.0</ele><time>2026-04-26T11:21:45.675Z</time></trkpt><trkpt lat="33.0206907" lon="10.3343834"><ele>291.0</ele><time>2026-04-26T11:21:46.667Z</time></trkpt><trkpt lat="33.0205083" lon="10.3344696"><ele>290.0</ele><time>2026-04-26T11:21:47.676Z</time></trkpt><trkpt lat="33.0203237" lon="10.3345563"><ele>289.0</ele><time>2026-04-26T11:21:48.668Z</time></trkpt><trkpt lat="33.0201516" lon="10.3346437"><ele>289.3333333333333</ele><time>2026-04-26T11:21:49.676Z</time></trkpt><trkpt lat="33.0199804" lon="10.3347316"><ele>289.6666666666667</ele><time>2026-04-26T11:21:50.681Z</time></trkpt><trkpt lat="33.0198142" lon="10.334816"><ele>290.0</ele><time>2026-04-26T11:21:51.681Z</time></trkpt><trkpt lat="33.0196519" lon="10.3348975"><ele>290.0</ele><time>2026-04-26T11:21:52.68Z</time></trkpt><trkpt lat="33.0194936" lon="10.3349764"><ele>290.0</ele><time>2026-04-26T11:21:53.662Z</time></trkpt><trkpt lat="33.0193357" lon="10.3350597"><ele>290.0</ele><time>2026-04-26T11:21:54.662Z</time></trkpt><trkpt lat="33.019175" lon="10.3351436"><ele>288.33333333333337</ele><time>2026-04-26T11:21:55.668Z</time></trkpt><trkpt lat="33.0190102" lon="10.3352315"><ele>286.6666666666667</ele><time>2026-04-26T11:21:56.676Z</time></trkpt><trkpt lat="33.018845" lon="10.3353216"><ele>285.0</ele><time>2026-04-26T11:21:57.691Z</time></trkpt><trkpt lat="33.0186813" lon="10.3354122"><ele>285.0</ele><time>2026-04-26T11:21:58.675Z</time></trkpt><trkpt lat="33.0185158" lon="10.3355011"><ele>285.0</ele><time>2026-04-26T11:21:59.689Z</time></trkpt><trkpt lat="33.0183635" lon="10.3355847"><ele>285.0</ele><time>2026-04-26T11:22:00.67Z</time></trkpt><trkpt lat="33.0182169" lon="10.335665"><ele>284.3333333333333</ele><time>2026-04-26T11:22:01.675Z</time></trkpt><trkpt lat="33.0180753" lon="10.3357454"><ele>283.66666666666663</ele><time>2026-04-26T11:22:02.663Z</time></trkpt><trkpt lat="33.0179367" lon="10.335825"><ele>283.0</ele><time>2026-04-26T11:22:03.678Z</time></trkpt><trkpt lat="33.0178026" lon="10.3358978"><ele>283.0</ele><time>2026-04-26T11:22:04.667Z</time></trkpt><trkpt lat="33.0176751" lon="10.3359644"><ele>283.0</ele><time>2026-04-26T11:22:05.686Z</time></trkpt><trkpt lat="33.0175511" lon="10.336032"><ele>283.0</ele><time>2026-04-26T11:22:06.676Z</time></trkpt><trkpt lat="33.017425" lon="10.3360996"><ele>283.0</ele><time>2026-04-26T11:22:07.698Z</time></trkpt><trkpt lat="33.0173023" lon="10.3361646"><ele>283.0</ele><time>2026-04-26T11:22:08.675Z</time></trkpt><trkpt lat="33.0171828" lon="10.3362268"><ele>283.0</ele><time>2026-04-26T11:22:09.67Z</time></trkpt><trkpt lat="33.0170779" lon="10.3362811"><ele>283.0</ele><time>2026-04-26T11:22:10.674Z</time></trkpt><trkpt lat="33.0169887" lon="10.3363228"><ele>283.0</ele><time>2026-04-26T11:22:11.674Z</time></trkpt><trkpt lat="33.0169182" lon="10.3363648"><ele>283.0</ele><time>2026-04-26T11:22:12.67Z</time></trkpt><trkpt lat="33.0168555" lon="10.3364"><ele>283.0</ele><time>2026-04-26T11:22:13.68Z</time></trkpt><trkpt lat="33.0167887" lon="10.3364371"><ele>283.0</ele><time>2026-04-26T11:22:14.671Z</time></trkpt><trkpt lat="33.016705" lon="10.3364787"><ele>283.0</ele><time>2026-04-26T11:22:15.684Z</time></trkpt><trkpt lat="33.0166222" lon="10.3365126"><ele>283.0</ele><time>2026-04-26T11:22:16.682Z</time></trkpt><trkpt lat="33.0165446" lon="10.3365503"><ele>283.0</ele><time>2026-04-26T11:22:17.675Z</time></trkpt><trkpt lat="33.016473" lon="10.3365885"><ele>283.0</ele><time>2026-04-26T11:22:18.669Z</time></trkpt><trkpt lat="33.0163872" lon="10.3366278"><ele>282.5</ele><time>2026-04-26T11:22:19.68Z</time></trkpt><trkpt lat="33.0162712" lon="10.3366879"><ele>282.0</ele><time>2026-04-26T11:22:20.674Z</time></trkpt><trkpt lat="33.0161518" lon="10.3367541"><ele>281.5</ele><time>2026-04-26T11:22:21.663Z</time></trkpt><trkpt lat="33.0160272" lon="10.3368232"><ele>281.0</ele><time>2026-04-26T11:22:22.672Z</time></trkpt><trkpt lat="33.0158954" lon="10.3368881"><ele>281.0</ele><time>2026-04-26T11:22:23.675Z</time></trkpt><trkpt lat="33.0157583" lon="10.3369649"><ele>281.0</ele><time>2026-04-26T11:22:24.669Z</time></trkpt><trkpt lat="33.0156097" lon="10.3370386"><ele>281.0</ele><time>2026-04-26T11:22:25.675Z</time></trkpt><trkpt lat="33.0154595" lon="10.3371194"><ele>281.0</ele><time>2026-04-26T11:22:26.652Z</time></trkpt><trkpt lat="33.0152989" lon="10.3371886"><ele>281.0</ele><time>2026-04-26T11:22:27.671Z</time></trkpt><trkpt lat="33.0151388" lon="10.3372655"><ele>281.0</ele><time>2026-04-26T11:22:28.67Z</time></trkpt><trkpt lat="33.0149793" lon="10.3373375"><ele>281.0</ele><time>2026-04-26T11:22:29.667Z</time></trkpt><trkpt lat="33.0148164" lon="10.3374064"><ele>281.0</ele><time>2026-04-26T11:22:30.664Z</time></trkpt><trkpt lat="33.0146513" lon="10.3374842"><ele>281.0</ele><time>2026-04-26T11:22:31.677Z</time></trkpt><trkpt lat="33.0144797" lon="10.3375723"><ele>281.0</ele><time>2026-04-26T11:22:32.668Z</time></trkpt><trkpt lat="33.0143129" lon="10.3376627"><ele>281.0</ele><time>2026-04-26T11:22:33.682Z</time></trkpt><trkpt lat="33.0141389" lon="10.3377577"><ele>281.0</ele><time>2026-04-26T11:22:34.67Z</time></trkpt><trkpt lat="33.013969" lon="10.3378522"><ele>279.6666666666667</ele><time>2026-04-26T11:22:35.664Z</time></trkpt><trkpt lat="33.0137951" lon="10.3379518"><ele>278.3333333333333</ele><time>2026-04-26T11:22:36.672Z</time></trkpt><trkpt lat="33.0136258" lon="10.3380559"><ele>277.0</ele><time>2026-04-26T11:22:37.671Z</time></trkpt><trkpt lat="33.0134521" lon="10.3381538"><ele>278.0</ele><time>2026-04-26T11:22:38.663Z</time></trkpt><trkpt lat="33.0132798" lon="10.3382536"><ele>279.0</ele><time>2026-04-26T11:22:39.677Z</time></trkpt><trkpt lat="33.0131034" lon="10.3383496"><ele>280.0</ele><time>2026-04-26T11:22:40.666Z</time></trkpt><trkpt lat="33.0129321" lon="10.3384359"><ele>280.0</ele><time>2026-04-26T11:22:41.68Z</time></trkpt><trkpt lat="33.0127615" lon="10.3385244"><ele>280.0</ele><time>2026-04-26T11:22:42.658Z</time></trkpt><trkpt lat="33.0125918" lon="10.3386167"><ele>280.0</ele><time>2026-04-26T11:22:43.675Z</time></trkpt><trkpt lat="33.0124197" lon="10.3387098"><ele>280.0</ele><time>2026-04-26T11:22:44.673Z</time></trkpt><trkpt lat="33.0122466" lon="10.3387985"><ele>280.0</ele><time>2026-04-26T11:22:45.676Z</time></trkpt><trkpt lat="33.0120731" lon="10.3388941"><ele>280.0</ele><time>2026-04-26T11:22:46.687Z</time></trkpt><trkpt lat="33.0119041" lon="10.3389941"><ele>280.66666666666663</ele><time>2026-04-26T11:22:47.659Z</time></trkpt><trkpt lat="33.0117381" lon="10.3390997"><ele>281.3333333333333</ele><time>2026-04-26T11:22:48.673Z</time></trkpt><trkpt lat="33.0115735" lon="10.3392117"><ele>282.0</ele><time>2026-04-26T11:22:49.688Z</time></trkpt><trkpt lat="33.0114138" lon="10.3393313"><ele>282.0</ele><time>2026-04-26T11:22:50.667Z</time></trkpt><trkpt lat="33.0112574" lon="10.3394594"><ele>282.0</ele><time>2026-04-26T11:22:51.668Z</time></trkpt><trkpt lat="33.0111014" lon="10.3395848"><ele>282.0</ele><time>2026-04-26T11:22:52.675Z</time></trkpt><trkpt lat="33.0109428" lon="10.3397102"><ele>283.0</ele><time>2026-04-26T11:22:53.661Z</time></trkpt><trkpt lat="33.0107895" lon="10.3398453"><ele>284.0</ele><time>2026-04-26T11:22:54.681Z</time></trkpt><trkpt lat="33.0106403" lon="10.3399775"><ele>285.0</ele><time>2026-04-26T11:22:55.686Z</time></trkpt><trkpt lat="33.0104924" lon="10.3401109"><ele>285.0</ele><time>2026-04-26T11:22:56.662Z</time></trkpt><trkpt lat="33.0103391" lon="10.340249"><ele>285.0</ele><time>2026-04-26T11:22:57.683Z</time></trkpt><trkpt lat="33.0101856" lon="10.3403802"><ele>285.0</ele><time>2026-04-26T11:22:58.672Z</time></trkpt><trkpt lat="33.0100251" lon="10.3405055"><ele>284.0</ele><time>2026-04-26T11:22:59.695Z</time></trkpt><trkpt lat="33.0098598" lon="10.3406183"><ele>283.0</ele><time>2026-04-26T11:23:00.673Z</time></trkpt><trkpt lat="33.0096881" lon="10.3407148"><ele>282.0</ele><time>2026-04-26T11:23:01.676Z</time></trkpt><trkpt lat="33.0095099" lon="10.3407983"><ele>282.0</ele><time>2026-04-26T11:23:02.678Z</time></trkpt><trkpt lat="33.0093315" lon="10.3408746"><ele>282.0</ele><time>2026-04-26T11:23:03.671Z</time></trkpt><trkpt lat="33.0091504" lon="10.3409433"><ele>282.0</ele><time>2026-04-26T11:23:04.672Z</time></trkpt><trkpt lat="33.0089635" lon="10.3410163"><ele>281.0</ele><time>2026-04-26T11:23:05.673Z</time></trkpt><trkpt lat="33.0087767" lon="10.3410776"><ele>280.0</ele><time>2026-04-26T11:23:06.697Z</time></trkpt><trkpt lat="33.0085928" lon="10.3411434"><ele>279.0</ele><time>2026-04-26T11:23:07.678Z</time></trkpt><trkpt lat="33.0084138" lon="10.3412108"><ele>278.3333333333333</ele><time>2026-04-26T11:23:08.692Z</time></trkpt><trkpt lat="33.008235" lon="10.3412644"><ele>277.66666666666663</ele><time>2026-04-26T11:23:09.685Z</time></trkpt><trkpt lat="33.0080504" lon="10.3413156"><ele>277.0</ele><time>2026-04-26T11:23:10.676Z</time></trkpt><trkpt lat="33.007863" lon="10.3413673"><ele>277.66666666666663</ele><time>2026-04-26T11:23:11.677Z</time></trkpt><trkpt lat="33.0076813" lon="10.3414168"><ele>278.3333333333333</ele><time>2026-04-26T11:23:12.665Z</time></trkpt><trkpt lat="33.0074965" lon="10.3414685"><ele>279.0</ele><time>2026-04-26T11:23:13.67Z</time></trkpt><trkpt lat="33.0073204" lon="10.3415217"><ele>279.3333333333333</ele><time>2026-04-26T11:23:14.678Z</time></trkpt><trkpt lat="33.007156" lon="10.3415782"><ele>279.66666666666663</ele><time>2026-04-26T11:23:15.673Z</time></trkpt><trkpt lat="33.0070015" lon="10.3416341"><ele>280.0</ele><time>2026-04-26T11:23:16.673Z</time></trkpt><trkpt lat="33.0068579" lon="10.3416922"><ele>280.0</ele><time>2026-04-26T11:23:17.675Z</time></trkpt><trkpt lat="33.0067325" lon="10.3417402"><ele>280.0</ele><time>2026-04-26T11:23:18.673Z</time></trkpt><trkpt lat="33.0066303" lon="10.3417822"><ele>280.0</ele><time>2026-04-26T11:23:19.678Z</time></trkpt><trkpt lat="33.0065453" lon="10.3418177"><ele>280.0</ele><time>2026-04-26T11:23:20.674Z</time></trkpt><trkpt lat="33.0064647" lon="10.3418495"><ele>280.0</ele><time>2026-04-26T11:23:21.674Z</time></trkpt><trkpt lat="33.0063878" lon="10.3418746"><ele>279.3333333333333</ele><time>2026-04-26T11:23:22.67Z</time></trkpt><trkpt lat="33.0063186" lon="10.3419007"><ele>278.66666666666663</ele><time>2026-04-26T11:23:23.664Z</time></trkpt><trkpt lat="33.0062604" lon="10.341931"><ele>278.0</ele><time>2026-04-26T11:23:24.674Z</time></trkpt><trkpt lat="33.0061591" lon="10.341977"><ele>277.3333333333333</ele><time>2026-04-26T11:23:26.679Z</time></trkpt><trkpt lat="33.0060971" lon="10.3419939"><ele>276.6666666666667</ele><time>2026-04-26T11:23:28.678Z</time></trkpt><trkpt lat="33.0060188" lon="10.3419994"><ele>276.0</ele><time>2026-04-26T11:23:31.673Z</time></trkpt><trkpt lat="33.0059618" lon="10.3420452"><ele>276.0</ele><time>2026-04-26T11:23:46.671Z</time></trkpt><trkpt lat="33.0060499" lon="10.3420664"><ele>276.0</ele><time>2026-04-26T11:23:50.688Z</time></trkpt><trkpt lat="33.0061411" lon="10.3420137"><ele>276.0</ele><time>2026-04-26T11:23:52.665Z</time></trkpt><trkpt lat="33.0062498" lon="10.3419738"><ele>276.0</ele><time>2026-04-26T11:23:54.662Z</time></trkpt><trkpt lat="33.0063461" lon="10.3419604"><ele>276.0</ele><time>2026-04-26T11:23:56.678Z</time></trkpt><trkpt lat="33.0064319" lon="10.3419681"><ele>276.0</ele><time>2026-04-26T11:23:58.666Z</time></trkpt><trkpt lat="33.0064935" lon="10.3420261"><ele>276.0</ele><time>2026-04-26T11:24:00.682Z</time></trkpt><trkpt lat="33.0065652" lon="10.3420862"><ele>276.0</ele><time>2026-04-26T11:24:02.664Z</time></trkpt><trkpt lat="33.0066377" lon="10.3421343"><ele>276.0</ele><time>2026-04-26T11:24:04.667Z</time></trkpt><trkpt lat="33.0066985" lon="10.3421627"><ele>276.0</ele><time>2026-04-26T11:24:06.713Z</time></trkpt><trkpt lat="33.0067743" lon="10.3421889"><ele>276.0</ele><time>2026-04-26T11:24:10.67Z</time></trkpt><trkpt lat="33.0067588" lon="10.3420974"><ele>276.0</ele><time>2026-04-26T11:25:27.643Z</time></trkpt><trkpt lat="33.006713" lon="10.342045"><ele>276.0</ele><time>2026-04-26T11:25:29.663Z</time></trkpt><trkpt lat="33.0066708" lon="10.3419811"><ele>276.0</ele><time>2026-04-26T11:25:31.671Z</time></trkpt><trkpt lat="33.0066245" lon="10.3419163"><ele>276.0</ele><time>2026-04-26T11:25:33.669Z</time></trkpt><trkpt lat="33.0065774" lon="10.3418559"><ele>276.0</ele><time>2026-04-26T11:25:36.652Z</time></trkpt><trkpt lat="33.0064916" lon="10.3418367"><ele>276.0</ele><time>2026-04-26T11:25:39.669Z</time></trkpt><trkpt lat="33.0062854" lon="10.3419142"><ele>276.0</ele><time>2026-04-26T11:25:42.658Z</time></trkpt><trkpt lat="33.0060982" lon="10.3420226"><ele>276.0</ele><time>2026-04-26T11:25:44.692Z</time></trkpt><trkpt lat="33.0056149" lon="10.3422744"><ele>276.6666666666667</ele><time>2026-04-26T11:25:48.673Z</time></trkpt><trkpt lat="33.0054738" lon="10.3423453"><ele>277.33333333333337</ele><time>2026-04-26T11:25:49.651Z</time></trkpt><trkpt lat="33.0053379" lon="10.3424185"><ele>278.0</ele><time>2026-04-26T11:25:50.661Z</time></trkpt><trkpt lat="33.0051975" lon="10.3424934"><ele>278.0</ele><time>2026-04-26T11:25:51.641Z</time></trkpt><trkpt lat="33.0050597" lon="10.3425679"><ele>278.0</ele><time>2026-04-26T11:25:52.651Z</time></trkpt><trkpt lat="33.0049197" lon="10.3426405"><ele>278.0</ele><time>2026-04-26T11:25:53.646Z</time></trkpt><trkpt lat="33.0047707" lon="10.3427205"><ele>278.0</ele><time>2026-04-26T11:25:54.658Z</time></trkpt><trkpt lat="33.0046079" lon="10.3427925"><ele>278.0</ele><time>2026-04-26T11:25:55.701Z</time></trkpt><trkpt lat="33.0044383" lon="10.3428591"><ele>278.0</ele><time>2026-04-26T11:25:56.686Z</time></trkpt><trkpt lat="33.0042701" lon="10.3429162"><ele>278.33333333333337</ele><time>2026-04-26T11:25:57.683Z</time></trkpt><trkpt lat="33.0040999" lon="10.3429683"><ele>278.6666666666667</ele><time>2026-04-26T11:25:58.661Z</time></trkpt><trkpt lat="33.0039313" lon="10.3430241"><ele>279.0</ele><time>2026-04-26T11:25:59.656Z</time></trkpt><trkpt lat="33.0037674" lon="10.3430751"><ele>279.0</ele><time>2026-04-26T11:26:00.655Z</time></trkpt><trkpt lat="33.0035978" lon="10.3431222"><ele>279.0</ele><time>2026-04-26T11:26:01.659Z</time></trkpt><trkpt lat="33.0034266" lon="10.343162"><ele>279.0</ele><time>2026-04-26T11:26:02.696Z</time></trkpt><trkpt lat="33.0032472" lon="10.3431961"><ele>278.6666666666667</ele><time>2026-04-26T11:26:03.651Z</time></trkpt><trkpt lat="33.0030678" lon="10.3432315"><ele>278.33333333333337</ele><time>2026-04-26T11:26:04.659Z</time></trkpt><trkpt lat="33.0028954" lon="10.3432612"><ele>278.0</ele><time>2026-04-26T11:26:05.652Z</time></trkpt><trkpt lat="33.0027204" lon="10.3432822"><ele>278.0</ele><time>2026-04-26T11:26:06.661Z</time></trkpt><trkpt lat="33.0025408" lon="10.3433028"><ele>278.0</ele><time>2026-04-26T11:26:07.672Z</time></trkpt><trkpt lat="33.0023658" lon="10.3433218"><ele>278.0</ele><time>2026-04-26T11:26:08.667Z</time></trkpt><trkpt lat="33.0021935" lon="10.3433364"><ele>277.6666666666667</ele><time>2026-04-26T11:26:09.655Z</time></trkpt><trkpt lat="33.0020179" lon="10.343349"><ele>277.3333333333333</ele><time>2026-04-26T11:26:10.672Z</time></trkpt><trkpt lat="33.0018328" lon="10.3433578"><ele>277.0</ele><time>2026-04-26T11:26:11.674Z</time></trkpt><trkpt lat="33.0016533" lon="10.3433618"><ele>276.66666666666663</ele><time>2026-04-26T11:26:12.672Z</time></trkpt><trkpt lat="33.0014678" lon="10.3433683"><ele>276.3333333333333</ele><time>2026-04-26T11:26:13.663Z</time></trkpt><trkpt lat="33.0012748" lon="10.3433755"><ele>276.0</ele><time>2026-04-26T11:26:14.661Z</time></trkpt><trkpt lat="33.0010817" lon="10.3433803"><ele>276.0</ele><time>2026-04-26T11:26:15.656Z</time></trkpt><trkpt lat="33.0008831" lon="10.3433894"><ele>276.0</ele><time>2026-04-26T11:26:16.672Z</time></trkpt><trkpt lat="33.0006828" lon="10.3433991"><ele>276.0</ele><time>2026-04-26T11:26:17.679Z</time></trkpt><trkpt lat="33.0004825" lon="10.3434087"><ele>275.3333333333333</ele><time>2026-04-26T11:26:18.675Z</time></trkpt><trkpt lat="33.0002794" lon="10.3434217"><ele>274.66666666666663</ele><time>2026-04-26T11:26:19.667Z</time></trkpt><trkpt lat="33.0000776" lon="10.3434295"><ele>274.0</ele><time>2026-04-26T11:26:20.663Z</time></trkpt><trkpt lat="32.9998805" lon="10.3434416"><ele>274.0</ele><time>2026-04-26T11:26:21.681Z</time></trkpt><trkpt lat="32.999675" lon="10.343456"><ele>274.0</ele><time>2026-04-26T11:26:22.672Z</time></trkpt><trkpt lat="32.9994752" lon="10.343465"><ele>274.0</ele><time>2026-04-26T11:26:23.682Z</time></trkpt><trkpt lat="32.9992776" lon="10.3434724"><ele>273.66666666666663</ele><time>2026-04-26T11:26:24.674Z</time></trkpt><trkpt lat="32.9990809" lon="10.3434864"><ele>273.3333333333333</ele><time>2026-04-26T11:26:25.673Z</time></trkpt><trkpt lat="32.9988819" lon="10.3435019"><ele>273.0</ele><time>2026-04-26T11:26:26.675Z</time></trkpt><trkpt lat="32.9986873" lon="10.3435157"><ele>273.0</ele><time>2026-04-26T11:26:27.665Z</time></trkpt><trkpt lat="32.9984838" lon="10.3435234"><ele>273.0</ele><time>2026-04-26T11:26:28.681Z</time></trkpt><trkpt lat="32.9982869" lon="10.3435297"><ele>273.0</ele><time>2026-04-26T11:26:29.673Z</time></trkpt><trkpt lat="32.9980895" lon="10.3435418"><ele>273.0</ele><time>2026-04-26T11:26:30.661Z</time></trkpt><trkpt lat="32.9978873" lon="10.3435519"><ele>273.0</ele><time>2026-04-26T11:26:31.675Z</time></trkpt><trkpt lat="32.997684" lon="10.3435548"><ele>273.0</ele><time>2026-04-26T11:26:32.668Z</time></trkpt><trkpt lat="32.9974757" lon="10.3435575"><ele>272.0</ele><time>2026-04-26T11:26:33.677Z</time></trkpt><trkpt lat="32.9972644" lon="10.3435578"><ele>271.0</ele><time>2026-04-26T11:26:34.662Z</time></trkpt><trkpt lat="32.9970552" lon="10.3435442"><ele>270.0</ele><time>2026-04-26T11:26:35.678Z</time></trkpt><trkpt lat="32.996846" lon="10.3435172"><ele>269.0</ele><time>2026-04-26T11:26:36.711Z</time></trkpt><trkpt lat="32.9966423" lon="10.3434864"><ele>268.0</ele><time>2026-04-26T11:26:37.69Z</time></trkpt><trkpt lat="32.9964415" lon="10.3434492"><ele>267.0</ele><time>2026-04-26T11:26:38.699Z</time></trkpt><trkpt lat="32.9962376" lon="10.3434067"><ele>267.0</ele><time>2026-04-26T11:26:39.699Z</time></trkpt><trkpt lat="32.9960349" lon="10.3433642"><ele>267.0</ele><time>2026-04-26T11:26:40.69Z</time></trkpt><trkpt lat="32.9958375" lon="10.3433258"><ele>267.0</ele><time>2026-04-26T11:26:41.686Z</time></trkpt><trkpt lat="32.9956387" lon="10.3432848"><ele>267.3333333333333</ele><time>2026-04-26T11:26:42.684Z</time></trkpt><trkpt lat="32.9954461" lon="10.3432483"><ele>267.66666666666663</ele><time>2026-04-26T11:26:43.675Z</time></trkpt><trkpt lat="32.9952438" lon="10.3432056"><ele>268.0</ele><time>2026-04-26T11:26:44.673Z</time></trkpt><trkpt lat="32.995042" lon="10.3431699"><ele>267.0</ele><time>2026-04-26T11:26:45.667Z</time></trkpt><trkpt lat="32.9948332" lon="10.3431341"><ele>266.0</ele><time>2026-04-26T11:26:46.663Z</time></trkpt><trkpt lat="32.9946262" lon="10.3431007"><ele>265.0</ele><time>2026-04-26T11:26:47.689Z</time></trkpt><trkpt lat="32.994419" lon="10.3430832"><ele>265.0</ele><time>2026-04-26T11:26:48.675Z</time></trkpt><trkpt lat="32.9941998" lon="10.3430714"><ele>265.0</ele><time>2026-04-26T11:26:49.678Z</time></trkpt><trkpt lat="32.9939874" lon="10.3430642"><ele>265.0</ele><time>2026-04-26T11:26:50.666Z</time></trkpt><trkpt lat="32.9937711" lon="10.3430663"><ele>265.0</ele><time>2026-04-26T11:26:51.672Z</time></trkpt><trkpt lat="32.9935557" lon="10.343074"><ele>265.0</ele><time>2026-04-26T11:26:52.669Z</time></trkpt><trkpt lat="32.9933408" lon="10.3430831"><ele>265.0</ele><time>2026-04-26T11:26:53.674Z</time></trkpt><trkpt lat="32.9931221" lon="10.3430901"><ele>265.0</ele><time>2026-04-26T11:26:54.665Z</time></trkpt><trkpt lat="32.9929034" lon="10.3430996"><ele>265.0</ele><time>2026-04-26T11:26:55.668Z</time></trkpt><trkpt lat="32.9926864" lon="10.3431028"><ele>265.0</ele><time>2026-04-26T11:26:56.678Z</time></trkpt><trkpt lat="32.9924695" lon="10.3431065"><ele>263.66666666666663</ele><time>2026-04-26T11:26:57.68Z</time></trkpt><trkpt lat="32.9922537" lon="10.3431113"><ele>262.3333333333333</ele><time>2026-04-26T11:26:58.67Z</time></trkpt><trkpt lat="32.9920422" lon="10.3431118"><ele>261.0</ele><time>2026-04-26T11:26:59.662Z</time></trkpt><trkpt lat="32.9918339" lon="10.3431169"><ele>261.3333333333333</ele><time>2026-04-26T11:27:00.662Z</time></trkpt><trkpt lat="32.9916262" lon="10.3431146"><ele>261.66666666666663</ele><time>2026-04-26T11:27:01.66Z</time></trkpt><trkpt lat="32.9914205" lon="10.3430882"><ele>262.0</ele><time>2026-04-26T11:27:02.67Z</time></trkpt><trkpt lat="32.991216" lon="10.3430463"><ele>262.0</ele><time>2026-04-26T11:27:03.684Z</time></trkpt><trkpt lat="32.9910158" lon="10.3429774"><ele>262.0</ele><time>2026-04-26T11:27:04.665Z</time></trkpt><trkpt lat="32.9908164" lon="10.3428967"><ele>262.0</ele><time>2026-04-26T11:27:05.674Z</time></trkpt><trkpt lat="32.9906207" lon="10.3428145"><ele>261.66666666666663</ele><time>2026-04-26T11:27:06.663Z</time></trkpt><trkpt lat="32.9904246" lon="10.3427255"><ele>261.3333333333333</ele><time>2026-04-26T11:27:07.67Z</time></trkpt><trkpt lat="32.9902291" lon="10.3426452"><ele>261.0</ele><time>2026-04-26T11:27:08.67Z</time></trkpt><trkpt lat="32.9900336" lon="10.3425644"><ele>262.0</ele><time>2026-04-26T11:27:09.667Z</time></trkpt><trkpt lat="32.9898345" lon="10.3424817"><ele>263.0</ele><time>2026-04-26T11:27:10.671Z</time></trkpt><trkpt lat="32.9896314" lon="10.3423935"><ele>264.0</ele><time>2026-04-26T11:27:11.688Z</time></trkpt><trkpt lat="32.9894341" lon="10.3423038"><ele>264.0</ele><time>2026-04-26T11:27:12.678Z</time></trkpt><trkpt lat="32.9892411" lon="10.3422187"><ele>264.0</ele><time>2026-04-26T11:27:13.665Z</time></trkpt><trkpt lat="32.9890449" lon="10.3421347"><ele>264.0</ele><time>2026-04-26T11:27:14.679Z</time></trkpt><trkpt lat="32.9888493" lon="10.342054"><ele>263.6666666666667</ele><time>2026-04-26T11:27:15.681Z</time></trkpt><trkpt lat="32.9886564" lon="10.341978"><ele>263.33333333333337</ele><time>2026-04-26T11:27:16.659Z</time></trkpt><trkpt lat="32.9884562" lon="10.3418956"><ele>263.0</ele><time>2026-04-26T11:27:17.65Z</time></trkpt><trkpt lat="32.9882619" lon="10.3418122"><ele>263.0</ele><time>2026-04-26T11:27:18.666Z</time></trkpt><trkpt lat="32.9880696" lon="10.3417267"><ele>263.0</ele><time>2026-04-26T11:27:19.669Z</time></trkpt><trkpt lat="32.9878726" lon="10.3416453"><ele>263.0</ele><time>2026-04-26T11:27:20.661Z</time></trkpt><trkpt lat="32.9876758" lon="10.3415613"><ele>262.6666666666667</ele><time>2026-04-26T11:27:21.684Z</time></trkpt><trkpt lat="32.9874763" lon="10.3414811"><ele>262.3333333333333</ele><time>2026-04-26T11:27:22.652Z</time></trkpt><trkpt lat="32.9872868" lon="10.3414036"><ele>262.0</ele><time>2026-04-26T11:27:23.668Z</time></trkpt><trkpt lat="32.9871002" lon="10.341325"><ele>262.0</ele><time>2026-04-26T11:27:24.659Z</time></trkpt><trkpt lat="32.9869199" lon="10.3412527"><ele>262.0</ele><time>2026-04-26T11:27:25.668Z</time></trkpt><trkpt lat="32.9867467" lon="10.3411947"><ele>262.0</ele><time>2026-04-26T11:27:26.708Z</time></trkpt><trkpt lat="32.9865614" lon="10.3411555"><ele>262.0</ele><time>2026-04-26T11:27:27.668Z</time></trkpt><trkpt lat="32.9863701" lon="10.3411289"><ele>262.0</ele><time>2026-04-26T11:27:28.673Z</time></trkpt><trkpt lat="32.9861881" lon="10.3411255"><ele>262.0</ele><time>2026-04-26T11:27:29.671Z</time></trkpt><trkpt lat="32.9860045" lon="10.3411464"><ele>261.0</ele><time>2026-04-26T11:27:30.663Z</time></trkpt><trkpt lat="32.9858156" lon="10.3411885"><ele>260.0</ele><time>2026-04-26T11:27:31.671Z</time></trkpt><trkpt lat="32.9856337" lon="10.341242"><ele>259.0</ele><time>2026-04-26T11:27:32.669Z</time></trkpt><trkpt lat="32.9854525" lon="10.3413023"><ele>259.0</ele><time>2026-04-26T11:27:33.669Z</time></trkpt><trkpt lat="32.9852753" lon="10.3413714"><ele>259.0</ele><time>2026-04-26T11:27:34.669Z</time></trkpt><trkpt lat="32.9850992" lon="10.3414573"><ele>259.0</ele><time>2026-04-26T11:27:35.67Z</time></trkpt><trkpt lat="32.9849292" lon="10.3415585"><ele>260.0</ele><time>2026-04-26T11:27:36.671Z</time></trkpt><trkpt lat="32.9847715" lon="10.3416713"><ele>261.0</ele><time>2026-04-26T11:27:37.675Z</time></trkpt><trkpt lat="32.9846215" lon="10.3418046"><ele>262.0</ele><time>2026-04-26T11:27:38.678Z</time></trkpt><trkpt lat="32.9844852" lon="10.3419513"><ele>262.0</ele><time>2026-04-26T11:27:39.679Z</time></trkpt><trkpt lat="32.984352" lon="10.3421041"><ele>262.0</ele><time>2026-04-26T11:27:40.66Z</time></trkpt><trkpt lat="32.984219" lon="10.3422548"><ele>262.0</ele><time>2026-04-26T11:27:41.762Z</time></trkpt><trkpt lat="32.9840769" lon="10.3424083"><ele>262.3333333333333</ele><time>2026-04-26T11:27:42.674Z</time></trkpt><trkpt lat="32.9839344" lon="10.3425546"><ele>262.6666666666667</ele><time>2026-04-26T11:27:43.672Z</time></trkpt><trkpt lat="32.9837829" lon="10.3427"><ele>263.0</ele><time>2026-04-26T11:27:44.682Z</time></trkpt><trkpt lat="32.9836281" lon="10.3428469"><ele>263.0</ele><time>2026-04-26T11:27:45.667Z</time></trkpt><trkpt lat="32.983468" lon="10.3429934"><ele>263.0</ele><time>2026-04-26T11:27:46.674Z</time></trkpt><trkpt lat="32.9833084" lon="10.3431396"><ele>263.0</ele><time>2026-04-26T11:27:47.673Z</time></trkpt><trkpt lat="32.9831523" lon="10.3432908"><ele>261.33333333333337</ele><time>2026-04-26T11:27:48.666Z</time></trkpt><trkpt lat="32.9830011" lon="10.3434383"><ele>259.6666666666667</ele><time>2026-04-26T11:27:49.673Z</time></trkpt><trkpt lat="32.9828447" lon="10.3435869"><ele>258.0</ele><time>2026-04-26T11:27:50.658Z</time></trkpt><trkpt lat="32.9826882" lon="10.3437318"><ele>258.0</ele><time>2026-04-26T11:27:51.661Z</time></trkpt><trkpt lat="32.9825359" lon="10.343877"><ele>258.0</ele><time>2026-04-26T11:27:52.687Z</time></trkpt><trkpt lat="32.9823834" lon="10.3440231"><ele>258.0</ele><time>2026-04-26T11:27:53.673Z</time></trkpt><trkpt lat="32.9822369" lon="10.3441686"><ele>258.3333333333333</ele><time>2026-04-26T11:27:54.673Z</time></trkpt><trkpt lat="32.9820892" lon="10.3443058"><ele>258.66666666666663</ele><time>2026-04-26T11:27:55.653Z</time></trkpt><trkpt lat="32.9819437" lon="10.3444472"><ele>259.0</ele><time>2026-04-26T11:27:56.67Z</time></trkpt><trkpt lat="32.9817978" lon="10.344588"><ele>259.0</ele><time>2026-04-26T11:27:57.676Z</time></trkpt><trkpt lat="32.9816506" lon="10.3447295"><ele>259.0</ele><time>2026-04-26T11:27:58.663Z</time></trkpt><trkpt lat="32.9815022" lon="10.3448749"><ele>259.0</ele><time>2026-04-26T11:27:59.665Z</time></trkpt><trkpt lat="32.9813509" lon="10.3450182"><ele>259.0</ele><time>2026-04-26T11:28:00.666Z</time></trkpt><trkpt lat="32.9812059" lon="10.3451618"><ele>259.0</ele><time>2026-04-26T11:28:01.672Z</time></trkpt><trkpt lat="32.9810599" lon="10.3453114"><ele>259.0</ele><time>2026-04-26T11:28:02.68Z</time></trkpt><trkpt lat="32.9809186" lon="10.3454551"><ele>259.66666666666663</ele><time>2026-04-26T11:28:03.66Z</time></trkpt><trkpt lat="32.9807813" lon="10.3455921"><ele>260.3333333333333</ele><time>2026-04-26T11:28:04.66Z</time></trkpt><trkpt lat="32.9806468" lon="10.345733"><ele>261.0</ele><time>2026-04-26T11:28:05.661Z</time></trkpt><trkpt lat="32.9805156" lon="10.3458656"><ele>261.0</ele><time>2026-04-26T11:28:06.668Z</time></trkpt><trkpt lat="32.9803801" lon="10.3460016"><ele>261.0</ele><time>2026-04-26T11:28:07.663Z</time></trkpt><trkpt lat="32.9802465" lon="10.3461352"><ele>261.0</ele><time>2026-04-26T11:28:08.658Z</time></trkpt><trkpt lat="32.9801132" lon="10.346275"><ele>261.0</ele><time>2026-04-26T11:28:09.664Z</time></trkpt><trkpt lat="32.9799758" lon="10.3464093"><ele>261.0</ele><time>2026-04-26T11:28:10.661Z</time></trkpt><trkpt lat="32.9798354" lon="10.3465458"><ele>261.0</ele><time>2026-04-26T11:28:11.662Z</time></trkpt><trkpt lat="32.979695" lon="10.3466813"><ele>261.0</ele><time>2026-04-26T11:28:12.666Z</time></trkpt><trkpt lat="32.9795535" lon="10.3468155"><ele>261.0</ele><time>2026-04-26T11:28:13.672Z</time></trkpt><trkpt lat="32.979412" lon="10.3469574"><ele>261.0</ele><time>2026-04-26T11:28:14.658Z</time></trkpt><trkpt lat="32.9792713" lon="10.3470929"><ele>261.6666666666667</ele><time>2026-04-26T11:28:15.671Z</time></trkpt><trkpt lat="32.9791207" lon="10.3472149"><ele>262.33333333333337</ele><time>2026-04-26T11:28:16.665Z</time></trkpt><trkpt lat="32.9789692" lon="10.3473345"><ele>263.0</ele><time>2026-04-26T11:28:17.668Z</time></trkpt><trkpt lat="32.978822" lon="10.3474488"><ele>263.0</ele><time>2026-04-26T11:28:18.671Z</time></trkpt><trkpt lat="32.978665" lon="10.3475531"><ele>263.0</ele><time>2026-04-26T11:28:19.668Z</time></trkpt><trkpt lat="32.9784995" lon="10.3476478"><ele>263.0</ele><time>2026-04-26T11:28:20.662Z</time></trkpt><trkpt lat="32.978341" lon="10.3477349"><ele>263.6666666666667</ele><time>2026-04-26T11:28:21.672Z</time></trkpt><trkpt lat="32.9781861" lon="10.3478123"><ele>264.3333333333333</ele><time>2026-04-26T11:28:22.675Z</time></trkpt><trkpt lat="32.9780329" lon="10.347876"><ele>265.0</ele><time>2026-04-26T11:28:23.675Z</time></trkpt><trkpt lat="32.9778871" lon="10.3479444"><ele>265.0</ele><time>2026-04-26T11:28:24.688Z</time></trkpt><trkpt lat="32.9777317" lon="10.3480058"><ele>265.0</ele><time>2026-04-26T11:28:25.66Z</time></trkpt><trkpt lat="32.9775785" lon="10.3480675"><ele>265.0</ele><time>2026-04-26T11:28:26.674Z</time></trkpt><trkpt lat="32.9774294" lon="10.3481337"><ele>265.3333333333333</ele><time>2026-04-26T11:28:27.669Z</time></trkpt><trkpt lat="32.9772762" lon="10.3481983"><ele>265.6666666666667</ele><time>2026-04-26T11:28:28.671Z</time></trkpt><trkpt lat="32.97713" lon="10.3482546"><ele>266.0</ele><time>2026-04-26T11:28:29.666Z</time></trkpt><trkpt lat="32.9769933" lon="10.3483015"><ele>266.0</ele><time>2026-04-26T11:28:30.669Z</time></trkpt><trkpt lat="32.9768721" lon="10.3483486"><ele>266.0</ele><time>2026-04-26T11:28:31.671Z</time></trkpt><trkpt lat="32.9767653" lon="10.3483962"><ele>266.0</ele><time>2026-04-26T11:28:32.675Z</time></trkpt><trkpt lat="32.9766584" lon="10.3484363"><ele>266.0</ele><time>2026-04-26T11:28:33.657Z</time></trkpt><trkpt lat="32.9765551" lon="10.3484789"><ele>265.6666666666667</ele><time>2026-04-26T11:28:34.669Z</time></trkpt><trkpt lat="32.9764591" lon="10.3485198"><ele>265.33333333333337</ele><time>2026-04-26T11:28:35.677Z</time></trkpt><trkpt lat="32.9763887" lon="10.3485529"><ele>265.0</ele><time>2026-04-26T11:28:36.665Z</time></trkpt><trkpt lat="32.9762699" lon="10.3485986"><ele>264.6666666666667</ele><time>2026-04-26T11:28:38.67Z</time></trkpt><trkpt lat="32.9762084" lon="10.3486193"><ele>264.3333333333333</ele><time>2026-04-26T11:28:39.664Z</time></trkpt><trkpt lat="32.9761446" lon="10.3486431"><ele>264.0</ele><time>2026-04-26T11:28:40.669Z</time></trkpt><trkpt lat="32.9760769" lon="10.3486657"><ele>264.0</ele><time>2026-04-26T11:28:41.653Z</time></trkpt><trkpt lat="32.9759631" lon="10.3487026"><ele>264.0</ele><time>2026-04-26T11:28:43.667Z</time></trkpt><trkpt lat="32.9758372" lon="10.3487561"><ele>264.0</ele><time>2026-04-26T11:28:45.683Z</time></trkpt><trkpt lat="32.9757628" lon="10.348782"><ele>264.0</ele><time>2026-04-26T11:28:46.685Z</time></trkpt><trkpt lat="32.9756737" lon="10.3488003"><ele>264.0</ele><time>2026-04-26T11:28:47.657Z</time></trkpt><trkpt lat="32.975581" lon="10.3488173"><ele>264.2</ele><time>2026-04-26T11:28:48.67Z</time></trkpt><trkpt lat="32.9754833" lon="10.348848"><ele>264.4</ele><time>2026-04-26T11:28:49.673Z</time></trkpt><trkpt lat="32.9753804" lon="10.348893"><ele>264.6</ele><time>2026-04-26T11:28:50.668Z</time></trkpt><trkpt lat="32.9752701" lon="10.3489379"><ele>264.8</ele><time>2026-04-26T11:28:51.669Z</time></trkpt><trkpt lat="32.9751526" lon="10.3489782"><ele>265.0</ele><time>2026-04-26T11:28:52.661Z</time></trkpt><trkpt lat="32.9750339" lon="10.3490152"><ele>265.25</ele><time>2026-04-26T11:28:53.664Z</time></trkpt><trkpt lat="32.9749112" lon="10.3490632"><ele>265.5</ele><time>2026-04-26T11:28:54.677Z</time></trkpt><trkpt lat="32.974791" lon="10.3491109"><ele>265.75</ele><time>2026-04-26T11:28:55.668Z</time></trkpt><trkpt lat="32.9746655" lon="10.3491555"><ele>266.0</ele><time>2026-04-26T11:28:56.666Z</time></trkpt><trkpt lat="32.974542" lon="10.3492033"><ele>266.0</ele><time>2026-04-26T11:28:57.672Z</time></trkpt><trkpt lat="32.9744101" lon="10.3492524"><ele>266.0</ele><time>2026-04-26T11:28:58.657Z</time></trkpt><trkpt lat="32.9742786" lon="10.3493003"><ele>266.0</ele><time>2026-04-26T11:28:59.663Z</time></trkpt><trkpt lat="32.9741473" lon="10.3493498"><ele>266.0</ele><time>2026-04-26T11:29:00.666Z</time></trkpt><trkpt lat="32.974018" lon="10.3493975"><ele>266.25</ele><time>2026-04-26T11:29:01.665Z</time></trkpt><trkpt lat="32.9738882" lon="10.3494437"><ele>266.5</ele><time>2026-04-26T11:29:02.66Z</time></trkpt><trkpt lat="32.9737555" lon="10.3494964"><ele>266.75</ele><time>2026-04-26T11:29:03.667Z</time></trkpt><trkpt lat="32.9736271" lon="10.349559"><ele>267.0</ele><time>2026-04-26T11:29:04.685Z</time></trkpt><trkpt lat="32.9735036" lon="10.349636"><ele>266.5</ele><time>2026-04-26T11:29:05.668Z</time></trkpt><trkpt lat="32.9733774" lon="10.3497205"><ele>266.0</ele><time>2026-04-26T11:29:06.668Z</time></trkpt><trkpt lat="32.9732526" lon="10.3498111"><ele>265.5</ele><time>2026-04-26T11:29:07.738Z</time></trkpt><trkpt lat="32.9731349" lon="10.3499094"><ele>265.0</ele><time>2026-04-26T11:29:08.676Z</time></trkpt><trkpt lat="32.9730221" lon="10.3500187"><ele>265.0</ele><time>2026-04-26T11:29:09.666Z</time></trkpt><trkpt lat="32.9729112" lon="10.3501329"><ele>265.0</ele><time>2026-04-26T11:29:10.671Z</time></trkpt><trkpt lat="32.9728028" lon="10.3502565"><ele>265.0</ele><time>2026-04-26T11:29:11.659Z</time></trkpt><trkpt lat="32.9726944" lon="10.3503742"><ele>265.0</ele><time>2026-04-26T11:29:12.681Z</time></trkpt><trkpt lat="32.9725852" lon="10.3504892"><ele>265.0</ele><time>2026-04-26T11:29:13.674Z</time></trkpt><trkpt lat="32.9724711" lon="10.3506147"><ele>265.0</ele><time>2026-04-26T11:29:14.672Z</time></trkpt><trkpt lat="32.9723541" lon="10.350738"><ele>265.0</ele><time>2026-04-26T11:29:15.672Z</time></trkpt><trkpt lat="32.9722409" lon="10.350864"><ele>265.0</ele><time>2026-04-26T11:29:16.663Z</time></trkpt><trkpt lat="32.9721211" lon="10.3509903"><ele>265.0</ele><time>2026-04-26T11:29:17.67Z</time></trkpt><trkpt lat="32.9720014" lon="10.3511156"><ele>265.0</ele><time>2026-04-26T11:29:18.644Z</time></trkpt><trkpt lat="32.971881" lon="10.3512446"><ele>265.66666666666663</ele><time>2026-04-26T11:29:19.669Z</time></trkpt><trkpt lat="32.9717636" lon="10.3513823"><ele>266.3333333333333</ele><time>2026-04-26T11:29:20.672Z</time></trkpt><trkpt lat="32.9716428" lon="10.3515239"><ele>267.0</ele><time>2026-04-26T11:29:21.664Z</time></trkpt><trkpt lat="32.9715219" lon="10.3516603"><ele>267.0</ele><time>2026-04-26T11:29:22.663Z</time></trkpt><trkpt lat="32.9713911" lon="10.3517865"><ele>267.0</ele><time>2026-04-26T11:29:23.67Z</time></trkpt><trkpt lat="32.9712583" lon="10.3518995"><ele>267.0</ele><time>2026-04-26T11:29:24.672Z</time></trkpt><trkpt lat="32.9711121" lon="10.3519917"><ele>267.0</ele><time>2026-04-26T11:29:25.653Z</time></trkpt><trkpt lat="32.9709591" lon="10.3520794"><ele>267.0</ele><time>2026-04-26T11:29:26.666Z</time></trkpt><trkpt lat="32.9707923" lon="10.3521481"><ele>267.0</ele><time>2026-04-26T11:29:27.675Z</time></trkpt><trkpt lat="32.9706288" lon="10.3522162"><ele>267.3333333333333</ele><time>2026-04-26T11:29:28.676Z</time></trkpt><trkpt lat="32.9704632" lon="10.3522864"><ele>267.66666666666663</ele><time>2026-04-26T11:29:29.674Z</time></trkpt><trkpt lat="32.9702924" lon="10.3523527"><ele>268.0</ele><time>2026-04-26T11:29:30.662Z</time></trkpt><trkpt lat="32.9701198" lon="10.35242"><ele>268.0</ele><time>2026-04-26T11:29:31.672Z</time></trkpt><trkpt lat="32.9699461" lon="10.3524899"><ele>268.0</ele><time>2026-04-26T11:29:32.662Z</time></trkpt><trkpt lat="32.969766" lon="10.3525617"><ele>268.0</ele><time>2026-04-26T11:29:33.682Z</time></trkpt><trkpt lat="32.9695873" lon="10.3526426"><ele>268.0</ele><time>2026-04-26T11:29:34.665Z</time></trkpt><trkpt lat="32.9694123" lon="10.3527251"><ele>268.0</ele><time>2026-04-26T11:29:35.671Z</time></trkpt><trkpt lat="32.9692341" lon="10.3528115"><ele>268.0</ele><time>2026-04-26T11:29:36.666Z</time></trkpt><trkpt lat="32.9690554" lon="10.3529004"><ele>268.0</ele><time>2026-04-26T11:29:37.671Z</time></trkpt><trkpt lat="32.9688764" lon="10.3529881"><ele>268.0</ele><time>2026-04-26T11:29:38.663Z</time></trkpt><trkpt lat="32.9687048" lon="10.3530799"><ele>268.0</ele><time>2026-04-26T11:29:39.662Z</time></trkpt><trkpt lat="32.9685408" lon="10.3531775"><ele>268.0</ele><time>2026-04-26T11:29:40.666Z</time></trkpt><trkpt lat="32.9683692" lon="10.3532806"><ele>268.0</ele><time>2026-04-26T11:29:41.655Z</time></trkpt><trkpt lat="32.9682066" lon="10.3533812"><ele>268.0</ele><time>2026-04-26T11:29:42.664Z</time></trkpt><trkpt lat="32.9680413" lon="10.3534828"><ele>268.0</ele><time>2026-04-26T11:29:43.668Z</time></trkpt><trkpt lat="32.9678713" lon="10.3535856"><ele>268.0</ele><time>2026-04-26T11:29:44.663Z</time></trkpt><trkpt lat="32.9677055" lon="10.3536896"><ele>268.0</ele><time>2026-04-26T11:29:45.679Z</time></trkpt><trkpt lat="32.9675462" lon="10.353801"><ele>268.3333333333333</ele><time>2026-04-26T11:29:46.666Z</time></trkpt><trkpt lat="32.9673887" lon="10.353912"><ele>268.6666666666667</ele><time>2026-04-26T11:29:47.674Z</time></trkpt><trkpt lat="32.9672351" lon="10.3540357"><ele>269.0</ele><time>2026-04-26T11:29:48.666Z</time></trkpt><trkpt lat="32.9670863" lon="10.3541646"><ele>269.0</ele><time>2026-04-26T11:29:49.685Z</time></trkpt><trkpt lat="32.9669397" lon="10.3543022"><ele>269.0</ele><time>2026-04-26T11:29:50.679Z</time></trkpt><trkpt lat="32.9667984" lon="10.3544502"><ele>269.0</ele><time>2026-04-26T11:29:51.683Z</time></trkpt><trkpt lat="32.9666684" lon="10.3546057"><ele>270.0</ele><time>2026-04-26T11:29:52.671Z</time></trkpt><trkpt lat="32.9665402" lon="10.3547644"><ele>271.0</ele><time>2026-04-26T11:29:53.662Z</time></trkpt><trkpt lat="32.9664157" lon="10.354931"><ele>272.0</ele><time>2026-04-26T11:29:54.671Z</time></trkpt><trkpt lat="32.9662914" lon="10.355085"><ele>272.0</ele><time>2026-04-26T11:29:55.677Z</time></trkpt><trkpt lat="32.9661709" lon="10.3552415"><ele>272.0</ele><time>2026-04-26T11:29:56.67Z</time></trkpt><trkpt lat="32.9660626" lon="10.3553895"><ele>272.0</ele><time>2026-04-26T11:29:57.669Z</time></trkpt><trkpt lat="32.9659491" lon="10.355542"><ele>272.33333333333337</ele><time>2026-04-26T11:29:58.704Z</time></trkpt><trkpt lat="32.965839" lon="10.3556855"><ele>272.6666666666667</ele><time>2026-04-26T11:29:59.669Z</time></trkpt><trkpt lat="32.9657263" lon="10.3558254"><ele>273.0</ele><time>2026-04-26T11:30:00.667Z</time></trkpt><trkpt lat="32.965615" lon="10.3559723"><ele>273.0</ele><time>2026-04-26T11:30:01.67Z</time></trkpt><trkpt lat="32.965505" lon="10.3561162"><ele>273.0</ele><time>2026-04-26T11:30:02.665Z</time></trkpt><trkpt lat="32.9653968" lon="10.3562611"><ele>273.0</ele><time>2026-04-26T11:30:03.655Z</time></trkpt><trkpt lat="32.9652882" lon="10.3564079"><ele>273.3333333333333</ele><time>2026-04-26T11:30:04.691Z</time></trkpt><trkpt lat="32.9651802" lon="10.3565524"><ele>273.66666666666663</ele><time>2026-04-26T11:30:05.675Z</time></trkpt><trkpt lat="32.9650762" lon="10.356692"><ele>274.0</ele><time>2026-04-26T11:30:06.67Z</time></trkpt><trkpt lat="32.964972" lon="10.3568293"><ele>274.0</ele><time>2026-04-26T11:30:07.673Z</time></trkpt><trkpt lat="32.9648701" lon="10.3569664"><ele>274.0</ele><time>2026-04-26T11:30:08.667Z</time></trkpt><trkpt lat="32.9647697" lon="10.3570993"><ele>274.0</ele><time>2026-04-26T11:30:09.678Z</time></trkpt><trkpt lat="32.9646673" lon="10.3572261"><ele>274.66666666666663</ele><time>2026-04-26T11:30:10.664Z</time></trkpt><trkpt lat="32.9645636" lon="10.3573524"><ele>275.3333333333333</ele><time>2026-04-26T11:30:11.67Z</time></trkpt><trkpt lat="32.9644594" lon="10.3574864"><ele>276.0</ele><time>2026-04-26T11:30:12.661Z</time></trkpt><trkpt lat="32.9643506" lon="10.3576164"><ele>276.0</ele><time>2026-04-26T11:30:13.667Z</time></trkpt><trkpt lat="32.9642379" lon="10.3577503"><ele>276.0</ele><time>2026-04-26T11:30:14.675Z</time></trkpt><trkpt lat="32.9641281" lon="10.3578822"><ele>276.0</ele><time>2026-04-26T11:30:15.678Z</time></trkpt><trkpt lat="32.9640148" lon="10.3580231"><ele>276.0</ele><time>2026-04-26T11:30:16.674Z</time></trkpt><trkpt lat="32.9639036" lon="10.3581561"><ele>276.0</ele><time>2026-04-26T11:30:17.68Z</time></trkpt><trkpt lat="32.9637939" lon="10.358292"><ele>276.0</ele><time>2026-04-26T11:30:18.664Z</time></trkpt><trkpt lat="32.9636829" lon="10.3584276"><ele>276.0</ele><time>2026-04-26T11:30:19.667Z</time></trkpt><trkpt lat="32.9635713" lon="10.3585614"><ele>276.0</ele><time>2026-04-26T11:30:20.671Z</time></trkpt><trkpt lat="32.96346" lon="10.3586975"><ele>276.0</ele><time>2026-04-26T11:30:21.669Z</time></trkpt><trkpt lat="32.9633513" lon="10.3588368"><ele>276.0</ele><time>2026-04-26T11:30:22.678Z</time></trkpt><trkpt lat="32.9632426" lon="10.3589723"><ele>276.0</ele><time>2026-04-26T11:30:23.685Z</time></trkpt><trkpt lat="32.9631314" lon="10.3591136"><ele>276.0</ele><time>2026-04-26T11:30:24.671Z</time></trkpt><trkpt lat="32.9630198" lon="10.3592545"><ele>276.0</ele><time>2026-04-26T11:30:25.686Z</time></trkpt><trkpt lat="32.9629045" lon="10.3593925"><ele>276.0</ele><time>2026-04-26T11:30:26.683Z</time></trkpt><trkpt lat="32.9627867" lon="10.3595364"><ele>276.0</ele><time>2026-04-26T11:30:27.664Z</time></trkpt><trkpt lat="32.9626695" lon="10.3596873"><ele>276.3333333333333</ele><time>2026-04-26T11:30:28.675Z</time></trkpt><trkpt lat="32.9625524" lon="10.3598369"><ele>276.66666666666663</ele><time>2026-04-26T11:30:29.666Z</time></trkpt><trkpt lat="32.9624411" lon="10.3599833"><ele>277.0</ele><time>2026-04-26T11:30:30.65Z</time></trkpt><trkpt lat="32.9623218" lon="10.360135"><ele>277.0</ele><time>2026-04-26T11:30:31.666Z</time></trkpt><trkpt lat="32.9622062" lon="10.3602771"><ele>277.0</ele><time>2026-04-26T11:30:32.656Z</time></trkpt><trkpt lat="32.9620929" lon="10.3604231"><ele>277.0</ele><time>2026-04-26T11:30:33.675Z</time></trkpt><trkpt lat="32.9619796" lon="10.3605662"><ele>277.66666666666663</ele><time>2026-04-26T11:30:34.675Z</time></trkpt><trkpt lat="32.9618634" lon="10.3607135"><ele>278.3333333333333</ele><time>2026-04-26T11:30:35.67Z</time></trkpt><trkpt lat="32.961749" lon="10.3608578"><ele>279.0</ele><time>2026-04-26T11:30:36.672Z</time></trkpt><trkpt lat="32.9616282" lon="10.3610026"><ele>279.0</ele><time>2026-04-26T11:30:37.693Z</time></trkpt><trkpt lat="32.9615107" lon="10.3611489"><ele>279.0</ele><time>2026-04-26T11:30:38.676Z</time></trkpt><trkpt lat="32.9613904" lon="10.3612909"><ele>279.0</ele><time>2026-04-26T11:30:39.669Z</time></trkpt><trkpt lat="32.9612681" lon="10.3614365"><ele>279.0</ele><time>2026-04-26T11:30:40.68Z</time></trkpt><trkpt lat="32.9611473" lon="10.3615771"><ele>279.0</ele><time>2026-04-26T11:30:41.677Z</time></trkpt><trkpt lat="32.961021" lon="10.3617126"><ele>279.0</ele><time>2026-04-26T11:30:42.686Z</time></trkpt><trkpt lat="32.9608947" lon="10.3618557"><ele>279.0</ele><time>2026-04-26T11:30:43.661Z</time></trkpt><trkpt lat="32.960775" lon="10.361993"><ele>279.0</ele><time>2026-04-26T11:30:44.67Z</time></trkpt><trkpt lat="32.9606488" lon="10.3621261"><ele>279.0</ele><time>2026-04-26T11:30:45.677Z</time></trkpt><trkpt lat="32.9605192" lon="10.3622576"><ele>279.3333333333333</ele><time>2026-04-26T11:30:46.669Z</time></trkpt><trkpt lat="32.9603847" lon="10.3623799"><ele>279.66666666666663</ele><time>2026-04-26T11:30:47.682Z</time></trkpt><trkpt lat="32.9602466" lon="10.3624973"><ele>280.0</ele><time>2026-04-26T11:30:48.665Z</time></trkpt><trkpt lat="32.9601091" lon="10.3626118"><ele>279.66666666666663</ele><time>2026-04-26T11:30:49.662Z</time></trkpt><trkpt lat="32.9599715" lon="10.362721"><ele>279.3333333333333</ele><time>2026-04-26T11:30:50.675Z</time></trkpt><trkpt lat="32.9598338" lon="10.3628315"><ele>279.0</ele><time>2026-04-26T11:30:51.681Z</time></trkpt><trkpt lat="32.9596973" lon="10.3629434"><ele>279.3333333333333</ele><time>2026-04-26T11:30:52.676Z</time></trkpt><trkpt lat="32.9595553" lon="10.3630563"><ele>279.66666666666663</ele><time>2026-04-26T11:30:53.686Z</time></trkpt><trkpt lat="32.9594124" lon="10.3631719"><ele>280.0</ele><time>2026-04-26T11:30:54.672Z</time></trkpt><trkpt lat="32.95927" lon="10.3632819"><ele>280.0</ele><time>2026-04-26T11:30:55.67Z</time></trkpt><trkpt lat="32.9591311" lon="10.3633993"><ele>280.0</ele><time>2026-04-26T11:30:56.673Z</time></trkpt><trkpt lat="32.9589951" lon="10.3635214"><ele>280.0</ele><time>2026-04-26T11:30:57.677Z</time></trkpt><trkpt lat="32.9588625" lon="10.3636469"><ele>280.0</ele><time>2026-04-26T11:30:58.68Z</time></trkpt><trkpt lat="32.9587273" lon="10.3637727"><ele>280.0</ele><time>2026-04-26T11:30:59.68Z</time></trkpt><trkpt lat="32.9585882" lon="10.3639026"><ele>280.0</ele><time>2026-04-26T11:31:00.677Z</time></trkpt><trkpt lat="32.9584532" lon="10.3640349"><ele>279.66666666666663</ele><time>2026-04-26T11:31:01.682Z</time></trkpt><trkpt lat="32.9583207" lon="10.3641611"><ele>279.3333333333333</ele><time>2026-04-26T11:31:02.67Z</time></trkpt><trkpt lat="32.9581831" lon="10.3642949"><ele>279.0</ele><time>2026-04-26T11:31:03.663Z</time></trkpt><trkpt lat="32.9580438" lon="10.3644272"><ele>279.0</ele><time>2026-04-26T11:31:04.665Z</time></trkpt><trkpt lat="32.9579026" lon="10.3645546"><ele>279.0</ele><time>2026-04-26T11:31:05.677Z</time></trkpt><trkpt lat="32.9577587" lon="10.3646849"><ele>279.0</ele><time>2026-04-26T11:31:06.682Z</time></trkpt><trkpt lat="32.9576145" lon="10.3648159"><ele>279.3333333333333</ele><time>2026-04-26T11:31:07.674Z</time></trkpt><trkpt lat="32.9574675" lon="10.3649468"><ele>279.66666666666663</ele><time>2026-04-26T11:31:08.676Z</time></trkpt><trkpt lat="32.9573184" lon="10.3650751"><ele>280.0</ele><time>2026-04-26T11:31:09.658Z</time></trkpt><trkpt lat="32.9571718" lon="10.3652079"><ele>280.0</ele><time>2026-04-26T11:31:10.676Z</time></trkpt><trkpt lat="32.9570285" lon="10.3653407"><ele>280.0</ele><time>2026-04-26T11:31:11.669Z</time></trkpt><trkpt lat="32.9568819" lon="10.3654755"><ele>280.0</ele><time>2026-04-26T11:31:12.659Z</time></trkpt><trkpt lat="32.9567415" lon="10.365612"><ele>281.0</ele><time>2026-04-26T11:31:13.672Z</time></trkpt><trkpt lat="32.9565949" lon="10.3657474"><ele>282.0</ele><time>2026-04-26T11:31:14.663Z</time></trkpt><trkpt lat="32.9564492" lon="10.3658878"><ele>283.0</ele><time>2026-04-26T11:31:15.668Z</time></trkpt><trkpt lat="32.956309" lon="10.366023"><ele>283.0</ele><time>2026-04-26T11:31:16.667Z</time></trkpt><trkpt lat="32.9561646" lon="10.3661598"><ele>283.0</ele><time>2026-04-26T11:31:17.676Z</time></trkpt><trkpt lat="32.956022" lon="10.3662979"><ele>283.0</ele><time>2026-04-26T11:31:18.669Z</time></trkpt><trkpt lat="32.9558864" lon="10.3664407"><ele>283.66666666666663</ele><time>2026-04-26T11:31:19.662Z</time></trkpt><trkpt lat="32.9557558" lon="10.3665873"><ele>284.3333333333333</ele><time>2026-04-26T11:31:20.653Z</time></trkpt><trkpt lat="32.9556248" lon="10.366729"><ele>285.0</ele><time>2026-04-26T11:31:21.678Z</time></trkpt><trkpt lat="32.9554944" lon="10.3668697"><ele>285.0</ele><time>2026-04-26T11:31:22.678Z</time></trkpt><trkpt lat="32.9553649" lon="10.3670091"><ele>285.0</ele><time>2026-04-26T11:31:23.67Z</time></trkpt><trkpt lat="32.9552297" lon="10.3671466"><ele>285.0</ele><time>2026-04-26T11:31:24.679Z</time></trkpt><trkpt lat="32.955099" lon="10.3672829"><ele>285.0</ele><time>2026-04-26T11:31:25.673Z</time></trkpt><trkpt lat="32.9549662" lon="10.3674221"><ele>285.0</ele><time>2026-04-26T11:31:26.669Z</time></trkpt><trkpt lat="32.9548381" lon="10.3675592"><ele>285.0</ele><time>2026-04-26T11:31:27.666Z</time></trkpt><trkpt lat="32.9547114" lon="10.3677017"><ele>285.0</ele><time>2026-04-26T11:31:28.663Z</time></trkpt><trkpt lat="32.9545823" lon="10.3678387"><ele>285.0</ele><time>2026-04-26T11:31:29.684Z</time></trkpt><trkpt lat="32.9544542" lon="10.3679843"><ele>285.0</ele><time>2026-04-26T11:31:30.669Z</time></trkpt><trkpt lat="32.9543242" lon="10.3681322"><ele>285.0</ele><time>2026-04-26T11:31:31.679Z</time></trkpt><trkpt lat="32.9541925" lon="10.3682773"><ele>285.0</ele><time>2026-04-26T11:31:32.667Z</time></trkpt><trkpt lat="32.9540669" lon="10.3684224"><ele>285.0</ele><time>2026-04-26T11:31:33.668Z</time></trkpt><trkpt lat="32.9539337" lon="10.3685655"><ele>285.0</ele><time>2026-04-26T11:31:34.689Z</time></trkpt><trkpt lat="32.9537988" lon="10.3687112"><ele>285.0</ele><time>2026-04-26T11:31:35.678Z</time></trkpt><trkpt lat="32.9536666" lon="10.368857"><ele>285.0</ele><time>2026-04-26T11:31:36.671Z</time></trkpt><trkpt lat="32.9535298" lon="10.3690047"><ele>285.3333333333333</ele><time>2026-04-26T11:31:37.669Z</time></trkpt><trkpt lat="32.9533934" lon="10.3691538"><ele>285.66666666666663</ele><time>2026-04-26T11:31:38.666Z</time></trkpt><trkpt lat="32.9532527" lon="10.3692947"><ele>286.0</ele><time>2026-04-26T11:31:39.676Z</time></trkpt><trkpt lat="32.9531081" lon="10.3694365"><ele>286.0</ele><time>2026-04-26T11:31:40.661Z</time></trkpt><trkpt lat="32.9529657" lon="10.3695756"><ele>286.0</ele><time>2026-04-26T11:31:41.672Z</time></trkpt><trkpt lat="32.9528273" lon="10.3697138"><ele>286.0</ele><time>2026-04-26T11:31:42.666Z</time></trkpt><trkpt lat="32.9526898" lon="10.3698486"><ele>286.3333333333333</ele><time>2026-04-26T11:31:43.666Z</time></trkpt><trkpt lat="32.9525518" lon="10.3699873"><ele>286.6666666666667</ele><time>2026-04-26T11:31:44.656Z</time></trkpt><trkpt lat="32.9524134" lon="10.3701283"><ele>287.0</ele><time>2026-04-26T11:31:45.676Z</time></trkpt><trkpt lat="32.952272" lon="10.3702686"><ele>287.0</ele><time>2026-04-26T11:31:46.667Z</time></trkpt><trkpt lat="32.9521266" lon="10.3703964"><ele>287.0</ele><time>2026-04-26T11:31:47.666Z</time></trkpt><trkpt lat="32.9519827" lon="10.3705215"><ele>287.0</ele><time>2026-04-26T11:31:48.663Z</time></trkpt><trkpt lat="32.9518375" lon="10.3706414"><ele>287.0</ele><time>2026-04-26T11:31:49.676Z</time></trkpt><trkpt lat="32.9516825" lon="10.370759"><ele>287.0</ele><time>2026-04-26T11:31:50.676Z</time></trkpt><trkpt lat="32.9515264" lon="10.3708731"><ele>287.0</ele><time>2026-04-26T11:31:51.659Z</time></trkpt><trkpt lat="32.9513699" lon="10.3709789"><ele>287.0</ele><time>2026-04-26T11:31:52.669Z</time></trkpt><trkpt lat="32.9512097" lon="10.3710813"><ele>287.0</ele><time>2026-04-26T11:31:53.69Z</time></trkpt><trkpt lat="32.9510508" lon="10.3711842"><ele>287.0</ele><time>2026-04-26T11:31:54.672Z</time></trkpt><trkpt lat="32.9508982" lon="10.3712828"><ele>288.0</ele><time>2026-04-26T11:31:55.665Z</time></trkpt><trkpt lat="32.9507468" lon="10.3713829"><ele>289.0</ele><time>2026-04-26T11:31:56.667Z</time></trkpt><trkpt lat="32.9506024" lon="10.3714833"><ele>290.0</ele><time>2026-04-26T11:31:57.675Z</time></trkpt><trkpt lat="32.9504596" lon="10.3715812"><ele>290.0</ele><time>2026-04-26T11:31:58.677Z</time></trkpt><trkpt lat="32.9503195" lon="10.3716812"><ele>290.0</ele><time>2026-04-26T11:31:59.679Z</time></trkpt><trkpt lat="32.950168" lon="10.3717769"><ele>290.0</ele><time>2026-04-26T11:32:00.685Z</time></trkpt><trkpt lat="32.9500231" lon="10.3718764"><ele>289.33333333333337</ele><time>2026-04-26T11:32:01.66Z</time></trkpt><trkpt lat="32.9498742" lon="10.3719714"><ele>288.6666666666667</ele><time>2026-04-26T11:32:02.671Z</time></trkpt><trkpt lat="32.9497256" lon="10.3720653"><ele>288.0</ele><time>2026-04-26T11:32:03.677Z</time></trkpt><trkpt lat="32.9495705" lon="10.3721615"><ele>288.6666666666667</ele><time>2026-04-26T11:32:04.662Z</time></trkpt><trkpt lat="32.9494186" lon="10.372256"><ele>289.33333333333337</ele><time>2026-04-26T11:32:05.678Z</time></trkpt><trkpt lat="32.9492635" lon="10.3723425"><ele>290.0</ele><time>2026-04-26T11:32:06.669Z</time></trkpt><trkpt lat="32.9491081" lon="10.3724223"><ele>290.0</ele><time>2026-04-26T11:32:07.68Z</time></trkpt><trkpt lat="32.9489542" lon="10.3725041"><ele>290.0</ele><time>2026-04-26T11:32:08.689Z</time></trkpt><trkpt lat="32.9487997" lon="10.3725862"><ele>290.0</ele><time>2026-04-26T11:32:09.682Z</time></trkpt><trkpt lat="32.9486447" lon="10.3726618"><ele>290.0</ele><time>2026-04-26T11:32:10.671Z</time></trkpt><trkpt lat="32.9484903" lon="10.3727373"><ele>290.0</ele><time>2026-04-26T11:32:11.671Z</time></trkpt><trkpt lat="32.9483329" lon="10.3728128"><ele>290.0</ele><time>2026-04-26T11:32:12.662Z</time></trkpt><trkpt lat="32.948177" lon="10.3728928"><ele>290.33333333333337</ele><time>2026-04-26T11:32:13.677Z</time></trkpt><trkpt lat="32.9480192" lon="10.3729732"><ele>290.6666666666667</ele><time>2026-04-26T11:32:14.672Z</time></trkpt><trkpt lat="32.9478652" lon="10.3730525"><ele>291.0</ele><time>2026-04-26T11:32:15.668Z</time></trkpt><trkpt lat="32.9477118" lon="10.3731332"><ele>290.0</ele><time>2026-04-26T11:32:16.66Z</time></trkpt><trkpt lat="32.9475545" lon="10.3732098"><ele>289.0</ele><time>2026-04-26T11:32:17.668Z</time></trkpt><trkpt lat="32.9473986" lon="10.3732886"><ele>288.0</ele><time>2026-04-26T11:32:18.678Z</time></trkpt><trkpt lat="32.9472441" lon="10.3733688"><ele>288.0</ele><time>2026-04-26T11:32:19.662Z</time></trkpt><trkpt lat="32.947088" lon="10.3734512"><ele>288.0</ele><time>2026-04-26T11:32:20.662Z</time></trkpt><trkpt lat="32.9469304" lon="10.3735312"><ele>288.0</ele><time>2026-04-26T11:32:21.663Z</time></trkpt><trkpt lat="32.9467759" lon="10.3736137"><ele>287.3333333333333</ele><time>2026-04-26T11:32:22.659Z</time></trkpt><trkpt lat="32.9466234" lon="10.3737015"><ele>286.66666666666663</ele><time>2026-04-26T11:32:23.659Z</time></trkpt><trkpt lat="32.9464704" lon="10.3737845"><ele>286.0</ele><time>2026-04-26T11:32:24.671Z</time></trkpt><trkpt lat="32.9463188" lon="10.3738737"><ele>286.0</ele><time>2026-04-26T11:32:25.677Z</time></trkpt><trkpt lat="32.9461671" lon="10.3739612"><ele>286.0</ele><time>2026-04-26T11:32:26.669Z</time></trkpt><trkpt lat="32.94602" lon="10.3740535"><ele>286.0</ele><time>2026-04-26T11:32:27.67Z</time></trkpt><trkpt lat="32.9458737" lon="10.3741449"><ele>284.66666666666663</ele><time>2026-04-26T11:32:28.677Z</time></trkpt><trkpt lat="32.945728" lon="10.3742463"><ele>283.3333333333333</ele><time>2026-04-26T11:32:29.674Z</time></trkpt><trkpt lat="32.9455792" lon="10.3743457"><ele>282.0</ele><time>2026-04-26T11:32:30.666Z</time></trkpt><trkpt lat="32.9454308" lon="10.3744443"><ele>282.0</ele><time>2026-04-26T11:32:31.674Z</time></trkpt><trkpt lat="32.9452842" lon="10.3745453"><ele>282.0</ele><time>2026-04-26T11:32:32.671Z</time></trkpt><trkpt lat="32.945136" lon="10.3746508"><ele>282.0</ele><time>2026-04-26T11:32:33.654Z</time></trkpt><trkpt lat="32.9449921" lon="10.3747552"><ele>281.0</ele><time>2026-04-26T11:32:34.66Z</time></trkpt><trkpt lat="32.9448483" lon="10.3748684"><ele>280.0</ele><time>2026-04-26T11:32:35.688Z</time></trkpt><trkpt lat="32.9447044" lon="10.3749761"><ele>279.0</ele><time>2026-04-26T11:32:36.671Z</time></trkpt><trkpt lat="32.9445625" lon="10.3750793"><ele>279.0</ele><time>2026-04-26T11:32:37.68Z</time></trkpt><trkpt lat="32.944423" lon="10.3751887"><ele>279.0</ele><time>2026-04-26T11:32:38.675Z</time></trkpt><trkpt lat="32.9442836" lon="10.3753095"><ele>279.0</ele><time>2026-04-26T11:32:39.669Z</time></trkpt><trkpt lat="32.9441488" lon="10.3754354"><ele>278.6666666666667</ele><time>2026-04-26T11:32:40.677Z</time></trkpt><trkpt lat="32.9440177" lon="10.3755597"><ele>278.33333333333337</ele><time>2026-04-26T11:32:41.671Z</time></trkpt><trkpt lat="32.9438852" lon="10.3756875"><ele>278.0</ele><time>2026-04-26T11:32:42.67Z</time></trkpt><trkpt lat="32.9437519" lon="10.3758236"><ele>278.0</ele><time>2026-04-26T11:32:43.677Z</time></trkpt><trkpt lat="32.9436314" lon="10.3759549"><ele>278.0</ele><time>2026-04-26T11:32:44.675Z</time></trkpt><trkpt lat="32.9435188" lon="10.376099"><ele>278.0</ele><time>2026-04-26T11:32:45.665Z</time></trkpt><trkpt lat="32.9434042" lon="10.3762412"><ele>279.0</ele><time>2026-04-26T11:32:46.671Z</time></trkpt><trkpt lat="32.9432919" lon="10.3763862"><ele>280.0</ele><time>2026-04-26T11:32:47.686Z</time></trkpt><trkpt lat="32.943181" lon="10.3765336"><ele>281.0</ele><time>2026-04-26T11:32:48.665Z</time></trkpt><trkpt lat="32.9430746" lon="10.3766868"><ele>281.0</ele><time>2026-04-26T11:32:49.676Z</time></trkpt><trkpt lat="32.9429664" lon="10.3768362"><ele>281.0</ele><time>2026-04-26T11:32:50.676Z</time></trkpt><trkpt lat="32.9428604" lon="10.3769866"><ele>281.0</ele><time>2026-04-26T11:32:51.677Z</time></trkpt><trkpt lat="32.942756" lon="10.377149"><ele>281.33333333333337</ele><time>2026-04-26T11:32:52.669Z</time></trkpt><trkpt lat="32.9426558" lon="10.3773048"><ele>281.6666666666667</ele><time>2026-04-26T11:32:53.681Z</time></trkpt><trkpt lat="32.9425514" lon="10.3774598"><ele>282.0</ele><time>2026-04-26T11:32:54.679Z</time></trkpt><trkpt lat="32.9424457" lon="10.3776156"><ele>282.0</ele><time>2026-04-26T11:32:55.663Z</time></trkpt><trkpt lat="32.942346" lon="10.3777735"><ele>282.0</ele><time>2026-04-26T11:32:56.667Z</time></trkpt><trkpt lat="32.9422428" lon="10.37793"><ele>282.0</ele><time>2026-04-26T11:32:57.677Z</time></trkpt><trkpt lat="32.9421428" lon="10.378091"><ele>283.0</ele><time>2026-04-26T11:32:58.667Z</time></trkpt><trkpt lat="32.9420366" lon="10.3782476"><ele>284.0</ele><time>2026-04-26T11:32:59.691Z</time></trkpt><trkpt lat="32.9419228" lon="10.3783992"><ele>285.0</ele><time>2026-04-26T11:33:00.666Z</time></trkpt><trkpt lat="32.9418061" lon="10.3785489"><ele>285.0</ele><time>2026-04-26T11:33:01.667Z</time></trkpt><trkpt lat="32.9416879" lon="10.3786917"><ele>285.0</ele><time>2026-04-26T11:33:02.668Z</time></trkpt><trkpt lat="32.9415683" lon="10.3788387"><ele>285.0</ele><time>2026-04-26T11:33:03.669Z</time></trkpt><trkpt lat="32.9414517" lon="10.3789867"><ele>285.6666666666667</ele><time>2026-04-26T11:33:04.668Z</time></trkpt><trkpt lat="32.9413402" lon="10.37914"><ele>286.33333333333337</ele><time>2026-04-26T11:33:05.698Z</time></trkpt><trkpt lat="32.9412337" lon="10.3792923"><ele>287.0</ele><time>2026-04-26T11:33:06.671Z</time></trkpt><trkpt lat="32.9411282" lon="10.3794515"><ele>287.0</ele><time>2026-04-26T11:33:07.666Z</time></trkpt><trkpt lat="32.9410245" lon="10.37961"><ele>287.0</ele><time>2026-04-26T11:33:08.667Z</time></trkpt><trkpt lat="32.9409201" lon="10.3797617"><ele>287.0</ele><time>2026-04-26T11:33:09.675Z</time></trkpt><trkpt lat="32.9408137" lon="10.3799134"><ele>287.33333333333337</ele><time>2026-04-26T11:33:10.666Z</time></trkpt><trkpt lat="32.9407045" lon="10.3800573"><ele>287.6666666666667</ele><time>2026-04-26T11:33:11.669Z</time></trkpt><trkpt lat="32.9405866" lon="10.380201"><ele>288.0</ele><time>2026-04-26T11:33:12.669Z</time></trkpt><trkpt lat="32.9404618" lon="10.3803391"><ele>288.0</ele><time>2026-04-26T11:33:13.675Z</time></trkpt><trkpt lat="32.9403314" lon="10.3804686"><ele>288.0</ele><time>2026-04-26T11:33:14.681Z</time></trkpt><trkpt lat="32.9401993" lon="10.3805918"><ele>288.0</ele><time>2026-04-26T11:33:15.667Z</time></trkpt><trkpt lat="32.9400637" lon="10.3807076"><ele>288.3333333333333</ele><time>2026-04-26T11:33:16.653Z</time></trkpt><trkpt lat="32.9399257" lon="10.3808224"><ele>288.66666666666663</ele><time>2026-04-26T11:33:17.681Z</time></trkpt><trkpt lat="32.9397823" lon="10.3809363"><ele>289.0</ele><time>2026-04-26T11:33:18.673Z</time></trkpt><trkpt lat="32.9396417" lon="10.3810448"><ele>289.0</ele><time>2026-04-26T11:33:19.674Z</time></trkpt><trkpt lat="32.939499" lon="10.3811635"><ele>289.0</ele><time>2026-04-26T11:33:20.673Z</time></trkpt><trkpt lat="32.9393562" lon="10.3812797"><ele>289.0</ele><time>2026-04-26T11:33:21.673Z</time></trkpt><trkpt lat="32.9392191" lon="10.3813908"><ele>290.0</ele><time>2026-04-26T11:33:22.668Z</time></trkpt><trkpt lat="32.939078" lon="10.3815015"><ele>291.0</ele><time>2026-04-26T11:33:23.689Z</time></trkpt><trkpt lat="32.9389378" lon="10.3816202"><ele>292.0</ele><time>2026-04-26T11:33:24.676Z</time></trkpt><trkpt lat="32.9387962" lon="10.3817349"><ele>292.0</ele><time>2026-04-26T11:33:25.669Z</time></trkpt><trkpt lat="32.9386589" lon="10.3818529"><ele>292.0</ele><time>2026-04-26T11:33:26.671Z</time></trkpt><trkpt lat="32.9385217" lon="10.3819683"><ele>292.0</ele><time>2026-04-26T11:33:27.668Z</time></trkpt><trkpt lat="32.9383832" lon="10.3820763"><ele>293.0</ele><time>2026-04-26T11:33:28.664Z</time></trkpt><trkpt lat="32.9382444" lon="10.3821918"><ele>294.0</ele><time>2026-04-26T11:33:29.668Z</time></trkpt><trkpt lat="32.9381064" lon="10.3823085"><ele>295.0</ele><time>2026-04-26T11:33:30.678Z</time></trkpt><trkpt lat="32.9379691" lon="10.3824283"><ele>295.0</ele><time>2026-04-26T11:33:31.677Z</time></trkpt><trkpt lat="32.9378302" lon="10.3825452"><ele>295.0</ele><time>2026-04-26T11:33:32.674Z</time></trkpt><trkpt lat="32.9376888" lon="10.3826549"><ele>295.0</ele><time>2026-04-26T11:33:33.673Z</time></trkpt><trkpt lat="32.9375482" lon="10.382764"><ele>295.0</ele><time>2026-04-26T11:33:34.659Z</time></trkpt><trkpt lat="32.9374124" lon="10.3828778"><ele>295.0</ele><time>2026-04-26T11:33:35.672Z</time></trkpt><trkpt lat="32.9372734" lon="10.3829981"><ele>295.0</ele><time>2026-04-26T11:33:36.671Z</time></trkpt><trkpt lat="32.9371372" lon="10.3831145"><ele>295.3333333333333</ele><time>2026-04-26T11:33:37.666Z</time></trkpt><trkpt lat="32.9369988" lon="10.3832357"><ele>295.6666666666667</ele><time>2026-04-26T11:33:38.687Z</time></trkpt><trkpt lat="32.936861" lon="10.3833642"><ele>296.0</ele><time>2026-04-26T11:33:39.683Z</time></trkpt><trkpt lat="32.9367209" lon="10.3834995"><ele>296.33333333333337</ele><time>2026-04-26T11:33:40.673Z</time></trkpt><trkpt lat="32.9365884" lon="10.3836503"><ele>296.6666666666667</ele><time>2026-04-26T11:33:41.662Z</time></trkpt><trkpt lat="32.9364563" lon="10.3838088"><ele>297.0</ele><time>2026-04-26T11:33:42.658Z</time></trkpt><trkpt lat="32.9363184" lon="10.3839627"><ele>297.0</ele><time>2026-04-26T11:33:43.663Z</time></trkpt><trkpt lat="32.9361858" lon="10.3841214"><ele>297.0</ele><time>2026-04-26T11:33:44.668Z</time></trkpt><trkpt lat="32.9360545" lon="10.3842735"><ele>297.0</ele><time>2026-04-26T11:33:45.682Z</time></trkpt><trkpt lat="32.9359182" lon="10.3844263"><ele>296.6666666666667</ele><time>2026-04-26T11:33:46.66Z</time></trkpt><trkpt lat="32.9357869" lon="10.3845847"><ele>296.33333333333337</ele><time>2026-04-26T11:33:47.67Z</time></trkpt><trkpt lat="32.9356513" lon="10.3847433"><ele>296.0</ele><time>2026-04-26T11:33:48.667Z</time></trkpt><trkpt lat="32.9355144" lon="10.3848976"><ele>297.0</ele><time>2026-04-26T11:33:49.676Z</time></trkpt><trkpt lat="32.9353762" lon="10.385053"><ele>298.0</ele><time>2026-04-26T11:33:50.672Z</time></trkpt><trkpt lat="32.935238" lon="10.3852074"><ele>299.0</ele><time>2026-04-26T11:33:51.67Z</time></trkpt><trkpt lat="32.9350963" lon="10.3853629"><ele>299.6666666666667</ele><time>2026-04-26T11:33:52.672Z</time></trkpt><trkpt lat="32.9349572" lon="10.3855134"><ele>300.3333333333333</ele><time>2026-04-26T11:33:53.675Z</time></trkpt><trkpt lat="32.9348212" lon="10.385667"><ele>301.0</ele><time>2026-04-26T11:33:54.668Z</time></trkpt><trkpt lat="32.934681" lon="10.385821"><ele>301.0</ele><time>2026-04-26T11:33:55.669Z</time></trkpt><trkpt lat="32.9345345" lon="10.3859742"><ele>301.0</ele><time>2026-04-26T11:33:56.673Z</time></trkpt><trkpt lat="32.9343945" lon="10.3861292"><ele>301.0</ele><time>2026-04-26T11:33:57.669Z</time></trkpt><trkpt lat="32.9342542" lon="10.3862835"><ele>301.0</ele><time>2026-04-26T11:33:58.679Z</time></trkpt><trkpt lat="32.934122" lon="10.3864403"><ele>301.0</ele><time>2026-04-26T11:33:59.671Z</time></trkpt><trkpt lat="32.9339852" lon="10.3865994"><ele>301.0</ele><time>2026-04-26T11:34:00.672Z</time></trkpt><trkpt lat="32.9338471" lon="10.3867555"><ele>301.0</ele><time>2026-04-26T11:34:01.673Z</time></trkpt><trkpt lat="32.9337095" lon="10.3869128"><ele>301.0</ele><time>2026-04-26T11:34:02.677Z</time></trkpt><trkpt lat="32.9335735" lon="10.3870686"><ele>301.0</ele><time>2026-04-26T11:34:03.673Z</time></trkpt><trkpt lat="32.9334357" lon="10.3872232"><ele>302.0</ele><time>2026-04-26T11:34:04.686Z</time></trkpt><trkpt lat="32.9333015" lon="10.3873781"><ele>303.0</ele><time>2026-04-26T11:34:05.681Z</time></trkpt><trkpt lat="32.9331687" lon="10.3875307"><ele>304.0</ele><time>2026-04-26T11:34:06.671Z</time></trkpt><trkpt lat="32.9330314" lon="10.3876885"><ele>304.0</ele><time>2026-04-26T11:34:07.682Z</time></trkpt><trkpt lat="32.9328938" lon="10.3878441"><ele>304.0</ele><time>2026-04-26T11:34:08.672Z</time></trkpt><trkpt lat="32.9327574" lon="10.3879955"><ele>304.0</ele><time>2026-04-26T11:34:09.674Z</time></trkpt><trkpt lat="32.9326184" lon="10.3881499"><ele>305.0</ele><time>2026-04-26T11:34:10.669Z</time></trkpt><trkpt lat="32.9324844" lon="10.388297"><ele>306.0</ele><time>2026-04-26T11:34:11.678Z</time></trkpt><trkpt lat="32.9323635" lon="10.3884426"><ele>307.0</ele><time>2026-04-26T11:34:12.674Z</time></trkpt><trkpt lat="32.9322452" lon="10.38858"><ele>307.0</ele><time>2026-04-26T11:34:13.674Z</time></trkpt><trkpt lat="32.9321301" lon="10.3887139"><ele>307.0</ele><time>2026-04-26T11:34:14.698Z</time></trkpt><trkpt lat="32.9320208" lon="10.3888419"><ele>307.0</ele><time>2026-04-26T11:34:15.664Z</time></trkpt><trkpt lat="32.931913" lon="10.3889718"><ele>307.3333333333333</ele><time>2026-04-26T11:34:16.665Z</time></trkpt><trkpt lat="32.9318078" lon="10.3891013"><ele>307.6666666666667</ele><time>2026-04-26T11:34:17.666Z</time></trkpt><trkpt lat="32.931707" lon="10.3892374"><ele>308.0</ele><time>2026-04-26T11:34:18.675Z</time></trkpt><trkpt lat="32.9316078" lon="10.3893804"><ele>308.33333333333337</ele><time>2026-04-26T11:34:19.67Z</time></trkpt><trkpt lat="32.9315118" lon="10.3895294"><ele>308.6666666666667</ele><time>2026-04-26T11:34:20.665Z</time></trkpt><trkpt lat="32.9314185" lon="10.3896789"><ele>309.0</ele><time>2026-04-26T11:34:21.665Z</time></trkpt><trkpt lat="32.9313212" lon="10.3898353"><ele>309.6666666666667</ele><time>2026-04-26T11:34:22.667Z</time></trkpt><trkpt lat="32.9312163" lon="10.3899885"><ele>310.33333333333337</ele><time>2026-04-26T11:34:23.675Z</time></trkpt><trkpt lat="32.9311081" lon="10.3901441"><ele>311.0</ele><time>2026-04-26T11:34:24.679Z</time></trkpt><trkpt lat="32.9309993" lon="10.3903036"><ele>311.0</ele><time>2026-04-26T11:34:25.662Z</time></trkpt><trkpt lat="32.9308904" lon="10.3904645"><ele>311.0</ele><time>2026-04-26T11:34:26.669Z</time></trkpt><trkpt lat="32.9307776" lon="10.3906263"><ele>311.0</ele><time>2026-04-26T11:34:27.663Z</time></trkpt><trkpt lat="32.9306677" lon="10.3907876"><ele>311.0</ele><time>2026-04-26T11:34:28.673Z</time></trkpt><trkpt lat="32.9305556" lon="10.3909452"><ele>311.0</ele><time>2026-04-26T11:34:29.67Z</time></trkpt><trkpt lat="32.9304432" lon="10.3911081"><ele>311.0</ele><time>2026-04-26T11:34:30.655Z</time></trkpt><trkpt lat="32.9303242" lon="10.3912565"><ele>310.6666666666667</ele><time>2026-04-26T11:34:31.67Z</time></trkpt><trkpt lat="32.9301976" lon="10.3913978"><ele>310.3333333333333</ele><time>2026-04-26T11:34:32.68Z</time></trkpt><trkpt lat="32.9300572" lon="10.3915186"><ele>310.0</ele><time>2026-04-26T11:34:33.671Z</time></trkpt><trkpt lat="32.929912" lon="10.3916323"><ele>309.0</ele><time>2026-04-26T11:34:34.672Z</time></trkpt><trkpt lat="32.9297558" lon="10.3917286"><ele>308.0</ele><time>2026-04-26T11:34:35.67Z</time></trkpt><trkpt lat="32.929592" lon="10.3918043"><ele>307.0</ele><time>2026-04-26T11:34:36.673Z</time></trkpt><trkpt lat="32.9294184" lon="10.3918565"><ele>307.0</ele><time>2026-04-26T11:34:37.672Z</time></trkpt><trkpt lat="32.9292365" lon="10.3918989"><ele>307.0</ele><time>2026-04-26T11:34:38.672Z</time></trkpt><trkpt lat="32.9290513" lon="10.391937"><ele>307.0</ele><time>2026-04-26T11:34:39.673Z</time></trkpt><trkpt lat="32.9288678" lon="10.3919727"><ele>306.66666666666663</ele><time>2026-04-26T11:34:40.66Z</time></trkpt><trkpt lat="32.9286891" lon="10.3920077"><ele>306.3333333333333</ele><time>2026-04-26T11:34:41.671Z</time></trkpt><trkpt lat="32.9285133" lon="10.3920369"><ele>306.0</ele><time>2026-04-26T11:34:42.664Z</time></trkpt><trkpt lat="32.9283359" lon="10.3920619"><ele>304.6666666666667</ele><time>2026-04-26T11:34:43.682Z</time></trkpt><trkpt lat="32.9281497" lon="10.392084"><ele>303.33333333333337</ele><time>2026-04-26T11:34:44.667Z</time></trkpt><trkpt lat="32.9279596" lon="10.3921088"><ele>302.0</ele><time>2026-04-26T11:34:45.66Z</time></trkpt><trkpt lat="32.927774" lon="10.3921301"><ele>302.0</ele><time>2026-04-26T11:34:46.676Z</time></trkpt><trkpt lat="32.9275948" lon="10.3921464"><ele>302.0</ele><time>2026-04-26T11:34:47.674Z</time></trkpt><trkpt lat="32.927418" lon="10.3921663"><ele>302.0</ele><time>2026-04-26T11:34:48.696Z</time></trkpt><trkpt lat="32.92724" lon="10.3921868"><ele>301.6666666666667</ele><time>2026-04-26T11:34:49.674Z</time></trkpt><trkpt lat="32.9270591" lon="10.3922058"><ele>301.3333333333333</ele><time>2026-04-26T11:34:50.666Z</time></trkpt><trkpt lat="32.9268808" lon="10.392228"><ele>301.0</ele><time>2026-04-26T11:34:51.663Z</time></trkpt><trkpt lat="32.9267065" lon="10.3922492"><ele>300.3333333333333</ele><time>2026-04-26T11:34:52.662Z</time></trkpt><trkpt lat="32.9265299" lon="10.3922681"><ele>299.6666666666667</ele><time>2026-04-26T11:34:53.661Z</time></trkpt><trkpt lat="32.9263542" lon="10.3922754"><ele>299.0</ele><time>2026-04-26T11:34:54.664Z</time></trkpt><trkpt lat="32.926181" lon="10.3922861"><ele>299.0</ele><time>2026-04-26T11:34:55.662Z</time></trkpt><trkpt lat="32.9260055" lon="10.3922905"><ele>299.0</ele><time>2026-04-26T11:34:56.679Z</time></trkpt><trkpt lat="32.92583" lon="10.3922943"><ele>299.0</ele><time>2026-04-26T11:34:57.687Z</time></trkpt><trkpt lat="32.9256582" lon="10.3922969"><ele>298.33333333333337</ele><time>2026-04-26T11:34:58.671Z</time></trkpt><trkpt lat="32.9254911" lon="10.3922963"><ele>297.6666666666667</ele><time>2026-04-26T11:34:59.683Z</time></trkpt><trkpt lat="32.925319" lon="10.3922965"><ele>297.0</ele><time>2026-04-26T11:35:00.673Z</time></trkpt><trkpt lat="32.9251498" lon="10.3923028"><ele>296.0</ele><time>2026-04-26T11:35:01.67Z</time></trkpt><trkpt lat="32.9249742" lon="10.3923078"><ele>295.0</ele><time>2026-04-26T11:35:02.679Z</time></trkpt><trkpt lat="32.9248002" lon="10.3923162"><ele>294.0</ele><time>2026-04-26T11:35:03.675Z</time></trkpt><trkpt lat="32.9246257" lon="10.3923327"><ele>294.0</ele><time>2026-04-26T11:35:04.671Z</time></trkpt><trkpt lat="32.9244461" lon="10.3923566"><ele>294.0</ele><time>2026-04-26T11:35:05.675Z</time></trkpt><trkpt lat="32.9242773" lon="10.3924033"><ele>294.0</ele><time>2026-04-26T11:35:06.671Z</time></trkpt><trkpt lat="32.9241253" lon="10.3924647"><ele>293.75</ele><time>2026-04-26T11:35:07.68Z</time></trkpt><trkpt lat="32.9239789" lon="10.3925398"><ele>293.5</ele><time>2026-04-26T11:35:08.708Z</time></trkpt><trkpt lat="32.923844" lon="10.3926124"><ele>293.25</ele><time>2026-04-26T11:35:09.658Z</time></trkpt><trkpt lat="32.9237268" lon="10.3926733"><ele>293.0</ele><time>2026-04-26T11:35:10.677Z</time></trkpt><trkpt lat="32.9236283" lon="10.3927357"><ele>293.0</ele><time>2026-04-26T11:35:11.661Z</time></trkpt><trkpt lat="32.9235347" lon="10.3927942"><ele>293.0</ele><time>2026-04-26T11:35:12.677Z</time></trkpt><trkpt lat="32.9234631" lon="10.3928419"><ele>293.0</ele><time>2026-04-26T11:35:13.684Z</time></trkpt><trkpt lat="32.9233987" lon="10.3928656"><ele>293.0</ele><time>2026-04-26T11:35:14.664Z</time></trkpt><trkpt lat="32.9232765" lon="10.3928542"><ele>293.0</ele><time>2026-04-26T11:35:16.666Z</time></trkpt><trkpt lat="32.9232106" lon="10.3928731"><ele>293.0</ele><time>2026-04-26T11:35:17.678Z</time></trkpt><trkpt lat="32.9231251" lon="10.393014"><ele>292.25</ele><time>2026-04-26T11:35:19.673Z</time></trkpt><trkpt lat="32.9230744" lon="10.3931127"><ele>291.5</ele><time>2026-04-26T11:35:20.669Z</time></trkpt><trkpt lat="32.9230087" lon="10.393218"><ele>290.75</ele><time>2026-04-26T11:35:21.675Z</time></trkpt><trkpt lat="32.9229301" lon="10.393322"><ele>290.0</ele><time>2026-04-26T11:35:22.665Z</time></trkpt><trkpt lat="32.9228523" lon="10.3934386"><ele>290.0</ele><time>2026-04-26T11:35:23.659Z</time></trkpt><trkpt lat="32.9227757" lon="10.3935661"><ele>290.0</ele><time>2026-04-26T11:35:24.663Z</time></trkpt><trkpt lat="32.922708" lon="10.3937216"><ele>290.0</ele><time>2026-04-26T11:35:25.668Z</time></trkpt><trkpt lat="32.9226273" lon="10.393888"><ele>290.0</ele><time>2026-04-26T11:35:26.673Z</time></trkpt><trkpt lat="32.9225523" lon="10.3940467"><ele>290.33333333333337</ele><time>2026-04-26T11:35:27.659Z</time></trkpt><trkpt lat="32.9224735" lon="10.3942145"><ele>290.6666666666667</ele><time>2026-04-26T11:35:28.671Z</time></trkpt><trkpt lat="32.9223967" lon="10.3943923"><ele>291.0</ele><time>2026-04-26T11:35:29.682Z</time></trkpt><trkpt lat="32.9223194" lon="10.3945673"><ele>293.0</ele><time>2026-04-26T11:35:30.664Z</time></trkpt><trkpt lat="32.922257" lon="10.3947383"><ele>295.0</ele><time>2026-04-26T11:35:31.663Z</time></trkpt><trkpt lat="32.9221996" lon="10.3949149"><ele>297.0</ele><time>2026-04-26T11:35:32.665Z</time></trkpt><trkpt lat="32.9221506" lon="10.3950811"><ele>297.0</ele><time>2026-04-26T11:35:33.666Z</time></trkpt><trkpt lat="32.9221045" lon="10.3952382"><ele>297.0</ele><time>2026-04-26T11:35:34.665Z</time></trkpt><trkpt lat="32.9220705" lon="10.3953863"><ele>297.0</ele><time>2026-04-26T11:35:35.67Z</time></trkpt><trkpt lat="32.9220421" lon="10.3955418"><ele>297.0</ele><time>2026-04-26T11:35:36.668Z</time></trkpt><trkpt lat="32.9220271" lon="10.3956895"><ele>295.75</ele><time>2026-04-26T11:35:37.675Z</time></trkpt><trkpt lat="32.9220295" lon="10.395834"><ele>294.5</ele><time>2026-04-26T11:35:38.679Z</time></trkpt><trkpt lat="32.9220457" lon="10.3959794"><ele>293.25</ele><time>2026-04-26T11:35:39.673Z</time></trkpt><trkpt lat="32.9220872" lon="10.3961241"><ele>292.0</ele><time>2026-04-26T11:35:40.671Z</time></trkpt><trkpt lat="32.9221446" lon="10.3962661"><ele>290.25</ele><time>2026-04-26T11:35:41.664Z</time></trkpt><trkpt lat="32.9222154" lon="10.3963922"><ele>288.5</ele><time>2026-04-26T11:35:42.667Z</time></trkpt><trkpt lat="32.9223009" lon="10.3965151"><ele>286.75</ele><time>2026-04-26T11:35:43.675Z</time></trkpt><trkpt lat="32.9223856" lon="10.3966477"><ele>285.0</ele><time>2026-04-26T11:35:44.674Z</time></trkpt><trkpt lat="32.9224753" lon="10.3967693"><ele>285.0</ele><time>2026-04-26T11:35:45.656Z</time></trkpt><trkpt lat="32.9225635" lon="10.3968922"><ele>285.0</ele><time>2026-04-26T11:35:46.668Z</time></trkpt><trkpt lat="32.9226492" lon="10.397024"><ele>285.0</ele><time>2026-04-26T11:35:47.676Z</time></trkpt><trkpt lat="32.9227238" lon="10.3971673"><ele>285.0</ele><time>2026-04-26T11:35:48.688Z</time></trkpt><trkpt lat="32.9227783" lon="10.3973233"><ele>284.75</ele><time>2026-04-26T11:35:49.669Z</time></trkpt><trkpt lat="32.922812" lon="10.3974919"><ele>284.5</ele><time>2026-04-26T11:35:50.677Z</time></trkpt><trkpt lat="32.9228252" lon="10.3976705"><ele>284.25</ele><time>2026-04-26T11:35:51.67Z</time></trkpt><trkpt lat="32.9228211" lon="10.3978419"><ele>284.0</ele><time>2026-04-26T11:35:52.659Z</time></trkpt><trkpt lat="32.9228024" lon="10.398018"><ele>283.0</ele><time>2026-04-26T11:35:53.674Z</time></trkpt><trkpt lat="32.9227854" lon="10.3981881"><ele>282.0</ele><time>2026-04-26T11:35:54.661Z</time></trkpt><trkpt lat="32.922773" lon="10.3983757"><ele>281.0</ele><time>2026-04-26T11:35:55.666Z</time></trkpt><trkpt lat="32.9227611" lon="10.3985619"><ele>281.0</ele><time>2026-04-26T11:35:56.674Z</time></trkpt><trkpt lat="32.9227481" lon="10.3987514"><ele>281.0</ele><time>2026-04-26T11:35:57.662Z</time></trkpt><trkpt lat="32.9227321" lon="10.3989405"><ele>281.0</ele><time>2026-04-26T11:35:58.665Z</time></trkpt><trkpt lat="32.9227071" lon="10.399131"><ele>281.0</ele><time>2026-04-26T11:35:59.669Z</time></trkpt><trkpt lat="32.9226686" lon="10.3993289"><ele>281.0</ele><time>2026-04-26T11:36:00.676Z</time></trkpt><trkpt lat="32.9226283" lon="10.3995238"><ele>281.0</ele><time>2026-04-26T11:36:01.667Z</time></trkpt><trkpt lat="32.9225867" lon="10.3997283"><ele>280.6666666666667</ele><time>2026-04-26T11:36:02.667Z</time></trkpt><trkpt lat="32.9225374" lon="10.3999292"><ele>280.3333333333333</ele><time>2026-04-26T11:36:03.671Z</time></trkpt><trkpt lat="32.9224774" lon="10.4001295"><ele>280.0</ele><time>2026-04-26T11:36:04.684Z</time></trkpt><trkpt lat="32.9224035" lon="10.400324"><ele>279.3333333333333</ele><time>2026-04-26T11:36:05.667Z</time></trkpt><trkpt lat="32.9223289" lon="10.4005142"><ele>278.6666666666667</ele><time>2026-04-26T11:36:06.687Z</time></trkpt><trkpt lat="32.9222524" lon="10.4007033"><ele>278.0</ele><time>2026-04-26T11:36:07.679Z</time></trkpt><trkpt lat="32.9221775" lon="10.4008969"><ele>278.0</ele><time>2026-04-26T11:36:08.671Z</time></trkpt><trkpt lat="32.9221041" lon="10.4010969"><ele>278.0</ele><time>2026-04-26T11:36:09.686Z</time></trkpt><trkpt lat="32.9220336" lon="10.4012953"><ele>278.0</ele><time>2026-04-26T11:36:10.688Z</time></trkpt><trkpt lat="32.9219645" lon="10.4014971"><ele>277.6666666666667</ele><time>2026-04-26T11:36:11.665Z</time></trkpt><trkpt lat="32.9218964" lon="10.4017035"><ele>277.3333333333333</ele><time>2026-04-26T11:36:12.673Z</time></trkpt><trkpt lat="32.9218349" lon="10.4019077"><ele>277.0</ele><time>2026-04-26T11:36:13.67Z</time></trkpt><trkpt lat="32.9217734" lon="10.4021145"><ele>276.66666666666663</ele><time>2026-04-26T11:36:14.671Z</time></trkpt><trkpt lat="32.9217108" lon="10.4023294"><ele>276.3333333333333</ele><time>2026-04-26T11:36:15.669Z</time></trkpt><trkpt lat="32.9216456" lon="10.4025419"><ele>276.0</ele><time>2026-04-26T11:36:16.665Z</time></trkpt><trkpt lat="32.9215881" lon="10.4027544"><ele>276.0</ele><time>2026-04-26T11:36:17.664Z</time></trkpt><trkpt lat="32.9215341" lon="10.4029628"><ele>276.0</ele><time>2026-04-26T11:36:18.671Z</time></trkpt><trkpt lat="32.9214773" lon="10.4031731"><ele>276.0</ele><time>2026-04-26T11:36:19.673Z</time></trkpt><trkpt lat="32.9214142" lon="10.4033789"><ele>275.6666666666667</ele><time>2026-04-26T11:36:20.662Z</time></trkpt><trkpt lat="32.9213502" lon="10.4035828"><ele>275.33333333333337</ele><time>2026-04-26T11:36:21.674Z</time></trkpt><trkpt lat="32.9212817" lon="10.4037927"><ele>275.0</ele><time>2026-04-26T11:36:22.675Z</time></trkpt><trkpt lat="32.9212181" lon="10.4040025"><ele>275.0</ele><time>2026-04-26T11:36:23.681Z</time></trkpt><trkpt lat="32.9211589" lon="10.4042142"><ele>275.0</ele><time>2026-04-26T11:36:24.673Z</time></trkpt><trkpt lat="32.9210966" lon="10.4044273"><ele>275.0</ele><time>2026-04-26T11:36:25.685Z</time></trkpt><trkpt lat="32.9210386" lon="10.4046377"><ele>275.33333333333337</ele><time>2026-04-26T11:36:26.683Z</time></trkpt><trkpt lat="32.9209844" lon="10.4048567"><ele>275.6666666666667</ele><time>2026-04-26T11:36:27.692Z</time></trkpt><trkpt lat="32.9209354" lon="10.4050735"><ele>276.0</ele><time>2026-04-26T11:36:28.668Z</time></trkpt><trkpt lat="32.9208833" lon="10.40529"><ele>274.3333333333333</ele><time>2026-04-26T11:36:29.696Z</time></trkpt><trkpt lat="32.9208362" lon="10.4055047"><ele>272.66666666666663</ele><time>2026-04-26T11:36:30.665Z</time></trkpt><trkpt lat="32.9207858" lon="10.4057162"><ele>271.0</ele><time>2026-04-26T11:36:31.671Z</time></trkpt><trkpt lat="32.9207341" lon="10.4059288"><ele>271.0</ele><time>2026-04-26T11:36:32.673Z</time></trkpt><trkpt lat="32.9206765" lon="10.4061351"><ele>271.0</ele><time>2026-04-26T11:36:33.691Z</time></trkpt><trkpt lat="32.9206127" lon="10.4063394"><ele>271.0</ele><time>2026-04-26T11:36:34.673Z</time></trkpt><trkpt lat="32.9205514" lon="10.4065372"><ele>271.66666666666663</ele><time>2026-04-26T11:36:35.674Z</time></trkpt><trkpt lat="32.9204892" lon="10.4067366"><ele>272.3333333333333</ele><time>2026-04-26T11:36:36.667Z</time></trkpt><trkpt lat="32.920431" lon="10.4069352"><ele>273.0</ele><time>2026-04-26T11:36:37.667Z</time></trkpt><trkpt lat="32.920368" lon="10.4071313"><ele>273.6666666666667</ele><time>2026-04-26T11:36:38.683Z</time></trkpt><trkpt lat="32.9202959" lon="10.4073283"><ele>274.33333333333337</ele><time>2026-04-26T11:36:39.676Z</time></trkpt><trkpt lat="32.9202182" lon="10.4075196"><ele>275.0</ele><time>2026-04-26T11:36:40.674Z</time></trkpt><trkpt lat="32.9201358" lon="10.4077156"><ele>273.6666666666667</ele><time>2026-04-26T11:36:41.664Z</time></trkpt><trkpt lat="32.9200633" lon="10.4079052"><ele>272.3333333333333</ele><time>2026-04-26T11:36:42.675Z</time></trkpt><trkpt lat="32.9199926" lon="10.4081013"><ele>271.0</ele><time>2026-04-26T11:36:43.678Z</time></trkpt><trkpt lat="32.9199137" lon="10.4082994"><ele>271.0</ele><time>2026-04-26T11:36:44.663Z</time></trkpt><trkpt lat="32.9198383" lon="10.4084944"><ele>271.0</ele><time>2026-04-26T11:36:45.663Z</time></trkpt><trkpt lat="32.919763" lon="10.4086904"><ele>271.0</ele><time>2026-04-26T11:36:46.667Z</time></trkpt><trkpt lat="32.9196909" lon="10.4088797"><ele>272.0</ele><time>2026-04-26T11:36:47.681Z</time></trkpt><trkpt lat="32.9196156" lon="10.409066"><ele>273.0</ele><time>2026-04-26T11:36:48.656Z</time></trkpt><trkpt lat="32.9195448" lon="10.4092609"><ele>274.0</ele><time>2026-04-26T11:36:49.672Z</time></trkpt><trkpt lat="32.9194715" lon="10.4094579"><ele>274.0</ele><time>2026-04-26T11:36:50.684Z</time></trkpt><trkpt lat="32.9193992" lon="10.4096514"><ele>274.0</ele><time>2026-04-26T11:36:51.684Z</time></trkpt><trkpt lat="32.9193187" lon="10.4098506"><ele>274.0</ele><time>2026-04-26T11:36:52.665Z</time></trkpt><trkpt lat="32.9192414" lon="10.4100477"><ele>272.66666666666663</ele><time>2026-04-26T11:36:53.661Z</time></trkpt><trkpt lat="32.9191623" lon="10.4102415"><ele>271.3333333333333</ele><time>2026-04-26T11:36:54.681Z</time></trkpt><trkpt lat="32.9190855" lon="10.410434"><ele>270.0</ele><time>2026-04-26T11:36:55.67Z</time></trkpt><trkpt lat="32.9190109" lon="10.4106337"><ele>270.0</ele><time>2026-04-26T11:36:56.678Z</time></trkpt><trkpt lat="32.9189328" lon="10.4108307"><ele>270.0</ele><time>2026-04-26T11:36:57.712Z</time></trkpt><trkpt lat="32.9188547" lon="10.4110326"><ele>270.0</ele><time>2026-04-26T11:36:58.666Z</time></trkpt><trkpt lat="32.9187769" lon="10.4112351"><ele>270.0</ele><time>2026-04-26T11:36:59.676Z</time></trkpt><trkpt lat="32.918703" lon="10.4114369"><ele>270.0</ele><time>2026-04-26T11:37:00.68Z</time></trkpt><trkpt lat="32.9186318" lon="10.4116332"><ele>270.0</ele><time>2026-04-26T11:37:01.674Z</time></trkpt><trkpt lat="32.918556" lon="10.4118306"><ele>270.0</ele><time>2026-04-26T11:37:02.713Z</time></trkpt><trkpt lat="32.9184822" lon="10.4120295"><ele>270.0</ele><time>2026-04-26T11:37:03.668Z</time></trkpt><trkpt lat="32.9184141" lon="10.4122243"><ele>270.0</ele><time>2026-04-26T11:37:04.67Z</time></trkpt><trkpt lat="32.9183498" lon="10.4124173"><ele>270.0</ele><time>2026-04-26T11:37:05.687Z</time></trkpt><trkpt lat="32.9182837" lon="10.4126131"><ele>270.0</ele><time>2026-04-26T11:37:06.667Z</time></trkpt><trkpt lat="32.9182179" lon="10.412803"><ele>270.0</ele><time>2026-04-26T11:37:07.684Z</time></trkpt><trkpt lat="32.9181515" lon="10.4129967"><ele>270.0</ele><time>2026-04-26T11:37:08.667Z</time></trkpt><trkpt lat="32.918087" lon="10.4131919"><ele>270.0</ele><time>2026-04-26T11:37:09.683Z</time></trkpt><trkpt lat="32.9180201" lon="10.413381"><ele>270.0</ele><time>2026-04-26T11:37:10.676Z</time></trkpt><trkpt lat="32.9179584" lon="10.41357"><ele>270.0</ele><time>2026-04-26T11:37:11.676Z</time></trkpt><trkpt lat="32.9178949" lon="10.4137545"><ele>270.0</ele><time>2026-04-26T11:37:12.666Z</time></trkpt><trkpt lat="32.9178298" lon="10.4139449"><ele>270.0</ele><time>2026-04-26T11:37:13.676Z</time></trkpt><trkpt lat="32.9177599" lon="10.4141338"><ele>270.3333333333333</ele><time>2026-04-26T11:37:14.668Z</time></trkpt><trkpt lat="32.9176851" lon="10.4143184"><ele>270.66666666666663</ele><time>2026-04-26T11:37:15.666Z</time></trkpt><trkpt lat="32.9176181" lon="10.4145045"><ele>271.0</ele><time>2026-04-26T11:37:16.654Z</time></trkpt><trkpt lat="32.9175436" lon="10.4146895"><ele>269.3333333333333</ele><time>2026-04-26T11:37:17.711Z</time></trkpt><trkpt lat="32.9174709" lon="10.41487"><ele>267.6666666666667</ele><time>2026-04-26T11:37:18.671Z</time></trkpt><trkpt lat="32.9174119" lon="10.415055"><ele>266.0</ele><time>2026-04-26T11:37:19.672Z</time></trkpt><trkpt lat="32.9173549" lon="10.4152404"><ele>266.0</ele><time>2026-04-26T11:37:20.674Z</time></trkpt><trkpt lat="32.9173025" lon="10.415424"><ele>266.0</ele><time>2026-04-26T11:37:21.678Z</time></trkpt><trkpt lat="32.9172528" lon="10.4156074"><ele>266.0</ele><time>2026-04-26T11:37:22.673Z</time></trkpt><trkpt lat="32.9172139" lon="10.41579"><ele>266.33333333333337</ele><time>2026-04-26T11:37:23.683Z</time></trkpt><trkpt lat="32.9171715" lon="10.4159793"><ele>266.6666666666667</ele><time>2026-04-26T11:37:24.672Z</time></trkpt><trkpt lat="32.9171324" lon="10.4161584"><ele>267.0</ele><time>2026-04-26T11:37:25.681Z</time></trkpt><trkpt lat="32.9170956" lon="10.4163461"><ele>266.0</ele><time>2026-04-26T11:37:26.672Z</time></trkpt><trkpt lat="32.9170541" lon="10.4165421"><ele>265.0</ele><time>2026-04-26T11:37:27.678Z</time></trkpt><trkpt lat="32.9170169" lon="10.4167433"><ele>264.0</ele><time>2026-04-26T11:37:28.67Z</time></trkpt><trkpt lat="32.9169745" lon="10.4169346"><ele>264.0</ele><time>2026-04-26T11:37:29.678Z</time></trkpt><trkpt lat="32.9169262" lon="10.4171302"><ele>264.0</ele><time>2026-04-26T11:37:30.665Z</time></trkpt><trkpt lat="32.9168767" lon="10.4173251"><ele>264.0</ele><time>2026-04-26T11:37:31.673Z</time></trkpt><trkpt lat="32.9168277" lon="10.4175219"><ele>264.0</ele><time>2026-04-26T11:37:32.682Z</time></trkpt><trkpt lat="32.9167799" lon="10.417707"><ele>264.0</ele><time>2026-04-26T11:37:33.682Z</time></trkpt><trkpt lat="32.916738" lon="10.4178959"><ele>264.0</ele><time>2026-04-26T11:37:34.67Z</time></trkpt><trkpt lat="32.9167005" lon="10.4180722"><ele>264.0</ele><time>2026-04-26T11:37:35.677Z</time></trkpt><trkpt lat="32.9166678" lon="10.4182346"><ele>264.0</ele><time>2026-04-26T11:37:36.675Z</time></trkpt><trkpt lat="32.9166484" lon="10.4183928"><ele>264.0</ele><time>2026-04-26T11:37:37.664Z</time></trkpt><trkpt lat="32.9166354" lon="10.4185388"><ele>264.0</ele><time>2026-04-26T11:37:38.667Z</time></trkpt><trkpt lat="32.9166189" lon="10.41867"><ele>264.0</ele><time>2026-04-26T11:37:39.67Z</time></trkpt><trkpt lat="32.9166064" lon="10.418794"><ele>264.0</ele><time>2026-04-26T11:37:40.687Z</time></trkpt><trkpt lat="32.9166017" lon="10.4189036"><ele>264.0</ele><time>2026-04-26T11:37:41.683Z</time></trkpt><trkpt lat="32.9165874" lon="10.4189926"><ele>264.0</ele><time>2026-04-26T11:37:42.675Z</time></trkpt><trkpt lat="32.9165701" lon="10.4191414"><ele>264.0</ele><time>2026-04-26T11:37:44.677Z</time></trkpt><trkpt lat="32.9165634" lon="10.4192434"><ele>263.8333333333333</ele><time>2026-04-26T11:37:45.677Z</time></trkpt><trkpt lat="32.9165597" lon="10.41935"><ele>263.6666666666667</ele><time>2026-04-26T11:37:46.684Z</time></trkpt><trkpt lat="32.9165592" lon="10.419465"><ele>263.5</ele><time>2026-04-26T11:37:47.677Z</time></trkpt><trkpt lat="32.9165567" lon="10.4195737"><ele>263.33333333333337</ele><time>2026-04-26T11:37:48.677Z</time></trkpt><trkpt lat="32.9165558" lon="10.4196713"><ele>263.1666666666667</ele><time>2026-04-26T11:37:49.677Z</time></trkpt><trkpt lat="32.9165588" lon="10.4197494"><ele>263.0</ele><time>2026-04-26T11:37:50.676Z</time></trkpt><trkpt lat="32.9165707" lon="10.4199084"><ele>262.6</ele><time>2026-04-26T11:37:52.677Z</time></trkpt><trkpt lat="32.9165827" lon="10.4200123"><ele>262.20000000000005</ele><time>2026-04-26T11:37:53.683Z</time></trkpt><trkpt lat="32.9165953" lon="10.4201403"><ele>261.8</ele><time>2026-04-26T11:37:54.673Z</time></trkpt><trkpt lat="32.9166035" lon="10.4202813"><ele>261.40000000000003</ele><time>2026-04-26T11:37:55.672Z</time></trkpt><trkpt lat="32.9166069" lon="10.4204306"><ele>261.0</ele><time>2026-04-26T11:37:56.664Z</time></trkpt><trkpt lat="32.9166128" lon="10.4205759"><ele>261.0</ele><time>2026-04-26T11:37:57.678Z</time></trkpt><trkpt lat="32.9166149" lon="10.4207323"><ele>261.0</ele><time>2026-04-26T11:37:58.67Z</time></trkpt><trkpt lat="32.9166227" lon="10.4208915"><ele>261.0</ele><time>2026-04-26T11:37:59.678Z</time></trkpt><trkpt lat="32.9166281" lon="10.4210551"><ele>261.0</ele><time>2026-04-26T11:38:00.667Z</time></trkpt><trkpt lat="32.9166362" lon="10.4212252"><ele>260.75</ele><time>2026-04-26T11:38:01.682Z</time></trkpt><trkpt lat="32.9166424" lon="10.4213926"><ele>260.5</ele><time>2026-04-26T11:38:02.663Z</time></trkpt><trkpt lat="32.9166476" lon="10.4215633"><ele>260.25</ele><time>2026-04-26T11:38:03.677Z</time></trkpt><trkpt lat="32.9166551" lon="10.4217431"><ele>260.0</ele><time>2026-04-26T11:38:04.687Z</time></trkpt><trkpt lat="32.9166619" lon="10.421921"><ele>260.0</ele><time>2026-04-26T11:38:05.682Z</time></trkpt><trkpt lat="32.9166602" lon="10.4220958"><ele>260.0</ele><time>2026-04-26T11:38:06.673Z</time></trkpt><trkpt lat="32.9166542" lon="10.4222694"><ele>260.0</ele><time>2026-04-26T11:38:07.677Z</time></trkpt><trkpt lat="32.9166353" lon="10.4224446"><ele>260.0</ele><time>2026-04-26T11:38:08.681Z</time></trkpt><trkpt lat="32.9166095" lon="10.4226157"><ele>259.0</ele><time>2026-04-26T11:38:09.662Z</time></trkpt><trkpt lat="32.9165704" lon="10.4227937"><ele>258.0</ele><time>2026-04-26T11:38:10.67Z</time></trkpt><trkpt lat="32.9165356" lon="10.4229679"><ele>257.0</ele><time>2026-04-26T11:38:11.671Z</time></trkpt><trkpt lat="32.9165" lon="10.4231372"><ele>256.5</ele><time>2026-04-26T11:38:12.681Z</time></trkpt><trkpt lat="32.916466" lon="10.4233076"><ele>256.0</ele><time>2026-04-26T11:38:13.68Z</time></trkpt><trkpt lat="32.9164313" lon="10.4234734"><ele>255.5</ele><time>2026-04-26T11:38:14.685Z</time></trkpt><trkpt lat="32.9163964" lon="10.4236407"><ele>255.0</ele><time>2026-04-26T11:38:15.676Z</time></trkpt><trkpt lat="32.9163626" lon="10.4238039"><ele>254.75</ele><time>2026-04-26T11:38:16.678Z</time></trkpt><trkpt lat="32.9163321" lon="10.4239685"><ele>254.5</ele><time>2026-04-26T11:38:17.678Z</time></trkpt><trkpt lat="32.9163" lon="10.4241408"><ele>254.25</ele><time>2026-04-26T11:38:18.678Z</time></trkpt><trkpt lat="32.916266" lon="10.4243074"><ele>254.0</ele><time>2026-04-26T11:38:19.67Z</time></trkpt><trkpt lat="32.9162258" lon="10.424482"><ele>253.33333333333334</ele><time>2026-04-26T11:38:20.674Z</time></trkpt><trkpt lat="32.9161755" lon="10.4246514"><ele>252.66666666666669</ele><time>2026-04-26T11:38:21.671Z</time></trkpt><trkpt lat="32.9161255" lon="10.4248257"><ele>252.0</ele><time>2026-04-26T11:38:22.675Z</time></trkpt><trkpt lat="32.9160736" lon="10.4249994"><ele>252.0</ele><time>2026-04-26T11:38:23.668Z</time></trkpt><trkpt lat="32.9160331" lon="10.4251653"><ele>252.0</ele><time>2026-04-26T11:38:24.684Z</time></trkpt><trkpt lat="32.9159826" lon="10.4253224"><ele>252.0</ele><time>2026-04-26T11:38:25.674Z</time></trkpt><trkpt lat="32.9159379" lon="10.4254749"><ele>252.0</ele><time>2026-04-26T11:38:26.677Z</time></trkpt><trkpt lat="32.9158975" lon="10.4256168"><ele>251.6</ele><time>2026-04-26T11:38:27.673Z</time></trkpt><trkpt lat="32.9158569" lon="10.4257559"><ele>251.2</ele><time>2026-04-26T11:38:28.683Z</time></trkpt><trkpt lat="32.9158143" lon="10.425889"><ele>250.8</ele><time>2026-04-26T11:38:29.682Z</time></trkpt><trkpt lat="32.9157659" lon="10.4260005"><ele>250.4</ele><time>2026-04-26T11:38:30.702Z</time></trkpt><trkpt lat="32.9157182" lon="10.4261054"><ele>250.0</ele><time>2026-04-26T11:38:31.669Z</time></trkpt><trkpt lat="32.9156647" lon="10.426194"><ele>249.99999999999997</ele><time>2026-04-26T11:38:32.671Z</time></trkpt><trkpt lat="32.9156246" lon="10.4262617"><ele>250.0</ele><time>2026-04-26T11:38:33.667Z</time></trkpt><trkpt lat="32.9155959" lon="10.4263552"><ele>250.0</ele><time>2026-04-26T11:38:35.677Z</time></trkpt><trkpt lat="32.9156096" lon="10.426481"><ele>250.0</ele><time>2026-04-26T11:38:39.675Z</time></trkpt><trkpt lat="32.9156432" lon="10.4265616"><ele>249.99999999999997</ele><time>2026-04-26T11:38:40.655Z</time></trkpt><trkpt lat="32.9156954" lon="10.4266449"><ele>250.0</ele><time>2026-04-26T11:38:41.688Z</time></trkpt><trkpt lat="32.9157613" lon="10.4267275"><ele>250.2</ele><time>2026-04-26T11:38:42.674Z</time></trkpt><trkpt lat="32.9158321" lon="10.4268051"><ele>250.4</ele><time>2026-04-26T11:38:43.661Z</time></trkpt><trkpt lat="32.9159078" lon="10.4268914"><ele>250.60000000000002</ele><time>2026-04-26T11:38:44.685Z</time></trkpt><trkpt lat="32.9159859" lon="10.4269795"><ele>250.8</ele><time>2026-04-26T11:38:45.665Z</time></trkpt><trkpt lat="32.9160565" lon="10.4270622"><ele>251.0</ele><time>2026-04-26T11:38:46.682Z</time></trkpt><trkpt lat="32.9161284" lon="10.4271508"><ele>251.60000000000002</ele><time>2026-04-26T11:38:47.677Z</time></trkpt><trkpt lat="32.9161979" lon="10.4272386"><ele>252.20000000000002</ele><time>2026-04-26T11:38:48.669Z</time></trkpt><trkpt lat="32.9162635" lon="10.4273216"><ele>252.79999999999998</ele><time>2026-04-26T11:38:49.681Z</time></trkpt><trkpt lat="32.9163318" lon="10.4273999"><ele>253.39999999999998</ele><time>2026-04-26T11:38:50.687Z</time></trkpt><trkpt lat="32.9163934" lon="10.4275002"><ele>254.0</ele><time>2026-04-26T11:38:51.684Z</time></trkpt><trkpt lat="32.9164627" lon="10.4275926"><ele>254.0</ele><time>2026-04-26T11:38:52.665Z</time></trkpt><trkpt lat="32.9165378" lon="10.4276805"><ele>253.99999999999997</ele><time>2026-04-26T11:38:53.675Z</time></trkpt><trkpt lat="32.9166097" lon="10.4277718"><ele>253.99999999999997</ele><time>2026-04-26T11:38:54.673Z</time></trkpt><trkpt lat="32.916676" lon="10.4278659"><ele>254.0</ele><time>2026-04-26T11:38:55.668Z</time></trkpt><trkpt lat="32.9167407" lon="10.4279687"><ele>254.0</ele><time>2026-04-26T11:38:56.668Z</time></trkpt><trkpt lat="32.9168017" lon="10.4280811"><ele>254.0</ele><time>2026-04-26T11:38:57.695Z</time></trkpt><trkpt lat="32.9168589" lon="10.4281976"><ele>254.0</ele><time>2026-04-26T11:38:58.665Z</time></trkpt><trkpt lat="32.9169135" lon="10.4283182"><ele>254.0</ele><time>2026-04-26T11:38:59.671Z</time></trkpt><trkpt lat="32.9169608" lon="10.4284381"><ele>254.0</ele><time>2026-04-26T11:39:00.665Z</time></trkpt><trkpt lat="32.9170109" lon="10.428563"><ele>254.0</ele><time>2026-04-26T11:39:01.676Z</time></trkpt><trkpt lat="32.9170586" lon="10.4286917"><ele>254.0</ele><time>2026-04-26T11:39:02.667Z</time></trkpt><trkpt lat="32.9171108" lon="10.4288194"><ele>254.0</ele><time>2026-04-26T11:39:03.672Z</time></trkpt><trkpt lat="32.9171604" lon="10.4289441"><ele>254.0</ele><time>2026-04-26T11:39:04.669Z</time></trkpt><trkpt lat="32.9172096" lon="10.4290694"><ele>254.25</ele><time>2026-04-26T11:39:05.676Z</time></trkpt><trkpt lat="32.9172591" lon="10.429187"><ele>254.5</ele><time>2026-04-26T11:39:06.668Z</time></trkpt><trkpt lat="32.9173131" lon="10.4293059"><ele>254.75</ele><time>2026-04-26T11:39:07.674Z</time></trkpt><trkpt lat="32.9173669" lon="10.4294263"><ele>255.0</ele><time>2026-04-26T11:39:08.695Z</time></trkpt><trkpt lat="32.9174236" lon="10.4295545"><ele>255.25</ele><time>2026-04-26T11:39:09.685Z</time></trkpt><trkpt lat="32.9174818" lon="10.4296828"><ele>255.5</ele><time>2026-04-26T11:39:10.675Z</time></trkpt><trkpt lat="32.9175429" lon="10.4298034"><ele>255.75</ele><time>2026-04-26T11:39:11.683Z</time></trkpt><trkpt lat="32.9176009" lon="10.429927"><ele>256.0</ele><time>2026-04-26T11:39:12.681Z</time></trkpt><trkpt lat="32.9176612" lon="10.4300464"><ele>255.20000000000002</ele><time>2026-04-26T11:39:13.685Z</time></trkpt><trkpt lat="32.9177224" lon="10.4301586"><ele>254.40000000000003</ele><time>2026-04-26T11:39:14.675Z</time></trkpt><trkpt lat="32.9177839" lon="10.4302748"><ele>253.6</ele><time>2026-04-26T11:39:15.666Z</time></trkpt><trkpt lat="32.9178456" lon="10.4303838"><ele>252.8</ele><time>2026-04-26T11:39:16.673Z</time></trkpt><trkpt lat="32.917903" lon="10.4304951"><ele>252.0</ele><time>2026-04-26T11:39:17.658Z</time></trkpt><trkpt lat="32.9179638" lon="10.4306084"><ele>251.8</ele><time>2026-04-26T11:39:18.671Z</time></trkpt><trkpt lat="32.9180259" lon="10.43072"><ele>251.6</ele><time>2026-04-26T11:39:19.674Z</time></trkpt><trkpt lat="32.9180853" lon="10.4308296"><ele>251.40000000000003</ele><time>2026-04-26T11:39:20.683Z</time></trkpt><trkpt lat="32.9181407" lon="10.4309387"><ele>251.20000000000002</ele><time>2026-04-26T11:39:21.69Z</time></trkpt><trkpt lat="32.9181904" lon="10.4310532"><ele>251.0</ele><time>2026-04-26T11:39:22.666Z</time></trkpt><trkpt lat="32.9182423" lon="10.4311613"><ele>251.0</ele><time>2026-04-26T11:39:23.67Z</time></trkpt><trkpt lat="32.9182947" lon="10.4312738"><ele>251.00000000000003</ele><time>2026-04-26T11:39:24.67Z</time></trkpt><trkpt lat="32.918344" lon="10.4313761"><ele>251.00000000000003</ele><time>2026-04-26T11:39:25.675Z</time></trkpt><trkpt lat="32.9183901" lon="10.431473"><ele>251.0</ele><time>2026-04-26T11:39:26.674Z</time></trkpt><trkpt lat="32.9184303" lon="10.4315576"><ele>251.0</ele><time>2026-04-26T11:39:27.671Z</time></trkpt><trkpt lat="32.9184647" lon="10.4316348"><ele>250.50000000000003</ele><time>2026-04-26T11:39:28.663Z</time></trkpt><trkpt lat="32.9184981" lon="10.431706"><ele>250.0</ele><time>2026-04-26T11:39:29.671Z</time></trkpt><trkpt lat="32.9185294" lon="10.4317797"><ele>249.5</ele><time>2026-04-26T11:39:30.665Z</time></trkpt><trkpt lat="32.9185586" lon="10.4318486"><ele>249.0</ele><time>2026-04-26T11:39:31.673Z</time></trkpt><trkpt lat="32.918605" lon="10.4319618"><ele>248.50000000000003</ele><time>2026-04-26T11:39:33.685Z</time></trkpt><trkpt lat="32.9186569" lon="10.4321156"><ele>248.0</ele><time>2026-04-26T11:39:35.684Z</time></trkpt><trkpt lat="32.9186847" lon="10.4321976"><ele>247.8</ele><time>2026-04-26T11:39:36.683Z</time></trkpt><trkpt lat="32.9187116" lon="10.4322769"><ele>247.60000000000002</ele><time>2026-04-26T11:39:37.679Z</time></trkpt><trkpt lat="32.9187373" lon="10.4323531"><ele>247.39999999999998</ele><time>2026-04-26T11:39:38.687Z</time></trkpt><trkpt lat="32.9187648" lon="10.4324228"><ele>247.2</ele><time>2026-04-26T11:39:39.665Z</time></trkpt><trkpt lat="32.9188089" lon="10.4325634"><ele>247.0</ele><time>2026-04-26T11:39:41.68Z</time></trkpt><trkpt lat="32.9188526" lon="10.4327025"><ele>246.99999999999997</ele><time>2026-04-26T11:39:43.667Z</time></trkpt><trkpt lat="32.9188748" lon="10.4327748"><ele>247.0</ele><time>2026-04-26T11:39:44.681Z</time></trkpt><trkpt lat="32.9188975" lon="10.432854"><ele>247.0</ele><time>2026-04-26T11:39:45.687Z</time></trkpt><trkpt lat="32.9189344" lon="10.4329814"><ele>247.0</ele><time>2026-04-26T11:39:47.661Z</time></trkpt><trkpt lat="32.9189628" lon="10.4330788"><ele>246.99999999999997</ele><time>2026-04-26T11:39:49.668Z</time></trkpt><trkpt lat="32.9189902" lon="10.4331765"><ele>247.0</ele><time>2026-04-26T11:39:51.67Z</time></trkpt><trkpt lat="32.9190492" lon="10.4333263"><ele>247.0</ele><time>2026-04-26T11:39:53.677Z</time></trkpt><trkpt lat="32.9191025" lon="10.433429"><ele>247.0</ele><time>2026-04-26T11:39:54.656Z</time></trkpt><trkpt lat="32.9191621" lon="10.4335279"><ele>247.0</ele><time>2026-04-26T11:39:55.662Z</time></trkpt><trkpt lat="32.9192327" lon="10.4336471"><ele>247.0</ele><time>2026-04-26T11:39:56.68Z</time></trkpt><trkpt lat="32.9193119" lon="10.4337819"><ele>247.25</ele><time>2026-04-26T11:39:57.676Z</time></trkpt><trkpt lat="32.9193839" lon="10.433919"><ele>247.5</ele><time>2026-04-26T11:39:58.671Z</time></trkpt><trkpt lat="32.9194451" lon="10.4340418"><ele>247.75</ele><time>2026-04-26T11:39:59.671Z</time></trkpt><trkpt lat="32.9194971" lon="10.4341568"><ele>248.0</ele><time>2026-04-26T11:40:00.685Z</time></trkpt><trkpt lat="32.9195443" lon="10.4342565"><ele>248.00000000000003</ele><time>2026-04-26T11:40:01.675Z</time></trkpt><trkpt lat="32.9195949" lon="10.434347"><ele>248.0</ele><time>2026-04-26T11:40:02.668Z</time></trkpt><trkpt lat="32.9196415" lon="10.434424"><ele>248.0</ele><time>2026-04-26T11:40:03.668Z</time></trkpt><trkpt lat="32.9196912" lon="10.4345196"><ele>248.0</ele><time>2026-04-26T11:40:05.667Z</time></trkpt><trkpt lat="32.9197011" lon="10.4346101"><ele>248.00000000000003</ele><time>2026-04-26T11:40:59.68Z</time></trkpt><trkpt lat="32.919766" lon="10.434655"><ele>248.0</ele><time>2026-04-26T11:41:13.677Z</time></trkpt><trkpt lat="32.9198312" lon="10.4346914"><ele>247.83333333333334</ele><time>2026-04-26T11:41:15.675Z</time></trkpt><trkpt lat="32.9199065" lon="10.4347825"><ele>247.66666666666669</ele><time>2026-04-26T11:41:17.675Z</time></trkpt><trkpt lat="32.9199603" lon="10.4348447"><ele>247.5</ele><time>2026-04-26T11:41:18.671Z</time></trkpt><trkpt lat="32.9200207" lon="10.4349058"><ele>247.33333333333331</ele><time>2026-04-26T11:41:19.669Z</time></trkpt><trkpt lat="32.9200747" lon="10.4349715"><ele>247.16666666666666</ele><time>2026-04-26T11:41:20.686Z</time></trkpt><trkpt lat="32.9201339" lon="10.4350353"><ele>247.0</ele><time>2026-04-26T11:41:21.676Z</time></trkpt><trkpt lat="32.9202032" lon="10.4351029"><ele>247.0</ele><time>2026-04-26T11:41:22.676Z</time></trkpt><trkpt lat="32.920271" lon="10.4351677"><ele>247.0</ele><time>2026-04-26T11:41:23.672Z</time></trkpt><trkpt lat="32.9203447" lon="10.4352431"><ele>247.0</ele><time>2026-04-26T11:41:24.686Z</time></trkpt><trkpt lat="32.9204258" lon="10.4353254"><ele>247.0</ele><time>2026-04-26T11:41:25.67Z</time></trkpt><trkpt lat="32.9205136" lon="10.4354111"><ele>247.0</ele><time>2026-04-26T11:41:26.668Z</time></trkpt><trkpt lat="32.9206076" lon="10.4355067"><ele>247.0</ele><time>2026-04-26T11:41:27.673Z</time></trkpt><trkpt lat="32.9207023" lon="10.4356039"><ele>247.0</ele><time>2026-04-26T11:41:28.667Z</time></trkpt><trkpt lat="32.920797" lon="10.435698"><ele>247.0</ele><time>2026-04-26T11:41:29.659Z</time></trkpt><trkpt lat="32.9208911" lon="10.4357862"><ele>247.0</ele><time>2026-04-26T11:41:30.663Z</time></trkpt><trkpt lat="32.9209944" lon="10.4358812"><ele>247.0</ele><time>2026-04-26T11:41:31.658Z</time></trkpt><trkpt lat="32.9210991" lon="10.4359862"><ele>247.0</ele><time>2026-04-26T11:41:32.669Z</time></trkpt><trkpt lat="32.9211993" lon="10.4360839"><ele>247.0</ele><time>2026-04-26T11:41:33.679Z</time></trkpt><trkpt lat="32.921298" lon="10.4361776"><ele>247.0</ele><time>2026-04-26T11:41:34.662Z</time></trkpt><trkpt lat="32.9214001" lon="10.4362722"><ele>247.25</ele><time>2026-04-26T11:41:35.653Z</time></trkpt><trkpt lat="32.9215012" lon="10.436367"><ele>247.5</ele><time>2026-04-26T11:41:36.668Z</time></trkpt><trkpt lat="32.9216003" lon="10.4364587"><ele>247.75</ele><time>2026-04-26T11:41:37.669Z</time></trkpt><trkpt lat="32.921696" lon="10.4365502"><ele>248.0</ele><time>2026-04-26T11:41:38.678Z</time></trkpt><trkpt lat="32.9217974" lon="10.4366394"><ele>247.25</ele><time>2026-04-26T11:41:39.681Z</time></trkpt><trkpt lat="32.9218965" lon="10.4367256"><ele>246.5</ele><time>2026-04-26T11:41:40.711Z</time></trkpt><trkpt lat="32.9219969" lon="10.4368131"><ele>245.75</ele><time>2026-04-26T11:41:41.673Z</time></trkpt><trkpt lat="32.9220972" lon="10.4368952"><ele>245.0</ele><time>2026-04-26T11:41:42.662Z</time></trkpt><trkpt lat="32.922204" lon="10.4369758"><ele>245.0</ele><time>2026-04-26T11:41:43.668Z</time></trkpt><trkpt lat="32.9223093" lon="10.437056"><ele>245.0</ele><time>2026-04-26T11:41:44.67Z</time></trkpt><trkpt lat="32.9224204" lon="10.437139"><ele>245.0</ele><time>2026-04-26T11:41:45.663Z</time></trkpt><trkpt lat="32.9225288" lon="10.4372163"><ele>245.0</ele><time>2026-04-26T11:41:46.671Z</time></trkpt><trkpt lat="32.9226303" lon="10.4372921"><ele>244.25</ele><time>2026-04-26T11:41:47.678Z</time></trkpt><trkpt lat="32.9227284" lon="10.437363"><ele>243.5</ele><time>2026-04-26T11:41:48.67Z</time></trkpt><trkpt lat="32.9228262" lon="10.4374264"><ele>242.75</ele><time>2026-04-26T11:41:49.673Z</time></trkpt><trkpt lat="32.9229233" lon="10.4374936"><ele>242.0</ele><time>2026-04-26T11:41:50.664Z</time></trkpt><trkpt lat="32.9230248" lon="10.4375695"><ele>242.0</ele><time>2026-04-26T11:41:51.674Z</time></trkpt><trkpt lat="32.9231255" lon="10.43765"><ele>242.0</ele><time>2026-04-26T11:41:52.679Z</time></trkpt><trkpt lat="32.9232276" lon="10.4377337"><ele>242.0</ele><time>2026-04-26T11:41:53.664Z</time></trkpt><trkpt lat="32.9233234" lon="10.4378224"><ele>242.0</ele><time>2026-04-26T11:41:54.679Z</time></trkpt><trkpt lat="32.9234209" lon="10.4379158"><ele>241.25</ele><time>2026-04-26T11:41:55.674Z</time></trkpt><trkpt lat="32.9235204" lon="10.438003"><ele>240.5</ele><time>2026-04-26T11:41:56.668Z</time></trkpt><trkpt lat="32.9236187" lon="10.4380917"><ele>239.75</ele><time>2026-04-26T11:41:57.679Z</time></trkpt><trkpt lat="32.9237137" lon="10.4381756"><ele>239.0</ele><time>2026-04-26T11:41:58.667Z</time></trkpt><trkpt lat="32.9238077" lon="10.4382568"><ele>239.0</ele><time>2026-04-26T11:41:59.664Z</time></trkpt><trkpt lat="32.9238969" lon="10.4383389"><ele>239.0</ele><time>2026-04-26T11:42:00.666Z</time></trkpt><trkpt lat="32.9239809" lon="10.438426"><ele>239.0</ele><time>2026-04-26T11:42:01.676Z</time></trkpt><trkpt lat="32.9240701" lon="10.4385178"><ele>239.0</ele><time>2026-04-26T11:42:02.681Z</time></trkpt><trkpt lat="32.9241616" lon="10.4386127"><ele>239.25</ele><time>2026-04-26T11:42:03.675Z</time></trkpt><trkpt lat="32.9242584" lon="10.4387122"><ele>239.5</ele><time>2026-04-26T11:42:04.676Z</time></trkpt><trkpt lat="32.9243606" lon="10.438811"><ele>239.75</ele><time>2026-04-26T11:42:05.659Z</time></trkpt><trkpt lat="32.9244531" lon="10.4389152"><ele>240.0</ele><time>2026-04-26T11:42:06.689Z</time></trkpt><trkpt lat="32.9245323" lon="10.4390183"><ele>240.4</ele><time>2026-04-26T11:42:07.686Z</time></trkpt><trkpt lat="32.9246079" lon="10.4391183"><ele>240.8</ele><time>2026-04-26T11:42:08.673Z</time></trkpt><trkpt lat="32.9246802" lon="10.4392162"><ele>241.2</ele><time>2026-04-26T11:42:09.676Z</time></trkpt><trkpt lat="32.9247426" lon="10.4393078"><ele>241.6</ele><time>2026-04-26T11:42:10.677Z</time></trkpt><trkpt lat="32.9247977" lon="10.4393879"><ele>242.0</ele><time>2026-04-26T11:42:11.673Z</time></trkpt><trkpt lat="32.9248464" lon="10.4394571"><ele>242.0</ele><time>2026-04-26T11:42:12.671Z</time></trkpt><trkpt lat="32.9248892" lon="10.4395213"><ele>242.0</ele><time>2026-04-26T11:42:13.679Z</time></trkpt><trkpt lat="32.9249308" lon="10.4395824"><ele>242.0</ele><time>2026-04-26T11:42:14.673Z</time></trkpt><trkpt lat="32.9250125" lon="10.4396932"><ele>242.0</ele><time>2026-04-26T11:42:16.675Z</time></trkpt><trkpt lat="32.9250866" lon="10.4397971"><ele>242.0</ele><time>2026-04-26T11:42:18.672Z</time></trkpt><trkpt lat="32.9251502" lon="10.4399097"><ele>241.8</ele><time>2026-04-26T11:42:20.686Z</time></trkpt><trkpt lat="32.9252144" lon="10.4400166"><ele>241.6</ele><time>2026-04-26T11:42:22.684Z</time></trkpt><trkpt lat="32.9252774" lon="10.4401262"><ele>241.40000000000003</ele><time>2026-04-26T11:42:24.671Z</time></trkpt><trkpt lat="32.9253298" lon="10.4402196"><ele>241.20000000000002</ele><time>2026-04-26T11:42:26.678Z</time></trkpt><trkpt lat="32.9253864" lon="10.4402968"><ele>241.0</ele><time>2026-04-26T11:42:28.668Z</time></trkpt><trkpt lat="32.9254462" lon="10.4404046"><ele>241.0</ele><time>2026-04-26T11:42:30.661Z</time></trkpt><trkpt lat="32.9254835" lon="10.4404681"><ele>241.00000000000003</ele><time>2026-04-26T11:42:31.683Z</time></trkpt><trkpt lat="32.9255489" lon="10.440579"><ele>241.00000000000003</ele><time>2026-04-26T11:42:33.664Z</time></trkpt><trkpt lat="32.9255979" lon="10.4406699"><ele>241.0</ele><time>2026-04-26T11:42:35.675Z</time></trkpt><trkpt lat="32.9256542" lon="10.4407761"><ele>241.0</ele><time>2026-04-26T11:42:37.67Z</time></trkpt><trkpt lat="32.9257231" lon="10.4409051"><ele>240.99999999999997</ele><time>2026-04-26T11:42:39.675Z</time></trkpt><trkpt lat="32.9257637" lon="10.4409702"><ele>241.0</ele><time>2026-04-26T11:42:40.662Z</time></trkpt><trkpt lat="32.9258019" lon="10.441055"><ele>241.0</ele><time>2026-04-26T11:42:41.668Z</time></trkpt><trkpt lat="32.9258396" lon="10.4411441"><ele>241.0</ele><time>2026-04-26T11:42:42.676Z</time></trkpt><trkpt lat="32.9258808" lon="10.4412365"><ele>240.99999999999997</ele><time>2026-04-26T11:42:43.679Z</time></trkpt><trkpt lat="32.92592" lon="10.441324"><ele>241.0</ele><time>2026-04-26T11:42:44.672Z</time></trkpt><trkpt lat="32.9259582" lon="10.4414107"><ele>240.99999999999997</ele><time>2026-04-26T11:42:45.661Z</time></trkpt><trkpt lat="32.9259974" lon="10.4414914"><ele>241.0</ele><time>2026-04-26T11:42:46.665Z</time></trkpt><trkpt lat="32.9260388" lon="10.4415754"><ele>241.0</ele><time>2026-04-26T11:42:47.675Z</time></trkpt><trkpt lat="32.9260755" lon="10.4416624"><ele>241.0</ele><time>2026-04-26T11:42:48.661Z</time></trkpt><trkpt lat="32.9261155" lon="10.4417492"><ele>240.99999999999997</ele><time>2026-04-26T11:42:49.672Z</time></trkpt><trkpt lat="32.926156" lon="10.4418368"><ele>241.0</ele><time>2026-04-26T11:42:50.672Z</time></trkpt><trkpt lat="32.9261969" lon="10.4419234"><ele>240.99999999999997</ele><time>2026-04-26T11:42:51.687Z</time></trkpt><trkpt lat="32.9262408" lon="10.4420151"><ele>241.0</ele><time>2026-04-26T11:42:52.681Z</time></trkpt><trkpt lat="32.926285" lon="10.4421044"><ele>241.0</ele><time>2026-04-26T11:42:53.683Z</time></trkpt><trkpt lat="32.9263304" lon="10.4421923"><ele>241.0</ele><time>2026-04-26T11:42:54.663Z</time></trkpt><trkpt lat="32.9263714" lon="10.4422922"><ele>240.99999999999997</ele><time>2026-04-26T11:42:55.661Z</time></trkpt><trkpt lat="32.9264114" lon="10.4423902"><ele>241.0</ele><time>2026-04-26T11:42:56.68Z</time></trkpt><trkpt lat="32.9264517" lon="10.4424876"><ele>240.99999999999997</ele><time>2026-04-26T11:42:57.666Z</time></trkpt><trkpt lat="32.9264911" lon="10.4425823"><ele>241.0</ele><time>2026-04-26T11:42:58.672Z</time></trkpt><trkpt lat="32.9265331" lon="10.4426818"><ele>241.0</ele><time>2026-04-26T11:42:59.668Z</time></trkpt><trkpt lat="32.9265683" lon="10.4427777"><ele>241.0</ele><time>2026-04-26T11:43:00.677Z</time></trkpt><trkpt lat="32.9266024" lon="10.4428695"><ele>240.99999999999997</ele><time>2026-04-26T11:43:01.655Z</time></trkpt><trkpt lat="32.9266362" lon="10.4429635"><ele>241.0</ele><time>2026-04-26T11:43:02.673Z</time></trkpt><trkpt lat="32.926662" lon="10.4430602"><ele>241.33333333333331</ele><time>2026-04-26T11:43:03.675Z</time></trkpt><trkpt lat="32.9266849" lon="10.4431578"><ele>241.66666666666666</ele><time>2026-04-26T11:43:04.674Z</time></trkpt><trkpt lat="32.926705" lon="10.4432655"><ele>242.0</ele><time>2026-04-26T11:43:05.677Z</time></trkpt><trkpt lat="32.9267293" lon="10.443363"><ele>242.33333333333331</ele><time>2026-04-26T11:43:06.666Z</time></trkpt><trkpt lat="32.9267603" lon="10.4434597"><ele>242.66666666666666</ele><time>2026-04-26T11:43:07.666Z</time></trkpt><trkpt lat="32.9268013" lon="10.4435626"><ele>243.0</ele><time>2026-04-26T11:43:08.676Z</time></trkpt><trkpt lat="32.926842" lon="10.4436633"><ele>242.2</ele><time>2026-04-26T11:43:09.687Z</time></trkpt><trkpt lat="32.9268909" lon="10.4437583"><ele>241.4</ele><time>2026-04-26T11:43:10.668Z</time></trkpt><trkpt lat="32.9269425" lon="10.4438537"><ele>240.59999999999997</ele><time>2026-04-26T11:43:11.669Z</time></trkpt><trkpt lat="32.9269996" lon="10.4439538"><ele>239.79999999999998</ele><time>2026-04-26T11:43:12.675Z</time></trkpt><trkpt lat="32.9270458" lon="10.4440613"><ele>239.0</ele><time>2026-04-26T11:43:13.669Z</time></trkpt><trkpt lat="32.9271003" lon="10.4441713"><ele>238.75</ele><time>2026-04-26T11:43:14.673Z</time></trkpt><trkpt lat="32.927159" lon="10.444284"><ele>238.5</ele><time>2026-04-26T11:43:15.671Z</time></trkpt><trkpt lat="32.9272237" lon="10.4443966"><ele>238.25</ele><time>2026-04-26T11:43:16.68Z</time></trkpt><trkpt lat="32.9272889" lon="10.4445061"><ele>238.0</ele><time>2026-04-26T11:43:17.677Z</time></trkpt><trkpt lat="32.9273547" lon="10.4446134"><ele>238.2</ele><time>2026-04-26T11:43:18.664Z</time></trkpt><trkpt lat="32.9274239" lon="10.4447174"><ele>238.4</ele><time>2026-04-26T11:43:19.677Z</time></trkpt><trkpt lat="32.9274938" lon="10.4448125"><ele>238.59999999999997</ele><time>2026-04-26T11:43:20.666Z</time></trkpt><trkpt lat="32.9275652" lon="10.4449107"><ele>238.79999999999998</ele><time>2026-04-26T11:43:21.67Z</time></trkpt><trkpt lat="32.9276417" lon="10.4450041"><ele>239.0</ele><time>2026-04-26T11:43:22.673Z</time></trkpt><trkpt lat="32.9277151" lon="10.4450885"><ele>239.0</ele><time>2026-04-26T11:43:23.686Z</time></trkpt><trkpt lat="32.9277828" lon="10.4451713"><ele>238.99999999999997</ele><time>2026-04-26T11:43:24.664Z</time></trkpt><trkpt lat="32.9278586" lon="10.4452428"><ele>238.99999999999997</ele><time>2026-04-26T11:43:25.647Z</time></trkpt><trkpt lat="32.9279281" lon="10.4453132"><ele>239.0</ele><time>2026-04-26T11:43:26.67Z</time></trkpt><trkpt lat="32.9279939" lon="10.4453759"><ele>239.0</ele><time>2026-04-26T11:43:27.666Z</time></trkpt><trkpt lat="32.9280531" lon="10.4454439"><ele>238.83333333333334</ele><time>2026-04-26T11:43:28.669Z</time></trkpt><trkpt lat="32.9281199" lon="10.445502"><ele>238.66666666666669</ele><time>2026-04-26T11:43:29.674Z</time></trkpt><trkpt lat="32.9281817" lon="10.4455573"><ele>238.5</ele><time>2026-04-26T11:43:30.672Z</time></trkpt><trkpt lat="32.9282372" lon="10.4456043"><ele>238.33333333333331</ele><time>2026-04-26T11:43:31.679Z</time></trkpt><trkpt lat="32.9282909" lon="10.4456574"><ele>238.16666666666666</ele><time>2026-04-26T11:43:32.682Z</time></trkpt><trkpt lat="32.9283431" lon="10.445708"><ele>238.0</ele><time>2026-04-26T11:43:33.666Z</time></trkpt><trkpt lat="32.9284394" lon="10.4458074"><ele>237.5</ele><time>2026-04-26T11:43:35.666Z</time></trkpt><trkpt lat="32.9285313" lon="10.4459109"><ele>237.0</ele><time>2026-04-26T11:43:37.665Z</time></trkpt><trkpt lat="32.9286155" lon="10.4459985"><ele>236.5</ele><time>2026-04-26T11:43:39.683Z</time></trkpt><trkpt lat="32.9287027" lon="10.4460671"><ele>236.0</ele><time>2026-04-26T11:43:41.67Z</time></trkpt><trkpt lat="32.9287882" lon="10.4461539"><ele>236.0</ele><time>2026-04-26T11:43:43.667Z</time></trkpt><trkpt lat="32.9288714" lon="10.4462354"><ele>236.00000000000003</ele><time>2026-04-26T11:43:45.671Z</time></trkpt><trkpt lat="32.9289487" lon="10.4463052"><ele>236.00000000000003</ele><time>2026-04-26T11:43:47.677Z</time></trkpt><trkpt lat="32.9290352" lon="10.4463817"><ele>236.0</ele><time>2026-04-26T11:43:49.677Z</time></trkpt><trkpt lat="32.9291264" lon="10.4464611"><ele>236.0</ele><time>2026-04-26T11:43:51.674Z</time></trkpt><trkpt lat="32.9292115" lon="10.4465329"><ele>236.16666666666669</ele><time>2026-04-26T11:43:53.659Z</time></trkpt><trkpt lat="32.9292873" lon="10.4466065"><ele>236.33333333333334</ele><time>2026-04-26T11:43:55.678Z</time></trkpt><trkpt lat="32.9293687" lon="10.4467025"><ele>236.5</ele><time>2026-04-26T11:43:57.676Z</time></trkpt><trkpt lat="32.9294215" lon="10.4467552"><ele>236.66666666666669</ele><time>2026-04-26T11:43:58.694Z</time></trkpt><trkpt lat="32.9294803" lon="10.4468118"><ele>236.83333333333334</ele><time>2026-04-26T11:43:59.693Z</time></trkpt><trkpt lat="32.9295349" lon="10.4468612"><ele>237.0</ele><time>2026-04-26T11:44:00.668Z</time></trkpt><trkpt lat="32.9296277" lon="10.4469473"><ele>236.99999999999997</ele><time>2026-04-26T11:44:02.668Z</time></trkpt><trkpt lat="32.9296756" lon="10.4470021"><ele>237.0</ele><time>2026-04-26T11:44:03.675Z</time></trkpt><trkpt lat="32.929727" lon="10.4470634"><ele>236.99999999999997</ele><time>2026-04-26T11:44:04.647Z</time></trkpt><trkpt lat="32.9297805" lon="10.44712"><ele>236.99999999999997</ele><time>2026-04-26T11:44:05.677Z</time></trkpt><trkpt lat="32.9298312" lon="10.4471857"><ele>237.0</ele><time>2026-04-26T11:44:06.688Z</time></trkpt><trkpt lat="32.9298808" lon="10.4472528"><ele>236.99999999999997</ele><time>2026-04-26T11:44:07.673Z</time></trkpt><trkpt lat="32.9299305" lon="10.447328"><ele>236.99999999999997</ele><time>2026-04-26T11:44:08.645Z</time></trkpt><trkpt lat="32.9299765" lon="10.447416"><ele>237.0</ele><time>2026-04-26T11:44:09.657Z</time></trkpt><trkpt lat="32.93002" lon="10.4475026"><ele>237.0</ele><time>2026-04-26T11:44:10.669Z</time></trkpt><trkpt lat="32.9300648" lon="10.4475904"><ele>237.0</ele><time>2026-04-26T11:44:11.674Z</time></trkpt><trkpt lat="32.9301119" lon="10.447682"><ele>237.0</ele><time>2026-04-26T11:44:12.658Z</time></trkpt><trkpt lat="32.9301583" lon="10.4477708"><ele>237.0</ele><time>2026-04-26T11:44:13.67Z</time></trkpt><trkpt lat="32.9302043" lon="10.4478639"><ele>237.0</ele><time>2026-04-26T11:44:14.658Z</time></trkpt><trkpt lat="32.9302499" lon="10.4479584"><ele>237.0</ele><time>2026-04-26T11:44:15.667Z</time></trkpt><trkpt lat="32.9303015" lon="10.4480576"><ele>237.0</ele><time>2026-04-26T11:44:16.673Z</time></trkpt><trkpt lat="32.9303539" lon="10.4481596"><ele>237.0</ele><time>2026-04-26T11:44:17.665Z</time></trkpt><trkpt lat="32.9304083" lon="10.4482564"><ele>237.0</ele><time>2026-04-26T11:44:18.669Z</time></trkpt><trkpt lat="32.930459" lon="10.4483497"><ele>237.0</ele><time>2026-04-26T11:44:19.683Z</time></trkpt><trkpt lat="32.9305096" lon="10.4484486"><ele>237.0</ele><time>2026-04-26T11:44:20.676Z</time></trkpt><trkpt lat="32.930556" lon="10.4485451"><ele>237.0</ele><time>2026-04-26T11:44:21.68Z</time></trkpt><trkpt lat="32.9306075" lon="10.4486393"><ele>237.0</ele><time>2026-04-26T11:44:22.684Z</time></trkpt><trkpt lat="32.9306571" lon="10.4487344"><ele>237.0</ele><time>2026-04-26T11:44:23.674Z</time></trkpt><trkpt lat="32.930704" lon="10.4488303"><ele>237.0</ele><time>2026-04-26T11:44:24.667Z</time></trkpt><trkpt lat="32.9307514" lon="10.4489176"><ele>237.16666666666666</ele><time>2026-04-26T11:44:25.675Z</time></trkpt><trkpt lat="32.9307937" lon="10.4490036"><ele>237.33333333333331</ele><time>2026-04-26T11:44:26.668Z</time></trkpt><trkpt lat="32.9308341" lon="10.4490797"><ele>237.5</ele><time>2026-04-26T11:44:27.668Z</time></trkpt><trkpt lat="32.9308724" lon="10.4491527"><ele>237.66666666666666</ele><time>2026-04-26T11:44:28.665Z</time></trkpt><trkpt lat="32.9309128" lon="10.4492256"><ele>237.83333333333331</ele><time>2026-04-26T11:44:29.659Z</time></trkpt><trkpt lat="32.9309555" lon="10.4492965"><ele>238.0</ele><time>2026-04-26T11:44:30.667Z</time></trkpt><trkpt lat="32.9310008" lon="10.4493683"><ele>237.99999999999997</ele><time>2026-04-26T11:44:31.668Z</time></trkpt><trkpt lat="32.9310419" lon="10.4494439"><ele>238.0</ele><time>2026-04-26T11:44:32.667Z</time></trkpt><trkpt lat="32.9310824" lon="10.4495225"><ele>238.0</ele><time>2026-04-26T11:44:33.667Z</time></trkpt><trkpt lat="32.9311236" lon="10.4496044"><ele>238.0</ele><time>2026-04-26T11:44:34.664Z</time></trkpt><trkpt lat="32.9311684" lon="10.4496858"><ele>237.99999999999997</ele><time>2026-04-26T11:44:35.666Z</time></trkpt><trkpt lat="32.9312075" lon="10.4497707"><ele>238.0</ele><time>2026-04-26T11:44:36.663Z</time></trkpt><trkpt lat="32.931248" lon="10.4498475"><ele>238.16666666666666</ele><time>2026-04-26T11:44:37.679Z</time></trkpt><trkpt lat="32.9312851" lon="10.4499211"><ele>238.33333333333331</ele><time>2026-04-26T11:44:38.672Z</time></trkpt><trkpt lat="32.9313233" lon="10.4499912"><ele>238.5</ele><time>2026-04-26T11:44:39.669Z</time></trkpt><trkpt lat="32.9313818" lon="10.4500987"><ele>238.66666666666669</ele><time>2026-04-26T11:44:41.671Z</time></trkpt><trkpt lat="32.9314196" lon="10.4501795"><ele>238.83333333333334</ele><time>2026-04-26T11:44:44.689Z</time></trkpt><trkpt lat="32.9314553" lon="10.4502515"><ele>239.0</ele><time>2026-04-26T11:44:48.671Z</time></trkpt><trkpt lat="32.9314785" lon="10.4503364"><ele>239.00000000000003</ele><time>2026-04-26T11:44:53.675Z</time></trkpt><trkpt lat="32.9314421" lon="10.4504386"><ele>239.0</ele><time>2026-04-26T11:44:55.669Z</time></trkpt><trkpt lat="32.9313922" lon="10.4505555"><ele>239.0</ele><time>2026-04-26T11:44:57.677Z</time></trkpt><trkpt lat="32.9313751" lon="10.4506322"><ele>239.0</ele><time>2026-04-26T11:44:58.663Z</time></trkpt><trkpt lat="32.9313598" lon="10.4507191"><ele>239.00000000000003</ele><time>2026-04-26T11:44:59.672Z</time></trkpt><trkpt lat="32.9313425" lon="10.4508085"><ele>239.0</ele><time>2026-04-26T11:45:00.669Z</time></trkpt><trkpt lat="32.9313244" lon="10.4508955"><ele>238.83333333333334</ele><time>2026-04-26T11:45:01.663Z</time></trkpt><trkpt lat="32.9313033" lon="10.4509844"><ele>238.66666666666669</ele><time>2026-04-26T11:45:02.673Z</time></trkpt><trkpt lat="32.9312867" lon="10.4510729"><ele>238.5</ele><time>2026-04-26T11:45:03.663Z</time></trkpt><trkpt lat="32.9312738" lon="10.451162"><ele>238.33333333333331</ele><time>2026-04-26T11:45:04.672Z</time></trkpt><trkpt lat="32.931258" lon="10.4512525"><ele>238.16666666666666</ele><time>2026-04-26T11:45:05.664Z</time></trkpt><trkpt lat="32.9312367" lon="10.4513327"><ele>238.0</ele><time>2026-04-26T11:45:06.669Z</time></trkpt><trkpt lat="32.9311977" lon="10.4514702"><ele>237.83333333333331</ele><time>2026-04-26T11:45:08.665Z</time></trkpt><trkpt lat="32.9311714" lon="10.4515565"><ele>237.66666666666666</ele><time>2026-04-26T11:45:10.661Z</time></trkpt><trkpt lat="32.9311695" lon="10.4516588"><ele>237.5</ele><time>2026-04-26T11:45:14.673Z</time></trkpt><trkpt lat="32.9312407" lon="10.4517546"><ele>237.33333333333331</ele><time>2026-04-26T11:45:16.674Z</time></trkpt><trkpt lat="32.9312888" lon="10.4518039"><ele>237.16666666666666</ele><time>2026-04-26T11:45:17.675Z</time></trkpt><trkpt lat="32.9313472" lon="10.4518529"><ele>237.0</ele><time>2026-04-26T11:45:18.65Z</time></trkpt><trkpt lat="32.9314055" lon="10.4519054"><ele>237.0</ele><time>2026-04-26T11:45:19.66Z</time></trkpt><trkpt lat="32.9314682" lon="10.4519551"><ele>237.0</ele><time>2026-04-26T11:45:20.673Z</time></trkpt><trkpt lat="32.9315294" lon="10.4520108"><ele>237.0</ele><time>2026-04-26T11:45:21.661Z</time></trkpt><trkpt lat="32.9315946" lon="10.452064"><ele>237.0</ele><time>2026-04-26T11:45:22.675Z</time></trkpt><trkpt lat="32.9316543" lon="10.4521168"><ele>237.0</ele><time>2026-04-26T11:45:23.666Z</time></trkpt><trkpt lat="32.9317148" lon="10.4521735"><ele>237.0</ele><time>2026-04-26T11:45:24.653Z</time></trkpt><trkpt lat="32.9317789" lon="10.4522299"><ele>236.66666666666666</ele><time>2026-04-26T11:45:25.682Z</time></trkpt><trkpt lat="32.9318473" lon="10.4522898"><ele>236.33333333333331</ele><time>2026-04-26T11:45:26.667Z</time></trkpt><trkpt lat="32.9319247" lon="10.4523393"><ele>236.0</ele><time>2026-04-26T11:45:27.669Z</time></trkpt><trkpt lat="32.9319943" lon="10.4523938"><ele>235.66666666666666</ele><time>2026-04-26T11:45:28.678Z</time></trkpt><trkpt lat="32.9320574" lon="10.4524435"><ele>235.33333333333331</ele><time>2026-04-26T11:45:29.68Z</time></trkpt><trkpt lat="32.9321146" lon="10.4524916"><ele>235.0</ele><time>2026-04-26T11:45:30.681Z</time></trkpt><trkpt lat="32.9321761" lon="10.4525471"><ele>234.99999999999997</ele><time>2026-04-26T11:45:31.667Z</time></trkpt><trkpt lat="32.9322368" lon="10.4526067"><ele>235.0</ele><time>2026-04-26T11:45:32.664Z</time></trkpt><trkpt lat="32.932294" lon="10.4526647"><ele>235.0</ele><time>2026-04-26T11:45:33.662Z</time></trkpt><trkpt lat="32.9323582" lon="10.4527168"><ele>235.0</ele><time>2026-04-26T11:45:34.665Z</time></trkpt><trkpt lat="32.932422" lon="10.4527719"><ele>234.99999999999997</ele><time>2026-04-26T11:45:35.665Z</time></trkpt><trkpt lat="32.9324906" lon="10.4528248"><ele>235.0</ele><time>2026-04-26T11:45:36.657Z</time></trkpt><trkpt lat="32.9325558" lon="10.4528842"><ele>235.16666666666666</ele><time>2026-04-26T11:45:37.665Z</time></trkpt><trkpt lat="32.9326257" lon="10.452939"><ele>235.33333333333331</ele><time>2026-04-26T11:45:38.67Z</time></trkpt><trkpt lat="32.9326929" lon="10.4529899"><ele>235.5</ele><time>2026-04-26T11:45:39.658Z</time></trkpt><trkpt lat="32.9327699" lon="10.4530476"><ele>235.66666666666669</ele><time>2026-04-26T11:45:40.673Z</time></trkpt><trkpt lat="32.9328429" lon="10.4530971"><ele>235.83333333333334</ele><time>2026-04-26T11:45:41.675Z</time></trkpt><trkpt lat="32.9329102" lon="10.4531512"><ele>236.0</ele><time>2026-04-26T11:45:42.648Z</time></trkpt><trkpt lat="32.9329695" lon="10.4532112"><ele>236.00000000000003</ele><time>2026-04-26T11:45:43.67Z</time></trkpt><trkpt lat="32.9330264" lon="10.4532667"><ele>236.0</ele><time>2026-04-26T11:45:44.661Z</time></trkpt><trkpt lat="32.9330811" lon="10.4533186"><ele>236.0</ele><time>2026-04-26T11:45:45.678Z</time></trkpt><trkpt lat="32.9331406" lon="10.4533798"><ele>236.0</ele><time>2026-04-26T11:45:46.682Z</time></trkpt><trkpt lat="32.9331983" lon="10.4534451"><ele>236.00000000000003</ele><time>2026-04-26T11:45:47.656Z</time></trkpt><trkpt lat="32.9332565" lon="10.4535019"><ele>236.0</ele><time>2026-04-26T11:45:48.67Z</time></trkpt><trkpt lat="32.9333197" lon="10.4535651"><ele>236.00000000000003</ele><time>2026-04-26T11:45:49.677Z</time></trkpt><trkpt lat="32.9333811" lon="10.4536254"><ele>236.0</ele><time>2026-04-26T11:45:50.666Z</time></trkpt><trkpt lat="32.933441" lon="10.4536767"><ele>236.0</ele><time>2026-04-26T11:45:51.674Z</time></trkpt><trkpt lat="32.9335005" lon="10.4537352"><ele>236.0</ele><time>2026-04-26T11:45:52.67Z</time></trkpt><trkpt lat="32.9335641" lon="10.453792"><ele>236.00000000000003</ele><time>2026-04-26T11:45:53.663Z</time></trkpt><trkpt lat="32.933631" lon="10.453845"><ele>236.0</ele><time>2026-04-26T11:45:54.677Z</time></trkpt><trkpt lat="32.9336908" lon="10.4539002"><ele>235.85714285714283</ele><time>2026-04-26T11:45:55.675Z</time></trkpt><trkpt lat="32.933753" lon="10.4539581"><ele>235.71428571428572</ele><time>2026-04-26T11:45:56.653Z</time></trkpt><trkpt lat="32.9338161" lon="10.4540124"><ele>235.57142857142856</ele><time>2026-04-26T11:45:57.674Z</time></trkpt><trkpt lat="32.9338679" lon="10.4540678"><ele>235.42857142857142</ele><time>2026-04-26T11:45:58.668Z</time></trkpt><trkpt lat="32.933917" lon="10.4541183"><ele>235.28571428571428</ele><time>2026-04-26T11:45:59.671Z</time></trkpt><trkpt lat="32.9339758" lon="10.4541639"><ele>235.14285714285714</ele><time>2026-04-26T11:46:00.668Z</time></trkpt><trkpt lat="32.9340389" lon="10.4542078"><ele>235.0</ele><time>2026-04-26T11:46:01.666Z</time></trkpt><trkpt lat="32.9340941" lon="10.4542654"><ele>234.99999999999997</ele><time>2026-04-26T11:46:02.686Z</time></trkpt><trkpt lat="32.9341542" lon="10.4543213"><ele>235.0</ele><time>2026-04-26T11:46:03.666Z</time></trkpt><trkpt lat="32.9342169" lon="10.4543923"><ele>235.0</ele><time>2026-04-26T11:46:04.667Z</time></trkpt><trkpt lat="32.9342879" lon="10.4544583"><ele>235.0</ele><time>2026-04-26T11:46:05.658Z</time></trkpt><trkpt lat="32.9343549" lon="10.4545265"><ele>234.99999999999997</ele><time>2026-04-26T11:46:06.673Z</time></trkpt><trkpt lat="32.9344248" lon="10.4545892"><ele>235.0</ele><time>2026-04-26T11:46:07.669Z</time></trkpt><trkpt lat="32.9344915" lon="10.4546508"><ele>234.49999999999997</ele><time>2026-04-26T11:46:08.67Z</time></trkpt><trkpt lat="32.9345625" lon="10.4547165"><ele>234.0</ele><time>2026-04-26T11:46:09.666Z</time></trkpt><trkpt lat="32.9346407" lon="10.454784"><ele>233.5</ele><time>2026-04-26T11:46:10.666Z</time></trkpt><trkpt lat="32.9347074" lon="10.4548529"><ele>233.0</ele><time>2026-04-26T11:46:11.678Z</time></trkpt><trkpt lat="32.9347706" lon="10.4549176"><ele>232.49999999999997</ele><time>2026-04-26T11:46:12.662Z</time></trkpt><trkpt lat="32.9348395" lon="10.4549822"><ele>232.0</ele><time>2026-04-26T11:46:13.673Z</time></trkpt><trkpt lat="32.9349062" lon="10.455047"><ele>231.99999999999997</ele><time>2026-04-26T11:46:14.678Z</time></trkpt><trkpt lat="32.9349859" lon="10.4551142"><ele>232.0</ele><time>2026-04-26T11:46:15.668Z</time></trkpt><trkpt lat="32.9350555" lon="10.4551717"><ele>232.0</ele><time>2026-04-26T11:46:16.659Z</time></trkpt><trkpt lat="32.9351279" lon="10.4552375"><ele>232.0</ele><time>2026-04-26T11:46:17.663Z</time></trkpt><trkpt lat="32.9351937" lon="10.455298"><ele>231.99999999999997</ele><time>2026-04-26T11:46:18.659Z</time></trkpt><trkpt lat="32.9352623" lon="10.4553616"><ele>232.0</ele><time>2026-04-26T11:46:19.67Z</time></trkpt><trkpt lat="32.9353283" lon="10.4554209"><ele>231.83333333333331</ele><time>2026-04-26T11:46:20.666Z</time></trkpt><trkpt lat="32.9353934" lon="10.4554763"><ele>231.66666666666666</ele><time>2026-04-26T11:46:21.657Z</time></trkpt><trkpt lat="32.9354586" lon="10.4555417"><ele>231.5</ele><time>2026-04-26T11:46:22.665Z</time></trkpt><trkpt lat="32.9355319" lon="10.4556032"><ele>231.33333333333331</ele><time>2026-04-26T11:46:23.657Z</time></trkpt><trkpt lat="32.93561" lon="10.4556578"><ele>231.16666666666666</ele><time>2026-04-26T11:46:24.665Z</time></trkpt><trkpt lat="32.935687" lon="10.4557126"><ele>231.0</ele><time>2026-04-26T11:46:25.672Z</time></trkpt><trkpt lat="32.9357564" lon="10.4557771"><ele>231.0</ele><time>2026-04-26T11:46:26.666Z</time></trkpt><trkpt lat="32.9358365" lon="10.4558426"><ele>231.00000000000003</ele><time>2026-04-26T11:46:27.675Z</time></trkpt><trkpt lat="32.935913" lon="10.4558976"><ele>231.00000000000003</ele><time>2026-04-26T11:46:28.674Z</time></trkpt><trkpt lat="32.9359944" lon="10.45596"><ele>231.0</ele><time>2026-04-26T11:46:29.668Z</time></trkpt><trkpt lat="32.9360734" lon="10.4560215"><ele>231.0</ele><time>2026-04-26T11:46:30.658Z</time></trkpt><trkpt lat="32.9361562" lon="10.4560748"><ele>230.60000000000002</ele><time>2026-04-26T11:46:31.676Z</time></trkpt><trkpt lat="32.9362462" lon="10.4561264"><ele>230.20000000000002</ele><time>2026-04-26T11:46:32.666Z</time></trkpt><trkpt lat="32.9363314" lon="10.4561771"><ele>229.79999999999998</ele><time>2026-04-26T11:46:33.676Z</time></trkpt><trkpt lat="32.9364181" lon="10.4562262"><ele>229.39999999999998</ele><time>2026-04-26T11:46:34.671Z</time></trkpt><trkpt lat="32.9365043" lon="10.4562727"><ele>229.0</ele><time>2026-04-26T11:46:35.655Z</time></trkpt><trkpt lat="32.9365843" lon="10.4563232"><ele>228.99999999999997</ele><time>2026-04-26T11:46:36.662Z</time></trkpt><trkpt lat="32.9366505" lon="10.4563722"><ele>229.0</ele><time>2026-04-26T11:46:37.667Z</time></trkpt><trkpt lat="32.9367165" lon="10.4564171"><ele>229.0</ele><time>2026-04-26T11:46:38.671Z</time></trkpt><trkpt lat="32.9367829" lon="10.456461"><ele>229.0</ele><time>2026-04-26T11:46:39.695Z</time></trkpt><trkpt lat="32.9368469" lon="10.456508"><ele>228.99999999999997</ele><time>2026-04-26T11:46:40.667Z</time></trkpt><trkpt lat="32.9369074" lon="10.4565523"><ele>229.0</ele><time>2026-04-26T11:46:41.658Z</time></trkpt><trkpt lat="32.9369705" lon="10.4566004"><ele>228.79999999999998</ele><time>2026-04-26T11:46:42.679Z</time></trkpt><trkpt lat="32.9370372" lon="10.4566586"><ele>228.59999999999997</ele><time>2026-04-26T11:46:43.666Z</time></trkpt><trkpt lat="32.9371067" lon="10.4567244"><ele>228.4</ele><time>2026-04-26T11:46:44.667Z</time></trkpt><trkpt lat="32.9371852" lon="10.456786"><ele>228.2</ele><time>2026-04-26T11:46:45.673Z</time></trkpt><trkpt lat="32.9372608" lon="10.4568496"><ele>228.0</ele><time>2026-04-26T11:46:46.669Z</time></trkpt><trkpt lat="32.9373388" lon="10.4569135"><ele>228.0</ele><time>2026-04-26T11:46:47.67Z</time></trkpt><trkpt lat="32.9374241" lon="10.4569808"><ele>228.0</ele><time>2026-04-26T11:46:48.681Z</time></trkpt><trkpt lat="32.937506" lon="10.4570476"><ele>228.0</ele><time>2026-04-26T11:46:49.68Z</time></trkpt><trkpt lat="32.9375821" lon="10.4571221"><ele>228.0</ele><time>2026-04-26T11:46:50.674Z</time></trkpt><trkpt lat="32.9376593" lon="10.4571897"><ele>228.0</ele><time>2026-04-26T11:46:51.677Z</time></trkpt><trkpt lat="32.9377404" lon="10.4572557"><ele>228.0</ele><time>2026-04-26T11:46:52.679Z</time></trkpt><trkpt lat="32.9378275" lon="10.45733"><ele>228.0</ele><time>2026-04-26T11:46:53.724Z</time></trkpt><trkpt lat="32.937919" lon="10.4573994"><ele>228.0</ele><time>2026-04-26T11:46:54.672Z</time></trkpt><trkpt lat="32.9380074" lon="10.4574698"><ele>228.0</ele><time>2026-04-26T11:46:55.659Z</time></trkpt><trkpt lat="32.9380965" lon="10.457549"><ele>228.0</ele><time>2026-04-26T11:46:56.681Z</time></trkpt><trkpt lat="32.9381887" lon="10.4576237"><ele>228.0</ele><time>2026-04-26T11:46:57.68Z</time></trkpt><trkpt lat="32.9382771" lon="10.4577035"><ele>228.0</ele><time>2026-04-26T11:46:58.661Z</time></trkpt><trkpt lat="32.93837" lon="10.4577825"><ele>228.0</ele><time>2026-04-26T11:46:59.679Z</time></trkpt><trkpt lat="32.9384621" lon="10.457862"><ele>228.0</ele><time>2026-04-26T11:47:00.684Z</time></trkpt><trkpt lat="32.9385584" lon="10.4579404"><ele>227.5</ele><time>2026-04-26T11:47:01.678Z</time></trkpt><trkpt lat="32.9386513" lon="10.4580182"><ele>227.0</ele><time>2026-04-26T11:47:02.666Z</time></trkpt><trkpt lat="32.9387465" lon="10.4581013"><ele>226.5</ele><time>2026-04-26T11:47:03.667Z</time></trkpt><trkpt lat="32.9388464" lon="10.4581847"><ele>226.0</ele><time>2026-04-26T11:47:04.67Z</time></trkpt><trkpt lat="32.938942" lon="10.458265"><ele>226.0</ele><time>2026-04-26T11:47:05.678Z</time></trkpt><trkpt lat="32.9390341" lon="10.4583511"><ele>226.0</ele><time>2026-04-26T11:47:06.671Z</time></trkpt><trkpt lat="32.9391293" lon="10.4584395"><ele>226.0</ele><time>2026-04-26T11:47:07.663Z</time></trkpt><trkpt lat="32.9392247" lon="10.4585258"><ele>226.0</ele><time>2026-04-26T11:47:08.677Z</time></trkpt><trkpt lat="32.939323" lon="10.458614"><ele>226.5</ele><time>2026-04-26T11:47:09.673Z</time></trkpt><trkpt lat="32.9394177" lon="10.4587038"><ele>227.0</ele><time>2026-04-26T11:47:10.699Z</time></trkpt><trkpt lat="32.9395119" lon="10.4587938"><ele>227.5</ele><time>2026-04-26T11:47:11.665Z</time></trkpt><trkpt lat="32.9396112" lon="10.4588808"><ele>228.0</ele><time>2026-04-26T11:47:12.683Z</time></trkpt><trkpt lat="32.9397026" lon="10.4589739"><ele>228.0</ele><time>2026-04-26T11:47:13.666Z</time></trkpt><trkpt lat="32.939795" lon="10.4590626"><ele>228.0</ele><time>2026-04-26T11:47:14.675Z</time></trkpt><trkpt lat="32.9398883" lon="10.459153"><ele>228.0</ele><time>2026-04-26T11:47:15.658Z</time></trkpt><trkpt lat="32.939981" lon="10.4592438"><ele>228.0</ele><time>2026-04-26T11:47:16.67Z</time></trkpt><trkpt lat="32.9400702" lon="10.4593274"><ele>227.8</ele><time>2026-04-26T11:47:17.675Z</time></trkpt><trkpt lat="32.9401533" lon="10.4594035"><ele>227.60000000000002</ele><time>2026-04-26T11:47:18.665Z</time></trkpt><trkpt lat="32.9402356" lon="10.4594725"><ele>227.39999999999998</ele><time>2026-04-26T11:47:19.663Z</time></trkpt><trkpt lat="32.9403156" lon="10.4595469"><ele>227.2</ele><time>2026-04-26T11:47:20.676Z</time></trkpt><trkpt lat="32.9403872" lon="10.4596153"><ele>227.0</ele><time>2026-04-26T11:47:21.677Z</time></trkpt><trkpt lat="32.9404542" lon="10.4596807"><ele>227.33333333333334</ele><time>2026-04-26T11:47:22.672Z</time></trkpt><trkpt lat="32.9405175" lon="10.4597352"><ele>227.66666666666669</ele><time>2026-04-26T11:47:23.67Z</time></trkpt><trkpt lat="32.9405735" lon="10.4597914"><ele>228.0</ele><time>2026-04-26T11:47:24.666Z</time></trkpt><trkpt lat="32.9406335" lon="10.459852"><ele>228.33333333333331</ele><time>2026-04-26T11:47:25.687Z</time></trkpt><trkpt lat="32.9406887" lon="10.4599114"><ele>228.66666666666666</ele><time>2026-04-26T11:47:26.673Z</time></trkpt><trkpt lat="32.9407293" lon="10.4599776"><ele>229.0</ele><time>2026-04-26T11:47:27.682Z</time></trkpt><trkpt lat="32.9407922" lon="10.4600922"><ele>229.0</ele><time>2026-04-26T11:47:29.69Z</time></trkpt><trkpt lat="32.9408239" lon="10.4601616"><ele>229.0</ele><time>2026-04-26T11:47:30.682Z</time></trkpt><trkpt lat="32.9408679" lon="10.4602388"><ele>229.0</ele><time>2026-04-26T11:47:31.683Z</time></trkpt><trkpt lat="32.9409138" lon="10.4603153"><ele>229.0</ele><time>2026-04-26T11:47:32.67Z</time></trkpt><trkpt lat="32.9409599" lon="10.460387"><ele>229.0</ele><time>2026-04-26T11:47:33.679Z</time></trkpt><trkpt lat="32.9410052" lon="10.4604552"><ele>229.0</ele><time>2026-04-26T11:47:34.681Z</time></trkpt><trkpt lat="32.9410496" lon="10.4605235"><ele>229.0</ele><time>2026-04-26T11:47:35.665Z</time></trkpt><trkpt lat="32.9411015" lon="10.4605904"><ele>229.0</ele><time>2026-04-26T11:47:36.677Z</time></trkpt><trkpt lat="32.9411512" lon="10.4606515"><ele>228.99999999999997</ele><time>2026-04-26T11:47:37.673Z</time></trkpt><trkpt lat="32.941193" lon="10.4607088"><ele>228.99999999999997</ele><time>2026-04-26T11:47:38.669Z</time></trkpt><trkpt lat="32.9412684" lon="10.4608174"><ele>229.0</ele><time>2026-04-26T11:47:40.678Z</time></trkpt><trkpt lat="32.9413336" lon="10.4609149"><ele>229.0</ele><time>2026-04-26T11:47:42.674Z</time></trkpt><trkpt lat="32.9413983" lon="10.460998"><ele>228.99999999999997</ele><time>2026-04-26T11:47:44.677Z</time></trkpt><trkpt lat="32.9414445" lon="10.4610656"><ele>229.0</ele><time>2026-04-26T11:47:46.673Z</time></trkpt><trkpt lat="32.9414834" lon="10.4611335"><ele>229.0</ele><time>2026-04-26T11:47:48.685Z</time></trkpt><trkpt lat="32.9415362" lon="10.46122"><ele>229.0</ele><time>2026-04-26T11:47:50.672Z</time></trkpt><trkpt lat="32.9416268" lon="10.4613364"><ele>228.99999999999997</ele><time>2026-04-26T11:47:52.672Z</time></trkpt><trkpt lat="32.9416657" lon="10.4614026"><ele>229.0</ele><time>2026-04-26T11:47:53.669Z</time></trkpt><trkpt lat="32.9417115" lon="10.4614707"><ele>229.49999999999997</ele><time>2026-04-26T11:47:54.672Z</time></trkpt><trkpt lat="32.9417594" lon="10.4615511"><ele>230.0</ele><time>2026-04-26T11:47:55.663Z</time></trkpt><trkpt lat="32.9418101" lon="10.4616343"><ele>230.5</ele><time>2026-04-26T11:47:56.666Z</time></trkpt><trkpt lat="32.9418608" lon="10.4617172"><ele>231.0</ele><time>2026-04-26T11:47:57.684Z</time></trkpt><trkpt lat="32.9419177" lon="10.4618084"><ele>231.49999999999997</ele><time>2026-04-26T11:47:58.674Z</time></trkpt><trkpt lat="32.9419796" lon="10.4618999"><ele>232.0</ele><time>2026-04-26T11:47:59.674Z</time></trkpt><trkpt lat="32.9420409" lon="10.4619827"><ele>232.0</ele><time>2026-04-26T11:48:00.674Z</time></trkpt><trkpt lat="32.9421049" lon="10.4620697"><ele>232.0</ele><time>2026-04-26T11:48:01.667Z</time></trkpt><trkpt lat="32.9421656" lon="10.4621603"><ele>232.0</ele><time>2026-04-26T11:48:02.67Z</time></trkpt><trkpt lat="32.9422271" lon="10.4622537"><ele>232.0</ele><time>2026-04-26T11:48:03.669Z</time></trkpt><trkpt lat="32.9422926" lon="10.4623462"><ele>232.0</ele><time>2026-04-26T11:48:04.677Z</time></trkpt><trkpt lat="32.9423622" lon="10.4624402"><ele>231.6</ele><time>2026-04-26T11:48:05.67Z</time></trkpt><trkpt lat="32.9424263" lon="10.4625319"><ele>231.2</ele><time>2026-04-26T11:48:06.675Z</time></trkpt><trkpt lat="32.9424908" lon="10.4626325"><ele>230.8</ele><time>2026-04-26T11:48:07.674Z</time></trkpt><trkpt lat="32.9425586" lon="10.4627354"><ele>230.4</ele><time>2026-04-26T11:48:08.666Z</time></trkpt><trkpt lat="32.9426332" lon="10.462834"><ele>230.0</ele><time>2026-04-26T11:48:09.677Z</time></trkpt><trkpt lat="32.9427048" lon="10.4629253"><ele>229.4</ele><time>2026-04-26T11:48:10.66Z</time></trkpt><trkpt lat="32.9427703" lon="10.4630119"><ele>228.8</ele><time>2026-04-26T11:48:11.67Z</time></trkpt><trkpt lat="32.9428366" lon="10.4630996"><ele>228.2</ele><time>2026-04-26T11:48:12.675Z</time></trkpt><trkpt lat="32.9429065" lon="10.4631825"><ele>227.6</ele><time>2026-04-26T11:48:13.677Z</time></trkpt><trkpt lat="32.9429767" lon="10.4632732"><ele>227.0</ele><time>2026-04-26T11:48:14.679Z</time></trkpt><trkpt lat="32.9430478" lon="10.4633617"><ele>227.0</ele><time>2026-04-26T11:48:15.664Z</time></trkpt><trkpt lat="32.9431209" lon="10.4634465"><ele>227.0</ele><time>2026-04-26T11:48:16.664Z</time></trkpt><trkpt lat="32.9431978" lon="10.4635309"><ele>227.0</ele><time>2026-04-26T11:48:17.672Z</time></trkpt><trkpt lat="32.9432692" lon="10.4636113"><ele>227.0</ele><time>2026-04-26T11:48:18.68Z</time></trkpt><trkpt lat="32.9433412" lon="10.4636921"><ele>227.0</ele><time>2026-04-26T11:48:19.667Z</time></trkpt><trkpt lat="32.9434109" lon="10.4637798"><ele>227.8</ele><time>2026-04-26T11:48:20.662Z</time></trkpt><trkpt lat="32.9434739" lon="10.4638636"><ele>228.6</ele><time>2026-04-26T11:48:21.675Z</time></trkpt><trkpt lat="32.943535" lon="10.4639549"><ele>229.40000000000003</ele><time>2026-04-26T11:48:22.675Z</time></trkpt><trkpt lat="32.9435854" lon="10.4640507"><ele>230.20000000000002</ele><time>2026-04-26T11:48:23.672Z</time></trkpt><trkpt lat="32.9436285" lon="10.4641524"><ele>231.0</ele><time>2026-04-26T11:48:24.672Z</time></trkpt><trkpt lat="32.9436678" lon="10.4642647"><ele>231.0</ele><time>2026-04-26T11:48:25.672Z</time></trkpt><trkpt lat="32.9437043" lon="10.4643858"><ele>231.0</ele><time>2026-04-26T11:48:26.676Z</time></trkpt><trkpt lat="32.9437354" lon="10.4645096"><ele>231.0</ele><time>2026-04-26T11:48:27.684Z</time></trkpt><trkpt lat="32.9437571" lon="10.4646393"><ele>231.0</ele><time>2026-04-26T11:48:28.696Z</time></trkpt><trkpt lat="32.9437761" lon="10.4647832"><ele>231.5</ele><time>2026-04-26T11:48:29.665Z</time></trkpt><trkpt lat="32.9437928" lon="10.4649286"><ele>232.0</ele><time>2026-04-26T11:48:30.67Z</time></trkpt><trkpt lat="32.9438056" lon="10.4650912"><ele>232.5</ele><time>2026-04-26T11:48:31.667Z</time></trkpt><trkpt lat="32.9438254" lon="10.4652507"><ele>233.0</ele><time>2026-04-26T11:48:32.673Z</time></trkpt><trkpt lat="32.9438491" lon="10.4654088"><ele>234.25</ele><time>2026-04-26T11:48:33.672Z</time></trkpt><trkpt lat="32.9438847" lon="10.4655679"><ele>235.5</ele><time>2026-04-26T11:48:34.665Z</time></trkpt><trkpt lat="32.9439298" lon="10.4657166"><ele>236.75</ele><time>2026-04-26T11:48:35.682Z</time></trkpt><trkpt lat="32.9439885" lon="10.4658594"><ele>238.0</ele><time>2026-04-26T11:48:36.686Z</time></trkpt><trkpt lat="32.9440614" lon="10.465991"><ele>238.0</ele><time>2026-04-26T11:48:37.656Z</time></trkpt><trkpt lat="32.9441406" lon="10.4661211"><ele>238.0</ele><time>2026-04-26T11:48:38.666Z</time></trkpt><trkpt lat="32.9442211" lon="10.4662462"><ele>238.0</ele><time>2026-04-26T11:48:39.665Z</time></trkpt><trkpt lat="32.9442999" lon="10.4663699"><ele>238.0</ele><time>2026-04-26T11:48:40.682Z</time></trkpt><trkpt lat="32.9443738" lon="10.4664904"><ele>237.25</ele><time>2026-04-26T11:48:41.674Z</time></trkpt><trkpt lat="32.9444497" lon="10.4666135"><ele>236.5</ele><time>2026-04-26T11:48:42.67Z</time></trkpt><trkpt lat="32.9445163" lon="10.4667366"><ele>235.75</ele><time>2026-04-26T11:48:43.677Z</time></trkpt><trkpt lat="32.9445709" lon="10.4668558"><ele>235.0</ele><time>2026-04-26T11:48:44.677Z</time></trkpt><trkpt lat="32.9446198" lon="10.4669738"><ele>235.0</ele><time>2026-04-26T11:48:45.675Z</time></trkpt><trkpt lat="32.9446643" lon="10.4670829"><ele>235.0</ele><time>2026-04-26T11:48:46.669Z</time></trkpt><trkpt lat="32.944706" lon="10.4671928"><ele>235.0</ele><time>2026-04-26T11:48:47.679Z</time></trkpt><trkpt lat="32.9447502" lon="10.4673013"><ele>235.0</ele><time>2026-04-26T11:48:48.657Z</time></trkpt><trkpt lat="32.9447834" lon="10.4673999"><ele>235.0</ele><time>2026-04-26T11:48:49.679Z</time></trkpt><trkpt lat="32.9448149" lon="10.4674907"><ele>234.4</ele><time>2026-04-26T11:48:50.678Z</time></trkpt><trkpt lat="32.9448475" lon="10.4675652"><ele>233.8</ele><time>2026-04-26T11:48:51.673Z</time></trkpt><trkpt lat="32.9448928" lon="10.4676895"><ele>233.2</ele><time>2026-04-26T11:48:53.667Z</time></trkpt><trkpt lat="32.9449395" lon="10.4677948"><ele>232.6</ele><time>2026-04-26T11:48:55.676Z</time></trkpt><trkpt lat="32.944999" lon="10.467846"><ele>232.0</ele><time>2026-04-26T11:48:57.677Z</time></trkpt><trkpt lat="32.9450819" lon="10.4677937"><ele>232.0</ele><time>2026-04-26T11:49:00.68Z</time></trkpt><trkpt lat="32.945118" lon="10.4677062"><ele>232.0</ele><time>2026-04-26T11:49:03.675Z</time></trkpt></trkseg></trk></gpx>